<?xml version='1.0' encoding='UTF-8'?><gpx version="1.1" creator="JPX - https://github.com/jenetics/jpx" xmlns="http://www.topografix.com/GPX/1/1"><trk><trkseg><trkpt lat="43.18340290588766" lon="13.021696935774393"><ele>348.0</ele><time>2026-04-04T07:30:01.999Z</time></trkpt><trkpt lat="43.18343339670894" lon="13.021802567984661"><ele>348.0</ele><time>2026-04-04T07:32:34.999Z</time></trkpt><trkpt lat="43.18343972333981" lon="13.021950099682803"><ele>348.0</ele><time>2026-04-04T07:32:40.999Z</time></trkpt><trkpt lat="43.18347729113789" lon="13.022101227553094"><ele>348.0</ele><time>2026-04-04T07:32:42.999Z</time></trkpt><trkpt lat="43.18356030000041" lon="13.022232339821121"><ele>348.0</ele><time>2026-04-04T07:32:44.999Z</time></trkpt><trkpt lat="43.183644854468696" lon="13.022260047136397"><ele>348.0</ele><time>2026-04-04T07:32:45.999Z</time></trkpt><trkpt lat="43.18368085998805" lon="13.022336704248517"><ele>348.0</ele><time>2026-04-04T07:32:46.999Z</time></trkpt><trkpt lat="43.1837079347264" lon="13.0224257129844"><ele>348.0</ele><time>2026-04-04T07:32:47.999Z</time></trkpt><trkpt lat="43.1837605397315" lon="13.022511979723303"><ele>348.0</ele><time>2026-04-04T07:32:48.999Z</time></trkpt><trkpt lat="43.18378621876136" lon="13.022602680568355"><ele>348.0</ele><time>2026-04-04T07:32:49.999Z</time></trkpt><trkpt lat="43.18381316944054" lon="13.0226987933804"><ele>348.0</ele><time>2026-04-04T07:32:50.999Z</time></trkpt><trkpt lat="43.18383045232477" lon="13.022800566838436"><ele>348.0</ele><time>2026-04-04T07:32:51.999Z</time></trkpt><trkpt lat="43.183846463565466" lon="13.02288736819747"><ele>347.6666666666667</ele><time>2026-04-04T07:32:52.999Z</time></trkpt><trkpt lat="43.183861418153555" lon="13.022981243813263"><ele>347.3333333333333</ele><time>2026-04-04T07:32:53.999Z</time></trkpt><trkpt lat="43.18388955159684" lon="13.023088841233843"><ele>347.0</ele><time>2026-04-04T07:32:54.999Z</time></trkpt><trkpt lat="43.18391055802784" lon="13.023209994246665"><ele>346.66666666666663</ele><time>2026-04-04T07:32:55.999Z</time></trkpt><trkpt lat="43.18392790072914" lon="13.023327628245882"><ele>346.3333333333333</ele><time>2026-04-04T07:32:56.999Z</time></trkpt><trkpt lat="43.18394478153161" lon="13.023446771410958"><ele>346.0</ele><time>2026-04-04T07:32:57.999Z</time></trkpt><trkpt lat="43.18396877706624" lon="13.023565650195037"><ele>345.6</ele><time>2026-04-04T07:32:58.999Z</time></trkpt><trkpt lat="43.18399521772242" lon="13.023688434459357"><ele>345.20000000000005</ele><time>2026-04-04T07:32:59.999Z</time></trkpt><trkpt lat="43.18402459248149" lon="13.023815170824967"><ele>344.79999999999995</ele><time>2026-04-04T07:33:00.999Z</time></trkpt><trkpt lat="43.18406474533943" lon="13.023938020818415"><ele>344.4</ele><time>2026-04-04T07:33:01.999Z</time></trkpt><trkpt lat="43.18410874613079" lon="13.024059329322474"><ele>344.0</ele><time>2026-04-04T07:33:02.999Z</time></trkpt><trkpt lat="43.184157483308915" lon="13.024176261640763"><ele>343.6</ele><time>2026-04-04T07:33:03.999Z</time></trkpt><trkpt lat="43.1842051899563" lon="13.024296656796409"><ele>343.2</ele><time>2026-04-04T07:33:04.999Z</time></trkpt><trkpt lat="43.18424989862445" lon="13.02441087360752"><ele>342.8</ele><time>2026-04-04T07:33:05.999Z</time></trkpt><trkpt lat="43.18429612718917" lon="13.02452619689231"><ele>342.40000000000003</ele><time>2026-04-04T07:33:06.999Z</time></trkpt><trkpt lat="43.18434361703695" lon="13.024638403028076"><ele>342.0</ele><time>2026-04-04T07:33:07.999Z</time></trkpt><trkpt lat="43.184391241174445" lon="13.024753557679956"><ele>342.0</ele><time>2026-04-04T07:33:08.999Z</time></trkpt><trkpt lat="43.184439880946975" lon="13.024870470112397"><ele>342.0</ele><time>2026-04-04T07:33:09.999Z</time></trkpt><trkpt lat="43.18449022972312" lon="13.024986099525748"><ele>342.0</ele><time>2026-04-04T07:33:10.999Z</time></trkpt><trkpt lat="43.1845377087685" lon="13.02509162551558"><ele>342.0</ele><time>2026-04-04T07:33:11.999Z</time></trkpt><trkpt lat="43.1845847629243" lon="13.02519085604188"><ele>342.0</ele><time>2026-04-04T07:33:12.999Z</time></trkpt><trkpt lat="43.1846302583655" lon="13.025300331550872"><ele>342.0</ele><time>2026-04-04T07:33:13.999Z</time></trkpt><trkpt lat="43.18468239278185" lon="13.025406893046538"><ele>342.0</ele><time>2026-04-04T07:33:14.999Z</time></trkpt><trkpt lat="43.18473290285021" lon="13.025518925663743"><ele>342.0</ele><time>2026-04-04T07:33:15.999Z</time></trkpt><trkpt lat="43.18478938534068" lon="13.025643279617626"><ele>342.0</ele><time>2026-04-04T07:33:16.999Z</time></trkpt><trkpt lat="43.184850638598014" lon="13.025768127451885"><ele>342.0</ele><time>2026-04-04T07:33:17.999Z</time></trkpt><trkpt lat="43.18490538370606" lon="13.0258947364444"><ele>341.40000000000003</ele><time>2026-04-04T07:33:18.999Z</time></trkpt><trkpt lat="43.184964511691994" lon="13.026023486916992"><ele>340.8</ele><time>2026-04-04T07:33:19.999Z</time></trkpt><trkpt lat="43.18502245769118" lon="13.026144398011237"><ele>340.2</ele><time>2026-04-04T07:33:20.999Z</time></trkpt><trkpt lat="43.185081244814" lon="13.026269110088988"><ele>339.6</ele><time>2026-04-04T07:33:21.999Z</time></trkpt><trkpt lat="43.185132188164246" lon="13.026384572291349"><ele>339.0</ele><time>2026-04-04T07:33:22.999Z</time></trkpt><trkpt lat="43.185185688653206" lon="13.026496908421525"><ele>339.0</ele><time>2026-04-04T07:33:23.999Z</time></trkpt><trkpt lat="43.18524606286694" lon="13.026612854396129"><ele>339.0</ele><time>2026-04-04T07:33:25Z</time></trkpt><trkpt lat="43.18530696975629" lon="13.026729009244823"><ele>339.0</ele><time>2026-04-04T07:33:26Z</time></trkpt><trkpt lat="43.18536873828664" lon="13.026847361077701"><ele>339.0</ele><time>2026-04-04T07:33:27Z</time></trkpt><trkpt lat="43.18543076742952" lon="13.026968731419398"><ele>339.0</ele><time>2026-04-04T07:33:28Z</time></trkpt><trkpt lat="43.185492690117606" lon="13.027094934243408"><ele>339.2</ele><time>2026-04-04T07:33:29Z</time></trkpt><trkpt lat="43.18554353751812" lon="13.027208332561424"><ele>339.4</ele><time>2026-04-04T07:33:30Z</time></trkpt><trkpt lat="43.18558753255094" lon="13.02732254193125"><ele>339.6</ele><time>2026-04-04T07:33:31Z</time></trkpt><trkpt lat="43.18562711558228" lon="13.027431757139167"><ele>339.8</ele><time>2026-04-04T07:33:32Z</time></trkpt><trkpt lat="43.18566940647806" lon="13.02752901892157"><ele>340.0</ele><time>2026-04-04T07:33:33Z</time></trkpt><trkpt lat="43.185763537344975" lon="13.0276136926411"><ele>340.0</ele><time>2026-04-04T07:33:34Z</time></trkpt><trkpt lat="43.18583377429273" lon="13.027748076904752"><ele>340.0</ele><time>2026-04-04T07:33:35Z</time></trkpt><trkpt lat="43.18590137337471" lon="13.027911698786681"><ele>340.0</ele><time>2026-04-04T07:33:36Z</time></trkpt><trkpt lat="43.18598614743121" lon="13.028059075187086"><ele>340.0</ele><time>2026-04-04T07:33:37Z</time></trkpt><trkpt lat="43.186064692297045" lon="13.028192812756261"><ele>339.75</ele><time>2026-04-04T07:33:38Z</time></trkpt><trkpt lat="43.18613617630821" lon="13.028320521877598"><ele>339.5</ele><time>2026-04-04T07:33:39Z</time></trkpt><trkpt lat="43.18620790508187" lon="13.028456677770805"><ele>339.25</ele><time>2026-04-04T07:33:40Z</time></trkpt><trkpt lat="43.18627480373262" lon="13.02858968774636"><ele>339.0</ele><time>2026-04-04T07:33:41Z</time></trkpt><trkpt lat="43.18634239470173" lon="13.02872228826089"><ele>339.0</ele><time>2026-04-04T07:33:42Z</time></trkpt><trkpt lat="43.186408574718726" lon="13.028852577037524"><ele>339.0</ele><time>2026-04-04T07:33:43Z</time></trkpt><trkpt lat="43.186472642326386" lon="13.028971159714075"><ele>339.0</ele><time>2026-04-04T07:33:44Z</time></trkpt><trkpt lat="43.186538291088844" lon="13.029089112097187"><ele>339.0</ele><time>2026-04-04T07:33:45Z</time></trkpt><trkpt lat="43.18660498826613" lon="13.029203826453807"><ele>339.0</ele><time>2026-04-04T07:33:46Z</time></trkpt><trkpt lat="43.18666466904558" lon="13.029309898359372"><ele>338.75</ele><time>2026-04-04T07:33:47Z</time></trkpt><trkpt lat="43.1867051285089" lon="13.029415583890668"><ele>338.5</ele><time>2026-04-04T07:33:48Z</time></trkpt><trkpt lat="43.18676335267076" lon="13.029487597914029"><ele>338.25</ele><time>2026-04-04T07:33:49Z</time></trkpt><trkpt lat="43.18679933838716" lon="13.029561666907032"><ele>338.0</ele><time>2026-04-04T07:33:50Z</time></trkpt><trkpt lat="43.18664949492333" lon="13.029831478830566"><ele>337.5</ele><time>2026-04-04T07:33:51Z</time></trkpt><trkpt lat="43.18662856614877" lon="13.029992322183464"><ele>337.0</ele><time>2026-04-04T07:33:52Z</time></trkpt><trkpt lat="43.1866105290156" lon="13.030117687825623"><ele>336.5</ele><time>2026-04-04T07:33:53Z</time></trkpt><trkpt lat="43.18657502453305" lon="13.030213708329065"><ele>336.0</ele><time>2026-04-04T07:33:54Z</time></trkpt><trkpt lat="43.186523570447996" lon="13.030300634906592"><ele>335.5</ele><time>2026-04-04T07:33:55Z</time></trkpt><trkpt lat="43.186471995602076" lon="13.030375548589586"><ele>335.0</ele><time>2026-04-04T07:33:56Z</time></trkpt><trkpt lat="43.186422223668146" lon="13.030444823795634"><ele>334.8</ele><time>2026-04-04T07:33:57Z</time></trkpt><trkpt lat="43.18637035366489" lon="13.030621421023481"><ele>334.6</ele><time>2026-04-04T07:33:59Z</time></trkpt><trkpt lat="43.18636961367195" lon="13.030738808535977"><ele>334.4</ele><time>2026-04-04T07:34:00Z</time></trkpt><trkpt lat="43.18637289147814" lon="13.030836206738142"><ele>334.2</ele><time>2026-04-04T07:34:01Z</time></trkpt><trkpt lat="43.18631012900527" lon="13.030958263288422"><ele>334.0</ele><time>2026-04-04T07:34:03Z</time></trkpt><trkpt lat="43.18629399754953" lon="13.031064260558628"><ele>333.8333333333333</ele><time>2026-04-04T07:34:07Z</time></trkpt><trkpt lat="43.18625399505771" lon="13.031214975273167"><ele>333.66666666666663</ele><time>2026-04-04T07:34:10Z</time></trkpt><trkpt lat="43.18621059207123" lon="13.031285151658464"><ele>333.5</ele><time>2026-04-04T07:34:11Z</time></trkpt><trkpt lat="43.18615220687978" lon="13.031347534842553"><ele>333.3333333333333</ele><time>2026-04-04T07:34:12Z</time></trkpt><trkpt lat="43.18608332166073" lon="13.031396986281596"><ele>333.1666666666667</ele><time>2026-04-04T07:34:13Z</time></trkpt><trkpt lat="43.1860157210011" lon="13.03144773482799"><ele>333.0</ele><time>2026-04-04T07:34:14Z</time></trkpt><trkpt lat="43.1859500427554" lon="13.031497748588345"><ele>333.0</ele><time>2026-04-04T07:34:15Z</time></trkpt><trkpt lat="43.18587794270982" lon="13.031557609530223"><ele>333.0</ele><time>2026-04-04T07:34:16Z</time></trkpt><trkpt lat="43.185801274138676" lon="13.031616057251945"><ele>333.0</ele><time>2026-04-04T07:34:17Z</time></trkpt><trkpt lat="43.18571943152467" lon="13.031678107409064"><ele>333.0</ele><time>2026-04-04T07:34:18Z</time></trkpt><trkpt lat="43.18563569825081" lon="13.03174520757423"><ele>333.0</ele><time>2026-04-04T07:34:19Z</time></trkpt><trkpt lat="43.18556411782235" lon="13.03180333380408"><ele>333.0</ele><time>2026-04-04T07:34:20Z</time></trkpt><trkpt lat="43.18549311368697" lon="13.031865777992012"><ele>332.4</ele><time>2026-04-04T07:34:21Z</time></trkpt><trkpt lat="43.18540637924922" lon="13.031936293377372"><ele>331.79999999999995</ele><time>2026-04-04T07:34:22Z</time></trkpt><trkpt lat="43.185316825620106" lon="13.032001999144619"><ele>331.2</ele><time>2026-04-04T07:34:23Z</time></trkpt><trkpt lat="43.185223999804194" lon="13.032072061111485"><ele>330.6</ele><time>2026-04-04T07:34:24Z</time></trkpt><trkpt lat="43.18513088001149" lon="13.032146851328426"><ele>330.0</ele><time>2026-04-04T07:34:24.999Z</time></trkpt><trkpt lat="43.18502942344896" lon="13.03221115532091"><ele>330.0</ele><time>2026-04-04T07:34:25.999Z</time></trkpt><trkpt lat="43.18492135829986" lon="13.03225558487175"><ele>330.0</ele><time>2026-04-04T07:34:26.999Z</time></trkpt><trkpt lat="43.18479911734396" lon="13.032288662101404"><ele>330.0</ele><time>2026-04-04T07:34:27.999Z</time></trkpt><trkpt lat="43.184666107258025" lon="13.032304906642391"><ele>330.0</ele><time>2026-04-04T07:34:28.999Z</time></trkpt><trkpt lat="43.18451999026915" lon="13.03230334248338"><ele>329.5</ele><time>2026-04-04T07:34:29.999Z</time></trkpt><trkpt lat="43.18438971405261" lon="13.03229853914583"><ele>329.0</ele><time>2026-04-04T07:34:30.999Z</time></trkpt><trkpt lat="43.184260328888705" lon="13.032291450074155"><ele>328.5</ele><time>2026-04-04T07:34:31.999Z</time></trkpt><trkpt lat="43.18412989097292" lon="13.032279785044727"><ele>328.0</ele><time>2026-04-04T07:34:32.999Z</time></trkpt><trkpt lat="43.18399413698265" lon="13.032256195356954"><ele>325.75</ele><time>2026-04-04T07:34:33.999Z</time></trkpt><trkpt lat="43.183863507393255" lon="13.032213623855478"><ele>323.5</ele><time>2026-04-04T07:34:34.999Z</time></trkpt><trkpt lat="43.18373718483865" lon="13.032138391181007"><ele>321.25</ele><time>2026-04-04T07:34:35.999Z</time></trkpt><trkpt lat="43.183613486962564" lon="13.032045150936764"><ele>319.0</ele><time>2026-04-04T07:34:36.999Z</time></trkpt><trkpt lat="43.18349866859022" lon="13.031902084496071"><ele>319.0</ele><time>2026-04-04T07:34:37.999Z</time></trkpt><trkpt lat="43.183366996132484" lon="13.03178718581422"><ele>319.0</ele><time>2026-04-04T07:34:38.999Z</time></trkpt><trkpt lat="43.183227924260905" lon="13.031691575647784"><ele>319.0</ele><time>2026-04-04T07:34:39.999Z</time></trkpt><trkpt lat="43.18311722409878" lon="13.031593893478789"><ele>319.0</ele><time>2026-04-04T07:34:40.999Z</time></trkpt><trkpt lat="43.18302494717489" lon="13.031508772660015"><ele>319.4</ele><time>2026-04-04T07:34:41.999Z</time></trkpt><trkpt lat="43.18293533861041" lon="13.031424472186846"><ele>319.79999999999995</ele><time>2026-04-04T07:34:42.999Z</time></trkpt><trkpt lat="43.18284285575515" lon="13.031341503593323"><ele>320.20000000000005</ele><time>2026-04-04T07:34:43.999Z</time></trkpt><trkpt lat="43.18275312717575" lon="13.031267647278879"><ele>320.6</ele><time>2026-04-04T07:34:44.999Z</time></trkpt><trkpt lat="43.182673723408605" lon="13.031232828191712"><ele>321.0</ele><time>2026-04-04T07:34:45.999Z</time></trkpt><trkpt lat="43.182591816179745" lon="13.031253590093641"><ele>321.0</ele><time>2026-04-04T07:34:46.999Z</time></trkpt><trkpt lat="43.18251403870472" lon="13.03132766575448"><ele>321.0</ele><time>2026-04-04T07:34:47.999Z</time></trkpt><trkpt lat="43.18245570777382" lon="13.031440738428845"><ele>321.0</ele><time>2026-04-04T07:34:48.999Z</time></trkpt><trkpt lat="43.18242234304497" lon="13.031585869425191"><ele>321.0</ele><time>2026-04-04T07:34:49.999Z</time></trkpt><trkpt lat="43.18240752076913" lon="13.031745337506557"><ele>321.0</ele><time>2026-04-04T07:34:50.999Z</time></trkpt><trkpt lat="43.182390752420126" lon="13.031906317274279"><ele>322.0</ele><time>2026-04-04T07:34:51.999Z</time></trkpt><trkpt lat="43.182369562576284" lon="13.032075620099024"><ele>323.0</ele><time>2026-04-04T07:34:52.999Z</time></trkpt><trkpt lat="43.18235078822275" lon="13.032252901619438"><ele>324.0</ele><time>2026-04-04T07:34:53.999Z</time></trkpt><trkpt lat="43.18234236387673" lon="13.03242591518656"><ele>325.0</ele><time>2026-04-04T07:34:54.999Z</time></trkpt><trkpt lat="43.18234317971946" lon="13.032595748482692"><ele>325.25</ele><time>2026-04-04T07:34:55.999Z</time></trkpt><trkpt lat="43.18236116288119" lon="13.032764765296097"><ele>325.5</ele><time>2026-04-04T07:34:56.999Z</time></trkpt><trkpt lat="43.18238043132547" lon="13.032933448627965"><ele>325.75</ele><time>2026-04-04T07:34:57.999Z</time></trkpt><trkpt lat="43.182388572860795" lon="13.03309732958955"><ele>326.0</ele><time>2026-04-04T07:34:58.999Z</time></trkpt><trkpt lat="43.18237418449186" lon="13.033249892124047"><ele>328.20000000000005</ele><time>2026-04-04T07:34:59.999Z</time></trkpt><trkpt lat="43.182318968230966" lon="13.033367879188546"><ele>330.40000000000003</ele><time>2026-04-04T07:35:00.999Z</time></trkpt><trkpt lat="43.18223663527868" lon="13.033455573419303"><ele>332.6</ele><time>2026-04-04T07:35:01.999Z</time></trkpt><trkpt lat="43.18212113962492" lon="13.033461013690133"><ele>334.8</ele><time>2026-04-04T07:35:02.999Z</time></trkpt><trkpt lat="43.18201042028242" lon="13.03347762953253"><ele>337.0</ele><time>2026-04-04T07:35:03.999Z</time></trkpt><trkpt lat="43.181902078825814" lon="13.033392589625972"><ele>337.0</ele><time>2026-04-04T07:35:04.999Z</time></trkpt><trkpt lat="43.18180003415634" lon="13.033308954589307"><ele>337.0</ele><time>2026-04-04T07:35:05.999Z</time></trkpt><trkpt lat="43.181687204931336" lon="13.033237442632853"><ele>337.0</ele><time>2026-04-04T07:35:06.999Z</time></trkpt><trkpt lat="43.181591739314484" lon="13.033143695844043"><ele>337.0</ele><time>2026-04-04T07:35:07.999Z</time></trkpt><trkpt lat="43.18149679736827" lon="13.033055669773566"><ele>338.5</ele><time>2026-04-04T07:35:08.999Z</time></trkpt><trkpt lat="43.18139576531251" lon="13.03297127062942"><ele>340.0</ele><time>2026-04-04T07:35:09.999Z</time></trkpt><trkpt lat="43.18129508151335" lon="13.032883148543917"><ele>341.5</ele><time>2026-04-04T07:35:10.999Z</time></trkpt><trkpt lat="43.18119163726999" lon="13.032791589227614"><ele>343.0</ele><time>2026-04-04T07:35:11.999Z</time></trkpt><trkpt lat="43.1810888230286" lon="13.032705779085433"><ele>343.0</ele><time>2026-04-04T07:35:12.999Z</time></trkpt><trkpt lat="43.180984692117285" lon="13.032623576730769"><ele>343.0</ele><time>2026-04-04T07:35:13.999Z</time></trkpt><trkpt lat="43.18088011825432" lon="13.032538145772387"><ele>343.0</ele><time>2026-04-04T07:35:14.999Z</time></trkpt><trkpt lat="43.18077214169407" lon="13.03244399732574"><ele>343.0</ele><time>2026-04-04T07:35:15.999Z</time></trkpt><trkpt lat="43.180656421633444" lon="13.032349314984351"><ele>342.5</ele><time>2026-04-04T07:35:16.999Z</time></trkpt><trkpt lat="43.180539250583344" lon="13.03225082052808"><ele>342.0</ele><time>2026-04-04T07:35:17.999Z</time></trkpt><trkpt lat="43.18042309910936" lon="13.032148667424346"><ele>341.5</ele><time>2026-04-04T07:35:18.999Z</time></trkpt><trkpt lat="43.18029564306936" lon="13.032041818941389"><ele>341.0</ele><time>2026-04-04T07:35:19.999Z</time></trkpt><trkpt lat="43.18017212091748" lon="13.031940025281044"><ele>341.0</ele><time>2026-04-04T07:35:20.999Z</time></trkpt><trkpt lat="43.180050460732545" lon="13.031837585003222"><ele>341.0</ele><time>2026-04-04T07:35:21.999Z</time></trkpt><trkpt lat="43.1799270329635" lon="13.031735777909647"><ele>341.0</ele><time>2026-04-04T07:35:22.999Z</time></trkpt><trkpt lat="43.17980261703714" lon="13.031631748442344"><ele>341.0</ele><time>2026-04-04T07:35:23.999Z</time></trkpt><trkpt lat="43.17967055662064" lon="13.031518768142067"><ele>342.0</ele><time>2026-04-04T07:35:24.999Z</time></trkpt><trkpt lat="43.179535148405215" lon="13.031404882554243"><ele>343.0</ele><time>2026-04-04T07:35:25.999Z</time></trkpt><trkpt lat="43.17940578592338" lon="13.03129226131083"><ele>344.0</ele><time>2026-04-04T07:35:26.999Z</time></trkpt><trkpt lat="43.17928311801371" lon="13.031181902980423"><ele>344.0</ele><time>2026-04-04T07:35:27.999Z</time></trkpt><trkpt lat="43.17916745847782" lon="13.03107378947562"><ele>344.0</ele><time>2026-04-04T07:35:28.999Z</time></trkpt><trkpt lat="43.17904706397513" lon="13.030958741181434"><ele>344.0</ele><time>2026-04-04T07:35:30Z</time></trkpt><trkpt lat="43.178927717295814" lon="13.030845349881847"><ele>344.0</ele><time>2026-04-04T07:35:31Z</time></trkpt><trkpt lat="43.1788052195195" lon="13.0307272641144"><ele>344.33333333333337</ele><time>2026-04-04T07:35:32Z</time></trkpt><trkpt lat="43.178681589521595" lon="13.03059842391685"><ele>344.6666666666667</ele><time>2026-04-04T07:35:33Z</time></trkpt><trkpt lat="43.17855712967457" lon="13.030462575734573"><ele>345.0</ele><time>2026-04-04T07:35:34Z</time></trkpt><trkpt lat="43.17843343019964" lon="13.030318402231817"><ele>345.0</ele><time>2026-04-04T07:35:35Z</time></trkpt><trkpt lat="43.178309342921224" lon="13.030170227013375"><ele>345.0</ele><time>2026-04-04T07:35:36Z</time></trkpt><trkpt lat="43.178185245915685" lon="13.030026070453186"><ele>345.0</ele><time>2026-04-04T07:35:37Z</time></trkpt><trkpt lat="43.17806521071725" lon="13.029885915277617"><ele>346.3333333333333</ele><time>2026-04-04T07:35:38Z</time></trkpt><trkpt lat="43.17794733459992" lon="13.02974916862885"><ele>347.66666666666663</ele><time>2026-04-04T07:35:39Z</time></trkpt><trkpt lat="43.177828809948004" lon="13.029614157655539"><ele>349.0</ele><time>2026-04-04T07:35:40Z</time></trkpt><trkpt lat="43.177712307082025" lon="13.029478860648025"><ele>349.0</ele><time>2026-04-04T07:35:41Z</time></trkpt><trkpt lat="43.177596726493164" lon="13.029344672401564"><ele>349.0</ele><time>2026-04-04T07:35:42Z</time></trkpt><trkpt lat="43.17747500401184" lon="13.029207796614093"><ele>349.0</ele><time>2026-04-04T07:35:43Z</time></trkpt><trkpt lat="43.17735816644678" lon="13.029073639124448"><ele>350.75</ele><time>2026-04-04T07:35:44Z</time></trkpt><trkpt lat="43.17724252501191" lon="13.028941400103212"><ele>352.5</ele><time>2026-04-04T07:35:45Z</time></trkpt><trkpt lat="43.17712819144334" lon="13.02881053843309"><ele>354.25</ele><time>2026-04-04T07:35:46Z</time></trkpt><trkpt lat="43.17701619392547" lon="13.028682556698243"><ele>356.0</ele><time>2026-04-04T07:35:47Z</time></trkpt><trkpt lat="43.17690981981416" lon="13.02855648455192"><ele>356.0</ele><time>2026-04-04T07:35:48Z</time></trkpt><trkpt lat="43.17680457059364" lon="13.028425381460584"><ele>356.0</ele><time>2026-04-04T07:35:49Z</time></trkpt><trkpt lat="43.176695614205094" lon="13.028291922873295"><ele>356.0</ele><time>2026-04-04T07:35:50Z</time></trkpt><trkpt lat="43.17656087494186" lon="13.028173522285046"><ele>356.0</ele><time>2026-04-04T07:35:51Z</time></trkpt><trkpt lat="43.176414661638454" lon="13.028087594741766"><ele>357.5</ele><time>2026-04-04T07:35:52Z</time></trkpt><trkpt lat="43.17626006723738" lon="13.028048837532367"><ele>359.0</ele><time>2026-04-04T07:35:53Z</time></trkpt><trkpt lat="43.17613026127102" lon="13.028032781181954"><ele>360.5</ele><time>2026-04-04T07:35:54Z</time></trkpt><trkpt lat="43.17602362929173" lon="13.028009356624713"><ele>362.0</ele><time>2026-04-04T07:35:55Z</time></trkpt><trkpt lat="43.175943492301386" lon="13.027976089090453"><ele>362.0</ele><time>2026-04-04T07:35:56Z</time></trkpt><trkpt lat="43.17587874906022" lon="13.027920010475691"><ele>362.0</ele><time>2026-04-04T07:35:57Z</time></trkpt><trkpt lat="43.175829169306006" lon="13.027824376136715"><ele>362.0</ele><time>2026-04-04T07:35:58Z</time></trkpt><trkpt lat="43.17579157481787" lon="13.02769351268476"><ele>362.0</ele><time>2026-04-04T07:35:59Z</time></trkpt><trkpt lat="43.17576566673338" lon="13.027543785881115"><ele>362.0</ele><time>2026-04-04T07:36:00Z</time></trkpt><trkpt lat="43.175756825896414" lon="13.027418609978945"><ele>362.5</ele><time>2026-04-04T07:36:01Z</time></trkpt><trkpt lat="43.17575520739281" lon="13.027327969795605"><ele>363.0</ele><time>2026-04-04T07:36:02Z</time></trkpt><trkpt lat="43.175740949414156" lon="13.02719296307468"><ele>363.5</ele><time>2026-04-04T07:36:04Z</time></trkpt><trkpt lat="43.175734424696" lon="13.02710692134511"><ele>364.0</ele><time>2026-04-04T07:36:06Z</time></trkpt><trkpt lat="43.17571063449462" lon="13.026992523856514"><ele>364.5</ele><time>2026-04-04T07:36:21.999Z</time></trkpt><trkpt lat="43.175686987814935" lon="13.026841133528357"><ele>365.0</ele><time>2026-04-04T07:36:23.999Z</time></trkpt><trkpt lat="43.17567434897729" lon="13.026752109156261"><ele>365.5</ele><time>2026-04-04T07:36:24.999Z</time></trkpt><trkpt lat="43.17566377772161" lon="13.026654996582801"><ele>366.0</ele><time>2026-04-04T07:36:25.999Z</time></trkpt><trkpt lat="43.17565051779495" lon="13.02656520159247"><ele>366.5</ele><time>2026-04-04T07:36:26.999Z</time></trkpt><trkpt lat="43.17563322785156" lon="13.026460209702302"><ele>367.0</ele><time>2026-04-04T07:36:27.999Z</time></trkpt><trkpt lat="43.175618946807035" lon="13.026347320392944"><ele>367.5</ele><time>2026-04-04T07:36:28.999Z</time></trkpt><trkpt lat="43.17560643624782" lon="13.026227063028879"><ele>368.0</ele><time>2026-04-04T07:36:29.999Z</time></trkpt><trkpt lat="43.17560630036338" lon="13.026113637564126"><ele>368.4</ele><time>2026-04-04T07:36:30.999Z</time></trkpt><trkpt lat="43.175611072821056" lon="13.025985874818366"><ele>368.79999999999995</ele><time>2026-04-04T07:36:31.999Z</time></trkpt><trkpt lat="43.1756356431351" lon="13.025843879743574"><ele>369.2</ele><time>2026-04-04T07:36:32.999Z</time></trkpt><trkpt lat="43.17568435895238" lon="13.025713304692017"><ele>369.6</ele><time>2026-04-04T07:36:33.999Z</time></trkpt><trkpt lat="43.17573760740322" lon="13.025584378275168"><ele>370.0</ele><time>2026-04-04T07:36:34.999Z</time></trkpt><trkpt lat="43.17581341032151" lon="13.025442425113186"><ele>369.25</ele><time>2026-04-04T07:36:35.999Z</time></trkpt><trkpt lat="43.17590007179417" lon="13.025307099377446"><ele>368.5</ele><time>2026-04-04T07:36:36.999Z</time></trkpt><trkpt lat="43.17599223807191" lon="13.025176294794774"><ele>367.75</ele><time>2026-04-04T07:36:37.999Z</time></trkpt><trkpt lat="43.17608289687468" lon="13.025028860686012"><ele>367.0</ele><time>2026-04-04T07:36:38.999Z</time></trkpt><trkpt lat="43.17617345722828" lon="13.024878183848642"><ele>367.0</ele><time>2026-04-04T07:36:39.999Z</time></trkpt><trkpt lat="43.17626034689407" lon="13.024714604069848"><ele>367.0</ele><time>2026-04-04T07:36:40.999Z</time></trkpt><trkpt lat="43.17634385349345" lon="13.024546623460578"><ele>367.0</ele><time>2026-04-04T07:36:41.999Z</time></trkpt><trkpt lat="43.17642344595227" lon="13.024369352348145"><ele>367.0</ele><time>2026-04-04T07:36:42.999Z</time></trkpt><trkpt lat="43.17649805380344" lon="13.024179937165867"><ele>364.3333333333333</ele><time>2026-04-04T07:36:43.999Z</time></trkpt><trkpt lat="43.17657174276235" lon="13.023971561829761"><ele>361.6666666666667</ele><time>2026-04-04T07:36:44.999Z</time></trkpt><trkpt lat="43.1766399533468" lon="13.023784501834655"><ele>359.0</ele><time>2026-04-04T07:36:45.999Z</time></trkpt><trkpt lat="43.17671056239442" lon="13.023601151275335"><ele>359.0</ele><time>2026-04-04T07:36:46.999Z</time></trkpt><trkpt lat="43.17678848220333" lon="13.023433519325993"><ele>359.0</ele><time>2026-04-04T07:36:47.999Z</time></trkpt><trkpt lat="43.17688039733652" lon="13.023258869488522"><ele>359.0</ele><time>2026-04-04T07:36:48.999Z</time></trkpt><trkpt lat="43.17698137493008" lon="13.023073437599987"><ele>360.0</ele><time>2026-04-04T07:36:49.999Z</time></trkpt><trkpt lat="43.177080210624894" lon="13.022908911640748"><ele>361.0</ele><time>2026-04-04T07:36:50.999Z</time></trkpt><trkpt lat="43.17717272331748" lon="13.022767099083435"><ele>362.0</ele><time>2026-04-04T07:36:51.999Z</time></trkpt><trkpt lat="43.17726579382774" lon="13.022627793518057"><ele>363.0</ele><time>2026-04-04T07:36:52.999Z</time></trkpt><trkpt lat="43.17736340574177" lon="13.022483817295447"><ele>361.25</ele><time>2026-04-04T07:36:53.999Z</time></trkpt><trkpt lat="43.177451790217724" lon="13.02235616707843"><ele>359.5</ele><time>2026-04-04T07:36:54.999Z</time></trkpt><trkpt lat="43.17752203039977" lon="13.02220532007939"><ele>357.75</ele><time>2026-04-04T07:36:55.999Z</time></trkpt><trkpt lat="43.17757517315753" lon="13.022026682489996"><ele>356.0</ele><time>2026-04-04T07:36:56.999Z</time></trkpt><trkpt lat="43.177595226126925" lon="13.021823372138122"><ele>357.0</ele><time>2026-04-04T07:36:57.999Z</time></trkpt><trkpt lat="43.177604963048076" lon="13.021609422907979"><ele>358.0</ele><time>2026-04-04T07:36:58.999Z</time></trkpt><trkpt lat="43.177620233330664" lon="13.021402124861222"><ele>359.0</ele><time>2026-04-04T07:36:59.999Z</time></trkpt><trkpt lat="43.17764900059127" lon="13.021195418228046"><ele>359.0</ele><time>2026-04-04T07:37:00.999Z</time></trkpt><trkpt lat="43.17768605599099" lon="13.020989050892586"><ele>359.0</ele><time>2026-04-04T07:37:01.999Z</time></trkpt><trkpt lat="43.17773687592428" lon="13.020780986745047"><ele>359.0</ele><time>2026-04-04T07:37:02.999Z</time></trkpt><trkpt lat="43.17780216841429" lon="13.020550725642769"><ele>360.0</ele><time>2026-04-04T07:37:03.999Z</time></trkpt><trkpt lat="43.17786960241863" lon="13.020319706787781"><ele>361.0</ele><time>2026-04-04T07:37:04.999Z</time></trkpt><trkpt lat="43.177937183895025" lon="13.020087005797421"><ele>362.0</ele><time>2026-04-04T07:37:05.999Z</time></trkpt><trkpt lat="43.17800472477253" lon="13.019856843986437"><ele>362.33333333333337</ele><time>2026-04-04T07:37:06.999Z</time></trkpt><trkpt lat="43.178071101300375" lon="13.019631490702729"><ele>362.6666666666667</ele><time>2026-04-04T07:37:07.999Z</time></trkpt><trkpt lat="43.17812919341069" lon="13.019414333971152"><ele>363.0</ele><time>2026-04-04T07:37:08.999Z</time></trkpt><trkpt lat="43.178176277971836" lon="13.019192882455721"><ele>360.6666666666667</ele><time>2026-04-04T07:37:09.999Z</time></trkpt><trkpt lat="43.17821536969844" lon="13.018978677502965"><ele>358.33333333333337</ele><time>2026-04-04T07:37:10.999Z</time></trkpt><trkpt lat="43.17825375041556" lon="13.018773141354673"><ele>356.0</ele><time>2026-04-04T07:37:11.999Z</time></trkpt><trkpt lat="43.17829026830532" lon="13.018563020012317"><ele>356.0</ele><time>2026-04-04T07:37:12.999Z</time></trkpt><trkpt lat="43.178329305851356" lon="13.018350280293715"><ele>356.0</ele><time>2026-04-04T07:37:13.999Z</time></trkpt><trkpt lat="43.17837083717817" lon="13.018131003702482"><ele>356.0</ele><time>2026-04-04T07:37:14.999Z</time></trkpt><trkpt lat="43.17841221074867" lon="13.017908080448171"><ele>355.6666666666667</ele><time>2026-04-04T07:37:15.999Z</time></trkpt><trkpt lat="43.178455663188615" lon="13.017682042997148"><ele>355.3333333333333</ele><time>2026-04-04T07:37:16.999Z</time></trkpt><trkpt lat="43.17849996198568" lon="13.017450334544499"><ele>355.0</ele><time>2026-04-04T07:37:17.999Z</time></trkpt><trkpt lat="43.178543305465645" lon="13.017215921921947"><ele>355.0</ele><time>2026-04-04T07:37:18.999Z</time></trkpt><trkpt lat="43.17857662748152" lon="13.016976918507416"><ele>355.0</ele><time>2026-04-04T07:37:19.999Z</time></trkpt><trkpt lat="43.17860434707582" lon="13.016737743870294"><ele>355.0</ele><time>2026-04-04T07:37:20.999Z</time></trkpt><trkpt lat="43.17862529449561" lon="13.016504826976458"><ele>355.0</ele><time>2026-04-04T07:37:21.999Z</time></trkpt><trkpt lat="43.17864049303515" lon="13.01628542611093"><ele>355.0</ele><time>2026-04-04T07:37:22.999Z</time></trkpt><trkpt lat="43.17864582617829" lon="13.016087823756887"><ele>355.0</ele><time>2026-04-04T07:37:23.999Z</time></trkpt><trkpt lat="43.17862849955085" lon="13.015899916340267"><ele>355.0</ele><time>2026-04-04T07:37:24.999Z</time></trkpt><trkpt lat="43.178575046733044" lon="13.015721876024026"><ele>355.75</ele><time>2026-04-04T07:37:25.999Z</time></trkpt><trkpt lat="43.17849869015888" lon="13.015546413793354"><ele>356.5</ele><time>2026-04-04T07:37:26.999Z</time></trkpt><trkpt lat="43.17840455242658" lon="13.015381036319125"><ele>357.25</ele><time>2026-04-04T07:37:27.999Z</time></trkpt><trkpt lat="43.178333840856936" lon="13.01520701257"><ele>358.0</ele><time>2026-04-04T07:37:28.999Z</time></trkpt><trkpt lat="43.178267440918646" lon="13.01502624012343"><ele>357.25</ele><time>2026-04-04T07:37:29.999Z</time></trkpt><trkpt lat="43.17819884901539" lon="13.0148607766821"><ele>356.5</ele><time>2026-04-04T07:37:30.999Z</time></trkpt><trkpt lat="43.17811532281361" lon="13.014708231178325"><ele>355.75</ele><time>2026-04-04T07:37:31.999Z</time></trkpt><trkpt lat="43.178008178945895" lon="13.014563985361944"><ele>355.0</ele><time>2026-04-04T07:37:32.999Z</time></trkpt><trkpt lat="43.1778960092611" lon="13.01443576025355"><ele>358.25</ele><time>2026-04-04T07:37:33.999Z</time></trkpt><trkpt lat="43.17779977766989" lon="13.014302599726138"><ele>361.5</ele><time>2026-04-04T07:37:34.999Z</time></trkpt><trkpt lat="43.17774592423514" lon="13.014153438336283"><ele>364.75</ele><time>2026-04-04T07:37:36Z</time></trkpt><trkpt lat="43.177721126059915" lon="13.013964355339818"><ele>368.0</ele><time>2026-04-04T07:37:37Z</time></trkpt><trkpt lat="43.17770524062361" lon="13.01376808794054"><ele>368.0</ele><time>2026-04-04T07:37:38Z</time></trkpt><trkpt lat="43.177690480678244" lon="13.013567865454503"><ele>368.0</ele><time>2026-04-04T07:37:39Z</time></trkpt><trkpt lat="43.17767434671646" lon="13.013372069960774"><ele>368.0</ele><time>2026-04-04T07:37:40Z</time></trkpt><trkpt lat="43.17765190262975" lon="13.013186301218145"><ele>368.0</ele><time>2026-04-04T07:37:41Z</time></trkpt><trkpt lat="43.1776223198328" lon="13.013013894305447"><ele>368.0</ele><time>2026-04-04T07:37:42Z</time></trkpt><trkpt lat="43.17757556521591" lon="13.01286333429692"><ele>368.0</ele><time>2026-04-04T07:37:43Z</time></trkpt><trkpt lat="43.17751177366265" lon="13.012738218422571"><ele>368.0</ele><time>2026-04-04T07:37:44Z</time></trkpt><trkpt lat="43.17742699628528" lon="13.01262335367074"><ele>368.0</ele><time>2026-04-04T07:37:45Z</time></trkpt><trkpt lat="43.17733281746486" lon="13.012519015932897"><ele>372.5</ele><time>2026-04-04T07:37:46Z</time></trkpt><trkpt lat="43.17723625297917" lon="13.012406960961167"><ele>377.0</ele><time>2026-04-04T07:37:47Z</time></trkpt><trkpt lat="43.17713936393822" lon="13.012286737239654"><ele>381.5</ele><time>2026-04-04T07:37:48Z</time></trkpt><trkpt lat="43.17704538924853" lon="13.012163031511204"><ele>386.0</ele><time>2026-04-04T07:37:49Z</time></trkpt><trkpt lat="43.17694803719716" lon="13.012036953873432"><ele>386.0</ele><time>2026-04-04T07:37:50Z</time></trkpt><trkpt lat="43.17685370918564" lon="13.011912286450409"><ele>386.0</ele><time>2026-04-04T07:37:51Z</time></trkpt><trkpt lat="43.17677311553668" lon="13.011797801403558"><ele>386.0</ele><time>2026-04-04T07:37:52Z</time></trkpt><trkpt lat="43.17670663309877" lon="13.01170313256404"><ele>386.0</ele><time>2026-04-04T07:37:53Z</time></trkpt><trkpt lat="43.17665425031519" lon="13.01162917752325"><ele>386.0</ele><time>2026-04-04T07:37:54Z</time></trkpt><trkpt lat="43.17656913303784" lon="13.011521108510403"><ele>390.0</ele><time>2026-04-04T07:37:56Z</time></trkpt><trkpt lat="43.17649847311112" lon="13.011527368423728"><ele>394.0</ele><time>2026-04-04T07:37:58Z</time></trkpt><trkpt lat="43.17646587962127" lon="13.011672172317931"><ele>398.0</ele><time>2026-04-04T07:38:00Z</time></trkpt><trkpt lat="43.17646611055138" lon="13.011786697594383"><ele>402.0</ele><time>2026-04-04T07:38:01Z</time></trkpt><trkpt lat="43.176455245163325" lon="13.011916713536161"><ele>406.0</ele><time>2026-04-04T07:38:02Z</time></trkpt><trkpt lat="43.17644750246409" lon="13.012065590173068"><ele>406.0</ele><time>2026-04-04T07:38:03Z</time></trkpt><trkpt lat="43.17644519597153" lon="13.012229977623868"><ele>406.0</ele><time>2026-04-04T07:38:04Z</time></trkpt><trkpt lat="43.1764413079589" lon="13.01239839025546"><ele>406.0</ele><time>2026-04-04T07:38:05Z</time></trkpt><trkpt lat="43.1764328490972" lon="13.01257000207109"><ele>406.0</ele><time>2026-04-04T07:38:06Z</time></trkpt><trkpt lat="43.17641194293731" lon="13.012709174819935"><ele>405.50000000000006</ele><time>2026-04-04T07:38:07Z</time></trkpt><trkpt lat="43.176377338242595" lon="13.01280120870955"><ele>405.0</ele><time>2026-04-04T07:38:08Z</time></trkpt><trkpt lat="43.17631446479506" lon="13.012862569869265"><ele>404.5</ele><time>2026-04-04T07:38:09Z</time></trkpt><trkpt lat="43.17622156689566" lon="13.012881513419929"><ele>404.0</ele><time>2026-04-04T07:38:10Z</time></trkpt><trkpt lat="43.176126865195734" lon="13.012873650257873"><ele>403.50000000000006</ele><time>2026-04-04T07:38:11Z</time></trkpt><trkpt lat="43.1760327784086" lon="13.012827308340821"><ele>403.0</ele><time>2026-04-04T07:38:12Z</time></trkpt><trkpt lat="43.17595043092657" lon="13.012754158964889"><ele>403.0</ele><time>2026-04-04T07:38:13Z</time></trkpt><trkpt lat="43.17587150199114" lon="13.012657633675195"><ele>403.0</ele><time>2026-04-04T07:38:14Z</time></trkpt><trkpt lat="43.17579982326869" lon="13.012562331667766"><ele>403.0</ele><time>2026-04-04T07:38:15Z</time></trkpt><trkpt lat="43.17573451901283" lon="13.012519141706974"><ele>403.0</ele><time>2026-04-04T07:38:16Z</time></trkpt><trkpt lat="43.17565723443847" lon="13.012533695238554"><ele>403.0</ele><time>2026-04-04T07:38:17Z</time></trkpt><trkpt lat="43.175559097640104" lon="13.012574956277097"><ele>406.0</ele><time>2026-04-04T07:38:18Z</time></trkpt><trkpt lat="43.17545090764995" lon="13.01259904321526"><ele>409.0</ele><time>2026-04-04T07:38:19Z</time></trkpt><trkpt lat="43.1753377063472" lon="13.012607027428585"><ele>412.0</ele><time>2026-04-04T07:38:20Z</time></trkpt><trkpt lat="43.175201224937766" lon="13.012604283485764"><ele>415.0</ele><time>2026-04-04T07:38:21Z</time></trkpt><trkpt lat="43.17506846317428" lon="13.01259571629863"><ele>415.0</ele><time>2026-04-04T07:38:22Z</time></trkpt><trkpt lat="43.17496430864866" lon="13.012593091724247"><ele>415.0</ele><time>2026-04-04T07:38:23Z</time></trkpt><trkpt lat="43.174885152759295" lon="13.012625716644843"><ele>415.0</ele><time>2026-04-04T07:38:24Z</time></trkpt><trkpt lat="43.17480449389764" lon="13.012712428054707"><ele>415.0</ele><time>2026-04-04T07:38:25Z</time></trkpt><trkpt lat="43.17475393932003" lon="13.012868750805692"><ele>415.0</ele><time>2026-04-04T07:38:26Z</time></trkpt><trkpt lat="43.174740510969265" lon="13.013060938403903"><ele>417.0</ele><time>2026-04-04T07:38:27Z</time></trkpt><trkpt lat="43.174708630649924" lon="13.013260739011974"><ele>419.0</ele><time>2026-04-04T07:38:28Z</time></trkpt><trkpt lat="43.17465367787742" lon="13.013430667682893"><ele>421.0</ele><time>2026-04-04T07:38:29Z</time></trkpt><trkpt lat="43.174571898862816" lon="13.01356016820682"><ele>423.0</ele><time>2026-04-04T07:38:30Z</time></trkpt><trkpt lat="43.174483259824406" lon="13.013713652056376"><ele>423.0</ele><time>2026-04-04T07:38:31Z</time></trkpt><trkpt lat="43.17440033573901" lon="13.013839334396406"><ele>423.0</ele><time>2026-04-04T07:38:32Z</time></trkpt><trkpt lat="43.174322367035934" lon="13.013939025835489"><ele>423.0</ele><time>2026-04-04T07:38:32.999Z</time></trkpt><trkpt lat="43.174264274850366" lon="13.014025018545537"><ele>423.0</ele><time>2026-04-04T07:38:33.999Z</time></trkpt><trkpt lat="43.17422571151044" lon="13.014124191366989"><ele>423.0</ele><time>2026-04-04T07:38:34.999Z</time></trkpt><trkpt lat="43.17420419806659" lon="13.014242477808851"><ele>422.1666666666667</ele><time>2026-04-04T07:38:35.999Z</time></trkpt><trkpt lat="43.17420175972837" lon="13.01437763777287"><ele>421.33333333333337</ele><time>2026-04-04T07:38:36.999Z</time></trkpt><trkpt lat="43.17419531058825" lon="13.014509841468593"><ele>420.5</ele><time>2026-04-04T07:38:37.999Z</time></trkpt><trkpt lat="43.174185463556014" lon="13.01462023986969"><ele>419.6666666666667</ele><time>2026-04-04T07:38:38.999Z</time></trkpt><trkpt lat="43.17418355378139" lon="13.014720580533847"><ele>418.83333333333337</ele><time>2026-04-04T07:38:39.999Z</time></trkpt><trkpt lat="43.174187096952416" lon="13.014815302705367"><ele>418.0</ele><time>2026-04-04T07:38:40.999Z</time></trkpt><trkpt lat="43.17418503250767" lon="13.014966677606916"><ele>418.00000000000006</ele><time>2026-04-04T07:38:42.999Z</time></trkpt><trkpt lat="43.174113646340864" lon="13.015024087170305"><ele>418.0</ele><time>2026-04-04T07:38:45.999Z</time></trkpt><trkpt lat="43.174048784594206" lon="13.014948116590505"><ele>418.0</ele><time>2026-04-04T07:38:47.999Z</time></trkpt><trkpt lat="43.173954504002" lon="13.0148387667588"><ele>418.0</ele><time>2026-04-04T07:38:49.999Z</time></trkpt><trkpt lat="43.17389623999552" lon="13.014777937347617"><ele>418.00000000000006</ele><time>2026-04-04T07:38:50.999Z</time></trkpt><trkpt lat="43.17383600355174" lon="13.014718457955707"><ele>418.0</ele><time>2026-04-04T07:38:51.999Z</time></trkpt><trkpt lat="43.173790429266674" lon="13.014644960283167"><ele>420.00000000000006</ele><time>2026-04-04T07:38:52.999Z</time></trkpt><trkpt lat="43.17373683499786" lon="13.014566194244905"><ele>422.0</ele><time>2026-04-04T07:38:53.999Z</time></trkpt><trkpt lat="43.1736675358874" lon="13.014474684978314"><ele>424.0</ele><time>2026-04-04T07:38:54.999Z</time></trkpt><trkpt lat="43.17360649264277" lon="13.014387272112119"><ele>426.0</ele><time>2026-04-04T07:38:55.999Z</time></trkpt><trkpt lat="43.173544326361665" lon="13.014300577256963"><ele>428.00000000000006</ele><time>2026-04-04T07:38:56.999Z</time></trkpt><trkpt lat="43.173490986392885" lon="13.014207992699456"><ele>430.0</ele><time>2026-04-04T07:38:57.999Z</time></trkpt><trkpt lat="43.173450992400916" lon="13.014122892941327"><ele>431.1666666666667</ele><time>2026-04-04T07:38:58.999Z</time></trkpt><trkpt lat="43.17340511548913" lon="13.014051753618395"><ele>432.33333333333337</ele><time>2026-04-04T07:38:59.999Z</time></trkpt><trkpt lat="43.173348087756054" lon="13.01397657174178"><ele>433.5</ele><time>2026-04-04T07:39:00.999Z</time></trkpt><trkpt lat="43.17330426468447" lon="13.013909746309075"><ele>434.66666666666663</ele><time>2026-04-04T07:39:01.999Z</time></trkpt><trkpt lat="43.173297159233066" lon="13.013757640419222"><ele>435.8333333333333</ele><time>2026-04-04T07:39:03.999Z</time></trkpt><trkpt lat="43.173282220005454" lon="13.013672601527974"><ele>437.0</ele><time>2026-04-04T07:39:05.999Z</time></trkpt><trkpt lat="43.17325043514212" lon="13.013592477337964"><ele>437.0</ele><time>2026-04-04T07:39:07.999Z</time></trkpt><trkpt lat="43.17323020119051" lon="13.013491271534578"><ele>437.00000000000006</ele><time>2026-04-04T07:39:09.999Z</time></trkpt><trkpt lat="43.173181111387784" lon="13.013406425605753"><ele>437.00000000000006</ele><time>2026-04-04T07:39:11.999Z</time></trkpt><trkpt lat="43.17315139741846" lon="13.013297298871636"><ele>437.0</ele><time>2026-04-04T07:39:13.999Z</time></trkpt><trkpt lat="43.173084272976716" lon="13.013192638174003"><ele>437.0</ele><time>2026-04-04T07:39:15.999Z</time></trkpt><trkpt lat="43.172984245351614" lon="13.013114468205941"><ele>440.66666666666663</ele><time>2026-04-04T07:39:17.999Z</time></trkpt><trkpt lat="43.172875132885316" lon="13.013103889917693"><ele>444.3333333333333</ele><time>2026-04-04T07:39:19.999Z</time></trkpt><trkpt lat="43.172794398580734" lon="13.013083086178359"><ele>448.0</ele><time>2026-04-04T07:39:21.999Z</time></trkpt><trkpt lat="43.17270876255257" lon="13.013072973332626"><ele>451.66666666666663</ele><time>2026-04-04T07:39:23.999Z</time></trkpt><trkpt lat="43.17261960271261" lon="13.013045794662828"><ele>455.3333333333333</ele><time>2026-04-04T07:39:25.999Z</time></trkpt><trkpt lat="43.17255908543549" lon="13.013078685026084"><ele>459.0</ele><time>2026-04-04T07:39:26.999Z</time></trkpt><trkpt lat="43.172475453024035" lon="13.013134639753948"><ele>459.0</ele><time>2026-04-04T07:39:28.999Z</time></trkpt><trkpt lat="43.17242975477145" lon="13.013279587335973"><ele>459.0</ele><time>2026-04-04T07:39:30.999Z</time></trkpt><trkpt lat="43.17233473996038" lon="13.01337058486769"><ele>459.0</ele><time>2026-04-04T07:39:32.999Z</time></trkpt><trkpt lat="43.17223901621794" lon="13.013399048729486"><ele>459.0</ele><time>2026-04-04T07:39:34.999Z</time></trkpt><trkpt lat="43.17212625124962" lon="13.013347209145632"><ele>459.0</ele><time>2026-04-04T07:39:36.999Z</time></trkpt><trkpt lat="43.172059157484206" lon="13.013335054542408"><ele>461.4</ele><time>2026-04-04T07:39:37.999Z</time></trkpt><trkpt lat="43.17192466532196" lon="13.013276165308744"><ele>463.79999999999995</ele><time>2026-04-04T07:39:39.999Z</time></trkpt><trkpt lat="43.17184223924644" lon="13.013261374667024"><ele>466.20000000000005</ele><time>2026-04-04T07:39:40.999Z</time></trkpt><trkpt lat="43.17173486279965" lon="13.013313980702462"><ele>468.6</ele><time>2026-04-04T07:39:43Z</time></trkpt><trkpt lat="43.17168814130199" lon="13.013419152622953"><ele>471.0</ele><time>2026-04-04T07:39:44Z</time></trkpt><trkpt lat="43.171632823373805" lon="13.01348108944087"><ele>471.0</ele><time>2026-04-04T07:39:45Z</time></trkpt><trkpt lat="43.171551437871514" lon="13.01343612479994"><ele>471.0</ele><time>2026-04-04T07:39:47Z</time></trkpt><trkpt lat="43.17150334475151" lon="13.013378641477649"><ele>471.0</ele><time>2026-04-04T07:39:48Z</time></trkpt><trkpt lat="43.17142376405689" lon="13.013316245855023"><ele>471.0</ele><time>2026-04-04T07:39:49Z</time></trkpt><trkpt lat="43.17133593694398" lon="13.013283233781944"><ele>471.0</ele><time>2026-04-04T07:39:50Z</time></trkpt><trkpt lat="43.171252628346146" lon="13.013251690229225"><ele>471.0</ele><time>2026-04-04T07:39:51Z</time></trkpt><trkpt lat="43.17117208388644" lon="13.013224344093926"><ele>474.4</ele><time>2026-04-04T07:39:52Z</time></trkpt><trkpt lat="43.17110887518779" lon="13.013194531114538"><ele>477.8</ele><time>2026-04-04T07:39:53Z</time></trkpt><trkpt lat="43.17104486557272" lon="13.01318037614099"><ele>481.19999999999993</ele><time>2026-04-04T07:39:55Z</time></trkpt><trkpt lat="43.170995736769406" lon="13.013065029158952"><ele>484.59999999999997</ele><time>2026-04-04T07:39:58Z</time></trkpt><trkpt lat="43.17088453282499" lon="13.012981632797857"><ele>488.0</ele><time>2026-04-04T07:40:00Z</time></trkpt><trkpt lat="43.170794017681494" lon="13.012923549298177"><ele>490.4</ele><time>2026-04-04T07:40:02Z</time></trkpt><trkpt lat="43.17068369645364" lon="13.012832703848558"><ele>492.79999999999995</ele><time>2026-04-04T07:40:04Z</time></trkpt><trkpt lat="43.1705712980354" lon="13.012748140460074"><ele>495.2</ele><time>2026-04-04T07:40:06Z</time></trkpt><trkpt lat="43.170515981129526" lon="13.012703233822396"><ele>497.6</ele><time>2026-04-04T07:40:07Z</time></trkpt><trkpt lat="43.17046226042318" lon="13.012655294153582"><ele>500.0</ele><time>2026-04-04T07:40:08Z</time></trkpt><trkpt lat="43.17037452199606" lon="13.01256097744647"><ele>499.99999999999994</ele><time>2026-04-04T07:40:10Z</time></trkpt><trkpt lat="43.170318589237986" lon="13.012505616986"><ele>500.0</ele><time>2026-04-04T07:40:12Z</time></trkpt><trkpt lat="43.170228950397245" lon="13.01251158993552"><ele>500.0</ele><time>2026-04-04T07:40:41Z</time></trkpt><trkpt lat="43.17014253526667" lon="13.01262226426063"><ele>500.0</ele><time>2026-04-04T07:40:42.999Z</time></trkpt><trkpt lat="43.170073736594574" lon="13.012647876475784"><ele>499.99999999999994</ele><time>2026-04-04T07:40:44.999Z</time></trkpt><trkpt lat="43.16998959243729" lon="13.012615845118582"><ele>500.0</ele><time>2026-04-04T07:40:46.999Z</time></trkpt><trkpt lat="43.169902086256315" lon="13.012543714266936"><ele>502.8333333333333</ele><time>2026-04-04T07:40:48.999Z</time></trkpt><trkpt lat="43.16984256517063" lon="13.012488259174908"><ele>505.66666666666663</ele><time>2026-04-04T07:40:49.999Z</time></trkpt><trkpt lat="43.169777966374994" lon="13.012446998710184"><ele>508.5</ele><time>2026-04-04T07:40:50.999Z</time></trkpt><trkpt lat="43.169696944024366" lon="13.012410884105986"><ele>511.33333333333337</ele><time>2026-04-04T07:40:51.999Z</time></trkpt><trkpt lat="43.169596915743156" lon="13.012386133550446"><ele>514.1666666666667</ele><time>2026-04-04T07:40:52.999Z</time></trkpt><trkpt lat="43.169491715014054" lon="13.01236042792741"><ele>517.0</ele><time>2026-04-04T07:40:53.999Z</time></trkpt><trkpt lat="43.16939708744002" lon="13.012337636871605"><ele>517.0</ele><time>2026-04-04T07:40:54.999Z</time></trkpt><trkpt lat="43.16930538015634" lon="13.01230774173874"><ele>517.0</ele><time>2026-04-04T07:40:55.999Z</time></trkpt><trkpt lat="43.16920881343089" lon="13.01226757242287"><ele>517.0</ele><time>2026-04-04T07:40:56.999Z</time></trkpt><trkpt lat="43.16911028875883" lon="13.0122384517214"><ele>517.0</ele><time>2026-04-04T07:40:57.999Z</time></trkpt><trkpt lat="43.169035247882036" lon="13.012206330122051"><ele>517.0</ele><time>2026-04-04T07:40:58.999Z</time></trkpt><trkpt lat="43.16895939176348" lon="13.012172728873523"><ele>519.4</ele><time>2026-04-04T07:40:59.999Z</time></trkpt><trkpt lat="43.168885408951425" lon="13.012140263040502"><ele>521.8000000000001</ele><time>2026-04-04T07:41:00.999Z</time></trkpt><trkpt lat="43.16882312354002" lon="13.012113779202766"><ele>524.2</ele><time>2026-04-04T07:41:01.999Z</time></trkpt><trkpt lat="43.16871797582878" lon="13.012065230756107"><ele>526.6</ele><time>2026-04-04T07:41:03.999Z</time></trkpt><trkpt lat="43.16861406281705" lon="13.012054676806594"><ele>529.0</ele><time>2026-04-04T07:41:05.999Z</time></trkpt><trkpt lat="43.168514949520194" lon="13.01208053021679"><ele>529.0</ele><time>2026-04-04T07:41:07.999Z</time></trkpt><trkpt lat="43.16843216774453" lon="13.012097329996458"><ele>529.0</ele><time>2026-04-04T07:41:09.999Z</time></trkpt><trkpt lat="43.16838494968222" lon="13.01215829725659"><ele>529.0</ele><time>2026-04-04T07:41:10.999Z</time></trkpt><trkpt lat="43.168335806648166" lon="13.012235390464985"><ele>529.0</ele><time>2026-04-04T07:41:11.999Z</time></trkpt><trkpt lat="43.16828791392276" lon="13.01231290246461"><ele>529.0</ele><time>2026-04-04T07:41:12.999Z</time></trkpt><trkpt lat="43.16824170682047" lon="13.01238744403841"><ele>529.0</ele><time>2026-04-04T07:41:13.999Z</time></trkpt><trkpt lat="43.16815843452027" lon="13.01255106842422"><ele>532.8</ele><time>2026-04-04T07:41:15.999Z</time></trkpt><trkpt lat="43.16810060871136" lon="13.012676289351466"><ele>536.5999999999999</ele><time>2026-04-04T07:41:16.999Z</time></trkpt><trkpt lat="43.16803774387739" lon="13.012801066648123"><ele>540.4</ele><time>2026-04-04T07:41:17.999Z</time></trkpt><trkpt lat="43.167983144098095" lon="13.012895856807154"><ele>544.1999999999999</ele><time>2026-04-04T07:41:18.999Z</time></trkpt><trkpt lat="43.16793552179458" lon="13.012955222271884"><ele>548.0</ele><time>2026-04-04T07:41:19.999Z</time></trkpt><trkpt lat="43.16786975456564" lon="13.013020995173425"><ele>548.0</ele><time>2026-04-04T07:41:20.999Z</time></trkpt><trkpt lat="43.16779808559239" lon="13.013088965129896"><ele>548.0</ele><time>2026-04-04T07:41:21.999Z</time></trkpt><trkpt lat="43.16771642002026" lon="13.013193958641613"><ele>548.0</ele><time>2026-04-04T07:41:22.999Z</time></trkpt><trkpt lat="43.167657848079074" lon="13.013302587782215"><ele>548.0</ele><time>2026-04-04T07:41:23.999Z</time></trkpt><trkpt lat="43.16759873121886" lon="13.013396222237414"><ele>548.0</ele><time>2026-04-04T07:41:24.999Z</time></trkpt><trkpt lat="43.16755030288951" lon="13.013476634223943"><ele>547.0</ele><time>2026-04-04T07:41:25.999Z</time></trkpt><trkpt lat="43.16749854524227" lon="13.013627521048877"><ele>546.0</ele><time>2026-04-04T07:41:27.999Z</time></trkpt><trkpt lat="43.16745981477907" lon="13.013714878328578"><ele>545.0</ele><time>2026-04-04T07:41:28.999Z</time></trkpt><trkpt lat="43.16741887327453" lon="13.013791201249855"><ele>544.0</ele><time>2026-04-04T07:41:29.999Z</time></trkpt><trkpt lat="43.16734882146983" lon="13.01390166735241"><ele>543.0</ele><time>2026-04-04T07:41:31.999Z</time></trkpt><trkpt lat="43.16729865948838" lon="13.01395968691529"><ele>542.0</ele><time>2026-04-04T07:41:32.999Z</time></trkpt><trkpt lat="43.167211844238736" lon="13.014053852066404"><ele>542.6</ele><time>2026-04-04T07:41:34.999Z</time></trkpt><trkpt lat="43.16714121606506" lon="13.014112813924152"><ele>543.2</ele><time>2026-04-04T07:41:36.999Z</time></trkpt><trkpt lat="43.16706003458625" lon="13.014189120070643"><ele>543.8</ele><time>2026-04-04T07:41:38.999Z</time></trkpt><trkpt lat="43.166952781648135" lon="13.014225995208893"><ele>544.4</ele><time>2026-04-04T07:41:40.999Z</time></trkpt><trkpt lat="43.16686970335221" lon="13.014284336248783"><ele>545.0</ele><time>2026-04-04T07:41:42.999Z</time></trkpt><trkpt lat="43.166829086735355" lon="13.01439500792477"><ele>545.0</ele><time>2026-04-04T07:41:44.999Z</time></trkpt><trkpt lat="43.16683276018284" lon="13.014531254346267"><ele>545.0</ele><time>2026-04-04T07:41:46.999Z</time></trkpt><trkpt lat="43.166806326100776" lon="13.014668786125691"><ele>545.0</ele><time>2026-04-04T07:41:49Z</time></trkpt><trkpt lat="43.166729342681364" lon="13.014794210926983"><ele>545.0</ele><time>2026-04-04T07:41:51Z</time></trkpt><trkpt lat="43.16661066418693" lon="13.014848608218436"><ele>545.0</ele><time>2026-04-04T07:41:53Z</time></trkpt><trkpt lat="43.16653932892888" lon="13.01483777165398"><ele>547.5</ele><time>2026-04-04T07:41:54Z</time></trkpt><trkpt lat="43.16646802811934" lon="13.014806525185783"><ele>550.0</ele><time>2026-04-04T07:41:55Z</time></trkpt><trkpt lat="43.16638326762577" lon="13.014791737065575"><ele>552.5</ele><time>2026-04-04T07:41:56Z</time></trkpt><trkpt lat="43.1663227110704" lon="13.014822817547842"><ele>555.0</ele><time>2026-04-04T07:41:57Z</time></trkpt><trkpt lat="43.166277436608944" lon="13.01488929631564"><ele>557.5</ele><time>2026-04-04T07:41:58Z</time></trkpt><trkpt lat="43.166264771056014" lon="13.014995859606545"><ele>560.0</ele><time>2026-04-04T07:41:59Z</time></trkpt><trkpt lat="43.166256123744375" lon="13.015126805482799"><ele>560.5</ele><time>2026-04-04T07:42:00Z</time></trkpt><trkpt lat="43.16625093662986" lon="13.015273248954411"><ele>561.0</ele><time>2026-04-04T07:42:01Z</time></trkpt><trkpt lat="43.16623641817943" lon="13.015392488618815"><ele>561.5</ele><time>2026-04-04T07:42:02Z</time></trkpt><trkpt lat="43.1662236538153" lon="13.015491979745217"><ele>562.0</ele><time>2026-04-04T07:42:03Z</time></trkpt><trkpt lat="43.16618052093802" lon="13.015597766280138"><ele>562.5</ele><time>2026-04-04T07:42:05Z</time></trkpt><trkpt lat="43.16611090203801" lon="13.015525541948362"><ele>563.0</ele><time>2026-04-04T07:42:08Z</time></trkpt><trkpt lat="43.16614253528814" lon="13.015370587277433"><ele>563.0</ele><time>2026-04-04T07:42:10Z</time></trkpt><trkpt lat="43.16615928331084" lon="13.015275791008936"><ele>563.0</ele><time>2026-04-04T07:42:11Z</time></trkpt><trkpt lat="43.166167427539115" lon="13.015166873714536"><ele>563.0</ele><time>2026-04-04T07:42:12Z</time></trkpt><trkpt lat="43.16617055592442" lon="13.015038279812151"><ele>563.0</ele><time>2026-04-04T07:42:13Z</time></trkpt><trkpt lat="43.16616275311816" lon="13.014886401660592"><ele>563.0</ele><time>2026-04-04T07:42:14Z</time></trkpt><trkpt lat="43.166148051233755" lon="13.01473609033388"><ele>562.25</ele><time>2026-04-04T07:42:15Z</time></trkpt><trkpt lat="43.166120528997546" lon="13.014586405462332"><ele>561.5</ele><time>2026-04-04T07:42:16Z</time></trkpt><trkpt lat="43.16607810638151" lon="13.014426619962"><ele>560.75</ele><time>2026-04-04T07:42:17Z</time></trkpt><trkpt lat="43.16602980905411" lon="13.014264218952302"><ele>560.0</ele><time>2026-04-04T07:42:18Z</time></trkpt><trkpt lat="43.16597603814823" lon="13.014110545322573"><ele>562.0</ele><time>2026-04-04T07:42:19Z</time></trkpt><trkpt lat="43.165925445117" lon="13.013946704283482"><ele>564.0</ele><time>2026-04-04T07:42:20Z</time></trkpt><trkpt lat="43.16588584287167" lon="13.013768560945396"><ele>566.0</ele><time>2026-04-04T07:42:21Z</time></trkpt><trkpt lat="43.16585887129599" lon="13.013578667719079"><ele>568.0</ele><time>2026-04-04T07:42:22Z</time></trkpt><trkpt lat="43.165841319312385" lon="13.013379076681709"><ele>570.75</ele><time>2026-04-04T07:42:23Z</time></trkpt><trkpt lat="43.16582207206831" lon="13.013184224916174"><ele>573.5</ele><time>2026-04-04T07:42:24Z</time></trkpt><trkpt lat="43.16579757884981" lon="13.012995547590695"><ele>576.25</ele><time>2026-04-04T07:42:25Z</time></trkpt><trkpt lat="43.165772197755736" lon="13.01281187156445"><ele>579.0</ele><time>2026-04-04T07:42:26Z</time></trkpt><trkpt lat="43.165756737598606" lon="13.012638342213563"><ele>582.75</ele><time>2026-04-04T07:42:27Z</time></trkpt><trkpt lat="43.165762624757164" lon="13.012482316957266"><ele>586.5</ele><time>2026-04-04T07:42:28Z</time></trkpt><trkpt lat="43.16580209556794" lon="13.01234941065792"><ele>590.25</ele><time>2026-04-04T07:42:29Z</time></trkpt><trkpt lat="43.1658655663547" lon="13.01221055565824"><ele>594.0</ele><time>2026-04-04T07:42:30Z</time></trkpt><trkpt lat="43.16595114509608" lon="13.012085188056522"><ele>594.0</ele><time>2026-04-04T07:42:31Z</time></trkpt><trkpt lat="43.166055766118106" lon="13.011974822647028"><ele>594.0</ele><time>2026-04-04T07:42:32Z</time></trkpt><trkpt lat="43.16615292320665" lon="13.011866551591215"><ele>594.0</ele><time>2026-04-04T07:42:33Z</time></trkpt><trkpt lat="43.1662246534401" lon="13.011760919148543"><ele>594.0</ele><time>2026-04-04T07:42:34Z</time></trkpt><trkpt lat="43.16626681286267" lon="13.011650275570386"><ele>595.8333333333334</ele><time>2026-04-04T07:42:35Z</time></trkpt><trkpt lat="43.16625318396302" lon="13.011540106808555"><ele>597.6666666666666</ele><time>2026-04-04T07:42:36Z</time></trkpt><trkpt lat="43.16619529749964" lon="13.011440408829463"><ele>599.5</ele><time>2026-04-04T07:42:37Z</time></trkpt><trkpt lat="43.166115651796126" lon="13.011381867204788"><ele>601.3333333333333</ele><time>2026-04-04T07:42:38Z</time></trkpt><trkpt lat="43.166024880753" lon="13.011371907047636"><ele>603.1666666666666</ele><time>2026-04-04T07:42:39Z</time></trkpt><trkpt lat="43.16594655812215" lon="13.011368980062644"><ele>605.0</ele><time>2026-04-04T07:42:40Z</time></trkpt><trkpt lat="43.16593173250135" lon="13.011253129036469"><ele>605.0</ele><time>2026-04-04T07:42:42Z</time></trkpt><trkpt lat="43.16595096280046" lon="13.011157173398653"><ele>605.0</ele><time>2026-04-04T07:42:43Z</time></trkpt><trkpt lat="43.16589286366102" lon="13.011044340529486"><ele>605.0</ele><time>2026-04-04T07:42:45Z</time></trkpt><trkpt lat="43.16578021464239" lon="13.011018487643543"><ele>605.0</ele><time>2026-04-04T07:42:47Z</time></trkpt><trkpt lat="43.165673596550434" lon="13.0109827030004"><ele>605.0</ele><time>2026-04-04T07:42:48.999Z</time></trkpt><trkpt lat="43.16556557630018" lon="13.010932192622006"><ele>606.8333333333333</ele><time>2026-04-04T07:42:50.999Z</time></trkpt><trkpt lat="43.1654587481989" lon="13.010850438991158"><ele>608.6666666666666</ele><time>2026-04-04T07:42:52.999Z</time></trkpt><trkpt lat="43.16541519917478" lon="13.010782209591103"><ele>610.5</ele><time>2026-04-04T07:42:53.999Z</time></trkpt><trkpt lat="43.165373134311615" lon="13.01070012363781"><ele>612.3333333333334</ele><time>2026-04-04T07:42:54.999Z</time></trkpt><trkpt lat="43.165336225011096" lon="13.010610361626917"><ele>614.1666666666667</ele><time>2026-04-04T07:42:55.999Z</time></trkpt><trkpt lat="43.165312361863265" lon="13.010515055926321"><ele>616.0</ele><time>2026-04-04T07:42:56.999Z</time></trkpt><trkpt lat="43.16529533747259" lon="13.010407806577259"><ele>617.2857142857143</ele><time>2026-04-04T07:42:57.999Z</time></trkpt><trkpt lat="43.16528738687333" lon="13.010289762983819"><ele>618.5714285714286</ele><time>2026-04-04T07:42:58.999Z</time></trkpt><trkpt lat="43.16528301229559" lon="13.010186118400172"><ele>619.8571428571429</ele><time>2026-04-04T07:42:59.999Z</time></trkpt><trkpt lat="43.16527099322856" lon="13.0100861877331"><ele>621.1428571428571</ele><time>2026-04-04T07:43:00.999Z</time></trkpt><trkpt lat="43.165261393297634" lon="13.00998445144159"><ele>622.4285714285714</ele><time>2026-04-04T07:43:01.999Z</time></trkpt><trkpt lat="43.165244144699464" lon="13.009899364862038"><ele>623.7142857142858</ele><time>2026-04-04T07:43:02.999Z</time></trkpt><trkpt lat="43.16521115106514" lon="13.00982493738993"><ele>625.0</ele><time>2026-04-04T07:43:03.999Z</time></trkpt><trkpt lat="43.16516272301729" lon="13.009733124252266"><ele>627.0</ele><time>2026-04-04T07:43:04.999Z</time></trkpt><trkpt lat="43.165101303306876" lon="13.009635090524066"><ele>629.0</ele><time>2026-04-04T07:43:05.999Z</time></trkpt><trkpt lat="43.16505018241118" lon="13.009532506998038"><ele>631.0</ele><time>2026-04-04T07:43:06.999Z</time></trkpt><trkpt lat="43.16501354559956" lon="13.009424421693181"><ele>633.0</ele><time>2026-04-04T07:43:07.999Z</time></trkpt><trkpt lat="43.164995928769855" lon="13.009302625867702"><ele>635.0</ele><time>2026-04-04T07:43:08.999Z</time></trkpt><trkpt lat="43.16495751301249" lon="13.009214698085348"><ele>637.0</ele><time>2026-04-04T07:43:09.999Z</time></trkpt><trkpt lat="43.16490260762876" lon="13.00916013445056"><ele>645.0</ele><time>2026-04-04T07:43:10.999Z</time></trkpt><trkpt lat="43.16482289484265" lon="13.009095720882037"><ele>653.0</ele><time>2026-04-04T07:43:11.999Z</time></trkpt><trkpt lat="43.1647615004033" lon="13.00902067785033"><ele>661.0</ele><time>2026-04-04T07:43:12.999Z</time></trkpt><trkpt lat="43.16467623661217" lon="13.009008779859451"><ele>669.0</ele><time>2026-04-04T07:43:13.999Z</time></trkpt><trkpt lat="43.164572542286336" lon="13.009015676516288"><ele>677.0</ele><time>2026-04-04T07:43:14.999Z</time></trkpt><trkpt lat="43.16444744660538" lon="13.009013233132775"><ele>677.0</ele><time>2026-04-04T07:43:15.999Z</time></trkpt><trkpt lat="43.16433465642792" lon="13.008962525893885"><ele>677.0</ele><time>2026-04-04T07:43:16.999Z</time></trkpt><trkpt lat="43.16422679210038" lon="13.008937920541909"><ele>677.0</ele><time>2026-04-04T07:43:17.999Z</time></trkpt><trkpt lat="43.16413340983432" lon="13.008904036854155"><ele>677.0</ele><time>2026-04-04T07:43:18.999Z</time></trkpt><trkpt lat="43.16406451127797" lon="13.008870874716212"><ele>677.0</ele><time>2026-04-04T07:43:19.999Z</time></trkpt><trkpt lat="43.163993416910166" lon="13.008874888099893"><ele>681.4000000000001</ele><time>2026-04-04T07:43:20.999Z</time></trkpt><trkpt lat="43.16389623247716" lon="13.008926873510704"><ele>685.8000000000001</ele><time>2026-04-04T07:43:21.999Z</time></trkpt><trkpt lat="43.163809127297924" lon="13.008960869709401"><ele>690.2</ele><time>2026-04-04T07:43:22.999Z</time></trkpt><trkpt lat="43.16371149077469" lon="13.008966537971883"><ele>694.6</ele><time>2026-04-04T07:43:23.999Z</time></trkpt><trkpt lat="43.163603227140676" lon="13.008948623915359"><ele>699.0</ele><time>2026-04-04T07:43:24.999Z</time></trkpt><trkpt lat="43.163478545203105" lon="13.00895872510334"><ele>699.0</ele><time>2026-04-04T07:43:25.999Z</time></trkpt><trkpt lat="43.16337608861843" lon="13.008960964652022"><ele>699.0</ele><time>2026-04-04T07:43:26.999Z</time></trkpt><trkpt lat="43.163261642725644" lon="13.00894571059311"><ele>699.0</ele><time>2026-04-04T07:43:27.999Z</time></trkpt><trkpt lat="43.16316328009394" lon="13.008928206883837"><ele>699.0</ele><time>2026-04-04T07:43:28.999Z</time></trkpt><trkpt lat="43.16305355348175" lon="13.008962819220557"><ele>699.0</ele><time>2026-04-04T07:43:29.999Z</time></trkpt><trkpt lat="43.162947414945954" lon="13.009044127038957"><ele>697.1666666666666</ele><time>2026-04-04T07:43:30.999Z</time></trkpt><trkpt lat="43.162863967194305" lon="13.009092308091065"><ele>695.3333333333334</ele><time>2026-04-04T07:43:31.999Z</time></trkpt><trkpt lat="43.16279314915201" lon="13.009133612897626"><ele>693.5</ele><time>2026-04-04T07:43:32.999Z</time></trkpt><trkpt lat="43.16269340904802" lon="13.009140840089731"><ele>691.6666666666667</ele><time>2026-04-04T07:43:33.999Z</time></trkpt><trkpt lat="43.162617065491375" lon="13.009165020873628"><ele>689.8333333333334</ele><time>2026-04-04T07:43:34.999Z</time></trkpt><trkpt lat="43.162530135538006" lon="13.00913547986813"><ele>688.0</ele><time>2026-04-04T07:43:35.999Z</time></trkpt><trkpt lat="43.16244373844074" lon="13.00914829541894"><ele>692.4</ele><time>2026-04-04T07:43:36.999Z</time></trkpt><trkpt lat="43.16234019670476" lon="13.009133476400738"><ele>696.8</ele><time>2026-04-04T07:43:37.999Z</time></trkpt><trkpt lat="43.162247220297495" lon="13.009131752848791"><ele>701.2</ele><time>2026-04-04T07:43:38.999Z</time></trkpt><trkpt lat="43.162125107587855" lon="13.009120855287714"><ele>705.6</ele><time>2026-04-04T07:43:39.999Z</time></trkpt><trkpt lat="43.16203155941984" lon="13.00915741003682"><ele>710.0</ele><time>2026-04-04T07:43:40.999Z</time></trkpt><trkpt lat="43.16192421243963" lon="13.009182102057453"><ele>710.0</ele><time>2026-04-04T07:43:41.999Z</time></trkpt><trkpt lat="43.161817266043755" lon="13.009222258878596"><ele>710.0</ele><time>2026-04-04T07:43:42.999Z</time></trkpt><trkpt lat="43.16170443975302" lon="13.009296358501999"><ele>710.0</ele><time>2026-04-04T07:43:43.999Z</time></trkpt><trkpt lat="43.16161134265014" lon="13.009373554874424"><ele>710.0</ele><time>2026-04-04T07:43:44.999Z</time></trkpt><trkpt lat="43.161528299141885" lon="13.009455238885993"><ele>710.0</ele><time>2026-04-04T07:43:45.999Z</time></trkpt><trkpt lat="43.161489157304395" lon="13.009535435697163"><ele>711.8333333333333</ele><time>2026-04-04T07:43:46.999Z</time></trkpt><trkpt lat="43.16145355301772" lon="13.00961664674353"><ele>713.6666666666666</ele><time>2026-04-04T07:43:47.999Z</time></trkpt><trkpt lat="43.161385943935656" lon="13.00966365048624"><ele>715.5</ele><time>2026-04-04T07:43:48.999Z</time></trkpt><trkpt lat="43.16130431795511" lon="13.009670356723307"><ele>717.3333333333334</ele><time>2026-04-04T07:43:49.999Z</time></trkpt><trkpt lat="43.161221864969086" lon="13.009683822973399"><ele>719.1666666666667</ele><time>2026-04-04T07:43:50.999Z</time></trkpt><trkpt lat="43.16114859664405" lon="13.009710843508973"><ele>721.0</ele><time>2026-04-04T07:43:51.999Z</time></trkpt><trkpt lat="43.161034517341605" lon="13.009711417472184"><ele>721.0</ele><time>2026-04-04T07:43:54Z</time></trkpt><trkpt lat="43.16095966371168" lon="13.009658475209314"><ele>721.0</ele><time>2026-04-04T07:43:55Z</time></trkpt><trkpt lat="43.16088933058304" lon="13.009618954213806"><ele>721.0</ele><time>2026-04-04T07:43:56Z</time></trkpt><trkpt lat="43.160817368738876" lon="13.009596163876354"><ele>721.0</ele><time>2026-04-04T07:43:57Z</time></trkpt><trkpt lat="43.160735507574636" lon="13.009573369624647"><ele>721.0</ele><time>2026-04-04T07:43:58Z</time></trkpt><trkpt lat="43.16065867750022" lon="13.009556365563267"><ele>721.0</ele><time>2026-04-04T07:43:59Z</time></trkpt><trkpt lat="43.160578636638526" lon="13.009569715163947"><ele>720.6666666666667</ele><time>2026-04-04T07:44:00Z</time></trkpt><trkpt lat="43.16051335763064" lon="13.009575001024947"><ele>720.3333333333334</ele><time>2026-04-04T07:44:01Z</time></trkpt><trkpt lat="43.16045369838913" lon="13.009541981151283"><ele>720.0</ele><time>2026-04-04T07:44:02Z</time></trkpt><trkpt lat="43.16038081418764" lon="13.009492017107567"><ele>719.6666666666666</ele><time>2026-04-04T07:44:03Z</time></trkpt><trkpt lat="43.160290520295916" lon="13.009474212508989"><ele>719.3333333333333</ele><time>2026-04-04T07:44:04Z</time></trkpt><trkpt lat="43.16020774537234" lon="13.009464755489853"><ele>719.0</ele><time>2026-04-04T07:44:05Z</time></trkpt><trkpt lat="43.16012486126335" lon="13.00942302812733"><ele>719.0</ele><time>2026-04-04T07:44:06Z</time></trkpt><trkpt lat="43.160043582460496" lon="13.00936906706921"><ele>719.0</ele><time>2026-04-04T07:44:07Z</time></trkpt><trkpt lat="43.1599642071849" lon="13.009293541649049"><ele>719.0</ele><time>2026-04-04T07:44:08Z</time></trkpt><trkpt lat="43.159876212802686" lon="13.009214624102343"><ele>719.0</ele><time>2026-04-04T07:44:09Z</time></trkpt><trkpt lat="43.15977695672481" lon="13.009114693995544"><ele>719.0</ele><time>2026-04-04T07:44:10Z</time></trkpt><trkpt lat="43.15970569241454" lon="13.009019341199433"><ele>721.6</ele><time>2026-04-04T07:44:11Z</time></trkpt><trkpt lat="43.15963391467646" lon="13.008907052110535"><ele>724.2</ele><time>2026-04-04T07:44:12Z</time></trkpt><trkpt lat="43.15955785777504" lon="13.008773427765892"><ele>726.8000000000001</ele><time>2026-04-04T07:44:13Z</time></trkpt><trkpt lat="43.15949943072516" lon="13.0086710446022"><ele>729.4000000000001</ele><time>2026-04-04T07:44:14Z</time></trkpt><trkpt lat="43.15946818639721" lon="13.008527741058035"><ele>732.0</ele><time>2026-04-04T07:44:15Z</time></trkpt><trkpt lat="43.15941660031414" lon="13.008407783286644"><ele>735.4000000000001</ele><time>2026-04-04T07:44:16Z</time></trkpt><trkpt lat="43.15936285467717" lon="13.008271256630696"><ele>738.8000000000001</ele><time>2026-04-04T07:44:17Z</time></trkpt><trkpt lat="43.1593177324768" lon="13.008134618237671"><ele>742.2</ele><time>2026-04-04T07:44:18Z</time></trkpt><trkpt lat="43.15925431139604" lon="13.008015383502029"><ele>745.6</ele><time>2026-04-04T07:44:19Z</time></trkpt><trkpt lat="43.15919487709643" lon="13.007916342182002"><ele>749.0</ele><time>2026-04-04T07:44:20Z</time></trkpt><trkpt lat="43.15914924539795" lon="13.007803737363163"><ele>749.0</ele><time>2026-04-04T07:44:21Z</time></trkpt><trkpt lat="43.15909983769525" lon="13.007685248233619"><ele>749.0</ele><time>2026-04-04T07:44:22Z</time></trkpt><trkpt lat="43.15903841419119" lon="13.007584773699595"><ele>749.0</ele><time>2026-04-04T07:44:23Z</time></trkpt><trkpt lat="43.1589818330307" lon="13.007472050859661"><ele>749.0</ele><time>2026-04-04T07:44:24Z</time></trkpt><trkpt lat="43.158936381478206" lon="13.007355468270855"><ele>749.0</ele><time>2026-04-04T07:44:25Z</time></trkpt><trkpt lat="43.158894909022266" lon="13.00723605683986"><ele>751.7142857142857</ele><time>2026-04-04T07:44:26Z</time></trkpt><trkpt lat="43.15885204768823" lon="13.007168898067208"><ele>754.4285714285714</ele><time>2026-04-04T07:44:27Z</time></trkpt><trkpt lat="43.15878905486726" lon="13.007136498952233"><ele>757.1428571428571</ele><time>2026-04-04T07:44:28Z</time></trkpt><trkpt lat="43.1587224284072" lon="13.00712315457176"><ele>759.8571428571429</ele><time>2026-04-04T07:44:29Z</time></trkpt><trkpt lat="43.1586551775798" lon="13.007079202034554"><ele>762.5714285714286</ele><time>2026-04-04T07:44:30Z</time></trkpt><trkpt lat="43.158612794084284" lon="13.007014351483518"><ele>765.2857142857142</ele><time>2026-04-04T07:44:31Z</time></trkpt><trkpt lat="43.158573437188096" lon="13.006942702860263"><ele>768.0</ele><time>2026-04-04T07:44:32Z</time></trkpt><trkpt lat="43.15846644301009" lon="13.006840891779644"><ele>768.0</ele><time>2026-04-04T07:44:34Z</time></trkpt><trkpt lat="43.158397344038434" lon="13.006724512677904"><ele>768.0</ele><time>2026-04-04T07:44:36Z</time></trkpt><trkpt lat="43.158314507187505" lon="13.006657568739845"><ele>768.0</ele><time>2026-04-04T07:44:38Z</time></trkpt><trkpt lat="43.15824025190386" lon="13.006525898902076"><ele>768.0</ele><time>2026-04-04T07:44:40Z</time></trkpt><trkpt lat="43.15821333888066" lon="13.00642935711815"><ele>768.0</ele><time>2026-04-04T07:44:41Z</time></trkpt><trkpt lat="43.158161272030476" lon="13.006251153062253"><ele>773.2</ele><time>2026-04-04T07:44:43Z</time></trkpt><trkpt lat="43.15810090181725" lon="13.006160650519101"><ele>778.4</ele><time>2026-04-04T07:44:44Z</time></trkpt><trkpt lat="43.158021907459215" lon="13.006096655933918"><ele>783.6</ele><time>2026-04-04T07:44:45Z</time></trkpt><trkpt lat="43.15794709307869" lon="13.006064559774256"><ele>788.8000000000001</ele><time>2026-04-04T07:44:46Z</time></trkpt><trkpt lat="43.15788313679304" lon="13.006044568527608"><ele>794.0</ele><time>2026-04-04T07:44:47Z</time></trkpt><trkpt lat="43.15777185281804" lon="13.005948485743568"><ele>794.0000000000001</ele><time>2026-04-04T07:44:49Z</time></trkpt><trkpt lat="43.15771635132595" lon="13.005884947358423"><ele>794.0</ele><time>2026-04-04T07:44:50Z</time></trkpt><trkpt lat="43.15766012358296" lon="13.005827906434044"><ele>794.0</ele><time>2026-04-04T07:44:51Z</time></trkpt><trkpt lat="43.15761590010909" lon="13.005731059181606"><ele>794.0</ele><time>2026-04-04T07:44:52Z</time></trkpt><trkpt lat="43.157569088296306" lon="13.005634247788075"><ele>794.0000000000001</ele><time>2026-04-04T07:44:53Z</time></trkpt><trkpt lat="43.157497546791475" lon="13.005556016653351"><ele>794.0</ele><time>2026-04-04T07:44:54Z</time></trkpt><trkpt lat="43.15742825117714" lon="13.005509453994723"><ele>798.7142857142857</ele><time>2026-04-04T07:44:55Z</time></trkpt><trkpt lat="43.15735092073618" lon="13.0054475515326"><ele>803.4285714285713</ele><time>2026-04-04T07:44:56Z</time></trkpt><trkpt lat="43.15728932911414" lon="13.005410159442322"><ele>808.1428571428571</ele><time>2026-04-04T07:44:57Z</time></trkpt><trkpt lat="43.15722055649016" lon="13.005365124078176"><ele>812.8571428571429</ele><time>2026-04-04T07:44:58Z</time></trkpt><trkpt lat="43.15715891225582" lon="13.005335775140411"><ele>817.5714285714286</ele><time>2026-04-04T07:44:59Z</time></trkpt><trkpt lat="43.157102422949066" lon="13.005296252656732"><ele>822.2857142857143</ele><time>2026-04-04T07:44:59.999Z</time></trkpt><trkpt lat="43.15703820345719" lon="13.005262746109564"><ele>827.0</ele><time>2026-04-04T07:45:00.999Z</time></trkpt><trkpt lat="43.15697790947477" lon="13.005226201274775"><ele>827.0</ele><time>2026-04-04T07:45:01.999Z</time></trkpt><trkpt lat="43.15692038733328" lon="13.005181077395534"><ele>827.0</ele><time>2026-04-04T07:45:02.999Z</time></trkpt><trkpt lat="43.15684483116151" lon="13.005153276303615"><ele>827.0</ele><time>2026-04-04T07:45:03.999Z</time></trkpt><trkpt lat="43.15678429067811" lon="13.005124812623146"><ele>827.0</ele><time>2026-04-04T07:45:04.999Z</time></trkpt><trkpt lat="43.15671976989992" lon="13.00510859184336"><ele>827.0</ele><time>2026-04-04T07:45:05.999Z</time></trkpt><trkpt lat="43.15661780443383" lon="13.005079383055946"><ele>827.0</ele><time>2026-04-04T07:45:07.999Z</time></trkpt><trkpt lat="43.15655871500815" lon="13.005041433280532"><ele>827.0</ele><time>2026-04-04T07:45:15.999Z</time></trkpt><trkpt lat="43.156483405438365" lon="13.005041918452129"><ele>825.1666666666667</ele><time>2026-04-04T07:45:17.999Z</time></trkpt><trkpt lat="43.15640325767833" lon="13.005009694108077"><ele>823.3333333333334</ele><time>2026-04-04T07:45:19.999Z</time></trkpt><trkpt lat="43.15631648608854" lon="13.004936715882042"><ele>821.5</ele><time>2026-04-04T07:45:21.999Z</time></trkpt><trkpt lat="43.156253526609575" lon="13.004861754960798"><ele>819.6666666666667</ele><time>2026-04-04T07:45:22.999Z</time></trkpt><trkpt lat="43.156181599537206" lon="13.004781496050702"><ele>817.8333333333334</ele><time>2026-04-04T07:45:23.999Z</time></trkpt><trkpt lat="43.15611126450305" lon="13.004709577715023"><ele>816.0</ele><time>2026-04-04T07:45:24.999Z</time></trkpt><trkpt lat="43.15603696516048" lon="13.004631138666655"><ele>822.0</ele><time>2026-04-04T07:45:25.999Z</time></trkpt><trkpt lat="43.15596515683791" lon="13.004520488463328"><ele>828.0</ele><time>2026-04-04T07:45:26.999Z</time></trkpt><trkpt lat="43.15589795729067" lon="13.004420972098613"><ele>834.0</ele><time>2026-04-04T07:45:27.999Z</time></trkpt><trkpt lat="43.15582672392499" lon="13.00431883476503"><ele>840.0</ele><time>2026-04-04T07:45:28.999Z</time></trkpt><trkpt lat="43.15576907542027" lon="13.004192135461293"><ele>846.0</ele><time>2026-04-04T07:45:29.999Z</time></trkpt><trkpt lat="43.155711085021025" lon="13.00407477342794"><ele>845.4</ele><time>2026-04-04T07:45:30.999Z</time></trkpt><trkpt lat="43.15565014717148" lon="13.003977847309255"><ele>844.8</ele><time>2026-04-04T07:45:31.999Z</time></trkpt><trkpt lat="43.15559655911928" lon="13.003877293645319"><ele>844.1999999999999</ele><time>2026-04-04T07:45:32.999Z</time></trkpt><trkpt lat="43.15555352607395" lon="13.003752660037067"><ele>843.5999999999999</ele><time>2026-04-04T07:45:33.999Z</time></trkpt><trkpt lat="43.15549511520139" lon="13.003654778289402"><ele>843.0</ele><time>2026-04-04T07:45:34.999Z</time></trkpt><trkpt lat="43.15541227311426" lon="13.003546805276635"><ele>843.0</ele><time>2026-04-04T07:45:35.999Z</time></trkpt><trkpt lat="43.155338269215434" lon="13.003442343054985"><ele>843.0</ele><time>2026-04-04T07:45:36.999Z</time></trkpt><trkpt lat="43.15526825072216" lon="13.003350764326067"><ele>843.0</ele><time>2026-04-04T07:45:37.999Z</time></trkpt><trkpt lat="43.15522814248103" lon="13.003255198136097"><ele>843.0</ele><time>2026-04-04T07:45:38.999Z</time></trkpt><trkpt lat="43.1552098037939" lon="13.003109407137295"><ele>843.0</ele><time>2026-04-04T07:45:39.999Z</time></trkpt><trkpt lat="43.15523716435829" lon="13.002939021342584"><ele>848.0</ele><time>2026-04-04T07:45:40.999Z</time></trkpt><trkpt lat="43.15526339938354" lon="13.00277497931635"><ele>853.0</ele><time>2026-04-04T07:45:41.999Z</time></trkpt><trkpt lat="43.155254188808584" lon="13.002616416640562"><ele>858.0</ele><time>2026-04-04T07:45:42.999Z</time></trkpt><trkpt lat="43.15519466844833" lon="13.002476020728214"><ele>863.0</ele><time>2026-04-04T07:45:43.999Z</time></trkpt><trkpt lat="43.155131015089495" lon="13.00236809409192"><ele>866.3333333333334</ele><time>2026-04-04T07:45:44.999Z</time></trkpt><trkpt lat="43.15505797113916" lon="13.002279900729134"><ele>869.6666666666667</ele><time>2026-04-04T07:45:45.999Z</time></trkpt><trkpt lat="43.15497230895934" lon="13.002226598644643"><ele>873.0</ele><time>2026-04-04T07:45:46.999Z</time></trkpt><trkpt lat="43.154922977520556" lon="13.002167602111063"><ele>876.3333333333333</ele><time>2026-04-04T07:45:47.999Z</time></trkpt><trkpt lat="43.15491712639335" lon="13.002074751186175"><ele>879.6666666666666</ele><time>2026-04-04T07:45:48.999Z</time></trkpt><trkpt lat="43.154948163734275" lon="13.001948132699875"><ele>883.0</ele><time>2026-04-04T07:45:49.999Z</time></trkpt><trkpt lat="43.154943327981414" lon="13.00179227113503"><ele>882.3333333333333</ele><time>2026-04-04T07:45:50.999Z</time></trkpt><trkpt lat="43.15494296481456" lon="13.00163963792695"><ele>881.6666666666666</ele><time>2026-04-04T07:45:51.999Z</time></trkpt><trkpt lat="43.15493255320091" lon="13.001522690794198"><ele>881.0</ele><time>2026-04-04T07:45:52.999Z</time></trkpt><trkpt lat="43.15490856599425" lon="13.00143543339824"><ele>880.3333333333333</ele><time>2026-04-04T07:45:53.999Z</time></trkpt><trkpt lat="43.154853292778384" lon="13.00135524218484"><ele>879.6666666666666</ele><time>2026-04-04T07:45:54.999Z</time></trkpt><trkpt lat="43.15478660455348" lon="13.001310203300454"><ele>879.0</ele><time>2026-04-04T07:45:55.999Z</time></trkpt><trkpt lat="43.15478925291627" lon="13.001204498534984"><ele>879.0</ele><time>2026-04-04T07:45:56.999Z</time></trkpt><trkpt lat="43.15478725271189" lon="13.001075939003266"><ele>879.0000000000001</ele><time>2026-04-04T07:45:57.999Z</time></trkpt><trkpt lat="43.15477513991064" lon="13.000914738036474"><ele>879.0000000000001</ele><time>2026-04-04T07:45:58.999Z</time></trkpt><trkpt lat="43.154753877802044" lon="13.000773270793742"><ele>879.0</ele><time>2026-04-04T07:46:00Z</time></trkpt><trkpt lat="43.15473103612703" lon="13.000651687675482"><ele>879.0</ele><time>2026-04-04T07:46:01Z</time></trkpt><trkpt lat="43.15471418940504" lon="13.000521594690095"><ele>884.0</ele><time>2026-04-04T07:46:02Z</time></trkpt><trkpt lat="43.15467843955895" lon="13.000386997060493"><ele>889.0000000000001</ele><time>2026-04-04T07:46:03Z</time></trkpt><trkpt lat="43.15466170037231" lon="13.00024332471864"><ele>894.0000000000001</ele><time>2026-04-04T07:46:04Z</time></trkpt><trkpt lat="43.15464243736899" lon="13.000083127248972"><ele>899.0</ele><time>2026-04-04T07:46:05Z</time></trkpt><trkpt lat="43.15461607418317" lon="12.999955582196788"><ele>904.0</ele><time>2026-04-04T07:46:06Z</time></trkpt><trkpt lat="43.154600874491116" lon="12.999818000254173"><ele>903.9999999999999</ele><time>2026-04-04T07:46:07Z</time></trkpt><trkpt lat="43.15463206863092" lon="12.999687992146011"><ele>904.0</ele><time>2026-04-04T07:46:08Z</time></trkpt><trkpt lat="43.15468153996031" lon="12.999584565448616"><ele>904.0</ele><time>2026-04-04T07:46:09Z</time></trkpt><trkpt lat="43.15468521409585" lon="12.999474195172297"><ele>904.0</ele><time>2026-04-04T07:46:11Z</time></trkpt><trkpt lat="43.15466028492112" lon="12.999377684976201"><ele>903.9999999999999</ele><time>2026-04-04T07:46:12Z</time></trkpt><trkpt lat="43.15462134479883" lon="12.9992855536418"><ele>904.0</ele><time>2026-04-04T07:46:13Z</time></trkpt><trkpt lat="43.15454241463218" lon="12.999244483302718"><ele>904.0</ele><time>2026-04-04T07:46:14Z</time></trkpt><trkpt lat="43.15445213629629" lon="12.999255700346989"><ele>904.0000000000001</ele><time>2026-04-04T07:46:15Z</time></trkpt><trkpt lat="43.15438939542437" lon="12.999091631469199"><ele>904.0000000000001</ele><time>2026-04-04T07:46:17Z</time></trkpt><trkpt lat="43.15438946313247" lon="12.998963553242287"><ele>904.0</ele><time>2026-04-04T07:46:18Z</time></trkpt><trkpt lat="43.154369835815" lon="12.998820627707836"><ele>904.0</ele><time>2026-04-04T07:46:19Z</time></trkpt><trkpt lat="43.154330603728674" lon="12.998712761900853"><ele>908.2</ele><time>2026-04-04T07:46:20Z</time></trkpt><trkpt lat="43.154281267944555" lon="12.998585830062192"><ele>912.4000000000001</ele><time>2026-04-04T07:46:21Z</time></trkpt><trkpt lat="43.154249064463556" lon="12.998474838027205"><ele>916.6</ele><time>2026-04-04T07:46:22Z</time></trkpt><trkpt lat="43.15421564195299" lon="12.998368144575135"><ele>920.8</ele><time>2026-04-04T07:46:23Z</time></trkpt><trkpt lat="43.154161273656115" lon="12.99827071399098"><ele>925.0</ele><time>2026-04-04T07:46:24Z</time></trkpt><trkpt lat="43.15410470197687" lon="12.998174462543309"><ele>926.6666666666666</ele><time>2026-04-04T07:46:25Z</time></trkpt><trkpt lat="43.15406444640022" lon="12.998063059721751"><ele>928.3333333333333</ele><time>2026-04-04T07:46:26Z</time></trkpt><trkpt lat="43.15401751102206" lon="12.997964343199223"><ele>930.0</ele><time>2026-04-04T07:46:27Z</time></trkpt><trkpt lat="43.153969182221225" lon="12.99786299563207"><ele>931.6666666666667</ele><time>2026-04-04T07:46:28Z</time></trkpt><trkpt lat="43.15392981869589" lon="12.997762589486534"><ele>933.3333333333334</ele><time>2026-04-04T07:46:29Z</time></trkpt><trkpt lat="43.15390700458427" lon="12.99767066046232"><ele>935.0</ele><time>2026-04-04T07:46:30Z</time></trkpt><trkpt lat="43.15389785818659" lon="12.99757876338332"><ele>938.5000000000001</ele><time>2026-04-04T07:46:31Z</time></trkpt><trkpt lat="43.15388232277948" lon="12.997478373169978"><ele>942.0</ele><time>2026-04-04T07:46:32Z</time></trkpt><trkpt lat="43.15387166888593" lon="12.997390088952267"><ele>945.5</ele><time>2026-04-04T07:46:33Z</time></trkpt><trkpt lat="43.15384623389263" lon="12.997307035604239"><ele>949.0</ele><time>2026-04-04T07:46:34Z</time></trkpt><trkpt lat="43.15380803433573" lon="12.997174887714381"><ele>952.5000000000001</ele><time>2026-04-04T07:46:36Z</time></trkpt><trkpt lat="43.15380821666645" lon="12.997060698343365"><ele>956.0</ele><time>2026-04-04T07:46:38Z</time></trkpt><trkpt lat="43.15388778240959" lon="12.996966400128349"><ele>956.0000000000001</ele><time>2026-04-04T07:46:41Z</time></trkpt><trkpt lat="43.15394333175891" lon="12.996881816873701"><ele>956.0</ele><time>2026-04-04T07:46:43Z</time></trkpt><trkpt lat="43.1539999672658" lon="12.996943161692196"><ele>956.0</ele><time>2026-04-04T07:47:02Z</time></trkpt><trkpt lat="43.15406402226798" lon="12.996855698758576"><ele>956.0</ele><time>2026-04-04T07:47:05Z</time></trkpt><trkpt lat="43.15413449413918" lon="12.996772747325908"><ele>956.0000000000001</ele><time>2026-04-04T07:47:07Z</time></trkpt><trkpt lat="43.154199050956485" lon="12.996659059639885"><ele>956.0</ele><time>2026-04-04T07:47:09Z</time></trkpt><trkpt lat="43.15424263792022" lon="12.996588290485043"><ele>960.5000000000001</ele><time>2026-04-04T07:47:09.999Z</time></trkpt><trkpt lat="43.15429857608647" lon="12.996515162830992"><ele>965.0</ele><time>2026-04-04T07:47:10.999Z</time></trkpt><trkpt lat="43.15436399137849" lon="12.99644429424211"><ele>969.5</ele><time>2026-04-04T07:47:11.999Z</time></trkpt><trkpt lat="43.1544451760368" lon="12.99638130635516"><ele>974.0</ele><time>2026-04-04T07:47:12.999Z</time></trkpt><trkpt lat="43.154515580651626" lon="12.996337981304237"><ele>978.5000000000001</ele><time>2026-04-04T07:47:13.999Z</time></trkpt><trkpt lat="43.15456758831314" lon="12.996279691241915"><ele>983.0</ele><time>2026-04-04T07:47:14.999Z</time></trkpt><trkpt lat="43.154598007444" lon="12.996202690789424"><ele>983.0</ele><time>2026-04-04T07:47:15.999Z</time></trkpt><trkpt lat="43.154638080688215" lon="12.99606846212624"><ele>983.0</ele><time>2026-04-04T07:47:17.999Z</time></trkpt><trkpt lat="43.154577398171426" lon="12.99593978063802"><ele>983.0</ele><time>2026-04-04T07:47:19.999Z</time></trkpt><trkpt lat="43.154482182183536" lon="12.995863435269351"><ele>983.0</ele><time>2026-04-04T07:47:21.999Z</time></trkpt><trkpt lat="43.154437315471974" lon="12.995778344381293"><ele>983.0</ele><time>2026-04-04T07:47:22.999Z</time></trkpt><trkpt lat="43.15438510800876" lon="12.995703852519792"><ele>985.7142857142856</ele><time>2026-04-04T07:47:23.999Z</time></trkpt><trkpt lat="43.15434115205318" lon="12.995615707957356"><ele>988.4285714285713</ele><time>2026-04-04T07:47:24.999Z</time></trkpt><trkpt lat="43.15430217487739" lon="12.99552622278616"><ele>991.1428571428571</ele><time>2026-04-04T07:47:25.999Z</time></trkpt><trkpt lat="43.15427474358638" lon="12.99544149487501"><ele>993.8571428571428</ele><time>2026-04-04T07:47:26.999Z</time></trkpt><trkpt lat="43.1542458866524" lon="12.995347086223461"><ele>996.5714285714284</ele><time>2026-04-04T07:47:27.999Z</time></trkpt><trkpt lat="43.15423767541634" lon="12.995248784383696"><ele>999.2857142857143</ele><time>2026-04-04T07:47:28.999Z</time></trkpt><trkpt lat="43.154248210943365" lon="12.995157879743722"><ele>1002.0</ele><time>2026-04-04T07:47:29.999Z</time></trkpt><trkpt lat="43.154254804499985" lon="12.995051623063466"><ele>1005.0</ele><time>2026-04-04T07:47:30.999Z</time></trkpt><trkpt lat="43.154253538371336" lon="12.994940407064894"><ele>1008.0</ele><time>2026-04-04T07:47:31.999Z</time></trkpt><trkpt lat="43.15424054931622" lon="12.994850043028363"><ele>1011.0</ele><time>2026-04-04T07:47:32.999Z</time></trkpt><trkpt lat="43.15422154917681" lon="12.994731603655495"><ele>1014.0</ele><time>2026-04-04T07:47:33.999Z</time></trkpt><trkpt lat="43.15419727490271" lon="12.994628023699509"><ele>1017.0</ele><time>2026-04-04T07:47:34.999Z</time></trkpt><trkpt lat="43.15415820457249" lon="12.994518623171874"><ele>1020.0</ele><time>2026-04-04T07:47:35.999Z</time></trkpt><trkpt lat="43.154105062276" lon="12.994405109006694"><ele>1020.0</ele><time>2026-04-04T07:47:36.999Z</time></trkpt><trkpt lat="43.154054566127186" lon="12.994289650336377"><ele>1020.0</ele><time>2026-04-04T07:47:37.999Z</time></trkpt><trkpt lat="43.15400273225446" lon="12.994169455180055"><ele>1020.0</ele><time>2026-04-04T07:47:38.999Z</time></trkpt><trkpt lat="43.1539533715664" lon="12.994057969731022"><ele>1020.0</ele><time>2026-04-04T07:47:39.999Z</time></trkpt><trkpt lat="43.1539077809763" lon="12.993944699626045"><ele>1020.0</ele><time>2026-04-04T07:47:40.999Z</time></trkpt><trkpt lat="43.15386640830816" lon="12.993830438844478"><ele>1020.6666666666666</ele><time>2026-04-04T07:47:41.999Z</time></trkpt><trkpt lat="43.15382307290597" lon="12.993719031497331"><ele>1021.3333333333333</ele><time>2026-04-04T07:47:42.999Z</time></trkpt><trkpt lat="43.153780562239994" lon="12.993613922750207"><ele>1022.0</ele><time>2026-04-04T07:47:43.999Z</time></trkpt><trkpt lat="43.15373250536782" lon="12.99351058210589"><ele>1022.6666666666666</ele><time>2026-04-04T07:47:44.999Z</time></trkpt><trkpt lat="43.153688534269264" lon="12.993433264114037"><ele>1023.3333333333333</ele><time>2026-04-04T07:47:45.999Z</time></trkpt><trkpt lat="43.15363981873474" lon="12.993361714203052"><ele>1024.0</ele><time>2026-04-04T07:47:46.999Z</time></trkpt><trkpt lat="43.153536799407846" lon="12.993248480872795"><ele>1026.8333333333333</ele><time>2026-04-04T07:47:48.999Z</time></trkpt><trkpt lat="43.15347997289546" lon="12.993180477840212"><ele>1029.6666666666665</ele><time>2026-04-04T07:47:49.999Z</time></trkpt><trkpt lat="43.15341597864348" lon="12.99311825343662"><ele>1032.5</ele><time>2026-04-04T07:47:50.999Z</time></trkpt><trkpt lat="43.15334977005481" lon="12.993061855519313"><ele>1035.3333333333333</ele><time>2026-04-04T07:47:51.999Z</time></trkpt><trkpt lat="43.153281228068764" lon="12.993009155123437"><ele>1038.1666666666667</ele><time>2026-04-04T07:47:52.999Z</time></trkpt><trkpt lat="43.15321606171582" lon="12.992953749914447"><ele>1041.0</ele><time>2026-04-04T07:47:53.999Z</time></trkpt><trkpt lat="43.153145055970974" lon="12.99289522723881"><ele>1041.0</ele><time>2026-04-04T07:47:54.999Z</time></trkpt><trkpt lat="43.15307940018041" lon="12.992854792369272"><ele>1041.0</ele><time>2026-04-04T07:47:55.999Z</time></trkpt><trkpt lat="43.153011800896564" lon="12.992807489983898"><ele>1041.0</ele><time>2026-04-04T07:47:56.999Z</time></trkpt><trkpt lat="43.15295094460277" lon="12.99276576234127"><ele>1041.0</ele><time>2026-04-04T07:47:57.999Z</time></trkpt><trkpt lat="43.15288482700614" lon="12.992724744537274"><ele>1041.0</ele><time>2026-04-04T07:47:58.999Z</time></trkpt><trkpt lat="43.15280886969749" lon="12.992683968305311"><ele>1041.0</ele><time>2026-04-04T07:47:59.999Z</time></trkpt><trkpt lat="43.15273326377936" lon="12.992644736620242"><ele>1041.0</ele><time>2026-04-04T07:48:00.999Z</time></trkpt><trkpt lat="43.15266300837743" lon="12.992609585599201"><ele>1041.0</ele><time>2026-04-04T07:48:01.999Z</time></trkpt><trkpt lat="43.152595557167174" lon="12.99257026551967"><ele>1041.0</ele><time>2026-04-04T07:48:02.999Z</time></trkpt><trkpt lat="43.15253936744199" lon="12.992529284956989"><ele>1041.0</ele><time>2026-04-04T07:48:03.999Z</time></trkpt><trkpt lat="43.152442196266534" lon="12.992442321419917"><ele>1041.0</ele><time>2026-04-04T07:48:06Z</time></trkpt><trkpt lat="43.15238755966662" lon="12.992360976726275"><ele>1041.0</ele><time>2026-04-04T07:48:08Z</time></trkpt><trkpt lat="43.152340279395744" lon="12.99227072841761"><ele>1040.6</ele><time>2026-04-04T07:48:10Z</time></trkpt><trkpt lat="43.15226763163637" lon="12.992203304188282"><ele>1040.1999999999998</ele><time>2026-04-04T07:50:11Z</time></trkpt><trkpt lat="43.15217126143515" lon="12.992243439420479"><ele>1039.8000000000002</ele><time>2026-04-04T07:50:13Z</time></trkpt><trkpt lat="43.1520636619748" lon="12.992280122320578"><ele>1039.4</ele><time>2026-04-04T07:50:15Z</time></trkpt><trkpt lat="43.151977831367795" lon="12.992307707221523"><ele>1039.0</ele><time>2026-04-04T07:50:16Z</time></trkpt><trkpt lat="43.15188150139752" lon="12.992341938799367"><ele>1039.0</ele><time>2026-04-04T07:50:17Z</time></trkpt><trkpt lat="43.15177002071755" lon="12.99238609824999"><ele>1039.0</ele><time>2026-04-04T07:50:18Z</time></trkpt><trkpt lat="43.15167375454926" lon="12.992425894392316"><ele>1039.0</ele><time>2026-04-04T07:50:19Z</time></trkpt><trkpt lat="43.151579423833326" lon="12.992467162444331"><ele>1039.0</ele><time>2026-04-04T07:50:20Z</time></trkpt><trkpt lat="43.15148793536285" lon="12.992507979158297"><ele>1039.0</ele><time>2026-04-04T07:50:21Z</time></trkpt><trkpt lat="43.15138970986298" lon="12.992558750389463"><ele>1039.5</ele><time>2026-04-04T07:50:22Z</time></trkpt><trkpt lat="43.151273002866525" lon="12.99263096712206"><ele>1040.0</ele><time>2026-04-04T07:50:23Z</time></trkpt><trkpt lat="43.15114897667616" lon="12.992703972569535"><ele>1040.5</ele><time>2026-04-04T07:50:24Z</time></trkpt><trkpt lat="43.151030741715935" lon="12.992764333334462"><ele>1041.0</ele><time>2026-04-04T07:50:25Z</time></trkpt><trkpt lat="43.15093673741913" lon="12.992801188115804"><ele>1041.0</ele><time>2026-04-04T07:50:26Z</time></trkpt><trkpt lat="43.150839496313054" lon="12.992831353948796"><ele>1041.0</ele><time>2026-04-04T07:50:27Z</time></trkpt><trkpt lat="43.15073504377917" lon="12.992871938874963"><ele>1041.0</ele><time>2026-04-04T07:50:28Z</time></trkpt><trkpt lat="43.15063047381989" lon="12.99290666754746"><ele>1041.0</ele><time>2026-04-04T07:50:29Z</time></trkpt><trkpt lat="43.15053057839405" lon="12.99290639422749"><ele>1041.0</ele><time>2026-04-04T07:50:30Z</time></trkpt><trkpt lat="43.15043410613738" lon="12.992882107617568"><ele>1044.75</ele><time>2026-04-04T07:50:31Z</time></trkpt><trkpt lat="43.150339088208725" lon="12.992880116365296"><ele>1048.5</ele><time>2026-04-04T07:50:32Z</time></trkpt><trkpt lat="43.150213247978144" lon="12.992896103794754"><ele>1052.25</ele><time>2026-04-04T07:50:33Z</time></trkpt><trkpt lat="43.15008540229471" lon="12.992913179532973"><ele>1056.0</ele><time>2026-04-04T07:50:34Z</time></trkpt><trkpt lat="43.149956063788686" lon="12.992931664931778"><ele>1059.5</ele><time>2026-04-04T07:50:35Z</time></trkpt><trkpt lat="43.14981795101746" lon="12.992941133307152"><ele>1063.0</ele><time>2026-04-04T07:50:36Z</time></trkpt><trkpt lat="43.149675014542716" lon="12.992942785648061"><ele>1066.5</ele><time>2026-04-04T07:50:37Z</time></trkpt><trkpt lat="43.14951925789401" lon="12.992945948347733"><ele>1070.0</ele><time>2026-04-04T07:50:38Z</time></trkpt><trkpt lat="43.149360207107605" lon="12.992954806103988"><ele>1070.0</ele><time>2026-04-04T07:50:39Z</time></trkpt><trkpt lat="43.14920241482909" lon="12.992960761914976"><ele>1070.0</ele><time>2026-04-04T07:50:40Z</time></trkpt><trkpt lat="43.14905929389321" lon="12.992967470326622"><ele>1070.0</ele><time>2026-04-04T07:50:41Z</time></trkpt><trkpt lat="43.148945015333936" lon="12.99297262581786"><ele>1070.0</ele><time>2026-04-04T07:50:42Z</time></trkpt><trkpt lat="43.148833104800694" lon="12.992977893797157"><ele>1074.3333333333335</ele><time>2026-04-04T07:50:43Z</time></trkpt><trkpt lat="43.14870074424175" lon="12.992977509397194"><ele>1078.6666666666667</ele><time>2026-04-04T07:50:44Z</time></trkpt><trkpt lat="43.14852993116025" lon="12.992993109710476"><ele>1083.0</ele><time>2026-04-04T07:50:45Z</time></trkpt><trkpt lat="43.148351374449874" lon="12.993013573190973"><ele>1086.0</ele><time>2026-04-04T07:50:46Z</time></trkpt><trkpt lat="43.14816262051715" lon="12.99303641975594"><ele>1089.0</ele><time>2026-04-04T07:50:47Z</time></trkpt><trkpt lat="43.14797422132333" lon="12.993048988949944"><ele>1092.0</ele><time>2026-04-04T07:50:48Z</time></trkpt><trkpt lat="43.14780382719461" lon="12.99304927662594"><ele>1092.0</ele><time>2026-04-04T07:50:49Z</time></trkpt><trkpt lat="43.147636460967924" lon="12.993033527385181"><ele>1092.0</ele><time>2026-04-04T07:50:50Z</time></trkpt><trkpt lat="43.147471105977914" lon="12.993006329670228"><ele>1092.0</ele><time>2026-04-04T07:50:51Z</time></trkpt><trkpt lat="43.147283826511504" lon="12.992959379383253"><ele>1097.6666666666667</ele><time>2026-04-04T07:50:52Z</time></trkpt><trkpt lat="43.1470912802914" lon="12.992907649764852"><ele>1103.3333333333335</ele><time>2026-04-04T07:50:53Z</time></trkpt><trkpt lat="43.14691435688879" lon="12.992859453976385"><ele>1109.0</ele><time>2026-04-04T07:50:54Z</time></trkpt><trkpt lat="43.14674308651278" lon="12.992809510744646"><ele>1109.0</ele><time>2026-04-04T07:50:55Z</time></trkpt><trkpt lat="43.1465684659643" lon="12.992762020258086"><ele>1109.0</ele><time>2026-04-04T07:50:56Z</time></trkpt><trkpt lat="43.14638829443504" lon="12.99272188350165"><ele>1109.0</ele><time>2026-04-04T07:50:57Z</time></trkpt><trkpt lat="43.1461997122001" lon="12.992676211479498"><ele>1113.3333333333335</ele><time>2026-04-04T07:50:58Z</time></trkpt><trkpt lat="43.146018681747144" lon="12.992628510743366"><ele>1117.6666666666667</ele><time>2026-04-04T07:50:59Z</time></trkpt><trkpt lat="43.14584062792288" lon="12.992588231706401"><ele>1122.0</ele><time>2026-04-04T07:51:00Z</time></trkpt><trkpt lat="43.14566965175975" lon="12.992536174938424"><ele>1126.0</ele><time>2026-04-04T07:51:01Z</time></trkpt><trkpt lat="43.14550362355224" lon="12.992479920717413"><ele>1130.0</ele><time>2026-04-04T07:51:02Z</time></trkpt><trkpt lat="43.14534030957343" lon="12.99241753260918"><ele>1134.0</ele><time>2026-04-04T07:51:03Z</time></trkpt><trkpt lat="43.14517875843596" lon="12.992357061464919"><ele>1134.0</ele><time>2026-04-04T07:51:04Z</time></trkpt><trkpt lat="43.14500705089986" lon="12.992287862507375"><ele>1134.0</ele><time>2026-04-04T07:51:05Z</time></trkpt><trkpt lat="43.14482381182891" lon="12.992212747079863"><ele>1134.0</ele><time>2026-04-04T07:51:06Z</time></trkpt><trkpt lat="43.14464488974244" lon="12.992148038070138"><ele>1134.5</ele><time>2026-04-04T07:51:07Z</time></trkpt><trkpt lat="43.14448593690904" lon="12.992095410673311"><ele>1135.0</ele><time>2026-04-04T07:51:08Z</time></trkpt><trkpt lat="43.14434617641094" lon="12.992046721887837"><ele>1135.5</ele><time>2026-04-04T07:51:09Z</time></trkpt><trkpt lat="43.144209578466196" lon="12.99199674115519"><ele>1136.0</ele><time>2026-04-04T07:51:10Z</time></trkpt><trkpt lat="43.144077280612585" lon="12.991942029463672"><ele>1135.0</ele><time>2026-04-04T07:51:11Z</time></trkpt><trkpt lat="43.143923793163246" lon="12.991872632623528"><ele>1134.0</ele><time>2026-04-04T07:51:12Z</time></trkpt><trkpt lat="43.1437586277979" lon="12.99180232412205"><ele>1133.0</ele><time>2026-04-04T07:51:13Z</time></trkpt><trkpt lat="43.14359267308031" lon="12.991730272599655"><ele>1136.0</ele><time>2026-04-04T07:51:14Z</time></trkpt><trkpt lat="43.143443724352835" lon="12.991665941438406"><ele>1139.0</ele><time>2026-04-04T07:51:15Z</time></trkpt><trkpt lat="43.14331453723004" lon="12.991613087460996"><ele>1142.0</ele><time>2026-04-04T07:51:16Z</time></trkpt><trkpt lat="43.143207923873675" lon="12.991558273163664"><ele>1145.0</ele><time>2026-04-04T07:51:17Z</time></trkpt><trkpt lat="43.14311238961466" lon="12.991500260682095"><ele>1145.0</ele><time>2026-04-04T07:51:18Z</time></trkpt><trkpt lat="43.14301730976306" lon="12.991451387413465"><ele>1145.0</ele><time>2026-04-04T07:51:19Z</time></trkpt><trkpt lat="43.14291570390353" lon="12.991410752069907"><ele>1145.0</ele><time>2026-04-04T07:51:20Z</time></trkpt><trkpt lat="43.14280497981504" lon="12.991365635218015"><ele>1145.0</ele><time>2026-04-04T07:51:21Z</time></trkpt><trkpt lat="43.14268209175635" lon="12.991315072821147"><ele>1145.0</ele><time>2026-04-04T07:51:22Z</time></trkpt><trkpt lat="43.14255717475769" lon="12.991260324589188"><ele>1145.0</ele><time>2026-04-04T07:51:23Z</time></trkpt><trkpt lat="43.14243136974804" lon="12.991202966121273"><ele>1145.0</ele><time>2026-04-04T07:51:24Z</time></trkpt><trkpt lat="43.14232452088103" lon="12.991150710845188"><ele>1145.0</ele><time>2026-04-04T07:51:25Z</time></trkpt><trkpt lat="43.1422267661832" lon="12.99110633245752"><ele>1144.8333333333335</ele><time>2026-04-04T07:51:26Z</time></trkpt><trkpt lat="43.14214198598435" lon="12.991069689469803"><ele>1144.6666666666667</ele><time>2026-04-04T07:51:27Z</time></trkpt><trkpt lat="43.14205801526252" lon="12.99103350382297"><ele>1144.5</ele><time>2026-04-04T07:51:28Z</time></trkpt><trkpt lat="43.14198031434147" lon="12.990997591730821"><ele>1144.3333333333333</ele><time>2026-04-04T07:51:29Z</time></trkpt><trkpt lat="43.1419038906339" lon="12.990953225406365"><ele>1144.1666666666665</ele><time>2026-04-04T07:51:30Z</time></trkpt><trkpt lat="43.1418242124147" lon="12.990906678361494"><ele>1144.0</ele><time>2026-04-04T07:51:31Z</time></trkpt><trkpt lat="43.14175808588737" lon="12.990865391099973"><ele>1143.5</ele><time>2026-04-04T07:51:32Z</time></trkpt><trkpt lat="43.14168565158293" lon="12.990825647875223"><ele>1143.0</ele><time>2026-04-04T07:51:32.999Z</time></trkpt><trkpt lat="43.14161179072459" lon="12.990774817149834"><ele>1142.5</ele><time>2026-04-04T07:51:33.999Z</time></trkpt><trkpt lat="43.14152949645455" lon="12.990718758199442"><ele>1142.0</ele><time>2026-04-04T07:51:34.999Z</time></trkpt><trkpt lat="43.14145314870028" lon="12.990664356534813"><ele>1141.5</ele><time>2026-04-04T07:51:35.999Z</time></trkpt><trkpt lat="43.14137032817759" lon="12.990615455482873"><ele>1141.0</ele><time>2026-04-04T07:51:36.999Z</time></trkpt><trkpt lat="43.14128132863598" lon="12.990554209481514"><ele>1141.0</ele><time>2026-04-04T07:51:37.999Z</time></trkpt><trkpt lat="43.141198038981706" lon="12.990486323180612"><ele>1141.0</ele><time>2026-04-04T07:51:38.999Z</time></trkpt><trkpt lat="43.141129712560556" lon="12.990419850962295"><ele>1141.0</ele><time>2026-04-04T07:51:39.999Z</time></trkpt><trkpt lat="43.1410716460959" lon="12.990348417830557"><ele>1141.0</ele><time>2026-04-04T07:51:40.999Z</time></trkpt><trkpt lat="43.14099259113115" lon="12.990230817852199"><ele>1141.0</ele><time>2026-04-04T07:51:42.999Z</time></trkpt><trkpt lat="43.14092620563574" lon="12.990165478459836"><ele>1141.0</ele><time>2026-04-04T07:51:43.999Z</time></trkpt><trkpt lat="43.1408191856982" lon="12.990081870563268"><ele>1141.0</ele><time>2026-04-04T07:51:44.999Z</time></trkpt><trkpt lat="43.14069963847482" lon="12.989993887617262"><ele>1141.0</ele><time>2026-04-04T07:51:45.999Z</time></trkpt><trkpt lat="43.140593855719835" lon="12.989894667161057"><ele>1141.0</ele><time>2026-04-04T07:51:46.999Z</time></trkpt><trkpt lat="43.14052106094292" lon="12.989816599009863"><ele>1139.1666666666665</ele><time>2026-04-04T07:51:47.999Z</time></trkpt><trkpt lat="43.14045898152163" lon="12.989735246233815"><ele>1137.3333333333333</ele><time>2026-04-04T07:51:48.999Z</time></trkpt><trkpt lat="43.1404029943904" lon="12.98964804116209"><ele>1135.5</ele><time>2026-04-04T07:51:49.999Z</time></trkpt><trkpt lat="43.140348774129905" lon="12.9895747238792"><ele>1133.6666666666667</ele><time>2026-04-04T07:51:50.999Z</time></trkpt><trkpt lat="43.14028551842615" lon="12.989506839686584"><ele>1131.8333333333335</ele><time>2026-04-04T07:51:51.999Z</time></trkpt><trkpt lat="43.14021896796637" lon="12.989452150469512"><ele>1130.0</ele><time>2026-04-04T07:51:52.999Z</time></trkpt><trkpt lat="43.14014928127117" lon="12.98939884030366"><ele>1130.0</ele><time>2026-04-04T07:51:53.999Z</time></trkpt><trkpt lat="43.140074126655925" lon="12.989352901816718"><ele>1130.0</ele><time>2026-04-04T07:51:54.999Z</time></trkpt><trkpt lat="43.140000479152874" lon="12.98930482609618"><ele>1130.0</ele><time>2026-04-04T07:51:55.999Z</time></trkpt><trkpt lat="43.13990603915865" lon="12.989237581587771"><ele>1130.0</ele><time>2026-04-04T07:51:56.999Z</time></trkpt><trkpt lat="43.13981061057703" lon="12.989179288936969"><ele>1130.0</ele><time>2026-04-04T07:51:57.999Z</time></trkpt><trkpt lat="43.13971261816165" lon="12.989117393890108"><ele>1128.6</ele><time>2026-04-04T07:51:58.999Z</time></trkpt><trkpt lat="43.139610288383146" lon="12.989057336782745"><ele>1127.2</ele><time>2026-04-04T07:51:59.999Z</time></trkpt><trkpt lat="43.139503682141736" lon="12.98900205004021"><ele>1125.8</ele><time>2026-04-04T07:52:00.999Z</time></trkpt><trkpt lat="43.1394080763007" lon="12.988960792793907"><ele>1124.4</ele><time>2026-04-04T07:52:01.999Z</time></trkpt><trkpt lat="43.13931101191846" lon="12.988937017342765"><ele>1123.0</ele><time>2026-04-04T07:52:02.999Z</time></trkpt><trkpt lat="43.13921737378016" lon="12.988926700635773"><ele>1123.0</ele><time>2026-04-04T07:52:03.999Z</time></trkpt><trkpt lat="43.13913549062508" lon="12.98891805710944"><ele>1123.0</ele><time>2026-04-04T07:52:04.999Z</time></trkpt><trkpt lat="43.13906078899326" lon="12.988902427104268"><ele>1123.0</ele><time>2026-04-04T07:52:05.999Z</time></trkpt><trkpt lat="43.1389838773129" lon="12.988890046206613"><ele>1123.0</ele><time>2026-04-04T07:52:06.999Z</time></trkpt><trkpt lat="43.13891390538985" lon="12.988886327150762"><ele>1123.0</ele><time>2026-04-04T07:52:07.999Z</time></trkpt><trkpt lat="43.1388389884281" lon="12.988882977117736"><ele>1123.0</ele><time>2026-04-04T07:52:08.999Z</time></trkpt><trkpt lat="43.13875242202274" lon="12.988875961620524"><ele>1119.8</ele><time>2026-04-04T07:52:09.999Z</time></trkpt><trkpt lat="43.13864163061436" lon="12.988864886025207"><ele>1116.6</ele><time>2026-04-04T07:52:10.999Z</time></trkpt><trkpt lat="43.13853349059187" lon="12.98884984262282"><ele>1113.4</ele><time>2026-04-04T07:52:11.999Z</time></trkpt><trkpt lat="43.138437301836156" lon="12.988837586765671"><ele>1110.2</ele><time>2026-04-04T07:52:12.999Z</time></trkpt><trkpt lat="43.13832792591902" lon="12.988818292482147"><ele>1107.0</ele><time>2026-04-04T07:52:13.999Z</time></trkpt><trkpt lat="43.13820473672647" lon="12.988789321141565"><ele>1104.0</ele><time>2026-04-04T07:52:14.999Z</time></trkpt><trkpt lat="43.138058432293015" lon="12.98874466835973"><ele>1101.0</ele><time>2026-04-04T07:52:15.999Z</time></trkpt><trkpt lat="43.137907855453314" lon="12.988704854366246"><ele>1098.0</ele><time>2026-04-04T07:52:17Z</time></trkpt><trkpt lat="43.13777262389215" lon="12.98866610084187"><ele>1095.0</ele><time>2026-04-04T07:52:18Z</time></trkpt><trkpt lat="43.13763214816297" lon="12.98862322737393"><ele>1095.0</ele><time>2026-04-04T07:52:19Z</time></trkpt><trkpt lat="43.1375093163964" lon="12.988586326508274"><ele>1095.0</ele><time>2026-04-04T07:52:20Z</time></trkpt><trkpt lat="43.13739455330973" lon="12.988532297146136"><ele>1095.0</ele><time>2026-04-04T07:52:21Z</time></trkpt><trkpt lat="43.137298986020305" lon="12.988453082379133"><ele>1095.0</ele><time>2026-04-04T07:52:22Z</time></trkpt><trkpt lat="43.13720799094244" lon="12.988395010617152"><ele>1093.8</ele><time>2026-04-04T07:52:23Z</time></trkpt><trkpt lat="43.13712511645534" lon="12.988343426636412"><ele>1092.6</ele><time>2026-04-04T07:52:24Z</time></trkpt><trkpt lat="43.13704069911225" lon="12.988299048673811"><ele>1091.4</ele><time>2026-04-04T07:52:25Z</time></trkpt><trkpt lat="43.136959101836155" lon="12.988250129016151"><ele>1090.2</ele><time>2026-04-04T07:52:26Z</time></trkpt><trkpt lat="43.13688044074294" lon="12.98820451636632"><ele>1089.0</ele><time>2026-04-04T07:52:27Z</time></trkpt><trkpt lat="43.13679088759157" lon="12.988165531084933"><ele>1089.0</ele><time>2026-04-04T07:52:28Z</time></trkpt><trkpt lat="43.13670947073023" lon="12.988141440188398"><ele>1089.0</ele><time>2026-04-04T07:52:29Z</time></trkpt><trkpt lat="43.13663423570497" lon="12.988107493621476"><ele>1089.0</ele><time>2026-04-04T07:52:30Z</time></trkpt><trkpt lat="43.13656124724681" lon="12.988056624071143"><ele>1089.0</ele><time>2026-04-04T07:52:31Z</time></trkpt><trkpt lat="43.13648709974861" lon="12.987996318414066"><ele>1089.0</ele><time>2026-04-04T07:52:32Z</time></trkpt><trkpt lat="43.136418326751894" lon="12.987933670362704"><ele>1089.0</ele><time>2026-04-04T07:52:33Z</time></trkpt><trkpt lat="43.13635939063162" lon="12.987885158962456"><ele>1086.1666666666667</ele><time>2026-04-04T07:52:34Z</time></trkpt><trkpt lat="43.13630117310231" lon="12.987819400526938"><ele>1083.3333333333333</ele><time>2026-04-04T07:52:36Z</time></trkpt><trkpt lat="43.13625722816728" lon="12.987732362257116"><ele>1080.5</ele><time>2026-04-04T07:52:38Z</time></trkpt><trkpt lat="43.13623095995966" lon="12.987620353437102"><ele>1077.6666666666665</ele><time>2026-04-04T07:52:40Z</time></trkpt><trkpt lat="43.13622125921799" lon="12.987504862108207"><ele>1074.8333333333333</ele><time>2026-04-04T07:52:42Z</time></trkpt><trkpt lat="43.13624407327249" lon="12.987411631676014"><ele>1072.0</ele><time>2026-04-04T07:52:44Z</time></trkpt><trkpt lat="43.13626838103777" lon="12.987312080422067"><ele>1070.6</ele><time>2026-04-04T07:52:48Z</time></trkpt><trkpt lat="43.13627761292723" lon="12.987202108308908"><ele>1069.2</ele><time>2026-04-04T07:52:50Z</time></trkpt><trkpt lat="43.13630868981361" lon="12.987087727557183"><ele>1067.8</ele><time>2026-04-04T07:52:52Z</time></trkpt><trkpt lat="43.13635002404637" lon="12.986972021206874"><ele>1066.4</ele><time>2026-04-04T07:52:54Z</time></trkpt><trkpt lat="43.136382340576226" lon="12.986815496953687"><ele>1065.0</ele><time>2026-04-04T07:52:56Z</time></trkpt><trkpt lat="43.13639221583766" lon="12.986722201508272"><ele>1063.8333333333333</ele><time>2026-04-04T07:52:57Z</time></trkpt><trkpt lat="43.13638883173411" lon="12.986609197146619"><ele>1062.6666666666667</ele><time>2026-04-04T07:52:58Z</time></trkpt><trkpt lat="43.13638694587242" lon="12.986496891315618"><ele>1061.5</ele><time>2026-04-04T07:52:59Z</time></trkpt><trkpt lat="43.1363737691619" lon="12.98638595098621"><ele>1060.3333333333335</ele><time>2026-04-04T07:53:00Z</time></trkpt><trkpt lat="43.13634532914511" lon="12.986276690703699"><ele>1059.1666666666667</ele><time>2026-04-04T07:53:01Z</time></trkpt><trkpt lat="43.13631072678618" lon="12.986155568640317"><ele>1058.0</ele><time>2026-04-04T07:53:02Z</time></trkpt><trkpt lat="43.136264950359894" lon="12.986036446831704"><ele>1058.0</ele><time>2026-04-04T07:53:03Z</time></trkpt><trkpt lat="43.13620913510334" lon="12.985930843142837"><ele>1058.0</ele><time>2026-04-04T07:53:04Z</time></trkpt><trkpt lat="43.13615051474403" lon="12.985825734497125"><ele>1058.0</ele><time>2026-04-04T07:53:05Z</time></trkpt><trkpt lat="43.13609594455249" lon="12.985715526228764"><ele>1058.0</ele><time>2026-04-04T07:53:06Z</time></trkpt><trkpt lat="43.13604920234387" lon="12.985601669536857"><ele>1058.0</ele><time>2026-04-04T07:53:07Z</time></trkpt><trkpt lat="43.13600645534234" lon="12.985496193650915"><ele>1057.0</ele><time>2026-04-04T07:53:08Z</time></trkpt><trkpt lat="43.135965126728166" lon="12.985380150446103"><ele>1056.0</ele><time>2026-04-04T07:53:09Z</time></trkpt><trkpt lat="43.13592078183728" lon="12.985260053894484"><ele>1055.0</ele><time>2026-04-04T07:53:10Z</time></trkpt><trkpt lat="43.13587611289725" lon="12.98513297622664"><ele>1054.0</ele><time>2026-04-04T07:53:11Z</time></trkpt><trkpt lat="43.13582993604622" lon="12.984985250512034"><ele>1053.0</ele><time>2026-04-04T07:53:12Z</time></trkpt><trkpt lat="43.13577660035393" lon="12.984839211064433"><ele>1052.25</ele><time>2026-04-04T07:53:13Z</time></trkpt><trkpt lat="43.135722957202354" lon="12.984692354453818"><ele>1051.5</ele><time>2026-04-04T07:53:14Z</time></trkpt><trkpt lat="43.13566800407226" lon="12.984535687405044"><ele>1050.75</ele><time>2026-04-04T07:53:15Z</time></trkpt><trkpt lat="43.13560315542717" lon="12.98437083397767"><ele>1050.0</ele><time>2026-04-04T07:53:16Z</time></trkpt><trkpt lat="43.1355383838395" lon="12.984197578711553"><ele>1046.75</ele><time>2026-04-04T07:53:17Z</time></trkpt><trkpt lat="43.135468108645995" lon="12.984051697223725"><ele>1043.5</ele><time>2026-04-04T07:53:18Z</time></trkpt><trkpt lat="43.13540275237695" lon="12.983904811532145"><ele>1040.25</ele><time>2026-04-04T07:53:19Z</time></trkpt><trkpt lat="43.13534150538449" lon="12.983761310431163"><ele>1037.0</ele><time>2026-04-04T07:53:20Z</time></trkpt><trkpt lat="43.13528224192152" lon="12.983613778987532"><ele>1037.0</ele><time>2026-04-04T07:53:21Z</time></trkpt><trkpt lat="43.135220709041114" lon="12.98346688163879"><ele>1037.0</ele><time>2026-04-04T07:53:22Z</time></trkpt><trkpt lat="43.135160225860766" lon="12.983323351954278"><ele>1037.0</ele><time>2026-04-04T07:53:23Z</time></trkpt><trkpt lat="43.13509683114428" lon="12.983176130984997"><ele>1037.0</ele><time>2026-04-04T07:53:24Z</time></trkpt><trkpt lat="43.13503018112751" lon="12.983022515728655"><ele>1034.5</ele><time>2026-04-04T07:53:25Z</time></trkpt><trkpt lat="43.13496998111169" lon="12.982881444934874"><ele>1032.0</ele><time>2026-04-04T07:53:26Z</time></trkpt><trkpt lat="43.13491739951702" lon="12.982744842102164"><ele>1029.5</ele><time>2026-04-04T07:53:27Z</time></trkpt><trkpt lat="43.13486122281982" lon="12.982600922912322"><ele>1027.0</ele><time>2026-04-04T07:53:28Z</time></trkpt><trkpt lat="43.134805501460775" lon="12.982467116486003"><ele>1022.75</ele><time>2026-04-04T07:53:29Z</time></trkpt><trkpt lat="43.134745396085364" lon="12.982328994469952"><ele>1018.5</ele><time>2026-04-04T07:53:30Z</time></trkpt><trkpt lat="43.13469010221805" lon="12.982189747437594"><ele>1014.25</ele><time>2026-04-04T07:53:31Z</time></trkpt><trkpt lat="43.13464522880331" lon="12.982052207268152"><ele>1010.0</ele><time>2026-04-04T07:53:32Z</time></trkpt><trkpt lat="43.1346058361187" lon="12.981911143803593"><ele>1010.0</ele><time>2026-04-04T07:53:33Z</time></trkpt><trkpt lat="43.134568577402355" lon="12.981768810522786"><ele>1010.0</ele><time>2026-04-04T07:53:34Z</time></trkpt><trkpt lat="43.13453143902479" lon="12.98162235432805"><ele>1010.0</ele><time>2026-04-04T07:53:35Z</time></trkpt><trkpt lat="43.13450049456586" lon="12.981502487129864"><ele>1010.0</ele><time>2026-04-04T07:53:36Z</time></trkpt><trkpt lat="43.13448198594025" lon="12.981396202266707"><ele>1010.0</ele><time>2026-04-04T07:53:37Z</time></trkpt><trkpt lat="43.134477840860846" lon="12.98129135569455"><ele>1009.0000000000001</ele><time>2026-04-04T07:53:38Z</time></trkpt><trkpt lat="43.134489068931956" lon="12.98118876483943"><ele>1008.0</ele><time>2026-04-04T07:53:39Z</time></trkpt><trkpt lat="43.13450491384589" lon="12.981079377201825"><ele>1007.0</ele><time>2026-04-04T07:53:40Z</time></trkpt><trkpt lat="43.13451153741167" lon="12.980990900873456"><ele>1006.0</ele><time>2026-04-04T07:53:40.999Z</time></trkpt><trkpt lat="43.13451147323333" lon="12.980826065526184"><ele>1005.0000000000001</ele><time>2026-04-04T07:53:42.999Z</time></trkpt><trkpt lat="43.13448973783609" lon="12.980736676696539"><ele>1004.0</ele><time>2026-04-04T07:53:43.999Z</time></trkpt><trkpt lat="43.13445509334761" lon="12.980588264268956"><ele>1001.0</ele><time>2026-04-04T07:53:45.999Z</time></trkpt><trkpt lat="43.13445292159724" lon="12.980433307069204"><ele>998.0000000000001</ele><time>2026-04-04T07:53:47.999Z</time></trkpt><trkpt lat="43.1344544483034" lon="12.980282604130021"><ele>995.0000000000001</ele><time>2026-04-04T07:53:49.999Z</time></trkpt><trkpt lat="43.13444783881933" lon="12.980171812751735"><ele>992.0</ele><time>2026-04-04T07:53:50.999Z</time></trkpt><trkpt lat="43.13444179275001" lon="12.980047814200303"><ele>989.0</ele><time>2026-04-04T07:53:51.999Z</time></trkpt><trkpt lat="43.134443981955705" lon="12.979954891519268"><ele>985.8333333333334</ele><time>2026-04-04T07:53:52.999Z</time></trkpt><trkpt lat="43.13444893118505" lon="12.979861781808426"><ele>982.6666666666667</ele><time>2026-04-04T07:53:53.999Z</time></trkpt><trkpt lat="43.13444739060439" lon="12.979680669665793"><ele>979.5</ele><time>2026-04-04T07:53:55.999Z</time></trkpt><trkpt lat="43.13444339509945" lon="12.979582736631311"><ele>976.3333333333333</ele><time>2026-04-04T07:53:56.999Z</time></trkpt><trkpt lat="43.134434404236245" lon="12.979491583380064"><ele>973.1666666666666</ele><time>2026-04-04T07:53:57.999Z</time></trkpt><trkpt lat="43.13442495619678" lon="12.979397924342852"><ele>970.0</ele><time>2026-04-04T07:53:58.999Z</time></trkpt><trkpt lat="43.13441998578643" lon="12.979308823232547"><ele>966.2</ele><time>2026-04-04T07:53:59.999Z</time></trkpt><trkpt lat="43.1344151610324" lon="12.979151621085293"><ele>962.4</ele><time>2026-04-04T07:54:01.999Z</time></trkpt><trkpt lat="43.13442092485226" lon="12.978990043013589"><ele>958.5999999999999</ele><time>2026-04-04T07:54:03.999Z</time></trkpt><trkpt lat="43.13443336666093" lon="12.978892171267189"><ele>954.8</ele><time>2026-04-04T07:54:04.999Z</time></trkpt><trkpt lat="43.13444326430639" lon="12.978786820812614"><ele>951.0</ele><time>2026-04-04T07:54:05.999Z</time></trkpt><trkpt lat="43.1344448992151" lon="12.978680533563582"><ele>951.0</ele><time>2026-04-04T07:54:06.999Z</time></trkpt><trkpt lat="43.1344430481399" lon="12.978584867510337"><ele>950.9999999999999</ele><time>2026-04-04T07:54:07.999Z</time></trkpt><trkpt lat="43.134454600481135" lon="12.978441742851611"><ele>950.9999999999999</ele><time>2026-04-04T07:54:08.999Z</time></trkpt><trkpt lat="43.134454180791735" lon="12.978311248853093"><ele>951.0</ele><time>2026-04-04T07:54:09.999Z</time></trkpt><trkpt lat="43.13444905918536" lon="12.978179467073991"><ele>951.0</ele><time>2026-04-04T07:54:10.999Z</time></trkpt><trkpt lat="43.13444747209206" lon="12.97806381229566"><ele>948.5</ele><time>2026-04-04T07:54:11.999Z</time></trkpt><trkpt lat="43.134484946485465" lon="12.977924973136533"><ele>946.0</ele><time>2026-04-04T07:54:13.999Z</time></trkpt><trkpt lat="43.134543313824246" lon="12.97787177190263"><ele>943.5</ele><time>2026-04-04T07:54:15.999Z</time></trkpt><trkpt lat="43.13458577985792" lon="12.977780655813048"><ele>941.0</ele><time>2026-04-04T07:54:17.999Z</time></trkpt><trkpt lat="43.13457027757754" lon="12.977651922879447"><ele>938.5</ele><time>2026-04-04T07:54:19.999Z</time></trkpt><trkpt lat="43.134550169671016" lon="12.977546869090448"><ele>936.0</ele><time>2026-04-04T07:54:20.999Z</time></trkpt><trkpt lat="43.134547967157374" lon="12.977451030549846"><ele>933.6666666666666</ele><time>2026-04-04T07:54:22Z</time></trkpt><trkpt lat="43.134567800497955" lon="12.977360235174448"><ele>931.3333333333333</ele><time>2026-04-04T07:54:23Z</time></trkpt><trkpt lat="43.13459747914598" lon="12.977283219107834"><ele>929.0</ele><time>2026-04-04T07:54:24Z</time></trkpt><trkpt lat="43.1346251617426" lon="12.97715353033426"><ele>926.6666666666666</ele><time>2026-04-04T07:54:26Z</time></trkpt><trkpt lat="43.1346306212363" lon="12.977007429354275"><ele>924.3333333333333</ele><time>2026-04-04T07:54:28Z</time></trkpt><trkpt lat="43.134633206797" lon="12.97688935612127"><ele>922.0</ele><time>2026-04-04T07:54:30Z</time></trkpt><trkpt lat="43.13463217617282" lon="12.976802934012527"><ele>921.9999999999999</ele><time>2026-04-04T07:54:33Z</time></trkpt><trkpt lat="43.13464510690133" lon="12.97669023501786"><ele>922.0</ele><time>2026-04-04T07:54:57Z</time></trkpt><trkpt lat="43.134685267348466" lon="12.976606142568718"><ele>922.0</ele><time>2026-04-04T07:55:00Z</time></trkpt><trkpt lat="43.134746000351946" lon="12.97656108368514"><ele>922.0</ele><time>2026-04-04T07:55:02Z</time></trkpt><trkpt lat="43.13481778665464" lon="12.976552326026749"><ele>921.9999999999999</ele><time>2026-04-04T07:55:03Z</time></trkpt><trkpt lat="43.13488406973066" lon="12.976525842882364"><ele>922.0</ele><time>2026-04-04T07:55:04Z</time></trkpt><trkpt lat="43.1349810888944" lon="12.97647490392719"><ele>919.6666666666666</ele><time>2026-04-04T07:55:06Z</time></trkpt><trkpt lat="43.135048088449416" lon="12.97644910507694"><ele>917.3333333333333</ele><time>2026-04-04T07:55:07Z</time></trkpt><trkpt lat="43.135122922485294" lon="12.976463760659533"><ele>915.0</ele><time>2026-04-04T07:55:08Z</time></trkpt><trkpt lat="43.135220182252205" lon="12.976482649055582"><ele>912.6666666666667</ele><time>2026-04-04T07:55:09Z</time></trkpt><trkpt lat="43.13531094624992" lon="12.976506805363728"><ele>910.3333333333334</ele><time>2026-04-04T07:55:10Z</time></trkpt><trkpt lat="43.135393833160656" lon="12.976503397338721"><ele>908.0</ele><time>2026-04-04T07:55:11Z</time></trkpt><trkpt lat="43.13548945641898" lon="12.97647842257434"><ele>908.0000000000001</ele><time>2026-04-04T07:55:12Z</time></trkpt><trkpt lat="43.13557102259924" lon="12.976463250609928"><ele>908.0</ele><time>2026-04-04T07:55:13Z</time></trkpt><trkpt lat="43.13565209440309" lon="12.976451942752153"><ele>908.0</ele><time>2026-04-04T07:55:14Z</time></trkpt><trkpt lat="43.13572013381894" lon="12.976446036219453"><ele>908.0</ele><time>2026-04-04T07:55:15Z</time></trkpt><trkpt lat="43.1357822571043" lon="12.97639749226979"><ele>908.0000000000001</ele><time>2026-04-04T07:55:16Z</time></trkpt><trkpt lat="43.13584627111236" lon="12.97634790559756"><ele>908.0</ele><time>2026-04-04T07:55:17Z</time></trkpt><trkpt lat="43.13596982651705" lon="12.976370463097153"><ele>902.8</ele><time>2026-04-04T07:55:19Z</time></trkpt><trkpt lat="43.136057405397025" lon="12.976418618897782"><ele>897.5999999999999</ele><time>2026-04-04T07:55:20Z</time></trkpt><trkpt lat="43.13613033550629" lon="12.976445901696016"><ele>892.4000000000001</ele><time>2026-04-04T07:55:21Z</time></trkpt><trkpt lat="43.13618580581104" lon="12.976497241513071"><ele>887.2</ele><time>2026-04-04T07:55:22Z</time></trkpt><trkpt lat="43.13625410058796" lon="12.976674622611636"><ele>882.0</ele><time>2026-04-04T07:55:24Z</time></trkpt><trkpt lat="43.13629639006393" lon="12.976782156051245"><ele>882.0</ele><time>2026-04-04T07:55:25Z</time></trkpt><trkpt lat="43.1363564856268" lon="12.976899549020029"><ele>882.0</ele><time>2026-04-04T07:55:27Z</time></trkpt><trkpt lat="43.13639954824427" lon="12.976990262952665"><ele>882.0</ele><time>2026-04-04T07:55:30Z</time></trkpt><trkpt lat="43.13647521708457" lon="12.97701979698972"><ele>882.0</ele><time>2026-04-04T07:55:32Z</time></trkpt><trkpt lat="43.13648566048085" lon="12.97692116929559"><ele>882.0</ele><time>2026-04-04T07:55:34Z</time></trkpt><trkpt lat="43.136513709314215" lon="12.976822102590399"><ele>882.0</ele><time>2026-04-04T07:55:37Z</time></trkpt><trkpt lat="43.136534647594054" lon="12.976735819225981"><ele>875.2</ele><time>2026-04-04T07:55:39Z</time></trkpt><trkpt lat="43.13660070008565" lon="12.976783087430205"><ele>868.4000000000001</ele><time>2026-04-04T07:55:41Z</time></trkpt><trkpt lat="43.136685546934686" lon="12.976885818141204"><ele>861.5999999999999</ele><time>2026-04-04T07:55:42Z</time></trkpt><trkpt lat="43.13675378901311" lon="12.976995640010854"><ele>854.8</ele><time>2026-04-04T07:55:43Z</time></trkpt><trkpt lat="43.136793445434904" lon="12.977153367731468"><ele>848.0</ele><time>2026-04-04T07:55:45Z</time></trkpt><trkpt lat="43.13680184741401" lon="12.97725784843329"><ele>848.0</ele><time>2026-04-04T07:55:46Z</time></trkpt><trkpt lat="43.136821391775946" lon="12.977359873332226"><ele>848.0</ele><time>2026-04-04T07:55:47Z</time></trkpt><trkpt lat="43.13686073106278" lon="12.977487808170608"><ele>848.0</ele><time>2026-04-04T07:55:49Z</time></trkpt><trkpt lat="43.13695967413297" lon="12.977474264674957"><ele>848.0</ele><time>2026-04-04T07:55:50Z</time></trkpt><trkpt lat="43.13702463960679" lon="12.977407640616404"><ele>848.0</ele><time>2026-04-04T07:55:51Z</time></trkpt><trkpt lat="43.137129642763284" lon="12.977392223407575"><ele>848.0</ele><time>2026-04-04T07:55:52Z</time></trkpt><trkpt lat="43.137228383245734" lon="12.977408350866789"><ele>848.0</ele><time>2026-04-04T07:55:53Z</time></trkpt><trkpt lat="43.13731324619829" lon="12.977442716408506"><ele>848.0</ele><time>2026-04-04T07:55:54Z</time></trkpt><trkpt lat="43.13740441118149" lon="12.977467754501752"><ele>848.0</ele><time>2026-04-04T07:55:54.999Z</time></trkpt><trkpt lat="43.13749503049379" lon="12.97748358204466"><ele>848.0</ele><time>2026-04-04T07:55:55.999Z</time></trkpt><trkpt lat="43.13758277717129" lon="12.97755005999474"><ele>849.2</ele><time>2026-04-04T07:55:56.999Z</time></trkpt><trkpt lat="43.137653059020444" lon="12.977657680983558"><ele>850.4</ele><time>2026-04-04T07:55:58.999Z</time></trkpt><trkpt lat="43.13774264805763" lon="12.97768764059456"><ele>851.6000000000001</ele><time>2026-04-04T07:56:00.999Z</time></trkpt><trkpt lat="43.13783055016062" lon="12.977672507321897"><ele>852.8000000000001</ele><time>2026-04-04T07:56:01.999Z</time></trkpt><trkpt lat="43.1379224817913" lon="12.977645068950565"><ele>854.0</ele><time>2026-04-04T07:56:02.999Z</time></trkpt><trkpt lat="43.13799136261391" lon="12.977656871683402"><ele>854.0</ele><time>2026-04-04T07:56:03.999Z</time></trkpt><trkpt lat="43.13804413284931" lon="12.977720640395518"><ele>854.0000000000001</ele><time>2026-04-04T07:56:04.999Z</time></trkpt><trkpt lat="43.13808752460109" lon="12.97779580251868"><ele>854.0000000000001</ele><time>2026-04-04T07:56:05.999Z</time></trkpt><trkpt lat="43.13812416060577" lon="12.977916230597973"><ele>854.0</ele><time>2026-04-04T07:56:06.999Z</time></trkpt><trkpt lat="43.13818075687264" lon="12.978052396025546"><ele>854.0</ele><time>2026-04-04T07:56:07.999Z</time></trkpt><trkpt lat="43.1382471606762" lon="12.97815698044582"><ele>852.2</ele><time>2026-04-04T07:56:08.999Z</time></trkpt><trkpt lat="43.138309587096686" lon="12.978275399887984"><ele>850.4000000000001</ele><time>2026-04-04T07:56:09.999Z</time></trkpt><trkpt lat="43.138367155972894" lon="12.978361008482743"><ele>848.6</ele><time>2026-04-04T07:56:10.999Z</time></trkpt><trkpt lat="43.13843852296879" lon="12.978432957257272"><ele>846.8</ele><time>2026-04-04T07:56:11.999Z</time></trkpt><trkpt lat="43.13853160766439" lon="12.97848842374155"><ele>845.0</ele><time>2026-04-04T07:56:12.999Z</time></trkpt><trkpt lat="43.13862096749853" lon="12.9785355260056"><ele>845.0</ele><time>2026-04-04T07:56:13.999Z</time></trkpt><trkpt lat="43.13869133880363" lon="12.978555159982617"><ele>845.0</ele><time>2026-04-04T07:56:14.999Z</time></trkpt><trkpt lat="43.13877227380896" lon="12.978536791526876"><ele>845.0</ele><time>2026-04-04T07:56:15.999Z</time></trkpt><trkpt lat="43.138884610456806" lon="12.978506442990518"><ele>845.0</ele><time>2026-04-04T07:56:16.999Z</time></trkpt><trkpt lat="43.13898496408977" lon="12.97844727413634"><ele>845.0</ele><time>2026-04-04T07:56:17.999Z</time></trkpt><trkpt lat="43.13909503008385" lon="12.978381579607232"><ele>830.6</ele><time>2026-04-04T07:56:18.999Z</time></trkpt><trkpt lat="43.139200352052015" lon="12.978299500713517"><ele>816.2</ele><time>2026-04-04T07:56:19.999Z</time></trkpt><trkpt lat="43.13930221727163" lon="12.978222499031622"><ele>801.8</ele><time>2026-04-04T07:56:20.999Z</time></trkpt><trkpt lat="43.1393918460111" lon="12.978158879918237"><ele>787.4</ele><time>2026-04-04T07:56:21.999Z</time></trkpt><trkpt lat="43.139484970602425" lon="12.97812469516855"><ele>773.0</ele><time>2026-04-04T07:56:22.999Z</time></trkpt><trkpt lat="43.139589414638564" lon="12.978100066954926"><ele>773.0</ele><time>2026-04-04T07:56:23.999Z</time></trkpt><trkpt lat="43.139687059439396" lon="12.97806415794153"><ele>773.0</ele><time>2026-04-04T07:56:24.999Z</time></trkpt><trkpt lat="43.139774197464504" lon="12.978005352501597"><ele>773.0</ele><time>2026-04-04T07:56:25.999Z</time></trkpt><trkpt lat="43.13984532129842" lon="12.977933670573433"><ele>773.0</ele><time>2026-04-04T07:56:27Z</time></trkpt><trkpt lat="43.139913615325206" lon="12.977865781450673"><ele>773.0</ele><time>2026-04-04T07:56:28Z</time></trkpt><trkpt lat="43.1399817500817" lon="12.977809977555307"><ele>771.5000000000001</ele><time>2026-04-04T07:56:29Z</time></trkpt><trkpt lat="43.140042398618974" lon="12.977753039257664"><ele>770.0</ele><time>2026-04-04T07:56:30Z</time></trkpt><trkpt lat="43.14011132569464" lon="12.97771140509094"><ele>768.5</ele><time>2026-04-04T07:56:31Z</time></trkpt><trkpt lat="43.14017779940609" lon="12.977710498161596"><ele>767.0</ele><time>2026-04-04T07:56:32Z</time></trkpt><trkpt lat="43.14023964512353" lon="12.977737426712144"><ele>765.5</ele><time>2026-04-04T07:56:33Z</time></trkpt><trkpt lat="43.140311364850184" lon="12.977755322025034"><ele>764.0</ele><time>2026-04-04T07:56:34Z</time></trkpt><trkpt lat="43.14040717703185" lon="12.977794320702163"><ele>764.0</ele><time>2026-04-04T07:56:35Z</time></trkpt><trkpt lat="43.14051066605982" lon="12.97781731682834"><ele>764.0</ele><time>2026-04-04T07:56:36Z</time></trkpt><trkpt lat="43.140568712895444" lon="12.977770498514767"><ele>764.0</ele><time>2026-04-04T07:56:37Z</time></trkpt><trkpt lat="43.140663887025724" lon="12.9776638035681"><ele>764.0</ele><time>2026-04-04T07:56:38Z</time></trkpt><trkpt lat="43.140737169369636" lon="12.97757450035559"><ele>764.0</ele><time>2026-04-04T07:56:39Z</time></trkpt><trkpt lat="43.14080631891836" lon="12.977574382607118"><ele>759.5</ele><time>2026-04-04T07:56:40Z</time></trkpt><trkpt lat="43.140868340677166" lon="12.977521374465605"><ele>755.0</ele><time>2026-04-04T07:56:41Z</time></trkpt><trkpt lat="43.14094580974372" lon="12.97750606102552"><ele>750.5</ele><time>2026-04-04T07:56:42Z</time></trkpt><trkpt lat="43.141023814370406" lon="12.9775009357589"><ele>746.0</ele><time>2026-04-04T07:56:43Z</time></trkpt><trkpt lat="43.141108584985844" lon="12.977489521609042"><ele>741.5</ele><time>2026-04-04T07:56:44Z</time></trkpt><trkpt lat="43.1411926451195" lon="12.977508153068134"><ele>737.0</ele><time>2026-04-04T07:56:45Z</time></trkpt><trkpt lat="43.141273625560636" lon="12.977533104708918"><ele>737.0</ele><time>2026-04-04T07:56:46Z</time></trkpt><trkpt lat="43.14135541862811" lon="12.977548934100609"><ele>737.0</ele><time>2026-04-04T07:56:47Z</time></trkpt><trkpt lat="43.14142527129096" lon="12.977571990244135"><ele>737.0</ele><time>2026-04-04T07:56:48Z</time></trkpt><trkpt lat="43.141542661731734" lon="12.977588458451796"><ele>737.0</ele><time>2026-04-04T07:56:50Z</time></trkpt><trkpt lat="43.14159704093661" lon="12.977536889754305"><ele>737.0</ele><time>2026-04-04T07:56:51Z</time></trkpt><trkpt lat="43.14164820773972" lon="12.9774830972625"><ele>737.0</ele><time>2026-04-04T07:56:52Z</time></trkpt><trkpt lat="43.1417220276032" lon="12.97749711896952"><ele>729.8</ele><time>2026-04-04T07:56:54Z</time></trkpt><trkpt lat="43.141771468717664" lon="12.977647621771562"><ele>722.6</ele><time>2026-04-04T07:56:56Z</time></trkpt><trkpt lat="43.141789946279296" lon="12.97778267843208"><ele>715.4</ele><time>2026-04-04T07:56:57Z</time></trkpt><trkpt lat="43.14184404659607" lon="12.977878838628468"><ele>708.1999999999999</ele><time>2026-04-04T07:56:58Z</time></trkpt><trkpt lat="43.141892691899216" lon="12.977967381248325"><ele>701.0</ele><time>2026-04-04T07:56:59Z</time></trkpt><trkpt lat="43.14189413909924" lon="12.978108265269961"><ele>701.0</ele><time>2026-04-04T07:57:01Z</time></trkpt><trkpt lat="43.14191734342486" lon="12.978201747208557"><ele>701.0</ele><time>2026-04-04T07:57:02Z</time></trkpt><trkpt lat="43.141980287803456" lon="12.97823924529032"><ele>701.0</ele><time>2026-04-04T07:57:04Z</time></trkpt><trkpt lat="43.14204451834632" lon="12.978183061877461"><ele>701.0</ele><time>2026-04-04T07:57:06Z</time></trkpt><trkpt lat="43.142094723009166" lon="12.978097546453778"><ele>701.0</ele><time>2026-04-04T07:57:15Z</time></trkpt><trkpt lat="43.14214675220897" lon="12.97802801863296"><ele>701.0</ele><time>2026-04-04T07:57:17Z</time></trkpt><trkpt lat="43.14222276048248" lon="12.977901513478749"><ele>701.0</ele><time>2026-04-04T07:57:19Z</time></trkpt><trkpt lat="43.14227766432654" lon="12.977824704354958"><ele>701.0</ele><time>2026-04-04T07:57:20Z</time></trkpt><trkpt lat="43.142343363547155" lon="12.977759094986954"><ele>701.0</ele><time>2026-04-04T07:57:21Z</time></trkpt><trkpt lat="43.14239845698399" lon="12.977691439773782"><ele>701.0</ele><time>2026-04-04T07:57:22Z</time></trkpt><trkpt lat="43.14244975958694" lon="12.977593734569705"><ele>701.0</ele><time>2026-04-04T07:57:23Z</time></trkpt><trkpt lat="43.1424726445559" lon="12.977487199626552"><ele>701.0</ele><time>2026-04-04T07:57:24Z</time></trkpt><trkpt lat="43.14252451949357" lon="12.97737912804756"><ele>693.4</ele><time>2026-04-04T07:57:25Z</time></trkpt><trkpt lat="43.142583645792" lon="12.97729610239868"><ele>685.8</ele><time>2026-04-04T07:57:26Z</time></trkpt><trkpt lat="43.14264317558927" lon="12.977202419156766"><ele>678.1999999999999</ele><time>2026-04-04T07:57:27Z</time></trkpt><trkpt lat="43.14268762177342" lon="12.977108867267317"><ele>670.5999999999999</ele><time>2026-04-04T07:57:28Z</time></trkpt><trkpt lat="43.142711116333686" lon="12.97694821646427"><ele>663.0</ele><time>2026-04-04T07:57:29Z</time></trkpt><trkpt lat="43.14274195185103" lon="12.976808331846257"><ele>658.8</ele><time>2026-04-04T07:57:30Z</time></trkpt><trkpt lat="43.142774761376025" lon="12.976665064605335"><ele>654.5999999999999</ele><time>2026-04-04T07:57:31Z</time></trkpt><trkpt lat="43.142818785616726" lon="12.976531883282247"><ele>650.4000000000001</ele><time>2026-04-04T07:57:32Z</time></trkpt><trkpt lat="43.14287162717539" lon="12.976391429215443"><ele>646.2</ele><time>2026-04-04T07:57:33Z</time></trkpt><trkpt lat="43.142917541174285" lon="12.976253606284438"><ele>642.0</ele><time>2026-04-04T07:57:34Z</time></trkpt><trkpt lat="43.14295830180331" lon="12.976110203833976"><ele>642.0</ele><time>2026-04-04T07:57:35Z</time></trkpt><trkpt lat="43.142991015843336" lon="12.975962250001174"><ele>642.0</ele><time>2026-04-04T07:57:36Z</time></trkpt><trkpt lat="43.14301359693194" lon="12.975841224148105"><ele>642.0</ele><time>2026-04-04T07:57:37Z</time></trkpt><trkpt lat="43.14303928590922" lon="12.975735188098117"><ele>642.0</ele><time>2026-04-04T07:57:38Z</time></trkpt><trkpt lat="43.1430573812602" lon="12.975630812126951"><ele>642.0</ele><time>2026-04-04T07:57:39Z</time></trkpt><trkpt lat="43.14307635599248" lon="12.975523217313246"><ele>642.0</ele><time>2026-04-04T07:57:40Z</time></trkpt><trkpt lat="43.14308793698508" lon="12.97542996223469"><ele>638.0</ele><time>2026-04-04T07:57:41Z</time></trkpt><trkpt lat="43.14310663232659" lon="12.975296336786839"><ele>634.0</ele><time>2026-04-04T07:57:43Z</time></trkpt><trkpt lat="43.14314818439313" lon="12.975198277269431"><ele>630.0</ele><time>2026-04-04T07:57:45Z</time></trkpt><trkpt lat="43.14315315984037" lon="12.975076667854507"><ele>626.0</ele><time>2026-04-04T07:57:47Z</time></trkpt><trkpt lat="43.1431419872521" lon="12.9749560125311"><ele>622.0</ele><time>2026-04-04T07:57:49Z</time></trkpt><trkpt lat="43.14321068043591" lon="12.974849410652409"><ele>618.5</ele><time>2026-04-04T07:57:52Z</time></trkpt><trkpt lat="43.14334124023318" lon="12.974808068148427"><ele>615.0</ele><time>2026-04-04T07:57:54Z</time></trkpt><trkpt lat="43.143415824095804" lon="12.974796826893837"><ele>611.5</ele><time>2026-04-04T07:57:55Z</time></trkpt><trkpt lat="43.14348727061993" lon="12.974783965477815"><ele>608.0</ele><time>2026-04-04T07:57:55.999Z</time></trkpt><trkpt lat="43.14355899195526" lon="12.974763314127099"><ele>604.5</ele><time>2026-04-04T07:57:56.999Z</time></trkpt><trkpt lat="43.143633155427096" lon="12.974743850387942"><ele>601.0</ele><time>2026-04-04T07:57:57.999Z</time></trkpt><trkpt lat="43.143708736735526" lon="12.974711735497925"><ele>601.0</ele><time>2026-04-04T07:57:58.999Z</time></trkpt><trkpt lat="43.14377254171104" lon="12.97464562672665"><ele>601.0</ele><time>2026-04-04T07:57:59.999Z</time></trkpt><trkpt lat="43.143812574952584" lon="12.974556056359036"><ele>601.0</ele><time>2026-04-04T07:58:00.999Z</time></trkpt><trkpt lat="43.14381450446288" lon="12.97444353450762"><ele>601.0</ele><time>2026-04-04T07:58:01.999Z</time></trkpt><trkpt lat="43.14379528057048" lon="12.974330503869043"><ele>601.0</ele><time>2026-04-04T07:58:02.999Z</time></trkpt><trkpt lat="43.143756010606815" lon="12.974212142363864"><ele>601.0</ele><time>2026-04-04T07:58:03.999Z</time></trkpt><trkpt lat="43.143716562045675" lon="12.974096636761645"><ele>598.2</ele><time>2026-04-04T07:58:04.999Z</time></trkpt><trkpt lat="43.14368245791682" lon="12.973978163125075"><ele>595.4000000000001</ele><time>2026-04-04T07:58:05.999Z</time></trkpt><trkpt lat="43.14364000520193" lon="12.973868807546944"><ele>592.6</ele><time>2026-04-04T07:58:06.999Z</time></trkpt><trkpt lat="43.14357367819823" lon="12.973780818486858"><ele>589.8000000000001</ele><time>2026-04-04T07:58:07.999Z</time></trkpt><trkpt lat="43.14349158779509" lon="12.973720856641041"><ele>587.0</ele><time>2026-04-04T07:58:08.999Z</time></trkpt><trkpt lat="43.14341222222057" lon="12.973674010778975"><ele>587.0</ele><time>2026-04-04T07:58:09.999Z</time></trkpt><trkpt lat="43.143339065715686" lon="12.97361371829391"><ele>587.0</ele><time>2026-04-04T07:58:10.999Z</time></trkpt><trkpt lat="43.14328099840905" lon="12.973533125858303"><ele>587.0</ele><time>2026-04-04T07:58:11.999Z</time></trkpt><trkpt lat="43.14322569011725" lon="12.973450924048436"><ele>587.0</ele><time>2026-04-04T07:58:12.999Z</time></trkpt><trkpt lat="43.143163110424666" lon="12.973364362293665"><ele>587.0</ele><time>2026-04-04T07:58:13.999Z</time></trkpt><trkpt lat="43.14309513477416" lon="12.973272604114815"><ele>587.0</ele><time>2026-04-04T07:58:14.999Z</time></trkpt><trkpt lat="43.14302599402541" lon="12.973187390394601"><ele>584.6666666666666</ele><time>2026-04-04T07:58:15.999Z</time></trkpt><trkpt lat="43.14295221228133" lon="12.973109954196502"><ele>582.3333333333333</ele><time>2026-04-04T07:58:16.999Z</time></trkpt><trkpt lat="43.14287416180479" lon="12.973047888605764"><ele>580.0</ele><time>2026-04-04T07:58:17.999Z</time></trkpt><trkpt lat="43.14280506744272" lon="12.973002935838979"><ele>577.6666666666666</ele><time>2026-04-04T07:58:18.999Z</time></trkpt><trkpt lat="43.1427450763614" lon="12.97297242993676"><ele>575.3333333333334</ele><time>2026-04-04T07:58:19.999Z</time></trkpt><trkpt lat="43.14266305382177" lon="12.972941845717783"><ele>573.0</ele><time>2026-04-04T07:58:21.999Z</time></trkpt><trkpt lat="43.14257569742838" lon="12.972959085305527"><ele>573.0</ele><time>2026-04-04T07:58:23.999Z</time></trkpt><trkpt lat="43.142499269120634" lon="12.972985162114812"><ele>573.0</ele><time>2026-04-04T07:58:24.999Z</time></trkpt><trkpt lat="43.14241345915476" lon="12.973052019616734"><ele>573.0</ele><time>2026-04-04T07:58:25.999Z</time></trkpt><trkpt lat="43.14231174566974" lon="12.97311393202414"><ele>573.0</ele><time>2026-04-04T07:58:26.999Z</time></trkpt><trkpt lat="43.14219436610062" lon="12.973147889191074"><ele>573.0</ele><time>2026-04-04T07:58:27.999Z</time></trkpt><trkpt lat="43.1420616209256" lon="12.973170303139515"><ele>573.25</ele><time>2026-04-04T07:58:28.999Z</time></trkpt><trkpt lat="43.14192557768018" lon="12.973195421842075"><ele>573.5</ele><time>2026-04-04T07:58:29.999Z</time></trkpt><trkpt lat="43.14179229889349" lon="12.973218708178706"><ele>573.75</ele><time>2026-04-04T07:58:30.999Z</time></trkpt><trkpt lat="43.14165563720782" lon="12.973214162920867"><ele>574.0</ele><time>2026-04-04T07:58:31.999Z</time></trkpt><trkpt lat="43.14151674485632" lon="12.97316539510497"><ele>578.0</ele><time>2026-04-04T07:58:33Z</time></trkpt><trkpt lat="43.14138233319643" lon="12.97308379476977"><ele>582.0</ele><time>2026-04-04T07:58:34Z</time></trkpt><trkpt lat="43.141252363293425" lon="12.972992509359587"><ele>586.0</ele><time>2026-04-04T07:58:35Z</time></trkpt><trkpt lat="43.1411408523011" lon="12.972912910703796"><ele>590.0</ele><time>2026-04-04T07:58:36Z</time></trkpt><trkpt lat="43.14104213824436" lon="12.972857709605096"><ele>590.0</ele><time>2026-04-04T07:58:37Z</time></trkpt><trkpt lat="43.140941982985595" lon="12.972829057267335"><ele>590.0</ele><time>2026-04-04T07:58:38Z</time></trkpt><trkpt lat="43.14083882979359" lon="12.97279225958009"><ele>590.0</ele><time>2026-04-04T07:58:39Z</time></trkpt><trkpt lat="43.140717585508824" lon="12.972749693585769"><ele>590.0</ele><time>2026-04-04T07:58:40Z</time></trkpt><trkpt lat="43.14059869203614" lon="12.972702848636462"><ele>592.75</ele><time>2026-04-04T07:58:41Z</time></trkpt><trkpt lat="43.14048636974819" lon="12.972642454372464"><ele>595.5</ele><time>2026-04-04T07:58:42Z</time></trkpt><trkpt lat="43.14038741446756" lon="12.97254032932477"><ele>598.25</ele><time>2026-04-04T07:58:43Z</time></trkpt><trkpt lat="43.14030476618596" lon="12.972400777802058"><ele>601.0</ele><time>2026-04-04T07:58:44Z</time></trkpt><trkpt lat="43.14021731358265" lon="12.97225036016446"><ele>601.0</ele><time>2026-04-04T07:58:45Z</time></trkpt><trkpt lat="43.14012429166646" lon="12.972107225322395"><ele>601.0</ele><time>2026-04-04T07:58:46Z</time></trkpt><trkpt lat="43.140028479396406" lon="12.971961840490858"><ele>601.0</ele><time>2026-04-04T07:58:47Z</time></trkpt><trkpt lat="43.13992955239739" lon="12.971818050585135"><ele>601.0</ele><time>2026-04-04T07:58:48Z</time></trkpt><trkpt lat="43.13983299580153" lon="12.971683195416071"><ele>602.75</ele><time>2026-04-04T07:58:49Z</time></trkpt><trkpt lat="43.13974187794684" lon="12.971552132306556"><ele>604.5</ele><time>2026-04-04T07:58:50Z</time></trkpt><trkpt lat="43.13965414287248" lon="12.971423508594265"><ele>606.25</ele><time>2026-04-04T07:58:51Z</time></trkpt><trkpt lat="43.13956587881969" lon="12.971293240407558"><ele>608.0</ele><time>2026-04-04T07:58:52Z</time></trkpt><trkpt lat="43.13947508722752" lon="12.971175883279018"><ele>608.0</ele><time>2026-04-04T07:58:53Z</time></trkpt><trkpt lat="43.13938178781569" lon="12.971085126159185"><ele>608.0</ele><time>2026-04-04T07:58:54Z</time></trkpt><trkpt lat="43.139294059442896" lon="12.971035159760874"><ele>608.0</ele><time>2026-04-04T07:58:55Z</time></trkpt><trkpt lat="43.139214412753105" lon="12.971007258645576"><ele>608.0</ele><time>2026-04-04T07:58:56Z</time></trkpt><trkpt lat="43.1391472790758" lon="12.970980270804557"><ele>608.0</ele><time>2026-04-04T07:58:57Z</time></trkpt><trkpt lat="43.139040588414154" lon="12.970936575982002"><ele>608.8333333333333</ele><time>2026-04-04T07:58:59Z</time></trkpt><trkpt lat="43.13893112111112" lon="12.970898621044888"><ele>609.6666666666666</ele><time>2026-04-04T07:59:01Z</time></trkpt><trkpt lat="43.138855026210386" lon="12.97088795647438"><ele>610.5</ele><time>2026-04-04T07:59:02Z</time></trkpt><trkpt lat="43.1387752431354" lon="12.97087975590199"><ele>611.3333333333334</ele><time>2026-04-04T07:59:03Z</time></trkpt><trkpt lat="43.138695774213296" lon="12.97084739311917"><ele>612.1666666666667</ele><time>2026-04-04T07:59:04Z</time></trkpt><trkpt lat="43.138640672866636" lon="12.970791132184594"><ele>613.0</ele><time>2026-04-04T07:59:05Z</time></trkpt><trkpt lat="43.138521401868594" lon="12.970778235268762"><ele>613.0</ele><time>2026-04-04T07:59:07Z</time></trkpt><trkpt lat="43.13844997130775" lon="12.970812094911667"><ele>613.0</ele><time>2026-04-04T07:59:08Z</time></trkpt><trkpt lat="43.13837339353706" lon="12.970795175761136"><ele>613.0</ele><time>2026-04-04T07:59:09Z</time></trkpt><trkpt lat="43.13830001342541" lon="12.970765784190961"><ele>613.0</ele><time>2026-04-04T07:59:10Z</time></trkpt><trkpt lat="43.13822365218968" lon="12.970743592839804"><ele>613.0</ele><time>2026-04-04T07:59:11Z</time></trkpt><trkpt lat="43.13815452394851" lon="12.970712693132702"><ele>613.0</ele><time>2026-04-04T07:59:12Z</time></trkpt><trkpt lat="43.138086205105346" lon="12.970687748218225"><ele>617.6666666666667</ele><time>2026-04-04T07:59:13Z</time></trkpt><trkpt lat="43.13802407370838" lon="12.970663381799133"><ele>622.3333333333334</ele><time>2026-04-04T07:59:14Z</time></trkpt><trkpt lat="43.13794855086856" lon="12.970626093607084"><ele>627.0</ele><time>2026-04-04T07:59:15Z</time></trkpt><trkpt lat="43.13786305318816" lon="12.970590255310766"><ele>631.6666666666666</ele><time>2026-04-04T07:59:16Z</time></trkpt><trkpt lat="43.1377887193679" lon="12.970566297705899"><ele>636.3333333333333</ele><time>2026-04-04T07:59:17Z</time></trkpt><trkpt lat="43.13769400699213" lon="12.970441964296931"><ele>641.0</ele><time>2026-04-04T07:59:19Z</time></trkpt><trkpt lat="43.13764392718537" lon="12.97037839952945"><ele>641.0</ele><time>2026-04-04T07:59:20Z</time></trkpt><trkpt lat="43.13758747969309" lon="12.970306035071776"><ele>641.0</ele><time>2026-04-04T07:59:21Z</time></trkpt><trkpt lat="43.13753409513397" lon="12.970234220798101"><ele>641.0</ele><time>2026-04-04T07:59:22Z</time></trkpt><trkpt lat="43.13748710728059" lon="12.970162170908399"><ele>641.0</ele><time>2026-04-04T07:59:23Z</time></trkpt><trkpt lat="43.13739226486821" lon="12.970087477928129"><ele>641.0</ele><time>2026-04-04T07:59:25Z</time></trkpt><trkpt lat="43.137309387901404" lon="12.970016412235331"><ele>641.0</ele><time>2026-04-04T07:59:27Z</time></trkpt><trkpt lat="43.137203396546774" lon="12.969931689985787"><ele>649.5999999999999</ele><time>2026-04-04T07:59:29Z</time></trkpt><trkpt lat="43.137167851387254" lon="12.969854732059687"><ele>658.2</ele><time>2026-04-04T07:59:30Z</time></trkpt><trkpt lat="43.137128934092296" lon="12.969706779792347"><ele>666.8</ele><time>2026-04-04T07:59:32Z</time></trkpt><trkpt lat="43.137055160969425" lon="12.969591768199106"><ele>675.4000000000001</ele><time>2026-04-04T07:59:34Z</time></trkpt><trkpt lat="43.13700754717948" lon="12.969513524180128"><ele>684.0</ele><time>2026-04-04T07:59:35Z</time></trkpt><trkpt lat="43.13692421364797" lon="12.969455941780675"><ele>684.0</ele><time>2026-04-04T07:59:36Z</time></trkpt><trkpt lat="43.13686639770657" lon="12.969386427481572"><ele>684.0</ele><time>2026-04-04T07:59:37Z</time></trkpt><trkpt lat="43.13682900375753" lon="12.969300681858238"><ele>684.0</ele><time>2026-04-04T07:59:38Z</time></trkpt><trkpt lat="43.13678129258794" lon="12.969202032384091"><ele>684.0</ele><time>2026-04-04T07:59:39Z</time></trkpt><trkpt lat="43.13672691667584" lon="12.969137701115699"><ele>684.0</ele><time>2026-04-04T07:59:40Z</time></trkpt><trkpt lat="43.13665091044996" lon="12.96908586639693"><ele>684.0</ele><time>2026-04-04T07:59:41Z</time></trkpt><trkpt lat="43.13659216683197" lon="12.969034541072073"><ele>689.75</ele><time>2026-04-04T07:59:42Z</time></trkpt><trkpt lat="43.13648328462371" lon="12.968974383176079"><ele>695.5</ele><time>2026-04-04T07:59:44Z</time></trkpt><trkpt lat="43.13636740311933" lon="12.968902324678465"><ele>701.25</ele><time>2026-04-04T07:59:46Z</time></trkpt><trkpt lat="43.13625591169945" lon="12.968888470523371"><ele>707.0</ele><time>2026-04-04T07:59:48Z</time></trkpt><trkpt lat="43.136152575195794" lon="12.968862214158777"><ele>707.0</ele><time>2026-04-04T07:59:50Z</time></trkpt><trkpt lat="43.13604876321033" lon="12.968833542450492"><ele>707.0</ele><time>2026-04-04T07:59:52Z</time></trkpt><trkpt lat="43.13594056962299" lon="12.968812602243196"><ele>707.0</ele><time>2026-04-04T07:59:54Z</time></trkpt><trkpt lat="43.13587127886971" lon="12.968775079958732"><ele>707.0</ele><time>2026-04-04T07:59:55Z</time></trkpt><trkpt lat="43.13579064431479" lon="12.968769202237535"><ele>707.0</ele><time>2026-04-04T07:59:56Z</time></trkpt><trkpt lat="43.13571704736203" lon="12.968779348012935"><ele>707.0</ele><time>2026-04-04T07:59:57Z</time></trkpt><trkpt lat="43.13562742548813" lon="12.96879403041886"><ele>712.0</ele><time>2026-04-04T07:59:58Z</time></trkpt><trkpt lat="43.13555176517746" lon="12.968807579775497"><ele>717.0</ele><time>2026-04-04T07:59:59Z</time></trkpt><trkpt lat="43.13546029947791" lon="12.968804774202248"><ele>722.0</ele><time>2026-04-04T08:00:00Z</time></trkpt><trkpt lat="43.135373164316675" lon="12.96879219148253"><ele>727.0</ele><time>2026-04-04T08:00:01Z</time></trkpt><trkpt lat="43.13526138257703" lon="12.968754039712856"><ele>732.0</ele><time>2026-04-04T08:00:02Z</time></trkpt><trkpt lat="43.13515498400434" lon="12.96875650624647"><ele>732.0</ele><time>2026-04-04T08:00:03Z</time></trkpt><trkpt lat="43.1350512669827" lon="12.968755352226795"><ele>732.0</ele><time>2026-04-04T08:00:04Z</time></trkpt><trkpt lat="43.13495246478597" lon="12.968763561727751"><ele>732.0</ele><time>2026-04-04T08:00:05Z</time></trkpt><trkpt lat="43.134848093230005" lon="12.968776524652238"><ele>732.0</ele><time>2026-04-04T08:00:06Z</time></trkpt><trkpt lat="43.1347403743313" lon="12.968794362244271"><ele>732.0</ele><time>2026-04-04T08:00:07Z</time></trkpt><trkpt lat="43.134640761442455" lon="12.968795834736111"><ele>737.0</ele><time>2026-04-04T08:00:08Z</time></trkpt><trkpt lat="43.134538073454245" lon="12.968822209284962"><ele>742.0</ele><time>2026-04-04T08:00:09Z</time></trkpt><trkpt lat="43.13443043540525" lon="12.968831722329798"><ele>747.0</ele><time>2026-04-04T08:00:10Z</time></trkpt><trkpt lat="43.13433162320541" lon="12.968843357351723"><ele>752.0</ele><time>2026-04-04T08:00:10.999Z</time></trkpt><trkpt lat="43.13423812317518" lon="12.968882144177377"><ele>757.0</ele><time>2026-04-04T08:00:11.999Z</time></trkpt><trkpt lat="43.13413986512371" lon="12.968901512373368"><ele>762.8333333333334</ele><time>2026-04-04T08:00:12.999Z</time></trkpt><trkpt lat="43.134052002853274" lon="12.968920874479497"><ele>768.6666666666667</ele><time>2026-04-04T08:00:13.999Z</time></trkpt><trkpt lat="43.13397528951883" lon="12.968939204317014"><ele>774.5</ele><time>2026-04-04T08:00:14.999Z</time></trkpt><trkpt lat="43.133886221372165" lon="12.96897794154658"><ele>780.3333333333334</ele><time>2026-04-04T08:00:15.999Z</time></trkpt><trkpt lat="43.13380149824539" lon="12.969000569671863"><ele>786.1666666666666</ele><time>2026-04-04T08:00:16.999Z</time></trkpt><trkpt lat="43.133713547989885" lon="12.968994322314535"><ele>792.0</ele><time>2026-04-04T08:00:17.999Z</time></trkpt><trkpt lat="43.13364190149317" lon="12.968981980974103"><ele>792.0</ele><time>2026-04-04T08:00:18.999Z</time></trkpt><trkpt lat="43.13356765964856" lon="12.96898673026576"><ele>792.0</ele><time>2026-04-04T08:00:19.999Z</time></trkpt><trkpt lat="43.133478639264276" lon="12.968995978071723"><ele>792.0</ele><time>2026-04-04T08:00:20.999Z</time></trkpt><trkpt lat="43.13335695811908" lon="12.96895367744529"><ele>792.0</ele><time>2026-04-04T08:00:22.999Z</time></trkpt><trkpt lat="43.133290324323205" lon="12.968902711642263"><ele>792.0</ele><time>2026-04-04T08:00:23.999Z</time></trkpt><trkpt lat="43.13321562411048" lon="12.968856946201157"><ele>792.0</ele><time>2026-04-04T08:00:24.999Z</time></trkpt><trkpt lat="43.133173981710705" lon="12.968770670110123"><ele>799.6</ele><time>2026-04-04T08:00:27.999Z</time></trkpt><trkpt lat="43.13321177523001" lon="12.968676062587926"><ele>807.2</ele><time>2026-04-04T08:00:48.001Z</time></trkpt><trkpt lat="43.13317104961378" lon="12.968516145479539"><ele>814.8</ele><time>2026-04-04T08:00:50.001Z</time></trkpt><trkpt lat="43.13313243121918" lon="12.96842750491773"><ele>822.4</ele><time>2026-04-04T08:00:51Z</time></trkpt><trkpt lat="43.13308926240512" lon="12.968307835790666"><ele>830.0</ele><time>2026-04-04T08:00:52Z</time></trkpt><trkpt lat="43.133056718603385" lon="12.968185325412632"><ele>830.0</ele><time>2026-04-04T08:00:53Z</time></trkpt><trkpt lat="43.1330133342095" lon="12.968055193668693"><ele>830.0</ele><time>2026-04-04T08:00:53.999Z</time></trkpt><trkpt lat="43.13296669232995" lon="12.967932687680712"><ele>830.0</ele><time>2026-04-04T08:00:54.999Z</time></trkpt><trkpt lat="43.13291527189225" lon="12.96779624339354"><ele>830.0</ele><time>2026-04-04T08:00:55.999Z</time></trkpt><trkpt lat="43.13288989708534" lon="12.967681878920361"><ele>830.0</ele><time>2026-04-04T08:00:56.999Z</time></trkpt><trkpt lat="43.13289075804949" lon="12.96756889633225"><ele>828.2</ele><time>2026-04-04T08:00:57.999Z</time></trkpt><trkpt lat="43.132910832301086" lon="12.967429790588156"><ele>826.4</ele><time>2026-04-04T08:00:58.999Z</time></trkpt><trkpt lat="43.13294430362821" lon="12.967279114447527"><ele>824.5999999999999</ele><time>2026-04-04T08:00:59.999Z</time></trkpt><trkpt lat="43.132948505385606" lon="12.967142713070666"><ele>822.8</ele><time>2026-04-04T08:01:00.999Z</time></trkpt><trkpt lat="43.13295491049259" lon="12.966986933659122"><ele>821.0</ele><time>2026-04-04T08:01:01.999Z</time></trkpt><trkpt lat="43.132981835143966" lon="12.966835609218208"><ele>821.0</ele><time>2026-04-04T08:01:02.999Z</time></trkpt><trkpt lat="43.13300031633224" lon="12.966703435142007"><ele>821.0</ele><time>2026-04-04T08:01:03.999Z</time></trkpt><trkpt lat="43.13299974521448" lon="12.966587457181829"><ele>821.0</ele><time>2026-04-04T08:01:04.999Z</time></trkpt><trkpt lat="43.13298514670005" lon="12.96646402951458"><ele>821.0</ele><time>2026-04-04T08:01:05.999Z</time></trkpt><trkpt lat="43.132958732216885" lon="12.966330339578958"><ele>821.0</ele><time>2026-04-04T08:01:06.999Z</time></trkpt><trkpt lat="43.13294678402433" lon="12.966182908541684"><ele>820.8</ele><time>2026-04-04T08:01:07.999Z</time></trkpt><trkpt lat="43.13293033878723" lon="12.96602521365904"><ele>820.5999999999999</ele><time>2026-04-04T08:01:08.999Z</time></trkpt><trkpt lat="43.132910326260514" lon="12.965878755681196"><ele>820.4</ele><time>2026-04-04T08:01:09.999Z</time></trkpt><trkpt lat="43.132884673757765" lon="12.96576350312821"><ele>820.2</ele><time>2026-04-04T08:01:10.999Z</time></trkpt><trkpt lat="43.1328676232534" lon="12.965662248271752"><ele>820.0</ele><time>2026-04-04T08:01:11.999Z</time></trkpt><trkpt lat="43.13286645595117" lon="12.96557585294747"><ele>819.9999999999999</ele><time>2026-04-04T08:01:12.999Z</time></trkpt><trkpt lat="43.13280223115384" lon="12.96555795806802"><ele>820.0</ele><time>2026-04-04T08:01:16.999Z</time></trkpt><trkpt lat="43.132763149463294" lon="12.965645665994547"><ele>820.0</ele><time>2026-04-04T08:01:19.999Z</time></trkpt><trkpt lat="43.132727160388534" lon="12.965762737016336"><ele>820.0</ele><time>2026-04-04T08:01:21.999Z</time></trkpt><trkpt lat="43.1327024333472" lon="12.965846329840673"><ele>819.9999999999999</ele><time>2026-04-04T08:01:55.999Z</time></trkpt><trkpt lat="43.13264945837338" lon="12.966030283228887"><ele>820.0</ele><time>2026-04-04T08:01:57.999Z</time></trkpt><trkpt lat="43.13262348757897" lon="12.966157498695413"><ele>819.9999999999999</ele><time>2026-04-04T08:01:58.999Z</time></trkpt><trkpt lat="43.132593265109264" lon="12.966253724473779"><ele>820.0</ele><time>2026-04-04T08:01:59.999Z</time></trkpt><trkpt lat="43.132559272560435" lon="12.966337550938798"><ele>820.0</ele><time>2026-04-04T08:02:00.999Z</time></trkpt><trkpt lat="43.13253450163756" lon="12.966451887827724"><ele>820.0</ele><time>2026-04-04T08:02:01.999Z</time></trkpt><trkpt lat="43.132516696277094" lon="12.966592465364704"><ele>819.9999999999999</ele><time>2026-04-04T08:02:03.999Z</time></trkpt><trkpt lat="43.132497330031676" lon="12.966683546474032"><ele>820.0</ele><time>2026-04-04T08:02:04.999Z</time></trkpt><trkpt lat="43.13242043022251" lon="12.966770499783852"><ele>828.6</ele><time>2026-04-04T08:02:06.999Z</time></trkpt><trkpt lat="43.13227107628589" lon="12.966750498629308"><ele>837.2</ele><time>2026-04-04T08:02:46Z</time></trkpt><trkpt lat="43.132161946700606" lon="12.966769003910345"><ele>845.8</ele><time>2026-04-04T08:02:48Z</time></trkpt><trkpt lat="43.13207362420846" lon="12.966804355384793"><ele>854.4</ele><time>2026-04-04T08:02:50Z</time></trkpt><trkpt lat="43.13198425884943" lon="12.96680347594759"><ele>863.0</ele><time>2026-04-04T08:02:52Z</time></trkpt><trkpt lat="43.13190410077021" lon="12.966816491844098"><ele>863.0000000000001</ele><time>2026-04-04T08:02:54Z</time></trkpt><trkpt lat="43.13184809017617" lon="12.966891771311897"><ele>863.0</ele><time>2026-04-04T08:02:56Z</time></trkpt><trkpt lat="43.13178097935862" lon="12.966929129467784"><ele>863.0</ele><time>2026-04-04T08:02:58Z</time></trkpt><trkpt lat="43.131728272150596" lon="12.967010963601949"><ele>863.0</ele><time>2026-04-04T08:03:00Z</time></trkpt><trkpt lat="43.13170571845188" lon="12.967131933191718"><ele>863.0000000000001</ele><time>2026-04-04T08:03:02Z</time></trkpt><trkpt lat="43.131627142604565" lon="12.967190449092975"><ele>863.0</ele><time>2026-04-04T08:03:03.999Z</time></trkpt><trkpt lat="43.13155200658937" lon="12.967185039481599"><ele>868.0000000000001</ele><time>2026-04-04T08:03:05.999Z</time></trkpt><trkpt lat="43.1314928432379" lon="12.967257064123341"><ele>873.0</ele><time>2026-04-04T08:03:07.999Z</time></trkpt><trkpt lat="43.13141365301766" lon="12.967280303788478"><ele>878.0</ele><time>2026-04-04T08:03:09.999Z</time></trkpt><trkpt lat="43.131440829019354" lon="12.967394930029496"><ele>883.0</ele><time>2026-04-04T08:03:51.999Z</time></trkpt><trkpt lat="43.13146728382129" lon="12.967477654038872"><ele>888.0000000000001</ele><time>2026-04-04T08:03:52.999Z</time></trkpt><trkpt lat="43.131512708863994" lon="12.967618318231743"><ele>893.0</ele><time>2026-04-04T08:03:54.999Z</time></trkpt><trkpt lat="43.131508471272106" lon="12.967713842557586"><ele>890.6666666666667</ele><time>2026-04-04T08:03:55.999Z</time></trkpt><trkpt lat="43.13153851993891" lon="12.9678023948957"><ele>888.3333333333334</ele><time>2026-04-04T08:03:56.999Z</time></trkpt><trkpt lat="43.13156816703173" lon="12.96789200031782"><ele>886.0</ele><time>2026-04-04T08:03:57.999Z</time></trkpt><trkpt lat="43.131592636724754" lon="12.967989714357545"><ele>883.6666666666667</ele><time>2026-04-04T08:03:58.999Z</time></trkpt><trkpt lat="43.13160552220219" lon="12.968079868873826"><ele>881.3333333333334</ele><time>2026-04-04T08:03:59.999Z</time></trkpt><trkpt lat="43.131538133682476" lon="12.968150115278318"><ele>879.0</ele><time>2026-04-04T08:04:01.999Z</time></trkpt><trkpt lat="43.13149061642296" lon="12.968054703722244"><ele>882.5</ele><time>2026-04-04T08:04:02.999Z</time></trkpt><trkpt lat="43.13145076329557" lon="12.9679415856979"><ele>886.0</ele><time>2026-04-04T08:04:03.999Z</time></trkpt><trkpt lat="43.1314137016534" lon="12.967783651440236"><ele>889.5</ele><time>2026-04-04T08:04:04.999Z</time></trkpt><trkpt lat="43.131342011219374" lon="12.967645351979826"><ele>893.0</ele><time>2026-04-04T08:04:05.999Z</time></trkpt><trkpt lat="43.13123928403298" lon="12.96752142675996"><ele>893.0</ele><time>2026-04-04T08:04:06.999Z</time></trkpt><trkpt lat="43.13111901824698" lon="12.967417529606877"><ele>893.0</ele><time>2026-04-04T08:04:07.999Z</time></trkpt><trkpt lat="43.1309838755888" lon="12.967320027684925"><ele>893.0</ele><time>2026-04-04T08:04:08.999Z</time></trkpt><trkpt lat="43.13082858447956" lon="12.967252335670214"><ele>899.6666666666667</ele><time>2026-04-04T08:04:09.999Z</time></trkpt><trkpt lat="43.130672707792264" lon="12.967200079254674"><ele>906.3333333333333</ele><time>2026-04-04T08:04:10.999Z</time></trkpt><trkpt lat="43.13051417451298" lon="12.967145850378396"><ele>913.0</ele><time>2026-04-04T08:04:11.999Z</time></trkpt><trkpt lat="43.13035285313349" lon="12.967086838872321"><ele>913.0</ele><time>2026-04-04T08:04:12.999Z</time></trkpt><trkpt lat="43.13020140880869" lon="12.967024203873759"><ele>913.0</ele><time>2026-04-04T08:04:13.999Z</time></trkpt><trkpt lat="43.13005948698141" lon="12.966954328998655"><ele>913.0</ele><time>2026-04-04T08:04:14.999Z</time></trkpt><trkpt lat="43.12992205054838" lon="12.966881052596385"><ele>912.75</ele><time>2026-04-04T08:04:15.999Z</time></trkpt><trkpt lat="43.12980134247958" lon="12.966802613603516"><ele>912.5</ele><time>2026-04-04T08:04:16.999Z</time></trkpt><trkpt lat="43.12968403573105" lon="12.966733330576561"><ele>912.25</ele><time>2026-04-04T08:04:17.999Z</time></trkpt><trkpt lat="43.12956465321334" lon="12.966692383511825"><ele>912.0</ele><time>2026-04-04T08:04:18.999Z</time></trkpt><trkpt lat="43.12944459055995" lon="12.966644958193243"><ele>911.25</ele><time>2026-04-04T08:04:19.999Z</time></trkpt><trkpt lat="43.12932468559296" lon="12.966619214974147"><ele>910.5</ele><time>2026-04-04T08:04:20.999Z</time></trkpt><trkpt lat="43.12920283474641" lon="12.966613098541394"><ele>909.75</ele><time>2026-04-04T08:04:21.999Z</time></trkpt><trkpt lat="43.12908200595277" lon="12.96661974976798"><ele>909.0</ele><time>2026-04-04T08:04:22.999Z</time></trkpt><trkpt lat="43.12896414105125" lon="12.966637819608371"><ele>909.0</ele><time>2026-04-04T08:04:23.999Z</time></trkpt><trkpt lat="43.12885298310616" lon="12.966682805529548"><ele>909.0</ele><time>2026-04-04T08:04:24.999Z</time></trkpt><trkpt lat="43.12875474429318" lon="12.966762012825235"><ele>909.0</ele><time>2026-04-04T08:04:25.999Z</time></trkpt><trkpt lat="43.128671980852545" lon="12.966883415068342"><ele>909.0</ele><time>2026-04-04T08:04:26.999Z</time></trkpt><trkpt lat="43.12859900894203" lon="12.967032730454859"><ele>909.0</ele><time>2026-04-04T08:04:27.999Z</time></trkpt><trkpt lat="43.128528629632896" lon="12.967184008493877"><ele>909.0</ele><time>2026-04-04T08:04:28.999Z</time></trkpt><trkpt lat="43.128461039228114" lon="12.96734324684988"><ele>909.0</ele><time>2026-04-04T08:04:29.999Z</time></trkpt><trkpt lat="43.128373833826124" lon="12.967484072557937"><ele>909.0</ele><time>2026-04-04T08:04:30.999Z</time></trkpt><trkpt lat="43.12828820894642" lon="12.967626199361977"><ele>908.25</ele><time>2026-04-04T08:04:31.999Z</time></trkpt><trkpt lat="43.12819606657204" lon="12.967754758748555"><ele>907.5</ele><time>2026-04-04T08:04:32.999Z</time></trkpt><trkpt lat="43.12809768774888" lon="12.967870029650351"><ele>906.75</ele><time>2026-04-04T08:04:33.998Z</time></trkpt><trkpt lat="43.12798934749581" lon="12.967965326162565"><ele>906.0</ele><time>2026-04-04T08:04:34.998Z</time></trkpt><trkpt lat="43.127870913858914" lon="12.968051551388088"><ele>906.0</ele><time>2026-04-04T08:04:35.998Z</time></trkpt><trkpt lat="43.12774709017449" lon="12.968120096417257"><ele>906.0</ele><time>2026-04-04T08:04:36.998Z</time></trkpt><trkpt lat="43.127618882879155" lon="12.968165572792394"><ele>906.0</ele><time>2026-04-04T08:04:37.998Z</time></trkpt><trkpt lat="43.127491165478624" lon="12.968199537623594"><ele>906.0</ele><time>2026-04-04T08:04:38.998Z</time></trkpt><trkpt lat="43.127369674013835" lon="12.968224609584139"><ele>905.75</ele><time>2026-04-04T08:04:39.998Z</time></trkpt><trkpt lat="43.127239596982825" lon="12.968245526431344"><ele>905.5</ele><time>2026-04-04T08:04:40.998Z</time></trkpt><trkpt lat="43.127104858617194" lon="12.96826492845726"><ele>905.25</ele><time>2026-04-04T08:04:41.998Z</time></trkpt><trkpt lat="43.12696526396563" lon="12.968285031625268"><ele>905.0</ele><time>2026-04-04T08:04:42.998Z</time></trkpt><trkpt lat="43.126821409541456" lon="12.968316376931153"><ele>905.6666666666667</ele><time>2026-04-04T08:04:43.998Z</time></trkpt><trkpt lat="43.126677008109645" lon="12.968362432857747"><ele>906.3333333333333</ele><time>2026-04-04T08:04:44.998Z</time></trkpt><trkpt lat="43.12653037971072" lon="12.968433201458378"><ele>907.0</ele><time>2026-04-04T08:04:45.998Z</time></trkpt><trkpt lat="43.12638589852316" lon="12.968519532013637"><ele>905.0</ele><time>2026-04-04T08:04:46.998Z</time></trkpt><trkpt lat="43.12624227152956" lon="12.96861110553043"><ele>903.0</ele><time>2026-04-04T08:04:47.998Z</time></trkpt><trkpt lat="43.126097043467425" lon="12.968703699864191"><ele>901.0</ele><time>2026-04-04T08:04:48.998Z</time></trkpt><trkpt lat="43.12595190164416" lon="12.968796239203918"><ele>901.0</ele><time>2026-04-04T08:04:50Z</time></trkpt><trkpt lat="43.125805527129366" lon="12.96889112874076"><ele>901.0</ele><time>2026-04-04T08:04:51Z</time></trkpt><trkpt lat="43.12565743108246" lon="12.968987806039408"><ele>901.0</ele><time>2026-04-04T08:04:52Z</time></trkpt><trkpt lat="43.125510358611436" lon="12.969084696218133"><ele>900.0</ele><time>2026-04-04T08:04:53Z</time></trkpt><trkpt lat="43.1253643103825" lon="12.969190090711376"><ele>899.0</ele><time>2026-04-04T08:04:54Z</time></trkpt><trkpt lat="43.125226411879375" lon="12.969298329333874"><ele>898.0</ele><time>2026-04-04T08:04:55Z</time></trkpt><trkpt lat="43.12508958186404" lon="12.969409545518486"><ele>898.0</ele><time>2026-04-04T08:04:56Z</time></trkpt><trkpt lat="43.12495289101309" lon="12.96951828474943"><ele>898.0</ele><time>2026-04-04T08:04:57Z</time></trkpt><trkpt lat="43.124816272575934" lon="12.969616094837583"><ele>898.0</ele><time>2026-04-04T08:04:58Z</time></trkpt><trkpt lat="43.12467440593844" lon="12.96970777679693"><ele>897.0</ele><time>2026-04-04T08:04:59Z</time></trkpt><trkpt lat="43.124529091135926" lon="12.969781091838547"><ele>896.0</ele><time>2026-04-04T08:05:00Z</time></trkpt><trkpt lat="43.1243780672101" lon="12.96983892162765"><ele>895.0</ele><time>2026-04-04T08:05:01Z</time></trkpt><trkpt lat="43.12422540128096" lon="12.969876741355902"><ele>895.0</ele><time>2026-04-04T08:05:02Z</time></trkpt><trkpt lat="43.124069934310874" lon="12.969883852881525"><ele>895.0</ele><time>2026-04-04T08:05:03Z</time></trkpt><trkpt lat="43.1239105375353" lon="12.96989641899672"><ele>895.0</ele><time>2026-04-04T08:05:04Z</time></trkpt><trkpt lat="43.123748005212335" lon="12.969919246225365"><ele>895.0</ele><time>2026-04-04T08:05:05Z</time></trkpt><trkpt lat="43.123589938867525" lon="12.969955987268742"><ele>895.0</ele><time>2026-04-04T08:05:06Z</time></trkpt><trkpt lat="43.12342905926837" lon="12.969999861061833"><ele>895.0</ele><time>2026-04-04T08:05:07Z</time></trkpt><trkpt lat="43.123268386214434" lon="12.970059224605857"><ele>894.3333333333333</ele><time>2026-04-04T08:05:08Z</time></trkpt><trkpt lat="43.12311197102153" lon="12.97011979246021"><ele>893.6666666666667</ele><time>2026-04-04T08:05:09Z</time></trkpt><trkpt lat="43.122955845524594" lon="12.970180291142155"><ele>893.0</ele><time>2026-04-04T08:05:10Z</time></trkpt><trkpt lat="43.122801617807326" lon="12.97025807176908"><ele>893.0</ele><time>2026-04-04T08:05:11Z</time></trkpt><trkpt lat="43.12265822100051" lon="12.970365195194526"><ele>893.0</ele><time>2026-04-04T08:05:12Z</time></trkpt><trkpt lat="43.12251933124874" lon="12.970477917699514"><ele>893.0</ele><time>2026-04-04T08:05:13Z</time></trkpt><trkpt lat="43.12238458122167" lon="12.970594908703266"><ele>892.6666666666667</ele><time>2026-04-04T08:05:13.999Z</time></trkpt><trkpt lat="43.12225169348434" lon="12.970713714754202"><ele>892.3333333333333</ele><time>2026-04-04T08:05:14.999Z</time></trkpt><trkpt lat="43.12211764446764" lon="12.970835692210322"><ele>892.0</ele><time>2026-04-04T08:05:15.999Z</time></trkpt><trkpt lat="43.121983364236456" lon="12.970959552595971"><ele>892.6666666666666</ele><time>2026-04-04T08:05:16.999Z</time></trkpt><trkpt lat="43.1218419848063" lon="12.971072385147965"><ele>893.3333333333333</ele><time>2026-04-04T08:05:17.999Z</time></trkpt><trkpt lat="43.12169466969516" lon="12.971173993155599"><ele>894.0</ele><time>2026-04-04T08:05:18.999Z</time></trkpt><trkpt lat="43.12154255013625" lon="12.971267616876121"><ele>894.0</ele><time>2026-04-04T08:05:19.999Z</time></trkpt><trkpt lat="43.12138915607989" lon="12.971343450686556"><ele>894.0</ele><time>2026-04-04T08:05:20.999Z</time></trkpt><trkpt lat="43.12123720976259" lon="12.97141627776549"><ele>894.0</ele><time>2026-04-04T08:05:21.999Z</time></trkpt><trkpt lat="43.121085407619375" lon="12.971485329313682"><ele>894.0</ele><time>2026-04-04T08:05:22.999Z</time></trkpt><trkpt lat="43.12093193755781" lon="12.971558436042642"><ele>894.0</ele><time>2026-04-04T08:05:23.999Z</time></trkpt><trkpt lat="43.12078267588233" lon="12.971638857132136"><ele>894.0</ele><time>2026-04-04T08:05:24.999Z</time></trkpt><trkpt lat="43.12063642239989" lon="12.971719860091147"><ele>892.6666666666667</ele><time>2026-04-04T08:05:25.999Z</time></trkpt><trkpt lat="43.120487904650005" lon="12.971802728596687"><ele>891.3333333333334</ele><time>2026-04-04T08:05:26.999Z</time></trkpt><trkpt lat="43.12034701882869" lon="12.971926502716927"><ele>890.0</ele><time>2026-04-04T08:05:27.999Z</time></trkpt><trkpt lat="43.12021945445069" lon="12.972060347428831"><ele>890.0</ele><time>2026-04-04T08:05:28.999Z</time></trkpt><trkpt lat="43.12009452445648" lon="12.972196471868068"><ele>890.0</ele><time>2026-04-04T08:05:29.999Z</time></trkpt><trkpt lat="43.11997167003686" lon="12.972336650380388"><ele>890.0</ele><time>2026-04-04T08:05:30.999Z</time></trkpt><trkpt lat="43.11984893590054" lon="12.972471824775944"><ele>894.6666666666667</ele><time>2026-04-04T08:05:31.999Z</time></trkpt><trkpt lat="43.119724713888836" lon="12.972593019003053"><ele>899.3333333333333</ele><time>2026-04-04T08:05:32.999Z</time></trkpt><trkpt lat="43.119592505823775" lon="12.972694078198929"><ele>904.0</ele><time>2026-04-04T08:05:33.999Z</time></trkpt><trkpt lat="43.119449216838206" lon="12.972769586563002"><ele>904.0</ele><time>2026-04-04T08:05:34.999Z</time></trkpt><trkpt lat="43.11930422207006" lon="12.972836717157584"><ele>904.0</ele><time>2026-04-04T08:05:35.999Z</time></trkpt><trkpt lat="43.119157978762324" lon="12.972892023641199"><ele>904.0</ele><time>2026-04-04T08:05:36.999Z</time></trkpt><trkpt lat="43.119025141523394" lon="12.972928920508462"><ele>904.0</ele><time>2026-04-04T08:05:37.999Z</time></trkpt><trkpt lat="43.118905283376506" lon="12.972947013167808"><ele>906.6666666666666</ele><time>2026-04-04T08:05:38.999Z</time></trkpt><trkpt lat="43.1187998217693" lon="12.97295167032988"><ele>909.3333333333333</ele><time>2026-04-04T08:05:39.999Z</time></trkpt><trkpt lat="43.118705950650714" lon="12.972941941314257"><ele>912.0</ele><time>2026-04-04T08:05:40.999Z</time></trkpt><trkpt lat="43.11863132250414" lon="12.972913441665874"><ele>914.6666666666667</ele><time>2026-04-04T08:05:41.999Z</time></trkpt><trkpt lat="43.118558935214956" lon="12.972875149378401"><ele>917.3333333333334</ele><time>2026-04-04T08:05:42.999Z</time></trkpt><trkpt lat="43.11848916303542" lon="12.972837531606041"><ele>920.0</ele><time>2026-04-04T08:05:43.999Z</time></trkpt><trkpt lat="43.11842307496986" lon="12.972785881354739"><ele>920.0000000000001</ele><time>2026-04-04T08:05:44.999Z</time></trkpt><trkpt lat="43.118362468144646" lon="12.972723268821865"><ele>920.0</ele><time>2026-04-04T08:05:45.999Z</time></trkpt><trkpt lat="43.11828836028382" lon="12.972650479151303"><ele>920.0</ele><time>2026-04-04T08:05:46.999Z</time></trkpt><trkpt lat="43.11821393858238" lon="12.972578277419553"><ele>920.0</ele><time>2026-04-04T08:05:47.999Z</time></trkpt><trkpt lat="43.11815807565579" lon="12.97251808532558"><ele>920.0000000000001</ele><time>2026-04-04T08:05:48.999Z</time></trkpt><trkpt lat="43.1180990499427" lon="12.972455601475628"><ele>920.0</ele><time>2026-04-04T08:05:49.999Z</time></trkpt><trkpt lat="43.11802637814434" lon="12.972377954402766"><ele>918.6666666666667</ele><time>2026-04-04T08:05:50.999Z</time></trkpt><trkpt lat="43.11795543773624" lon="12.972302157275331"><ele>917.3333333333334</ele><time>2026-04-04T08:05:51.999Z</time></trkpt><trkpt lat="43.11789774018333" lon="12.972238410209435"><ele>916.0</ele><time>2026-04-04T08:05:52.999Z</time></trkpt><trkpt lat="43.117839755476176" lon="12.9721745512361"><ele>914.6666666666667</ele><time>2026-04-04T08:05:53.999Z</time></trkpt><trkpt lat="43.11777826858067" lon="12.97212994058503"><ele>913.3333333333334</ele><time>2026-04-04T08:05:54.999Z</time></trkpt><trkpt lat="43.11770511356661" lon="12.972076377014568"><ele>912.0</ele><time>2026-04-04T08:05:55.999Z</time></trkpt><trkpt lat="43.11762943153054" lon="12.972025961710125"><ele>912.0</ele><time>2026-04-04T08:05:56.999Z</time></trkpt><trkpt lat="43.117556836694526" lon="12.971982625413663"><ele>912.0</ele><time>2026-04-04T08:05:57.999Z</time></trkpt><trkpt lat="43.117093403367036" lon="12.972616250353717"><ele>913.8</ele><time>2026-04-04T08:05:58.999Z</time></trkpt><trkpt lat="43.11699967721291" lon="12.972606958740704"><ele>915.6</ele><time>2026-04-04T08:05:59.999Z</time></trkpt><trkpt lat="43.1169074952091" lon="12.972560491215816"><ele>917.3999999999999</ele><time>2026-04-04T08:06:00.999Z</time></trkpt><trkpt lat="43.11682125948274" lon="12.97254873934726"><ele>919.1999999999999</ele><time>2026-04-04T08:06:01.999Z</time></trkpt><trkpt lat="43.11673246117089" lon="12.972517983091969"><ele>921.0</ele><time>2026-04-04T08:06:02.999Z</time></trkpt><trkpt lat="43.11664328943778" lon="12.972492307167848"><ele>921.3333333333334</ele><time>2026-04-04T08:06:03.999Z</time></trkpt><trkpt lat="43.1165531960845" lon="12.97247870311049"><ele>921.6666666666667</ele><time>2026-04-04T08:06:04.999Z</time></trkpt><trkpt lat="43.116448098385014" lon="12.972474622865082"><ele>922.0</ele><time>2026-04-04T08:06:05.999Z</time></trkpt><trkpt lat="43.116357361145056" lon="12.972471649083523"><ele>922.3333333333334</ele><time>2026-04-04T08:06:06.999Z</time></trkpt><trkpt lat="43.11627791057281" lon="12.972499258384646"><ele>922.6666666666667</ele><time>2026-04-04T08:06:07.999Z</time></trkpt><trkpt lat="43.11621106717952" lon="12.972494741304883"><ele>923.0</ele><time>2026-04-04T08:06:08.999Z</time></trkpt><trkpt lat="43.11615237523604" lon="12.972568565822712"><ele>923.4</ele><time>2026-04-04T08:06:10.999Z</time></trkpt><trkpt lat="43.11611177429887" lon="12.97270562965772"><ele>923.8</ele><time>2026-04-04T08:06:12.999Z</time></trkpt><trkpt lat="43.11606419986771" lon="12.972785757401073"><ele>924.2</ele><time>2026-04-04T08:06:13.999Z</time></trkpt><trkpt lat="43.116004072171975" lon="12.972833677448474"><ele>924.6</ele><time>2026-04-04T08:06:14.999Z</time></trkpt><trkpt lat="43.115860934831524" lon="12.97269973321314"><ele>925.0</ele><time>2026-04-04T08:06:15.999Z</time></trkpt><trkpt lat="43.115763357328134" lon="12.972788039527385"><ele>923.9999999999999</ele><time>2026-04-04T08:06:17.999Z</time></trkpt><trkpt lat="43.115681000187855" lon="12.97285501264301"><ele>923.0</ele><time>2026-04-04T08:06:19.999Z</time></trkpt><trkpt lat="43.115620995181075" lon="12.9728970621138"><ele>922.0</ele><time>2026-04-04T08:06:25.999Z</time></trkpt><trkpt lat="43.11551405450314" lon="12.97294309240165"><ele>921.0</ele><time>2026-04-04T08:07:09Z</time></trkpt><trkpt lat="43.11543847451236" lon="12.972958268227101"><ele>919.9999999999999</ele><time>2026-04-04T08:07:10Z</time></trkpt><trkpt lat="43.11535414126514" lon="12.972959859368547"><ele>919.0</ele><time>2026-04-04T08:07:11Z</time></trkpt><trkpt lat="43.11525510503626" lon="12.972952331910642"><ele>919.0</ele><time>2026-04-04T08:07:12Z</time></trkpt><trkpt lat="43.11514744885238" lon="12.97293218623062"><ele>919.0</ele><time>2026-04-04T08:07:13Z</time></trkpt><trkpt lat="43.115029013847504" lon="12.972913060924785"><ele>919.0</ele><time>2026-04-04T08:07:14Z</time></trkpt><trkpt lat="43.11490180836388" lon="12.97289131915081"><ele>919.0</ele><time>2026-04-04T08:07:15Z</time></trkpt><trkpt lat="43.11475914436447" lon="12.97286585680332"><ele>919.3333333333333</ele><time>2026-04-04T08:07:16Z</time></trkpt><trkpt lat="43.11461591198222" lon="12.972840988709608"><ele>919.6666666666667</ele><time>2026-04-04T08:07:17Z</time></trkpt><trkpt lat="43.114465286185066" lon="12.972818534789477"><ele>920.0</ele><time>2026-04-04T08:07:18Z</time></trkpt><trkpt lat="43.11430718914366" lon="12.97279657128865"><ele>920.0</ele><time>2026-04-04T08:07:19Z</time></trkpt><trkpt lat="43.11414772635555" lon="12.972776451013743"><ele>920.0</ele><time>2026-04-04T08:07:20Z</time></trkpt><trkpt lat="43.11398861455612" lon="12.97275432439743"><ele>920.0</ele><time>2026-04-04T08:07:21Z</time></trkpt><trkpt lat="43.11383328934958" lon="12.972735548452379"><ele>919.0</ele><time>2026-04-04T08:07:22Z</time></trkpt><trkpt lat="43.11367826645092" lon="12.972718098407748"><ele>918.0</ele><time>2026-04-04T08:07:23Z</time></trkpt><trkpt lat="43.113520382285145" lon="12.97269863039119"><ele>917.0</ele><time>2026-04-04T08:07:23.999Z</time></trkpt><trkpt lat="43.11336423457764" lon="12.972679186606758"><ele>917.3333333333334</ele><time>2026-04-04T08:07:24.999Z</time></trkpt><trkpt lat="43.11320806642246" lon="12.97266003576164"><ele>917.6666666666667</ele><time>2026-04-04T08:07:25.999Z</time></trkpt><trkpt lat="43.113051005081644" lon="12.972635422462151"><ele>918.0</ele><time>2026-04-04T08:07:26.999Z</time></trkpt><trkpt lat="43.11289208047886" lon="12.97261124699689"><ele>918.0</ele><time>2026-04-04T08:07:27.999Z</time></trkpt><trkpt lat="43.11273199320623" lon="12.972570696552898"><ele>918.0</ele><time>2026-04-04T08:07:28.999Z</time></trkpt><trkpt lat="43.11257026784157" lon="12.9725633457978"><ele>918.0</ele><time>2026-04-04T08:07:29.999Z</time></trkpt><trkpt lat="43.112404647026885" lon="12.972556725237594"><ele>918.6666666666667</ele><time>2026-04-04T08:07:30.999Z</time></trkpt><trkpt lat="43.112238115085745" lon="12.972551326025998"><ele>919.3333333333334</ele><time>2026-04-04T08:07:31.999Z</time></trkpt><trkpt lat="43.11207426786666" lon="12.972566960121341"><ele>920.0</ele><time>2026-04-04T08:07:32.999Z</time></trkpt><trkpt lat="43.111911159318744" lon="12.972540504002865"><ele>920.0</ele><time>2026-04-04T08:07:33.999Z</time></trkpt><trkpt lat="43.11174527785433" lon="12.972534756546512"><ele>920.0</ele><time>2026-04-04T08:07:34.999Z</time></trkpt><trkpt lat="43.11158091449365" lon="12.972532110677532"><ele>920.0</ele><time>2026-04-04T08:07:35.999Z</time></trkpt><trkpt lat="43.111415913746804" lon="12.972546414960515"><ele>919.3333333333334</ele><time>2026-04-04T08:07:36.999Z</time></trkpt><trkpt lat="43.11125324536342" lon="12.972540936987976"><ele>918.6666666666667</ele><time>2026-04-04T08:07:37.999Z</time></trkpt><trkpt lat="43.111088346359004" lon="12.972539066810953"><ele>918.0</ele><time>2026-04-04T08:07:38.999Z</time></trkpt><trkpt lat="43.1109248134795" lon="12.972511062388142"><ele>918.0</ele><time>2026-04-04T08:07:39.999Z</time></trkpt><trkpt lat="43.11075883266357" lon="12.972524987983485"><ele>918.0</ele><time>2026-04-04T08:07:40.999Z</time></trkpt><trkpt lat="43.11059464060149" lon="12.972516153856839"><ele>918.0</ele><time>2026-04-04T08:07:41.999Z</time></trkpt><trkpt lat="43.11043112054822" lon="12.972472757078714"><ele>922.3333333333333</ele><time>2026-04-04T08:07:42.999Z</time></trkpt><trkpt lat="43.110273118184956" lon="12.97241514905646"><ele>926.6666666666666</ele><time>2026-04-04T08:07:43.999Z</time></trkpt><trkpt lat="43.11012297420674" lon="12.97234367372757"><ele>931.0</ele><time>2026-04-04T08:07:44.999Z</time></trkpt><trkpt lat="43.10996920049395" lon="12.972287513336356"><ele>928.6666666666666</ele><time>2026-04-04T08:07:45.999Z</time></trkpt><trkpt lat="43.10983014543896" lon="12.97218466337059"><ele>926.3333333333333</ele><time>2026-04-04T08:07:46.999Z</time></trkpt><trkpt lat="43.10969131348695" lon="12.972094312472779"><ele>924.0</ele><time>2026-04-04T08:07:47.999Z</time></trkpt><trkpt lat="43.10955432117027" lon="12.971991564338348"><ele>924.0</ele><time>2026-04-04T08:07:48.999Z</time></trkpt><trkpt lat="43.109417117597815" lon="12.971890114331167"><ele>924.0</ele><time>2026-04-04T08:07:49.999Z</time></trkpt><trkpt lat="43.109279527893186" lon="12.97178922623674"><ele>924.0</ele><time>2026-04-04T08:07:50.999Z</time></trkpt><trkpt lat="43.10914174269223" lon="12.971687219706519"><ele>925.3333333333333</ele><time>2026-04-04T08:07:51.999Z</time></trkpt><trkpt lat="43.10900471305588" lon="12.971580701203624"><ele>926.6666666666666</ele><time>2026-04-04T08:07:52.999Z</time></trkpt><trkpt lat="43.10885941176964" lon="12.971489266672837"><ele>928.0</ele><time>2026-04-04T08:07:53.999Z</time></trkpt><trkpt lat="43.10873063848925" lon="12.97135658628424"><ele>928.0</ele><time>2026-04-04T08:07:54.999Z</time></trkpt><trkpt lat="43.10860703339113" lon="12.971221529688837"><ele>928.0</ele><time>2026-04-04T08:07:55.999Z</time></trkpt><trkpt lat="43.108494511857806" lon="12.971072297371258"><ele>928.0</ele><time>2026-04-04T08:07:56.999Z</time></trkpt><trkpt lat="43.108391224676" lon="12.970914060411225"><ele>928.3333333333333</ele><time>2026-04-04T08:07:57.999Z</time></trkpt><trkpt lat="43.1082969958757" lon="12.970746547780069"><ele>928.6666666666667</ele><time>2026-04-04T08:07:58.999Z</time></trkpt><trkpt lat="43.108214026989906" lon="12.970570091818121"><ele>929.0</ele><time>2026-04-04T08:07:59.999Z</time></trkpt><trkpt lat="43.10814297262766" lon="12.970387347559749"><ele>929.0</ele><time>2026-04-04T08:08:00.999Z</time></trkpt><trkpt lat="43.10807710150974" lon="12.9702027345846"><ele>929.0</ele><time>2026-04-04T08:08:01.999Z</time></trkpt><trkpt lat="43.108017750632925" lon="12.970019853122867"><ele>929.0</ele><time>2026-04-04T08:08:02.999Z</time></trkpt><trkpt lat="43.10795722725271" lon="12.969836930608377"><ele>929.0</ele><time>2026-04-04T08:08:03.999Z</time></trkpt><trkpt lat="43.10790133714124" lon="12.96964800439762"><ele>931.6666666666667</ele><time>2026-04-04T08:08:04.999Z</time></trkpt><trkpt lat="43.107856279422926" lon="12.96945220226231"><ele>934.3333333333333</ele><time>2026-04-04T08:08:05.999Z</time></trkpt><trkpt lat="43.10781991122322" lon="12.969253845557143"><ele>937.0</ele><time>2026-04-04T08:08:06.999Z</time></trkpt><trkpt lat="43.10778252259715" lon="12.969053424567083"><ele>940.3333333333333</ele><time>2026-04-04T08:08:07.999Z</time></trkpt><trkpt lat="43.10774647992546" lon="12.968854730201997"><ele>943.6666666666667</ele><time>2026-04-04T08:08:08.999Z</time></trkpt><trkpt lat="43.10771003064023" lon="12.968649944837518"><ele>947.0</ele><time>2026-04-04T08:08:09.999Z</time></trkpt><trkpt lat="43.10767559569725" lon="12.968443862107733"><ele>950.6666666666667</ele><time>2026-04-04T08:08:10.999Z</time></trkpt><trkpt lat="43.107648207929195" lon="12.968236500963748"><ele>954.3333333333333</ele><time>2026-04-04T08:08:11.999Z</time></trkpt><trkpt lat="43.10762411454399" lon="12.968030377054209"><ele>958.0</ele><time>2026-04-04T08:08:12.999Z</time></trkpt><trkpt lat="43.10759326111403" lon="12.967822545578258"><ele>958.0</ele><time>2026-04-04T08:08:13.999Z</time></trkpt><trkpt lat="43.10755603423506" lon="12.967614103177798"><ele>958.0</ele><time>2026-04-04T08:08:14.999Z</time></trkpt><trkpt lat="43.10751206947875" lon="12.967407556332784"><ele>958.0</ele><time>2026-04-04T08:08:15.999Z</time></trkpt><trkpt lat="43.10745997368806" lon="12.967196294681266"><ele>958.0</ele><time>2026-04-04T08:08:16.999Z</time></trkpt><trkpt lat="43.10740231591444" lon="12.966976360038707"><ele>958.0</ele><time>2026-04-04T08:08:17.999Z</time></trkpt><trkpt lat="43.1073456109883" lon="12.966755012442757"><ele>958.0</ele><time>2026-04-04T08:08:18.999Z</time></trkpt><trkpt lat="43.10729034184295" lon="12.966534362047703"><ele>958.0</ele><time>2026-04-04T08:08:19.999Z</time></trkpt><trkpt lat="43.107231667251554" lon="12.966314991361466"><ele>958.0</ele><time>2026-04-04T08:08:20.999Z</time></trkpt><trkpt lat="43.107168540971315" lon="12.966099574652171"><ele>958.0</ele><time>2026-04-04T08:08:21.999Z</time></trkpt><trkpt lat="43.10710758323783" lon="12.965892135468035"><ele>962.0</ele><time>2026-04-04T08:08:22.999Z</time></trkpt><trkpt lat="43.10705370297862" lon="12.965707891360076"><ele>966.0</ele><time>2026-04-04T08:08:23.999Z</time></trkpt><trkpt lat="43.10699842475788" lon="12.96552815752759"><ele>970.0</ele><time>2026-04-04T08:08:24.999Z</time></trkpt><trkpt lat="43.10694500960109" lon="12.96537367972504"><ele>974.0</ele><time>2026-04-04T08:08:25.999Z</time></trkpt><trkpt lat="43.10688630419312" lon="12.965248458923286"><ele>974.0</ele><time>2026-04-04T08:08:26.999Z</time></trkpt><trkpt lat="43.10680909133527" lon="12.965168157633277"><ele>974.0000000000001</ele><time>2026-04-04T08:08:27.999Z</time></trkpt><trkpt lat="43.10671310029914" lon="12.965145440718674"><ele>974.0000000000001</ele><time>2026-04-04T08:08:28.999Z</time></trkpt><trkpt lat="43.10660458297151" lon="12.965173337032448"><ele>974.0</ele><time>2026-04-04T08:08:29.999Z</time></trkpt><trkpt lat="43.10649424368757" lon="12.965231402707278"><ele>974.0</ele><time>2026-04-04T08:08:30.999Z</time></trkpt><trkpt lat="43.10637540051765" lon="12.965300096951603"><ele>975.0</ele><time>2026-04-04T08:08:31.999Z</time></trkpt><trkpt lat="43.10625000928434" lon="12.96536953971786"><ele>976.0</ele><time>2026-04-04T08:08:32.999Z</time></trkpt><trkpt lat="43.1061155935224" lon="12.96543371043206"><ele>977.0</ele><time>2026-04-04T08:08:33.999Z</time></trkpt><trkpt lat="43.10597600271141" lon="12.965496019697289"><ele>978.0</ele><time>2026-04-04T08:08:34.999Z</time></trkpt><trkpt lat="43.10584754716762" lon="12.965551859471875"><ele>975.25</ele><time>2026-04-04T08:08:35.999Z</time></trkpt><trkpt lat="43.10572468864215" lon="12.965579034858974"><ele>972.5</ele><time>2026-04-04T08:08:36.999Z</time></trkpt><trkpt lat="43.10560473285218" lon="12.965554643746326"><ele>969.75</ele><time>2026-04-04T08:08:37.999Z</time></trkpt><trkpt lat="43.10550025431616" lon="12.965454753701122"><ele>967.0</ele><time>2026-04-04T08:08:38.999Z</time></trkpt><trkpt lat="43.10539760480525" lon="12.965323397221173"><ele>967.0</ele><time>2026-04-04T08:08:39.999Z</time></trkpt><trkpt lat="43.1053031969514" lon="12.965176571649229"><ele>967.0</ele><time>2026-04-04T08:08:40.999Z</time></trkpt><trkpt lat="43.105215500002416" lon="12.965021797734558"><ele>967.0</ele><time>2026-04-04T08:08:41.999Z</time></trkpt><trkpt lat="43.10513544168939" lon="12.964851826552675"><ele>967.0</ele><time>2026-04-04T08:08:42.999Z</time></trkpt><trkpt lat="43.10506517813933" lon="12.96466894418058"><ele>973.6666666666666</ele><time>2026-04-04T08:08:43.999Z</time></trkpt><trkpt lat="43.105008059369204" lon="12.964474069364847"><ele>980.3333333333333</ele><time>2026-04-04T08:08:44.999Z</time></trkpt><trkpt lat="43.104964558865596" lon="12.964269779278341"><ele>987.0</ele><time>2026-04-04T08:08:45.999Z</time></trkpt><trkpt lat="43.104948266562204" lon="12.964060270253066"><ele>991.0</ele><time>2026-04-04T08:08:46.999Z</time></trkpt><trkpt lat="43.104962644442764" lon="12.963852561806569"><ele>995.0</ele><time>2026-04-04T08:08:47.999Z</time></trkpt><trkpt lat="43.10499480190541" lon="12.963646447606559"><ele>999.0</ele><time>2026-04-04T08:08:48.999Z</time></trkpt><trkpt lat="43.10499856762927" lon="12.963455222225884"><ele>1003.0</ele><time>2026-04-04T08:08:49.999Z</time></trkpt><trkpt lat="43.10495254004131" lon="12.963300050921985"><ele>1002.2</ele><time>2026-04-04T08:08:50.999Z</time></trkpt><trkpt lat="43.104891728654074" lon="12.963167758052116"><ele>1001.4</ele><time>2026-04-04T08:08:51.998Z</time></trkpt><trkpt lat="43.10481633506981" lon="12.963062784863773"><ele>1000.6000000000001</ele><time>2026-04-04T08:08:52.998Z</time></trkpt><trkpt lat="43.104760747038895" lon="12.962940000937765"><ele>999.8000000000001</ele><time>2026-04-04T08:08:53.998Z</time></trkpt><trkpt lat="43.10473388276976" lon="12.962785995083852"><ele>999.0</ele><time>2026-04-04T08:08:54.998Z</time></trkpt><trkpt lat="43.10472719128726" lon="12.962640227819666"><ele>1002.1666666666666</ele><time>2026-04-04T08:08:55.998Z</time></trkpt><trkpt lat="43.10472932299309" lon="12.96252224684826"><ele>1005.3333333333333</ele><time>2026-04-04T08:08:56.998Z</time></trkpt><trkpt lat="43.104730545655215" lon="12.96243575842213"><ele>1008.5</ele><time>2026-04-04T08:08:57.998Z</time></trkpt><trkpt lat="43.104725728110175" lon="12.962297097768774"><ele>1011.6666666666666</ele><time>2026-04-04T08:08:59.998Z</time></trkpt><trkpt lat="43.10471466278633" lon="12.962191091006376"><ele>1014.8333333333333</ele><time>2026-04-04T08:09:02Z</time></trkpt><trkpt lat="43.104652468003636" lon="12.962170586962724"><ele>1018.0</ele><time>2026-04-04T08:09:04Z</time></trkpt><trkpt lat="43.10459118432246" lon="12.962072497355496"><ele>1017.9999999999999</ele><time>2026-04-04T08:09:06Z</time></trkpt><trkpt lat="43.1045330149874" lon="12.96195240011031"><ele>1018.0</ele><time>2026-04-04T08:09:08Z</time></trkpt><trkpt lat="43.1044716064233" lon="12.961909356894255"><ele>1018.0</ele><time>2026-04-04T08:09:09Z</time></trkpt><trkpt lat="43.10440908749672" lon="12.96186482377134"><ele>1018.0</ele><time>2026-04-04T08:09:10Z</time></trkpt><trkpt lat="43.10433308346926" lon="12.961804303575713"><ele>1017.9999999999999</ele><time>2026-04-04T08:09:11Z</time></trkpt><trkpt lat="43.10425835700612" lon="12.961752917036083"><ele>1018.0</ele><time>2026-04-04T08:09:12Z</time></trkpt><trkpt lat="43.104187004834706" lon="12.961705401401515"><ele>1018.4999999999999</ele><time>2026-04-04T08:09:13Z</time></trkpt><trkpt lat="43.10412347148416" lon="12.961657253753843"><ele>1019.0</ele><time>2026-04-04T08:09:14Z</time></trkpt><trkpt lat="43.104062029852635" lon="12.961592441014508"><ele>1019.5</ele><time>2026-04-04T08:09:15Z</time></trkpt><trkpt lat="43.10400307764716" lon="12.961545578898559"><ele>1020.0</ele><time>2026-04-04T08:09:16Z</time></trkpt><trkpt lat="43.1039117519409" lon="12.961489805279559"><ele>1020.4999999999999</ele><time>2026-04-04T08:09:18Z</time></trkpt><trkpt lat="43.10380804528756" lon="12.961474013481478"><ele>1021.0</ele><time>2026-04-04T08:09:20Z</time></trkpt><trkpt lat="43.10368852308529" lon="12.961503219421443"><ele>1023.0</ele><time>2026-04-04T08:09:22Z</time></trkpt><trkpt lat="43.1035670560134" lon="12.961543349014327"><ele>1025.0</ele><time>2026-04-04T08:09:24Z</time></trkpt><trkpt lat="43.10346589735076" lon="12.961551935157088"><ele>1027.0</ele><time>2026-04-04T08:09:26Z</time></trkpt><trkpt lat="43.103387170774624" lon="12.961539255938074"><ele>1029.0</ele><time>2026-04-04T08:09:28Z</time></trkpt><trkpt lat="43.10330011159351" lon="12.961534299725669"><ele>1031.0</ele><time>2026-04-04T08:09:30Z</time></trkpt><trkpt lat="43.103203945991645" lon="12.961550098453182"><ele>1031.0</ele><time>2026-04-04T08:09:32Z</time></trkpt><trkpt lat="43.10309664385206" lon="12.961599722354087"><ele>1031.0</ele><time>2026-04-04T08:09:33.999Z</time></trkpt><trkpt lat="43.10298967114698" lon="12.96164117888083"><ele>1031.0</ele><time>2026-04-04T08:09:35.999Z</time></trkpt><trkpt lat="43.1029273219306" lon="12.961655375368201"><ele>1031.0</ele><time>2026-04-04T08:09:36.999Z</time></trkpt><trkpt lat="43.10281264323844" lon="12.961684026939716"><ele>1031.0</ele><time>2026-04-04T08:09:38.999Z</time></trkpt><trkpt lat="43.102694580858966" lon="12.961707969921859"><ele>1030.3999999999999</ele><time>2026-04-04T08:09:40.999Z</time></trkpt><trkpt lat="43.102593721928656" lon="12.961734359342355"><ele>1029.8</ele><time>2026-04-04T08:09:42.999Z</time></trkpt><trkpt lat="43.10247842001224" lon="12.961767135141422"><ele>1029.1999999999998</ele><time>2026-04-04T08:09:44.999Z</time></trkpt><trkpt lat="43.10236074163275" lon="12.961780168570531"><ele>1028.6</ele><time>2026-04-04T08:09:46.999Z</time></trkpt><trkpt lat="43.10228688817892" lon="12.961783665628406"><ele>1028.0</ele><time>2026-04-04T08:09:47.999Z</time></trkpt><trkpt lat="43.102221373696906" lon="12.961792687395276"><ele>1026.5</ele><time>2026-04-04T08:09:48.999Z</time></trkpt><trkpt lat="43.102155238487526" lon="12.961821557507655"><ele>1025.0</ele><time>2026-04-04T08:09:49.999Z</time></trkpt><trkpt lat="43.10209793371526" lon="12.961859400269406"><ele>1023.5</ele><time>2026-04-04T08:09:50.999Z</time></trkpt><trkpt lat="43.10199777695786" lon="12.961912171556094"><ele>1022.0</ele><time>2026-04-04T08:09:52.999Z</time></trkpt><trkpt lat="43.10189678551049" lon="12.96191412487189"><ele>1020.5000000000001</ele><time>2026-04-04T08:09:54.999Z</time></trkpt><trkpt lat="43.10182709173389" lon="12.96189737740165"><ele>1019.0</ele><time>2026-04-04T08:09:55.999Z</time></trkpt><trkpt lat="43.10174486250346" lon="12.961868121656279"><ele>1019.0000000000001</ele><time>2026-04-04T08:09:56.999Z</time></trkpt><trkpt lat="43.10166229589247" lon="12.961820673643425"><ele>1019.0</ele><time>2026-04-04T08:09:57.999Z</time></trkpt><trkpt lat="43.101566189774466" lon="12.96177422886476"><ele>1019.0</ele><time>2026-04-04T08:09:58.999Z</time></trkpt><trkpt lat="43.10148432918958" lon="12.96174522367217"><ele>1019.0</ele><time>2026-04-04T08:09:59.999Z</time></trkpt><trkpt lat="43.10140165452652" lon="12.961719479614006"><ele>1019.0000000000001</ele><time>2026-04-04T08:10:00.999Z</time></trkpt><trkpt lat="43.101328343904996" lon="12.96168134774499"><ele>1019.0</ele><time>2026-04-04T08:10:01.999Z</time></trkpt><trkpt lat="43.101268403728895" lon="12.961636421961197"><ele>1021.8333333333334</ele><time>2026-04-04T08:10:02.999Z</time></trkpt><trkpt lat="43.10115459433696" lon="12.961594732412287"><ele>1024.6666666666667</ele><time>2026-04-04T08:10:04.999Z</time></trkpt><trkpt lat="43.101061213109915" lon="12.96160670064369"><ele>1027.5</ele><time>2026-04-04T08:10:06.999Z</time></trkpt><trkpt lat="43.10095824437672" lon="12.961623389042666"><ele>1030.3333333333333</ele><time>2026-04-04T08:10:08.999Z</time></trkpt><trkpt lat="43.10089512581144" lon="12.96163472015979"><ele>1033.1666666666665</ele><time>2026-04-04T08:10:09.999Z</time></trkpt><trkpt lat="43.100825475416435" lon="12.961637465769773"><ele>1036.0</ele><time>2026-04-04T08:10:10.999Z</time></trkpt><trkpt lat="43.10074987446896" lon="12.961646748559046"><ele>1036.6666666666665</ele><time>2026-04-04T08:10:11.999Z</time></trkpt><trkpt lat="43.10067536038858" lon="12.961676036799902"><ele>1037.3333333333333</ele><time>2026-04-04T08:10:12.999Z</time></trkpt><trkpt lat="43.10060512474136" lon="12.961708863042839"><ele>1038.0</ele><time>2026-04-04T08:10:13.999Z</time></trkpt><trkpt lat="43.100527665019065" lon="12.961740325874706"><ele>1038.6666666666667</ele><time>2026-04-04T08:10:14.999Z</time></trkpt><trkpt lat="43.100452962986935" lon="12.961763079861301"><ele>1039.3333333333335</ele><time>2026-04-04T08:10:15.999Z</time></trkpt><trkpt lat="43.100372495167484" lon="12.96177930434604"><ele>1040.0</ele><time>2026-04-04T08:10:16.999Z</time></trkpt><trkpt lat="43.10028795827097" lon="12.961796271910307"><ele>1040.0</ele><time>2026-04-04T08:10:17.999Z</time></trkpt><trkpt lat="43.10020634159344" lon="12.961810524310712"><ele>1040.0</ele><time>2026-04-04T08:10:18.999Z</time></trkpt><trkpt lat="43.10012564512548" lon="12.961830480214203"><ele>1040.0</ele><time>2026-04-04T08:10:19.999Z</time></trkpt><trkpt lat="43.1000425173392" lon="12.961843178918512"><ele>1040.0</ele><time>2026-04-04T08:10:20.999Z</time></trkpt><trkpt lat="43.09994693456199" lon="12.961866781648691"><ele>1040.0</ele><time>2026-04-04T08:10:21.999Z</time></trkpt><trkpt lat="43.09986098998901" lon="12.961887883953567"><ele>1040.0</ele><time>2026-04-04T08:10:22.999Z</time></trkpt><trkpt lat="43.09976796768869" lon="12.961916507370077"><ele>1047.0</ele><time>2026-04-04T08:10:23.999Z</time></trkpt><trkpt lat="43.09967812408276" lon="12.961937618398283"><ele>1054.0</ele><time>2026-04-04T08:10:24.999Z</time></trkpt><trkpt lat="43.09957708570678" lon="12.961962148930063"><ele>1061.0</ele><time>2026-04-04T08:10:25.999Z</time></trkpt><trkpt lat="43.099484313382725" lon="12.961989106098422"><ele>1068.0</ele><time>2026-04-04T08:10:26.999Z</time></trkpt><trkpt lat="43.09938825227854" lon="12.96201366231653"><ele>1075.0</ele><time>2026-04-04T08:10:27.999Z</time></trkpt><trkpt lat="43.099311209391225" lon="12.962049049492295"><ele>1075.0</ele><time>2026-04-04T08:10:28.999Z</time></trkpt><trkpt lat="43.09922515348793" lon="12.96208668536981"><ele>1075.0</ele><time>2026-04-04T08:10:29.999Z</time></trkpt><trkpt lat="43.09913530257675" lon="12.962138239692948"><ele>1075.0</ele><time>2026-04-04T08:10:30.999Z</time></trkpt><trkpt lat="43.09904541706362" lon="12.962193516362015"><ele>1075.0</ele><time>2026-04-04T08:10:31.999Z</time></trkpt><trkpt lat="43.09896677516759" lon="12.962253002533187"><ele>1075.0</ele><time>2026-04-04T08:10:32.999Z</time></trkpt><trkpt lat="43.0988933323783" lon="12.962302690182218"><ele>1077.6666666666665</ele><time>2026-04-04T08:10:33.999Z</time></trkpt><trkpt lat="43.09881728226547" lon="12.962353609639129"><ele>1080.3333333333333</ele><time>2026-04-04T08:10:34.999Z</time></trkpt><trkpt lat="43.098748973859884" lon="12.962400475065522"><ele>1083.0</ele><time>2026-04-04T08:10:35.999Z</time></trkpt><trkpt lat="43.098674245236865" lon="12.962462137296292"><ele>1085.6666666666667</ele><time>2026-04-04T08:10:36.999Z</time></trkpt><trkpt lat="43.09859206827839" lon="12.962511219641025"><ele>1088.3333333333335</ele><time>2026-04-04T08:10:37.999Z</time></trkpt><trkpt lat="43.098532037538945" lon="12.962543403506821"><ele>1091.0</ele><time>2026-04-04T08:10:38.999Z</time></trkpt><trkpt lat="43.0984120640618" lon="12.962609133753377"><ele>1092.0</ele><time>2026-04-04T08:10:40.999Z</time></trkpt><trkpt lat="43.098326758673984" lon="12.962663771902225"><ele>1093.0</ele><time>2026-04-04T08:10:41.999Z</time></trkpt><trkpt lat="43.09824259102858" lon="12.962719944325025"><ele>1094.0</ele><time>2026-04-04T08:10:42.999Z</time></trkpt><trkpt lat="43.09815880968355" lon="12.962769762976697"><ele>1095.0</ele><time>2026-04-04T08:10:43.999Z</time></trkpt><trkpt lat="43.09808597721698" lon="12.962818821090247"><ele>1096.0</ele><time>2026-04-04T08:10:44.999Z</time></trkpt><trkpt lat="43.098024832743384" lon="12.96287049490971"><ele>1097.0</ele><time>2026-04-04T08:10:45.999Z</time></trkpt><trkpt lat="43.097960366023145" lon="12.962940222775536"><ele>1097.5</ele><time>2026-04-04T08:10:46.999Z</time></trkpt><trkpt lat="43.09790425909673" lon="12.963015801813626"><ele>1098.0</ele><time>2026-04-04T08:10:47.999Z</time></trkpt><trkpt lat="43.09786149708487" lon="12.963098968360141"><ele>1098.5</ele><time>2026-04-04T08:10:48.999Z</time></trkpt><trkpt lat="43.09781551320346" lon="12.963211556897624"><ele>1099.0</ele><time>2026-04-04T08:10:49.999Z</time></trkpt><trkpt lat="43.097752663420046" lon="12.963303939251208"><ele>1099.5</ele><time>2026-04-04T08:10:50.999Z</time></trkpt><trkpt lat="43.09768253014213" lon="12.963391193191761"><ele>1100.0</ele><time>2026-04-04T08:10:51.999Z</time></trkpt><trkpt lat="43.09761903856478" lon="12.963467592200928"><ele>1100.3333333333335</ele><time>2026-04-04T08:10:52.999Z</time></trkpt><trkpt lat="43.09757218062898" lon="12.963551304956146"><ele>1100.6666666666667</ele><time>2026-04-04T08:10:53.999Z</time></trkpt><trkpt lat="43.097523994216424" lon="12.963626454822649"><ele>1101.0</ele><time>2026-04-04T08:10:54.999Z</time></trkpt><trkpt lat="43.09747632203508" lon="12.963691188950264"><ele>1101.3333333333333</ele><time>2026-04-04T08:10:55.999Z</time></trkpt><trkpt lat="43.0973686499344" lon="12.963781730568336"><ele>1101.6666666666665</ele><time>2026-04-04T08:10:57.999Z</time></trkpt><trkpt lat="43.09726974040038" lon="12.963832224685635"><ele>1102.0</ele><time>2026-04-04T08:10:59.999Z</time></trkpt><trkpt lat="43.0971786856119" lon="12.963816054109163"><ele>1099.5</ele><time>2026-04-04T08:11:01.999Z</time></trkpt><trkpt lat="43.09710739677292" lon="12.963790835694503"><ele>1097.0</ele><time>2026-04-04T08:11:03.999Z</time></trkpt><trkpt lat="43.09709086645205" lon="12.963918770665067"><ele>1094.5</ele><time>2026-04-04T08:12:09.999Z</time></trkpt><trkpt lat="43.09716887340561" lon="12.963967716231274"><ele>1092.0</ele><time>2026-04-04T08:12:11.999Z</time></trkpt><trkpt lat="43.097246189075484" lon="12.964016173808998"><ele>1089.5</ele><time>2026-04-04T08:12:13.999Z</time></trkpt><trkpt lat="43.097309830178844" lon="12.964100603085651"><ele>1087.0</ele><time>2026-04-04T08:12:15.999Z</time></trkpt><trkpt lat="43.097371597118" lon="12.96418551457877"><ele>1087.8</ele><time>2026-04-04T08:12:17.999Z</time></trkpt><trkpt lat="43.097441829983985" lon="12.964279840116875"><ele>1088.6</ele><time>2026-04-04T08:12:19.999Z</time></trkpt><trkpt lat="43.097495139395996" lon="12.964368339844926"><ele>1089.3999999999999</ele><time>2026-04-04T08:12:21.999Z</time></trkpt><trkpt lat="43.09755782188776" lon="12.964442497008989"><ele>1090.2</ele><time>2026-04-04T08:12:23.999Z</time></trkpt><trkpt lat="43.097640238593314" lon="12.964538362544852"><ele>1091.0</ele><time>2026-04-04T08:12:25.999Z</time></trkpt><trkpt lat="43.09771511289718" lon="12.964679704240915"><ele>1091.0</ele><time>2026-04-04T08:12:27.999Z</time></trkpt><trkpt lat="43.09774681571348" lon="12.96476789167443"><ele>1091.0</ele><time>2026-04-04T08:12:28.999Z</time></trkpt><trkpt lat="43.09775865576651" lon="12.964875783867932"><ele>1091.0</ele><time>2026-04-04T08:12:30.999Z</time></trkpt><trkpt lat="43.09775730839923" lon="12.964963216585977"><ele>1091.0</ele><time>2026-04-04T08:12:32.999Z</time></trkpt><trkpt lat="43.09773896814977" lon="12.965047100955877"><ele>1091.0</ele><time>2026-04-04T08:12:35.999Z</time></trkpt><trkpt lat="43.09768865788674" lon="12.965119514757626"><ele>1091.0</ele><time>2026-04-04T08:12:39.999Z</time></trkpt><trkpt lat="43.09762490952395" lon="12.965170918815351"><ele>1091.0</ele><time>2026-04-04T08:12:43.999Z</time></trkpt><trkpt lat="43.09755811117586" lon="12.965197690499556"><ele>1088.3333333333335</ele><time>2026-04-04T08:12:46.999Z</time></trkpt><trkpt lat="43.09747706425298" lon="12.965206389970634"><ele>1085.6666666666667</ele><time>2026-04-04T08:12:51.999Z</time></trkpt><trkpt lat="43.09740750801004" lon="12.965235538413802"><ele>1083.0</ele><time>2026-04-04T08:12:53.999Z</time></trkpt><trkpt lat="43.09735258254738" lon="12.965310891349782"><ele>1080.3333333333333</ele><time>2026-04-04T08:12:55.999Z</time></trkpt><trkpt lat="43.097286397520946" lon="12.96540926353642"><ele>1077.6666666666665</ele><time>2026-04-04T08:12:57.999Z</time></trkpt><trkpt lat="43.09724476704877" lon="12.965474085578338"><ele>1075.0</ele><time>2026-04-04T08:12:58.999Z</time></trkpt><trkpt lat="43.09717373394611" lon="12.965588127639487"><ele>1071.8</ele><time>2026-04-04T08:13:00.999Z</time></trkpt><trkpt lat="43.09710740150561" lon="12.965695951097155"><ele>1068.6</ele><time>2026-04-04T08:13:02.999Z</time></trkpt><trkpt lat="43.09702716809381" lon="12.965792729664999"><ele>1065.4</ele><time>2026-04-04T08:13:04.999Z</time></trkpt><trkpt lat="43.09697804557585" lon="12.965852053214784"><ele>1062.2</ele><time>2026-04-04T08:13:05.999Z</time></trkpt><trkpt lat="43.09692976721915" lon="12.965909052862449"><ele>1059.0</ele><time>2026-04-04T08:13:06.999Z</time></trkpt><trkpt lat="43.09684003368237" lon="12.966007972921098"><ele>1058.8333333333333</ele><time>2026-04-04T08:13:08.999Z</time></trkpt><trkpt lat="43.09678789704121" lon="12.966059010305987"><ele>1058.6666666666667</ele><time>2026-04-04T08:13:09.999Z</time></trkpt><trkpt lat="43.09667395584719" lon="12.96614007347137"><ele>1058.5</ele><time>2026-04-04T08:13:11.999Z</time></trkpt><trkpt lat="43.09659965094176" lon="12.966202831836064"><ele>1058.3333333333335</ele><time>2026-04-04T08:13:12.999Z</time></trkpt><trkpt lat="43.096524912485684" lon="12.966250933386375"><ele>1058.1666666666667</ele><time>2026-04-04T08:13:14Z</time></trkpt><trkpt lat="43.09645107670019" lon="12.966284611871973"><ele>1058.0</ele><time>2026-04-04T08:13:15Z</time></trkpt><trkpt lat="43.09637196416304" lon="12.96632276181585"><ele>1058.0</ele><time>2026-04-04T08:13:16Z</time></trkpt><trkpt lat="43.09629089856034" lon="12.966357212527512"><ele>1058.0</ele><time>2026-04-04T08:13:17Z</time></trkpt><trkpt lat="43.096210997416925" lon="12.966392619752062"><ele>1058.0</ele><time>2026-04-04T08:13:18Z</time></trkpt><trkpt lat="43.09613731993111" lon="12.96643114575063"><ele>1058.0</ele><time>2026-04-04T08:13:19Z</time></trkpt><trkpt lat="43.0960640404732" lon="12.966475197760333"><ele>1058.0</ele><time>2026-04-04T08:13:20Z</time></trkpt><trkpt lat="43.095995919223775" lon="12.966520557854151"><ele>1058.0</ele><time>2026-04-04T08:13:21Z</time></trkpt><trkpt lat="43.09592870247586" lon="12.966565346052327"><ele>1058.0</ele><time>2026-04-04T08:13:22Z</time></trkpt><trkpt lat="43.0958665351077" lon="12.966602906858265"><ele>1058.0</ele><time>2026-04-04T08:13:23Z</time></trkpt><trkpt lat="43.0957937304039" lon="12.966639749545024"><ele>1058.0</ele><time>2026-04-04T08:13:24Z</time></trkpt><trkpt lat="43.09572454378733" lon="12.966687317575785"><ele>1058.0</ele><time>2026-04-04T08:13:25Z</time></trkpt><trkpt lat="43.095650515689215" lon="12.966731665571347"><ele>1058.0</ele><time>2026-04-04T08:13:26Z</time></trkpt><trkpt lat="43.0955817817329" lon="12.966772216086245"><ele>1058.0</ele><time>2026-04-04T08:13:27Z</time></trkpt><trkpt lat="43.09551281095213" lon="12.96680732176577"><ele>1057.6666666666667</ele><time>2026-04-04T08:13:28Z</time></trkpt><trkpt lat="43.09544851932865" lon="12.966848247781211"><ele>1057.3333333333335</ele><time>2026-04-04T08:13:29Z</time></trkpt><trkpt lat="43.09539392854741" lon="12.966894548343696"><ele>1057.0</ele><time>2026-04-04T08:13:30Z</time></trkpt><trkpt lat="43.09534259785736" lon="12.966946201562596"><ele>1056.6666666666667</ele><time>2026-04-04T08:13:31Z</time></trkpt><trkpt lat="43.095245338114424" lon="12.967032612126394"><ele>1056.3333333333333</ele><time>2026-04-04T08:13:33Z</time></trkpt><trkpt lat="43.095186976360594" lon="12.96707548317391"><ele>1056.0</ele><time>2026-04-04T08:13:34Z</time></trkpt><trkpt lat="43.09512105678054" lon="12.967126010074226"><ele>1056.0</ele><time>2026-04-04T08:13:35Z</time></trkpt><trkpt lat="43.0950364366189" lon="12.967243574970297"><ele>1056.0</ele><time>2026-04-04T08:13:37Z</time></trkpt><trkpt lat="43.094950830274925" lon="12.967342941447088"><ele>1056.0</ele><time>2026-04-04T08:13:39Z</time></trkpt><trkpt lat="43.0948840202596" lon="12.967454912981172"><ele>1056.0</ele><time>2026-04-04T08:13:41Z</time></trkpt><trkpt lat="43.0948227491541" lon="12.967589990009179"><ele>1054.1666666666667</ele><time>2026-04-04T08:13:43Z</time></trkpt><trkpt lat="43.09477048358158" lon="12.967687516793683"><ele>1052.3333333333333</ele><time>2026-04-04T08:13:44.999Z</time></trkpt><trkpt lat="43.09473128348225" lon="12.967797693696093"><ele>1050.5</ele><time>2026-04-04T08:13:46.999Z</time></trkpt><trkpt lat="43.09472702557515" lon="12.967890603183694"><ele>1048.6666666666665</ele><time>2026-04-04T08:13:48.999Z</time></trkpt><trkpt lat="43.094719493998085" lon="12.96800500424022"><ele>1046.8333333333333</ele><time>2026-04-04T08:13:50.999Z</time></trkpt><trkpt lat="43.09472170371438" lon="12.968099869365057"><ele>1045.0</ele><time>2026-04-04T08:13:53.999Z</time></trkpt><trkpt lat="43.09471804431767" lon="12.968186519539158"><ele>1045.0</ele><time>2026-04-04T08:14:09.999Z</time></trkpt><trkpt lat="43.09465932720394" lon="12.968235286185188"><ele>1045.0</ele><time>2026-04-04T08:14:12.999Z</time></trkpt><trkpt lat="43.094582582408954" lon="12.96816401577502"><ele>1045.0</ele><time>2026-04-04T08:14:55.999Z</time></trkpt><trkpt lat="43.09450812696195" lon="12.968044155615818"><ele>1045.0</ele><time>2026-04-04T08:14:57.999Z</time></trkpt><trkpt lat="43.09442635301002" lon="12.967963160029578"><ele>1045.0</ele><time>2026-04-04T08:14:58.999Z</time></trkpt><trkpt lat="43.09434221456087" lon="12.967884424415804"><ele>1045.0</ele><time>2026-04-04T08:14:59.998Z</time></trkpt><trkpt lat="43.094238739975616" lon="12.967799636166049"><ele>1045.0</ele><time>2026-04-04T08:15:00.998Z</time></trkpt><trkpt lat="43.09413335783081" lon="12.967706754626356"><ele>1045.0</ele><time>2026-04-04T08:15:01.998Z</time></trkpt><trkpt lat="43.09406689629104" lon="12.967612897304111"><ele>1045.0</ele><time>2026-04-04T08:15:02.998Z</time></trkpt><trkpt lat="43.09403225082621" lon="12.967521770866744"><ele>1045.0</ele><time>2026-04-04T08:15:03.998Z</time></trkpt><trkpt lat="43.09403918184321" lon="12.967336993885592"><ele>1044.6666666666665</ele><time>2026-04-04T08:15:05.998Z</time></trkpt><trkpt lat="43.09404918668757" lon="12.967222674530001"><ele>1044.3333333333333</ele><time>2026-04-04T08:15:06.998Z</time></trkpt><trkpt lat="43.094030643436575" lon="12.96712648403109"><ele>1044.0</ele><time>2026-04-04T08:15:07.998Z</time></trkpt><trkpt lat="43.09396619494765" lon="12.967003131756965"><ele>1043.6666666666667</ele><time>2026-04-04T08:15:09.998Z</time></trkpt><trkpt lat="43.093898524741164" lon="12.966966332600665"><ele>1043.3333333333335</ele><time>2026-04-04T08:15:10.998Z</time></trkpt><trkpt lat="43.09381071150102" lon="12.966930990807406"><ele>1043.0</ele><time>2026-04-04T08:15:11.998Z</time></trkpt><trkpt lat="43.09371642626632" lon="12.9669134477573"><ele>1043.0</ele><time>2026-04-04T08:15:12.998Z</time></trkpt><trkpt lat="43.09361768892145" lon="12.966913791852344"><ele>1043.0</ele><time>2026-04-04T08:15:13.998Z</time></trkpt><trkpt lat="43.0935263840735" lon="12.966920420463161"><ele>1043.0</ele><time>2026-04-04T08:15:14.998Z</time></trkpt><trkpt lat="43.09345045155202" lon="12.966904636585374"><ele>1043.0</ele><time>2026-04-04T08:15:15.998Z</time></trkpt><trkpt lat="43.09337728717346" lon="12.966870155389534"><ele>1043.0</ele><time>2026-04-04T08:15:16.998Z</time></trkpt><trkpt lat="43.093294519849195" lon="12.966821050129925"><ele>1043.0</ele><time>2026-04-04T08:15:17.998Z</time></trkpt><trkpt lat="43.093183544335666" lon="12.966756399921191"><ele>1042.0</ele><time>2026-04-04T08:15:19Z</time></trkpt><trkpt lat="43.09308005317536" lon="12.966711696533979"><ele>1041.0</ele><time>2026-04-04T08:15:20Z</time></trkpt><trkpt lat="43.092976254797776" lon="12.966655840101279"><ele>1040.0</ele><time>2026-04-04T08:15:21Z</time></trkpt><trkpt lat="43.09287869491153" lon="12.966602266979939"><ele>1039.0</ele><time>2026-04-04T08:15:22Z</time></trkpt><trkpt lat="43.092781296942654" lon="12.966547793691745"><ele>1038.0</ele><time>2026-04-04T08:15:23Z</time></trkpt><trkpt lat="43.09269203407845" lon="12.966489743728953"><ele>1038.0</ele><time>2026-04-04T08:15:24Z</time></trkpt><trkpt lat="43.09260854545735" lon="12.966425805184562"><ele>1038.0</ele><time>2026-04-04T08:15:25Z</time></trkpt><trkpt lat="43.092524320213" lon="12.966372692849797"><ele>1038.0</ele><time>2026-04-04T08:15:26Z</time></trkpt><trkpt lat="43.09244566751732" lon="12.966314607419442"><ele>1038.0</ele><time>2026-04-04T08:15:27Z</time></trkpt><trkpt lat="43.09238300486991" lon="12.9662330508208"><ele>1038.0</ele><time>2026-04-04T08:15:28Z</time></trkpt><trkpt lat="43.09230229565456" lon="12.966120952624028"><ele>1037.2</ele><time>2026-04-04T08:15:29Z</time></trkpt><trkpt lat="43.092219714658064" lon="12.966030710124302"><ele>1036.4</ele><time>2026-04-04T08:15:30Z</time></trkpt><trkpt lat="43.0921371526888" lon="12.96593304385713"><ele>1035.6000000000001</ele><time>2026-04-04T08:15:31Z</time></trkpt><trkpt lat="43.092068402998414" lon="12.965836763447836"><ele>1034.8</ele><time>2026-04-04T08:15:32Z</time></trkpt><trkpt lat="43.09203057539118" lon="12.965748894293728"><ele>1034.0</ele><time>2026-04-04T08:15:33Z</time></trkpt><trkpt lat="43.09202455742819" lon="12.965569694986787"><ele>1034.0</ele><time>2026-04-04T08:15:35Z</time></trkpt><trkpt lat="43.09198166135929" lon="12.965493148355732"><ele>1034.0</ele><time>2026-04-04T08:15:36Z</time></trkpt><trkpt lat="43.09190297489134" lon="12.965401056632968"><ele>1034.0</ele><time>2026-04-04T08:15:38Z</time></trkpt><trkpt lat="43.09185909259502" lon="12.965229060168246"><ele>1034.0</ele><time>2026-04-04T08:15:40Z</time></trkpt><trkpt lat="43.09183231382632" lon="12.965133596985382"><ele>1034.0</ele><time>2026-04-04T08:15:41Z</time></trkpt><trkpt lat="43.0918074000007" lon="12.96505216190879"><ele>1034.0</ele><time>2026-04-04T08:15:42Z</time></trkpt><trkpt lat="43.091779974486165" lon="12.964962725394484"><ele>1033.8333333333335</ele><time>2026-04-04T08:15:43Z</time></trkpt><trkpt lat="43.091756970981216" lon="12.964875986326328"><ele>1033.6666666666667</ele><time>2026-04-04T08:15:44Z</time></trkpt><trkpt lat="43.09173396268045" lon="12.964776678188283"><ele>1033.5</ele><time>2026-04-04T08:15:45Z</time></trkpt><trkpt lat="43.09170579231233" lon="12.964679794480677"><ele>1033.3333333333333</ele><time>2026-04-04T08:15:46Z</time></trkpt><trkpt lat="43.09166098132011" lon="12.964567718023227"><ele>1033.1666666666665</ele><time>2026-04-04T08:15:47Z</time></trkpt><trkpt lat="43.091610485999766" lon="12.964453082348905"><ele>1033.0</ele><time>2026-04-04T08:15:48Z</time></trkpt><trkpt lat="43.09154432674752" lon="12.96433594319813"><ele>1033.0</ele><time>2026-04-04T08:15:49Z</time></trkpt><trkpt lat="43.09146072492061" lon="12.964210599382596"><ele>1033.0</ele><time>2026-04-04T08:15:50Z</time></trkpt><trkpt lat="43.09136245046155" lon="12.964077152487427"><ele>1033.0</ele><time>2026-04-04T08:15:51Z</time></trkpt><trkpt lat="43.09126121660592" lon="12.963948905293506"><ele>1033.0</ele><time>2026-04-04T08:15:52Z</time></trkpt><trkpt lat="43.09119115330622" lon="12.963823264899972"><ele>1031.4</ele><time>2026-04-04T08:15:53Z</time></trkpt><trkpt lat="43.09113182538272" lon="12.963689104710092"><ele>1029.8</ele><time>2026-04-04T08:15:54Z</time></trkpt><trkpt lat="43.091073520184544" lon="12.963587202721994"><ele>1028.2</ele><time>2026-04-04T08:15:55Z</time></trkpt><trkpt lat="43.09100896621132" lon="12.963487557203235"><ele>1026.6</ele><time>2026-04-04T08:15:56Z</time></trkpt><trkpt lat="43.09094703457486" lon="12.963363506595321"><ele>1025.0</ele><time>2026-04-04T08:15:57Z</time></trkpt><trkpt lat="43.09090399838884" lon="12.963230522923345"><ele>1023.8</ele><time>2026-04-04T08:15:58Z</time></trkpt><trkpt lat="43.090879661473494" lon="12.963061424940507"><ele>1022.6</ele><time>2026-04-04T08:15:59Z</time></trkpt><trkpt lat="43.09086903978704" lon="12.962895672641684"><ele>1021.4000000000001</ele><time>2026-04-04T08:16:00Z</time></trkpt><trkpt lat="43.09087535089325" lon="12.962764261438652"><ele>1020.2</ele><time>2026-04-04T08:16:01Z</time></trkpt><trkpt lat="43.090902616814745" lon="12.962662921810189"><ele>1019.0</ele><time>2026-04-04T08:16:02Z</time></trkpt><trkpt lat="43.09094143114316" lon="12.962533965079023"><ele>1018.1666666666667</ele><time>2026-04-04T08:16:03Z</time></trkpt><trkpt lat="43.090986288587956" lon="12.962423349530093"><ele>1017.3333333333334</ele><time>2026-04-04T08:16:04Z</time></trkpt><trkpt lat="43.09101154680703" lon="12.962325867778201"><ele>1016.5</ele><time>2026-04-04T08:16:05Z</time></trkpt><trkpt lat="43.0910552648472" lon="12.962221170440538"><ele>1015.6666666666667</ele><time>2026-04-04T08:16:06Z</time></trkpt><trkpt lat="43.091098309889205" lon="12.962148366512187"><ele>1014.8333333333334</ele><time>2026-04-04T08:16:07Z</time></trkpt><trkpt lat="43.09114060562099" lon="12.962062133145496"><ele>1014.0</ele><time>2026-04-04T08:16:09Z</time></trkpt><trkpt lat="43.091200089961404" lon="12.961968336734065"><ele>1014.0</ele><time>2026-04-04T08:16:12Z</time></trkpt><trkpt lat="43.09126634379188" lon="12.961900314175137"><ele>1014.0</ele><time>2026-04-04T08:16:13.999Z</time></trkpt><trkpt lat="43.091271435687695" lon="12.961775095631568"><ele>1014.0</ele><time>2026-04-04T08:16:15.999Z</time></trkpt><trkpt lat="43.09127013732208" lon="12.96168529771473"><ele>1014.0</ele><time>2026-04-04T08:16:16.999Z</time></trkpt><trkpt lat="43.091268199982956" lon="12.961587246130394"><ele>1014.0</ele><time>2026-04-04T08:16:17.999Z</time></trkpt><trkpt lat="43.09125034158298" lon="12.961497471793809"><ele>1014.0</ele><time>2026-04-04T08:16:18.999Z</time></trkpt><trkpt lat="43.09124667074027" lon="12.961398561703348"><ele>1012.5</ele><time>2026-04-04T08:16:19.999Z</time></trkpt><trkpt lat="43.091252470561116" lon="12.961306808512036"><ele>1011.0</ele><time>2026-04-04T08:16:20.999Z</time></trkpt><trkpt lat="43.09127623168837" lon="12.961199903043424"><ele>1009.5</ele><time>2026-04-04T08:16:21.999Z</time></trkpt><trkpt lat="43.09128595747367" lon="12.961101316807852"><ele>1008.0</ele><time>2026-04-04T08:16:22.999Z</time></trkpt><trkpt lat="43.09126705594566" lon="12.961006994626894"><ele>1006.5</ele><time>2026-04-04T08:16:24.999Z</time></trkpt><trkpt lat="43.091208061916305" lon="12.960948483952627"><ele>1005.0</ele><time>2026-04-04T08:16:26.999Z</time></trkpt><trkpt lat="43.091118372574954" lon="12.960910120317962"><ele>1003.1428571428573</ele><time>2026-04-04T08:16:29.999Z</time></trkpt><trkpt lat="43.091088475234024" lon="12.960803368976675"><ele>1001.2857142857143</ele><time>2026-04-04T08:16:32.999Z</time></trkpt><trkpt lat="43.09103904554517" lon="12.960724314469397"><ele>999.4285714285716</ele><time>2026-04-04T08:16:34.999Z</time></trkpt><trkpt lat="43.090966783963275" lon="12.960699084975554"><ele>997.5714285714287</ele><time>2026-04-04T08:16:35.999Z</time></trkpt><trkpt lat="43.0908987104221" lon="12.960663258904207"><ele>995.7142857142858</ele><time>2026-04-04T08:16:36.999Z</time></trkpt><trkpt lat="43.09085339452122" lon="12.960592502422307"><ele>993.8571428571429</ele><time>2026-04-04T08:16:37.999Z</time></trkpt><trkpt lat="43.090829610757126" lon="12.96049891899336"><ele>992.0</ele><time>2026-04-04T08:16:38.999Z</time></trkpt><trkpt lat="43.0908283867209" lon="12.960391927944329"><ele>992.0000000000001</ele><time>2026-04-04T08:16:39.999Z</time></trkpt><trkpt lat="43.09081987883567" lon="12.96027483451103"><ele>992.0</ele><time>2026-04-04T08:16:40.999Z</time></trkpt><trkpt lat="43.09079376464041" lon="12.960178911418605"><ele>992.0</ele><time>2026-04-04T08:16:41.999Z</time></trkpt><trkpt lat="43.0907819848155" lon="12.960060857705438"><ele>992.0</ele><time>2026-04-04T08:16:42.999Z</time></trkpt><trkpt lat="43.09077671680447" lon="12.95992879178471"><ele>992.0000000000001</ele><time>2026-04-04T08:16:43.999Z</time></trkpt><trkpt lat="43.090775212166896" lon="12.959793658424047"><ele>992.0</ele><time>2026-04-04T08:16:44.999Z</time></trkpt><trkpt lat="43.09076919337683" lon="12.959674033747373"><ele>985.8</ele><time>2026-04-04T08:16:45.999Z</time></trkpt><trkpt lat="43.090756739764124" lon="12.959543381152528"><ele>979.6</ele><time>2026-04-04T08:16:46.999Z</time></trkpt><trkpt lat="43.090745264200415" lon="12.959420740145097"><ele>973.3999999999999</ele><time>2026-04-04T08:16:47.999Z</time></trkpt><trkpt lat="43.09074906055176" lon="12.959294032618676"><ele>967.1999999999999</ele><time>2026-04-04T08:16:48.999Z</time></trkpt><trkpt lat="43.09075331017828" lon="12.959161793251836"><ele>961.0</ele><time>2026-04-04T08:16:49.999Z</time></trkpt><trkpt lat="43.090755864606024" lon="12.95904160480592"><ele>962.8</ele><time>2026-04-04T08:16:50.999Z</time></trkpt><trkpt lat="43.09076344893536" lon="12.958928859114335"><ele>964.5999999999999</ele><time>2026-04-04T08:16:51.999Z</time></trkpt><trkpt lat="43.09079066065569" lon="12.958826185887837"><ele>966.4</ele><time>2026-04-04T08:16:52.999Z</time></trkpt><trkpt lat="43.090804127317305" lon="12.958741156051445"><ele>968.2</ele><time>2026-04-04T08:16:53.999Z</time></trkpt><trkpt lat="43.090782553157254" lon="12.95858237117755"><ele>970.0</ele><time>2026-04-04T08:16:55.999Z</time></trkpt><trkpt lat="43.090732354035325" lon="12.958439921859974"><ele>965.3333333333333</ele><time>2026-04-04T08:16:57.999Z</time></trkpt><trkpt lat="43.09072378386546" lon="12.958341792618459"><ele>960.6666666666666</ele><time>2026-04-04T08:16:58.999Z</time></trkpt><trkpt lat="43.09070772760479" lon="12.958243336113771"><ele>956.0</ele><time>2026-04-04T08:16:59.999Z</time></trkpt><trkpt lat="43.090686095738924" lon="12.958146582911688"><ele>951.3333333333333</ele><time>2026-04-04T08:17:00.999Z</time></trkpt><trkpt lat="43.090667674903635" lon="12.958051090672415"><ele>946.6666666666666</ele><time>2026-04-04T08:17:01.999Z</time></trkpt><trkpt lat="43.09066739954505" lon="12.957940000691973"><ele>942.0</ele><time>2026-04-04T08:17:02.999Z</time></trkpt><trkpt lat="43.09069179582493" lon="12.957835742490886"><ele>942.0</ele><time>2026-04-04T08:17:03.999Z</time></trkpt><trkpt lat="43.09071618241922" lon="12.957727144832415"><ele>942.0</ele><time>2026-04-04T08:17:04.999Z</time></trkpt><trkpt lat="43.09073032497323" lon="12.957625221071707"><ele>942.0</ele><time>2026-04-04T08:17:05.999Z</time></trkpt><trkpt lat="43.09073032894288" lon="12.957519963668544"><ele>942.0</ele><time>2026-04-04T08:17:06.999Z</time></trkpt><trkpt lat="43.09073698697962" lon="12.957416145977392"><ele>942.0</ele><time>2026-04-04T08:17:07.999Z</time></trkpt><trkpt lat="43.0907516149341" lon="12.957293175889925"><ele>942.0</ele><time>2026-04-04T08:17:08.999Z</time></trkpt><trkpt lat="43.09076538234997" lon="12.957180597342342"><ele>940.0</ele><time>2026-04-04T08:17:09.999Z</time></trkpt><trkpt lat="43.090761279764244" lon="12.957046976005415"><ele>938.0</ele><time>2026-04-04T08:17:10.999Z</time></trkpt><trkpt lat="43.090746302928785" lon="12.95691355065642"><ele>936.0</ele><time>2026-04-04T08:17:11.999Z</time></trkpt><trkpt lat="43.090740763216125" lon="12.956796918194986"><ele>934.0</ele><time>2026-04-04T08:17:12.999Z</time></trkpt><trkpt lat="43.09071651674217" lon="12.956674162254352"><ele>932.0</ele><time>2026-04-04T08:17:13.999Z</time></trkpt><trkpt lat="43.0906846035837" lon="12.956569168466789"><ele>930.5000000000001</ele><time>2026-04-04T08:17:14.999Z</time></trkpt><trkpt lat="43.09066513505411" lon="12.95646562570731"><ele>929.0</ele><time>2026-04-04T08:17:15.999Z</time></trkpt><trkpt lat="43.09063273562268" lon="12.956373379046566"><ele>927.5</ele><time>2026-04-04T08:17:16.999Z</time></trkpt><trkpt lat="43.09057246957894" lon="12.956296154919709"><ele>926.0</ele><time>2026-04-04T08:17:17.999Z</time></trkpt><trkpt lat="43.090525540974305" lon="12.956189482147074"><ele>924.5000000000001</ele><time>2026-04-04T08:17:18.999Z</time></trkpt><trkpt lat="43.09049060286525" lon="12.956077592552134"><ele>923.0</ele><time>2026-04-04T08:17:19.999Z</time></trkpt><trkpt lat="43.090440273774135" lon="12.955981955419988"><ele>923.0000000000001</ele><time>2026-04-04T08:17:20.999Z</time></trkpt><trkpt lat="43.09038827691916" lon="12.955890587370684"><ele>923.0</ele><time>2026-04-04T08:17:21.999Z</time></trkpt><trkpt lat="43.090347425793574" lon="12.955792518732403"><ele>923.0</ele><time>2026-04-04T08:17:22.999Z</time></trkpt><trkpt lat="43.09030396704047" lon="12.955686645765372"><ele>923.0</ele><time>2026-04-04T08:17:23.999Z</time></trkpt><trkpt lat="43.09025738431018" lon="12.95562298583554"><ele>923.0000000000001</ele><time>2026-04-04T08:17:25Z</time></trkpt><trkpt lat="43.09018972275622" lon="12.955588666802456"><ele>923.0</ele><time>2026-04-04T08:17:26Z</time></trkpt><trkpt lat="43.09011823753287" lon="12.955543196518665"><ele>922.8</ele><time>2026-04-04T08:17:27Z</time></trkpt><trkpt lat="43.090051562784005" lon="12.955450342381738"><ele>922.5999999999999</ele><time>2026-04-04T08:17:28Z</time></trkpt><trkpt lat="43.09000442185553" lon="12.955378208181347"><ele>922.4000000000001</ele><time>2026-04-04T08:17:29Z</time></trkpt><trkpt lat="43.089946491896484" lon="12.955244069771439"><ele>922.2</ele><time>2026-04-04T08:17:31Z</time></trkpt><trkpt lat="43.08987518447321" lon="12.955153177745695"><ele>922.0</ele><time>2026-04-04T08:17:33Z</time></trkpt><trkpt lat="43.08981842579042" lon="12.955055652612407"><ele>916.25</ele><time>2026-04-04T08:17:35Z</time></trkpt><trkpt lat="43.08973772263243" lon="12.954970748146698"><ele>910.5</ele><time>2026-04-04T08:17:37Z</time></trkpt><trkpt lat="43.08968638727733" lon="12.954863378750813"><ele>904.75</ele><time>2026-04-04T08:17:39Z</time></trkpt><trkpt lat="43.08966653942935" lon="12.954706174620929"><ele>899.0</ele><time>2026-04-04T08:17:41Z</time></trkpt><trkpt lat="43.08958729482786" lon="12.954525869194214"><ele>899.0</ele><time>2026-04-04T08:17:43Z</time></trkpt><trkpt lat="43.089518850152366" lon="12.954392632459442"><ele>899.0</ele><time>2026-04-04T08:17:45Z</time></trkpt><trkpt lat="43.08946341330488" lon="12.954249515406822"><ele>899.0</ele><time>2026-04-04T08:17:47Z</time></trkpt><trkpt lat="43.08939353529744" lon="12.954137969428665"><ele>899.0</ele><time>2026-04-04T08:17:49Z</time></trkpt><trkpt lat="43.08931144906409" lon="12.954022065737522"><ele>898.4000000000001</ele><time>2026-04-04T08:17:51Z</time></trkpt><trkpt lat="43.089266895483995" lon="12.953953859809145"><ele>897.8000000000001</ele><time>2026-04-04T08:17:52Z</time></trkpt><trkpt lat="43.08922258606848" lon="12.953797997757214"><ele>897.1999999999999</ele><time>2026-04-04T08:17:54Z</time></trkpt><trkpt lat="43.089171463341366" lon="12.953693962617193"><ele>896.5999999999999</ele><time>2026-04-04T08:17:56Z</time></trkpt><trkpt lat="43.089090101319734" lon="12.9536104304094"><ele>896.0</ele><time>2026-04-04T08:17:58Z</time></trkpt><trkpt lat="43.08901529967215" lon="12.953531932693066"><ele>891.4</ele><time>2026-04-04T08:18:00Z</time></trkpt><trkpt lat="43.089001053190614" lon="12.953438040329406"><ele>886.8</ele><time>2026-04-04T08:18:02Z</time></trkpt><trkpt lat="43.089056594079146" lon="12.953391096449444"><ele>882.1999999999999</ele><time>2026-04-04T08:18:05Z</time></trkpt><trkpt lat="43.089045695913235" lon="12.953251399967408"><ele>877.5999999999999</ele><time>2026-04-04T08:18:27.999Z</time></trkpt><trkpt lat="43.088938134042586" lon="12.953193112501497"><ele>873.0</ele><time>2026-04-04T08:18:30.999Z</time></trkpt><trkpt lat="43.0888186587957" lon="12.953216443976785"><ele>872.5999999999999</ele><time>2026-04-04T08:18:32.999Z</time></trkpt><trkpt lat="43.08870288142905" lon="12.95324565416087"><ele>872.1999999999999</ele><time>2026-04-04T08:18:34.999Z</time></trkpt><trkpt lat="43.088626926818264" lon="12.953202099913769"><ele>871.8</ele><time>2026-04-04T08:18:36.999Z</time></trkpt><trkpt lat="43.08856741299377" lon="12.953164139966969"><ele>871.4</ele><time>2026-04-04T08:18:37.999Z</time></trkpt><trkpt lat="43.0884520274834" lon="12.953107471272267"><ele>871.0</ele><time>2026-04-04T08:18:39.999Z</time></trkpt><trkpt lat="43.088354286221" lon="12.953008575106269"><ele>871.0</ele><time>2026-04-04T08:18:41.999Z</time></trkpt><trkpt lat="43.08827518201183" lon="12.952922443190852"><ele>870.9999999999999</ele><time>2026-04-04T08:18:43.999Z</time></trkpt><trkpt lat="43.08819272946414" lon="12.952868477824026"><ele>870.9999999999999</ele><time>2026-04-04T08:18:45.999Z</time></trkpt><trkpt lat="43.088196136112025" lon="12.952762702293754"><ele>871.0</ele><time>2026-04-04T08:18:47.999Z</time></trkpt><trkpt lat="43.0881874662706" lon="12.952625009918018"><ele>871.0</ele><time>2026-04-04T08:18:50.999Z</time></trkpt><trkpt lat="43.088183733493864" lon="12.9525035262692"><ele>870.1666666666666</ele><time>2026-04-04T08:18:52.999Z</time></trkpt><trkpt lat="43.088197435851505" lon="12.952410069443813"><ele>869.3333333333333</ele><time>2026-04-04T08:18:53.999Z</time></trkpt><trkpt lat="43.08821746869872" lon="12.952322787515175"><ele>868.5</ele><time>2026-04-04T08:18:54.999Z</time></trkpt><trkpt lat="43.0882707000845" lon="12.952202027540833"><ele>867.6666666666667</ele><time>2026-04-04T08:18:56.999Z</time></trkpt><trkpt lat="43.088337522278266" lon="12.952147115271558"><ele>866.8333333333334</ele><time>2026-04-04T08:18:59.999Z</time></trkpt><trkpt lat="43.0883954013661" lon="12.951996914207234"><ele>866.0</ele><time>2026-04-04T08:19:01.999Z</time></trkpt><trkpt lat="43.088449420521265" lon="12.951885251954948"><ele>866.0000000000001</ele><time>2026-04-04T08:19:03.999Z</time></trkpt><trkpt lat="43.0884864519436" lon="12.951777643999307"><ele>866.0</ele><time>2026-04-04T08:19:05.999Z</time></trkpt><trkpt lat="43.08844769706621" lon="12.951666077917674"><ele>866.0</ele><time>2026-04-04T08:19:07.999Z</time></trkpt><trkpt lat="43.08838534169086" lon="12.951594161924604"><ele>866.0</ele><time>2026-04-04T08:19:09.999Z</time></trkpt><trkpt lat="43.08832673357413" lon="12.95153873415895"><ele>866.0000000000001</ele><time>2026-04-04T08:19:12.999Z</time></trkpt><trkpt lat="43.08827115026403" lon="12.951495970723379"><ele>866.0</ele><time>2026-04-04T08:19:14.999Z</time></trkpt><trkpt lat="43.08823178674057" lon="12.9513898218962"><ele>864.0000000000001</ele><time>2026-04-04T08:19:17.999Z</time></trkpt><trkpt lat="43.08820534635273" lon="12.951277185434565"><ele>862.0</ele><time>2026-04-04T08:19:19.999Z</time></trkpt><trkpt lat="43.088171531671755" lon="12.951193915260486"><ele>860.0</ele><time>2026-04-04T08:19:20.999Z</time></trkpt><trkpt lat="43.088243459845394" lon="12.951137645562435"><ele>858.0</ele><time>2026-04-04T08:19:23.999Z</time></trkpt><trkpt lat="43.08828814398609" lon="12.951030191777706"><ele>856.0000000000001</ele><time>2026-04-04T08:19:25.999Z</time></trkpt><trkpt lat="43.088317577173704" lon="12.950902383598063"><ele>854.0</ele><time>2026-04-04T08:19:27.999Z</time></trkpt><trkpt lat="43.08841102152205" lon="12.950821735617431"><ele>851.6</ele><time>2026-04-04T08:19:29.999Z</time></trkpt><trkpt lat="43.08852414648722" lon="12.950822745242524"><ele>849.2</ele><time>2026-04-04T08:19:32Z</time></trkpt><trkpt lat="43.08859414700772" lon="12.950789087521782"><ele>846.8000000000001</ele><time>2026-04-04T08:19:34Z</time></trkpt><trkpt lat="43.08871823267082" lon="12.9507473496158"><ele>844.4000000000001</ele><time>2026-04-04T08:19:36Z</time></trkpt><trkpt lat="43.088782873251276" lon="12.950733105810748"><ele>842.0</ele><time>2026-04-04T08:19:37Z</time></trkpt><trkpt lat="43.088895209092804" lon="12.950759162277167"><ele>842.0</ele><time>2026-04-04T08:19:39Z</time></trkpt><trkpt lat="43.08900859825641" lon="12.950767409310114"><ele>842.0</ele><time>2026-04-04T08:19:41Z</time></trkpt><trkpt lat="43.0890786410663" lon="12.950746308070757"><ele>842.0</ele><time>2026-04-04T08:19:42Z</time></trkpt><trkpt lat="43.08917146066633" lon="12.950739730071131"><ele>842.0</ele><time>2026-04-04T08:19:44Z</time></trkpt><trkpt lat="43.08925851023104" lon="12.950776320247309"><ele>842.0</ele><time>2026-04-04T08:19:46Z</time></trkpt><trkpt lat="43.089403179253424" lon="12.950777401411827"><ele>841.3333333333334</ele><time>2026-04-04T08:19:48Z</time></trkpt><trkpt lat="43.08948988710811" lon="12.950777912302428"><ele>840.6666666666667</ele><time>2026-04-04T08:19:49Z</time></trkpt><trkpt lat="43.08956497589157" lon="12.950756761025275"><ele>840.0</ele><time>2026-04-04T08:19:50Z</time></trkpt><trkpt lat="43.08964750716429" lon="12.950732811771752"><ele>839.3333333333333</ele><time>2026-04-04T08:19:51Z</time></trkpt><trkpt lat="43.08972125458309" lon="12.950701511032694"><ele>838.6666666666666</ele><time>2026-04-04T08:19:52Z</time></trkpt><trkpt lat="43.08980056782022" lon="12.950649010905249"><ele>838.0</ele><time>2026-04-04T08:19:53Z</time></trkpt><trkpt lat="43.08988196008936" lon="12.950591089988972"><ele>836.0</ele><time>2026-04-04T08:19:54Z</time></trkpt><trkpt lat="43.089959296748596" lon="12.950552896296045"><ele>834.0</ele><time>2026-04-04T08:19:55Z</time></trkpt><trkpt lat="43.09007246681091" lon="12.950559768467464"><ele>832.0</ele><time>2026-04-04T08:19:56Z</time></trkpt><trkpt lat="43.09017430618921" lon="12.9505966468246"><ele>830.0</ele><time>2026-04-04T08:19:57Z</time></trkpt><trkpt lat="43.09026068560122" lon="12.950629855749428"><ele>828.0</ele><time>2026-04-04T08:19:58Z</time></trkpt><trkpt lat="43.09032756071986" lon="12.950674435799094"><ele>828.0</ele><time>2026-04-04T08:19:59Z</time></trkpt><trkpt lat="43.09038532337839" lon="12.950710983373474"><ele>828.0</ele><time>2026-04-04T08:20:00Z</time></trkpt><trkpt lat="43.09046702999489" lon="12.950685835805631"><ele>828.0</ele><time>2026-04-04T08:20:02Z</time></trkpt><trkpt lat="43.09054022263397" lon="12.950736678191074"><ele>828.0</ele><time>2026-04-04T08:20:04Z</time></trkpt><trkpt lat="43.09063676458733" lon="12.950793826129168"><ele>828.0</ele><time>2026-04-04T08:20:06Z</time></trkpt><trkpt lat="43.09074520781649" lon="12.950895512848344"><ele>826.8333333333334</ele><time>2026-04-04T08:20:08Z</time></trkpt><trkpt lat="43.09079967458338" lon="12.950944798004782"><ele>825.6666666666667</ele><time>2026-04-04T08:20:09Z</time></trkpt><trkpt lat="43.09090011803604" lon="12.950960291023575"><ele>824.5</ele><time>2026-04-04T08:20:11Z</time></trkpt><trkpt lat="43.090948933335184" lon="12.950904568303777"><ele>823.3333333333334</ele><time>2026-04-04T08:20:14Z</time></trkpt><trkpt lat="43.091020288776264" lon="12.950780974773496"><ele>822.1666666666667</ele><time>2026-04-04T08:20:16Z</time></trkpt><trkpt lat="43.091054430389875" lon="12.95068587569295"><ele>821.0</ele><time>2026-04-04T08:20:17Z</time></trkpt><trkpt lat="43.09109386228462" lon="12.950586080721937"><ele>821.0000000000001</ele><time>2026-04-04T08:20:18Z</time></trkpt><trkpt lat="43.09111587560846" lon="12.950504243663067"><ele>821.0</ele><time>2026-04-04T08:20:19Z</time></trkpt><trkpt lat="43.091146035835614" lon="12.950426890245001"><ele>821.0</ele><time>2026-04-04T08:20:20Z</time></trkpt><trkpt lat="43.09120209184174" lon="12.950332147632603"><ele>821.0</ele><time>2026-04-04T08:20:21Z</time></trkpt><trkpt lat="43.09126431938687" lon="12.950229257449575"><ele>821.0000000000001</ele><time>2026-04-04T08:20:22Z</time></trkpt><trkpt lat="43.09131788370733" lon="12.95015760668244"><ele>821.0</ele><time>2026-04-04T08:20:23Z</time></trkpt><trkpt lat="43.09136568168446" lon="12.950085104978696"><ele>818.1666666666667</ele><time>2026-04-04T08:20:24Z</time></trkpt><trkpt lat="43.09141289598028" lon="12.950013626904362"><ele>815.3333333333334</ele><time>2026-04-04T08:20:25Z</time></trkpt><trkpt lat="43.09145320613926" lon="12.949945154346201"><ele>812.5</ele><time>2026-04-04T08:20:26Z</time></trkpt><trkpt lat="43.09155283617444" lon="12.949826189682266"><ele>809.6666666666667</ele><time>2026-04-04T08:20:27.999Z</time></trkpt><trkpt lat="43.091622408689794" lon="12.949785948157048"><ele>806.8333333333334</ele><time>2026-04-04T08:20:28.999Z</time></trkpt><trkpt lat="43.09170008731316" lon="12.949764894998474"><ele>804.0</ele><time>2026-04-04T08:20:29.999Z</time></trkpt><trkpt lat="43.09178599397521" lon="12.949753363681676"><ele>804.0</ele><time>2026-04-04T08:20:30.999Z</time></trkpt><trkpt lat="43.09188288940901" lon="12.949744059139228"><ele>804.0</ele><time>2026-04-04T08:20:31.999Z</time></trkpt><trkpt lat="43.091968999508765" lon="12.949746634074094"><ele>804.0</ele><time>2026-04-04T08:20:32.999Z</time></trkpt><trkpt lat="43.09206090485958" lon="12.949765115595302"><ele>804.0</ele><time>2026-04-04T08:20:33.999Z</time></trkpt><trkpt lat="43.092137739763174" lon="12.949785660551722"><ele>804.0</ele><time>2026-04-04T08:20:34.999Z</time></trkpt><trkpt lat="43.09221519488783" lon="12.9498114319886"><ele>804.0</ele><time>2026-04-04T08:20:35.999Z</time></trkpt><trkpt lat="43.092288314958864" lon="12.949810080118775"><ele>804.0</ele><time>2026-04-04T08:20:36.999Z</time></trkpt><trkpt lat="43.09238237826325" lon="12.94979492301575"><ele>804.0</ele><time>2026-04-04T08:20:37.999Z</time></trkpt><trkpt lat="43.09246226111136" lon="12.949804334227844"><ele>804.0</ele><time>2026-04-04T08:20:38.999Z</time></trkpt><trkpt lat="43.09253242285093" lon="12.949801055808033"><ele>804.0</ele><time>2026-04-04T08:20:39.999Z</time></trkpt><trkpt lat="43.09259735304033" lon="12.949790273281854"><ele>804.0</ele><time>2026-04-04T08:20:40.999Z</time></trkpt><trkpt lat="43.09271250490373" lon="12.949714722412558"><ele>804.0</ele><time>2026-04-04T08:20:42.999Z</time></trkpt><trkpt lat="43.09278867993378" lon="12.94966650111534"><ele>803.0</ele><time>2026-04-04T08:20:43.999Z</time></trkpt><trkpt lat="43.09286646580532" lon="12.949633405993374"><ele>802.0</ele><time>2026-04-04T08:20:44.999Z</time></trkpt><trkpt lat="43.09294474109423" lon="12.949616057452593"><ele>801.0</ele><time>2026-04-04T08:20:45.999Z</time></trkpt><trkpt lat="43.09300951643732" lon="12.949612673711549"><ele>800.0</ele><time>2026-04-04T08:20:46.999Z</time></trkpt><trkpt lat="43.09308595184738" lon="12.949605502020775"><ele>799.0</ele><time>2026-04-04T08:20:48.999Z</time></trkpt><trkpt lat="43.09318344128403" lon="12.949572456917924"><ele>798.0</ele><time>2026-04-04T08:20:51.999Z</time></trkpt><trkpt lat="43.09324820367185" lon="12.949541653339923"><ele>796.1666666666666</ele><time>2026-04-04T08:20:53.999Z</time></trkpt><trkpt lat="43.0933194935808" lon="12.949517271063112"><ele>794.3333333333333</ele><time>2026-04-04T08:20:55.999Z</time></trkpt><trkpt lat="43.093388121434" lon="12.949353410867891"><ele>792.5</ele><time>2026-04-04T08:20:57.999Z</time></trkpt><trkpt lat="43.093454969286356" lon="12.949364878834254"><ele>790.6666666666666</ele><time>2026-04-04T08:21:01.999Z</time></trkpt><trkpt lat="43.09353585430148" lon="12.94936365207245"><ele>788.8333333333333</ele><time>2026-04-04T08:21:35.999Z</time></trkpt><trkpt lat="43.093614434869174" lon="12.94939136177643"><ele>787.0</ele><time>2026-04-04T08:21:40Z</time></trkpt><trkpt lat="43.09354298724358" lon="12.949327171504718"><ele>787.0</ele><time>2026-04-04T08:21:44Z</time></trkpt><trkpt lat="43.093462865662815" lon="12.949319207622592"><ele>787.0</ele><time>2026-04-04T08:21:45Z</time></trkpt><trkpt lat="43.093374853221256" lon="12.949302479196023"><ele>787.0</ele><time>2026-04-04T08:21:46Z</time></trkpt><trkpt lat="43.093276484445894" lon="12.949281070008093"><ele>787.0</ele><time>2026-04-04T08:21:47Z</time></trkpt><trkpt lat="43.09317423291395" lon="12.949256506237447"><ele>787.0</ele><time>2026-04-04T08:21:48Z</time></trkpt><trkpt lat="43.09306988162609" lon="12.949231555720997"><ele>783.4000000000001</ele><time>2026-04-04T08:21:49Z</time></trkpt><trkpt lat="43.09296632029449" lon="12.949204787002207"><ele>779.8000000000001</ele><time>2026-04-04T08:21:50Z</time></trkpt><trkpt lat="43.09286361356417" lon="12.949173183167513"><ele>776.2</ele><time>2026-04-04T08:21:51Z</time></trkpt><trkpt lat="43.09275524118159" lon="12.949139994539735"><ele>772.6</ele><time>2026-04-04T08:21:52Z</time></trkpt><trkpt lat="43.09264381257879" lon="12.949107307354458"><ele>769.0</ele><time>2026-04-04T08:21:53Z</time></trkpt><trkpt lat="43.09252652471281" lon="12.949071174601924"><ele>769.0</ele><time>2026-04-04T08:21:54Z</time></trkpt><trkpt lat="43.092406748632385" lon="12.949029165944136"><ele>769.0</ele><time>2026-04-04T08:21:55Z</time></trkpt><trkpt lat="43.092279085396385" lon="12.948983738990036"><ele>769.0</ele><time>2026-04-04T08:21:56Z</time></trkpt><trkpt lat="43.092148298286844" lon="12.948930939365853"><ele>769.0</ele><time>2026-04-04T08:21:57Z</time></trkpt><trkpt lat="43.0920088104343" lon="12.948883168491841"><ele>769.0</ele><time>2026-04-04T08:21:58Z</time></trkpt><trkpt lat="43.09185644804044" lon="12.948841960306796"><ele>769.0</ele><time>2026-04-04T08:21:59Z</time></trkpt><trkpt lat="43.09168966492573" lon="12.94880697178453"><ele>769.0</ele><time>2026-04-04T08:22:00Z</time></trkpt><trkpt lat="43.09151961499016" lon="12.948766295602406"><ele>770.3333333333333</ele><time>2026-04-04T08:22:01Z</time></trkpt><trkpt lat="43.09134107648173" lon="12.948733372179408"><ele>771.6666666666667</ele><time>2026-04-04T08:22:02Z</time></trkpt><trkpt lat="43.09116203937228" lon="12.948720634205237"><ele>773.0</ele><time>2026-04-04T08:22:03Z</time></trkpt><trkpt lat="43.09099030179516" lon="12.948727934437855"><ele>773.0</ele><time>2026-04-04T08:22:04Z</time></trkpt><trkpt lat="43.09082561011771" lon="12.948742786419773"><ele>773.0</ele><time>2026-04-04T08:22:05Z</time></trkpt><trkpt lat="43.09066527998139" lon="12.948739416351229"><ele>773.0</ele><time>2026-04-04T08:22:06Z</time></trkpt><trkpt lat="43.090521675287" lon="12.948729088286475"><ele>776.0</ele><time>2026-04-04T08:22:07Z</time></trkpt><trkpt lat="43.090381942476526" lon="12.948708313929819"><ele>779.0</ele><time>2026-04-04T08:22:08Z</time></trkpt><trkpt lat="43.090246844086394" lon="12.948674563433416"><ele>782.0</ele><time>2026-04-04T08:22:09Z</time></trkpt><trkpt lat="43.09012232940088" lon="12.948606463667902"><ele>785.0</ele><time>2026-04-04T08:22:10Z</time></trkpt><trkpt lat="43.09001427415505" lon="12.94850844865447"><ele>787.5</ele><time>2026-04-04T08:22:11Z</time></trkpt><trkpt lat="43.089916571051276" lon="12.948401348653622"><ele>790.0</ele><time>2026-04-04T08:22:12Z</time></trkpt><trkpt lat="43.08981617762698" lon="12.94829890215891"><ele>792.5</ele><time>2026-04-04T08:22:13Z</time></trkpt><trkpt lat="43.08970890591217" lon="12.948195950570467"><ele>795.0</ele><time>2026-04-04T08:22:14Z</time></trkpt><trkpt lat="43.08958857044274" lon="12.948101030144123"><ele>785.75</ele><time>2026-04-04T08:22:15Z</time></trkpt><trkpt lat="43.08946152356902" lon="12.948016928616877"><ele>776.5</ele><time>2026-04-04T08:22:16Z</time></trkpt><trkpt lat="43.08933129414111" lon="12.947932215852155"><ele>767.25</ele><time>2026-04-04T08:22:17Z</time></trkpt><trkpt lat="43.08920541740676" lon="12.947852284404766"><ele>758.0</ele><time>2026-04-04T08:22:18Z</time></trkpt><trkpt lat="43.08907695517412" lon="12.947763516106676"><ele>756.0</ele><time>2026-04-04T08:22:19Z</time></trkpt><trkpt lat="43.08895658829503" lon="12.947680828380436"><ele>754.0</ele><time>2026-04-04T08:22:20Z</time></trkpt><trkpt lat="43.08883220307911" lon="12.947620218637105"><ele>752.0</ele><time>2026-04-04T08:22:21Z</time></trkpt><trkpt lat="43.088691663490046" lon="12.947590123192324"><ele>750.0</ele><time>2026-04-04T08:22:22Z</time></trkpt><trkpt lat="43.08855286152664" lon="12.947601003217656"><ele>750.0</ele><time>2026-04-04T08:22:23Z</time></trkpt><trkpt lat="43.08841429832888" lon="12.947646288045183"><ele>750.0</ele><time>2026-04-04T08:22:24Z</time></trkpt><trkpt lat="43.08827809617027" lon="12.947718986042654"><ele>750.0</ele><time>2026-04-04T08:22:25Z</time></trkpt><trkpt lat="43.08815162025706" lon="12.947807902873317"><ele>750.0</ele><time>2026-04-04T08:22:26Z</time></trkpt><trkpt lat="43.08801731432172" lon="12.947902292957714"><ele>743.25</ele><time>2026-04-04T08:22:27Z</time></trkpt><trkpt lat="43.08787119612905" lon="12.947960400132244"><ele>736.5</ele><time>2026-04-04T08:22:28Z</time></trkpt><trkpt lat="43.08772919298602" lon="12.947982803105694"><ele>729.75</ele><time>2026-04-04T08:22:29Z</time></trkpt><trkpt lat="43.087588136016336" lon="12.948007681566901"><ele>723.0</ele><time>2026-04-04T08:22:30Z</time></trkpt><trkpt lat="43.087447262096255" lon="12.94805831481034"><ele>718.6666666666666</ele><time>2026-04-04T08:22:31Z</time></trkpt><trkpt lat="43.08731505113924" lon="12.948148771398607"><ele>714.3333333333333</ele><time>2026-04-04T08:22:32Z</time></trkpt><trkpt lat="43.08719440680038" lon="12.948280267628453"><ele>710.0</ele><time>2026-04-04T08:22:33Z</time></trkpt><trkpt lat="43.087077649817004" lon="12.948434055121043"><ele>710.0</ele><time>2026-04-04T08:22:34Z</time></trkpt><trkpt lat="43.08695343712817" lon="12.948588889473195"><ele>710.0</ele><time>2026-04-04T08:22:35Z</time></trkpt><trkpt lat="43.08681671037837" lon="12.948728381069891"><ele>710.0</ele><time>2026-04-04T08:22:35.999Z</time></trkpt><trkpt lat="43.08668913974538" lon="12.948885747055893"><ele>708.6666666666666</ele><time>2026-04-04T08:22:36.999Z</time></trkpt><trkpt lat="43.086563952500306" lon="12.949054638405821"><ele>707.3333333333334</ele><time>2026-04-04T08:22:37.999Z</time></trkpt><trkpt lat="43.086471516584936" lon="12.949265422373925"><ele>706.0</ele><time>2026-04-04T08:22:38.999Z</time></trkpt><trkpt lat="43.08636730432426" lon="12.949457151156036"><ele>702.6666666666667</ele><time>2026-04-04T08:22:39.999Z</time></trkpt><trkpt lat="43.08621716869297" lon="12.94956480904994"><ele>699.3333333333334</ele><time>2026-04-04T08:22:40.999Z</time></trkpt><trkpt lat="43.08607020796169" lon="12.949693117770979"><ele>696.0</ele><time>2026-04-04T08:22:41.999Z</time></trkpt><trkpt lat="43.08595367518336" lon="12.949859059906215"><ele>696.0</ele><time>2026-04-04T08:22:42.999Z</time></trkpt><trkpt lat="43.08583882731814" lon="12.950026719489918"><ele>696.0</ele><time>2026-04-04T08:22:43.999Z</time></trkpt><trkpt lat="43.08573033485632" lon="12.950205428746466"><ele>696.0</ele><time>2026-04-04T08:22:44.999Z</time></trkpt><trkpt lat="43.085628909897565" lon="12.950393863351325"><ele>697.3333333333334</ele><time>2026-04-04T08:22:45.999Z</time></trkpt><trkpt lat="43.08553093180914" lon="12.950588252651103"><ele>698.6666666666667</ele><time>2026-04-04T08:22:46.999Z</time></trkpt><trkpt lat="43.085428085688946" lon="12.950780045020291"><ele>700.0</ele><time>2026-04-04T08:22:47.999Z</time></trkpt><trkpt lat="43.08530115063693" lon="12.950937811236232"><ele>700.0</ele><time>2026-04-04T08:22:48.999Z</time></trkpt><trkpt lat="43.085184230192226" lon="12.95112110585907"><ele>700.0</ele><time>2026-04-04T08:22:49.999Z</time></trkpt><trkpt lat="43.08505427798724" lon="12.951277870999052"><ele>700.0</ele><time>2026-04-04T08:22:50.999Z</time></trkpt><trkpt lat="43.084941006670576" lon="12.951428014072913"><ele>695.3333333333334</ele><time>2026-04-04T08:22:51.999Z</time></trkpt><trkpt lat="43.084848579589185" lon="12.951589076411391"><ele>690.6666666666666</ele><time>2026-04-04T08:22:52.999Z</time></trkpt><trkpt lat="43.08477797937257" lon="12.951768880230317"><ele>686.0</ele><time>2026-04-04T08:22:53.999Z</time></trkpt><trkpt lat="43.0847443175775" lon="12.951976836190795"><ele>684.6666666666666</ele><time>2026-04-04T08:22:54.999Z</time></trkpt><trkpt lat="43.08473508673393" lon="12.952189741026444"><ele>683.3333333333334</ele><time>2026-04-04T08:22:55.999Z</time></trkpt><trkpt lat="43.08471016669091" lon="12.952396064217902"><ele>682.0</ele><time>2026-04-04T08:22:56.999Z</time></trkpt><trkpt lat="43.08464898359751" lon="12.952573091508533"><ele>682.0</ele><time>2026-04-04T08:22:57.999Z</time></trkpt><trkpt lat="43.08460152380033" lon="12.952757330868993"><ele>682.0</ele><time>2026-04-04T08:22:58.999Z</time></trkpt><trkpt lat="43.08452910892701" lon="12.952919985601493"><ele>682.0</ele><time>2026-04-04T08:22:59.999Z</time></trkpt><trkpt lat="43.08444728665167" lon="12.953083325246958"><ele>682.0</ele><time>2026-04-04T08:23:00.999Z</time></trkpt><trkpt lat="43.08435927097294" lon="12.953255272044165"><ele>678.6666666666667</ele><time>2026-04-04T08:23:01.999Z</time></trkpt><trkpt lat="43.08427599818114" lon="12.953419069819011"><ele>675.3333333333334</ele><time>2026-04-04T08:23:02.999Z</time></trkpt><trkpt lat="43.08418121541609" lon="12.953579997107697"><ele>672.0</ele><time>2026-04-04T08:23:03.999Z</time></trkpt><trkpt lat="43.084074408240625" lon="12.95373263935973"><ele>672.0</ele><time>2026-04-04T08:23:04.999Z</time></trkpt><trkpt lat="43.08395207232247" lon="12.953877887343559"><ele>672.0</ele><time>2026-04-04T08:23:05.999Z</time></trkpt><trkpt lat="43.08382053115705" lon="12.954000508551648"><ele>672.0</ele><time>2026-04-04T08:23:06.999Z</time></trkpt><trkpt lat="43.08370088679465" lon="12.954124092702827"><ele>678.6666666666666</ele><time>2026-04-04T08:23:07.999Z</time></trkpt><trkpt lat="43.08358018987291" lon="12.954254378126354"><ele>685.3333333333333</ele><time>2026-04-04T08:23:08.999Z</time></trkpt><trkpt lat="43.08345754067807" lon="12.954390501070563"><ele>692.0</ele><time>2026-04-04T08:23:09.999Z</time></trkpt><trkpt lat="43.08333351215879" lon="12.954528582702748"><ele>684.0</ele><time>2026-04-04T08:23:10.999Z</time></trkpt><trkpt lat="43.08321876964508" lon="12.954682462345946"><ele>676.0</ele><time>2026-04-04T08:23:11.999Z</time></trkpt><trkpt lat="43.0830854481383" lon="12.954818419581136"><ele>668.0</ele><time>2026-04-04T08:23:12.999Z</time></trkpt><trkpt lat="43.08295648729128" lon="12.954959139376246"><ele>672.0</ele><time>2026-04-04T08:23:13.999Z</time></trkpt><trkpt lat="43.08283152513056" lon="12.955101389467112"><ele>676.0</ele><time>2026-04-04T08:23:14.999Z</time></trkpt><trkpt lat="43.08271327419851" lon="12.955232435778495"><ele>680.0</ele><time>2026-04-04T08:23:15.999Z</time></trkpt><trkpt lat="43.08257162257664" lon="12.955313633502081"><ele>680.0</ele><time>2026-04-04T08:23:16.999Z</time></trkpt><trkpt lat="43.08243510684304" lon="12.955383423712254"><ele>680.0</ele><time>2026-04-04T08:23:17.999Z</time></trkpt><trkpt lat="43.082298195445" lon="12.955479780434924"><ele>680.0</ele><time>2026-04-04T08:23:18.999Z</time></trkpt><trkpt lat="43.0821743630954" lon="12.955575723502394"><ele>680.0</ele><time>2026-04-04T08:23:19.999Z</time></trkpt><trkpt lat="43.0820690271923" lon="12.955714844590641"><ele>673.0</ele><time>2026-04-04T08:23:20.999Z</time></trkpt><trkpt lat="43.081999151439" lon="12.955901014545915"><ele>666.0</ele><time>2026-04-04T08:23:21.999Z</time></trkpt><trkpt lat="43.08195500909911" lon="12.956118583558089"><ele>659.0</ele><time>2026-04-04T08:23:22.999Z</time></trkpt><trkpt lat="43.08190989291628" lon="12.956326798297544"><ele>659.0</ele><time>2026-04-04T08:23:23.999Z</time></trkpt><trkpt lat="43.08185441689898" lon="12.9565255543646"><ele>659.0</ele><time>2026-04-04T08:23:24.999Z</time></trkpt><trkpt lat="43.08179882820658" lon="12.956720671537186"><ele>659.0</ele><time>2026-04-04T08:23:25.999Z</time></trkpt><trkpt lat="43.08174358165118" lon="12.956919040976016"><ele>660.75</ele><time>2026-04-04T08:23:26.999Z</time></trkpt><trkpt lat="43.08168842931777" lon="12.957117835727827"><ele>662.5</ele><time>2026-04-04T08:23:27.999Z</time></trkpt><trkpt lat="43.08162311395206" lon="12.957298815060364"><ele>664.25</ele><time>2026-04-04T08:23:28.999Z</time></trkpt><trkpt lat="43.08152602596917" lon="12.95743517044408"><ele>666.0</ele><time>2026-04-04T08:23:29.999Z</time></trkpt><trkpt lat="43.08142936806246" lon="12.957589083469742"><ele>666.6666666666666</ele><time>2026-04-04T08:23:30.999Z</time></trkpt><trkpt lat="43.08131865267814" lon="12.957731693590956"><ele>667.3333333333333</ele><time>2026-04-04T08:23:31.999Z</time></trkpt><trkpt lat="43.08120434650144" lon="12.95787728204787"><ele>668.0</ele><time>2026-04-04T08:23:32.999Z</time></trkpt><trkpt lat="43.08107700107984" lon="12.957996218472408"><ele>668.0</ele><time>2026-04-04T08:23:33.999Z</time></trkpt><trkpt lat="43.0809588309008" lon="12.95812539131817"><ele>668.0</ele><time>2026-04-04T08:23:34.999Z</time></trkpt><trkpt lat="43.08084011638601" lon="12.9582603553701"><ele>668.0</ele><time>2026-04-04T08:23:35.999Z</time></trkpt><trkpt lat="43.08070846094187" lon="12.958340770186952"><ele>665.25</ele><time>2026-04-04T08:23:36.999Z</time></trkpt><trkpt lat="43.080562252197524" lon="12.958367963317777"><ele>662.5</ele><time>2026-04-04T08:23:37.999Z</time></trkpt><trkpt lat="43.08041338038966" lon="12.958377979759424"><ele>659.75</ele><time>2026-04-04T08:23:38.999Z</time></trkpt><trkpt lat="43.080269854542635" lon="12.958366363995003"><ele>657.0</ele><time>2026-04-04T08:23:39.999Z</time></trkpt><trkpt lat="43.080128459171625" lon="12.958338543006517"><ele>657.0</ele><time>2026-04-04T08:23:40.999Z</time></trkpt><trkpt lat="43.07998209318949" lon="12.958297887289774"><ele>657.0</ele><time>2026-04-04T08:23:42Z</time></trkpt><trkpt lat="43.07984433843448" lon="12.958252076609718"><ele>657.0</ele><time>2026-04-04T08:23:43Z</time></trkpt><trkpt lat="43.07970623642854" lon="12.958225169895293"><ele>657.0</ele><time>2026-04-04T08:23:44Z</time></trkpt><trkpt lat="43.07957194717365" lon="12.958215086473217"><ele>658.25</ele><time>2026-04-04T08:23:45Z</time></trkpt><trkpt lat="43.07943500716336" lon="12.95822877795414"><ele>659.5</ele><time>2026-04-04T08:23:46Z</time></trkpt><trkpt lat="43.07928942777423" lon="12.958313700623668"><ele>660.75</ele><time>2026-04-04T08:23:47Z</time></trkpt><trkpt lat="43.07914430692232" lon="12.958380355271972"><ele>662.0</ele><time>2026-04-04T08:23:48Z</time></trkpt><trkpt lat="43.07899759103072" lon="12.958454054334782"><ele>662.0</ele><time>2026-04-04T08:23:49Z</time></trkpt><trkpt lat="43.07884823690511" lon="12.958532304222826"><ele>662.0</ele><time>2026-04-04T08:23:50Z</time></trkpt><trkpt lat="43.078697323534755" lon="12.958607730693002"><ele>662.0</ele><time>2026-04-04T08:23:51Z</time></trkpt><trkpt lat="43.07854743539132" lon="12.958680315577872"><ele>662.0</ele><time>2026-04-04T08:23:52Z</time></trkpt><trkpt lat="43.07839556939578" lon="12.95874735962766"><ele>662.0</ele><time>2026-04-04T08:23:53Z</time></trkpt><trkpt lat="43.0782433658652" lon="12.958809561076984"><ele>662.0</ele><time>2026-04-04T08:23:54Z</time></trkpt><trkpt lat="43.07809176072167" lon="12.958867363284485"><ele>657.3333333333333</ele><time>2026-04-04T08:23:55Z</time></trkpt><trkpt lat="43.07793342779658" lon="12.958894613079037"><ele>652.6666666666666</ele><time>2026-04-04T08:23:56Z</time></trkpt><trkpt lat="43.077780586476955" lon="12.958921200199473"><ele>648.0</ele><time>2026-04-04T08:23:57Z</time></trkpt><trkpt lat="43.07763879235754" lon="12.9589278078659"><ele>648.0</ele><time>2026-04-04T08:23:58Z</time></trkpt><trkpt lat="43.07750108976557" lon="12.958927935214433"><ele>648.0</ele><time>2026-04-04T08:23:59Z</time></trkpt><trkpt lat="43.07736708080826" lon="12.958926868851712"><ele>648.0</ele><time>2026-04-04T08:24:00Z</time></trkpt><trkpt lat="43.07724658316081" lon="12.958924702803143"><ele>648.0</ele><time>2026-04-04T08:24:01Z</time></trkpt><trkpt lat="43.07714327367317" lon="12.958915149456228"><ele>645.8</ele><time>2026-04-04T08:24:02Z</time></trkpt><trkpt lat="43.07704924301218" lon="12.958884330219329"><ele>643.5999999999999</ele><time>2026-04-04T08:24:03Z</time></trkpt><trkpt lat="43.076953365537875" lon="12.958842983967385"><ele>641.4000000000001</ele><time>2026-04-04T08:24:04Z</time></trkpt><trkpt lat="43.07689651297449" lon="12.958718925115846"><ele>639.2</ele><time>2026-04-04T08:24:05Z</time></trkpt><trkpt lat="43.07682782059538" lon="12.958627582503505"><ele>637.0</ele><time>2026-04-04T08:24:06Z</time></trkpt><trkpt lat="43.07675295144945" lon="12.958557673260156"><ele>637.0</ele><time>2026-04-04T08:24:07Z</time></trkpt><trkpt lat="43.076691541745625" lon="12.958477608345092"><ele>637.0</ele><time>2026-04-04T08:24:08Z</time></trkpt><trkpt lat="43.07664334525403" lon="12.95838736534512"><ele>637.0</ele><time>2026-04-04T08:24:09Z</time></trkpt><trkpt lat="43.07659267890187" lon="12.958319664442476"><ele>637.0</ele><time>2026-04-04T08:24:10Z</time></trkpt><trkpt lat="43.076544590280555" lon="12.95825495473769"><ele>637.0</ele><time>2026-04-04T08:24:11Z</time></trkpt><trkpt lat="43.076499828473466" lon="12.95819331114734"><ele>637.0</ele><time>2026-04-04T08:24:13Z</time></trkpt><trkpt lat="43.076643182419296" lon="12.958218903644898"><ele>637.0</ele><time>2026-04-04T08:24:16Z</time></trkpt><trkpt lat="43.07671343330682" lon="12.958281905461115"><ele>637.0</ele><time>2026-04-04T08:24:17Z</time></trkpt><trkpt lat="43.076796944874495" lon="12.95832196133474"><ele>637.0</ele><time>2026-04-04T08:24:18Z</time></trkpt><trkpt lat="43.07686733881146" lon="12.958347138029865"><ele>637.0</ele><time>2026-04-04T08:24:19Z</time></trkpt><trkpt lat="43.076801421118944" lon="12.958471185584436"><ele>637.0</ele><time>2026-04-04T08:24:23Z</time></trkpt><trkpt lat="43.07674379086748" lon="12.958535606833932"><ele>637.0</ele><time>2026-04-04T08:24:24Z</time></trkpt><trkpt lat="43.076690054206004" lon="12.958584498101098"><ele>637.0</ele><time>2026-04-04T08:24:25Z</time></trkpt><trkpt lat="43.07662046383588" lon="12.958640990608455"><ele>637.0</ele><time>2026-04-04T08:24:26Z</time></trkpt><trkpt lat="43.076552107808546" lon="12.958690704612858"><ele>637.0</ele><time>2026-04-04T08:24:27Z</time></trkpt><trkpt lat="43.07649197387046" lon="12.958733948094757"><ele>637.0</ele><time>2026-04-04T08:24:28Z</time></trkpt><trkpt lat="43.0763922545419" lon="12.958740076432573"><ele>637.0</ele><time>2026-04-04T08:24:30Z</time></trkpt><trkpt lat="43.07627124026095" lon="12.95873541824638"><ele>637.0</ele><time>2026-04-04T08:24:32Z</time></trkpt><trkpt lat="43.07619587327575" lon="12.9587383061197"><ele>635.8333333333334</ele><time>2026-04-04T08:24:33Z</time></trkpt><trkpt lat="43.07612413005285" lon="12.958735418300495"><ele>634.6666666666667</ele><time>2026-04-04T08:24:34Z</time></trkpt><trkpt lat="43.07604960288004" lon="12.958727329466086"><ele>633.5</ele><time>2026-04-04T08:24:35Z</time></trkpt><trkpt lat="43.075973747707295" lon="12.95871748111969"><ele>632.3333333333334</ele><time>2026-04-04T08:24:36Z</time></trkpt><trkpt lat="43.07586896367466" lon="12.958703080640108"><ele>631.1666666666666</ele><time>2026-04-04T08:24:38Z</time></trkpt><trkpt lat="43.07577672552824" lon="12.958704951687558"><ele>630.0</ele><time>2026-04-04T08:24:40Z</time></trkpt><trkpt lat="43.07571369821935" lon="12.95867677346384"><ele>628.8</ele><time>2026-04-04T08:24:44Z</time></trkpt><trkpt lat="43.07566605048742" lon="12.958749008988967"><ele>627.6</ele><time>2026-04-04T08:24:45Z</time></trkpt><trkpt lat="43.0756065067333" lon="12.958667266746868"><ele>626.4</ele><time>2026-04-04T08:24:46Z</time></trkpt><trkpt lat="43.075531319492" lon="12.95866059844892"><ele>625.2</ele><time>2026-04-04T08:24:46.999Z</time></trkpt><trkpt lat="43.075451300075954" lon="12.958653501589065"><ele>624.0</ele><time>2026-04-04T08:24:47.999Z</time></trkpt><trkpt lat="43.07537699038439" lon="12.958827535147163"><ele>624.0</ele><time>2026-04-04T08:24:48.999Z</time></trkpt><trkpt lat="43.07530762706276" lon="12.958809304316455"><ele>624.0</ele><time>2026-04-04T08:24:49.999Z</time></trkpt><trkpt lat="43.07524237837023" lon="12.958788955040903"><ele>624.0</ele><time>2026-04-04T08:24:50.999Z</time></trkpt><trkpt lat="43.075180984540246" lon="12.958818069134992"><ele>624.0</ele><time>2026-04-04T08:24:51.999Z</time></trkpt><trkpt lat="43.07512045288493" lon="12.958890666591637"><ele>624.0</ele><time>2026-04-04T08:24:52.999Z</time></trkpt><trkpt lat="43.07502398706314" lon="12.95894459325849"><ele>624.0</ele><time>2026-04-04T08:24:54.999Z</time></trkpt><trkpt lat="43.074969517339326" lon="12.958859338564581"><ele>630.6</ele><time>2026-04-04T08:24:57.999Z</time></trkpt><trkpt lat="43.07493515441857" lon="12.958765995338652"><ele>637.2</ele><time>2026-04-04T08:24:58.999Z</time></trkpt><trkpt lat="43.07489622147512" lon="12.958640486123816"><ele>643.8000000000001</ele><time>2026-04-04T08:24:59.999Z</time></trkpt><trkpt lat="43.07485531207017" lon="12.958524353944421"><ele>650.4</ele><time>2026-04-04T08:25:00.999Z</time></trkpt><trkpt lat="43.07481509272697" lon="12.958399371076442"><ele>657.0</ele><time>2026-04-04T08:25:01.999Z</time></trkpt><trkpt lat="43.07476876362862" lon="12.958275444826569"><ele>657.0</ele><time>2026-04-04T08:25:02.999Z</time></trkpt><trkpt lat="43.07471742936769" lon="12.958143653907312"><ele>657.0</ele><time>2026-04-04T08:25:03.999Z</time></trkpt><trkpt lat="43.07467557266258" lon="12.958034820535818"><ele>657.0</ele><time>2026-04-04T08:25:04.999Z</time></trkpt><trkpt lat="43.074642471526595" lon="12.95789838346577"><ele>657.0</ele><time>2026-04-04T08:25:05.999Z</time></trkpt><trkpt lat="43.07456833762184" lon="12.957737504044525"><ele>657.0</ele><time>2026-04-04T08:25:06.999Z</time></trkpt><trkpt lat="43.074510990856346" lon="12.957580891556825"><ele>653.25</ele><time>2026-04-04T08:25:07.999Z</time></trkpt><trkpt lat="43.074438919688625" lon="12.957428713448287"><ele>649.5</ele><time>2026-04-04T08:25:08.999Z</time></trkpt><trkpt lat="43.07436463820657" lon="12.95729762109591"><ele>645.75</ele><time>2026-04-04T08:25:09.999Z</time></trkpt><trkpt lat="43.074293631458545" lon="12.957185035241396"><ele>642.0</ele><time>2026-04-04T08:25:10.999Z</time></trkpt><trkpt lat="43.07421874843739" lon="12.957075919547345"><ele>642.0</ele><time>2026-04-04T08:25:11.999Z</time></trkpt><trkpt lat="43.074136381304264" lon="12.956973121295063"><ele>642.0</ele><time>2026-04-04T08:25:12.999Z</time></trkpt><trkpt lat="43.074063312047784" lon="12.956852008769319"><ele>642.0</ele><time>2026-04-04T08:25:13.999Z</time></trkpt><trkpt lat="43.073976958321516" lon="12.956752219520626"><ele>642.0</ele><time>2026-04-04T08:25:14.999Z</time></trkpt><trkpt lat="43.073885509718124" lon="12.956650111150976"><ele>642.75</ele><time>2026-04-04T08:25:15.999Z</time></trkpt><trkpt lat="43.07379013008038" lon="12.956555964569873"><ele>643.5</ele><time>2026-04-04T08:25:16.999Z</time></trkpt><trkpt lat="43.07369032106396" lon="12.956464142802641"><ele>644.25</ele><time>2026-04-04T08:25:17.999Z</time></trkpt><trkpt lat="43.07358753079555" lon="12.95637542009467"><ele>645.0</ele><time>2026-04-04T08:25:18.999Z</time></trkpt><trkpt lat="43.073481614251705" lon="12.956284762848037"><ele>645.0</ele><time>2026-04-04T08:25:19.999Z</time></trkpt><trkpt lat="43.07338395997816" lon="12.95618799547739"><ele>645.0</ele><time>2026-04-04T08:25:20.999Z</time></trkpt><trkpt lat="43.07329090557" lon="12.956092962481499"><ele>645.0</ele><time>2026-04-04T08:25:21.999Z</time></trkpt><trkpt lat="43.07320798029381" lon="12.956008039345445"><ele>645.0</ele><time>2026-04-04T08:25:22.999Z</time></trkpt><trkpt lat="43.07312987383707" lon="12.955928051343058"><ele>645.0</ele><time>2026-04-04T08:25:23.999Z</time></trkpt><trkpt lat="43.073056273175766" lon="12.95585046071304"><ele>645.8</ele><time>2026-04-04T08:25:24.999Z</time></trkpt><trkpt lat="43.07297304736075" lon="12.955760947456296"><ele>646.6</ele><time>2026-04-04T08:25:25.999Z</time></trkpt><trkpt lat="43.07288999552392" lon="12.955665822996703"><ele>647.4000000000001</ele><time>2026-04-04T08:25:26.999Z</time></trkpt><trkpt lat="43.07281061235328" lon="12.955555286738461"><ele>648.2</ele><time>2026-04-04T08:25:27.999Z</time></trkpt><trkpt lat="43.072730769058985" lon="12.955440290937577"><ele>649.0</ele><time>2026-04-04T08:25:28.999Z</time></trkpt><trkpt lat="43.072639182628976" lon="12.955327033056319"><ele>649.0</ele><time>2026-04-04T08:25:29.999Z</time></trkpt><trkpt lat="43.07257507370432" lon="12.955175215311975"><ele>649.0</ele><time>2026-04-04T08:25:30.999Z</time></trkpt><trkpt lat="43.072487757010734" lon="12.955051788039672"><ele>649.0</ele><time>2026-04-04T08:25:31.999Z</time></trkpt><trkpt lat="43.07242139723706" lon="12.95491353713362"><ele>649.0</ele><time>2026-04-04T08:25:32.999Z</time></trkpt><trkpt lat="43.072352856841604" lon="12.954792714174916"><ele>649.6666666666667</ele><time>2026-04-04T08:25:33.999Z</time></trkpt><trkpt lat="43.072304982217624" lon="12.954683534581159"><ele>650.3333333333334</ele><time>2026-04-04T08:25:34.999Z</time></trkpt><trkpt lat="43.072226785032036" lon="12.95463717492739"><ele>651.0</ele><time>2026-04-04T08:25:35.999Z</time></trkpt><trkpt lat="43.07216438150082" lon="12.954566856050018"><ele>651.6666666666666</ele><time>2026-04-04T08:25:36.999Z</time></trkpt><trkpt lat="43.07210965904367" lon="12.95446469713055"><ele>652.3333333333333</ele><time>2026-04-04T08:25:37.999Z</time></trkpt><trkpt lat="43.072049037209446" lon="12.954371785401644"><ele>653.0</ele><time>2026-04-04T08:25:38.999Z</time></trkpt><trkpt lat="43.07199679338064" lon="12.954266949376349"><ele>651.5</ele><time>2026-04-04T08:25:39.999Z</time></trkpt><trkpt lat="43.071951509383226" lon="12.954169833254744"><ele>650.0</ele><time>2026-04-04T08:25:40.999Z</time></trkpt><trkpt lat="43.07190840294956" lon="12.954080426869508"><ele>648.5</ele><time>2026-04-04T08:25:41.999Z</time></trkpt><trkpt lat="43.07186153182724" lon="12.953978647770068"><ele>647.0</ele><time>2026-04-04T08:25:43.999Z</time></trkpt><trkpt lat="43.07185188554404" lon="12.953858517419679"><ele>645.5</ele><time>2026-04-04T08:25:46.999Z</time></trkpt><trkpt lat="43.07180300631379" lon="12.953802487124563"><ele>644.0</ele><time>2026-04-04T08:25:49Z</time></trkpt><trkpt lat="43.07167653506387" lon="12.95385734897821"><ele>646.2</ele><time>2026-04-04T08:25:51Z</time></trkpt><trkpt lat="43.07159817625152" lon="12.953898654923723"><ele>648.4000000000001</ele><time>2026-04-04T08:25:52Z</time></trkpt><trkpt lat="43.071513497613346" lon="12.953930291621857"><ele>650.6</ele><time>2026-04-04T08:25:53Z</time></trkpt><trkpt lat="43.07141577849945" lon="12.953937336505465"><ele>652.8</ele><time>2026-04-04T08:25:54Z</time></trkpt><trkpt lat="43.07133343497017" lon="12.954029391774652"><ele>655.0</ele><time>2026-04-04T08:25:55Z</time></trkpt><trkpt lat="43.07124847471488" lon="12.954123087526877"><ele>654.5</ele><time>2026-04-04T08:25:56Z</time></trkpt><trkpt lat="43.071162130287036" lon="12.954219765338676"><ele>654.0</ele><time>2026-04-04T08:25:57Z</time></trkpt><trkpt lat="43.071067916110714" lon="12.954314385034122"><ele>653.5</ele><time>2026-04-04T08:25:58Z</time></trkpt><trkpt lat="43.070970494622244" lon="12.954403332020929"><ele>653.0</ele><time>2026-04-04T08:25:59Z</time></trkpt><trkpt lat="43.07087692490801" lon="12.954486341760344"><ele>653.0</ele><time>2026-04-04T08:26:00Z</time></trkpt><trkpt lat="43.07077667378625" lon="12.954573845347182"><ele>653.0</ele><time>2026-04-04T08:26:01Z</time></trkpt><trkpt lat="43.07066605927753" lon="12.954667954280007"><ele>653.0</ele><time>2026-04-04T08:26:02Z</time></trkpt><trkpt lat="43.070551660487716" lon="12.954762228354326"><ele>653.0</ele><time>2026-04-04T08:26:03Z</time></trkpt><trkpt lat="43.07043593925251" lon="12.954868561389612"><ele>654.75</ele><time>2026-04-04T08:26:04Z</time></trkpt><trkpt lat="43.07034494727227" lon="12.955020205508275"><ele>656.5</ele><time>2026-04-04T08:26:05Z</time></trkpt><trkpt lat="43.07028046032547" lon="12.955192916781888"><ele>658.25</ele><time>2026-04-04T08:26:06Z</time></trkpt><trkpt lat="43.07016773039417" lon="12.955208583214123"><ele>660.0</ele><time>2026-04-04T08:26:07Z</time></trkpt><trkpt lat="43.07005655443256" lon="12.955311927246521"><ele>665.6666666666666</ele><time>2026-04-04T08:26:08Z</time></trkpt><trkpt lat="43.069937119293094" lon="12.955422689714272"><ele>671.3333333333333</ele><time>2026-04-04T08:26:09Z</time></trkpt><trkpt lat="43.06980781602588" lon="12.955558226312556"><ele>677.0</ele><time>2026-04-04T08:26:10Z</time></trkpt><trkpt lat="43.06970407631753" lon="12.955705407760778"><ele>677.0</ele><time>2026-04-04T08:26:11Z</time></trkpt><trkpt lat="43.0696196739146" lon="12.95582476179324"><ele>677.0</ele><time>2026-04-04T08:26:12Z</time></trkpt><trkpt lat="43.069534519460866" lon="12.955956213883256"><ele>677.0</ele><time>2026-04-04T08:26:13Z</time></trkpt><trkpt lat="43.06944954441038" lon="12.956049553791319"><ele>677.0</ele><time>2026-04-04T08:26:14Z</time></trkpt><trkpt lat="43.06936233768561" lon="12.956141931185147"><ele>678.5</ele><time>2026-04-04T08:26:15Z</time></trkpt><trkpt lat="43.069263236442296" lon="12.956240718969477"><ele>680.0</ele><time>2026-04-04T08:26:16Z</time></trkpt><trkpt lat="43.06915991584964" lon="12.956334595375699"><ele>681.5</ele><time>2026-04-04T08:26:17Z</time></trkpt><trkpt lat="43.0690548034008" lon="12.956413381450348"><ele>683.0</ele><time>2026-04-04T08:26:18Z</time></trkpt><trkpt lat="43.068943710961676" lon="12.956482169606018"><ele>683.0</ele><time>2026-04-04T08:26:19Z</time></trkpt><trkpt lat="43.068817593634165" lon="12.956565485452563"><ele>683.0</ele><time>2026-04-04T08:26:20Z</time></trkpt><trkpt lat="43.068683485440246" lon="12.956662832668577"><ele>683.0</ele><time>2026-04-04T08:26:21Z</time></trkpt><trkpt lat="43.06854668484297" lon="12.956764417655942"><ele>683.0</ele><time>2026-04-04T08:26:22Z</time></trkpt><trkpt lat="43.06840675006976" lon="12.956868203738493"><ele>683.6666666666666</ele><time>2026-04-04T08:26:23Z</time></trkpt><trkpt lat="43.068264960092954" lon="12.956971425186783"><ele>684.3333333333334</ele><time>2026-04-04T08:26:23.999Z</time></trkpt><trkpt lat="43.06812733890746" lon="12.957071611614737"><ele>685.0</ele><time>2026-04-04T08:26:24.999Z</time></trkpt><trkpt lat="43.06798389216901" lon="12.95717603908446"><ele>685.0</ele><time>2026-04-04T08:26:25.999Z</time></trkpt><trkpt lat="43.0678397733045" lon="12.957282341322838"><ele>685.0</ele><time>2026-04-04T08:26:26.999Z</time></trkpt><trkpt lat="43.06770275651692" lon="12.957397017780504"><ele>685.0</ele><time>2026-04-04T08:26:27.999Z</time></trkpt><trkpt lat="43.067567399390484" lon="12.957513421499089"><ele>686.25</ele><time>2026-04-04T08:26:28.999Z</time></trkpt><trkpt lat="43.06743947679189" lon="12.957623432635822"><ele>687.5</ele><time>2026-04-04T08:26:29.999Z</time></trkpt><trkpt lat="43.06729417816206" lon="12.957668855578238"><ele>688.75</ele><time>2026-04-04T08:26:30.999Z</time></trkpt><trkpt lat="43.06717462605969" lon="12.957733868345464"><ele>690.0</ele><time>2026-04-04T08:26:31.999Z</time></trkpt><trkpt lat="43.067101289464716" lon="12.957763787389947"><ele>690.0</ele><time>2026-04-04T08:26:32.999Z</time></trkpt><trkpt lat="43.067009470719775" lon="12.957803523302202"><ele>690.0</ele><time>2026-04-04T08:26:34.999Z</time></trkpt><trkpt lat="43.066925143304466" lon="12.957859813060224"><ele>690.0</ele><time>2026-04-04T08:26:36.999Z</time></trkpt><trkpt lat="43.06687135980705" lon="12.957907076879652"><ele>690.0</ele><time>2026-04-04T08:26:37.999Z</time></trkpt><trkpt lat="43.0668091756773" lon="12.957967220595432"><ele>690.0</ele><time>2026-04-04T08:26:38.999Z</time></trkpt><trkpt lat="43.066734718887886" lon="12.958029659619806"><ele>690.0</ele><time>2026-04-04T08:26:39.999Z</time></trkpt><trkpt lat="43.06665858553171" lon="12.958086955422203"><ele>691.8</ele><time>2026-04-04T08:26:40.999Z</time></trkpt><trkpt lat="43.06658200624511" lon="12.958156678890917"><ele>693.6</ele><time>2026-04-04T08:26:41.999Z</time></trkpt><trkpt lat="43.06649831898467" lon="12.958228391349635"><ele>695.4000000000001</ele><time>2026-04-04T08:26:42.999Z</time></trkpt><trkpt lat="43.0664119882707" lon="12.958290181747518"><ele>697.2</ele><time>2026-04-04T08:26:43.999Z</time></trkpt><trkpt lat="43.066324924404185" lon="12.95836167555628"><ele>699.0</ele><time>2026-04-04T08:26:44.999Z</time></trkpt><trkpt lat="43.06624179122232" lon="12.958446045236634"><ele>699.0</ele><time>2026-04-04T08:26:45.999Z</time></trkpt><trkpt lat="43.066157493738174" lon="12.958535666322728"><ele>699.0</ele><time>2026-04-04T08:26:46.999Z</time></trkpt><trkpt lat="43.06606528597302" lon="12.958629233778323"><ele>699.0</ele><time>2026-04-04T08:26:47.999Z</time></trkpt><trkpt lat="43.065981168929305" lon="12.958731190026638"><ele>699.0</ele><time>2026-04-04T08:26:48.999Z</time></trkpt><trkpt lat="43.06589166596216" lon="12.958820521812411"><ele>699.0</ele><time>2026-04-04T08:26:49.999Z</time></trkpt><trkpt lat="43.065798809859686" lon="12.958888987128383"><ele>701.6</ele><time>2026-04-04T08:26:50.999Z</time></trkpt><trkpt lat="43.065697629305205" lon="12.958936639140454"><ele>704.2</ele><time>2026-04-04T08:26:51.999Z</time></trkpt><trkpt lat="43.06559227794444" lon="12.958970771090515"><ele>706.8000000000001</ele><time>2026-04-04T08:26:52.999Z</time></trkpt><trkpt lat="43.065481734144605" lon="12.959018272559778"><ele>709.4000000000001</ele><time>2026-04-04T08:26:53.999Z</time></trkpt><trkpt lat="43.06537715782588" lon="12.959080874283277"><ele>712.0</ele><time>2026-04-04T08:26:54.999Z</time></trkpt><trkpt lat="43.06527607639335" lon="12.959145844106684"><ele>711.75</ele><time>2026-04-04T08:26:55.999Z</time></trkpt><trkpt lat="43.06517319128248" lon="12.959213415719857"><ele>711.5</ele><time>2026-04-04T08:26:56.999Z</time></trkpt><trkpt lat="43.06506921937279" lon="12.959269474713603"><ele>711.25</ele><time>2026-04-04T08:26:57.999Z</time></trkpt><trkpt lat="43.0649546975764" lon="12.959342956759247"><ele>711.0</ele><time>2026-04-04T08:26:58.999Z</time></trkpt><trkpt lat="43.0648654023712" lon="12.959411645113464"><ele>712.5999999999999</ele><time>2026-04-04T08:26:59.999Z</time></trkpt><trkpt lat="43.064798562200735" lon="12.95948826827937"><ele>714.2</ele><time>2026-04-04T08:27:00.999Z</time></trkpt><trkpt lat="43.064753930362535" lon="12.95958023526554"><ele>715.8</ele><time>2026-04-04T08:27:01.999Z</time></trkpt><trkpt lat="43.064697133677925" lon="12.959684416113726"><ele>717.4000000000001</ele><time>2026-04-04T08:27:02.999Z</time></trkpt><trkpt lat="43.06461777548768" lon="12.959766325661862"><ele>719.0</ele><time>2026-04-04T08:27:03.999Z</time></trkpt><trkpt lat="43.064529018737844" lon="12.959831958496588"><ele>719.0</ele><time>2026-04-04T08:27:04.999Z</time></trkpt><trkpt lat="43.06443241865514" lon="12.95987013606989"><ele>719.0</ele><time>2026-04-04T08:27:05.999Z</time></trkpt><trkpt lat="43.064325296899284" lon="12.959915067865063"><ele>719.0</ele><time>2026-04-04T08:27:06.999Z</time></trkpt><trkpt lat="43.06422420179494" lon="12.959969248598545"><ele>719.0</ele><time>2026-04-04T08:27:07.999Z</time></trkpt><trkpt lat="43.06412200606362" lon="12.960044843888534"><ele>719.0</ele><time>2026-04-04T08:27:08.999Z</time></trkpt><trkpt lat="43.06403071604711" lon="12.960141141603861"><ele>721.4000000000001</ele><time>2026-04-04T08:27:09.999Z</time></trkpt><trkpt lat="43.06395812813941" lon="12.960258419759183"><ele>723.8</ele><time>2026-04-04T08:27:10.999Z</time></trkpt><trkpt lat="43.06388285161607" lon="12.960368094817472"><ele>726.2</ele><time>2026-04-04T08:27:11.999Z</time></trkpt><trkpt lat="43.06382460597647" lon="12.960466657273498"><ele>728.5999999999999</ele><time>2026-04-04T08:27:12.999Z</time></trkpt><trkpt lat="43.06379590528608" lon="12.960558820089926"><ele>731.0</ele><time>2026-04-04T08:27:13.999Z</time></trkpt><trkpt lat="43.063768397244615" lon="12.960674074966564"><ele>731.0</ele><time>2026-04-04T08:27:15.999Z</time></trkpt><trkpt lat="43.06371937402828" lon="12.960747008519427"><ele>731.0</ele><time>2026-04-04T08:27:48.998Z</time></trkpt><trkpt lat="43.06365633836355" lon="12.960768812592182"><ele>731.0</ele><time>2026-04-04T08:27:52.998Z</time></trkpt><trkpt lat="43.06358393915799" lon="12.960823695055334"><ele>731.0</ele><time>2026-04-04T08:28:42Z</time></trkpt><trkpt lat="43.06347684618065" lon="12.960878928078156"><ele>731.0</ele><time>2026-04-04T08:28:45Z</time></trkpt><trkpt lat="43.06339107063806" lon="12.960926401589763"><ele>731.0</ele><time>2026-04-04T08:28:46Z</time></trkpt><trkpt lat="43.06327451830316" lon="12.961003993800002"><ele>735.75</ele><time>2026-04-04T08:28:47Z</time></trkpt><trkpt lat="43.0631617958939" lon="12.96107399887129"><ele>740.5</ele><time>2026-04-04T08:28:48Z</time></trkpt><trkpt lat="43.06305268804197" lon="12.961142228669296"><ele>745.25</ele><time>2026-04-04T08:28:49Z</time></trkpt><trkpt lat="43.06295745153162" lon="12.961187558409463"><ele>750.0</ele><time>2026-04-04T08:28:50Z</time></trkpt><trkpt lat="43.06284703113943" lon="12.961225763236504"><ele>750.0</ele><time>2026-04-04T08:28:51Z</time></trkpt><trkpt lat="43.062704428048626" lon="12.96121232675703"><ele>750.0</ele><time>2026-04-04T08:28:52Z</time></trkpt><trkpt lat="43.062573519956906" lon="12.961204357290834"><ele>750.0</ele><time>2026-04-04T08:28:53Z</time></trkpt><trkpt lat="43.062450045398705" lon="12.961200913920642"><ele>750.0</ele><time>2026-04-04T08:28:54Z</time></trkpt><trkpt lat="43.06233298156588" lon="12.961211761189531"><ele>751.8333333333334</ele><time>2026-04-04T08:28:55Z</time></trkpt><trkpt lat="43.062246200586166" lon="12.961183074240425"><ele>753.6666666666666</ele><time>2026-04-04T08:28:56Z</time></trkpt><trkpt lat="43.06222521961137" lon="12.961017982390965"><ele>755.5</ele><time>2026-04-04T08:28:58Z</time></trkpt><trkpt lat="43.06219011646417" lon="12.960943350371446"><ele>757.3333333333333</ele><time>2026-04-04T08:28:59Z</time></trkpt><trkpt lat="43.06213305876382" lon="12.960893999138978"><ele>759.1666666666666</ele><time>2026-04-04T08:29:00Z</time></trkpt><trkpt lat="43.06205449636735" lon="12.960879814808859"><ele>761.0</ele><time>2026-04-04T08:29:01Z</time></trkpt><trkpt lat="43.0619586210868" lon="12.960854974122473"><ele>761.0</ele><time>2026-04-04T08:29:02Z</time></trkpt><trkpt lat="43.061853406186806" lon="12.96084386839797"><ele>761.0</ele><time>2026-04-04T08:29:03Z</time></trkpt><trkpt lat="43.0617578388688" lon="12.96086759476179"><ele>761.0</ele><time>2026-04-04T08:29:04Z</time></trkpt><trkpt lat="43.061687508020356" lon="12.960946867350323"><ele>761.0</ele><time>2026-04-04T08:29:05Z</time></trkpt><trkpt lat="43.06164022631023" lon="12.961061694679506"><ele>761.0</ele><time>2026-04-04T08:29:06Z</time></trkpt><trkpt lat="43.06158191745638" lon="12.961194163404256"><ele>764.1999999999999</ele><time>2026-04-04T08:29:07Z</time></trkpt><trkpt lat="43.061497009706635" lon="12.961296925544403"><ele>767.4</ele><time>2026-04-04T08:29:08Z</time></trkpt><trkpt lat="43.061412656834975" lon="12.961341263440174"><ele>770.6</ele><time>2026-04-04T08:29:09Z</time></trkpt><trkpt lat="43.061318518143544" lon="12.961383699900308"><ele>773.8</ele><time>2026-04-04T08:29:10Z</time></trkpt><trkpt lat="43.06118356053136" lon="12.961403203260877"><ele>777.0</ele><time>2026-04-04T08:29:12Z</time></trkpt><trkpt lat="43.061113155335306" lon="12.961407535545229"><ele>777.0</ele><time>2026-04-04T08:29:13Z</time></trkpt><trkpt lat="43.06098185068239" lon="12.961435469773342"><ele>777.0</ele><time>2026-04-04T08:29:14.999Z</time></trkpt><trkpt lat="43.0609155159566" lon="12.96143836389882"><ele>777.0</ele><time>2026-04-04T08:29:15.999Z</time></trkpt><trkpt lat="43.06084600060879" lon="12.961429880319159"><ele>777.0</ele><time>2026-04-04T08:29:16.999Z</time></trkpt><trkpt lat="43.06077460568119" lon="12.961396037215653"><ele>777.0</ele><time>2026-04-04T08:29:17.999Z</time></trkpt><trkpt lat="43.060711892863" lon="12.961382159052372"><ele>777.0</ele><time>2026-04-04T08:29:18.999Z</time></trkpt><trkpt lat="43.06059700697544" lon="12.961407342828878"><ele>784.0</ele><time>2026-04-04T08:29:20.999Z</time></trkpt><trkpt lat="43.060524567084066" lon="12.961522098735541"><ele>791.0</ele><time>2026-04-04T08:29:22.999Z</time></trkpt><trkpt lat="43.06051858788174" lon="12.961690902865108"><ele>798.0</ele><time>2026-04-04T08:29:24.999Z</time></trkpt><trkpt lat="43.06059113443088" lon="12.961834687802442"><ele>805.0</ele><time>2026-04-04T08:29:26.999Z</time></trkpt><trkpt lat="43.06066267136443" lon="12.961874088938288"><ele>812.0</ele><time>2026-04-04T08:29:27.999Z</time></trkpt><trkpt lat="43.06075621536239" lon="12.96189234403365"><ele>811.6</ele><time>2026-04-04T08:29:28.999Z</time></trkpt><trkpt lat="43.06085370958181" lon="12.961900913053205"><ele>811.2</ele><time>2026-04-04T08:29:29.999Z</time></trkpt><trkpt lat="43.0609484116619" lon="12.961891934208676"><ele>810.8</ele><time>2026-04-04T08:29:30.999Z</time></trkpt><trkpt lat="43.06104100911049" lon="12.961873939460485"><ele>810.4</ele><time>2026-04-04T08:29:31.999Z</time></trkpt><trkpt lat="43.06114581538532" lon="12.961879814809171"><ele>810.0</ele><time>2026-04-04T08:29:32.999Z</time></trkpt><trkpt lat="43.06123904952393" lon="12.961921681719259"><ele>810.0</ele><time>2026-04-04T08:29:33.999Z</time></trkpt><trkpt lat="43.06132880607513" lon="12.961955025362027"><ele>810.0</ele><time>2026-04-04T08:29:34.999Z</time></trkpt><trkpt lat="43.061398907092084" lon="12.961994887687462"><ele>810.0</ele><time>2026-04-04T08:29:35.999Z</time></trkpt><trkpt lat="43.06152298015637" lon="12.962072104408382"><ele>810.0</ele><time>2026-04-04T08:29:37.999Z</time></trkpt><trkpt lat="43.06160928670107" lon="12.962140963293837"><ele>810.0</ele><time>2026-04-04T08:29:38.999Z</time></trkpt><trkpt lat="43.06170003349209" lon="12.962193849469212"><ele>808.1666666666666</ele><time>2026-04-04T08:29:39.999Z</time></trkpt><trkpt lat="43.06176215510459" lon="12.962223969449429"><ele>806.3333333333333</ele><time>2026-04-04T08:29:40.999Z</time></trkpt><trkpt lat="43.06182992937943" lon="12.962268309371186"><ele>804.5</ele><time>2026-04-04T08:29:41.999Z</time></trkpt><trkpt lat="43.06187213505169" lon="12.962359169691824"><ele>802.6666666666666</ele><time>2026-04-04T08:29:42.999Z</time></trkpt><trkpt lat="43.061939822336406" lon="12.962466036066093"><ele>800.8333333333333</ele><time>2026-04-04T08:29:43.999Z</time></trkpt><trkpt lat="43.061996762930015" lon="12.962569036967944"><ele>799.0</ele><time>2026-04-04T08:29:44.999Z</time></trkpt><trkpt lat="43.062040762280276" lon="12.962675263994736"><ele>805.8000000000001</ele><time>2026-04-04T08:29:45.999Z</time></trkpt><trkpt lat="43.06208712163591" lon="12.962808786955737"><ele>812.6</ele><time>2026-04-04T08:29:46.999Z</time></trkpt><trkpt lat="43.062130820568335" lon="12.962944659289695"><ele>819.4</ele><time>2026-04-04T08:29:47.999Z</time></trkpt><trkpt lat="43.062198350163655" lon="12.963056814081389"><ele>826.2</ele><time>2026-04-04T08:29:48.999Z</time></trkpt><trkpt lat="43.06226223785366" lon="12.963154981039189"><ele>833.0</ele><time>2026-04-04T08:29:49.999Z</time></trkpt><trkpt lat="43.0623053022993" lon="12.963287026207864"><ele>839.5999999999999</ele><time>2026-04-04T08:29:51.999Z</time></trkpt><trkpt lat="43.06234462630311" lon="12.963442746833845"><ele>846.1999999999999</ele><time>2026-04-04T08:29:53.999Z</time></trkpt><trkpt lat="43.06235571237434" lon="12.963561374761788"><ele>852.8</ele><time>2026-04-04T08:29:55.999Z</time></trkpt><trkpt lat="43.06235968789608" lon="12.963737634062284"><ele>859.4</ele><time>2026-04-04T08:29:57.999Z</time></trkpt><trkpt lat="43.062391063864936" lon="12.963841241300543"><ele>866.0</ele><time>2026-04-04T08:29:58.999Z</time></trkpt><trkpt lat="43.062423301200134" lon="12.963933045222593"><ele>866.0000000000001</ele><time>2026-04-04T08:30:00Z</time></trkpt><trkpt lat="43.06245885436071" lon="12.964018771026529"><ele>866.0</ele><time>2026-04-04T08:30:01Z</time></trkpt><trkpt lat="43.062487569252006" lon="12.964119498217563"><ele>866.0</ele><time>2026-04-04T08:30:02Z</time></trkpt><trkpt lat="43.062512605504146" lon="12.964238651602802"><ele>866.0</ele><time>2026-04-04T08:30:03Z</time></trkpt><trkpt lat="43.06254045815006" lon="12.964353560440578"><ele>866.0000000000001</ele><time>2026-04-04T08:30:04Z</time></trkpt><trkpt lat="43.06258269293076" lon="12.964455039738995"><ele>866.0</ele><time>2026-04-04T08:30:05Z</time></trkpt><trkpt lat="43.06263743582949" lon="12.964560341559476"><ele>866.0000000000001</ele><time>2026-04-04T08:30:06Z</time></trkpt><trkpt lat="43.06267407254817" lon="12.964659171841827"><ele>866.0</ele><time>2026-04-04T08:30:07Z</time></trkpt><trkpt lat="43.06269370837455" lon="12.964743763620783"><ele>866.0</ele><time>2026-04-04T08:30:08Z</time></trkpt><trkpt lat="43.0627205276191" lon="12.964830249146098"><ele>866.0</ele><time>2026-04-04T08:30:09Z</time></trkpt><trkpt lat="43.062736125181424" lon="12.964992308265092"><ele>866.0000000000001</ele><time>2026-04-04T08:30:11Z</time></trkpt><trkpt lat="43.0627398298004" lon="12.965087811986523"><ele>866.0</ele><time>2026-04-04T08:30:12Z</time></trkpt><trkpt lat="43.06271374174847" lon="12.965224967641497"><ele>870.8</ele><time>2026-04-04T08:30:14Z</time></trkpt><trkpt lat="43.06269436801184" lon="12.965332417274007"><ele>875.5999999999999</ele><time>2026-04-04T08:30:16Z</time></trkpt><trkpt lat="43.062738593822864" lon="12.965462205824046"><ele>880.4</ele><time>2026-04-04T08:30:18Z</time></trkpt><trkpt lat="43.06284532927112" lon="12.965563859264494"><ele>885.2</ele><time>2026-04-04T08:30:20Z</time></trkpt><trkpt lat="43.06291192308883" lon="12.965608075884921"><ele>890.0</ele><time>2026-04-04T08:30:21Z</time></trkpt><trkpt lat="43.06298483144126" lon="12.965639539534582"><ele>890.0</ele><time>2026-04-04T08:30:22Z</time></trkpt><trkpt lat="43.06305250994251" lon="12.96570170684946"><ele>890.0</ele><time>2026-04-04T08:30:24Z</time></trkpt><trkpt lat="43.06301424281896" lon="12.965790984354834"><ele>890.0</ele><time>2026-04-04T08:30:26Z</time></trkpt><trkpt lat="43.062925074508236" lon="12.965833848969543"><ele>890.0</ele><time>2026-04-04T08:30:28Z</time></trkpt><trkpt lat="43.06285775770281" lon="12.9659080674902"><ele>890.0</ele><time>2026-04-04T08:30:30Z</time></trkpt><trkpt lat="43.06275395983103" lon="12.965982387113481"><ele>894.3333333333334</ele><time>2026-04-04T08:30:32Z</time></trkpt><trkpt lat="43.06268480289105" lon="12.965975392824554"><ele>898.6666666666667</ele><time>2026-04-04T08:30:33Z</time></trkpt><trkpt lat="43.062564701841524" lon="12.966043542558566"><ele>903.0</ele><time>2026-04-04T08:30:35Z</time></trkpt><trkpt lat="43.062497779560495" lon="12.966061496160073"><ele>907.3333333333333</ele><time>2026-04-04T08:30:36Z</time></trkpt><trkpt lat="43.06243170317712" lon="12.966076069903858"><ele>911.6666666666666</ele><time>2026-04-04T08:30:37Z</time></trkpt><trkpt lat="43.06234729644548" lon="12.966075599056344"><ele>916.0</ele><time>2026-04-04T08:30:38Z</time></trkpt><trkpt lat="43.06227347063168" lon="12.966065400036713"><ele>921.1666666666666</ele><time>2026-04-04T08:30:39Z</time></trkpt><trkpt lat="43.062170713724406" lon="12.966033391670459"><ele>926.3333333333333</ele><time>2026-04-04T08:30:41Z</time></trkpt><trkpt lat="43.062113879837575" lon="12.966121923598697"><ele>931.5</ele><time>2026-04-04T08:30:48Z</time></trkpt><trkpt lat="43.06204912396896" lon="12.966083571055234"><ele>936.6666666666667</ele><time>2026-04-04T08:30:51Z</time></trkpt><trkpt lat="43.061963618913175" lon="12.966076194305915"><ele>941.8333333333334</ele><time>2026-04-04T08:30:52Z</time></trkpt><trkpt lat="43.0618888252259" lon="12.966058141969935"><ele>947.0</ele><time>2026-04-04T08:30:53Z</time></trkpt><trkpt lat="43.06181493134862" lon="12.96605117702943"><ele>947.0000000000001</ele><time>2026-04-04T08:30:54Z</time></trkpt><trkpt lat="43.061752650668616" lon="12.966068119249075"><ele>947.0</ele><time>2026-04-04T08:30:55Z</time></trkpt><trkpt lat="43.06167769428851" lon="12.96606188643592"><ele>947.0</ele><time>2026-04-04T08:30:56Z</time></trkpt><trkpt lat="43.06161630970758" lon="12.966011989830989"><ele>947.0</ele><time>2026-04-04T08:30:57Z</time></trkpt><trkpt lat="43.06152549074529" lon="12.965956347857237"><ele>947.0000000000001</ele><time>2026-04-04T08:30:58Z</time></trkpt><trkpt lat="43.061448552270775" lon="12.965926504625205"><ele>947.0</ele><time>2026-04-04T08:30:59Z</time></trkpt><trkpt lat="43.06138184081008" lon="12.96587367695274"><ele>947.4285714285713</ele><time>2026-04-04T08:31:00Z</time></trkpt><trkpt lat="43.0613212961315" lon="12.965842020329251"><ele>947.8571428571428</ele><time>2026-04-04T08:31:01Z</time></trkpt><trkpt lat="43.061253006806425" lon="12.965812949901935"><ele>948.2857142857142</ele><time>2026-04-04T08:31:02Z</time></trkpt><trkpt lat="43.06118619283004" lon="12.965770300310325"><ele>948.7142857142858</ele><time>2026-04-04T08:31:03Z</time></trkpt><trkpt lat="43.06111400490445" lon="12.96572546483121"><ele>949.1428571428572</ele><time>2026-04-04T08:31:04Z</time></trkpt><trkpt lat="43.06104139700424" lon="12.965687910567855"><ele>949.5714285714287</ele><time>2026-04-04T08:31:05Z</time></trkpt><trkpt lat="43.060970895482264" lon="12.965641561427788"><ele>950.0</ele><time>2026-04-04T08:31:06Z</time></trkpt><trkpt lat="43.06090413888506" lon="12.965585443165269"><ele>950.0000000000001</ele><time>2026-04-04T08:31:07Z</time></trkpt><trkpt lat="43.06083156413582" lon="12.965550332295729"><ele>950.0</ele><time>2026-04-04T08:31:08Z</time></trkpt><trkpt lat="43.06075683970482" lon="12.96553574207364"><ele>950.0</ele><time>2026-04-04T08:31:09Z</time></trkpt><trkpt lat="43.0606847364303" lon="12.965522081829407"><ele>950.0</ele><time>2026-04-04T08:31:10Z</time></trkpt><trkpt lat="43.06059742208208" lon="12.96551282889532"><ele>950.0000000000001</ele><time>2026-04-04T08:31:11Z</time></trkpt><trkpt lat="43.06049807538439" lon="12.965465624799249"><ele>950.0</ele><time>2026-04-04T08:31:12Z</time></trkpt><trkpt lat="43.0604178199631" lon="12.965489473844316"><ele>954.3333333333334</ele><time>2026-04-04T08:31:13Z</time></trkpt><trkpt lat="43.060345441612746" lon="12.965526454071231"><ele>958.6666666666667</ele><time>2026-04-04T08:31:14Z</time></trkpt><trkpt lat="43.06021896641908" lon="12.965594272474233"><ele>963.0</ele><time>2026-04-04T08:31:16Z</time></trkpt><trkpt lat="43.06015076558951" lon="12.9656376151128"><ele>967.3333333333333</ele><time>2026-04-04T08:31:17Z</time></trkpt><trkpt lat="43.06006874708292" lon="12.96565216532024"><ele>971.6666666666666</ele><time>2026-04-04T08:31:18Z</time></trkpt><trkpt lat="43.059998991564676" lon="12.965663796088013"><ele>976.0</ele><time>2026-04-04T08:31:19Z</time></trkpt><trkpt lat="43.05993616327746" lon="12.965657095166577"><ele>979.3333333333333</ele><time>2026-04-04T08:31:20Z</time></trkpt><trkpt lat="43.05987613748938" lon="12.965619373141578"><ele>982.6666666666666</ele><time>2026-04-04T08:31:22.999Z</time></trkpt><trkpt lat="43.05983390379993" lon="12.965547958747777"><ele>986.0</ele><time>2026-04-04T08:31:54.999Z</time></trkpt><trkpt lat="43.05974273430036" lon="12.965504844447175"><ele>989.3333333333333</ele><time>2026-04-04T08:31:56.999Z</time></trkpt><trkpt lat="43.05963010390235" lon="12.965441183315852"><ele>992.6666666666666</ele><time>2026-04-04T08:31:58.999Z</time></trkpt><trkpt lat="43.05954718554579" lon="12.965420301368848"><ele>996.0</ele><time>2026-04-04T08:31:59.999Z</time></trkpt><trkpt lat="43.05943973979638" lon="12.965408410937465"><ele>996.0</ele><time>2026-04-04T08:32:00.999Z</time></trkpt><trkpt lat="43.059323724598954" lon="12.965382487082774"><ele>995.9999999999999</ele><time>2026-04-04T08:32:01.999Z</time></trkpt><trkpt lat="43.05921425655061" lon="12.965355212825447"><ele>995.9999999999999</ele><time>2026-04-04T08:32:02.999Z</time></trkpt><trkpt lat="43.05910724635944" lon="12.965326300899717"><ele>996.0</ele><time>2026-04-04T08:32:03.999Z</time></trkpt><trkpt lat="43.05899819295451" lon="12.96530296239541"><ele>996.0</ele><time>2026-04-04T08:32:04.999Z</time></trkpt><trkpt lat="43.058879217273436" lon="12.965293902103426"><ele>1001.0</ele><time>2026-04-04T08:32:06Z</time></trkpt><trkpt lat="43.05875300874209" lon="12.965310584411597"><ele>1006.0</ele><time>2026-04-04T08:32:07Z</time></trkpt><trkpt lat="43.05861916964086" lon="12.96532166446747"><ele>1011.0</ele><time>2026-04-04T08:32:08Z</time></trkpt><trkpt lat="43.058501833729146" lon="12.965331050301394"><ele>1016.0</ele><time>2026-04-04T08:32:09Z</time></trkpt><trkpt lat="43.05837585455004" lon="12.965319378189962"><ele>1023.0</ele><time>2026-04-04T08:32:10Z</time></trkpt><trkpt lat="43.05824335778266" lon="12.965313285302395"><ele>1030.0</ele><time>2026-04-04T08:32:11Z</time></trkpt><trkpt lat="43.05811874571054" lon="12.965322816160201"><ele>1037.0</ele><time>2026-04-04T08:32:12Z</time></trkpt><trkpt lat="43.058001501330665" lon="12.96532553645002"><ele>1044.0</ele><time>2026-04-04T08:32:13Z</time></trkpt><trkpt lat="43.05787381857934" lon="12.965292657805687"><ele>1044.0</ele><time>2026-04-04T08:32:14Z</time></trkpt><trkpt lat="43.0577650777608" lon="12.965254515377149"><ele>1044.0</ele><time>2026-04-04T08:32:15Z</time></trkpt><trkpt lat="43.05766712318408" lon="12.965225201766678"><ele>1044.0</ele><time>2026-04-04T08:32:16Z</time></trkpt><trkpt lat="43.057576592847255" lon="12.965198119529054"><ele>1044.0</ele><time>2026-04-04T08:32:17Z</time></trkpt><trkpt lat="43.057504366313445" lon="12.965173678400134"><ele>1044.0</ele><time>2026-04-04T08:32:18Z</time></trkpt><trkpt lat="43.057438942557376" lon="12.965122558911348"><ele>1046.5</ele><time>2026-04-04T08:32:19Z</time></trkpt><trkpt lat="43.05739142470394" lon="12.96506006746148"><ele>1049.0</ele><time>2026-04-04T08:32:20Z</time></trkpt><trkpt lat="43.0573915341693" lon="12.964958653306079"><ele>1051.5</ele><time>2026-04-04T08:32:21Z</time></trkpt><trkpt lat="43.05739691687902" lon="12.964838918605317"><ele>1054.0</ele><time>2026-04-04T08:32:22Z</time></trkpt><trkpt lat="43.057379588038245" lon="12.964737628924992"><ele>1056.5</ele><time>2026-04-04T08:32:23Z</time></trkpt><trkpt lat="43.057296546376804" lon="12.964634550842208"><ele>1059.0</ele><time>2026-04-04T08:32:25Z</time></trkpt><trkpt lat="43.05722465668143" lon="12.964606821829632"><ele>1059.0</ele><time>2026-04-04T08:32:26Z</time></trkpt><trkpt lat="43.05714869394969" lon="12.964564851217183"><ele>1059.0</ele><time>2026-04-04T08:32:27Z</time></trkpt><trkpt lat="43.05706143453677" lon="12.964497392583821"><ele>1059.0</ele><time>2026-04-04T08:32:28Z</time></trkpt><trkpt lat="43.056977071919725" lon="12.964423948523589"><ele>1059.0</ele><time>2026-04-04T08:32:29Z</time></trkpt><trkpt lat="43.05690105935946" lon="12.964371698998233"><ele>1059.0</ele><time>2026-04-04T08:32:30Z</time></trkpt><trkpt lat="43.05682392657593" lon="12.964319784008929"><ele>1059.0</ele><time>2026-04-04T08:32:31Z</time></trkpt><trkpt lat="43.05675436210938" lon="12.964259030186675"><ele>1059.0</ele><time>2026-04-04T08:32:32Z</time></trkpt><trkpt lat="43.05667557794161" lon="12.964219131805352"><ele>1059.0</ele><time>2026-04-04T08:32:33Z</time></trkpt><trkpt lat="43.05658382343585" lon="12.964184198628912"><ele>1059.0</ele><time>2026-04-04T08:32:34Z</time></trkpt><trkpt lat="43.05648978161014" lon="12.964158779458918"><ele>1059.0</ele><time>2026-04-04T08:32:35Z</time></trkpt><trkpt lat="43.05639520735891" lon="12.964120189867929"><ele>1060.0</ele><time>2026-04-04T08:32:36Z</time></trkpt><trkpt lat="43.05629587308604" lon="12.964096992855366"><ele>1061.0</ele><time>2026-04-04T08:32:37Z</time></trkpt><trkpt lat="43.05620354892103" lon="12.964064288327332"><ele>1062.0</ele><time>2026-04-04T08:32:38Z</time></trkpt><trkpt lat="43.056107938319435" lon="12.964038260775178"><ele>1063.0</ele><time>2026-04-04T08:32:39Z</time></trkpt><trkpt lat="43.056022267875804" lon="12.964023363888849"><ele>1064.0</ele><time>2026-04-04T08:32:40Z</time></trkpt><trkpt lat="43.05594206333658" lon="12.963997813087225"><ele>1064.0</ele><time>2026-04-04T08:32:41Z</time></trkpt><trkpt lat="43.05585637664816" lon="12.963966370885302"><ele>1064.0</ele><time>2026-04-04T08:32:42Z</time></trkpt><trkpt lat="43.05577272545969" lon="12.963948343762366"><ele>1064.0</ele><time>2026-04-04T08:32:43Z</time></trkpt><trkpt lat="43.055690779581994" lon="12.963927670597378"><ele>1064.0</ele><time>2026-04-04T08:32:44Z</time></trkpt><trkpt lat="43.05561907134614" lon="12.9639004766989"><ele>1064.0</ele><time>2026-04-04T08:32:45Z</time></trkpt><trkpt lat="43.05555562839209" lon="12.963873937238766"><ele>1064.0</ele><time>2026-04-04T08:32:46Z</time></trkpt><trkpt lat="43.055442321636676" lon="12.96381940358277"><ele>1064.0</ele><time>2026-04-04T08:32:48Z</time></trkpt><trkpt lat="43.055379985053676" lon="12.963779641458407"><ele>1064.0</ele><time>2026-04-04T08:32:49Z</time></trkpt><trkpt lat="43.055307166561064" lon="12.963756194515526"><ele>1064.0</ele><time>2026-04-04T08:32:51Z</time></trkpt><trkpt lat="43.05524378250646" lon="12.963651949819523"><ele>1064.0</ele><time>2026-04-04T08:33:01Z</time></trkpt><trkpt lat="43.055165733648515" lon="12.963529083143506"><ele>1064.0</ele><time>2026-04-04T08:33:03Z</time></trkpt><trkpt lat="43.055122531538004" lon="12.963460882638492"><ele>1064.0</ele><time>2026-04-04T08:33:04Z</time></trkpt><trkpt lat="43.055065631926276" lon="12.963391042283153"><ele>1062.0</ele><time>2026-04-04T08:33:05Z</time></trkpt><trkpt lat="43.05499266095109" lon="12.963313737506374"><ele>1060.0</ele><time>2026-04-04T08:33:06Z</time></trkpt><trkpt lat="43.05492191948593" lon="12.963245307628505"><ele>1058.0</ele><time>2026-04-04T08:33:07Z</time></trkpt><trkpt lat="43.05485547842183" lon="12.963175549192052"><ele>1056.0</ele><time>2026-04-04T08:33:08Z</time></trkpt><trkpt lat="43.054783746519654" lon="12.96310019479308"><ele>1054.0</ele><time>2026-04-04T08:33:09Z</time></trkpt><trkpt lat="43.054727936358965" lon="12.962994654012538"><ele>1052.0</ele><time>2026-04-04T08:33:10Z</time></trkpt><trkpt lat="43.054654277944714" lon="12.962894787021614"><ele>1052.0</ele><time>2026-04-04T08:33:11Z</time></trkpt><trkpt lat="43.0545796166343" lon="12.962787997006567"><ele>1052.0</ele><time>2026-04-04T08:33:12Z</time></trkpt><trkpt lat="43.05451882395644" lon="12.96268292140218"><ele>1052.0</ele><time>2026-04-04T08:33:13Z</time></trkpt><trkpt lat="43.054469633954945" lon="12.962576686699624"><ele>1052.0</ele><time>2026-04-04T08:33:14Z</time></trkpt><trkpt lat="43.054401353299475" lon="12.962505759280353"><ele>1052.0</ele><time>2026-04-04T08:33:15Z</time></trkpt><trkpt lat="43.054331341575875" lon="12.962462668285376"><ele>1053.3333333333335</ele><time>2026-04-04T08:33:16Z</time></trkpt><trkpt lat="43.05425919544997" lon="12.962431073409503"><ele>1054.6666666666667</ele><time>2026-04-04T08:33:17Z</time></trkpt><trkpt lat="43.05418998145332" lon="12.962397739482466"><ele>1056.0</ele><time>2026-04-04T08:33:18Z</time></trkpt><trkpt lat="43.05413201407316" lon="12.962349288024393"><ele>1057.3333333333333</ele><time>2026-04-04T08:33:19Z</time></trkpt><trkpt lat="43.054074980038735" lon="12.962255879041905"><ele>1058.6666666666665</ele><time>2026-04-04T08:33:20Z</time></trkpt><trkpt lat="43.05403483887705" lon="12.962151894020455"><ele>1060.0</ele><time>2026-04-04T08:33:21Z</time></trkpt><trkpt lat="43.05398731021724" lon="12.96204259576558"><ele>1060.0</ele><time>2026-04-04T08:33:22Z</time></trkpt><trkpt lat="43.05393835200177" lon="12.9619541173738"><ele>1060.0</ele><time>2026-04-04T08:33:23Z</time></trkpt><trkpt lat="43.0538821816414" lon="12.961861534311348"><ele>1060.0</ele><time>2026-04-04T08:33:24Z</time></trkpt><trkpt lat="43.05382651900419" lon="12.96178571982472"><ele>1060.0</ele><time>2026-04-04T08:33:25Z</time></trkpt><trkpt lat="43.053764086261715" lon="12.961716238607425"><ele>1060.0</ele><time>2026-04-04T08:33:26Z</time></trkpt><trkpt lat="43.05370673224516" lon="12.961651564153033"><ele>1060.0</ele><time>2026-04-04T08:33:27Z</time></trkpt><trkpt lat="43.053640073272675" lon="12.961575093348744"><ele>1066.8</ele><time>2026-04-04T08:33:28Z</time></trkpt><trkpt lat="43.053577306236974" lon="12.961485533850954"><ele>1073.6</ele><time>2026-04-04T08:33:29Z</time></trkpt><trkpt lat="43.05351134369897" lon="12.961378489304304"><ele>1080.4</ele><time>2026-04-04T08:33:30Z</time></trkpt><trkpt lat="43.053457845435425" lon="12.961283118673288"><ele>1087.2</ele><time>2026-04-04T08:33:31Z</time></trkpt><trkpt lat="43.05340425060948" lon="12.96118434227897"><ele>1094.0</ele><time>2026-04-04T08:33:32Z</time></trkpt><trkpt lat="43.05336707185454" lon="12.961087661342082"><ele>1094.0</ele><time>2026-04-04T08:33:32.999Z</time></trkpt><trkpt lat="43.053345810681435" lon="12.961002317007553"><ele>1094.0</ele><time>2026-04-04T08:33:33.999Z</time></trkpt><trkpt lat="43.053330980247914" lon="12.960828552354078"><ele>1094.0</ele><time>2026-04-04T08:33:35.999Z</time></trkpt><trkpt lat="43.05331928232009" lon="12.96070559749748"><ele>1094.0</ele><time>2026-04-04T08:33:37.999Z</time></trkpt><trkpt lat="43.053297087798995" lon="12.960585127391544"><ele>1094.0</ele><time>2026-04-04T08:33:39.999Z</time></trkpt><trkpt lat="43.05327442017441" lon="12.960452430027734"><ele>1092.2</ele><time>2026-04-04T08:33:41.999Z</time></trkpt><trkpt lat="43.05325024575494" lon="12.960320687034011"><ele>1090.4</ele><time>2026-04-04T08:33:43.999Z</time></trkpt><trkpt lat="43.053214692112235" lon="12.960176039157878"><ele>1088.6</ele><time>2026-04-04T08:33:45.999Z</time></trkpt><trkpt lat="43.053212062625654" lon="12.960059460737206"><ele>1086.8</ele><time>2026-04-04T08:33:47.999Z</time></trkpt><trkpt lat="43.05324107408368" lon="12.959926145914405"><ele>1085.0</ele><time>2026-04-04T08:33:49.999Z</time></trkpt><trkpt lat="43.053240552309305" lon="12.959749711471146"><ele>1085.0</ele><time>2026-04-04T08:33:51.999Z</time></trkpt><trkpt lat="43.05323565463431" lon="12.959649303058734"><ele>1085.0</ele><time>2026-04-04T08:33:52.999Z</time></trkpt><trkpt lat="43.05325206097361" lon="12.959550613808696"><ele>1085.0</ele><time>2026-04-04T08:33:53.999Z</time></trkpt><trkpt lat="43.05323724365663" lon="12.959390420897533"><ele>1085.0</ele><time>2026-04-04T08:33:55.999Z</time></trkpt><trkpt lat="43.053201682679344" lon="12.959314327401046"><ele>1085.0</ele><time>2026-04-04T08:33:56.999Z</time></trkpt><trkpt lat="43.05316700445273" lon="12.95922542337988"><ele>1085.0</ele><time>2026-04-04T08:33:57.999Z</time></trkpt><trkpt lat="43.05310947150348" lon="12.959080800802562"><ele>1093.25</ele><time>2026-04-04T08:33:59.999Z</time></trkpt><trkpt lat="43.05306785104584" lon="12.958939213731473"><ele>1101.5</ele><time>2026-04-04T08:34:01.999Z</time></trkpt><trkpt lat="43.053032154851394" lon="12.958807705076474"><ele>1109.75</ele><time>2026-04-04T08:34:03.999Z</time></trkpt><trkpt lat="43.05293845800941" lon="12.958689563607855"><ele>1118.0</ele><time>2026-04-04T08:34:05.999Z</time></trkpt><trkpt lat="43.05283098695405" lon="12.958644121974674"><ele>1118.0</ele><time>2026-04-04T08:34:07.999Z</time></trkpt><trkpt lat="43.052757830685486" lon="12.958644956754947"><ele>1118.0</ele><time>2026-04-04T08:34:08.999Z</time></trkpt><trkpt lat="43.052688220930655" lon="12.958659925657166"><ele>1118.0</ele><time>2026-04-04T08:34:09.999Z</time></trkpt><trkpt lat="43.052587341401264" lon="12.958652874661034"><ele>1118.0</ele><time>2026-04-04T08:34:12Z</time></trkpt><trkpt lat="43.05253527985624" lon="12.958593277381565"><ele>1118.0</ele><time>2026-04-04T08:34:13Z</time></trkpt><trkpt lat="43.05249541088257" lon="12.958522649486563"><ele>1118.0</ele><time>2026-04-04T08:34:14Z</time></trkpt><trkpt lat="43.05243424850946" lon="12.958422382487278"><ele>1119.8333333333335</ele><time>2026-04-04T08:34:16Z</time></trkpt><trkpt lat="43.0524138782746" lon="12.95833451970551"><ele>1121.6666666666667</ele><time>2026-04-04T08:34:18Z</time></trkpt><trkpt lat="43.05237733087622" lon="12.95823897735881"><ele>1123.5</ele><time>2026-04-04T08:34:21Z</time></trkpt><trkpt lat="43.05239118222808" lon="12.958137250994831"><ele>1125.3333333333333</ele><time>2026-04-04T08:34:24Z</time></trkpt><trkpt lat="43.0523854717701" lon="12.95800670001633"><ele>1127.1666666666665</ele><time>2026-04-04T08:34:27Z</time></trkpt><trkpt lat="43.05235158514413" lon="12.957861524300801"><ele>1129.0</ele><time>2026-04-04T08:34:29Z</time></trkpt><trkpt lat="43.05234326617958" lon="12.957764749311382"><ele>1129.0</ele><time>2026-04-04T08:34:30Z</time></trkpt><trkpt lat="43.05232745151698" lon="12.957676288562583"><ele>1129.0</ele><time>2026-04-04T08:34:31Z</time></trkpt><trkpt lat="43.052305705147106" lon="12.957574342362664"><ele>1129.0</ele><time>2026-04-04T08:34:32Z</time></trkpt><trkpt lat="43.052285321807254" lon="12.957462804652161"><ele>1129.0</ele><time>2026-04-04T08:34:33Z</time></trkpt><trkpt lat="43.05228268818662" lon="12.957366070278676"><ele>1129.0</ele><time>2026-04-04T08:34:34Z</time></trkpt><trkpt lat="43.05229081965299" lon="12.95722947606361"><ele>1129.0</ele><time>2026-04-04T08:34:36Z</time></trkpt><trkpt lat="43.05231081752042" lon="12.957129993780452"><ele>1130.3333333333333</ele><time>2026-04-04T08:34:38Z</time></trkpt><trkpt lat="43.0523209335021" lon="12.957042707191851"><ele>1131.6666666666665</ele><time>2026-04-04T08:34:40Z</time></trkpt><trkpt lat="43.05232585894439" lon="12.956923913133904"><ele>1133.0</ele><time>2026-04-04T08:34:43Z</time></trkpt><trkpt lat="43.0523311222313" lon="12.956818250382486"><ele>1134.3333333333333</ele><time>2026-04-04T08:34:45Z</time></trkpt><trkpt lat="43.052315071127275" lon="12.95669632925741"><ele>1135.6666666666667</ele><time>2026-04-04T08:34:49Z</time></trkpt><trkpt lat="43.05229686942874" lon="12.956581163822301"><ele>1137.0</ele><time>2026-04-04T08:34:52Z</time></trkpt><trkpt lat="43.052268700052814" lon="12.956494971084519"><ele>1137.3333333333333</ele><time>2026-04-04T08:34:54Z</time></trkpt><trkpt lat="43.05222180082233" lon="12.956367792555977"><ele>1137.6666666666667</ele><time>2026-04-04T08:34:56Z</time></trkpt><trkpt lat="43.052192781625884" lon="12.95626473489803"><ele>1138.0</ele><time>2026-04-04T08:34:58Z</time></trkpt><trkpt lat="43.05217089926003" lon="12.95617825981307"><ele>1138.3333333333335</ele><time>2026-04-04T08:35:02Z</time></trkpt><trkpt lat="43.05216182422193" lon="12.956064741018487"><ele>1138.6666666666667</ele><time>2026-04-04T08:35:04Z</time></trkpt><trkpt lat="43.05216622849697" lon="12.955961950713256"><ele>1139.0</ele><time>2026-04-04T08:35:06Z</time></trkpt><trkpt lat="43.05217268094045" lon="12.955851553011735"><ele>1140.3333333333335</ele><time>2026-04-04T08:35:09Z</time></trkpt><trkpt lat="43.05217377528536" lon="12.955758910794026"><ele>1141.6666666666667</ele><time>2026-04-04T08:35:12Z</time></trkpt><trkpt lat="43.05216280732697" lon="12.955665247306051"><ele>1143.0</ele><time>2026-04-04T08:35:14Z</time></trkpt><trkpt lat="43.05215067800521" lon="12.95557634159173"><ele>1144.3333333333333</ele><time>2026-04-04T08:35:15Z</time></trkpt><trkpt lat="43.052140690454365" lon="12.95548452612696"><ele>1145.6666666666665</ele><time>2026-04-04T08:35:16Z</time></trkpt><trkpt lat="43.052117971099506" lon="12.955358441048615"><ele>1147.0</ele><time>2026-04-04T08:35:18Z</time></trkpt><trkpt lat="43.05209263881219" lon="12.955220278833927"><ele>1147.0</ele><time>2026-04-04T08:35:20Z</time></trkpt><trkpt lat="43.052074264114" lon="12.955080406278528"><ele>1147.0</ele><time>2026-04-04T08:35:22Z</time></trkpt><trkpt lat="43.05205975561497" lon="12.954968841824728"><ele>1147.0</ele><time>2026-04-04T08:35:24Z</time></trkpt><trkpt lat="43.052047712865196" lon="12.95487604620603"><ele>1147.0</ele><time>2026-04-04T08:35:26Z</time></trkpt><trkpt lat="43.05203263452563" lon="12.954783384285992"><ele>1147.0</ele><time>2026-04-04T08:35:28Z</time></trkpt><trkpt lat="43.05202291186002" lon="12.954669146933622"><ele>1147.0</ele><time>2026-04-04T08:35:31Z</time></trkpt><trkpt lat="43.0520205639954" lon="12.954563903644097"><ele>1148.5</ele><time>2026-04-04T08:35:38Z</time></trkpt><trkpt lat="43.05201473668363" lon="12.954436622116297"><ele>1150.0</ele><time>2026-04-04T08:35:43Z</time></trkpt><trkpt lat="43.05202521825712" lon="12.954350807380958"><ele>1151.5</ele><time>2026-04-04T08:36:02.999Z</time></trkpt><trkpt lat="43.05200789116741" lon="12.954232855241722"><ele>1153.0</ele><time>2026-04-04T08:36:05.999Z</time></trkpt><trkpt lat="43.052007160933364" lon="12.954105022554446"><ele>1154.5</ele><time>2026-04-04T08:36:07.999Z</time></trkpt><trkpt lat="43.05201250861364" lon="12.953956321839943"><ele>1156.0</ele><time>2026-04-04T08:36:09.999Z</time></trkpt><trkpt lat="43.05199623603703" lon="12.953854336475686"><ele>1157.0</ele><time>2026-04-04T08:37:12Z</time></trkpt><trkpt lat="43.051997224894244" lon="12.95374965525185"><ele>1158.0</ele><time>2026-04-04T08:37:15Z</time></trkpt><trkpt lat="43.05195518465514" lon="12.953679144694997"><ele>1159.0</ele><time>2026-04-04T08:37:19Z</time></trkpt><trkpt lat="43.0519513099888" lon="12.953553268260741"><ele>1160.0</ele><time>2026-04-04T08:37:26Z</time></trkpt><trkpt lat="43.05192860515762" lon="12.953459719963252"><ele>1161.0</ele><time>2026-04-04T08:37:29Z</time></trkpt><trkpt lat="43.05193554952541" lon="12.95336342981967"><ele>1162.0</ele><time>2026-04-04T08:37:31Z</time></trkpt><trkpt lat="43.05192567729951" lon="12.953224153370492"><ele>1163.8</ele><time>2026-04-04T08:37:33Z</time></trkpt><trkpt lat="43.05191792072097" lon="12.953069754430368"><ele>1165.6</ele><time>2026-04-04T08:37:35Z</time></trkpt><trkpt lat="43.05189849535158" lon="12.952949030580264"><ele>1167.3999999999999</ele><time>2026-04-04T08:37:37Z</time></trkpt><trkpt lat="43.05188531468824" lon="12.952792562714802"><ele>1169.2</ele><time>2026-04-04T08:37:39Z</time></trkpt><trkpt lat="43.05186603088051" lon="12.95267360677114"><ele>1171.0</ele><time>2026-04-04T08:37:41Z</time></trkpt><trkpt lat="43.05184069382444" lon="12.952591596275896"><ele>1172.5</ele><time>2026-04-04T08:37:44Z</time></trkpt><trkpt lat="43.05179415184922" lon="12.952511011690378"><ele>1174.0</ele><time>2026-04-04T08:37:49Z</time></trkpt><trkpt lat="43.05173180470371" lon="12.95242329382662"><ele>1175.5</ele><time>2026-04-04T08:37:52Z</time></trkpt><trkpt lat="43.05164543362927" lon="12.952356550905547"><ele>1177.0</ele><time>2026-04-04T08:37:55Z</time></trkpt><trkpt lat="43.05156005651358" lon="12.952269565040718"><ele>1178.5</ele><time>2026-04-04T08:37:57Z</time></trkpt><trkpt lat="43.05150217658735" lon="12.952219720060418"><ele>1180.0</ele><time>2026-04-04T08:37:58Z</time></trkpt><trkpt lat="43.051449266800375" lon="12.952163907803644"><ele>1182.0</ele><time>2026-04-04T08:37:59Z</time></trkpt><trkpt lat="43.051406884208255" lon="12.952095360300937"><ele>1184.0</ele><time>2026-04-04T08:38:00Z</time></trkpt><trkpt lat="43.051357021989546" lon="12.952002669653275"><ele>1186.0</ele><time>2026-04-04T08:38:01Z</time></trkpt><trkpt lat="43.05130880133401" lon="12.951908413859776"><ele>1188.0</ele><time>2026-04-04T08:38:02Z</time></trkpt><trkpt lat="43.05125875280514" lon="12.951821883209506"><ele>1190.0</ele><time>2026-04-04T08:38:03Z</time></trkpt><trkpt lat="43.05120265856104" lon="12.95173166722802"><ele>1192.0</ele><time>2026-04-04T08:38:04Z</time></trkpt><trkpt lat="43.051152992205914" lon="12.95163047034241"><ele>1192.1666666666665</ele><time>2026-04-04T08:38:04.999Z</time></trkpt><trkpt lat="43.05110580983894" lon="12.951533661730835"><ele>1192.3333333333333</ele><time>2026-04-04T08:38:05.999Z</time></trkpt><trkpt lat="43.051061514632146" lon="12.951441527160668"><ele>1192.5</ele><time>2026-04-04T08:38:06.999Z</time></trkpt><trkpt lat="43.051018998536264" lon="12.951353931404324"><ele>1192.6666666666667</ele><time>2026-04-04T08:38:07.999Z</time></trkpt><trkpt lat="43.05097389384233" lon="12.951259020384576"><ele>1192.8333333333335</ele><time>2026-04-04T08:38:08.999Z</time></trkpt><trkpt lat="43.050933190469806" lon="12.951179363249404"><ele>1193.0</ele><time>2026-04-04T08:38:09.999Z</time></trkpt><trkpt lat="43.05089376954388" lon="12.951103132372461"><ele>1192.9999999999998</ele><time>2026-04-04T08:38:10.999Z</time></trkpt><trkpt lat="43.05085565146556" lon="12.951021385010726"><ele>1193.0</ele><time>2026-04-04T08:38:11.999Z</time></trkpt><trkpt lat="43.05082043738138" lon="12.95094309804606"><ele>1193.0</ele><time>2026-04-04T08:38:12.999Z</time></trkpt><trkpt lat="43.05078237341729" lon="12.950873666874763"><ele>1193.0</ele><time>2026-04-04T08:38:13.998Z</time></trkpt><trkpt lat="43.05074332741101" lon="12.950800339610794"><ele>1193.0</ele><time>2026-04-04T08:38:14.998Z</time></trkpt><trkpt lat="43.05070456162022" lon="12.950729960775421"><ele>1192.9999999999998</ele><time>2026-04-04T08:38:15.998Z</time></trkpt><trkpt lat="43.05065796055952" lon="12.950635120593514"><ele>1193.0</ele><time>2026-04-04T08:38:17.998Z</time></trkpt><trkpt lat="43.05065027826525" lon="12.950504382037483"><ele>1193.2</ele><time>2026-04-04T08:39:11.999Z</time></trkpt><trkpt lat="43.050681053996854" lon="12.950423385704907"><ele>1193.4</ele><time>2026-04-04T08:39:12.999Z</time></trkpt><trkpt lat="43.05074636528599" lon="12.95034329101327"><ele>1193.6000000000001</ele><time>2026-04-04T08:39:13.999Z</time></trkpt><trkpt lat="43.05082036420122" lon="12.95026974421637"><ele>1193.8</ele><time>2026-04-04T08:39:14.999Z</time></trkpt><trkpt lat="43.05090870458495" lon="12.950181621519683"><ele>1194.0</ele><time>2026-04-04T08:39:15.999Z</time></trkpt><trkpt lat="43.05099453509574" lon="12.950075168136209"><ele>1194.25</ele><time>2026-04-04T08:39:16.999Z</time></trkpt><trkpt lat="43.05107559938403" lon="12.949953480696463"><ele>1194.5</ele><time>2026-04-04T08:39:17.999Z</time></trkpt><trkpt lat="43.05115582911256" lon="12.949839084614686"><ele>1194.75</ele><time>2026-04-04T08:39:18.999Z</time></trkpt><trkpt lat="43.051227380978574" lon="12.949733106133609"><ele>1195.0</ele><time>2026-04-04T08:39:19.999Z</time></trkpt><trkpt lat="43.05130041470377" lon="12.949619193061556"><ele>1195.0</ele><time>2026-04-04T08:39:20.999Z</time></trkpt><trkpt lat="43.051370353710375" lon="12.949484950594208"><ele>1195.0</ele><time>2026-04-04T08:39:21.999Z</time></trkpt><trkpt lat="43.05142352202859" lon="12.94932701372402"><ele>1195.0</ele><time>2026-04-04T08:39:22.999Z</time></trkpt><trkpt lat="43.05146228557866" lon="12.949149136047605"><ele>1195.0</ele><time>2026-04-04T08:39:23.999Z</time></trkpt><trkpt lat="43.0514972652418" lon="12.94896324232305"><ele>1193.2</ele><time>2026-04-04T08:39:24.999Z</time></trkpt><trkpt lat="43.05152860472384" lon="12.94880838166903"><ele>1191.4</ele><time>2026-04-04T08:39:25.999Z</time></trkpt><trkpt lat="43.05156097841904" lon="12.948659996180302"><ele>1189.6</ele><time>2026-04-04T08:39:26.999Z</time></trkpt><trkpt lat="43.05159346007921" lon="12.948527644404118"><ele>1187.8</ele><time>2026-04-04T08:39:27.999Z</time></trkpt><trkpt lat="43.05162578859209" lon="12.948390129940536"><ele>1186.0</ele><time>2026-04-04T08:39:28.999Z</time></trkpt><trkpt lat="43.05166226595459" lon="12.948257074119093"><ele>1184.3999999999999</ele><time>2026-04-04T08:39:29.999Z</time></trkpt><trkpt lat="43.05169731374629" lon="12.948126148698131"><ele>1182.8</ele><time>2026-04-04T08:39:30.999Z</time></trkpt><trkpt lat="43.05174289857333" lon="12.94799323129761"><ele>1181.1999999999998</ele><time>2026-04-04T08:39:31.999Z</time></trkpt><trkpt lat="43.05179316127313" lon="12.947857092877252"><ele>1179.6</ele><time>2026-04-04T08:39:32.999Z</time></trkpt><trkpt lat="43.051843511325856" lon="12.94773002241833"><ele>1178.0</ele><time>2026-04-04T08:39:33.999Z</time></trkpt><trkpt lat="43.05189521548629" lon="12.947588003371179"><ele>1175.5</ele><time>2026-04-04T08:39:34.999Z</time></trkpt><trkpt lat="43.0519515109372" lon="12.94744407430095"><ele>1173.0</ele><time>2026-04-04T08:39:35.999Z</time></trkpt><trkpt lat="43.05201072556323" lon="12.947299123891312"><ele>1170.5</ele><time>2026-04-04T08:39:36.999Z</time></trkpt><trkpt lat="43.05206704285649" lon="12.947139603020887"><ele>1168.0</ele><time>2026-04-04T08:39:37.999Z</time></trkpt><trkpt lat="43.05213364220368" lon="12.94698969409467"><ele>1168.0</ele><time>2026-04-04T08:39:38.999Z</time></trkpt><trkpt lat="43.052214257728785" lon="12.946850471065467"><ele>1168.0</ele><time>2026-04-04T08:39:39.999Z</time></trkpt><trkpt lat="43.052294153022565" lon="12.946723052501545"><ele>1168.0</ele><time>2026-04-04T08:39:40.999Z</time></trkpt><trkpt lat="43.05235203964041" lon="12.946604732523918"><ele>1168.0</ele><time>2026-04-04T08:39:41.999Z</time></trkpt><trkpt lat="43.05240662271338" lon="12.94649157574751"><ele>1163.6</ele><time>2026-04-04T08:39:42.999Z</time></trkpt><trkpt lat="43.05246356180638" lon="12.94636823434711"><ele>1159.1999999999998</ele><time>2026-04-04T08:39:43.999Z</time></trkpt><trkpt lat="43.05252244989145" lon="12.946255987304069"><ele>1154.8</ele><time>2026-04-04T08:39:44.999Z</time></trkpt><trkpt lat="43.052579402287556" lon="12.94613872687797"><ele>1150.3999999999999</ele><time>2026-04-04T08:39:45.999Z</time></trkpt><trkpt lat="43.05263950140001" lon="12.946019490378799"><ele>1146.0</ele><time>2026-04-04T08:39:46.999Z</time></trkpt><trkpt lat="43.052703980634185" lon="12.945900790755594"><ele>1142.75</ele><time>2026-04-04T08:39:47.999Z</time></trkpt><trkpt lat="43.052768380083364" lon="12.945774391739697"><ele>1139.5</ele><time>2026-04-04T08:39:48.999Z</time></trkpt><trkpt lat="43.05283542654938" lon="12.945628357460983"><ele>1136.25</ele><time>2026-04-04T08:39:49.999Z</time></trkpt><trkpt lat="43.052907004359675" lon="12.94547626372025"><ele>1133.0</ele><time>2026-04-04T08:39:50.999Z</time></trkpt><trkpt lat="43.052960292336905" lon="12.945339379196428"><ele>1133.0</ele><time>2026-04-04T08:39:51.999Z</time></trkpt><trkpt lat="43.05298206508431" lon="12.945219599219373"><ele>1133.0</ele><time>2026-04-04T08:39:52.999Z</time></trkpt><trkpt lat="43.052985647113246" lon="12.945110941154587"><ele>1133.0</ele><time>2026-04-04T08:39:53.999Z</time></trkpt><trkpt lat="43.052983626003545" lon="12.945001628930104"><ele>1133.0</ele><time>2026-04-04T08:39:54.999Z</time></trkpt><trkpt lat="43.05299137369519" lon="12.944901594271462"><ele>1133.0</ele><time>2026-04-04T08:39:55.999Z</time></trkpt><trkpt lat="43.05301890017311" lon="12.94478512608635"><ele>1133.0</ele><time>2026-04-04T08:39:56.999Z</time></trkpt><trkpt lat="43.05305188978814" lon="12.944652401200967"><ele>1128.75</ele><time>2026-04-04T08:39:57.999Z</time></trkpt><trkpt lat="43.053082607044324" lon="12.944489386226513"><ele>1124.5</ele><time>2026-04-04T08:39:58.999Z</time></trkpt><trkpt lat="43.05310728716663" lon="12.944316828878886"><ele>1120.25</ele><time>2026-04-04T08:39:59.999Z</time></trkpt><trkpt lat="43.05313027924872" lon="12.94416484695706"><ele>1116.0</ele><time>2026-04-04T08:40:00.999Z</time></trkpt><trkpt lat="43.053153213966866" lon="12.944018034988508"><ele>1114.3999999999999</ele><time>2026-04-04T08:40:01.999Z</time></trkpt><trkpt lat="43.05317638732832" lon="12.943875419529352"><ele>1112.8</ele><time>2026-04-04T08:40:02.999Z</time></trkpt><trkpt lat="43.05319687828147" lon="12.943758990473915"><ele>1111.1999999999998</ele><time>2026-04-04T08:40:03.999Z</time></trkpt><trkpt lat="43.053229020209514" lon="12.943639505333353"><ele>1109.6</ele><time>2026-04-04T08:40:04.999Z</time></trkpt><trkpt lat="43.05327445293913" lon="12.943529262992765"><ele>1108.0</ele><time>2026-04-04T08:40:05.999Z</time></trkpt><trkpt lat="43.05332829486407" lon="12.943447623889316"><ele>1108.0</ele><time>2026-04-04T08:40:06.999Z</time></trkpt><trkpt lat="43.053388066267885" lon="12.943399390383245"><ele>1108.0</ele><time>2026-04-04T08:40:07.999Z</time></trkpt><trkpt lat="43.053467714027605" lon="12.943372636892297"><ele>1108.0</ele><time>2026-04-04T08:40:08.999Z</time></trkpt><trkpt lat="43.0535604942797" lon="12.943357982955856"><ele>1108.0</ele><time>2026-04-04T08:40:09.999Z</time></trkpt><trkpt lat="43.053666361633134" lon="12.943338695988412"><ele>1108.0</ele><time>2026-04-04T08:40:10.999Z</time></trkpt><trkpt lat="43.05376572517776" lon="12.943308115914572"><ele>1106.6</ele><time>2026-04-04T08:40:11.998Z</time></trkpt><trkpt lat="43.0538654648871" lon="12.943279010540852"><ele>1105.1999999999998</ele><time>2026-04-04T08:40:12.998Z</time></trkpt><trkpt lat="43.05395323266514" lon="12.943253975777141"><ele>1103.8</ele><time>2026-04-04T08:40:13.998Z</time></trkpt><trkpt lat="43.05404658729954" lon="12.943217181770054"><ele>1102.3999999999999</ele><time>2026-04-04T08:40:14.998Z</time></trkpt><trkpt lat="43.05414198888152" lon="12.943185855863195"><ele>1101.0</ele><time>2026-04-04T08:40:15.998Z</time></trkpt><trkpt lat="43.0542431281563" lon="12.943152099379594"><ele>1097.8</ele><time>2026-04-04T08:40:16.998Z</time></trkpt><trkpt lat="43.054338557756935" lon="12.943113412304271"><ele>1094.6</ele><time>2026-04-04T08:40:17.998Z</time></trkpt><trkpt lat="43.0544318475413" lon="12.9430646524148"><ele>1091.4</ele><time>2026-04-04T08:40:18.998Z</time></trkpt><trkpt lat="43.05452739442822" lon="12.943008510936652"><ele>1088.2</ele><time>2026-04-04T08:40:19.998Z</time></trkpt><trkpt lat="43.05462015139956" lon="12.942959475029298"><ele>1085.0</ele><time>2026-04-04T08:40:20.998Z</time></trkpt><trkpt lat="43.054707131479944" lon="12.94292363457316"><ele>1085.0</ele><time>2026-04-04T08:40:21.998Z</time></trkpt><trkpt lat="43.05477518459063" lon="12.942891733369171"><ele>1085.0</ele><time>2026-04-04T08:40:22.998Z</time></trkpt><trkpt lat="43.054873753588176" lon="12.942815161122672"><ele>1085.0</ele><time>2026-04-04T08:40:24.998Z</time></trkpt><trkpt lat="43.05493083146255" lon="12.942710987922494"><ele>1085.0</ele><time>2026-04-04T08:40:27Z</time></trkpt><trkpt lat="43.05495505999009" lon="12.942567110319157"><ele>1085.0</ele><time>2026-04-04T08:40:29Z</time></trkpt><trkpt lat="43.054916673344145" lon="12.942462028191114"><ele>1083.8333333333335</ele><time>2026-04-04T08:40:31Z</time></trkpt><trkpt lat="43.05487426232102" lon="12.94239564762724"><ele>1082.6666666666667</ele><time>2026-04-04T08:40:33Z</time></trkpt><trkpt lat="43.05483607981302" lon="12.942317137072848"><ele>1081.5</ele><time>2026-04-04T08:40:35Z</time></trkpt><trkpt lat="43.05480587283506" lon="12.942223427992795"><ele>1080.3333333333333</ele><time>2026-04-04T08:40:37Z</time></trkpt><trkpt lat="43.054789010588905" lon="12.94209674770944"><ele>1079.1666666666665</ele><time>2026-04-04T08:40:39Z</time></trkpt><trkpt lat="43.054766600333245" lon="12.941972345641371"><ele>1078.0</ele><time>2026-04-04T08:40:41Z</time></trkpt><trkpt lat="43.054729103432095" lon="12.941855650409329"><ele>1078.0</ele><time>2026-04-04T08:40:43Z</time></trkpt><trkpt lat="43.05469091219743" lon="12.941750262211517"><ele>1078.0</ele><time>2026-04-04T08:40:46Z</time></trkpt><trkpt lat="43.054636551163426" lon="12.941674616876185"><ele>1078.0</ele><time>2026-04-04T08:40:50Z</time></trkpt><trkpt lat="43.054574924335235" lon="12.941606505856589"><ele>1078.0</ele><time>2026-04-04T08:40:52.999Z</time></trkpt><trkpt lat="43.05451370132" lon="12.941540402744831"><ele>1078.0</ele><time>2026-04-04T08:40:55.999Z</time></trkpt><trkpt lat="43.05444719289941" lon="12.941488559554843"><ele>1078.0</ele><time>2026-04-04T08:41:01.999Z</time></trkpt><trkpt lat="43.054368528863705" lon="12.94142487955705"><ele>1076.0</ele><time>2026-04-04T08:41:04.999Z</time></trkpt><trkpt lat="43.054290537896655" lon="12.941357316155072"><ele>1074.0</ele><time>2026-04-04T08:41:06.999Z</time></trkpt><trkpt lat="43.05422456731618" lon="12.941312201783257"><ele>1072.0</ele><time>2026-04-04T08:41:07.999Z</time></trkpt><trkpt lat="43.05416409572096" lon="12.941274405526864"><ele>1070.0</ele><time>2026-04-04T08:41:08.999Z</time></trkpt><trkpt lat="43.05408624145323" lon="12.941223871904958"><ele>1068.0</ele><time>2026-04-04T08:41:10.999Z</time></trkpt><trkpt lat="43.054016288760145" lon="12.941187116574365"><ele>1066.0</ele><time>2026-04-04T08:41:12.999Z</time></trkpt><trkpt lat="43.05392038135248" lon="12.941127897673756"><ele>1066.0</ele><time>2026-04-04T08:41:14.999Z</time></trkpt><trkpt lat="43.05383474259987" lon="12.941083479533857"><ele>1066.0</ele><time>2026-04-04T08:41:16.999Z</time></trkpt><trkpt lat="43.053757638726" lon="12.941070271503984"><ele>1066.0</ele><time>2026-04-04T08:41:18.999Z</time></trkpt><trkpt lat="43.05367913877182" lon="12.941072033576244"><ele>1066.0</ele><time>2026-04-04T08:41:20.999Z</time></trkpt><trkpt lat="43.05359983782748" lon="12.941107869026595"><ele>1066.0</ele><time>2026-04-04T08:41:22.999Z</time></trkpt><trkpt lat="43.05353134946792" lon="12.941140310246999"><ele>1066.0</ele><time>2026-04-04T08:41:24.999Z</time></trkpt><trkpt lat="43.05346733020119" lon="12.941188601187761"><ele>1066.0</ele><time>2026-04-04T08:41:26.999Z</time></trkpt><trkpt lat="43.05336683164537" lon="12.941257329543216"><ele>1066.0</ele><time>2026-04-04T08:41:28.999Z</time></trkpt><trkpt lat="43.05328511759709" lon="12.94129998400668"><ele>1066.0</ele><time>2026-04-04T08:41:29.999Z</time></trkpt><trkpt lat="43.05320050549593" lon="12.941337850561315"><ele>1066.0</ele><time>2026-04-04T08:41:30.999Z</time></trkpt><trkpt lat="43.053133886582316" lon="12.941375469954924"><ele>1066.0</ele><time>2026-04-04T08:41:31.999Z</time></trkpt><trkpt lat="43.05306773123885" lon="12.941389032771317"><ele>1066.0</ele><time>2026-04-04T08:41:32.999Z</time></trkpt><trkpt lat="43.05294802100486" lon="12.941413830079634"><ele>1067.2</ele><time>2026-04-04T08:41:34.999Z</time></trkpt><trkpt lat="43.052852820186004" lon="12.941497019029445"><ele>1068.3999999999999</ele><time>2026-04-04T08:41:36.999Z</time></trkpt><trkpt lat="43.05279564370408" lon="12.941556432841454"><ele>1069.6</ele><time>2026-04-04T08:41:37.999Z</time></trkpt><trkpt lat="43.05270832002718" lon="12.941645142639747"><ele>1070.8</ele><time>2026-04-04T08:41:39.999Z</time></trkpt><trkpt lat="43.052592934068215" lon="12.941732405958161"><ele>1072.0</ele><time>2026-04-04T08:41:41.999Z</time></trkpt><trkpt lat="43.05253524428302" lon="12.94177126628545"><ele>1072.4</ele><time>2026-04-04T08:41:42.999Z</time></trkpt><trkpt lat="43.052451219456785" lon="12.941822189899115"><ele>1072.8000000000002</ele><time>2026-04-04T08:41:44.999Z</time></trkpt><trkpt lat="43.052392403179425" lon="12.94192917174023"><ele>1073.2</ele><time>2026-04-04T08:41:46.999Z</time></trkpt><trkpt lat="43.05232562316584" lon="12.942032170812334"><ele>1073.6000000000001</ele><time>2026-04-04T08:41:48.999Z</time></trkpt><trkpt lat="43.05223464619308" lon="12.942093696462416"><ele>1074.0</ele><time>2026-04-04T08:41:50.999Z</time></trkpt><trkpt lat="43.05216477086903" lon="12.942085513364384"><ele>1074.0</ele><time>2026-04-04T08:41:52.999Z</time></trkpt><trkpt lat="43.05209204508693" lon="12.942070853243687"><ele>1074.0</ele><time>2026-04-04T08:41:54.999Z</time></trkpt><trkpt lat="43.052006302930614" lon="12.941968205944477"><ele>1074.0</ele><time>2026-04-04T08:41:56.999Z</time></trkpt><trkpt lat="43.05195449980712" lon="12.9418867643784"><ele>1074.0</ele><time>2026-04-04T08:41:57.999Z</time></trkpt><trkpt lat="43.05191014782434" lon="12.941817564905817"><ele>1074.0</ele><time>2026-04-04T08:41:58.999Z</time></trkpt><trkpt lat="43.05187503231372" lon="12.941737887347065"><ele>1074.0</ele><time>2026-04-04T08:42:00.999Z</time></trkpt><trkpt lat="43.051831084556014" lon="12.941638318787342"><ele>1072.5</ele><time>2026-04-04T08:42:02.999Z</time></trkpt><trkpt lat="43.05181361114034" lon="12.941540623620098"><ele>1071.0</ele><time>2026-04-04T08:42:21.998Z</time></trkpt><trkpt lat="43.051812719894805" lon="12.941444043888456"><ele>1069.5</ele><time>2026-04-04T08:42:23.998Z</time></trkpt><trkpt lat="43.05184327320638" lon="12.941334028930417"><ele>1068.0</ele><time>2026-04-04T08:42:25.998Z</time></trkpt><trkpt lat="43.051832714477094" lon="12.941216484310667"><ele>1066.5</ele><time>2026-04-04T08:42:27.998Z</time></trkpt><trkpt lat="43.05183511228117" lon="12.941116367535466"><ele>1065.0</ele><time>2026-04-04T08:42:29.998Z</time></trkpt><trkpt lat="43.05183468247447" lon="12.941026542809555"><ele>1065.0</ele><time>2026-04-04T08:42:31.998Z</time></trkpt><trkpt lat="43.05185276128191" lon="12.940928528462791"><ele>1065.0</ele><time>2026-04-04T08:42:34Z</time></trkpt><trkpt lat="43.0518597477693" lon="12.940832138647625"><ele>1065.0</ele><time>2026-04-04T08:42:36Z</time></trkpt><trkpt lat="43.05187249645526" lon="12.940720237103825"><ele>1065.0</ele><time>2026-04-04T08:42:38Z</time></trkpt><trkpt lat="43.0518800545867" lon="12.940574972163583"><ele>1065.0</ele><time>2026-04-04T08:42:41Z</time></trkpt><trkpt lat="43.05189342769288" lon="12.940435589530976"><ele>1065.0</ele><time>2026-04-04T08:42:43Z</time></trkpt><trkpt lat="43.051925817192505" lon="12.940338512681489"><ele>1064.8333333333333</ele><time>2026-04-04T08:42:45Z</time></trkpt><trkpt lat="43.051971738036976" lon="12.940218877849409"><ele>1064.6666666666667</ele><time>2026-04-04T08:42:47Z</time></trkpt><trkpt lat="43.05200552046668" lon="12.94013533569183"><ele>1064.5</ele><time>2026-04-04T08:42:48Z</time></trkpt><trkpt lat="43.05203975093947" lon="12.940045780343866"><ele>1064.3333333333335</ele><time>2026-04-04T08:42:49Z</time></trkpt><trkpt lat="43.05209651347128" lon="12.939955616137487"><ele>1064.1666666666667</ele><time>2026-04-04T08:42:50Z</time></trkpt><trkpt lat="43.052127228135184" lon="12.939865486456153"><ele>1064.0</ele><time>2026-04-04T08:42:51Z</time></trkpt><trkpt lat="43.0521610319238" lon="12.939783904369872"><ele>1063.6666666666667</ele><time>2026-04-04T08:42:52Z</time></trkpt><trkpt lat="43.05219915365118" lon="12.939686461931522"><ele>1063.3333333333335</ele><time>2026-04-04T08:42:53Z</time></trkpt><trkpt lat="43.05222982062125" lon="12.939585048002938"><ele>1063.0</ele><time>2026-04-04T08:42:54Z</time></trkpt><trkpt lat="43.05225732196973" lon="12.939480819643892"><ele>1062.6666666666667</ele><time>2026-04-04T08:42:55Z</time></trkpt><trkpt lat="43.05228751846084" lon="12.939360512652122"><ele>1062.3333333333333</ele><time>2026-04-04T08:42:56Z</time></trkpt><trkpt lat="43.052322476234146" lon="12.939244022282658"><ele>1062.0</ele><time>2026-04-04T08:42:57Z</time></trkpt><trkpt lat="43.052352559059905" lon="12.939126146680868"><ele>1060.0</ele><time>2026-04-04T08:42:58Z</time></trkpt><trkpt lat="43.05236928587895" lon="12.939006695752767"><ele>1058.0</ele><time>2026-04-04T08:42:59Z</time></trkpt><trkpt lat="43.05239718472802" lon="12.938895941758043"><ele>1056.0</ele><time>2026-04-04T08:42:59.999Z</time></trkpt><trkpt lat="43.05240997156895" lon="12.938789585827141"><ele>1054.0</ele><time>2026-04-04T08:43:00.999Z</time></trkpt><trkpt lat="43.0524201068466" lon="12.938685267626528"><ele>1052.0</ele><time>2026-04-04T08:43:01.999Z</time></trkpt><trkpt lat="43.052406634626095" lon="12.938568216426383"><ele>1050.0</ele><time>2026-04-04T08:43:02.999Z</time></trkpt><trkpt lat="43.05239414018584" lon="12.93845577542817"><ele>1047.0</ele><time>2026-04-04T08:43:03.999Z</time></trkpt><trkpt lat="43.052363167583344" lon="12.938358073335753"><ele>1044.0</ele><time>2026-04-04T08:43:04.999Z</time></trkpt><trkpt lat="43.05234268666026" lon="12.938256050397264"><ele>1041.0</ele><time>2026-04-04T08:43:05.999Z</time></trkpt><trkpt lat="43.05232010624282" lon="12.938163071240037"><ele>1038.0</ele><time>2026-04-04T08:43:06.999Z</time></trkpt><trkpt lat="43.052293569943735" lon="12.93807397802095"><ele>1035.0</ele><time>2026-04-04T08:43:07.999Z</time></trkpt><trkpt lat="43.05227177062991" lon="12.937979534770955"><ele>1032.0</ele><time>2026-04-04T08:43:08.999Z</time></trkpt><trkpt lat="43.052240288907825" lon="12.937877808078762"><ele>1031.9999999999998</ele><time>2026-04-04T08:43:09.999Z</time></trkpt><trkpt lat="43.052209923520955" lon="12.93780047344312"><ele>1032.0</ele><time>2026-04-04T08:43:10.999Z</time></trkpt><trkpt lat="43.05217721689982" lon="12.937726294301196"><ele>1032.0</ele><time>2026-04-04T08:43:11.999Z</time></trkpt><trkpt lat="43.052133903037166" lon="12.937653035284528"><ele>1032.0</ele><time>2026-04-04T08:43:12.999Z</time></trkpt><trkpt lat="43.05207594626803" lon="12.937594494785182"><ele>1032.0</ele><time>2026-04-04T08:43:13.999Z</time></trkpt><trkpt lat="43.05199972043472" lon="12.937554523272924"><ele>1031.9999999999998</ele><time>2026-04-04T08:43:14.999Z</time></trkpt><trkpt lat="43.051912075410385" lon="12.937519913177074"><ele>1032.0</ele><time>2026-04-04T08:43:15.999Z</time></trkpt><trkpt lat="43.05182509789716" lon="12.93747039080677"><ele>1028.2</ele><time>2026-04-04T08:43:16.999Z</time></trkpt><trkpt lat="43.051749020397786" lon="12.937425921658718"><ele>1024.4</ele><time>2026-04-04T08:43:17.999Z</time></trkpt><trkpt lat="43.05165932831966" lon="12.937370617284573"><ele>1020.5999999999999</ele><time>2026-04-04T08:43:18.999Z</time></trkpt><trkpt lat="43.05157368255356" lon="12.937303855005053"><ele>1016.8</ele><time>2026-04-04T08:43:19.999Z</time></trkpt><trkpt lat="43.05149118018659" lon="12.937245088440731"><ele>1013.0</ele><time>2026-04-04T08:43:20.999Z</time></trkpt><trkpt lat="43.05140249499628" lon="12.9371962378007"><ele>1013.0000000000001</ele><time>2026-04-04T08:43:21.999Z</time></trkpt><trkpt lat="43.05132204620046" lon="12.937148946070023"><ele>1013.0</ele><time>2026-04-04T08:43:22.999Z</time></trkpt><trkpt lat="43.05123560070829" lon="12.937094783224603"><ele>1013.0</ele><time>2026-04-04T08:43:23.999Z</time></trkpt><trkpt lat="43.05116754056489" lon="12.937048250221565"><ele>1013.0</ele><time>2026-04-04T08:43:24.999Z</time></trkpt><trkpt lat="43.05109774561074" lon="12.937014893108445"><ele>1013.0000000000001</ele><time>2026-04-04T08:43:25.999Z</time></trkpt><trkpt lat="43.05101491001972" lon="12.936956149260864"><ele>1013.0</ele><time>2026-04-04T08:43:26.999Z</time></trkpt><trkpt lat="43.05094285852523" lon="12.93687383266935"><ele>1013.0</ele><time>2026-04-04T08:43:27.999Z</time></trkpt><trkpt lat="43.050864680803855" lon="12.936795063499964"><ele>1013.0</ele><time>2026-04-04T08:43:28.999Z</time></trkpt><trkpt lat="43.05078215910683" lon="12.936703406869727"><ele>1013.0</ele><time>2026-04-04T08:43:29.999Z</time></trkpt><trkpt lat="43.05070454435483" lon="12.936598825079114"><ele>1013.0</ele><time>2026-04-04T08:43:30.999Z</time></trkpt><trkpt lat="43.050632480759155" lon="12.936499585117907"><ele>1013.0</ele><time>2026-04-04T08:43:31.999Z</time></trkpt><trkpt lat="43.05056542800659" lon="12.936403645265028"><ele>1011.8333333333334</ele><time>2026-04-04T08:43:32.999Z</time></trkpt><trkpt lat="43.05050624892472" lon="12.936321993117247"><ele>1010.6666666666667</ele><time>2026-04-04T08:43:33.999Z</time></trkpt><trkpt lat="43.05043367966822" lon="12.93623089734991"><ele>1009.5</ele><time>2026-04-04T08:43:34.999Z</time></trkpt><trkpt lat="43.050363273395455" lon="12.936152775580993"><ele>1008.3333333333333</ele><time>2026-04-04T08:43:35.999Z</time></trkpt><trkpt lat="43.050310452844954" lon="12.936074971065546"><ele>1007.1666666666666</ele><time>2026-04-04T08:43:36.999Z</time></trkpt><trkpt lat="43.05026603516077" lon="12.93597912904719"><ele>1006.0</ele><time>2026-04-04T08:43:37.999Z</time></trkpt><trkpt lat="43.05025034467724" lon="12.935884312142745"><ele>1000.0</ele><time>2026-04-04T08:43:38.999Z</time></trkpt><trkpt lat="43.0502343898635" lon="12.935767825628028"><ele>993.9999999999999</ele><time>2026-04-04T08:43:39.999Z</time></trkpt><trkpt lat="43.050193508822055" lon="12.935670931442134"><ele>987.9999999999999</ele><time>2026-04-04T08:43:40.999Z</time></trkpt><trkpt lat="43.05014335084388" lon="12.935561558732994"><ele>982.0</ele><time>2026-04-04T08:43:41.999Z</time></trkpt><trkpt lat="43.05008319670604" lon="12.93543198557306"><ele>976.0</ele><time>2026-04-04T08:43:42.999Z</time></trkpt><trkpt lat="43.05002077350882" lon="12.93531697337128"><ele>975.9999999999999</ele><time>2026-04-04T08:43:43.999Z</time></trkpt><trkpt lat="43.04996344032263" lon="12.935215803696424"><ele>976.0</ele><time>2026-04-04T08:43:44.999Z</time></trkpt><trkpt lat="43.04991498412628" lon="12.935123748338672"><ele>976.0</ele><time>2026-04-04T08:43:45.999Z</time></trkpt><trkpt lat="43.04986885644431" lon="12.935035880967533"><ele>976.0</ele><time>2026-04-04T08:43:46.999Z</time></trkpt><trkpt lat="43.049801214768046" lon="12.934958247695118"><ele>975.9999999999999</ele><time>2026-04-04T08:43:47.999Z</time></trkpt><trkpt lat="43.04971698212867" lon="12.934890830136544"><ele>976.0</ele><time>2026-04-04T08:43:48.999Z</time></trkpt><trkpt lat="43.049632488386315" lon="12.934818580318042"><ele>973.3333333333333</ele><time>2026-04-04T08:43:49.999Z</time></trkpt><trkpt lat="43.049558162697075" lon="12.934734486786516"><ele>970.6666666666666</ele><time>2026-04-04T08:43:50.999Z</time></trkpt><trkpt lat="43.04949179572823" lon="12.934663487321654"><ele>968.0</ele><time>2026-04-04T08:43:51.999Z</time></trkpt><trkpt lat="43.049438120109116" lon="12.93461346357728"><ele>965.3333333333333</ele><time>2026-04-04T08:43:52.999Z</time></trkpt><trkpt lat="43.0493812904829" lon="12.934551015556451"><ele>962.6666666666666</ele><time>2026-04-04T08:43:53.999Z</time></trkpt><trkpt lat="43.049321929080044" lon="12.93449508526733"><ele>960.0</ele><time>2026-04-04T08:43:54.999Z</time></trkpt><trkpt lat="43.049258262630744" lon="12.934439465966006"><ele>960.0</ele><time>2026-04-04T08:43:55.999Z</time></trkpt><trkpt lat="43.0491903777563" lon="12.934398984798365"><ele>960.0</ele><time>2026-04-04T08:43:56.999Z</time></trkpt><trkpt lat="43.04912375736356" lon="12.934394763750518"><ele>960.0</ele><time>2026-04-04T08:43:57.999Z</time></trkpt><trkpt lat="43.049052055753535" lon="12.934386730050642"><ele>960.0</ele><time>2026-04-04T08:43:58.999Z</time></trkpt><trkpt lat="43.048982916379416" lon="12.934398149459438"><ele>960.0</ele><time>2026-04-04T08:43:59.999Z</time></trkpt><trkpt lat="43.04891172543345" lon="12.934422050692028"><ele>960.0</ele><time>2026-04-04T08:44:00.999Z</time></trkpt><trkpt lat="43.04883835268663" lon="12.93445114856863"><ele>960.0</ele><time>2026-04-04T08:44:01.999Z</time></trkpt><trkpt lat="43.048765670664324" lon="12.93446747831439"><ele>957.8333333333334</ele><time>2026-04-04T08:44:02.999Z</time></trkpt><trkpt lat="43.04869425227864" lon="12.934497482742321"><ele>955.6666666666667</ele><time>2026-04-04T08:44:03.999Z</time></trkpt><trkpt lat="43.04863614855505" lon="12.934550379159486"><ele>953.5</ele><time>2026-04-04T08:44:04.999Z</time></trkpt><trkpt lat="43.0485834059782" lon="12.93460208277928"><ele>951.3333333333334</ele><time>2026-04-04T08:44:05.999Z</time></trkpt><trkpt lat="43.04850905289136" lon="12.934636146073592"><ele>949.1666666666667</ele><time>2026-04-04T08:44:06.999Z</time></trkpt><trkpt lat="43.04842056761443" lon="12.934678069892023"><ele>947.0</ele><time>2026-04-04T08:44:07.999Z</time></trkpt><trkpt lat="43.04832933248447" lon="12.934736880705147"><ele>948.6</ele><time>2026-04-04T08:44:08.999Z</time></trkpt><trkpt lat="43.0482528539252" lon="12.934807121213012"><ele>950.2</ele><time>2026-04-04T08:44:09.999Z</time></trkpt><trkpt lat="43.048183256984906" lon="12.934873016238589"><ele>951.8</ele><time>2026-04-04T08:44:10.999Z</time></trkpt><trkpt lat="43.04811975636743" lon="12.93494573668848"><ele>953.4</ele><time>2026-04-04T08:44:11.999Z</time></trkpt><trkpt lat="43.04803605905051" lon="12.934993598951825"><ele>955.0</ele><time>2026-04-04T08:44:12.999Z</time></trkpt><trkpt lat="43.047937810039535" lon="12.935062201057422"><ele>954.9999999999999</ele><time>2026-04-04T08:44:13.999Z</time></trkpt><trkpt lat="43.04785564190414" lon="12.935108111366748"><ele>955.0</ele><time>2026-04-04T08:44:14.999Z</time></trkpt><trkpt lat="43.04776869231439" lon="12.935152618163379"><ele>955.0</ele><time>2026-04-04T08:44:15.999Z</time></trkpt><trkpt lat="43.047699193940424" lon="12.935205999137805"><ele>955.0</ele><time>2026-04-04T08:44:16.999Z</time></trkpt><trkpt lat="43.04761419235914" lon="12.935241940883333"><ele>954.9999999999999</ele><time>2026-04-04T08:44:17.999Z</time></trkpt><trkpt lat="43.04753633590676" lon="12.935268903206971"><ele>955.0</ele><time>2026-04-04T08:44:18.999Z</time></trkpt><trkpt lat="43.04745267871968" lon="12.935312880227727"><ele>950.1666666666666</ele><time>2026-04-04T08:44:19.999Z</time></trkpt><trkpt lat="43.04737316729013" lon="12.935379360465806"><ele>945.3333333333333</ele><time>2026-04-04T08:44:20.999Z</time></trkpt><trkpt lat="43.0473026134923" lon="12.935436296851373"><ele>940.5</ele><time>2026-04-04T08:44:21.999Z</time></trkpt><trkpt lat="43.04723194675044" lon="12.93545949051671"><ele>935.6666666666667</ele><time>2026-04-04T08:44:22.999Z</time></trkpt><trkpt lat="43.04717316318335" lon="12.935514799092886"><ele>930.8333333333334</ele><time>2026-04-04T08:44:23.999Z</time></trkpt><trkpt lat="43.04711036120417" lon="12.93557933235357"><ele>926.0</ele><time>2026-04-04T08:44:24.999Z</time></trkpt><trkpt lat="43.04705323961145" lon="12.935654499176087"><ele>926.0000000000001</ele><time>2026-04-04T08:44:25.999Z</time></trkpt><trkpt lat="43.04697364696911" lon="12.935696620775198"><ele>926.0</ele><time>2026-04-04T08:44:26.999Z</time></trkpt><trkpt lat="43.046906009058546" lon="12.935732948189841"><ele>926.0</ele><time>2026-04-04T08:44:27.999Z</time></trkpt><trkpt lat="43.04685059363276" lon="12.935776688226378"><ele>926.0</ele><time>2026-04-04T08:44:28.999Z</time></trkpt><trkpt lat="43.046758102512854" lon="12.93583290353571"><ele>926.0000000000001</ele><time>2026-04-04T08:44:30.998Z</time></trkpt><trkpt lat="43.04669560580813" lon="12.935847850137096"><ele>926.0</ele><time>2026-04-04T08:44:32.998Z</time></trkpt><trkpt lat="43.04662608081237" lon="12.93582471473303"><ele>923.3333333333334</ele><time>2026-04-04T08:44:40Z</time></trkpt><trkpt lat="43.04655050429419" lon="12.935829206823513"><ele>920.6666666666667</ele><time>2026-04-04T08:44:42Z</time></trkpt><trkpt lat="43.04646688240026" lon="12.935806292548635"><ele>918.0</ele><time>2026-04-04T08:44:43Z</time></trkpt><trkpt lat="43.0463740664881" lon="12.935792667345412"><ele>915.3333333333333</ele><time>2026-04-04T08:44:44Z</time></trkpt><trkpt lat="43.0462921484962" lon="12.935806049243903"><ele>912.6666666666666</ele><time>2026-04-04T08:44:45Z</time></trkpt><trkpt lat="43.04621257168212" lon="12.93582143785613"><ele>910.0</ele><time>2026-04-04T08:44:46Z</time></trkpt><trkpt lat="43.046142097760566" lon="12.935810719034707"><ele>909.9999999999999</ele><time>2026-04-04T08:44:47Z</time></trkpt><trkpt lat="43.04605430105027" lon="12.935791491056383"><ele>910.0</ele><time>2026-04-04T08:44:49Z</time></trkpt><trkpt lat="43.04597422914329" lon="12.935724930879767"><ele>910.0</ele><time>2026-04-04T08:44:51Z</time></trkpt><trkpt lat="43.045921146621986" lon="12.935667091950808"><ele>910.0</ele><time>2026-04-04T08:44:52Z</time></trkpt><trkpt lat="43.045956457626296" lon="12.935589569313455"><ele>909.9999999999999</ele><time>2026-04-04T08:44:54Z</time></trkpt><trkpt lat="43.04601791158228" lon="12.935515565510368"><ele>910.0</ele><time>2026-04-04T08:44:55Z</time></trkpt><trkpt lat="43.04609582172022" lon="12.935415203448876"><ele>909.9999999999999</ele><time>2026-04-04T08:44:56Z</time></trkpt><trkpt lat="43.04615698805564" lon="12.935345619659913"><ele>910.0</ele><time>2026-04-04T08:44:57Z</time></trkpt><trkpt lat="43.046203734757555" lon="12.935249668918603"><ele>910.0</ele><time>2026-04-04T08:44:58Z</time></trkpt><trkpt lat="43.046240992349745" lon="12.93515670491406"><ele>910.0</ele><time>2026-04-04T08:44:59Z</time></trkpt><trkpt lat="43.04628985911941" lon="12.935080628160476"><ele>909.9999999999999</ele><time>2026-04-04T08:45:00Z</time></trkpt><trkpt lat="43.04634099601346" lon="12.934961408213821"><ele>910.0</ele><time>2026-04-04T08:45:02Z</time></trkpt><trkpt lat="43.046305357938095" lon="12.93489023509608"><ele>907.1666666666666</ele><time>2026-04-04T08:45:04Z</time></trkpt><trkpt lat="43.04623490349952" lon="12.934848276044395"><ele>904.3333333333333</ele><time>2026-04-04T08:45:07Z</time></trkpt><trkpt lat="43.04616624468883" lon="12.934815463213893"><ele>901.5</ele><time>2026-04-04T08:46:32.999Z</time></trkpt><trkpt lat="43.04608104717214" lon="12.93478579728462"><ele>898.6666666666667</ele><time>2026-04-04T08:46:36.999Z</time></trkpt><trkpt lat="43.04601568495574" lon="12.934801320477243"><ele>895.8333333333334</ele><time>2026-04-04T08:46:39.998Z</time></trkpt><trkpt lat="43.045909234862535" lon="12.934869092761653"><ele>893.0</ele><time>2026-04-04T08:46:41.998Z</time></trkpt><trkpt lat="43.04579739181405" lon="12.934935590049045"><ele>892.3333333333334</ele><time>2026-04-04T08:46:43.998Z</time></trkpt><trkpt lat="43.04572114174715" lon="12.934961775650725"><ele>891.6666666666667</ele><time>2026-04-04T08:46:45Z</time></trkpt><trkpt lat="43.0456338599069" lon="12.935021642906467"><ele>891.0</ele><time>2026-04-04T08:46:46Z</time></trkpt><trkpt lat="43.04556277953511" lon="12.935096708486752"><ele>890.3333333333333</ele><time>2026-04-04T08:46:47Z</time></trkpt><trkpt lat="43.04549990577602" lon="12.935172202053623"><ele>889.6666666666666</ele><time>2026-04-04T08:46:48Z</time></trkpt><trkpt lat="43.04542508789493" lon="12.93523663696793"><ele>889.0</ele><time>2026-04-04T08:46:49Z</time></trkpt><trkpt lat="43.04535083219253" lon="12.935293322360817"><ele>888.9999999999999</ele><time>2026-04-04T08:46:50Z</time></trkpt><trkpt lat="43.04530105726694" lon="12.935375868519369"><ele>889.0</ele><time>2026-04-04T08:46:51Z</time></trkpt><trkpt lat="43.045250125537265" lon="12.935457002058687"><ele>889.0</ele><time>2026-04-04T08:46:52Z</time></trkpt><trkpt lat="43.045133383160604" lon="12.935462103796464"><ele>889.0</ele><time>2026-04-04T08:46:54Z</time></trkpt><trkpt lat="43.045057109213616" lon="12.935432441167796"><ele>888.9999999999999</ele><time>2026-04-04T08:46:55Z</time></trkpt><trkpt lat="43.04500148295823" lon="12.935365050541806"><ele>889.0</ele><time>2026-04-04T08:46:56Z</time></trkpt><trkpt lat="43.045052029317404" lon="12.9352535190247"><ele>889.0</ele><time>2026-04-04T08:46:58Z</time></trkpt><trkpt lat="43.04510320043944" lon="12.93513991450799"><ele>889.0000000000001</ele><time>2026-04-04T08:47:00Z</time></trkpt><trkpt lat="43.045057140392544" lon="12.93507239989107"><ele>889.0000000000001</ele><time>2026-04-04T08:47:02Z</time></trkpt><trkpt lat="43.044970140069076" lon="12.935119576605038"><ele>889.0</ele><time>2026-04-04T08:47:05Z</time></trkpt><trkpt lat="43.04485242126625" lon="12.935159531130857"><ele>889.0</ele><time>2026-04-04T08:47:07Z</time></trkpt><trkpt lat="43.04477890521795" lon="12.93515364031415"><ele>884.3333333333333</ele><time>2026-04-04T08:47:08Z</time></trkpt><trkpt lat="43.04471731577362" lon="12.935196129945385"><ele>879.6666666666666</ele><time>2026-04-04T08:47:09Z</time></trkpt><trkpt lat="43.04464195081519" lon="12.935262624669765"><ele>875.0</ele><time>2026-04-04T08:47:10Z</time></trkpt><trkpt lat="43.04457314878328" lon="12.935312277941968"><ele>870.3333333333333</ele><time>2026-04-04T08:47:11Z</time></trkpt><trkpt lat="43.04451300790006" lon="12.93534167563346"><ele>865.6666666666666</ele><time>2026-04-04T08:47:12Z</time></trkpt><trkpt lat="43.044385049195114" lon="12.935397589914746"><ele>861.0</ele><time>2026-04-04T08:47:14Z</time></trkpt><trkpt lat="43.04431763630291" lon="12.935419825003512"><ele>861.0</ele><time>2026-04-04T08:47:15Z</time></trkpt><trkpt lat="43.044229153901306" lon="12.935502294075505"><ele>861.0</ele><time>2026-04-04T08:47:16.999Z</time></trkpt><trkpt lat="43.04417071233456" lon="12.935559757026832"><ele>861.0</ele><time>2026-04-04T08:47:17.999Z</time></trkpt><trkpt lat="43.04411412366619" lon="12.935614051203068"><ele>861.0</ele><time>2026-04-04T08:47:18.999Z</time></trkpt><trkpt lat="43.04402011425329" lon="12.9356750059611"><ele>861.0</ele><time>2026-04-04T08:47:20.999Z</time></trkpt><trkpt lat="43.04394632470451" lon="12.93569943540879"><ele>861.0</ele><time>2026-04-04T08:47:21.999Z</time></trkpt><trkpt lat="43.04387407739474" lon="12.93572235031482"><ele>856.4</ele><time>2026-04-04T08:47:22.999Z</time></trkpt><trkpt lat="43.04377536184763" lon="12.935738183016156"><ele>851.8</ele><time>2026-04-04T08:47:23.999Z</time></trkpt><trkpt lat="43.0436712404699" lon="12.935743577638576"><ele>847.1999999999999</ele><time>2026-04-04T08:47:24.999Z</time></trkpt><trkpt lat="43.043573966888154" lon="12.935761639542608"><ele>842.5999999999999</ele><time>2026-04-04T08:47:25.999Z</time></trkpt><trkpt lat="43.0434786298798" lon="12.935789607860123"><ele>838.0</ele><time>2026-04-04T08:47:26.999Z</time></trkpt><trkpt lat="43.043395923824654" lon="12.935821609446336"><ele>838.0</ele><time>2026-04-04T08:47:27.999Z</time></trkpt><trkpt lat="43.04331564138783" lon="12.935858270293036"><ele>838.0</ele><time>2026-04-04T08:47:28.999Z</time></trkpt><trkpt lat="43.04320155487003" lon="12.935982810423207"><ele>838.0</ele><time>2026-04-04T08:47:30.999Z</time></trkpt><trkpt lat="43.04314214072899" lon="12.936093362237427"><ele>838.0</ele><time>2026-04-04T08:47:31.999Z</time></trkpt><trkpt lat="43.04309535382666" lon="12.936182235688278"><ele>838.0</ele><time>2026-04-04T08:47:32.999Z</time></trkpt><trkpt lat="43.04301980482128" lon="12.936309637553803"><ele>838.4</ele><time>2026-04-04T08:47:34.999Z</time></trkpt><trkpt lat="43.04293377860214" lon="12.936449351980514"><ele>838.8</ele><time>2026-04-04T08:47:36.999Z</time></trkpt><trkpt lat="43.04287353420545" lon="12.936511777964517"><ele>839.2</ele><time>2026-04-04T08:47:37.999Z</time></trkpt><trkpt lat="43.04279919364345" lon="12.936584721580212"><ele>839.6</ele><time>2026-04-04T08:47:38.999Z</time></trkpt><trkpt lat="43.04273732144062" lon="12.936661040148781"><ele>840.0</ele><time>2026-04-04T08:47:39.999Z</time></trkpt><trkpt lat="43.04269388356824" lon="12.936744223885295"><ele>844.0</ele><time>2026-04-04T08:47:40.999Z</time></trkpt><trkpt lat="43.042672182090875" lon="12.936845910444424"><ele>848.0</ele><time>2026-04-04T08:47:41.999Z</time></trkpt><trkpt lat="43.04264615773164" lon="12.93695592538816"><ele>852.0</ele><time>2026-04-04T08:47:42.999Z</time></trkpt><trkpt lat="43.04259228522203" lon="12.937068784700562"><ele>856.0</ele><time>2026-04-04T08:47:43.999Z</time></trkpt><trkpt lat="43.042554287204176" lon="12.937193351828698"><ele>860.0</ele><time>2026-04-04T08:47:44.999Z</time></trkpt><trkpt lat="43.042496375009044" lon="12.93731660558269"><ele>858.0</ele><time>2026-04-04T08:47:45.999Z</time></trkpt><trkpt lat="43.04244371218277" lon="12.937438146741217"><ele>856.0</ele><time>2026-04-04T08:47:46.999Z</time></trkpt><trkpt lat="43.042373754088324" lon="12.937549127837746"><ele>854.0</ele><time>2026-04-04T08:47:47.999Z</time></trkpt><trkpt lat="43.042300275126586" lon="12.937635331541125"><ele>852.0</ele><time>2026-04-04T08:47:48.999Z</time></trkpt><trkpt lat="43.04223025054057" lon="12.9376976037736"><ele>850.0</ele><time>2026-04-04T08:47:49.999Z</time></trkpt><trkpt lat="43.042185037323016" lon="12.937769232541534"><ele>850.0</ele><time>2026-04-04T08:47:50.999Z</time></trkpt><trkpt lat="43.04215354955457" lon="12.937879544315376"><ele>850.0</ele><time>2026-04-04T08:47:51.999Z</time></trkpt><trkpt lat="43.04211079216787" lon="12.93800928357525"><ele>850.0</ele><time>2026-04-04T08:47:52.999Z</time></trkpt><trkpt lat="43.042057471544204" lon="12.938100420808844"><ele>850.0</ele><time>2026-04-04T08:47:53.999Z</time></trkpt><trkpt lat="43.042009029408135" lon="12.938277984030508"><ele>850.0</ele><time>2026-04-04T08:47:55.999Z</time></trkpt><trkpt lat="43.042004090380146" lon="12.93836947644518"><ele>849.8</ele><time>2026-04-04T08:47:56.999Z</time></trkpt><trkpt lat="43.04191620719612" lon="12.938527235526523"><ele>849.6</ele><time>2026-04-04T08:47:58.999Z</time></trkpt><trkpt lat="43.04184743398601" lon="12.938616779919704"><ele>849.4000000000001</ele><time>2026-04-04T08:47:59.999Z</time></trkpt><trkpt lat="43.04175038428094" lon="12.938679828122805"><ele>849.2</ele><time>2026-04-04T08:48:00.999Z</time></trkpt><trkpt lat="43.04166564421754" lon="12.93872854106848"><ele>849.0</ele><time>2026-04-04T08:48:01.999Z</time></trkpt><trkpt lat="43.04159210015034" lon="12.938782108496152"><ele>849.0</ele><time>2026-04-04T08:48:02.999Z</time></trkpt><trkpt lat="43.041528754396026" lon="12.938848713501704"><ele>849.0</ele><time>2026-04-04T08:48:03.999Z</time></trkpt><trkpt lat="43.04145905448681" lon="12.938936934460614"><ele>849.0</ele><time>2026-04-04T08:48:04.999Z</time></trkpt><trkpt lat="43.0413988179358" lon="12.939030488055048"><ele>849.0</ele><time>2026-04-04T08:48:05.999Z</time></trkpt><trkpt lat="43.041327344202955" lon="12.939125046288469"><ele>849.0</ele><time>2026-04-04T08:48:06.999Z</time></trkpt><trkpt lat="43.04125519831054" lon="12.9392178580408"><ele>851.0000000000001</ele><time>2026-04-04T08:48:07.999Z</time></trkpt><trkpt lat="43.041195477079924" lon="12.939300139362988"><ele>853.0</ele><time>2026-04-04T08:48:08.999Z</time></trkpt><trkpt lat="43.041140876941114" lon="12.939374018629861"><ele>855.0</ele><time>2026-04-04T08:48:09.999Z</time></trkpt><trkpt lat="43.04107889640163" lon="12.939409859154576"><ele>857.0</ele><time>2026-04-04T08:48:10.999Z</time></trkpt><trkpt lat="43.04100978277629" lon="12.939412884435633"><ele>859.0</ele><time>2026-04-04T08:48:11.999Z</time></trkpt><trkpt lat="43.04094011185866" lon="12.939432261796052"><ele>861.0000000000001</ele><time>2026-04-04T08:48:12.999Z</time></trkpt><trkpt lat="43.04087307464215" lon="12.93945573380206"><ele>863.0</ele><time>2026-04-04T08:48:13.999Z</time></trkpt><trkpt lat="43.04078606052491" lon="12.939479345890323"><ele>864.6666666666667</ele><time>2026-04-04T08:48:14.999Z</time></trkpt><trkpt lat="43.040708725260245" lon="12.939473885075582"><ele>866.3333333333334</ele><time>2026-04-04T08:48:15.999Z</time></trkpt><trkpt lat="43.04061837181644" lon="12.93944691705229"><ele>868.0</ele><time>2026-04-04T08:48:17.999Z</time></trkpt><trkpt lat="43.04060759243027" lon="12.939533020614254"><ele>869.6666666666667</ele><time>2026-04-04T08:48:19.999Z</time></trkpt><trkpt lat="43.04059201404828" lon="12.939648375776079"><ele>871.3333333333334</ele><time>2026-04-04T08:48:21.999Z</time></trkpt><trkpt lat="43.0405275759696" lon="12.939747447865432"><ele>873.0</ele><time>2026-04-04T08:48:24.999Z</time></trkpt><trkpt lat="43.040469715954096" lon="12.93989326310458"><ele>873.0</ele><time>2026-04-04T08:48:26.999Z</time></trkpt><trkpt lat="43.040403454290306" lon="12.93988876157167"><ele>873.0</ele><time>2026-04-04T08:48:28.999Z</time></trkpt><trkpt lat="43.04031149517422" lon="12.939785501768398"><ele>873.0</ele><time>2026-04-04T08:48:30.999Z</time></trkpt><trkpt lat="43.040240101692056" lon="12.93971391835716"><ele>873.0</ele><time>2026-04-04T08:48:32.999Z</time></trkpt><trkpt lat="43.040171112549295" lon="12.939694068798547"><ele>873.0</ele><time>2026-04-04T08:48:33.999Z</time></trkpt><trkpt lat="43.04007922976903" lon="12.939636605794632"><ele>873.0</ele><time>2026-04-04T08:48:34.999Z</time></trkpt><trkpt lat="43.03999164003243" lon="12.939598076267972"><ele>877.2</ele><time>2026-04-04T08:48:35.999Z</time></trkpt><trkpt lat="43.03991056302634" lon="12.939598186493765"><ele>881.4</ele><time>2026-04-04T08:48:36.999Z</time></trkpt><trkpt lat="43.039797671462274" lon="12.93956939992069"><ele>885.6000000000001</ele><time>2026-04-04T08:48:37.999Z</time></trkpt><trkpt lat="43.03971942103107" lon="12.939484012816397"><ele>889.8000000000001</ele><time>2026-04-04T08:48:38.999Z</time></trkpt><trkpt lat="43.03963396729667" lon="12.939428526658745"><ele>894.0</ele><time>2026-04-04T08:48:39.999Z</time></trkpt><trkpt lat="43.039539983756015" lon="12.939398607863062"><ele>894.0</ele><time>2026-04-04T08:48:40.999Z</time></trkpt><trkpt lat="43.039429979214084" lon="12.939373679596839"><ele>894.0000000000001</ele><time>2026-04-04T08:48:41.999Z</time></trkpt><trkpt lat="43.039340286028775" lon="12.939372927618768"><ele>894.0000000000001</ele><time>2026-04-04T08:48:42.999Z</time></trkpt><trkpt lat="43.039241757793576" lon="12.939386603635873"><ele>894.0</ele><time>2026-04-04T08:48:43.999Z</time></trkpt><trkpt lat="43.03914135010352" lon="12.93940411138347"><ele>894.0</ele><time>2026-04-04T08:48:44.999Z</time></trkpt><trkpt lat="43.03905845092547" lon="12.939412692678495"><ele>896.25</ele><time>2026-04-04T08:48:45.999Z</time></trkpt><trkpt lat="43.038917562490184" lon="12.939403473755274"><ele>898.5</ele><time>2026-04-04T08:48:46.998Z</time></trkpt><trkpt lat="43.03879289380098" lon="12.939404077805767"><ele>900.75</ele><time>2026-04-04T08:48:47.998Z</time></trkpt><trkpt lat="43.03869588623289" lon="12.939376423602383"><ele>903.0</ele><time>2026-04-04T08:48:48.998Z</time></trkpt><trkpt lat="43.03860304803903" lon="12.939325777741935"><ele>903.0</ele><time>2026-04-04T08:48:49.998Z</time></trkpt><trkpt lat="43.03852630882941" lon="12.939259675216208"><ele>903.0</ele><time>2026-04-04T08:48:51Z</time></trkpt><trkpt lat="43.038470885150915" lon="12.93920663942773"><ele>903.0</ele><time>2026-04-04T08:48:52Z</time></trkpt><trkpt lat="43.03850228440786" lon="12.939075089142499"><ele>903.0</ele><time>2026-04-04T08:48:53Z</time></trkpt><trkpt lat="43.03848815809989" lon="12.938925748436194"><ele>903.0</ele><time>2026-04-04T08:48:54Z</time></trkpt><trkpt lat="43.03845601436085" lon="12.938803808405073"><ele>901.0</ele><time>2026-04-04T08:48:55Z</time></trkpt><trkpt lat="43.03838495804249" lon="12.938689931829643"><ele>899.0</ele><time>2026-04-04T08:48:56Z</time></trkpt><trkpt lat="43.038323695381585" lon="12.938582420486792"><ele>897.0</ele><time>2026-04-04T08:48:57Z</time></trkpt><trkpt lat="43.03826508331947" lon="12.938525080831855"><ele>895.0</ele><time>2026-04-04T08:48:58Z</time></trkpt><trkpt lat="43.038183969502576" lon="12.938502144657026"><ele>893.0</ele><time>2026-04-04T08:48:59Z</time></trkpt><trkpt lat="43.03809565507973" lon="12.938506831836863"><ele>893.0</ele><time>2026-04-04T08:49:00Z</time></trkpt><trkpt lat="43.038000942280725" lon="12.938531343617028"><ele>893.0</ele><time>2026-04-04T08:49:01Z</time></trkpt><trkpt lat="43.03790302303385" lon="12.938568205063975"><ele>893.0</ele><time>2026-04-04T08:49:02Z</time></trkpt><trkpt lat="43.037807166823626" lon="12.938636307724636"><ele>893.0</ele><time>2026-04-04T08:49:03Z</time></trkpt><trkpt lat="43.03774000354221" lon="12.938690108062568"><ele>893.0</ele><time>2026-04-04T08:49:04Z</time></trkpt><trkpt lat="43.03766342071133" lon="12.938740233388101"><ele>893.0</ele><time>2026-04-04T08:49:05Z</time></trkpt><trkpt lat="43.03757150165921" lon="12.93882569735959"><ele>893.0</ele><time>2026-04-04T08:49:06Z</time></trkpt><trkpt lat="43.03751089193039" lon="12.938905075490947"><ele>893.0</ele><time>2026-04-04T08:49:07Z</time></trkpt><trkpt lat="43.03744749667569" lon="12.938977362322719"><ele>893.0</ele><time>2026-04-04T08:49:09Z</time></trkpt><trkpt lat="43.03734811708044" lon="12.938915484944618"><ele>893.0</ele><time>2026-04-04T08:49:11Z</time></trkpt><trkpt lat="43.037254082914956" lon="12.938895866002047"><ele>894.8</ele><time>2026-04-04T08:49:12Z</time></trkpt><trkpt lat="43.03716859685578" lon="12.938847221390812"><ele>896.5999999999999</ele><time>2026-04-04T08:49:13Z</time></trkpt><trkpt lat="43.03706960057125" lon="12.938795312998884"><ele>898.4000000000001</ele><time>2026-04-04T08:49:14Z</time></trkpt><trkpt lat="43.03701375942137" lon="12.938725415856347"><ele>900.2</ele><time>2026-04-04T08:49:15Z</time></trkpt><trkpt lat="43.03694262523843" lon="12.938647668048795"><ele>902.0</ele><time>2026-04-04T08:49:16Z</time></trkpt><trkpt lat="43.03685801076582" lon="12.938605991182092"><ele>902.0000000000001</ele><time>2026-04-04T08:49:17Z</time></trkpt><trkpt lat="43.03674420004414" lon="12.938573069303878"><ele>902.0</ele><time>2026-04-04T08:49:19Z</time></trkpt><trkpt lat="43.03668170331761" lon="12.938601311795564"><ele>902.0</ele><time>2026-04-04T08:49:20Z</time></trkpt><trkpt lat="43.03662845715793" lon="12.938652438226764"><ele>902.0</ele><time>2026-04-04T08:49:21Z</time></trkpt><trkpt lat="43.03658800213697" lon="12.938738749681724"><ele>902.0000000000001</ele><time>2026-04-04T08:49:22Z</time></trkpt><trkpt lat="43.036561552483256" lon="12.938839368949122"><ele>902.0</ele><time>2026-04-04T08:49:23Z</time></trkpt><trkpt lat="43.03653420773692" lon="12.938946898926327"><ele>903.7142857142857</ele><time>2026-04-04T08:49:24Z</time></trkpt><trkpt lat="43.03650735984103" lon="12.939029597955518"><ele>905.4285714285716</ele><time>2026-04-04T08:49:25Z</time></trkpt><trkpt lat="43.036465958180095" lon="12.93909494642065"><ele>907.1428571428572</ele><time>2026-04-04T08:49:26Z</time></trkpt><trkpt lat="43.03640866282222" lon="12.939151608461025"><ele>908.8571428571429</ele><time>2026-04-04T08:49:27Z</time></trkpt><trkpt lat="43.03634246457825" lon="12.939197478385603"><ele>910.5714285714287</ele><time>2026-04-04T08:49:28Z</time></trkpt><trkpt lat="43.0362703249369" lon="12.939231386640149"><ele>912.2857142857144</ele><time>2026-04-04T08:49:29Z</time></trkpt><trkpt lat="43.03619703410945" lon="12.939281144307381"><ele>914.0000000000001</ele><time>2026-04-04T08:49:30Z</time></trkpt><trkpt lat="43.03612392200147" lon="12.939328346501963"><ele>914.6666666666667</ele><time>2026-04-04T08:49:31Z</time></trkpt><trkpt lat="43.03604819519109" lon="12.939382066386873"><ele>915.3333333333334</ele><time>2026-04-04T08:49:31.999Z</time></trkpt><trkpt lat="43.035970324996725" lon="12.939437587678107"><ele>916.0</ele><time>2026-04-04T08:49:32.999Z</time></trkpt><trkpt lat="43.035894105590415" lon="12.93947816594146"><ele>916.6666666666667</ele><time>2026-04-04T08:49:33.999Z</time></trkpt><trkpt lat="43.03581584583392" lon="12.939473947966931"><ele>917.3333333333334</ele><time>2026-04-04T08:49:34.999Z</time></trkpt><trkpt lat="43.03572435879912" lon="12.939415587312356"><ele>918.0</ele><time>2026-04-04T08:49:36.999Z</time></trkpt><trkpt lat="43.03567470892301" lon="12.939358858927053"><ele>918.0</ele><time>2026-04-04T08:49:39.999Z</time></trkpt><trkpt lat="43.03561586873419" lon="12.939319384263156"><ele>918.0</ele><time>2026-04-04T09:09:20.999Z</time></trkpt><trkpt lat="43.03555659117627" lon="12.93927637326505"><ele>918.0</ele><time>2026-04-04T09:09:42.999Z</time></trkpt><trkpt lat="43.035493654690114" lon="12.939180028548067"><ele>918.0</ele><time>2026-04-04T09:09:44.999Z</time></trkpt><trkpt lat="43.035410435069025" lon="12.939072655708257"><ele>918.0</ele><time>2026-04-04T09:09:46.999Z</time></trkpt><trkpt lat="43.035330172827685" lon="12.938970925387"><ele>918.0</ele><time>2026-04-04T09:09:48.999Z</time></trkpt><trkpt lat="43.03526909576266" lon="12.938901556899221"><ele>918.0</ele><time>2026-04-04T09:09:51Z</time></trkpt><trkpt lat="43.03520185265738" lon="12.938864875694389"><ele>918.0</ele><time>2026-04-04T09:10:10Z</time></trkpt><trkpt lat="43.03516889088375" lon="12.938953934444866"><ele>918.0</ele><time>2026-04-04T09:10:12Z</time></trkpt><trkpt lat="43.0351460058461" lon="12.939044851359963"><ele>918.0</ele><time>2026-04-04T09:10:13Z</time></trkpt><trkpt lat="43.03511172980812" lon="12.939134224664043"><ele>918.0</ele><time>2026-04-04T09:10:14Z</time></trkpt><trkpt lat="43.03506440183174" lon="12.93921867073715"><ele>918.0</ele><time>2026-04-04T09:10:15Z</time></trkpt><trkpt lat="43.03500303292004" lon="12.939309109884222"><ele>916.5</ele><time>2026-04-04T09:10:16Z</time></trkpt><trkpt lat="43.03493493352338" lon="12.939383343257925"><ele>915.0</ele><time>2026-04-04T09:10:17Z</time></trkpt><trkpt lat="43.03486030249693" lon="12.939428269309234"><ele>913.5</ele><time>2026-04-04T09:10:18Z</time></trkpt><trkpt lat="43.03478057919941" lon="12.939470983961348"><ele>912.0</ele><time>2026-04-04T09:10:19Z</time></trkpt><trkpt lat="43.03471615563985" lon="12.939534560686168"><ele>910.5</ele><time>2026-04-04T09:10:20Z</time></trkpt><trkpt lat="43.03466277759702" lon="12.939612642915982"><ele>909.0</ele><time>2026-04-04T09:10:21Z</time></trkpt><trkpt lat="43.03463175884322" lon="12.939700512727125"><ele>909.0</ele><time>2026-04-04T09:10:22Z</time></trkpt><trkpt lat="43.03460619286535" lon="12.93981522206449"><ele>909.0</ele><time>2026-04-04T09:10:23Z</time></trkpt><trkpt lat="43.03457838085754" lon="12.939944774270282"><ele>909.0</ele><time>2026-04-04T09:10:24Z</time></trkpt><trkpt lat="43.034556040394" lon="12.940063125598929"><ele>909.0</ele><time>2026-04-04T09:10:25Z</time></trkpt><trkpt lat="43.03452183411408" lon="12.940151468932028"><ele>909.0</ele><time>2026-04-04T09:10:26Z</time></trkpt><trkpt lat="43.03445913218209" lon="12.940214051972921"><ele>909.0</ele><time>2026-04-04T09:10:27Z</time></trkpt><trkpt lat="43.034366665066315" lon="12.940259901673018"><ele>908.8333333333334</ele><time>2026-04-04T09:10:28Z</time></trkpt><trkpt lat="43.03429467043494" lon="12.940320315223925"><ele>908.6666666666667</ele><time>2026-04-04T09:10:29Z</time></trkpt><trkpt lat="43.03421390819929" lon="12.940375823747107"><ele>908.5</ele><time>2026-04-04T09:10:30Z</time></trkpt><trkpt lat="43.03412992332617" lon="12.940437316311176"><ele>908.3333333333334</ele><time>2026-04-04T09:10:31Z</time></trkpt><trkpt lat="43.03404816352753" lon="12.94048359112851"><ele>908.1666666666667</ele><time>2026-04-04T09:10:32Z</time></trkpt><trkpt lat="43.03396604388008" lon="12.940534594226142"><ele>908.0</ele><time>2026-04-04T09:10:33Z</time></trkpt><trkpt lat="43.033906573418044" lon="12.940569971735856"><ele>908.0000000000001</ele><time>2026-04-04T09:10:34Z</time></trkpt><trkpt lat="43.033864779364286" lon="12.9406430968029"><ele>908.0</ele><time>2026-04-04T09:10:35Z</time></trkpt><trkpt lat="43.033825579185304" lon="12.940730241129883"><ele>908.0</ele><time>2026-04-04T09:10:36Z</time></trkpt><trkpt lat="43.033769315513844" lon="12.940803271343603"><ele>908.0</ele><time>2026-04-04T09:10:37Z</time></trkpt><trkpt lat="43.03368543345006" lon="12.940868699118116"><ele>908.0000000000001</ele><time>2026-04-04T09:10:38Z</time></trkpt><trkpt lat="43.03359844064352" lon="12.940998308340703"><ele>908.0</ele><time>2026-04-04T09:10:39Z</time></trkpt><trkpt lat="43.03352737070287" lon="12.941096186196516"><ele>909.1666666666667</ele><time>2026-04-04T09:10:40Z</time></trkpt><trkpt lat="43.0334684076403" lon="12.941158305668013"><ele>910.3333333333334</ele><time>2026-04-04T09:10:41Z</time></trkpt><trkpt lat="43.03339585517224" lon="12.941241877077566"><ele>911.5</ele><time>2026-04-04T09:10:43Z</time></trkpt><trkpt lat="43.033325903285586" lon="12.941336061058173"><ele>912.6666666666667</ele><time>2026-04-04T09:10:45Z</time></trkpt><trkpt lat="43.03328094947445" lon="12.941399052339348"><ele>913.8333333333334</ele><time>2026-04-04T09:10:48Z</time></trkpt><trkpt lat="43.03321706601071" lon="12.94144514597119"><ele>915.0</ele><time>2026-04-04T09:11:23.999Z</time></trkpt><trkpt lat="43.03315146378708" lon="12.94156423191793"><ele>915.0</ele><time>2026-04-04T09:11:25.999Z</time></trkpt><trkpt lat="43.03306974814534" lon="12.941704058521408"><ele>915.0</ele><time>2026-04-04T09:11:27.999Z</time></trkpt><trkpt lat="43.03300580340206" lon="12.94177658879099"><ele>915.0</ele><time>2026-04-04T09:11:28.999Z</time></trkpt><trkpt lat="43.03294683092247" lon="12.941825549092759"><ele>915.0</ele><time>2026-04-04T09:11:29.999Z</time></trkpt><trkpt lat="43.03287572774481" lon="12.941873257495537"><ele>915.0</ele><time>2026-04-04T09:11:30.999Z</time></trkpt><trkpt lat="43.03278537645079" lon="12.941913356117697"><ele>917.8</ele><time>2026-04-04T09:11:31.999Z</time></trkpt><trkpt lat="43.032687916836366" lon="12.941963276500147"><ele>920.6</ele><time>2026-04-04T09:11:32.999Z</time></trkpt><trkpt lat="43.032581235758904" lon="12.94199230965712"><ele>923.4000000000001</ele><time>2026-04-04T09:11:33.999Z</time></trkpt><trkpt lat="43.032471569560265" lon="12.942000465029047"><ele>926.2</ele><time>2026-04-04T09:11:34.999Z</time></trkpt><trkpt lat="43.032350233261596" lon="12.941971892462972"><ele>929.0</ele><time>2026-04-04T09:11:35.999Z</time></trkpt><trkpt lat="43.03222911678471" lon="12.941928364379937"><ele>929.0</ele><time>2026-04-04T09:11:36.999Z</time></trkpt><trkpt lat="43.03210960994902" lon="12.941898929765959"><ele>929.0</ele><time>2026-04-04T09:11:37.999Z</time></trkpt><trkpt lat="43.03196554092635" lon="12.941886488524784"><ele>929.0</ele><time>2026-04-04T09:11:38.999Z</time></trkpt><trkpt lat="43.03183615833997" lon="12.94187003121594"><ele>929.0</ele><time>2026-04-04T09:11:39.999Z</time></trkpt><trkpt lat="43.03172078998941" lon="12.941844106440973"><ele>929.5</ele><time>2026-04-04T09:11:40.999Z</time></trkpt><trkpt lat="43.03160855844052" lon="12.941795128099393"><ele>930.0</ele><time>2026-04-04T09:11:41.999Z</time></trkpt><trkpt lat="43.03149775762478" lon="12.941769671226407"><ele>930.5</ele><time>2026-04-04T09:11:42.999Z</time></trkpt><trkpt lat="43.0313841675678" lon="12.941780687692322"><ele>931.0</ele><time>2026-04-04T09:11:43.999Z</time></trkpt><trkpt lat="43.031273289279746" lon="12.941816311324315"><ele>931.0</ele><time>2026-04-04T09:11:44.999Z</time></trkpt><trkpt lat="43.03116732930418" lon="12.941853720874668"><ele>930.9999999999999</ele><time>2026-04-04T09:11:45.999Z</time></trkpt><trkpt lat="43.031063775683116" lon="12.941912167146626"><ele>930.9999999999999</ele><time>2026-04-04T09:11:46.999Z</time></trkpt><trkpt lat="43.03096508692491" lon="12.941981448057886"><ele>931.0</ele><time>2026-04-04T09:11:47.999Z</time></trkpt><trkpt lat="43.03086370592624" lon="12.942048028821807"><ele>931.0</ele><time>2026-04-04T09:11:48.999Z</time></trkpt><trkpt lat="43.03075935659693" lon="12.942107996028104"><ele>929.1666666666666</ele><time>2026-04-04T09:11:49.999Z</time></trkpt><trkpt lat="43.03065888556691" lon="12.9421783794454"><ele>927.3333333333333</ele><time>2026-04-04T09:11:50.999Z</time></trkpt><trkpt lat="43.030576041553765" lon="12.942243071463208"><ele>925.5</ele><time>2026-04-04T09:11:51.999Z</time></trkpt><trkpt lat="43.030515729276914" lon="12.942293532910492"><ele>923.6666666666667</ele><time>2026-04-04T09:11:52.999Z</time></trkpt><trkpt lat="43.03045243513686" lon="12.942324403428373"><ele>921.8333333333334</ele><time>2026-04-04T09:11:54.999Z</time></trkpt><trkpt lat="43.03043156159731" lon="12.942224298682996"><ele>920.0</ele><time>2026-04-04T09:11:57Z</time></trkpt><trkpt lat="43.03038671164579" lon="12.942051608208358"><ele>920.0</ele><time>2026-04-04T09:11:59Z</time></trkpt><trkpt lat="43.030345909137864" lon="12.941918974326061"><ele>920.0</ele><time>2026-04-04T09:12:00Z</time></trkpt><trkpt lat="43.03030805097291" lon="12.941803985467857"><ele>920.0</ele><time>2026-04-04T09:12:01Z</time></trkpt><trkpt lat="43.03027144237595" lon="12.941709468278683"><ele>920.0</ele><time>2026-04-04T09:12:02Z</time></trkpt><trkpt lat="43.03023216096428" lon="12.941632684646178"><ele>920.0</ele><time>2026-04-04T09:12:03Z</time></trkpt><trkpt lat="43.03018287812801" lon="12.941477053953726"><ele>919.0000000000001</ele><time>2026-04-04T09:12:05Z</time></trkpt><trkpt lat="43.03017708612331" lon="12.941384549678421"><ele>918.0</ele><time>2026-04-04T09:12:06Z</time></trkpt><trkpt lat="43.03015541657895" lon="12.941289193177756"><ele>917.0</ele><time>2026-04-04T09:12:07Z</time></trkpt><trkpt lat="43.03011948486625" lon="12.94118786729975"><ele>916.0</ele><time>2026-04-04T09:12:08Z</time></trkpt><trkpt lat="43.03007406360678" lon="12.941086933047885"><ele>915.0000000000001</ele><time>2026-04-04T09:12:09Z</time></trkpt><trkpt lat="43.03003231565327" lon="12.940976015072932"><ele>914.0</ele><time>2026-04-04T09:12:10Z</time></trkpt><trkpt lat="43.02999299755019" lon="12.940851571747453"><ele>911.6</ele><time>2026-04-04T09:12:11Z</time></trkpt><trkpt lat="43.02995315047326" lon="12.94072196683617"><ele>909.2</ele><time>2026-04-04T09:12:12Z</time></trkpt><trkpt lat="43.02990783729374" lon="12.94058799576457"><ele>906.8000000000001</ele><time>2026-04-04T09:12:13Z</time></trkpt><trkpt lat="43.02986779525676" lon="12.940450189407319"><ele>904.4000000000001</ele><time>2026-04-04T09:12:14Z</time></trkpt><trkpt lat="43.029836731241296" lon="12.940329465502098"><ele>902.0</ele><time>2026-04-04T09:12:15Z</time></trkpt><trkpt lat="43.02980464895276" lon="12.940221981334238"><ele>902.0000000000001</ele><time>2026-04-04T09:12:16Z</time></trkpt><trkpt lat="43.02977679192902" lon="12.940136368951828"><ele>902.0</ele><time>2026-04-04T09:12:17Z</time></trkpt><trkpt lat="43.02978229546902" lon="12.940042446145075"><ele>902.0</ele><time>2026-04-04T09:12:18Z</time></trkpt><trkpt lat="43.02981697161883" lon="12.9399312057157"><ele>902.0</ele><time>2026-04-04T09:12:19Z</time></trkpt><trkpt lat="43.02984891843983" lon="12.939792661637242"><ele>902.0000000000001</ele><time>2026-04-04T09:12:20Z</time></trkpt><trkpt lat="43.02988055870508" lon="12.939666635941562"><ele>902.0</ele><time>2026-04-04T09:12:21Z</time></trkpt><trkpt lat="43.02991058314121" lon="12.939559822534854"><ele>901.5000000000001</ele><time>2026-04-04T09:12:22Z</time></trkpt><trkpt lat="43.02991154265155" lon="12.939448352893441"><ele>901.0</ele><time>2026-04-04T09:12:23Z</time></trkpt><trkpt lat="43.02989041950735" lon="12.93934095879558"><ele>900.5</ele><time>2026-04-04T09:12:24Z</time></trkpt><trkpt lat="43.029861240256004" lon="12.939242068872009"><ele>900.0</ele><time>2026-04-04T09:12:25Z</time></trkpt><trkpt lat="43.02982438677699" lon="12.939138608320572"><ele>899.5000000000001</ele><time>2026-04-04T09:12:26Z</time></trkpt><trkpt lat="43.029768588133074" lon="12.93905016272044"><ele>899.0</ele><time>2026-04-04T09:12:27Z</time></trkpt><trkpt lat="43.02970194081124" lon="12.938932594266896"><ele>897.4000000000001</ele><time>2026-04-04T09:12:28Z</time></trkpt><trkpt lat="43.029639859704766" lon="12.93881315470702"><ele>895.8000000000001</ele><time>2026-04-04T09:12:29Z</time></trkpt><trkpt lat="43.02958762731593" lon="12.938702050738405"><ele>894.1999999999999</ele><time>2026-04-04T09:12:30Z</time></trkpt><trkpt lat="43.029536476839674" lon="12.938593025773834"><ele>892.5999999999999</ele><time>2026-04-04T09:12:31Z</time></trkpt><trkpt lat="43.02947934303279" lon="12.938480451799805"><ele>891.0</ele><time>2026-04-04T09:12:32Z</time></trkpt><trkpt lat="43.02941656696137" lon="12.938376121213079"><ele>887.5999999999999</ele><time>2026-04-04T09:12:33Z</time></trkpt><trkpt lat="43.02935604887263" lon="12.938282097390097"><ele>884.1999999999999</ele><time>2026-04-04T09:12:34Z</time></trkpt><trkpt lat="43.02932846162217" lon="12.938150985672722"><ele>880.8000000000001</ele><time>2026-04-04T09:12:35Z</time></trkpt><trkpt lat="43.029313567835295" lon="12.937993164581677"><ele>877.4000000000001</ele><time>2026-04-04T09:12:36Z</time></trkpt><trkpt lat="43.02930237595605" lon="12.937829179256694"><ele>874.0</ele><time>2026-04-04T09:12:37Z</time></trkpt><trkpt lat="43.02930538980635" lon="12.937667446476555"><ele>869.3333333333333</ele><time>2026-04-04T09:12:38Z</time></trkpt><trkpt lat="43.02931914266237" lon="12.937459224065982"><ele>864.6666666666667</ele><time>2026-04-04T09:12:39Z</time></trkpt><trkpt lat="43.029316185344186" lon="12.93724940300439"><ele>860.0</ele><time>2026-04-04T09:12:40Z</time></trkpt><trkpt lat="43.029294027108904" lon="12.937040476998181"><ele>860.0</ele><time>2026-04-04T09:12:41Z</time></trkpt><trkpt lat="43.029259227456144" lon="12.936842413915013"><ele>860.0</ele><time>2026-04-04T09:12:42Z</time></trkpt><trkpt lat="43.029229461891155" lon="12.936655137877539"><ele>860.0</ele><time>2026-04-04T09:12:43Z</time></trkpt><trkpt lat="43.02921933369488" lon="12.936480068792157"><ele>860.0</ele><time>2026-04-04T09:12:44Z</time></trkpt><trkpt lat="43.029227510164084" lon="12.93629649857402"><ele>857.0</ele><time>2026-04-04T09:12:45Z</time></trkpt><trkpt lat="43.029259431782826" lon="12.936126338371693"><ele>854.0</ele><time>2026-04-04T09:12:46Z</time></trkpt><trkpt lat="43.02930792126487" lon="12.935952243419798"><ele>851.0</ele><time>2026-04-04T09:12:47Z</time></trkpt><trkpt lat="43.029367662258906" lon="12.93577741243276"><ele>848.0</ele><time>2026-04-04T09:12:48Z</time></trkpt><trkpt lat="43.02942678983389" lon="12.935604976827085"><ele>845.0</ele><time>2026-04-04T09:12:49Z</time></trkpt><trkpt lat="43.02947944595812" lon="12.935441698102874"><ele>842.0</ele><time>2026-04-04T09:12:50Z</time></trkpt><trkpt lat="43.02953267905165" lon="12.935282030128308"><ele>839.0</ele><time>2026-04-04T09:12:51Z</time></trkpt><trkpt lat="43.029605924523025" lon="12.935123548575172"><ele>836.0</ele><time>2026-04-04T09:12:52Z</time></trkpt><trkpt lat="43.02969161425969" lon="12.93494487997741"><ele>831.0</ele><time>2026-04-04T09:12:53Z</time></trkpt><trkpt lat="43.02975405288094" lon="12.934764105800225"><ele>826.0</ele><time>2026-04-04T09:12:54Z</time></trkpt><trkpt lat="43.0298089013145" lon="12.93454224916977"><ele>821.0</ele><time>2026-04-04T09:12:55Z</time></trkpt><trkpt lat="43.02986350268804" lon="12.93432273926742"><ele>821.0</ele><time>2026-04-04T09:12:56Z</time></trkpt><trkpt lat="43.02992209366482" lon="12.93411394035674"><ele>821.0</ele><time>2026-04-04T09:12:57Z</time></trkpt><trkpt lat="43.02998452648095" lon="12.933917459984556"><ele>821.0</ele><time>2026-04-04T09:12:58Z</time></trkpt><trkpt lat="43.030043357304486" lon="12.93370455499709"><ele>821.0</ele><time>2026-04-04T09:12:59Z</time></trkpt><trkpt lat="43.030098226013415" lon="12.933510202966483"><ele>821.0</ele><time>2026-04-04T09:13:00Z</time></trkpt><trkpt lat="43.030159735807366" lon="12.933300317036206"><ele>821.0</ele><time>2026-04-04T09:13:01Z</time></trkpt><trkpt lat="43.03022305939225" lon="12.93310262032381"><ele>819.25</ele><time>2026-04-04T09:13:02Z</time></trkpt><trkpt lat="43.03026860729188" lon="12.932925607369473"><ele>817.5</ele><time>2026-04-04T09:13:03Z</time></trkpt><trkpt lat="43.03028428224128" lon="12.932766870564697"><ele>815.75</ele><time>2026-04-04T09:13:04Z</time></trkpt><trkpt lat="43.030311256538305" lon="12.932612605070839"><ele>814.0</ele><time>2026-04-04T09:13:05Z</time></trkpt><trkpt lat="43.03033488754696" lon="12.932470707012913"><ele>811.9999999999999</ele><time>2026-04-04T09:13:06Z</time></trkpt><trkpt lat="43.03036351241045" lon="12.932333369885836"><ele>810.0</ele><time>2026-04-04T09:13:07Z</time></trkpt><trkpt lat="43.03040514030993" lon="12.932225134107794"><ele>808.0</ele><time>2026-04-04T09:13:08Z</time></trkpt><trkpt lat="43.030452605569124" lon="12.932136831758982"><ele>806.0</ele><time>2026-04-04T09:13:09Z</time></trkpt><trkpt lat="43.030509585377494" lon="12.932049459078769"><ele>803.9999999999999</ele><time>2026-04-04T09:13:10Z</time></trkpt><trkpt lat="43.030553091659925" lon="12.931956110830578"><ele>802.0</ele><time>2026-04-04T09:13:11Z</time></trkpt><trkpt lat="43.03059431716631" lon="12.931862234302557"><ele>801.9999999999999</ele><time>2026-04-04T09:13:12Z</time></trkpt><trkpt lat="43.030639821638886" lon="12.931772136645849"><ele>802.0</ele><time>2026-04-04T09:13:13Z</time></trkpt><trkpt lat="43.03065698502748" lon="12.931688747690403"><ele>802.0</ele><time>2026-04-04T09:13:14Z</time></trkpt><trkpt lat="43.03066737365853" lon="12.931600392245661"><ele>802.0</ele><time>2026-04-04T09:13:15Z</time></trkpt><trkpt lat="43.03065104801867" lon="12.931516775547033"><ele>801.9999999999999</ele><time>2026-04-04T09:13:16Z</time></trkpt><trkpt lat="43.030624863386265" lon="12.931405491688341"><ele>802.0</ele><time>2026-04-04T09:13:17Z</time></trkpt><trkpt lat="43.03061088802262" lon="12.9312807214088"><ele>799.6</ele><time>2026-04-04T09:13:18Z</time></trkpt><trkpt lat="43.03059927049248" lon="12.931152947613349"><ele>797.2</ele><time>2026-04-04T09:13:19Z</time></trkpt><trkpt lat="43.03058425968072" lon="12.931028468078644"><ele>794.8</ele><time>2026-04-04T09:13:20Z</time></trkpt><trkpt lat="43.03057860861446" lon="12.930897041835564"><ele>792.4</ele><time>2026-04-04T09:13:21Z</time></trkpt><trkpt lat="43.03059106380036" lon="12.930749249668283"><ele>790.0</ele><time>2026-04-04T09:13:22Z</time></trkpt><trkpt lat="43.030585308678255" lon="12.930583907832746"><ele>788.6</ele><time>2026-04-04T09:13:23Z</time></trkpt><trkpt lat="43.03059266241033" lon="12.930402383597137"><ele>787.2</ele><time>2026-04-04T09:13:24Z</time></trkpt><trkpt lat="43.030598683195784" lon="12.930245546793321"><ele>785.8</ele><time>2026-04-04T09:13:25Z</time></trkpt><trkpt lat="43.03059416594043" lon="12.930112519968993"><ele>784.4</ele><time>2026-04-04T09:13:26Z</time></trkpt><trkpt lat="43.030585091029536" lon="12.930022415902158"><ele>783.0</ele><time>2026-04-04T09:13:27Z</time></trkpt><trkpt lat="43.03062595166938" lon="12.92990606714431"><ele>783.0</ele><time>2026-04-04T09:13:29Z</time></trkpt><trkpt lat="43.03071441452987" lon="12.929793566435654"><ele>783.0</ele><time>2026-04-04T09:13:30.999Z</time></trkpt><trkpt lat="43.030780162533276" lon="12.929654926981192"><ele>783.0</ele><time>2026-04-04T09:13:32.999Z</time></trkpt><trkpt lat="43.03084619515108" lon="12.929512825151864"><ele>783.0</ele><time>2026-04-04T09:13:34.999Z</time></trkpt><trkpt lat="43.0308825920593" lon="12.929440667439284"><ele>783.0</ele><time>2026-04-04T09:13:35.999Z</time></trkpt><trkpt lat="43.03093243296593" lon="12.929297437459201"><ele>781.8</ele><time>2026-04-04T09:13:37.999Z</time></trkpt><trkpt lat="43.03099035226277" lon="12.929144518636921"><ele>780.5999999999999</ele><time>2026-04-04T09:13:39.999Z</time></trkpt><trkpt lat="43.03103579444047" lon="12.92899688539282"><ele>779.4000000000001</ele><time>2026-04-04T09:13:41.999Z</time></trkpt><trkpt lat="43.03106762561042" lon="12.928844238353463"><ele>778.2</ele><time>2026-04-04T09:13:43.999Z</time></trkpt><trkpt lat="43.03108260933351" lon="12.92875844989851"><ele>777.0</ele><time>2026-04-04T09:13:44.999Z</time></trkpt><trkpt lat="43.031090310600014" lon="12.92865645288461"><ele>777.0</ele><time>2026-04-04T09:13:45.999Z</time></trkpt><trkpt lat="43.031113178854774" lon="12.928544000991288"><ele>777.0</ele><time>2026-04-04T09:13:46.999Z</time></trkpt><trkpt lat="43.031132858389995" lon="12.928419609559873"><ele>777.0</ele><time>2026-04-04T09:13:47.999Z</time></trkpt><trkpt lat="43.03115318449713" lon="12.928267038031596"><ele>777.0</ele><time>2026-04-04T09:13:48.999Z</time></trkpt><trkpt lat="43.03118474205138" lon="12.928086389182905"><ele>777.0</ele><time>2026-04-04T09:13:49.999Z</time></trkpt><trkpt lat="43.03121299293899" lon="12.927888456936245"><ele>776.3333333333333</ele><time>2026-04-04T09:13:50.999Z</time></trkpt><trkpt lat="43.03125734242044" lon="12.927655517997048"><ele>775.6666666666666</ele><time>2026-04-04T09:13:51.999Z</time></trkpt><trkpt lat="43.03130028511169" lon="12.927431703003702"><ele>775.0</ele><time>2026-04-04T09:13:52.999Z</time></trkpt><trkpt lat="43.03133535578589" lon="12.927221607675657"><ele>775.0</ele><time>2026-04-04T09:13:53.999Z</time></trkpt><trkpt lat="43.031368884538544" lon="12.927024871409607"><ele>775.0</ele><time>2026-04-04T09:13:54.999Z</time></trkpt><trkpt lat="43.03140849850469" lon="12.926851161892902"><ele>775.0</ele><time>2026-04-04T09:13:55.999Z</time></trkpt><trkpt lat="43.03147014235012" lon="12.926690075553626"><ele>775.0</ele><time>2026-04-04T09:13:56.999Z</time></trkpt><trkpt lat="43.031553737460776" lon="12.926543095896113"><ele>775.75</ele><time>2026-04-04T09:13:57.999Z</time></trkpt><trkpt lat="43.03163378353883" lon="12.92640764853093"><ele>776.5</ele><time>2026-04-04T09:13:58.999Z</time></trkpt><trkpt lat="43.03169733874199" lon="12.92625930027975"><ele>777.25</ele><time>2026-04-04T09:13:59.999Z</time></trkpt><trkpt lat="43.03175093528673" lon="12.926091589228932"><ele>778.0</ele><time>2026-04-04T09:14:00.999Z</time></trkpt><trkpt lat="43.03180454167095" lon="12.925920332568067"><ele>776.25</ele><time>2026-04-04T09:14:02Z</time></trkpt><trkpt lat="43.03185709230791" lon="12.92576074552702"><ele>774.5</ele><time>2026-04-04T09:14:03Z</time></trkpt><trkpt lat="43.031906175898314" lon="12.925607664398711"><ele>772.75</ele><time>2026-04-04T09:14:04Z</time></trkpt><trkpt lat="43.03194122024659" lon="12.925456613622512"><ele>771.0</ele><time>2026-04-04T09:14:05Z</time></trkpt><trkpt lat="43.031903129252335" lon="12.925329956259711"><ele>771.0</ele><time>2026-04-04T09:14:06.001Z</time></trkpt><trkpt lat="43.03187798026982" lon="12.925224794822476"><ele>771.0</ele><time>2026-04-04T09:14:07Z</time></trkpt><trkpt lat="43.031859501087034" lon="12.925128151133402"><ele>771.0</ele><time>2026-04-04T09:14:08Z</time></trkpt><trkpt lat="43.03184529997293" lon="12.925036470961006"><ele>771.0</ele><time>2026-04-04T09:14:09.001Z</time></trkpt><trkpt lat="43.03182493580152" lon="12.92488142139298"><ele>771.0</ele><time>2026-04-04T09:14:11.001Z</time></trkpt><trkpt lat="43.03179281379846" lon="12.924788809205115"><ele>771.0</ele><time>2026-04-04T09:14:13Z</time></trkpt><trkpt lat="43.0315945638006" lon="12.924723535829049"><ele>772.8</ele><time>2026-04-04T09:14:17Z</time></trkpt><trkpt lat="43.031466419541196" lon="12.924693035144605"><ele>774.5999999999999</ele><time>2026-04-04T09:14:19Z</time></trkpt><trkpt lat="43.03138977816451" lon="12.924670066245413"><ele>776.4</ele><time>2026-04-04T09:14:20Z</time></trkpt><trkpt lat="43.03130285688015" lon="12.924648982409956"><ele>778.2</ele><time>2026-04-04T09:14:21Z</time></trkpt><trkpt lat="43.03120919099768" lon="12.924647574316227"><ele>780.0</ele><time>2026-04-04T09:14:22Z</time></trkpt><trkpt lat="43.0311124810608" lon="12.924668796179413"><ele>780.0</ele><time>2026-04-04T09:14:23Z</time></trkpt><trkpt lat="43.03101468611565" lon="12.924701145609722"><ele>780.0</ele><time>2026-04-04T09:14:24Z</time></trkpt><trkpt lat="43.03091606137624" lon="12.924739000624847"><ele>780.0</ele><time>2026-04-04T09:14:25Z</time></trkpt><trkpt lat="43.03081019029594" lon="12.924774971640533"><ele>780.0</ele><time>2026-04-04T09:14:26Z</time></trkpt><trkpt lat="43.03070305413912" lon="12.924802539174008"><ele>780.0</ele><time>2026-04-04T09:14:27Z</time></trkpt><trkpt lat="43.030614093426806" lon="12.924838017335434"><ele>783.4</ele><time>2026-04-04T09:14:28Z</time></trkpt><trkpt lat="43.03054089431263" lon="12.92489518521166"><ele>786.8</ele><time>2026-04-04T09:14:29Z</time></trkpt><trkpt lat="43.030466328086064" lon="12.924981290743526"><ele>790.2</ele><time>2026-04-04T09:14:30Z</time></trkpt><trkpt lat="43.03037029800778" lon="12.925046363880574"><ele>793.6</ele><time>2026-04-04T09:14:31Z</time></trkpt><trkpt lat="43.030257259982484" lon="12.925067280243479"><ele>797.0</ele><time>2026-04-04T09:14:32Z</time></trkpt><trkpt lat="43.03015632928315" lon="12.925081273869788"><ele>798.8</ele><time>2026-04-04T09:14:33Z</time></trkpt><trkpt lat="43.0300750231221" lon="12.925102180922808"><ele>800.6</ele><time>2026-04-04T09:14:34Z</time></trkpt><trkpt lat="43.029974295837754" lon="12.925160144643408"><ele>802.4</ele><time>2026-04-04T09:14:35Z</time></trkpt><trkpt lat="43.02988306362233" lon="12.925216186969402"><ele>804.1999999999999</ele><time>2026-04-04T09:14:36Z</time></trkpt><trkpt lat="43.029791129405076" lon="12.925283025832615"><ele>806.0</ele><time>2026-04-04T09:14:37Z</time></trkpt><trkpt lat="43.02969102724917" lon="12.925348236007194"><ele>808.4</ele><time>2026-04-04T09:14:38Z</time></trkpt><trkpt lat="43.02959374256879" lon="12.925410388757598"><ele>810.8</ele><time>2026-04-04T09:14:39Z</time></trkpt><trkpt lat="43.02949661196154" lon="12.925475230367947"><ele>813.1999999999999</ele><time>2026-04-04T09:14:40Z</time></trkpt><trkpt lat="43.029395077816744" lon="12.925542260578927"><ele>815.5999999999999</ele><time>2026-04-04T09:14:41Z</time></trkpt><trkpt lat="43.029295884465505" lon="12.92561740728084"><ele>818.0</ele><time>2026-04-04T09:14:42Z</time></trkpt><trkpt lat="43.029196995398124" lon="12.925696435256844"><ele>819.25</ele><time>2026-04-04T09:14:43Z</time></trkpt><trkpt lat="43.02910259252482" lon="12.925770196761029"><ele>820.5</ele><time>2026-04-04T09:14:44Z</time></trkpt><trkpt lat="43.028995269931954" lon="12.925844843988381"><ele>821.75</ele><time>2026-04-04T09:14:45Z</time></trkpt><trkpt lat="43.0288812181986" lon="12.925918848390653"><ele>823.0</ele><time>2026-04-04T09:14:46Z</time></trkpt><trkpt lat="43.028766335066216" lon="12.925998380740836"><ele>825.0</ele><time>2026-04-04T09:14:47Z</time></trkpt><trkpt lat="43.02865274693485" lon="12.926102219779414"><ele>827.0</ele><time>2026-04-04T09:14:48Z</time></trkpt><trkpt lat="43.02854693198727" lon="12.926204227242678"><ele>829.0</ele><time>2026-04-04T09:14:49Z</time></trkpt><trkpt lat="43.02843133320739" lon="12.926299757428344"><ele>831.0</ele><time>2026-04-04T09:14:50Z</time></trkpt><trkpt lat="43.02829276230612" lon="12.926388726892231"><ele>833.5</ele><time>2026-04-04T09:14:51Z</time></trkpt><trkpt lat="43.02814708684008" lon="12.926470428110925"><ele>836.0</ele><time>2026-04-04T09:14:52Z</time></trkpt><trkpt lat="43.02802498323267" lon="12.926519142170092"><ele>838.5</ele><time>2026-04-04T09:14:53Z</time></trkpt><trkpt lat="43.027915450400826" lon="12.926536590066723"><ele>841.0</ele><time>2026-04-04T09:14:54Z</time></trkpt><trkpt lat="43.02780968095672" lon="12.926552557352963"><ele>841.0</ele><time>2026-04-04T09:14:55Z</time></trkpt><trkpt lat="43.02770324250669" lon="12.926601449504458"><ele>841.0</ele><time>2026-04-04T09:14:56Z</time></trkpt><trkpt lat="43.027596102135654" lon="12.926647422733925"><ele>841.0</ele><time>2026-04-04T09:14:57Z</time></trkpt><trkpt lat="43.02749359546149" lon="12.926710238154989"><ele>841.0</ele><time>2026-04-04T09:14:58Z</time></trkpt><trkpt lat="43.02739432615178" lon="12.926787817959996"><ele>845.0</ele><time>2026-04-04T09:14:59Z</time></trkpt><trkpt lat="43.02729374377395" lon="12.926877334358448"><ele>849.0</ele><time>2026-04-04T09:15:00Z</time></trkpt><trkpt lat="43.02719411447929" lon="12.926972300416244"><ele>853.0</ele><time>2026-04-04T09:15:01Z</time></trkpt><trkpt lat="43.02708254001269" lon="12.92706105302028"><ele>857.0</ele><time>2026-04-04T09:15:02Z</time></trkpt><trkpt lat="43.0269552870739" lon="12.92714362614137"><ele>857.0</ele><time>2026-04-04T09:15:03Z</time></trkpt><trkpt lat="43.02682837400325" lon="12.927195738307345"><ele>857.0</ele><time>2026-04-04T09:15:04Z</time></trkpt><trkpt lat="43.02670211842373" lon="12.927188575204921"><ele>857.0</ele><time>2026-04-04T09:15:05Z</time></trkpt><trkpt lat="43.02656810443369" lon="12.927179092003275"><ele>857.0</ele><time>2026-04-04T09:15:06Z</time></trkpt><trkpt lat="43.026438045739106" lon="12.927176247642734"><ele>858.0</ele><time>2026-04-04T09:15:07Z</time></trkpt><trkpt lat="43.02631070021817" lon="12.927180435359581"><ele>859.0</ele><time>2026-04-04T09:15:08Z</time></trkpt><trkpt lat="43.02617408915036" lon="12.92719335622456"><ele>860.0</ele><time>2026-04-04T09:15:09Z</time></trkpt><trkpt lat="43.02602143870982" lon="12.927191689548216"><ele>861.0</ele><time>2026-04-04T09:15:10Z</time></trkpt><trkpt lat="43.02587383461003" lon="12.92718700845208"><ele>860.0</ele><time>2026-04-04T09:15:11Z</time></trkpt><trkpt lat="43.025720712134465" lon="12.927184361996376"><ele>859.0</ele><time>2026-04-04T09:15:12Z</time></trkpt><trkpt lat="43.02556741113306" lon="12.927185269670309"><ele>858.0</ele><time>2026-04-04T09:15:13Z</time></trkpt><trkpt lat="43.02541502598617" lon="12.927193212173565"><ele>858.0</ele><time>2026-04-04T09:15:14Z</time></trkpt><trkpt lat="43.02527416699325" lon="12.927194034052441"><ele>858.0</ele><time>2026-04-04T09:15:15Z</time></trkpt><trkpt lat="43.02514192651947" lon="12.927203103759547"><ele>858.0</ele><time>2026-04-04T09:15:16Z</time></trkpt><trkpt lat="43.02501370096565" lon="12.927235049050166"><ele>858.0</ele><time>2026-04-04T09:15:17Z</time></trkpt><trkpt lat="43.02489612193864" lon="12.927285984561058"><ele>856.8</ele><time>2026-04-04T09:15:18Z</time></trkpt><trkpt lat="43.0247775611724" lon="12.927349531693748"><ele>855.5999999999999</ele><time>2026-04-04T09:15:19Z</time></trkpt><trkpt lat="43.024665603229295" lon="12.927399617554217"><ele>854.4000000000001</ele><time>2026-04-04T09:15:20Z</time></trkpt><trkpt lat="43.02456703376392" lon="12.92744137012819"><ele>853.2</ele><time>2026-04-04T09:15:21Z</time></trkpt><trkpt lat="43.024474071103334" lon="12.927486465605648"><ele>852.0</ele><time>2026-04-04T09:15:22Z</time></trkpt><trkpt lat="43.0243796839788" lon="12.92752127075866"><ele>852.0</ele><time>2026-04-04T09:15:23Z</time></trkpt><trkpt lat="43.02429774188872" lon="12.927546234798093"><ele>852.0</ele><time>2026-04-04T09:15:24Z</time></trkpt><trkpt lat="43.02420642020639" lon="12.927579587713161"><ele>852.0</ele><time>2026-04-04T09:15:26Z</time></trkpt><trkpt lat="43.02412799230021" lon="12.927481262187692"><ele>852.0</ele><time>2026-04-04T09:15:29Z</time></trkpt><trkpt lat="43.02402243014147" lon="12.927386105348711"><ele>852.0</ele><time>2026-04-04T09:15:30.999Z</time></trkpt><trkpt lat="43.023954144154985" lon="12.927317419775466"><ele>852.0</ele><time>2026-04-04T09:15:31.999Z</time></trkpt><trkpt lat="43.02388220473985" lon="12.927231132533656"><ele>852.0</ele><time>2026-04-04T09:15:32.999Z</time></trkpt><trkpt lat="43.02380047313172" lon="12.927141842959903"><ele>852.0</ele><time>2026-04-04T09:15:33.999Z</time></trkpt><trkpt lat="43.023709074751025" lon="12.92704769094035"><ele>852.0</ele><time>2026-04-04T09:15:34.999Z</time></trkpt><trkpt lat="43.02360659152802" lon="12.926967361689535"><ele>852.0</ele><time>2026-04-04T09:15:35.999Z</time></trkpt><trkpt lat="43.0235040083188" lon="12.926898387162522"><ele>852.0</ele><time>2026-04-04T09:15:36.999Z</time></trkpt><trkpt lat="43.02339453697214" lon="12.926840697145023"><ele>852.0</ele><time>2026-04-04T09:15:37.999Z</time></trkpt><trkpt lat="43.02328148216459" lon="12.92678279146972"><ele>852.0</ele><time>2026-04-04T09:15:38.999Z</time></trkpt><trkpt lat="43.02316545010442" lon="12.92673699131537"><ele>852.0</ele><time>2026-04-04T09:15:39.999Z</time></trkpt><trkpt lat="43.02304852174611" lon="12.926696181367115"><ele>853.25</ele><time>2026-04-04T09:15:40.999Z</time></trkpt><trkpt lat="43.02293456604" lon="12.926645648796258"><ele>854.5</ele><time>2026-04-04T09:15:41.999Z</time></trkpt><trkpt lat="43.02282259757746" lon="12.926595232388857"><ele>855.75</ele><time>2026-04-04T09:15:42.998Z</time></trkpt><trkpt lat="43.02270394813933" lon="12.926543602529703"><ele>857.0</ele><time>2026-04-04T09:15:43.998Z</time></trkpt><trkpt lat="43.022583891710575" lon="12.926485028479533"><ele>857.75</ele><time>2026-04-04T09:15:44.998Z</time></trkpt><trkpt lat="43.0224644603318" lon="12.926414230363022"><ele>858.5</ele><time>2026-04-04T09:15:45.998Z</time></trkpt><trkpt lat="43.022342390043754" lon="12.926342082810793"><ele>859.25</ele><time>2026-04-04T09:15:46.998Z</time></trkpt><trkpt lat="43.02221592652984" lon="12.926288436099476"><ele>860.0</ele><time>2026-04-04T09:15:47.998Z</time></trkpt><trkpt lat="43.02210975403326" lon="12.926255309684967"><ele>860.0</ele><time>2026-04-04T09:15:48.998Z</time></trkpt><trkpt lat="43.02202233246976" lon="12.926239878326168"><ele>860.0</ele><time>2026-04-04T09:15:49.998Z</time></trkpt><trkpt lat="43.021953845862626" lon="12.926241639217404"><ele>860.0</ele><time>2026-04-04T09:15:50.998Z</time></trkpt><trkpt lat="43.021874589707934" lon="12.926280107168012"><ele>860.0</ele><time>2026-04-04T09:15:52.998Z</time></trkpt><trkpt lat="43.0217840943565" lon="12.926394245250611"><ele>860.0</ele><time>2026-04-04T09:15:54.998Z</time></trkpt><trkpt lat="43.02172352062472" lon="12.926488053967375"><ele>860.0</ele><time>2026-04-04T09:15:55.998Z</time></trkpt><trkpt lat="43.021660646755564" lon="12.926580012393194"><ele>860.0</ele><time>2026-04-04T09:15:56.998Z</time></trkpt><trkpt lat="43.021587266033755" lon="12.926677405953665"><ele>860.0</ele><time>2026-04-04T09:15:57.998Z</time></trkpt><trkpt lat="43.02151054211014" lon="12.926781861764722"><ele>860.0</ele><time>2026-04-04T09:15:58.998Z</time></trkpt><trkpt lat="43.02142591331383" lon="12.926882156820245"><ele>860.0</ele><time>2026-04-04T09:15:59.998Z</time></trkpt><trkpt lat="43.02133432344329" lon="12.926963231665859"><ele>862.8</ele><time>2026-04-04T09:16:00.998Z</time></trkpt><trkpt lat="43.02123478178211" lon="12.927025737050005"><ele>865.6</ele><time>2026-04-04T09:16:01.998Z</time></trkpt><trkpt lat="43.0211347669028" lon="12.927084271106388"><ele>868.4000000000001</ele><time>2026-04-04T09:16:02.998Z</time></trkpt><trkpt lat="43.02103232695948" lon="12.927131167122791"><ele>871.2</ele><time>2026-04-04T09:16:03.998Z</time></trkpt><trkpt lat="43.020930323758456" lon="12.927170460660006"><ele>874.0</ele><time>2026-04-04T09:16:04.998Z</time></trkpt><trkpt lat="43.02083126739319" lon="12.92719854085425"><ele>876.2</ele><time>2026-04-04T09:16:05.998Z</time></trkpt><trkpt lat="43.020729744220574" lon="12.927208835229727"><ele>878.4000000000001</ele><time>2026-04-04T09:16:06.998Z</time></trkpt><trkpt lat="43.02063156639031" lon="12.927211554067615"><ele>880.6</ele><time>2026-04-04T09:16:08Z</time></trkpt><trkpt lat="43.02052875847229" lon="12.927210219297324"><ele>882.8</ele><time>2026-04-04T09:16:09Z</time></trkpt><trkpt lat="43.02042151626325" lon="12.927222178822111"><ele>885.0</ele><time>2026-04-04T09:16:10Z</time></trkpt><trkpt lat="43.020317014420854" lon="12.927236761756115"><ele>885.0</ele><time>2026-04-04T09:16:11Z</time></trkpt><trkpt lat="43.02020835793081" lon="12.927254947215465"><ele>885.0</ele><time>2026-04-04T09:16:12Z</time></trkpt><trkpt lat="43.020113532965766" lon="12.927263540675721"><ele>885.0</ele><time>2026-04-04T09:16:13Z</time></trkpt><trkpt lat="43.02001675482191" lon="12.927272287036278"><ele>885.0</ele><time>2026-04-04T09:16:14Z</time></trkpt><trkpt lat="43.01992146345558" lon="12.927266442707474"><ele>885.0</ele><time>2026-04-04T09:16:15Z</time></trkpt><trkpt lat="43.0198470461332" lon="12.927247696921828"><ele>884.0</ele><time>2026-04-04T09:16:16Z</time></trkpt><trkpt lat="43.01978555511401" lon="12.92722880739681"><ele>883.0</ele><time>2026-04-04T09:16:17Z</time></trkpt><trkpt lat="43.01972342101287" lon="12.927183753670542"><ele>882.0</ele><time>2026-04-04T09:16:18Z</time></trkpt><trkpt lat="43.019666282336686" lon="12.927097742693338"><ele>881.0</ele><time>2026-04-04T09:16:19Z</time></trkpt><trkpt lat="43.01961843910711" lon="12.926993556617742"><ele>880.0</ele><time>2026-04-04T09:16:20Z</time></trkpt><trkpt lat="43.01955864580343" lon="12.926894683493137"><ele>879.0</ele><time>2026-04-04T09:16:21Z</time></trkpt><trkpt lat="43.019499861408335" lon="12.926824692721326"><ele>879.0</ele><time>2026-04-04T09:16:22Z</time></trkpt><trkpt lat="43.01942198498672" lon="12.926737466067904"><ele>879.0000000000001</ele><time>2026-04-04T09:16:24Z</time></trkpt><trkpt lat="43.01934038908805" lon="12.926736915267314"><ele>879.0000000000001</ele><time>2026-04-04T09:16:26.999Z</time></trkpt><trkpt lat="43.01932206678824" lon="12.926867729402284"><ele>879.0</ele><time>2026-04-04T09:16:28.999Z</time></trkpt><trkpt lat="43.01931955371667" lon="12.927034793950563"><ele>879.0</ele><time>2026-04-04T09:16:30.999Z</time></trkpt><trkpt lat="43.0192906557824" lon="12.92711625020553"><ele>879.0</ele><time>2026-04-04T09:16:31.999Z</time></trkpt><trkpt lat="43.019265418618424" lon="12.92720007781587"><ele>879.0</ele><time>2026-04-04T09:16:32.999Z</time></trkpt><trkpt lat="43.01922277714363" lon="12.927284889614647"><ele>879.0</ele><time>2026-04-04T09:16:33.999Z</time></trkpt><trkpt lat="43.01917176486793" lon="12.927384059624444"><ele>879.0</ele><time>2026-04-04T09:16:34.999Z</time></trkpt><trkpt lat="43.019122231560175" lon="12.927488274740387"><ele>879.0</ele><time>2026-04-04T09:16:35.999Z</time></trkpt><trkpt lat="43.01908057688639" lon="12.927595418735711"><ele>879.0</ele><time>2026-04-04T09:16:36.999Z</time></trkpt><trkpt lat="43.019034372822475" lon="12.927687605365643"><ele>875.0</ele><time>2026-04-04T09:16:37.999Z</time></trkpt><trkpt lat="43.0189744883679" lon="12.927767913414627"><ele>871.0000000000001</ele><time>2026-04-04T09:16:38.999Z</time></trkpt><trkpt lat="43.01889097528506" lon="12.927831314823461"><ele>867.0000000000001</ele><time>2026-04-04T09:16:39.999Z</time></trkpt><trkpt lat="43.01881509248925" lon="12.927886354832737"><ele>863.0</ele><time>2026-04-04T09:16:40.999Z</time></trkpt><trkpt lat="43.018764763232475" lon="12.927941509651463"><ele>859.0</ele><time>2026-04-04T09:16:41.999Z</time></trkpt><trkpt lat="43.01867964613173" lon="12.928095286395925"><ele>859.0</ele><time>2026-04-04T09:16:43.999Z</time></trkpt><trkpt lat="43.01864321014169" lon="12.928211377402969"><ele>859.0000000000001</ele><time>2026-04-04T09:16:44.999Z</time></trkpt><trkpt lat="43.01860163572177" lon="12.928340632032356"><ele>859.0000000000001</ele><time>2026-04-04T09:16:45.999Z</time></trkpt><trkpt lat="43.01855059783469" lon="12.928472930293413"><ele>859.0</ele><time>2026-04-04T09:16:46.999Z</time></trkpt><trkpt lat="43.01849583682582" lon="12.928563575991824"><ele>859.0</ele><time>2026-04-04T09:16:47.999Z</time></trkpt><trkpt lat="43.018427646434326" lon="12.928633022448517"><ele>860.6</ele><time>2026-04-04T09:16:48.999Z</time></trkpt><trkpt lat="43.01832440671594" lon="12.92867965423954"><ele>862.2</ele><time>2026-04-04T09:16:49.999Z</time></trkpt><trkpt lat="43.01820537604007" lon="12.928691287858296"><ele>863.8000000000001</ele><time>2026-04-04T09:16:50.999Z</time></trkpt><trkpt lat="43.01810892702108" lon="12.928719310100577"><ele>865.4000000000001</ele><time>2026-04-04T09:16:51.999Z</time></trkpt><trkpt lat="43.018023268146884" lon="12.928760791891518"><ele>867.0</ele><time>2026-04-04T09:16:52.999Z</time></trkpt><trkpt lat="43.01792135239443" lon="12.928856413921368"><ele>863.0</ele><time>2026-04-04T09:16:53.999Z</time></trkpt><trkpt lat="43.01781145304974" lon="12.92894446312693"><ele>859.0</ele><time>2026-04-04T09:16:54.999Z</time></trkpt><trkpt lat="43.01770375514402" lon="12.929021618725178"><ele>855.0</ele><time>2026-04-04T09:16:55.999Z</time></trkpt><trkpt lat="43.01759057843779" lon="12.929091963921792"><ele>851.0</ele><time>2026-04-04T09:16:56.999Z</time></trkpt><trkpt lat="43.0174797405843" lon="12.929150808334926"><ele>850.6666666666667</ele><time>2026-04-04T09:16:57.999Z</time></trkpt><trkpt lat="43.01738094259289" lon="12.929189722370667"><ele>850.3333333333334</ele><time>2026-04-04T09:16:58.999Z</time></trkpt><trkpt lat="43.0172906467323" lon="12.929189547804771"><ele>850.0</ele><time>2026-04-04T09:16:59.999Z</time></trkpt><trkpt lat="43.01722629085362" lon="12.9291587765946"><ele>849.6666666666667</ele><time>2026-04-04T09:17:00.999Z</time></trkpt><trkpt lat="43.01716323462752" lon="12.929097827185702"><ele>849.3333333333334</ele><time>2026-04-04T09:17:01.999Z</time></trkpt><trkpt lat="43.01710229730877" lon="12.929034764251721"><ele>849.0</ele><time>2026-04-04T09:17:02.999Z</time></trkpt><trkpt lat="43.017048993882774" lon="12.928959132337626"><ele>849.0</ele><time>2026-04-04T09:17:03.999Z</time></trkpt><trkpt lat="43.01701078755272" lon="12.928888399906102"><ele>849.0</ele><time>2026-04-04T09:17:04.999Z</time></trkpt><trkpt lat="43.01695076282971" lon="12.928755617217284"><ele>849.0</ele><time>2026-04-04T09:17:06.999Z</time></trkpt><trkpt lat="43.01691039484889" lon="12.928674491588374"><ele>849.0</ele><time>2026-04-04T09:17:07.999Z</time></trkpt><trkpt lat="43.01687916534549" lon="12.928576778166155"><ele>849.0</ele><time>2026-04-04T09:17:08.999Z</time></trkpt><trkpt lat="43.01685763431223" lon="12.928475441568128"><ele>849.0</ele><time>2026-04-04T09:17:09.999Z</time></trkpt><trkpt lat="43.01684307227255" lon="12.9283758560405"><ele>849.5714285714287</ele><time>2026-04-04T09:17:10.999Z</time></trkpt><trkpt lat="43.016822132847004" lon="12.928281228177516"><ele>850.1428571428571</ele><time>2026-04-04T09:17:11.999Z</time></trkpt><trkpt lat="43.01678837295353" lon="12.928149998233183"><ele>850.7142857142858</ele><time>2026-04-04T09:17:13.999Z</time></trkpt><trkpt lat="43.01677172479148" lon="12.928060676164726"><ele>851.2857142857143</ele><time>2026-04-04T09:17:19.999Z</time></trkpt><trkpt lat="43.016721752971186" lon="12.927997887765526"><ele>851.8571428571429</ele><time>2026-04-04T09:18:12.998Z</time></trkpt><trkpt lat="43.01675931020949" lon="12.927916446899308"><ele>852.4285714285714</ele><time>2026-04-04T09:18:27Z</time></trkpt><trkpt lat="43.01676594614714" lon="12.927829890400632"><ele>853.0</ele><time>2026-04-04T09:19:01.999Z</time></trkpt><trkpt lat="43.01681518871339" lon="12.927744044744971"><ele>853.0</ele><time>2026-04-04T09:19:04.999Z</time></trkpt><trkpt lat="43.016875972666" lon="12.927593819174698"><ele>853.0</ele><time>2026-04-04T09:19:06.999Z</time></trkpt><trkpt lat="43.016932645594814" lon="12.927418232679127"><ele>853.0</ele><time>2026-04-04T09:19:08.999Z</time></trkpt><trkpt lat="43.01694586327327" lon="12.9273177302017"><ele>853.0</ele><time>2026-04-04T09:19:09.999Z</time></trkpt><trkpt lat="43.01695406900736" lon="12.927188952557712"><ele>853.0</ele><time>2026-04-04T09:19:10.999Z</time></trkpt><trkpt lat="43.016960089203046" lon="12.927052411448997"><ele>855.5999999999999</ele><time>2026-04-04T09:19:11.999Z</time></trkpt><trkpt lat="43.01695631026531" lon="12.926903368371004"><ele>858.1999999999999</ele><time>2026-04-04T09:19:12.999Z</time></trkpt><trkpt lat="43.016955776756305" lon="12.926765215024869"><ele>860.8</ele><time>2026-04-04T09:19:13.999Z</time></trkpt><trkpt lat="43.01695948139956" lon="12.926615301747587"><ele>863.4</ele><time>2026-04-04T09:19:14.999Z</time></trkpt><trkpt lat="43.01692504353453" lon="12.926481722808202"><ele>866.0</ele><time>2026-04-04T09:19:15.999Z</time></trkpt><trkpt lat="43.01691383653993" lon="12.926324097224539"><ele>868.5999999999999</ele><time>2026-04-04T09:19:16.999Z</time></trkpt><trkpt lat="43.01690166913161" lon="12.926155708602137"><ele>871.1999999999999</ele><time>2026-04-04T09:19:17.999Z</time></trkpt><trkpt lat="43.01690457080865" lon="12.92601012129642"><ele>873.8000000000001</ele><time>2026-04-04T09:19:18.999Z</time></trkpt><trkpt lat="43.01688232095389" lon="12.925886360219389"><ele>876.4000000000001</ele><time>2026-04-04T09:19:19.999Z</time></trkpt><trkpt lat="43.01685669869372" lon="12.925774253893316"><ele>879.0</ele><time>2026-04-04T09:19:20.999Z</time></trkpt><trkpt lat="43.01684560672664" lon="12.925660279467238"><ele>879.0</ele><time>2026-04-04T09:19:21.999Z</time></trkpt><trkpt lat="43.016820800679845" lon="12.925572825216005"><ele>879.0</ele><time>2026-04-04T09:19:22.999Z</time></trkpt><trkpt lat="43.01676875145744" lon="12.925484303842149"><ele>879.0</ele><time>2026-04-04T09:19:24.999Z</time></trkpt><trkpt lat="43.01673409585521" lon="12.925386593681182"><ele>879.0</ele><time>2026-04-04T09:19:26.999Z</time></trkpt><trkpt lat="43.016694730261364" lon="12.925289761663379"><ele>879.0</ele><time>2026-04-04T09:19:29.999Z</time></trkpt><trkpt lat="43.01663296121598" lon="12.925217242070469"><ele>879.0</ele><time>2026-04-04T09:19:31.999Z</time></trkpt><trkpt lat="43.01655464990698" lon="12.925110085973154"><ele>882.7142857142858</ele><time>2026-04-04T09:19:33.999Z</time></trkpt><trkpt lat="43.016512812592346" lon="12.925031485828066"><ele>886.4285714285714</ele><time>2026-04-04T09:19:34.999Z</time></trkpt><trkpt lat="43.01646728888891" lon="12.924953095946499"><ele>890.1428571428571</ele><time>2026-04-04T09:19:35.999Z</time></trkpt><trkpt lat="43.01642494342039" lon="12.924877483277397"><ele>893.8571428571429</ele><time>2026-04-04T09:19:36.999Z</time></trkpt><trkpt lat="43.01638638304383" lon="12.924795755932491"><ele>897.5714285714284</ele><time>2026-04-04T09:19:37.999Z</time></trkpt><trkpt lat="43.016351253793516" lon="12.924709181734457"><ele>901.2857142857142</ele><time>2026-04-04T09:19:38.999Z</time></trkpt><trkpt lat="43.016306165242334" lon="12.924628682048247"><ele>905.0</ele><time>2026-04-04T09:19:39.999Z</time></trkpt><trkpt lat="43.01623180050444" lon="12.92455008552559"><ele>905.0000000000001</ele><time>2026-04-04T09:19:41.999Z</time></trkpt><trkpt lat="43.01618164888581" lon="12.924494162296115"><ele>905.0</ele><time>2026-04-04T09:19:43.999Z</time></trkpt><trkpt lat="43.01610780318105" lon="12.924395682455241"><ele>905.0</ele><time>2026-04-04T09:19:45.999Z</time></trkpt><trkpt lat="43.016033439840854" lon="12.924357081592477"><ele>905.0</ele><time>2026-04-04T09:19:46.999Z</time></trkpt><trkpt lat="43.015951225426065" lon="12.92430155914051"><ele>905.0000000000001</ele><time>2026-04-04T09:19:47.999Z</time></trkpt><trkpt lat="43.01589043349543" lon="12.924200836193402"><ele>905.0</ele><time>2026-04-04T09:19:48.999Z</time></trkpt><trkpt lat="43.015888624808134" lon="12.924072424886447"><ele>902.8</ele><time>2026-04-04T09:19:49.999Z</time></trkpt><trkpt lat="43.01591533772877" lon="12.923922224525462"><ele>900.6</ele><time>2026-04-04T09:19:50.999Z</time></trkpt><trkpt lat="43.01593767128472" lon="12.923814827258363"><ele>898.4000000000001</ele><time>2026-04-04T09:19:52.999Z</time></trkpt><trkpt lat="43.01586522018054" lon="12.92371147024056"><ele>896.2</ele><time>2026-04-04T09:19:55.999Z</time></trkpt><trkpt lat="43.01584722438882" lon="12.92362245213294"><ele>894.0</ele><time>2026-04-04T09:19:56.999Z</time></trkpt><trkpt lat="43.01586436743666" lon="12.923482745408801"><ele>893.75</ele><time>2026-04-04T09:19:57.999Z</time></trkpt><trkpt lat="43.015875674112884" lon="12.923340952876023"><ele>893.5</ele><time>2026-04-04T09:19:58.999Z</time></trkpt><trkpt lat="43.01584558862088" lon="12.923159249729059"><ele>893.25</ele><time>2026-04-04T09:20:00.999Z</time></trkpt><trkpt lat="43.015820557151876" lon="12.923375369691913"><ele>893.0</ele><time>2026-04-04T09:20:01.999Z</time></trkpt><trkpt lat="43.01587099624363" lon="12.923266678676047"><ele>893.0</ele><time>2026-04-04T09:20:02.999Z</time></trkpt><trkpt lat="43.01590619839444" lon="12.923148814839537"><ele>893.0</ele><time>2026-04-04T09:20:03.999Z</time></trkpt><trkpt lat="43.01593987042804" lon="12.923014262015785"><ele>893.0</ele><time>2026-04-04T09:20:04.998Z</time></trkpt><trkpt lat="43.01598510127613" lon="12.922877554449435"><ele>893.0</ele><time>2026-04-04T09:20:05.998Z</time></trkpt><trkpt lat="43.01601724583433" lon="12.922723121976915"><ele>893.0</ele><time>2026-04-04T09:20:06.998Z</time></trkpt><trkpt lat="43.016037567547926" lon="12.922593085737018"><ele>894.8</ele><time>2026-04-04T09:20:07.998Z</time></trkpt><trkpt lat="43.01604149929033" lon="12.922468472972485"><ele>896.5999999999999</ele><time>2026-04-04T09:20:08.998Z</time></trkpt><trkpt lat="43.01603553880132" lon="12.922341939484056"><ele>898.4000000000001</ele><time>2026-04-04T09:20:09.998Z</time></trkpt><trkpt lat="43.01596720339138" lon="12.922210009428607"><ele>900.2</ele><time>2026-04-04T09:20:10.998Z</time></trkpt><trkpt lat="43.01589459387679" lon="12.922104995856392"><ele>902.0</ele><time>2026-04-04T09:20:11.998Z</time></trkpt><trkpt lat="43.01577202336927" lon="12.921138870949811"><ele>911.25</ele><time>2026-04-04T09:20:12.998Z</time></trkpt><trkpt lat="43.015698631390144" lon="12.921084325314448"><ele>920.5</ele><time>2026-04-04T09:20:13.998Z</time></trkpt><trkpt lat="43.01563234316061" lon="12.921122525569452"><ele>929.75</ele><time>2026-04-04T09:20:14.998Z</time></trkpt><trkpt lat="43.01556486712722" lon="12.921144623698853"><ele>939.0</ele><time>2026-04-04T09:20:15.998Z</time></trkpt><trkpt lat="43.01571851636133" lon="12.921733967866892"><ele>939.0</ele><time>2026-04-04T09:20:16.998Z</time></trkpt><trkpt lat="43.01576567378117" lon="12.921566232497188"><ele>939.0</ele><time>2026-04-04T09:20:18.998Z</time></trkpt><trkpt lat="43.015827200765585" lon="12.921486739550199"><ele>939.0</ele><time>2026-04-04T09:20:20Z</time></trkpt><trkpt lat="43.01587904440896" lon="12.921424104545874"><ele>939.0</ele><time>2026-04-04T09:20:21Z</time></trkpt><trkpt lat="43.01591864363301" lon="12.92133879133696"><ele>939.0</ele><time>2026-04-04T09:20:22Z</time></trkpt><trkpt lat="43.015916807798654" lon="12.92121611445169"><ele>939.0</ele><time>2026-04-04T09:20:23Z</time></trkpt><trkpt lat="43.01591537494489" lon="12.921102493959506"><ele>934.6</ele><time>2026-04-04T09:20:24Z</time></trkpt><trkpt lat="43.015924763554274" lon="12.921004758921116"><ele>930.2</ele><time>2026-04-04T09:20:25Z</time></trkpt><trkpt lat="43.01594163101916" lon="12.92087281490769"><ele>925.8000000000001</ele><time>2026-04-04T09:20:26Z</time></trkpt><trkpt lat="43.0160099457452" lon="12.920764143994424"><ele>921.4000000000001</ele><time>2026-04-04T09:20:27Z</time></trkpt><trkpt lat="43.016098398681756" lon="12.920641228789632"><ele>917.0</ele><time>2026-04-04T09:20:28Z</time></trkpt><trkpt lat="43.01617038769529" lon="12.920502370854672"><ele>917.0</ele><time>2026-04-04T09:20:29Z</time></trkpt><trkpt lat="43.01622626298817" lon="12.920356903468388"><ele>917.0</ele><time>2026-04-04T09:20:30Z</time></trkpt><trkpt lat="43.016274147930915" lon="12.920192108669182"><ele>917.0</ele><time>2026-04-04T09:20:31Z</time></trkpt><trkpt lat="43.01632365133974" lon="12.920040026559425"><ele>917.0</ele><time>2026-04-04T09:20:32Z</time></trkpt><trkpt lat="43.01636675427321" lon="12.919858081764005"><ele>918.25</ele><time>2026-04-04T09:20:33Z</time></trkpt><trkpt lat="43.016405846696074" lon="12.919676762857897"><ele>919.5</ele><time>2026-04-04T09:20:34Z</time></trkpt><trkpt lat="43.01642955585218" lon="12.919496493781649"><ele>920.75</ele><time>2026-04-04T09:20:35Z</time></trkpt><trkpt lat="43.01644994182358" lon="12.91928227289462"><ele>922.0</ele><time>2026-04-04T09:20:36Z</time></trkpt><trkpt lat="43.01647522718715" lon="12.919091467383092"><ele>923.25</ele><time>2026-04-04T09:20:37Z</time></trkpt><trkpt lat="43.01649395683414" lon="12.9189266313959"><ele>924.5</ele><time>2026-04-04T09:20:38Z</time></trkpt><trkpt lat="43.016516304517104" lon="12.918760121290182"><ele>925.75</ele><time>2026-04-04T09:20:39Z</time></trkpt><trkpt lat="43.016533999786596" lon="12.918603383340646"><ele>927.0</ele><time>2026-04-04T09:20:40Z</time></trkpt><trkpt lat="43.01654688490149" lon="12.918464127744048"><ele>927.8</ele><time>2026-04-04T09:20:41Z</time></trkpt><trkpt lat="43.01657062008848" lon="12.918355429513293"><ele>928.6</ele><time>2026-04-04T09:20:42Z</time></trkpt><trkpt lat="43.01665186983411" lon="12.91817440097215"><ele>929.3999999999999</ele><time>2026-04-04T09:20:44Z</time></trkpt><trkpt lat="43.0167083923262" lon="12.918082835865288"><ele>930.1999999999999</ele><time>2026-04-04T09:20:45Z</time></trkpt><trkpt lat="43.016752854272085" lon="12.91797441960964"><ele>931.0</ele><time>2026-04-04T09:20:46Z</time></trkpt><trkpt lat="43.01680663322651" lon="12.917878836816536"><ele>929.5999999999999</ele><time>2026-04-04T09:20:46.999Z</time></trkpt><trkpt lat="43.01691098413483" lon="12.91778800004919"><ele>928.1999999999999</ele><time>2026-04-04T09:20:47.999Z</time></trkpt><trkpt lat="43.01698955031092" lon="12.917682002109995"><ele>926.8000000000001</ele><time>2026-04-04T09:20:48.999Z</time></trkpt><trkpt lat="43.01706439514961" lon="12.91756897118538"><ele>925.4000000000001</ele><time>2026-04-04T09:20:49.999Z</time></trkpt><trkpt lat="43.01713574302512" lon="12.917468597996425"><ele>924.0</ele><time>2026-04-04T09:20:50.999Z</time></trkpt><trkpt lat="43.01719813340877" lon="12.917381703646035"><ele>924.0</ele><time>2026-04-04T09:20:51.999Z</time></trkpt><trkpt lat="43.017252006746006" lon="12.917308593807608"><ele>924.0000000000001</ele><time>2026-04-04T09:20:52.999Z</time></trkpt><trkpt lat="43.01728027112362" lon="12.91717257508021"><ele>924.0000000000001</ele><time>2026-04-04T09:20:54.999Z</time></trkpt><trkpt lat="43.01727846703557" lon="12.917055445212632"><ele>924.0</ele><time>2026-04-04T09:20:56.999Z</time></trkpt><trkpt lat="43.017217891236626" lon="12.916967313772199"><ele>924.0</ele><time>2026-04-04T09:21:05.999Z</time></trkpt><trkpt lat="43.01713176973781" lon="12.916898424543808"><ele>924.0</ele><time>2026-04-04T09:21:07.999Z</time></trkpt><trkpt lat="43.017017709762555" lon="12.916926404734737"><ele>924.0000000000001</ele><time>2026-04-04T09:21:09.999Z</time></trkpt><trkpt lat="43.016945936770874" lon="12.916942313383956"><ele>924.0000000000001</ele><time>2026-04-04T09:21:10.999Z</time></trkpt><trkpt lat="43.016885210300096" lon="12.91700163487818"><ele>924.0</ele><time>2026-04-04T09:21:11.999Z</time></trkpt><trkpt lat="43.01677389595838" lon="12.917081168117797"><ele>924.0</ele><time>2026-04-04T09:21:12.999Z</time></trkpt><trkpt lat="43.01667397912014" lon="12.917168170514923"><ele>926.0</ele><time>2026-04-04T09:21:13.999Z</time></trkpt><trkpt lat="43.016568099101406" lon="12.917241440678746"><ele>928.0</ele><time>2026-04-04T09:21:14.999Z</time></trkpt><trkpt lat="43.016451027777755" lon="12.917304780743196"><ele>930.0</ele><time>2026-04-04T09:21:15.999Z</time></trkpt><trkpt lat="43.016339858885274" lon="12.917369110241252"><ele>932.0</ele><time>2026-04-04T09:21:16.999Z</time></trkpt><trkpt lat="43.01621562093942" lon="12.91742915612648"><ele>932.0</ele><time>2026-04-04T09:21:17.999Z</time></trkpt><trkpt lat="43.01608514108355" lon="12.917460894129217"><ele>932.0</ele><time>2026-04-04T09:21:18.999Z</time></trkpt><trkpt lat="43.015971768543" lon="12.917484560602693"><ele>932.0</ele><time>2026-04-04T09:21:19.999Z</time></trkpt><trkpt lat="43.015873865396905" lon="12.917538757193638"><ele>932.0</ele><time>2026-04-04T09:21:20.999Z</time></trkpt><trkpt lat="43.015783122101006" lon="12.91765600844299"><ele>933.8</ele><time>2026-04-04T09:21:21.999Z</time></trkpt><trkpt lat="43.0156829979467" lon="12.917767534757512"><ele>935.6</ele><time>2026-04-04T09:21:22.999Z</time></trkpt><trkpt lat="43.01559097397109" lon="12.917866894835187"><ele>937.3999999999999</ele><time>2026-04-04T09:21:23.999Z</time></trkpt><trkpt lat="43.015501201457" lon="12.917942726299321"><ele>939.1999999999999</ele><time>2026-04-04T09:21:24.999Z</time></trkpt><trkpt lat="43.015434890925206" lon="12.91802498689234"><ele>941.0</ele><time>2026-04-04T09:21:25.999Z</time></trkpt><trkpt lat="43.01538331816149" lon="12.918163861841862"><ele>941.0</ele><time>2026-04-04T09:21:26.999Z</time></trkpt><trkpt lat="43.01535371543796" lon="12.918293763755125"><ele>940.9999999999999</ele><time>2026-04-04T09:21:27.999Z</time></trkpt><trkpt lat="43.01534625216138" lon="12.918388166479094"><ele>940.9999999999999</ele><time>2026-04-04T09:21:28.999Z</time></trkpt><trkpt lat="43.01535113448015" lon="12.918522974515412"><ele>941.0</ele><time>2026-04-04T09:21:29.999Z</time></trkpt><trkpt lat="43.01535005270257" lon="12.918706248354614"><ele>941.0</ele><time>2026-04-04T09:21:30.999Z</time></trkpt><trkpt lat="43.01534550759895" lon="12.91888529134304"><ele>941.25</ele><time>2026-04-04T09:21:31.999Z</time></trkpt><trkpt lat="43.01533287026335" lon="12.919030539370066"><ele>941.5</ele><time>2026-04-04T09:21:32.999Z</time></trkpt><trkpt lat="43.01530695445612" lon="12.919159038230255"><ele>941.75</ele><time>2026-04-04T09:21:33.999Z</time></trkpt><trkpt lat="43.01525585144159" lon="12.919294282064794"><ele>942.0</ele><time>2026-04-04T09:21:34.999Z</time></trkpt><trkpt lat="43.01518998056015" lon="12.919458982935097"><ele>941.5</ele><time>2026-04-04T09:21:35.999Z</time></trkpt><trkpt lat="43.01511327609481" lon="12.919604547678315"><ele>941.0</ele><time>2026-04-04T09:21:36.999Z</time></trkpt><trkpt lat="43.01500976012785" lon="12.919744700742458"><ele>940.5</ele><time>2026-04-04T09:21:37.999Z</time></trkpt><trkpt lat="43.01490442455838" lon="12.919899302546865"><ele>940.0</ele><time>2026-04-04T09:21:38.999Z</time></trkpt><trkpt lat="43.014833665603476" lon="12.920016718090658"><ele>941.9999999999999</ele><time>2026-04-04T09:21:39.999Z</time></trkpt><trkpt lat="43.01479088141487" lon="12.920106212251664"><ele>944.0</ele><time>2026-04-04T09:21:40.999Z</time></trkpt><trkpt lat="43.01476705424205" lon="12.9202089631589"><ele>946.0</ele><time>2026-04-04T09:21:41.999Z</time></trkpt><trkpt lat="43.01473546806173" lon="12.920336101018789"><ele>948.0</ele><time>2026-04-04T09:21:42.999Z</time></trkpt><trkpt lat="43.014713049655334" lon="12.920427114330883"><ele>949.9999999999999</ele><time>2026-04-04T09:21:43.999Z</time></trkpt><trkpt lat="43.01465342762591" lon="12.920495461303569"><ele>952.0</ele><time>2026-04-04T09:21:44.999Z</time></trkpt><trkpt lat="43.01456197794458" lon="12.920544728482303"><ele>951.9999999999999</ele><time>2026-04-04T09:21:45.999Z</time></trkpt><trkpt lat="43.0144842250484" lon="12.920559408064351"><ele>952.0</ele><time>2026-04-04T09:21:46.999Z</time></trkpt><trkpt lat="43.0144052726486" lon="12.920547049266874"><ele>952.0</ele><time>2026-04-04T09:21:47.999Z</time></trkpt><trkpt lat="43.01432041460402" lon="12.920538081183311"><ele>952.0</ele><time>2026-04-04T09:21:48.999Z</time></trkpt><trkpt lat="43.01423573242289" lon="12.920539747932455"><ele>951.9999999999999</ele><time>2026-04-04T09:21:49.999Z</time></trkpt><trkpt lat="43.014151335996644" lon="12.920537241857362"><ele>952.0</ele><time>2026-04-04T09:21:50.999Z</time></trkpt><trkpt lat="43.01406678668539" lon="12.920521487344441"><ele>956.0</ele><time>2026-04-04T09:21:51.999Z</time></trkpt><trkpt lat="43.01398635531907" lon="12.920484345908127"><ele>960.0</ele><time>2026-04-04T09:21:52.999Z</time></trkpt><trkpt lat="43.01389228538529" lon="12.920428228790932"><ele>964.0</ele><time>2026-04-04T09:21:53.999Z</time></trkpt><trkpt lat="43.01378757055978" lon="12.92037560392371"><ele>968.0</ele><time>2026-04-04T09:21:54.999Z</time></trkpt><trkpt lat="43.01367645405654" lon="12.920336556748598"><ele>972.0</ele><time>2026-04-04T09:21:55.999Z</time></trkpt><trkpt lat="43.013551222219114" lon="12.92029312410035"><ele>972.0</ele><time>2026-04-04T09:21:56.999Z</time></trkpt><trkpt lat="43.01341932890795" lon="12.920237790490821"><ele>972.0</ele><time>2026-04-04T09:21:57.999Z</time></trkpt><trkpt lat="43.013286190507976" lon="12.920174296264797"><ele>972.0</ele><time>2026-04-04T09:21:58.999Z</time></trkpt><trkpt lat="43.01312709771883" lon="12.920111656997843"><ele>972.0</ele><time>2026-04-04T09:21:59.999Z</time></trkpt><trkpt lat="43.01294573209796" lon="12.92003899920635"><ele>975.6666666666667</ele><time>2026-04-04T09:22:00.999Z</time></trkpt><trkpt lat="43.01275273409239" lon="12.919949502509798"><ele>979.3333333333334</ele><time>2026-04-04T09:22:01.999Z</time></trkpt><trkpt lat="43.0125760987797" lon="12.919834413154906"><ele>983.0</ele><time>2026-04-04T09:22:02.999Z</time></trkpt><trkpt lat="43.01244025122364" lon="12.919729823532235"><ele>985.5</ele><time>2026-04-04T09:22:03.999Z</time></trkpt><trkpt lat="43.01232700265632" lon="12.919668323607329"><ele>988.0</ele><time>2026-04-04T09:22:04.999Z</time></trkpt><trkpt lat="43.01221455396719" lon="12.919678590500222"><ele>990.5</ele><time>2026-04-04T09:22:05.999Z</time></trkpt><trkpt lat="43.012101923786496" lon="12.919730241751163"><ele>993.0</ele><time>2026-04-04T09:22:06.999Z</time></trkpt><trkpt lat="43.01198576284359" lon="12.919820816338353"><ele>993.0</ele><time>2026-04-04T09:22:07.999Z</time></trkpt><trkpt lat="43.011856800374424" lon="12.919944027858783"><ele>993.0</ele><time>2026-04-04T09:22:08.999Z</time></trkpt><trkpt lat="43.011711264581486" lon="12.920076309023132"><ele>993.0</ele><time>2026-04-04T09:22:09.999Z</time></trkpt><trkpt lat="43.01156027961198" lon="12.920205107086767"><ele>998.25</ele><time>2026-04-04T09:22:10.999Z</time></trkpt><trkpt lat="43.011441850552984" lon="12.920318765711123"><ele>1003.5</ele><time>2026-04-04T09:22:11.999Z</time></trkpt><trkpt lat="43.011354346124456" lon="12.920438455779832"><ele>1008.75</ele><time>2026-04-04T09:22:12.999Z</time></trkpt><trkpt lat="43.01127387387837" lon="12.920572575375651"><ele>1014.0</ele><time>2026-04-04T09:22:13.999Z</time></trkpt><trkpt lat="43.0112111767571" lon="12.92069064947273"><ele>1014.0</ele><time>2026-04-04T09:22:14.999Z</time></trkpt><trkpt lat="43.01113516491234" lon="12.920795518214653"><ele>1014.0000000000001</ele><time>2026-04-04T09:22:15.998Z</time></trkpt><trkpt lat="43.011076222039705" lon="12.92088315564491"><ele>1014.0000000000001</ele><time>2026-04-04T09:22:16.998Z</time></trkpt><trkpt lat="43.01099891747525" lon="12.92096493185271"><ele>1014.0</ele><time>2026-04-04T09:22:17.998Z</time></trkpt><trkpt lat="43.01089984269757" lon="12.921015968966309"><ele>1014.0</ele><time>2026-04-04T09:22:18.998Z</time></trkpt><trkpt lat="43.01081123279077" lon="12.9210294578367"><ele>1019.6</ele><time>2026-04-04T09:22:19.998Z</time></trkpt><trkpt lat="43.01072284382615" lon="12.921037221934006"><ele>1025.2</ele><time>2026-04-04T09:22:20.998Z</time></trkpt><trkpt lat="43.010619726703396" lon="12.921065300004788"><ele>1030.8000000000002</ele><time>2026-04-04T09:22:21.998Z</time></trkpt><trkpt lat="43.01053645249058" lon="12.921104415881565"><ele>1036.4</ele><time>2026-04-04T09:22:22.998Z</time></trkpt><trkpt lat="43.010456062562504" lon="12.921197418834382"><ele>1042.0</ele><time>2026-04-04T09:22:23.998Z</time></trkpt><trkpt lat="43.01039184711846" lon="12.921274965268749"><ele>1042.0</ele><time>2026-04-04T09:22:24.998Z</time></trkpt><trkpt lat="43.01028324916925" lon="12.921249019328863"><ele>1042.0</ele><time>2026-04-04T09:22:27Z</time></trkpt><trkpt lat="43.010227724911246" lon="12.921200334660258"><ele>1042.0</ele><time>2026-04-04T09:22:29Z</time></trkpt><trkpt lat="43.01013972430195" lon="12.921098630686943"><ele>1042.0</ele><time>2026-04-04T09:22:32Z</time></trkpt><trkpt lat="43.010082431806765" lon="12.921052392483316"><ele>1042.0</ele><time>2026-04-04T09:22:33Z</time></trkpt><trkpt lat="43.01001753819749" lon="12.92103050484303"><ele>1042.0</ele><time>2026-04-04T09:22:34Z</time></trkpt><trkpt lat="43.00988438707656" lon="12.92102099293197"><ele>1042.8</ele><time>2026-04-04T09:22:36Z</time></trkpt><trkpt lat="43.009795676779994" lon="12.921019766883303"><ele>1043.6</ele><time>2026-04-04T09:22:37Z</time></trkpt><trkpt lat="43.00970417825007" lon="12.920989425458597"><ele>1044.3999999999999</ele><time>2026-04-04T09:22:38Z</time></trkpt><trkpt lat="43.00963379973922" lon="12.920916080032582"><ele>1045.2</ele><time>2026-04-04T09:22:39Z</time></trkpt><trkpt lat="43.00960424600103" lon="12.920811449149799"><ele>1046.0</ele><time>2026-04-04T09:22:40Z</time></trkpt><trkpt lat="43.009483358083095" lon="12.920736245699002"><ele>1046.0</ele><time>2026-04-04T09:22:42Z</time></trkpt><trkpt lat="43.00939036910022" lon="12.920712045222897"><ele>1046.0</ele><time>2026-04-04T09:22:43Z</time></trkpt><trkpt lat="43.00932773930518" lon="12.920684827976856"><ele>1046.0</ele><time>2026-04-04T09:22:44Z</time></trkpt><trkpt lat="43.009357077827616" lon="12.920568776731892"><ele>1046.0</ele><time>2026-04-04T09:22:47Z</time></trkpt><trkpt lat="43.009374688544575" lon="12.920443905164314"><ele>1046.0</ele><time>2026-04-04T09:22:49Z</time></trkpt><trkpt lat="43.00939845406769" lon="12.920349718411611"><ele>1046.0</ele><time>2026-04-04T09:22:51Z</time></trkpt><trkpt lat="43.00940391199755" lon="12.920258941936302"><ele>1046.0</ele><time>2026-04-04T09:22:53Z</time></trkpt><trkpt lat="43.009414270097345" lon="12.920173091279226"><ele>1046.0</ele><time>2026-04-04T09:22:55Z</time></trkpt><trkpt lat="43.00942152485869" lon="12.920085868460665"><ele>1046.0</ele><time>2026-04-04T09:22:56.999Z</time></trkpt><trkpt lat="43.00943521015759" lon="12.919966165138849"><ele>1046.0</ele><time>2026-04-04T09:22:58.999Z</time></trkpt><trkpt lat="43.00943996124563" lon="12.919866988679942"><ele>1046.0</ele><time>2026-04-04T09:22:59.999Z</time></trkpt><trkpt lat="43.00944649802087" lon="12.919745699646308"><ele>1046.0</ele><time>2026-04-04T09:23:00.999Z</time></trkpt><trkpt lat="43.009455830741295" lon="12.91962161261372"><ele>1045.8</ele><time>2026-04-04T09:23:01.999Z</time></trkpt><trkpt lat="43.00947341593318" lon="12.919489875251776"><ele>1045.6</ele><time>2026-04-04T09:23:02.999Z</time></trkpt><trkpt lat="43.00949889145944" lon="12.919357869825324"><ele>1045.4</ele><time>2026-04-04T09:23:03.999Z</time></trkpt><trkpt lat="43.00953121868111" lon="12.919228215422937"><ele>1045.2</ele><time>2026-04-04T09:23:04.999Z</time></trkpt><trkpt lat="43.00956931883309" lon="12.919091925660691"><ele>1045.0</ele><time>2026-04-04T09:23:05.999Z</time></trkpt><trkpt lat="43.00960714808053" lon="12.918955355189881"><ele>1045.0</ele><time>2026-04-04T09:23:06.999Z</time></trkpt><trkpt lat="43.00963126114771" lon="12.918821483931188"><ele>1045.0</ele><time>2026-04-04T09:23:07.999Z</time></trkpt><trkpt lat="43.00963333946897" lon="12.918662945984858"><ele>1045.0</ele><time>2026-04-04T09:23:08.999Z</time></trkpt><trkpt lat="43.009620786515114" lon="12.918510135953177"><ele>1045.0</ele><time>2026-04-04T09:23:09.999Z</time></trkpt><trkpt lat="43.009606275778864" lon="12.918369314929507"><ele>1045.0</ele><time>2026-04-04T09:23:10.999Z</time></trkpt><trkpt lat="43.00958835275597" lon="12.918208686255833"><ele>1046.25</ele><time>2026-04-04T09:23:11.999Z</time></trkpt><trkpt lat="43.00955381169499" lon="12.918064692493228"><ele>1047.5</ele><time>2026-04-04T09:23:12.999Z</time></trkpt><trkpt lat="43.009523599454816" lon="12.917905230354656"><ele>1048.75</ele><time>2026-04-04T09:23:13.999Z</time></trkpt><trkpt lat="43.009497242339435" lon="12.917748529688215"><ele>1050.0</ele><time>2026-04-04T09:23:14.999Z</time></trkpt><trkpt lat="43.009476992355424" lon="12.917586071676823"><ele>1050.25</ele><time>2026-04-04T09:23:15.999Z</time></trkpt><trkpt lat="43.0094594745921" lon="12.917437231883884"><ele>1050.5</ele><time>2026-04-04T09:23:16.999Z</time></trkpt><trkpt lat="43.00942417245098" lon="12.91728404032561"><ele>1050.75</ele><time>2026-04-04T09:23:17.999Z</time></trkpt><trkpt lat="43.009383503874155" lon="12.917120686697642"><ele>1051.0</ele><time>2026-04-04T09:23:18.999Z</time></trkpt><trkpt lat="43.00933751006498" lon="12.916969211193567"><ele>1051.0</ele><time>2026-04-04T09:23:19.999Z</time></trkpt><trkpt lat="43.00928007652554" lon="12.916811719462869"><ele>1051.0</ele><time>2026-04-04T09:23:20.999Z</time></trkpt><trkpt lat="43.00921995048076" lon="12.916662227049331"><ele>1051.0</ele><time>2026-04-04T09:23:21.999Z</time></trkpt><trkpt lat="43.009154485628706" lon="12.916487855796541"><ele>1051.0</ele><time>2026-04-04T09:23:22.999Z</time></trkpt><trkpt lat="43.00909707219006" lon="12.916301722035865"><ele>1047.0</ele><time>2026-04-04T09:23:23.999Z</time></trkpt><trkpt lat="43.009045510556234" lon="12.91611636906781"><ele>1043.0</ele><time>2026-04-04T09:23:24.999Z</time></trkpt><trkpt lat="43.00899515963934" lon="12.915949297924055"><ele>1039.0</ele><time>2026-04-04T09:23:25.999Z</time></trkpt><trkpt lat="43.00894183836761" lon="12.915783493059909"><ele>1035.0</ele><time>2026-04-04T09:23:26.999Z</time></trkpt><trkpt lat="43.008886326740324" lon="12.915599757081589"><ele>1033.75</ele><time>2026-04-04T09:23:27.999Z</time></trkpt><trkpt lat="43.008838600612535" lon="12.91544231225537"><ele>1032.5</ele><time>2026-04-04T09:23:28.999Z</time></trkpt><trkpt lat="43.00878389394165" lon="12.915262338131013"><ele>1031.25</ele><time>2026-04-04T09:23:29.999Z</time></trkpt><trkpt lat="43.008735627037055" lon="12.915081188985077"><ele>1030.0</ele><time>2026-04-04T09:23:30.999Z</time></trkpt><trkpt lat="43.008680302592765" lon="12.914901431335725"><ele>1028.0</ele><time>2026-04-04T09:23:31.999Z</time></trkpt><trkpt lat="43.00863488192467" lon="12.914742341412946"><ele>1026.0</ele><time>2026-04-04T09:23:32.999Z</time></trkpt><trkpt lat="43.00859402505293" lon="12.91459677029326"><ele>1024.0</ele><time>2026-04-04T09:23:33.999Z</time></trkpt><trkpt lat="43.00854889130385" lon="12.914447620948529"><ele>1022.0</ele><time>2026-04-04T09:23:34.999Z</time></trkpt><trkpt lat="43.00850570936451" lon="12.914298055559922"><ele>1020.1666666666667</ele><time>2026-04-04T09:23:35.999Z</time></trkpt><trkpt lat="43.00847027887274" lon="12.914173444916463"><ele>1018.3333333333334</ele><time>2026-04-04T09:23:36.999Z</time></trkpt><trkpt lat="43.00844513139519" lon="12.91405794229609"><ele>1016.5</ele><time>2026-04-04T09:23:37.999Z</time></trkpt><trkpt lat="43.008425411048236" lon="12.913945860703546"><ele>1014.6666666666667</ele><time>2026-04-04T09:23:38.999Z</time></trkpt><trkpt lat="43.00840681747478" lon="12.913826750266772"><ele>1012.8333333333334</ele><time>2026-04-04T09:23:39.999Z</time></trkpt><trkpt lat="43.00838896876301" lon="12.913719506306933"><ele>1011.0</ele><time>2026-04-04T09:23:40.999Z</time></trkpt><trkpt lat="43.008354236589916" lon="12.913630506874634"><ele>1008.6666666666666</ele><time>2026-04-04T09:23:41.999Z</time></trkpt><trkpt lat="43.008302926708915" lon="12.913570117203795"><ele>1006.3333333333333</ele><time>2026-04-04T09:23:42.999Z</time></trkpt><trkpt lat="43.00822323099321" lon="12.913503815260066"><ele>1004.0</ele><time>2026-04-04T09:23:43.999Z</time></trkpt><trkpt lat="43.00815192219122" lon="12.913442077257166"><ele>1001.6666666666666</ele><time>2026-04-04T09:23:44.999Z</time></trkpt><trkpt lat="43.00810770608698" lon="12.913373361706698"><ele>999.3333333333333</ele><time>2026-04-04T09:23:45.999Z</time></trkpt><trkpt lat="43.008114282304724" lon="12.91319382494393"><ele>997.0</ele><time>2026-04-04T09:23:47.999Z</time></trkpt><trkpt lat="43.008128244533175" lon="12.913045289662971"><ele>994.6</ele><time>2026-04-04T09:23:48.999Z</time></trkpt><trkpt lat="43.00811514989572" lon="12.912911673740119"><ele>992.2</ele><time>2026-04-04T09:23:49.999Z</time></trkpt><trkpt lat="43.008098782469204" lon="12.912791624997832"><ele>989.8</ele><time>2026-04-04T09:23:50.999Z</time></trkpt><trkpt lat="43.008116971064744" lon="12.912629287455434"><ele>987.4</ele><time>2026-04-04T09:23:51.999Z</time></trkpt><trkpt lat="43.00817153032236" lon="12.912477870642014"><ele>985.0</ele><time>2026-04-04T09:23:52.999Z</time></trkpt><trkpt lat="43.00821709820741" lon="12.91227808146159"><ele>980.0</ele><time>2026-04-04T09:23:53.999Z</time></trkpt><trkpt lat="43.0082576571828" lon="12.912059218160753"><ele>975.0</ele><time>2026-04-04T09:23:54.999Z</time></trkpt><trkpt lat="43.008304540400474" lon="12.911858121281252"><ele>970.0</ele><time>2026-04-04T09:23:55.999Z</time></trkpt><trkpt lat="43.00831731849085" lon="12.911658834465552"><ele>969.0</ele><time>2026-04-04T09:23:56.999Z</time></trkpt><trkpt lat="43.00833888906333" lon="12.911418839152962"><ele>968.0</ele><time>2026-04-04T09:23:57.999Z</time></trkpt><trkpt lat="43.00837263336516" lon="12.911204879468878"><ele>967.0</ele><time>2026-04-04T09:23:58.999Z</time></trkpt><trkpt lat="43.00839614670294" lon="12.910978427049137"><ele>964.0</ele><time>2026-04-04T09:23:59.999Z</time></trkpt><trkpt lat="43.00842286496974" lon="12.910751779790662"><ele>961.0</ele><time>2026-04-04T09:24:00.999Z</time></trkpt><trkpt lat="43.00844675484043" lon="12.910527314739173"><ele>958.0</ele><time>2026-04-04T09:24:01.999Z</time></trkpt><trkpt lat="43.00845860686885" lon="12.910324355177142"><ele>958.0</ele><time>2026-04-04T09:24:02.999Z</time></trkpt><trkpt lat="43.008469326137075" lon="12.910130268647132"><ele>958.0</ele><time>2026-04-04T09:24:03.999Z</time></trkpt><trkpt lat="43.00846041632997" lon="12.909965774212246"><ele>958.0</ele><time>2026-04-04T09:24:04.999Z</time></trkpt><trkpt lat="43.00844291178595" lon="12.909834575624298"><ele>958.0</ele><time>2026-04-04T09:24:05.999Z</time></trkpt><trkpt lat="43.00844845253375" lon="12.909744744617512"><ele>958.0</ele><time>2026-04-04T09:24:06.999Z</time></trkpt><trkpt lat="43.0084761925877" lon="12.909650025184249"><ele>956.5999999999999</ele><time>2026-04-04T09:24:07.999Z</time></trkpt><trkpt lat="43.008533835324236" lon="12.909554894821376"><ele>955.1999999999999</ele><time>2026-04-04T09:24:08.999Z</time></trkpt><trkpt lat="43.00859301123975" lon="12.909485395291332"><ele>953.8</ele><time>2026-04-04T09:24:09.999Z</time></trkpt><trkpt lat="43.00863894627407" lon="12.909398543073788"><ele>952.4</ele><time>2026-04-04T09:24:10.999Z</time></trkpt><trkpt lat="43.00866689909076" lon="12.90925951440489"><ele>951.0</ele><time>2026-04-04T09:24:11.999Z</time></trkpt><trkpt lat="43.00869478254693" lon="12.909114513223019"><ele>950.25</ele><time>2026-04-04T09:24:12.999Z</time></trkpt><trkpt lat="43.00872303890274" lon="12.908977814109505"><ele>949.5</ele><time>2026-04-04T09:24:13.999Z</time></trkpt><trkpt lat="43.00875280119874" lon="12.908833801934465"><ele>948.75</ele><time>2026-04-04T09:24:14.999Z</time></trkpt><trkpt lat="43.0087855470241" lon="12.90867720490321"><ele>948.0</ele><time>2026-04-04T09:24:15.999Z</time></trkpt><trkpt lat="43.00882512286987" lon="12.908515426931526"><ele>948.5</ele><time>2026-04-04T09:24:16.999Z</time></trkpt><trkpt lat="43.00886899351787" lon="12.908352379580604"><ele>949.0</ele><time>2026-04-04T09:24:17.999Z</time></trkpt><trkpt lat="43.008918874116866" lon="12.908195163519093"><ele>949.5</ele><time>2026-04-04T09:24:18.999Z</time></trkpt><trkpt lat="43.00899012607086" lon="12.908043157473056"><ele>950.0</ele><time>2026-04-04T09:24:19.999Z</time></trkpt><trkpt lat="43.00906579024061" lon="12.90787972106155"><ele>950.0</ele><time>2026-04-04T09:24:20.999Z</time></trkpt><trkpt lat="43.009147922107324" lon="12.907700107319213"><ele>950.0</ele><time>2026-04-04T09:24:21.999Z</time></trkpt><trkpt lat="43.00922548745029" lon="12.907509104698965"><ele>950.0</ele><time>2026-04-04T09:24:22.999Z</time></trkpt><trkpt lat="43.00929118632402" lon="12.907334111960209"><ele>955.0</ele><time>2026-04-04T09:24:23.998Z</time></trkpt><trkpt lat="43.00937490229684" lon="12.907176956242292"><ele>960.0</ele><time>2026-04-04T09:24:24.998Z</time></trkpt><trkpt lat="43.00949133434327" lon="12.907055355051332"><ele>965.0</ele><time>2026-04-04T09:24:25.998Z</time></trkpt><trkpt lat="43.00964980207685" lon="12.90698711402557"><ele>965.0</ele><time>2026-04-04T09:24:26.998Z</time></trkpt><trkpt lat="43.00981387855695" lon="12.906927577002977"><ele>965.0</ele><time>2026-04-04T09:24:27.998Z</time></trkpt><trkpt lat="43.01000184722843" lon="12.906894813024897"><ele>965.0</ele><time>2026-04-04T09:24:28.998Z</time></trkpt><trkpt lat="43.01018110045036" lon="12.906871572845352"><ele>965.5</ele><time>2026-04-04T09:24:29.998Z</time></trkpt><trkpt lat="43.01035510612112" lon="12.906848933858665"><ele>966.0</ele><time>2026-04-04T09:24:30.998Z</time></trkpt><trkpt lat="43.010485059464834" lon="12.906843855149717"><ele>966.5</ele><time>2026-04-04T09:24:32Z</time></trkpt><trkpt lat="43.01059210038882" lon="12.906827631837881"><ele>967.0</ele><time>2026-04-04T09:24:33Z</time></trkpt><trkpt lat="43.010705017232105" lon="12.906777501125681"><ele>965.5</ele><time>2026-04-04T09:24:34Z</time></trkpt><trkpt lat="43.010838217034184" lon="12.906704773202202"><ele>964.0</ele><time>2026-04-04T09:24:35Z</time></trkpt><trkpt lat="43.01096954055675" lon="12.906649730629447"><ele>962.5</ele><time>2026-04-04T09:24:36Z</time></trkpt><trkpt lat="43.0111076662751" lon="12.90659952748646"><ele>961.0</ele><time>2026-04-04T09:24:37Z</time></trkpt><trkpt lat="43.01124435389076" lon="12.9065533658724"><ele>961.0</ele><time>2026-04-04T09:24:38Z</time></trkpt><trkpt lat="43.011386171674694" lon="12.906506741592638"><ele>961.0</ele><time>2026-04-04T09:24:39Z</time></trkpt><trkpt lat="43.01153140351306" lon="12.9064724853374"><ele>961.0</ele><time>2026-04-04T09:24:40Z</time></trkpt><trkpt lat="43.011696219712874" lon="12.906460136382213"><ele>955.0</ele><time>2026-04-04T09:24:41Z</time></trkpt><trkpt lat="43.01187859606977" lon="12.90646399359369"><ele>949.0</ele><time>2026-04-04T09:24:42Z</time></trkpt><trkpt lat="43.01205677667853" lon="12.906492525642223"><ele>943.0</ele><time>2026-04-04T09:24:43Z</time></trkpt><trkpt lat="43.012211315630466" lon="12.906542282119053"><ele>943.0</ele><time>2026-04-04T09:24:44Z</time></trkpt><trkpt lat="43.01239038561922" lon="12.906621430962533"><ele>943.0</ele><time>2026-04-04T09:24:45Z</time></trkpt><trkpt lat="43.01254588917143" lon="12.906703529828533"><ele>943.0</ele><time>2026-04-04T09:24:46Z</time></trkpt><trkpt lat="43.01267687208209" lon="12.906788099580096"><ele>940.75</ele><time>2026-04-04T09:24:47Z</time></trkpt><trkpt lat="43.012793135414285" lon="12.906858387002051"><ele>938.5</ele><time>2026-04-04T09:24:48Z</time></trkpt><trkpt lat="43.01290948875063" lon="12.906928358117344"><ele>936.25</ele><time>2026-04-04T09:24:49Z</time></trkpt><trkpt lat="43.01302908720142" lon="12.90700054344333"><ele>934.0</ele><time>2026-04-04T09:24:50Z</time></trkpt><trkpt lat="43.01314304098616" lon="12.907060354598078"><ele>934.0</ele><time>2026-04-04T09:24:51Z</time></trkpt><trkpt lat="43.013255430492094" lon="12.907127837993928"><ele>934.0</ele><time>2026-04-04T09:24:52Z</time></trkpt><trkpt lat="43.01336359030832" lon="12.907208816278303"><ele>934.0</ele><time>2026-04-04T09:24:53Z</time></trkpt><trkpt lat="43.01346770452037" lon="12.907291242359337"><ele>934.0</ele><time>2026-04-04T09:24:54Z</time></trkpt><trkpt lat="43.01357565898685" lon="12.907370630669908"><ele>934.75</ele><time>2026-04-04T09:24:55Z</time></trkpt><trkpt lat="43.01367861400596" lon="12.907458026005138"><ele>935.5</ele><time>2026-04-04T09:24:56Z</time></trkpt><trkpt lat="43.01379150489001" lon="12.907548132160754"><ele>936.25</ele><time>2026-04-04T09:24:57Z</time></trkpt><trkpt lat="43.013900461242685" lon="12.907637621927172"><ele>937.0</ele><time>2026-04-04T09:24:58Z</time></trkpt><trkpt lat="43.0140045280946" lon="12.907723296921317"><ele>936.5</ele><time>2026-04-04T09:24:59Z</time></trkpt><trkpt lat="43.01410422453725" lon="12.90779773691439"><ele>936.0</ele><time>2026-04-04T09:25:00Z</time></trkpt><trkpt lat="43.01420183258992" lon="12.907860091265999"><ele>935.5</ele><time>2026-04-04T09:25:01Z</time></trkpt><trkpt lat="43.01431076882308" lon="12.907920879452192"><ele>935.0</ele><time>2026-04-04T09:25:02Z</time></trkpt><trkpt lat="43.01442318442787" lon="12.907973867214718"><ele>935.0</ele><time>2026-04-04T09:25:03Z</time></trkpt><trkpt lat="43.014539131538264" lon="12.90803216344963"><ele>935.0</ele><time>2026-04-04T09:25:04Z</time></trkpt><trkpt lat="43.014658583348634" lon="12.908100819992532"><ele>935.0</ele><time>2026-04-04T09:25:05Z</time></trkpt><trkpt lat="43.01478386063539" lon="12.908171876915434"><ele>935.0</ele><time>2026-04-04T09:25:06Z</time></trkpt><trkpt lat="43.014920544731666" lon="12.908240840957012"><ele>934.75</ele><time>2026-04-04T09:25:07Z</time></trkpt><trkpt lat="43.01505551836235" lon="12.908306267824605"><ele>934.5</ele><time>2026-04-04T09:25:08Z</time></trkpt><trkpt lat="43.01519306915083" lon="12.908362917141174"><ele>934.25</ele><time>2026-04-04T09:25:08.999Z</time></trkpt><trkpt lat="43.01532997365169" lon="12.908409426178288"><ele>934.0</ele><time>2026-04-04T09:25:09.999Z</time></trkpt><trkpt lat="43.01548300726738" lon="12.90844905516407"><ele>931.3333333333333</ele><time>2026-04-04T09:25:10.999Z</time></trkpt><trkpt lat="43.01565526453163" lon="12.908484649654117"><ele>928.6666666666667</ele><time>2026-04-04T09:25:11.999Z</time></trkpt><trkpt lat="43.0158279383073" lon="12.908516453423749"><ele>926.0</ele><time>2026-04-04T09:25:12.999Z</time></trkpt><trkpt lat="43.015989025458616" lon="12.90854019739983"><ele>924.0</ele><time>2026-04-04T09:25:13.999Z</time></trkpt><trkpt lat="43.01615561367642" lon="12.908562181300798"><ele>922.0</ele><time>2026-04-04T09:25:14.999Z</time></trkpt><trkpt lat="43.016306864948525" lon="12.908581020641376"><ele>920.0</ele><time>2026-04-04T09:25:15.999Z</time></trkpt><trkpt lat="43.0164529550692" lon="12.908600276168862"><ele>920.0</ele><time>2026-04-04T09:25:16.999Z</time></trkpt><trkpt lat="43.0166043646812" lon="12.908612303626612"><ele>920.0</ele><time>2026-04-04T09:25:17.999Z</time></trkpt><trkpt lat="43.01674870274695" lon="12.908621687596225"><ele>920.0</ele><time>2026-04-04T09:25:18.999Z</time></trkpt><trkpt lat="43.01689491219019" lon="12.908620441982245"><ele>920.0</ele><time>2026-04-04T09:25:19.999Z</time></trkpt><trkpt lat="43.017028863303274" lon="12.908619591174869"><ele>917.0</ele><time>2026-04-04T09:25:20.999Z</time></trkpt><trkpt lat="43.01715813825452" lon="12.908626726149231"><ele>914.0</ele><time>2026-04-04T09:25:21.999Z</time></trkpt><trkpt lat="43.01726945223598" lon="12.908623380136587"><ele>911.0</ele><time>2026-04-04T09:25:22.999Z</time></trkpt><trkpt lat="43.01736712238485" lon="12.90860291902867"><ele>908.0</ele><time>2026-04-04T09:25:23.999Z</time></trkpt><trkpt lat="43.017457642234376" lon="12.908557835648125"><ele>905.0</ele><time>2026-04-04T09:25:24.999Z</time></trkpt><trkpt lat="43.01753951243693" lon="12.908483134953068"><ele>902.4</ele><time>2026-04-04T09:25:25.999Z</time></trkpt><trkpt lat="43.01763372042371" lon="12.908413521689786"><ele>899.8</ele><time>2026-04-04T09:25:26.999Z</time></trkpt><trkpt lat="43.017742462856134" lon="12.908375023760295"><ele>897.2</ele><time>2026-04-04T09:25:27.999Z</time></trkpt><trkpt lat="43.017855262623804" lon="12.90836103142457"><ele>894.6</ele><time>2026-04-04T09:25:28.999Z</time></trkpt><trkpt lat="43.017960977950004" lon="12.908341026172744"><ele>892.0</ele><time>2026-04-04T09:25:29.999Z</time></trkpt><trkpt lat="43.0180440836726" lon="12.908296509131242"><ele>891.75</ele><time>2026-04-04T09:25:30.999Z</time></trkpt><trkpt lat="43.01810215708958" lon="12.908219272812993"><ele>891.5</ele><time>2026-04-04T09:25:31.999Z</time></trkpt><trkpt lat="43.0181736803546" lon="12.908090129102451"><ele>891.25</ele><time>2026-04-04T09:25:32.999Z</time></trkpt><trkpt lat="43.01827432451122" lon="12.907929975177998"><ele>891.0</ele><time>2026-04-04T09:25:33.999Z</time></trkpt><trkpt lat="43.01838620556891" lon="12.907792743902498"><ele>888.5</ele><time>2026-04-04T09:25:34.999Z</time></trkpt><trkpt lat="43.01844551471012" lon="12.907624070831341"><ele>886.0</ele><time>2026-04-04T09:25:35.999Z</time></trkpt><trkpt lat="43.0185003280733" lon="12.90746554721006"><ele>883.5</ele><time>2026-04-04T09:25:36.999Z</time></trkpt><trkpt lat="43.01857248822117" lon="12.907355812551312"><ele>881.0</ele><time>2026-04-04T09:25:37.999Z</time></trkpt><trkpt lat="43.018622305968435" lon="12.907235939999477"><ele>879.1666666666667</ele><time>2026-04-04T09:25:39.999Z</time></trkpt><trkpt lat="43.01864044521641" lon="12.907148875317395"><ele>877.3333333333334</ele><time>2026-04-04T09:25:42.999Z</time></trkpt><trkpt lat="43.018628569431" lon="12.907053941021703"><ele>875.5</ele><time>2026-04-04T09:25:47.999Z</time></trkpt><trkpt lat="43.0186063134348" lon="12.906961448035355"><ele>873.6666666666667</ele><time>2026-04-04T09:26:07.999Z</time></trkpt><trkpt lat="43.018556080639456" lon="12.90687658202066"><ele>871.8333333333334</ele><time>2026-04-04T09:26:09.999Z</time></trkpt><trkpt lat="43.018473552104155" lon="12.906796752297458"><ele>870.0</ele><time>2026-04-04T09:26:11.999Z</time></trkpt><trkpt lat="43.018363583311064" lon="12.906692237066057"><ele>869.8</ele><time>2026-04-04T09:26:13.999Z</time></trkpt><trkpt lat="43.01828764545502" lon="12.906611638399218"><ele>869.6</ele><time>2026-04-04T09:26:14.999Z</time></trkpt><trkpt lat="43.01820844416136" lon="12.906538732441343"><ele>869.4000000000001</ele><time>2026-04-04T09:26:15.999Z</time></trkpt><trkpt lat="43.018115744372615" lon="12.906471347418131"><ele>869.2</ele><time>2026-04-04T09:26:16.999Z</time></trkpt><trkpt lat="43.01802750647904" lon="12.90638607621239"><ele>869.0</ele><time>2026-04-04T09:26:17.999Z</time></trkpt><trkpt lat="43.01794417988703" lon="12.906270572816888"><ele>869.0</ele><time>2026-04-04T09:26:18.999Z</time></trkpt><trkpt lat="43.017861851604096" lon="12.906156417976407"><ele>869.0000000000001</ele><time>2026-04-04T09:26:19.999Z</time></trkpt><trkpt lat="43.01777190853305" lon="12.906059202010232"><ele>869.0000000000001</ele><time>2026-04-04T09:26:20.999Z</time></trkpt><trkpt lat="43.01769197744494" lon="12.905974495936889"><ele>869.0</ele><time>2026-04-04T09:26:21.999Z</time></trkpt><trkpt lat="43.01760690087329" lon="12.905899809261065"><ele>869.0</ele><time>2026-04-04T09:26:22.999Z</time></trkpt><trkpt lat="43.01751525799733" lon="12.905838966633423"><ele>869.4000000000001</ele><time>2026-04-04T09:26:23.999Z</time></trkpt><trkpt lat="43.01744868718151" lon="12.905752781091861"><ele>869.8000000000001</ele><time>2026-04-04T09:26:24.999Z</time></trkpt><trkpt lat="43.01740088955767" lon="12.905625482031649"><ele>870.1999999999999</ele><time>2026-04-04T09:26:25.999Z</time></trkpt><trkpt lat="43.01736338829074" lon="12.9055183706828"><ele>870.5999999999999</ele><time>2026-04-04T09:26:26.999Z</time></trkpt><trkpt lat="43.0172884809624" lon="12.905458023339554"><ele>871.0</ele><time>2026-04-04T09:26:27.999Z</time></trkpt><trkpt lat="43.01720175469527" lon="12.905391978342678"><ele>871.0</ele><time>2026-04-04T09:26:28.999Z</time></trkpt><trkpt lat="43.017118868154036" lon="12.905318993004213"><ele>870.9999999999999</ele><time>2026-04-04T09:26:29.999Z</time></trkpt><trkpt lat="43.01702856702871" lon="12.90523199460352"><ele>870.9999999999999</ele><time>2026-04-04T09:26:30.999Z</time></trkpt><trkpt lat="43.01693250878445" lon="12.905142143827725"><ele>871.0</ele><time>2026-04-04T09:26:31.999Z</time></trkpt><trkpt lat="43.01682531332027" lon="12.905081097648358"><ele>871.0</ele><time>2026-04-04T09:26:32.999Z</time></trkpt><trkpt lat="43.01668561570149" lon="12.905040720728598"><ele>869.0</ele><time>2026-04-04T09:26:33.999Z</time></trkpt><trkpt lat="43.01653596357074" lon="12.904979725348339"><ele>867.0</ele><time>2026-04-04T09:26:34.999Z</time></trkpt><trkpt lat="43.016396415584985" lon="12.904907202102875"><ele>865.0</ele><time>2026-04-04T09:26:35.999Z</time></trkpt><trkpt lat="43.01625656371046" lon="12.904860358815311"><ele>863.0</ele><time>2026-04-04T09:26:36.999Z</time></trkpt><trkpt lat="43.0160839889998" lon="12.904837793260006"><ele>863.0</ele><time>2026-04-04T09:26:38Z</time></trkpt><trkpt lat="43.01591068976651" lon="12.904803720777766"><ele>863.0</ele><time>2026-04-04T09:26:39Z</time></trkpt><trkpt lat="43.015743669872265" lon="12.90475534598859"><ele>863.0</ele><time>2026-04-04T09:26:40Z</time></trkpt><trkpt lat="43.015587632764884" lon="12.904698973755243"><ele>867.25</ele><time>2026-04-04T09:26:41Z</time></trkpt><trkpt lat="43.015454375922744" lon="12.904635018681175"><ele>871.5</ele><time>2026-04-04T09:26:42Z</time></trkpt><trkpt lat="43.01533416282376" lon="12.90455209749041"><ele>875.75</ele><time>2026-04-04T09:26:43Z</time></trkpt><trkpt lat="43.01521537413283" lon="12.904422851723107"><ele>880.0</ele><time>2026-04-04T09:26:44Z</time></trkpt><trkpt lat="43.01510814023063" lon="12.904271796318975"><ele>878.8</ele><time>2026-04-04T09:26:45Z</time></trkpt><trkpt lat="43.01501313211225" lon="12.904137886213977"><ele>877.6</ele><time>2026-04-04T09:26:46Z</time></trkpt><trkpt lat="43.014923924282904" lon="12.904053386702172"><ele>876.4000000000001</ele><time>2026-04-04T09:26:47Z</time></trkpt><trkpt lat="43.014833049757996" lon="12.904014445782508"><ele>875.2</ele><time>2026-04-04T09:26:48Z</time></trkpt><trkpt lat="43.01474563123282" lon="12.904007427604206"><ele>874.0</ele><time>2026-04-04T09:26:49Z</time></trkpt><trkpt lat="43.01466462664043" lon="12.90398630446301"><ele>873.9999999999999</ele><time>2026-04-04T09:26:50Z</time></trkpt><trkpt lat="43.014592784900856" lon="12.903913447630767"><ele>874.0</ele><time>2026-04-04T09:26:52Z</time></trkpt><trkpt lat="43.01456965471778" lon="12.903812730423963"><ele>874.0</ele><time>2026-04-04T09:26:53Z</time></trkpt><trkpt lat="43.014558942977494" lon="12.903696675936509"><ele>874.0</ele><time>2026-04-04T09:26:54Z</time></trkpt><trkpt lat="43.01454247115885" lon="12.903610085879047"><ele>873.9999999999999</ele><time>2026-04-04T09:26:55Z</time></trkpt><trkpt lat="43.014496579663245" lon="12.903550671290658"><ele>874.0</ele><time>2026-04-04T09:26:56Z</time></trkpt><trkpt lat="43.01442093162451" lon="12.903491802047512"><ele>874.0</ele><time>2026-04-04T09:26:57Z</time></trkpt><trkpt lat="43.014316079317226" lon="12.903442685890935"><ele>874.0000000000001</ele><time>2026-04-04T09:26:58Z</time></trkpt><trkpt lat="43.01420236563292" lon="12.903424772875898"><ele>874.0000000000001</ele><time>2026-04-04T09:26:59Z</time></trkpt><trkpt lat="43.01410270838869" lon="12.903401808302077"><ele>874.0</ele><time>2026-04-04T09:27:00Z</time></trkpt><trkpt lat="43.01403653406458" lon="12.903371376596702"><ele>874.0</ele><time>2026-04-04T09:27:01Z</time></trkpt><trkpt lat="43.01394743356194" lon="12.903352135986992"><ele>872.2</ele><time>2026-04-04T09:27:03Z</time></trkpt><trkpt lat="43.01389784805289" lon="12.903293878298078"><ele>870.4000000000001</ele><time>2026-04-04T09:27:06Z</time></trkpt><trkpt lat="43.01383661746644" lon="12.903317825470872"><ele>868.6</ele><time>2026-04-04T09:27:09Z</time></trkpt><trkpt lat="43.013703743982795" lon="12.903301641119587"><ele>866.8</ele><time>2026-04-04T09:27:11Z</time></trkpt><trkpt lat="43.01361037820494" lon="12.903249266736463"><ele>865.0</ele><time>2026-04-04T09:27:12Z</time></trkpt><trkpt lat="43.013525440490916" lon="12.903200283141132"><ele>865.0</ele><time>2026-04-04T09:27:13Z</time></trkpt><trkpt lat="43.01343292800389" lon="12.903173858310284"><ele>865.0</ele><time>2026-04-04T09:27:14Z</time></trkpt><trkpt lat="43.01334352351053" lon="12.903112826014134"><ele>865.0</ele><time>2026-04-04T09:27:15Z</time></trkpt><trkpt lat="43.01328327445774" lon="12.903010757327708"><ele>865.0</ele><time>2026-04-04T09:27:16Z</time></trkpt><trkpt lat="43.013205037490415" lon="12.902960784053457"><ele>865.0</ele><time>2026-04-04T09:27:16.999Z</time></trkpt><trkpt lat="43.01312832620143" lon="12.902890260026892"><ele>866.6</ele><time>2026-04-04T09:27:17.999Z</time></trkpt><trkpt lat="43.013059559195284" lon="12.90280822116112"><ele>868.2</ele><time>2026-04-04T09:27:18.999Z</time></trkpt><trkpt lat="43.012973643666434" lon="12.902732481311595"><ele>869.8</ele><time>2026-04-04T09:27:19.999Z</time></trkpt><trkpt lat="43.01290256804324" lon="12.90265943284785"><ele>871.4</ele><time>2026-04-04T09:27:20.999Z</time></trkpt><trkpt lat="43.01282335410826" lon="12.902599812310598"><ele>873.0</ele><time>2026-04-04T09:27:21.999Z</time></trkpt><trkpt lat="43.01272894086914" lon="12.90253035604282"><ele>868.25</ele><time>2026-04-04T09:27:22.999Z</time></trkpt><trkpt lat="43.0126156768459" lon="12.902463084932089"><ele>863.5</ele><time>2026-04-04T09:27:23.999Z</time></trkpt><trkpt lat="43.01250579437126" lon="12.902395250886187"><ele>858.75</ele><time>2026-04-04T09:27:24.999Z</time></trkpt><trkpt lat="43.01238687091702" lon="12.902331320386663"><ele>854.0</ele><time>2026-04-04T09:27:25.999Z</time></trkpt><trkpt lat="43.01225955081352" lon="12.902281421683492"><ele>853.5</ele><time>2026-04-04T09:27:26.999Z</time></trkpt><trkpt lat="43.012128426429875" lon="12.902238686695123"><ele>853.0</ele><time>2026-04-04T09:27:27.999Z</time></trkpt><trkpt lat="43.011986436655114" lon="12.9022252226603"><ele>852.5</ele><time>2026-04-04T09:27:28.999Z</time></trkpt><trkpt lat="43.011839608595714" lon="12.902214722467626"><ele>852.0</ele><time>2026-04-04T09:27:29.999Z</time></trkpt><trkpt lat="43.011673673806044" lon="12.90219409915434"><ele>850.5</ele><time>2026-04-04T09:27:30.999Z</time></trkpt><trkpt lat="43.01151910899163" lon="12.902173401633066"><ele>849.0</ele><time>2026-04-04T09:27:31.999Z</time></trkpt><trkpt lat="43.01137072998735" lon="12.902153920881283"><ele>847.5</ele><time>2026-04-04T09:27:32.999Z</time></trkpt><trkpt lat="43.01123154369318" lon="12.902136519949092"><ele>846.0</ele><time>2026-04-04T09:27:33.999Z</time></trkpt><trkpt lat="43.01109934196446" lon="12.902116281902932"><ele>846.0</ele><time>2026-04-04T09:27:34.999Z</time></trkpt><trkpt lat="43.01096700903246" lon="12.902099524515902"><ele>846.0</ele><time>2026-04-04T09:27:35.999Z</time></trkpt><trkpt lat="43.01084480755142" lon="12.902069173535907"><ele>846.0</ele><time>2026-04-04T09:27:36.999Z</time></trkpt><trkpt lat="43.01071651414795" lon="12.902067166612094"><ele>846.0</ele><time>2026-04-04T09:27:37.999Z</time></trkpt><trkpt lat="43.010581294836015" lon="12.90205835991134"><ele>846.5</ele><time>2026-04-04T09:27:38.999Z</time></trkpt><trkpt lat="43.01044682816171" lon="12.902033697936153"><ele>847.0</ele><time>2026-04-04T09:27:39.999Z</time></trkpt><trkpt lat="43.010311817210784" lon="12.901981893408506"><ele>847.5</ele><time>2026-04-04T09:27:40.999Z</time></trkpt><trkpt lat="43.010157886416536" lon="12.901929804008354"><ele>848.0</ele><time>2026-04-04T09:27:41.999Z</time></trkpt><trkpt lat="43.010008186683166" lon="12.901866470453191"><ele>849.25</ele><time>2026-04-04T09:27:42.999Z</time></trkpt><trkpt lat="43.009860127051994" lon="12.90181384593876"><ele>850.5</ele><time>2026-04-04T09:27:43.999Z</time></trkpt><trkpt lat="43.009717464084524" lon="12.90177173970044"><ele>851.75</ele><time>2026-04-04T09:27:44.999Z</time></trkpt><trkpt lat="43.00958432065662" lon="12.901714712814188"><ele>853.0</ele><time>2026-04-04T09:27:45.999Z</time></trkpt><trkpt lat="43.00946264084171" lon="12.901675079957123"><ele>845.5</ele><time>2026-04-04T09:27:46.999Z</time></trkpt><trkpt lat="43.009336194057234" lon="12.901638233663562"><ele>838.0</ele><time>2026-04-04T09:27:47.999Z</time></trkpt><trkpt lat="43.00922481768282" lon="12.901599825020575"><ele>830.5</ele><time>2026-04-04T09:27:48.999Z</time></trkpt><trkpt lat="43.00910665976912" lon="12.901512891770647"><ele>823.0</ele><time>2026-04-04T09:27:49.999Z</time></trkpt><trkpt lat="43.00899433976978" lon="12.901400754824126"><ele>823.0</ele><time>2026-04-04T09:27:50.999Z</time></trkpt><trkpt lat="43.00889342625444" lon="12.901311823411197"><ele>823.0</ele><time>2026-04-04T09:27:51.999Z</time></trkpt><trkpt lat="43.00880639306392" lon="12.901224607329222"><ele>823.0</ele><time>2026-04-04T09:27:52.999Z</time></trkpt><trkpt lat="43.008715638900135" lon="12.901159201376554"><ele>823.0</ele><time>2026-04-04T09:27:53.999Z</time></trkpt><trkpt lat="43.008595143661914" lon="12.901094950879331"><ele>823.0</ele><time>2026-04-04T09:27:54.999Z</time></trkpt><trkpt lat="43.00844648624802" lon="12.901016857884029"><ele>823.0</ele><time>2026-04-04T09:27:55.999Z</time></trkpt><trkpt lat="43.00831163815254" lon="12.900908674208615"><ele>823.0</ele><time>2026-04-04T09:27:56.999Z</time></trkpt><trkpt lat="43.00817683152073" lon="12.900814806425354"><ele>817.5</ele><time>2026-04-04T09:27:57.999Z</time></trkpt><trkpt lat="43.00804947052783" lon="12.900713340806892"><ele>812.0</ele><time>2026-04-04T09:27:58.999Z</time></trkpt><trkpt lat="43.00792549470767" lon="12.90061309539445"><ele>806.5</ele><time>2026-04-04T09:27:59.999Z</time></trkpt><trkpt lat="43.00779072677145" lon="12.900512519535225"><ele>801.0</ele><time>2026-04-04T09:28:00.999Z</time></trkpt><trkpt lat="43.007645951020244" lon="12.900438649882227"><ele>802.0</ele><time>2026-04-04T09:28:01.999Z</time></trkpt><trkpt lat="43.00748530622196" lon="12.90036359776025"><ele>803.0</ele><time>2026-04-04T09:28:02.999Z</time></trkpt><trkpt lat="43.00733073185963" lon="12.900303365442419"><ele>804.0</ele><time>2026-04-04T09:28:03.999Z</time></trkpt><trkpt lat="43.00718525835354" lon="12.900233641788818"><ele>804.0</ele><time>2026-04-04T09:28:04.999Z</time></trkpt><trkpt lat="43.00704333271458" lon="12.90014818086783"><ele>804.0</ele><time>2026-04-04T09:28:05.999Z</time></trkpt><trkpt lat="43.00690457485361" lon="12.900052868326725"><ele>804.0</ele><time>2026-04-04T09:28:06.999Z</time></trkpt><trkpt lat="43.00676330179859" lon="12.899961272339377"><ele>803.25</ele><time>2026-04-04T09:28:07.999Z</time></trkpt><trkpt lat="43.00662261073885" lon="12.8998775564174"><ele>802.5</ele><time>2026-04-04T09:28:08.999Z</time></trkpt><trkpt lat="43.00649112490087" lon="12.89979236717208"><ele>801.75</ele><time>2026-04-04T09:28:09.999Z</time></trkpt><trkpt lat="43.006371643557145" lon="12.899716460239258"><ele>801.0</ele><time>2026-04-04T09:28:10.999Z</time></trkpt><trkpt lat="43.006257320749114" lon="12.899639397815848"><ele>801.0</ele><time>2026-04-04T09:28:11.999Z</time></trkpt><trkpt lat="43.00612625044184" lon="12.899564771940192"><ele>801.0</ele><time>2026-04-04T09:28:12.999Z</time></trkpt><trkpt lat="43.006003184513304" lon="12.899513237074117"><ele>801.0</ele><time>2026-04-04T09:28:13.999Z</time></trkpt><trkpt lat="43.00588499609954" lon="12.899458530061628"><ele>801.0</ele><time>2026-04-04T09:28:14.999Z</time></trkpt><trkpt lat="43.0057857756889" lon="12.8994145438695"><ele>801.1666666666666</ele><time>2026-04-04T09:28:15.999Z</time></trkpt><trkpt lat="43.00569155224681" lon="12.899375196964705"><ele>801.3333333333333</ele><time>2026-04-04T09:28:16.999Z</time></trkpt><trkpt lat="43.00560607460042" lon="12.899341680955139"><ele>801.5</ele><time>2026-04-04T09:28:17.999Z</time></trkpt><trkpt lat="43.005543426281825" lon="12.899324608677542"><ele>801.6666666666666</ele><time>2026-04-04T09:28:18.999Z</time></trkpt><trkpt lat="43.005456029636214" lon="12.899301855738674"><ele>801.8333333333333</ele><time>2026-04-04T09:28:21.999Z</time></trkpt><trkpt lat="43.0054815961347" lon="12.899197077417973"><ele>802.0</ele><time>2026-04-04T09:28:25.999Z</time></trkpt><trkpt lat="43.0055415283767" lon="12.899153620013116"><ele>801.1666666666666</ele><time>2026-04-04T09:28:26.999Z</time></trkpt><trkpt lat="43.005602516610544" lon="12.899125184246337"><ele>800.3333333333333</ele><time>2026-04-04T09:28:27.999Z</time></trkpt><trkpt lat="43.00566997724847" lon="12.899076031378838"><ele>799.5</ele><time>2026-04-04T09:28:28.999Z</time></trkpt><trkpt lat="43.00573173402189" lon="12.899009752451096"><ele>798.6666666666667</ele><time>2026-04-04T09:28:29.999Z</time></trkpt><trkpt lat="43.005798441112795" lon="12.898930333049885"><ele>797.8333333333334</ele><time>2026-04-04T09:28:30.999Z</time></trkpt><trkpt lat="43.00586544262353" lon="12.898850477713795"><ele>797.0</ele><time>2026-04-04T09:28:31.999Z</time></trkpt><trkpt lat="43.00594484942603" lon="12.898766313169777"><ele>796.8</ele><time>2026-04-04T09:28:32.999Z</time></trkpt><trkpt lat="43.00603177573528" lon="12.898675385289874"><ele>796.6</ele><time>2026-04-04T09:28:33.999Z</time></trkpt><trkpt lat="43.00612069107806" lon="12.898581633638166"><ele>796.4</ele><time>2026-04-04T09:28:34.999Z</time></trkpt><trkpt lat="43.00620970854921" lon="12.898487937188433"><ele>796.1999999999999</ele><time>2026-04-04T09:28:35.999Z</time></trkpt><trkpt lat="43.00629655082669" lon="12.898397620980338"><ele>796.0</ele><time>2026-04-04T09:28:36.999Z</time></trkpt><trkpt lat="43.00637466486356" lon="12.898314684441926"><ele>794.9999999999999</ele><time>2026-04-04T09:28:37.999Z</time></trkpt><trkpt lat="43.006445736610935" lon="12.898244130816016"><ele>794.0</ele><time>2026-04-04T09:28:38.999Z</time></trkpt><trkpt lat="43.006511793109865" lon="12.898178065566128"><ele>793.0</ele><time>2026-04-04T09:28:39.999Z</time></trkpt><trkpt lat="43.00657001714703" lon="12.898113371586714"><ele>792.0</ele><time>2026-04-04T09:28:40.999Z</time></trkpt><trkpt lat="43.00662466999421" lon="12.898055072246352"><ele>790.9999999999999</ele><time>2026-04-04T09:28:41.999Z</time></trkpt><trkpt lat="43.006678149086675" lon="12.898007370578313"><ele>790.0</ele><time>2026-04-04T09:28:42.999Z</time></trkpt><trkpt lat="43.00675402636827" lon="12.897912452939483"><ele>790.0</ele><time>2026-04-04T09:28:45Z</time></trkpt><trkpt lat="43.00673680361515" lon="12.897815226573648"><ele>790.0</ele><time>2026-04-04T09:28:47Z</time></trkpt><trkpt lat="43.00663785486692" lon="12.897729960753267"><ele>790.0</ele><time>2026-04-04T09:28:49Z</time></trkpt><trkpt lat="43.00655672749352" lon="12.897723871994785"><ele>790.0</ele><time>2026-04-04T09:28:50Z</time></trkpt><trkpt lat="43.006468909800056" lon="12.897753098009627"><ele>790.0</ele><time>2026-04-04T09:28:51Z</time></trkpt><trkpt lat="43.006374170824046" lon="12.897797722580293"><ele>790.0</ele><time>2026-04-04T09:28:52Z</time></trkpt><trkpt lat="43.00627039550337" lon="12.897834860119515"><ele>790.0</ele><time>2026-04-04T09:28:53Z</time></trkpt><trkpt lat="43.006164549265" lon="12.89785844814522"><ele>790.0</ele><time>2026-04-04T09:28:54Z</time></trkpt><trkpt lat="43.00605168675515" lon="12.897874750137005"><ele>790.0</ele><time>2026-04-04T09:28:55Z</time></trkpt><trkpt lat="43.00592960706361" lon="12.897887375242993"><ele>790.0</ele><time>2026-04-04T09:28:56Z</time></trkpt><trkpt lat="43.00580300993389" lon="12.897891360767465"><ele>790.0</ele><time>2026-04-04T09:28:57Z</time></trkpt><trkpt lat="43.00567274473868" lon="12.897885878944177"><ele>790.0</ele><time>2026-04-04T09:28:58Z</time></trkpt><trkpt lat="43.005539922294965" lon="12.897875269699918"><ele>790.0</ele><time>2026-04-04T09:28:59Z</time></trkpt><trkpt lat="43.00542044829797" lon="12.897869782993174"><ele>790.0</ele><time>2026-04-04T09:29:00Z</time></trkpt><trkpt lat="43.005311856274254" lon="12.897871906584184"><ele>790.0</ele><time>2026-04-04T09:29:01Z</time></trkpt><trkpt lat="43.005217225236755" lon="12.897864050674889"><ele>790.0</ele><time>2026-04-04T09:29:02Z</time></trkpt><trkpt lat="43.005141680322495" lon="12.89784398081109"><ele>790.0</ele><time>2026-04-04T09:29:03Z</time></trkpt><trkpt lat="43.005075797206885" lon="12.897726485041503"><ele>790.0</ele><time>2026-04-04T09:29:05Z</time></trkpt><trkpt lat="43.00507987291793" lon="12.897637621459761"><ele>788.9999999999999</ele><time>2026-04-04T09:29:06Z</time></trkpt><trkpt lat="43.00507714854992" lon="12.897537149962018"><ele>788.0</ele><time>2026-04-04T09:29:07Z</time></trkpt><trkpt lat="43.0050639663033" lon="12.897415611340797"><ele>787.0</ele><time>2026-04-04T09:29:08Z</time></trkpt><trkpt lat="43.005050787356645" lon="12.897293893035728"><ele>786.0</ele><time>2026-04-04T09:29:09Z</time></trkpt><trkpt lat="43.00505778740557" lon="12.897169423425328"><ele>784.9999999999999</ele><time>2026-04-04T09:29:10Z</time></trkpt><trkpt lat="43.00508607317259" lon="12.89704337956897"><ele>784.0</ele><time>2026-04-04T09:29:11Z</time></trkpt><trkpt lat="43.00513917529126" lon="12.89692491200876"><ele>784.0</ele><time>2026-04-04T09:29:12Z</time></trkpt><trkpt lat="43.005204332769985" lon="12.896805138756731"><ele>784.0</ele><time>2026-04-04T09:29:13Z</time></trkpt><trkpt lat="43.00528024947919" lon="12.896681651103794"><ele>784.0</ele><time>2026-04-04T09:29:14Z</time></trkpt><trkpt lat="43.00536132571405" lon="12.89653920545244"><ele>784.0</ele><time>2026-04-04T09:29:15Z</time></trkpt><trkpt lat="43.00544328773899" lon="12.896385193588515"><ele>783.0</ele><time>2026-04-04T09:29:16Z</time></trkpt><trkpt lat="43.005537238023955" lon="12.896230867279892"><ele>782.0</ele><time>2026-04-04T09:29:17Z</time></trkpt><trkpt lat="43.0055848812645" lon="12.896085515084758"><ele>781.0</ele><time>2026-04-04T09:29:18Z</time></trkpt><trkpt lat="43.00559589050443" lon="12.895975645563796"><ele>780.0</ele><time>2026-04-04T09:29:19Z</time></trkpt><trkpt lat="43.00556251180396" lon="12.895880738788247"><ele>779.0</ele><time>2026-04-04T09:29:20Z</time></trkpt><trkpt lat="43.0054746534181" lon="12.895759104058715"><ele>778.6666666666667</ele><time>2026-04-04T09:29:21Z</time></trkpt><trkpt lat="43.0053756095623" lon="12.89557777926018"><ele>778.3333333333333</ele><time>2026-04-04T09:29:22Z</time></trkpt><trkpt lat="43.00529636599595" lon="12.895340426271336"><ele>778.0</ele><time>2026-04-04T09:29:23Z</time></trkpt><trkpt lat="43.0051986466009" lon="12.895113706207873"><ele>778.0</ele><time>2026-04-04T09:29:24Z</time></trkpt><trkpt lat="43.005104075535954" lon="12.894908893310687"><ele>778.0</ele><time>2026-04-04T09:29:25Z</time></trkpt><trkpt lat="43.005005458845766" lon="12.894736879740984"><ele>778.0</ele><time>2026-04-04T09:29:26Z</time></trkpt><trkpt lat="43.00489856705845" lon="12.894587702748789"><ele>777.5999999999999</ele><time>2026-04-04T09:29:27Z</time></trkpt><trkpt lat="43.00477881380099" lon="12.894481913503126"><ele>777.1999999999999</ele><time>2026-04-04T09:29:28Z</time></trkpt><trkpt lat="43.004684077472994" lon="12.894375964835984"><ele>776.8</ele><time>2026-04-04T09:29:29Z</time></trkpt><trkpt lat="43.004641330574266" lon="12.894272269688559"><ele>776.4</ele><time>2026-04-04T09:29:30Z</time></trkpt><trkpt lat="43.00461436000986" lon="12.894159212691246"><ele>776.0</ele><time>2026-04-04T09:29:31Z</time></trkpt><trkpt lat="43.00460681282234" lon="12.894023300982456"><ele>776.0</ele><time>2026-04-04T09:29:32Z</time></trkpt><trkpt lat="43.004604619455755" lon="12.893855653378857"><ele>776.0</ele><time>2026-04-04T09:29:33Z</time></trkpt><trkpt lat="43.00461366950959" lon="12.893700742548326"><ele>776.0</ele><time>2026-04-04T09:29:33.999Z</time></trkpt><trkpt lat="43.004626447394166" lon="12.893580259708433"><ele>776.0</ele><time>2026-04-04T09:29:34.999Z</time></trkpt><trkpt lat="43.00463073040914" lon="12.893488543954755"><ele>776.0</ele><time>2026-04-04T09:29:35.999Z</time></trkpt><trkpt lat="43.004642768828425" lon="12.893396225745747"><ele>776.1999999999999</ele><time>2026-04-04T09:29:37.999Z</time></trkpt><trkpt lat="43.00465270883669" lon="12.893301467986774"><ele>776.4</ele><time>2026-04-04T09:29:39.999Z</time></trkpt><trkpt lat="43.00464689796598" lon="12.893103713964194"><ele>776.6</ele><time>2026-04-04T09:29:41.999Z</time></trkpt><trkpt lat="43.0046373474518" lon="12.892963893409172"><ele>776.8</ele><time>2026-04-04T09:29:42.999Z</time></trkpt><trkpt lat="43.00462913613626" lon="12.89279442673755"><ele>777.0</ele><time>2026-04-04T09:29:43.999Z</time></trkpt><trkpt lat="43.00461699838761" lon="12.892627354763368"><ele>777.0</ele><time>2026-04-04T09:29:44.999Z</time></trkpt><trkpt lat="43.00461141013302" lon="12.892469945734996"><ele>777.0</ele><time>2026-04-04T09:29:45.999Z</time></trkpt><trkpt lat="43.004604009234846" lon="12.892331281835421"><ele>777.0</ele><time>2026-04-04T09:29:46.999Z</time></trkpt><trkpt lat="43.004596900732835" lon="12.892207143506639"><ele>777.0</ele><time>2026-04-04T09:29:47.999Z</time></trkpt><trkpt lat="43.004584504549726" lon="12.892100676218412"><ele>777.0</ele><time>2026-04-04T09:29:48.999Z</time></trkpt><trkpt lat="43.00457399896015" lon="12.891992346623299"><ele>777.0</ele><time>2026-04-04T09:29:50.999Z</time></trkpt><trkpt lat="43.004533594644904" lon="12.891833641676477"><ele>777.0</ele><time>2026-04-04T09:29:53.999Z</time></trkpt><trkpt lat="43.00449640992405" lon="12.891738009849563"><ele>777.0</ele><time>2026-04-04T09:29:54.999Z</time></trkpt><trkpt lat="43.00443831956268" lon="12.89158176720792"><ele>777.0</ele><time>2026-04-04T09:29:56.999Z</time></trkpt><trkpt lat="43.00439826199262" lon="12.891486114994503"><ele>777.0</ele><time>2026-04-04T09:29:57.999Z</time></trkpt><trkpt lat="43.004348342270255" lon="12.891395660966886"><ele>777.0</ele><time>2026-04-04T09:29:58.999Z</time></trkpt><trkpt lat="43.00429977400262" lon="12.891323085080469"><ele>777.0</ele><time>2026-04-04T09:29:59.999Z</time></trkpt><trkpt lat="43.00420886681464" lon="12.89125155339776"><ele>777.0</ele><time>2026-04-04T09:30:01.999Z</time></trkpt><trkpt lat="43.00414290937866" lon="12.891267840333374"><ele>777.0</ele><time>2026-04-04T09:30:02.999Z</time></trkpt><trkpt lat="43.00406227664482" lon="12.891326950090649"><ele>777.0</ele><time>2026-04-04T09:30:03.999Z</time></trkpt><trkpt lat="43.0039959583999" lon="12.891388043659342"><ele>777.0</ele><time>2026-04-04T09:30:04.999Z</time></trkpt><trkpt lat="43.00391785808772" lon="12.891449033816034"><ele>777.75</ele><time>2026-04-04T09:30:05.999Z</time></trkpt><trkpt lat="43.00381763781836" lon="12.891502512242074"><ele>778.5</ele><time>2026-04-04T09:30:06.999Z</time></trkpt><trkpt lat="43.00369876864496" lon="12.891570294274098"><ele>779.25</ele><time>2026-04-04T09:30:07.999Z</time></trkpt><trkpt lat="43.00357485737192" lon="12.891639760451541"><ele>780.0</ele><time>2026-04-04T09:30:08.999Z</time></trkpt><trkpt lat="43.00345387976708" lon="12.891683804798436"><ele>780.0</ele><time>2026-04-04T09:30:09.999Z</time></trkpt><trkpt lat="43.00335651952332" lon="12.891725972863892"><ele>780.0</ele><time>2026-04-04T09:30:10.999Z</time></trkpt><trkpt lat="43.00326634165007" lon="12.89176413291003"><ele>780.0</ele><time>2026-04-04T09:30:11.999Z</time></trkpt><trkpt lat="43.003188468303065" lon="12.89179577098434"><ele>780.0</ele><time>2026-04-04T09:30:12.999Z</time></trkpt><trkpt lat="43.00311373937742" lon="12.891844796054082"><ele>780.0</ele><time>2026-04-04T09:30:13.999Z</time></trkpt><trkpt lat="43.00304531864884" lon="12.891894533406793"><ele>780.0</ele><time>2026-04-04T09:30:14.999Z</time></trkpt><trkpt lat="43.00294645540965" lon="12.891956258924182"><ele>780.1428571428571</ele><time>2026-04-04T09:30:16.999Z</time></trkpt><trkpt lat="43.002883018752414" lon="12.891995383924327"><ele>780.2857142857142</ele><time>2026-04-04T09:30:17.999Z</time></trkpt><trkpt lat="43.00281569250617" lon="12.892030246000962"><ele>780.4285714285714</ele><time>2026-04-04T09:30:18.999Z</time></trkpt><trkpt lat="43.00274310163873" lon="12.892057312576185"><ele>780.5714285714286</ele><time>2026-04-04T09:30:19.999Z</time></trkpt><trkpt lat="43.002671305129624" lon="12.892090411739291"><ele>780.7142857142858</ele><time>2026-04-04T09:30:20.999Z</time></trkpt><trkpt lat="43.002611465479305" lon="12.892122181476724"><ele>780.8571428571429</ele><time>2026-04-04T09:30:21.999Z</time></trkpt><trkpt lat="43.00253341988108" lon="12.892138152572072"><ele>781.0</ele><time>2026-04-04T09:30:22.999Z</time></trkpt><trkpt lat="43.00246125371611" lon="12.892180486135588"><ele>781.3333333333333</ele><time>2026-04-04T09:30:23.999Z</time></trkpt><trkpt lat="43.00239412670663" lon="12.892218427982897"><ele>781.6666666666666</ele><time>2026-04-04T09:30:24.999Z</time></trkpt><trkpt lat="43.0023200554172" lon="12.892240044716752"><ele>782.0</ele><time>2026-04-04T09:30:25.999Z</time></trkpt><trkpt lat="43.00225056629187" lon="12.892269784336634"><ele>782.3333333333333</ele><time>2026-04-04T09:30:26.999Z</time></trkpt><trkpt lat="43.00214369433034" lon="12.892353226541154"><ele>782.6666666666666</ele><time>2026-04-04T09:30:28.999Z</time></trkpt><trkpt lat="43.00207390755691" lon="12.892407615862764"><ele>783.0</ele><time>2026-04-04T09:30:29.999Z</time></trkpt><trkpt lat="43.001999400170966" lon="12.892431354530538"><ele>783.0</ele><time>2026-04-04T09:30:30.999Z</time></trkpt><trkpt lat="43.00193075627201" lon="12.89247806931359"><ele>783.0</ele><time>2026-04-04T09:30:31.999Z</time></trkpt><trkpt lat="43.00186688099767" lon="12.89251218029811"><ele>783.0</ele><time>2026-04-04T09:30:32.999Z</time></trkpt><trkpt lat="43.00180332454807" lon="12.89250814876494"><ele>783.0</ele><time>2026-04-04T09:30:33.999Z</time></trkpt><trkpt lat="43.001738265715574" lon="12.89250044976956"><ele>783.0</ele><time>2026-04-04T09:30:34.999Z</time></trkpt><trkpt lat="43.00164911851487" lon="12.892474098271924"><ele>783.0</ele><time>2026-04-04T09:30:35.999Z</time></trkpt><trkpt lat="43.001564537394884" lon="12.892448323873948"><ele>783.1666666666666</ele><time>2026-04-04T09:30:36.999Z</time></trkpt><trkpt lat="43.00148188549179" lon="12.89241757739175"><ele>783.3333333333333</ele><time>2026-04-04T09:30:37.999Z</time></trkpt><trkpt lat="43.00142641057551" lon="12.892376664859015"><ele>783.5</ele><time>2026-04-04T09:30:38.999Z</time></trkpt><trkpt lat="43.001371476006874" lon="12.89231221809534"><ele>783.6666666666666</ele><time>2026-04-04T09:30:39.999Z</time></trkpt><trkpt lat="43.0012973414031" lon="12.892234694269687"><ele>783.8333333333333</ele><time>2026-04-04T09:30:40.999Z</time></trkpt><trkpt lat="43.001222725065816" lon="12.892175661034859"><ele>784.0</ele><time>2026-04-04T09:30:41.999Z</time></trkpt><trkpt lat="43.001148397808166" lon="12.892103075249477"><ele>784.0</ele><time>2026-04-04T09:30:42.999Z</time></trkpt><trkpt lat="43.00107445669385" lon="12.89202503109556"><ele>784.0</ele><time>2026-04-04T09:30:43.999Z</time></trkpt><trkpt lat="43.00099464807691" lon="12.891963426283443"><ele>784.0</ele><time>2026-04-04T09:30:44.999Z</time></trkpt><trkpt lat="43.000911277926" lon="12.891899033687663"><ele>784.0</ele><time>2026-04-04T09:30:45.999Z</time></trkpt><trkpt lat="43.000829024218056" lon="12.891816368585568"><ele>784.0</ele><time>2026-04-04T09:30:46.999Z</time></trkpt><trkpt lat="43.00073304313125" lon="12.891735193388454"><ele>786.0</ele><time>2026-04-04T09:30:47.999Z</time></trkpt><trkpt lat="43.0006247664336" lon="12.89166545165565"><ele>788.0</ele><time>2026-04-04T09:30:48.999Z</time></trkpt><trkpt lat="43.000507084809605" lon="12.891594942782948"><ele>790.0</ele><time>2026-04-04T09:30:50Z</time></trkpt><trkpt lat="43.000384442582984" lon="12.891522498996434"><ele>792.0</ele><time>2026-04-04T09:30:51Z</time></trkpt><trkpt lat="43.00025525387934" lon="12.891441314112695"><ele>792.0</ele><time>2026-04-04T09:30:52Z</time></trkpt><trkpt lat="43.00013369755577" lon="12.891368695390625"><ele>792.0</ele><time>2026-04-04T09:30:53Z</time></trkpt><trkpt lat="43.00001751958615" lon="12.891324788707905"><ele>792.0</ele><time>2026-04-04T09:30:54Z</time></trkpt><trkpt lat="42.999897277023074" lon="12.891250819411434"><ele>792.0</ele><time>2026-04-04T09:30:55Z</time></trkpt><trkpt lat="42.99978733855827" lon="12.89119437985538"><ele>792.0</ele><time>2026-04-04T09:30:56Z</time></trkpt><trkpt lat="42.99966673357746" lon="12.891127541928563"><ele>792.0</ele><time>2026-04-04T09:30:57Z</time></trkpt><trkpt lat="42.999545630801215" lon="12.891059737571442"><ele>792.0</ele><time>2026-04-04T09:30:58Z</time></trkpt><trkpt lat="42.99943795163126" lon="12.890989070990452"><ele>792.0</ele><time>2026-04-04T09:30:59Z</time></trkpt><trkpt lat="42.99933540721613" lon="12.890929567742667"><ele>792.3333333333334</ele><time>2026-04-04T09:31:00Z</time></trkpt><trkpt lat="42.999226355289856" lon="12.890875215733006"><ele>792.6666666666667</ele><time>2026-04-04T09:31:01Z</time></trkpt><trkpt lat="42.99915624016428" lon="12.890820584497884"><ele>793.0</ele><time>2026-04-04T09:31:02Z</time></trkpt><trkpt lat="42.99909464440418" lon="12.890770403182453"><ele>793.3333333333334</ele><time>2026-04-04T09:31:03Z</time></trkpt><trkpt lat="42.9990101004493" lon="12.890684896472568"><ele>793.6666666666667</ele><time>2026-04-04T09:31:05Z</time></trkpt><trkpt lat="42.99895149339438" lon="12.890642081279085"><ele>794.0</ele><time>2026-04-04T09:31:35.999Z</time></trkpt><trkpt lat="42.99889002130968" lon="12.890688447438038"><ele>793.4000000000001</ele><time>2026-04-04T09:31:37.999Z</time></trkpt><trkpt lat="42.998830189466204" lon="12.890817937996255"><ele>792.8</ele><time>2026-04-04T09:31:39.999Z</time></trkpt><trkpt lat="42.998767285252164" lon="12.890879701002977"><ele>792.2</ele><time>2026-04-04T09:31:40.999Z</time></trkpt><trkpt lat="42.99868745075137" lon="12.890915276162506"><ele>791.5999999999999</ele><time>2026-04-04T09:31:41.999Z</time></trkpt><trkpt lat="42.99859842821359" lon="12.890933907878203"><ele>791.0</ele><time>2026-04-04T09:31:42.999Z</time></trkpt><trkpt lat="42.998504282323196" lon="12.89094671123884"><ele>791.0</ele><time>2026-04-04T09:31:43.999Z</time></trkpt><trkpt lat="42.998404939180844" lon="12.890950491215854"><ele>791.0</ele><time>2026-04-04T09:31:44.999Z</time></trkpt><trkpt lat="42.99829855275294" lon="12.890935844962955"><ele>791.0</ele><time>2026-04-04T09:31:45.999Z</time></trkpt><trkpt lat="42.99818682633814" lon="12.890923499031743"><ele>791.0</ele><time>2026-04-04T09:31:46.999Z</time></trkpt><trkpt lat="42.998069708259315" lon="12.890919107095252"><ele>791.0</ele><time>2026-04-04T09:31:47.999Z</time></trkpt><trkpt lat="42.99795167313547" lon="12.890925936321583"><ele>791.25</ele><time>2026-04-04T09:31:48.999Z</time></trkpt><trkpt lat="42.99782972454867" lon="12.890957286052814"><ele>791.5</ele><time>2026-04-04T09:31:49.999Z</time></trkpt><trkpt lat="42.997720130233034" lon="12.89102792123247"><ele>791.75</ele><time>2026-04-04T09:31:50.999Z</time></trkpt><trkpt lat="42.99761426272114" lon="12.891125577849104"><ele>792.0</ele><time>2026-04-04T09:31:51.999Z</time></trkpt><trkpt lat="42.997512308987574" lon="12.891223872754091"><ele>792.75</ele><time>2026-04-04T09:31:52.999Z</time></trkpt><trkpt lat="42.99740840692965" lon="12.891319961520137"><ele>793.5</ele><time>2026-04-04T09:31:53.999Z</time></trkpt><trkpt lat="42.99730830274088" lon="12.891425571793967"><ele>794.25</ele><time>2026-04-04T09:31:54.999Z</time></trkpt><trkpt lat="42.99722557855491" lon="12.891533217052853"><ele>795.0</ele><time>2026-04-04T09:31:55.999Z</time></trkpt><trkpt lat="42.99715403235582" lon="12.891647242827876"><ele>793.75</ele><time>2026-04-04T09:31:56.999Z</time></trkpt><trkpt lat="42.99709883222227" lon="12.891766731543186"><ele>792.5</ele><time>2026-04-04T09:31:57.999Z</time></trkpt><trkpt lat="42.99706302998105" lon="12.891906689430822"><ele>791.25</ele><time>2026-04-04T09:31:58.999Z</time></trkpt><trkpt lat="42.997035896528416" lon="12.89207240700503"><ele>790.0</ele><time>2026-04-04T09:31:59.999Z</time></trkpt><trkpt lat="42.99700606658627" lon="12.892244665836245"><ele>790.0</ele><time>2026-04-04T09:32:00.999Z</time></trkpt><trkpt lat="42.99696982560131" lon="12.892414846759523"><ele>790.0</ele><time>2026-04-04T09:32:01.999Z</time></trkpt><trkpt lat="42.99693827788913" lon="12.892587873860013"><ele>790.0</ele><time>2026-04-04T09:32:02.999Z</time></trkpt><trkpt lat="42.99690908118809" lon="12.89276275965941"><ele>790.0</ele><time>2026-04-04T09:32:03.999Z</time></trkpt><trkpt lat="42.99688365466601" lon="12.892938773120408"><ele>789.5</ele><time>2026-04-04T09:32:04.999Z</time></trkpt><trkpt lat="42.99685914314153" lon="12.89311612671006"><ele>789.0</ele><time>2026-04-04T09:32:05.999Z</time></trkpt><trkpt lat="42.99683530967776" lon="12.89329409701434"><ele>788.5</ele><time>2026-04-04T09:32:06.999Z</time></trkpt><trkpt lat="42.996801066407976" lon="12.893451737900243"><ele>788.0</ele><time>2026-04-04T09:32:07.999Z</time></trkpt><trkpt lat="42.99678535067032" lon="12.893654943891988"><ele>787.75</ele><time>2026-04-04T09:32:08.999Z</time></trkpt><trkpt lat="42.99679390184984" lon="12.893848473400551"><ele>787.5</ele><time>2026-04-04T09:32:09.999Z</time></trkpt><trkpt lat="42.99681809048161" lon="12.894038378534336"><ele>787.25</ele><time>2026-04-04T09:32:10.999Z</time></trkpt><trkpt lat="42.99684512722747" lon="12.894229028176984"><ele>787.0</ele><time>2026-04-04T09:32:11.999Z</time></trkpt><trkpt lat="42.99685945275309" lon="12.894391103563995"><ele>787.0</ele><time>2026-04-04T09:32:12.999Z</time></trkpt><trkpt lat="42.99685669153353" lon="12.894537254865085"><ele>787.0</ele><time>2026-04-04T09:32:13.999Z</time></trkpt><trkpt lat="42.99684421426557" lon="12.894680418474117"><ele>787.0</ele><time>2026-04-04T09:32:14.999Z</time></trkpt><trkpt lat="42.996840432362696" lon="12.894818294302452"><ele>787.0</ele><time>2026-04-04T09:32:15.999Z</time></trkpt><trkpt lat="42.99685601010148" lon="12.894964375988812"><ele>787.0</ele><time>2026-04-04T09:32:16.998Z</time></trkpt><trkpt lat="42.996896139929234" lon="12.895114348595232"><ele>786.0</ele><time>2026-04-04T09:32:17.998Z</time></trkpt><trkpt lat="42.996959332881936" lon="12.895254227389836"><ele>785.0</ele><time>2026-04-04T09:32:18.998Z</time></trkpt><trkpt lat="42.997044713178795" lon="12.895382898881909"><ele>784.0</ele><time>2026-04-04T09:32:19.998Z</time></trkpt><trkpt lat="42.997138318343445" lon="12.895513412396468"><ele>783.0</ele><time>2026-04-04T09:32:20.998Z</time></trkpt><trkpt lat="42.99722713081236" lon="12.89562219871164"><ele>783.0</ele><time>2026-04-04T09:32:21.998Z</time></trkpt><trkpt lat="42.99730345075392" lon="12.895728421121136"><ele>783.0</ele><time>2026-04-04T09:32:22.998Z</time></trkpt><trkpt lat="42.99737274465946" lon="12.895838499316524"><ele>783.0</ele><time>2026-04-04T09:32:23.998Z</time></trkpt><trkpt lat="42.997439849880934" lon="12.895932077333688"><ele>783.0</ele><time>2026-04-04T09:32:24.998Z</time></trkpt><trkpt lat="42.99749965032442" lon="12.896024530973138"><ele>783.0</ele><time>2026-04-04T09:32:25.998Z</time></trkpt><trkpt lat="42.997545083955224" lon="12.896119064584015"><ele>782.8333333333334</ele><time>2026-04-04T09:32:26.998Z</time></trkpt><trkpt lat="42.99757839840577" lon="12.896197483004245"><ele>782.6666666666667</ele><time>2026-04-04T09:32:27.998Z</time></trkpt><trkpt lat="42.99755882108835" lon="12.89634906480532"><ele>782.5</ele><time>2026-04-04T09:32:29.998Z</time></trkpt><trkpt lat="42.99749823497477" lon="12.896376090934597"><ele>782.3333333333334</ele><time>2026-04-04T09:32:30.998Z</time></trkpt><trkpt lat="42.99742563301176" lon="12.8963514363456"><ele>782.1666666666667</ele><time>2026-04-04T09:32:31.998Z</time></trkpt><trkpt lat="42.99734963446902" lon="12.896320688281971"><ele>782.0</ele><time>2026-04-04T09:32:32.998Z</time></trkpt><trkpt lat="42.997262508003" lon="12.896307059602647"><ele>782.0</ele><time>2026-04-04T09:32:33.998Z</time></trkpt><trkpt lat="42.997166894362486" lon="12.89629219485299"><ele>782.0</ele><time>2026-04-04T09:32:34.998Z</time></trkpt><trkpt lat="42.997066285650725" lon="12.896276067547"><ele>782.0</ele><time>2026-04-04T09:32:35.998Z</time></trkpt><trkpt lat="42.996957073321795" lon="12.896261331141714"><ele>782.0</ele><time>2026-04-04T09:32:36.998Z</time></trkpt><trkpt lat="42.99683785739647" lon="12.896244544070507"><ele>782.0</ele><time>2026-04-04T09:32:37.998Z</time></trkpt><trkpt lat="42.99671177811245" lon="12.896224735946316"><ele>782.75</ele><time>2026-04-04T09:32:38.998Z</time></trkpt><trkpt lat="42.99658330128469" lon="12.89620393677036"><ele>783.5</ele><time>2026-04-04T09:32:39.998Z</time></trkpt><trkpt lat="42.99645821914227" lon="12.896182414998444"><ele>784.25</ele><time>2026-04-04T09:32:40.998Z</time></trkpt><trkpt lat="42.99633421733927" lon="12.896157008065902"><ele>785.0</ele><time>2026-04-04T09:32:41.998Z</time></trkpt><trkpt lat="42.99621055739322" lon="12.896129722356063"><ele>785.0</ele><time>2026-04-04T09:32:42.998Z</time></trkpt><trkpt lat="42.99608344404004" lon="12.896105146336865"><ele>785.0</ele><time>2026-04-04T09:32:43.998Z</time></trkpt><trkpt lat="42.99595539974216" lon="12.896079182094597"><ele>785.0</ele><time>2026-04-04T09:32:44.998Z</time></trkpt><trkpt lat="42.995819514826394" lon="12.896052737489548"><ele>785.0</ele><time>2026-04-04T09:32:45.998Z</time></trkpt><trkpt lat="42.995671230156226" lon="12.896032334268806"><ele>786.0</ele><time>2026-04-04T09:32:46.998Z</time></trkpt><trkpt lat="42.995514692380915" lon="12.896012873542505"><ele>787.0</ele><time>2026-04-04T09:32:47.998Z</time></trkpt><trkpt lat="42.99535263976989" lon="12.895991488058693"><ele>788.0</ele><time>2026-04-04T09:32:48.998Z</time></trkpt><trkpt lat="42.99518491745808" lon="12.89596010543006"><ele>789.0</ele><time>2026-04-04T09:32:49.998Z</time></trkpt><trkpt lat="42.99501509301783" lon="12.89591856472903"><ele>790.0</ele><time>2026-04-04T09:32:50.998Z</time></trkpt><trkpt lat="42.99485142347022" lon="12.89585449031204"><ele>791.0</ele><time>2026-04-04T09:32:51.998Z</time></trkpt><trkpt lat="42.99469617814548" lon="12.895771951895647"><ele>792.0</ele><time>2026-04-04T09:32:52.998Z</time></trkpt><trkpt lat="42.994538331571036" lon="12.895678960970834"><ele>793.0</ele><time>2026-04-04T09:32:53.998Z</time></trkpt><trkpt lat="42.994384588094" lon="12.895578484400993"><ele>794.0</ele><time>2026-04-04T09:32:54.998Z</time></trkpt><trkpt lat="42.9942276962094" lon="12.895480483165402"><ele>794.6666666666667</ele><time>2026-04-04T09:32:55.999Z</time></trkpt><trkpt lat="42.99406869999217" lon="12.895385671992676"><ele>795.3333333333333</ele><time>2026-04-04T09:32:56.999Z</time></trkpt><trkpt lat="42.99391261059846" lon="12.89529141905482"><ele>796.0</ele><time>2026-04-04T09:32:57.999Z</time></trkpt><trkpt lat="42.99375505337913" lon="12.895204873712984"><ele>796.0</ele><time>2026-04-04T09:32:58.999Z</time></trkpt><trkpt lat="42.99359849714464" lon="12.89511780947934"><ele>796.0</ele><time>2026-04-04T09:32:59.999Z</time></trkpt><trkpt lat="42.99344648816414" lon="12.895029352022615"><ele>796.0</ele><time>2026-04-04T09:33:00.999Z</time></trkpt><trkpt lat="42.9933090734345" lon="12.89494902313233"><ele>796.75</ele><time>2026-04-04T09:33:02Z</time></trkpt><trkpt lat="42.99317391186579" lon="12.894864590019894"><ele>797.5</ele><time>2026-04-04T09:33:03Z</time></trkpt><trkpt lat="42.99303836336613" lon="12.894779607158737"><ele>798.25</ele><time>2026-04-04T09:33:04Z</time></trkpt><trkpt lat="42.992901866808815" lon="12.894692037598967"><ele>799.0</ele><time>2026-04-04T09:33:05Z</time></trkpt><trkpt lat="42.992764648311436" lon="12.894592545825859"><ele>799.0</ele><time>2026-04-04T09:33:06Z</time></trkpt><trkpt lat="42.99263698964625" lon="12.894475486170046"><ele>799.0</ele><time>2026-04-04T09:33:07Z</time></trkpt><trkpt lat="42.99251226691726" lon="12.894359434622539"><ele>799.0</ele><time>2026-04-04T09:33:08Z</time></trkpt><trkpt lat="42.99238585644264" lon="12.8942505040599"><ele>800.3333333333333</ele><time>2026-04-04T09:33:09Z</time></trkpt><trkpt lat="42.99225596625066" lon="12.894143388763554"><ele>801.6666666666667</ele><time>2026-04-04T09:33:10Z</time></trkpt><trkpt lat="42.99212368529811" lon="12.894031267614643"><ele>803.0</ele><time>2026-04-04T09:33:11Z</time></trkpt><trkpt lat="42.99199455328651" lon="12.893919314450299"><ele>803.0</ele><time>2026-04-04T09:33:12Z</time></trkpt><trkpt lat="42.99187329392207" lon="12.893823311115302"><ele>803.0</ele><time>2026-04-04T09:33:13Z</time></trkpt><trkpt lat="42.991760527337405" lon="12.89373409718712"><ele>803.0</ele><time>2026-04-04T09:33:14Z</time></trkpt><trkpt lat="42.99164797553399" lon="12.893648522441893"><ele>803.0</ele><time>2026-04-04T09:33:15Z</time></trkpt><trkpt lat="42.99151704176363" lon="12.89357309299227"><ele>803.0</ele><time>2026-04-04T09:33:16Z</time></trkpt><trkpt lat="42.991364724779835" lon="12.89350794853662"><ele>803.0</ele><time>2026-04-04T09:33:17Z</time></trkpt><trkpt lat="42.991199718619775" lon="12.893458294684025"><ele>803.0</ele><time>2026-04-04T09:33:18Z</time></trkpt><trkpt lat="42.991047777272414" lon="12.893409453302382"><ele>805.75</ele><time>2026-04-04T09:33:19Z</time></trkpt><trkpt lat="42.99091946742128" lon="12.893359761390048"><ele>808.5</ele><time>2026-04-04T09:33:20Z</time></trkpt><trkpt lat="42.99082479013757" lon="12.893257655390604"><ele>811.25</ele><time>2026-04-04T09:33:21Z</time></trkpt><trkpt lat="42.99071427169263" lon="12.893159848642457"><ele>814.0</ele><time>2026-04-04T09:33:22Z</time></trkpt><trkpt lat="42.990601482080365" lon="12.893036697388268"><ele>815.5</ele><time>2026-04-04T09:33:23Z</time></trkpt><trkpt lat="42.99051153809093" lon="12.892892560370068"><ele>817.0</ele><time>2026-04-04T09:33:24Z</time></trkpt><trkpt lat="42.99043503390507" lon="12.892742202492888"><ele>818.5</ele><time>2026-04-04T09:33:25Z</time></trkpt><trkpt lat="42.99036491378419" lon="12.892618715116644"><ele>820.0</ele><time>2026-04-04T09:33:26Z</time></trkpt><trkpt lat="42.99029478644009" lon="12.892563224267066"><ele>820.0</ele><time>2026-04-04T09:33:27Z</time></trkpt><trkpt lat="42.990188492076356" lon="12.892578918146937"><ele>820.0</ele><time>2026-04-04T09:33:28Z</time></trkpt><trkpt lat="42.9900911208102" lon="12.892638887328049"><ele>820.0</ele><time>2026-04-04T09:33:29Z</time></trkpt><trkpt lat="42.99004321452069" lon="12.892522021014505"><ele>820.0</ele><time>2026-04-04T09:33:31Z</time></trkpt><trkpt lat="42.99004135894432" lon="12.892423716167208"><ele>820.0</ele><time>2026-04-04T09:33:32Z</time></trkpt><trkpt lat="42.990043360145755" lon="12.892275468091952"><ele>823.5</ele><time>2026-04-04T09:33:33Z</time></trkpt><trkpt lat="42.99008358856512" lon="12.892111081316571"><ele>827.0</ele><time>2026-04-04T09:33:34Z</time></trkpt><trkpt lat="42.99014877717114" lon="12.891991690110759"><ele>830.5</ele><time>2026-04-04T09:33:35Z</time></trkpt><trkpt lat="42.99033685468217" lon="12.891895911198219"><ele>834.0</ele><time>2026-04-04T09:33:36Z</time></trkpt><trkpt lat="42.99026469575585" lon="12.891992358818499"><ele>834.0</ele><time>2026-04-04T09:33:37Z</time></trkpt><trkpt lat="42.99035742633111" lon="12.891835281247404"><ele>834.0</ele><time>2026-04-04T09:33:38Z</time></trkpt><trkpt lat="42.99037630259635" lon="12.8916587157053"><ele>834.0</ele><time>2026-04-04T09:33:40Z</time></trkpt><trkpt lat="42.990339081531864" lon="12.8915846332959"><ele>834.0</ele><time>2026-04-04T09:33:41Z</time></trkpt><trkpt lat="42.99028066894872" lon="12.89153493358723"><ele>834.0</ele><time>2026-04-04T09:33:42Z</time></trkpt><trkpt lat="42.99022475862615" lon="12.891422728995055"><ele>836.6</ele><time>2026-04-04T09:33:44Z</time></trkpt><trkpt lat="42.990195724296726" lon="12.89133406644876"><ele>839.2</ele><time>2026-04-04T09:33:46Z</time></trkpt><trkpt lat="42.99030169970171" lon="12.891191876696798"><ele>841.8000000000001</ele><time>2026-04-04T09:33:48Z</time></trkpt><trkpt lat="42.990384759301136" lon="12.891135556462688"><ele>844.4000000000001</ele><time>2026-04-04T09:33:50Z</time></trkpt><trkpt lat="42.99046279791793" lon="12.891072862167684"><ele>847.0</ele><time>2026-04-04T09:33:52Z</time></trkpt><trkpt lat="42.99052732551287" lon="12.890989669720206"><ele>846.9999999999999</ele><time>2026-04-04T09:33:54Z</time></trkpt><trkpt lat="42.990602243621254" lon="12.890939808403038"><ele>847.0</ele><time>2026-04-04T09:33:55.999Z</time></trkpt><trkpt lat="42.99071517634988" lon="12.890978159110484"><ele>847.0</ele><time>2026-04-04T09:33:57.999Z</time></trkpt><trkpt lat="42.99079328007969" lon="12.890994146132165"><ele>847.0</ele><time>2026-04-04T09:33:58.999Z</time></trkpt><trkpt lat="42.9908613317682" lon="12.891012292211819"><ele>846.9999999999999</ele><time>2026-04-04T09:33:59.999Z</time></trkpt><trkpt lat="42.99093278178887" lon="12.891031141461543"><ele>847.0</ele><time>2026-04-04T09:34:00.999Z</time></trkpt><trkpt lat="42.99100410904036" lon="12.891044204004263"><ele>843.75</ele><time>2026-04-04T09:34:01.999Z</time></trkpt><trkpt lat="42.99110615195343" lon="12.891097163549492"><ele>840.5</ele><time>2026-04-04T09:34:03.999Z</time></trkpt><trkpt lat="42.991200256820754" lon="12.891140497505896"><ele>837.25</ele><time>2026-04-04T09:34:05.999Z</time></trkpt><trkpt lat="42.99127200442236" lon="12.89117353626771"><ele>834.0</ele><time>2026-04-04T09:34:08.999Z</time></trkpt><trkpt lat="42.99086054105935" lon="12.890571237390292"><ele>836.25</ele><time>2026-04-04T09:34:19.316Z</time></trkpt><trkpt lat="42.99065450690088" lon="12.890395112415813"><ele>838.5</ele><time>2026-04-04T09:34:20.316Z</time></trkpt><trkpt lat="42.99057919502532" lon="12.890355793796951"><ele>840.75</ele><time>2026-04-04T09:34:21.316Z</time></trkpt><trkpt lat="42.99053184534894" lon="12.890202455806815"><ele>843.0</ele><time>2026-04-04T09:34:22.316Z</time></trkpt><trkpt lat="42.99046902736836" lon="12.890167060109544"><ele>843.0</ele><time>2026-04-04T09:34:23.316Z</time></trkpt><trkpt lat="42.99037901200799" lon="12.890112434401424"><ele>843.0</ele><time>2026-04-04T09:34:25.316Z</time></trkpt><trkpt lat="42.990305865063696" lon="12.890067990860606"><ele>843.0</ele><time>2026-04-04T09:34:26.316Z</time></trkpt><trkpt lat="42.99021304396897" lon="12.89001817326674"><ele>843.0</ele><time>2026-04-04T09:34:27.316Z</time></trkpt><trkpt lat="42.99010959303866" lon="12.88997204338248"><ele>843.0</ele><time>2026-04-04T09:34:28.316Z</time></trkpt><trkpt lat="42.99000939696639" lon="12.889936010500785"><ele>842.2</ele><time>2026-04-04T09:34:29.316Z</time></trkpt><trkpt lat="42.989907500137214" lon="12.889922087299027"><ele>841.4</ele><time>2026-04-04T09:34:30.316Z</time></trkpt><trkpt lat="42.98980846387979" lon="12.889930702294834"><ele>840.6</ele><time>2026-04-04T09:34:31.316Z</time></trkpt><trkpt lat="42.989704475030244" lon="12.889965251705666"><ele>839.8000000000001</ele><time>2026-04-04T09:34:32.316Z</time></trkpt><trkpt lat="42.98960908329264" lon="12.89001050863335"><ele>839.0</ele><time>2026-04-04T09:34:33.316Z</time></trkpt><trkpt lat="42.98949661474696" lon="12.890029682037913"><ele>839.0</ele><time>2026-04-04T09:34:34.316Z</time></trkpt><trkpt lat="42.989368494161454" lon="12.890029891182593"><ele>839.0</ele><time>2026-04-04T09:34:35.316Z</time></trkpt><trkpt lat="42.989257866048334" lon="12.890050754124982"><ele>839.0</ele><time>2026-04-04T09:34:36.316Z</time></trkpt><trkpt lat="42.98916059704829" lon="12.890035123289712"><ele>839.0</ele><time>2026-04-04T09:34:37.316Z</time></trkpt><trkpt lat="42.98905954955653" lon="12.890037767667193"><ele>839.0</ele><time>2026-04-04T09:34:38.316Z</time></trkpt><trkpt lat="42.988958789583776" lon="12.890048559445127"><ele>840.8333333333334</ele><time>2026-04-04T09:34:39.316Z</time></trkpt><trkpt lat="42.98886580228787" lon="12.89004885647465"><ele>842.6666666666667</ele><time>2026-04-04T09:34:40.316Z</time></trkpt><trkpt lat="42.98876850226058" lon="12.890041207284737"><ele>844.5</ele><time>2026-04-04T09:34:41.316Z</time></trkpt><trkpt lat="42.98867945141492" lon="12.890043766441758"><ele>846.3333333333333</ele><time>2026-04-04T09:34:42.316Z</time></trkpt><trkpt lat="42.98861673289131" lon="12.889989231401021"><ele>848.1666666666666</ele><time>2026-04-04T09:34:43.316Z</time></trkpt><trkpt lat="42.98856111774953" lon="12.88989449951984"><ele>850.0</ele><time>2026-04-04T09:34:44.316Z</time></trkpt><trkpt lat="42.98861145628553" lon="12.88976597667159"><ele>850.0</ele><time>2026-04-04T09:34:46.316Z</time></trkpt><trkpt lat="42.98871179556678" lon="12.889666497489973"><ele>850.0</ele><time>2026-04-04T09:34:48.316Z</time></trkpt><trkpt lat="42.988773896778945" lon="12.889570454975063"><ele>850.0</ele><time>2026-04-04T09:34:49.31Z</time></trkpt><trkpt lat="42.98885101777317" lon="12.889464651622584"><ele>850.0</ele><time>2026-04-04T09:34:50.31Z</time></trkpt><trkpt lat="42.988916606759915" lon="12.889234147825798"><ele>849.6</ele><time>2026-04-04T09:34:51.31Z</time></trkpt><trkpt lat="42.988908941156424" lon="12.889121047447192"><ele>849.2</ele><time>2026-04-04T09:34:51.999Z</time></trkpt><trkpt lat="42.988894545849156" lon="12.888978698130424"><ele>848.8</ele><time>2026-04-04T09:34:52.999Z</time></trkpt><trkpt lat="42.98883607053301" lon="12.888847002239448"><ele>848.4</ele><time>2026-04-04T09:34:53.999Z</time></trkpt><trkpt lat="42.988788358558295" lon="12.888685715283438"><ele>848.0</ele><time>2026-04-04T09:34:54.999Z</time></trkpt><trkpt lat="42.98873070677459" lon="12.888542076058378"><ele>847.0</ele><time>2026-04-04T09:34:55.999Z</time></trkpt><trkpt lat="42.988677752151276" lon="12.888395535798011"><ele>846.0</ele><time>2026-04-04T09:34:56.999Z</time></trkpt><trkpt lat="42.98861556608266" lon="12.888245789960378"><ele>845.0</ele><time>2026-04-04T09:34:57.999Z</time></trkpt><trkpt lat="42.98853852266923" lon="12.88812551902198"><ele>844.0</ele><time>2026-04-04T09:34:58.999Z</time></trkpt><trkpt lat="42.988479444883716" lon="12.888052294292809"><ele>843.0</ele><time>2026-04-04T09:34:59.999Z</time></trkpt><trkpt lat="42.98841456268202" lon="12.887963793189087"><ele>843.0</ele><time>2026-04-04T09:35:00.999Z</time></trkpt><trkpt lat="42.988365265630826" lon="12.88789688267784"><ele>843.0</ele><time>2026-04-04T09:35:01.999Z</time></trkpt><trkpt lat="42.98832254266581" lon="12.887825992342517"><ele>843.0</ele><time>2026-04-04T09:35:02.999Z</time></trkpt><trkpt lat="42.98827932477662" lon="12.887737951737853"><ele>843.0</ele><time>2026-04-04T09:35:03.999Z</time></trkpt><trkpt lat="42.98822196799147" lon="12.887664295692652"><ele>843.0</ele><time>2026-04-04T09:35:04.999Z</time></trkpt><trkpt lat="42.98815985813562" lon="12.887568402008965"><ele>843.0</ele><time>2026-04-04T09:35:05.999Z</time></trkpt><trkpt lat="42.98809152396293" lon="12.88746542330019"><ele>845.5</ele><time>2026-04-04T09:35:06.999Z</time></trkpt><trkpt lat="42.988000919781676" lon="12.88734282705128"><ele>848.0</ele><time>2026-04-04T09:35:07.999Z</time></trkpt><trkpt lat="42.98790562717379" lon="12.88721318274491"><ele>850.5</ele><time>2026-04-04T09:35:08.999Z</time></trkpt><trkpt lat="42.98780796380546" lon="12.887077651227045"><ele>853.0</ele><time>2026-04-04T09:35:09.999Z</time></trkpt><trkpt lat="42.987710495270896" lon="12.886951710485095"><ele>853.0</ele><time>2026-04-04T09:35:10.999Z</time></trkpt><trkpt lat="42.987628173358594" lon="12.886842692451964"><ele>853.0</ele><time>2026-04-04T09:35:11.999Z</time></trkpt><trkpt lat="42.987557029770116" lon="12.88674033095685"><ele>853.0</ele><time>2026-04-04T09:35:12.999Z</time></trkpt><trkpt lat="42.98748291879849" lon="12.886626344569994"><ele>853.0</ele><time>2026-04-04T09:35:13.999Z</time></trkpt><trkpt lat="42.98741626339651" lon="12.886515003568203"><ele>853.0</ele><time>2026-04-04T09:35:14.999Z</time></trkpt><trkpt lat="42.9873487578933" lon="12.88638621376927"><ele>853.5999999999999</ele><time>2026-04-04T09:35:15.999Z</time></trkpt><trkpt lat="42.9873029462526" lon="12.886293375297038"><ele>854.1999999999999</ele><time>2026-04-04T09:35:16.999Z</time></trkpt><trkpt lat="42.987252303276634" lon="12.88620543605556"><ele>854.8</ele><time>2026-04-04T09:35:17.999Z</time></trkpt><trkpt lat="42.98718695836813" lon="12.886105749121118"><ele>855.4</ele><time>2026-04-04T09:35:18.999Z</time></trkpt><trkpt lat="42.98710837531351" lon="12.885996793969934"><ele>856.0</ele><time>2026-04-04T09:35:19.999Z</time></trkpt><trkpt lat="42.98702289251288" lon="12.8858800433264"><ele>856.0</ele><time>2026-04-04T09:35:20.999Z</time></trkpt><trkpt lat="42.986930351497165" lon="12.885753547238492"><ele>856.0</ele><time>2026-04-04T09:35:21.999Z</time></trkpt><trkpt lat="42.98685378738674" lon="12.885648894413738"><ele>856.0</ele><time>2026-04-04T09:35:22.999Z</time></trkpt><trkpt lat="42.98676415446824" lon="12.885536901957337"><ele>856.0</ele><time>2026-04-04T09:35:23.999Z</time></trkpt><trkpt lat="42.986705094373825" lon="12.885421425018766"><ele>858.4</ele><time>2026-04-04T09:35:24.999Z</time></trkpt><trkpt lat="42.98665583528282" lon="12.885319846468793"><ele>860.8</ele><time>2026-04-04T09:35:25.999Z</time></trkpt><trkpt lat="42.98657609372044" lon="12.885178956102784"><ele>863.1999999999999</ele><time>2026-04-04T09:35:26.999Z</time></trkpt><trkpt lat="42.98650730377422" lon="12.885038001921476"><ele>865.5999999999999</ele><time>2026-04-04T09:35:27.999Z</time></trkpt><trkpt lat="42.98646821567228" lon="12.884949908098918"><ele>868.0</ele><time>2026-04-04T09:35:28.999Z</time></trkpt><trkpt lat="42.98681938563963" lon="12.884111691410716"><ele>868.0</ele><time>2026-04-04T09:35:29.999Z</time></trkpt><trkpt lat="42.986814595780096" lon="12.883971974523634"><ele>868.0</ele><time>2026-04-04T09:35:30.999Z</time></trkpt><trkpt lat="42.98677639111803" lon="12.883846240742411"><ele>868.0</ele><time>2026-04-04T09:35:31.999Z</time></trkpt><trkpt lat="42.98671142944759" lon="12.883713849308505"><ele>868.0</ele><time>2026-04-04T09:35:32.999Z</time></trkpt><trkpt lat="42.98662227424041" lon="12.883565790868696"><ele>866.25</ele><time>2026-04-04T09:35:33.999Z</time></trkpt><trkpt lat="42.9865442085316" lon="12.883405469378026"><ele>864.5</ele><time>2026-04-04T09:35:34.999Z</time></trkpt><trkpt lat="42.986447640937705" lon="12.883243198740256"><ele>862.75</ele><time>2026-04-04T09:35:35.998Z</time></trkpt><trkpt lat="42.98634422713933" lon="12.883094177408095"><ele>861.0</ele><time>2026-04-04T09:35:36.998Z</time></trkpt><trkpt lat="42.98623485053924" lon="12.882956603343533"><ele>861.0</ele><time>2026-04-04T09:35:37.998Z</time></trkpt><trkpt lat="42.986113736018545" lon="12.88282233284202"><ele>861.0</ele><time>2026-04-04T09:35:38.998Z</time></trkpt><trkpt lat="42.986003011204595" lon="12.882712391398682"><ele>861.0</ele><time>2026-04-04T09:35:39.998Z</time></trkpt><trkpt lat="42.98592898753703" lon="12.882586244227028"><ele>861.0</ele><time>2026-04-04T09:35:40.998Z</time></trkpt><trkpt lat="42.98587043951352" lon="12.88245048848903"><ele>861.4</ele><time>2026-04-04T09:35:41.998Z</time></trkpt><trkpt lat="42.98582023878468" lon="12.882316515196582"><ele>861.8</ele><time>2026-04-04T09:35:42.998Z</time></trkpt><trkpt lat="42.98574968305672" lon="12.882223507833395"><ele>862.1999999999999</ele><time>2026-04-04T09:35:43.998Z</time></trkpt><trkpt lat="42.98569379562385" lon="12.88214458632856"><ele>862.5999999999999</ele><time>2026-04-04T09:35:44.998Z</time></trkpt><trkpt lat="42.985642710608666" lon="12.882053273664116"><ele>863.0</ele><time>2026-04-04T09:35:45.998Z</time></trkpt><trkpt lat="42.985561770618126" lon="12.881972283141032"><ele>863.0</ele><time>2026-04-04T09:35:46.998Z</time></trkpt><trkpt lat="42.98545257146246" lon="12.881887881444367"><ele>863.0</ele><time>2026-04-04T09:35:47.998Z</time></trkpt><trkpt lat="42.98534678204524" lon="12.881818314732696"><ele>863.0</ele><time>2026-04-04T09:35:48.998Z</time></trkpt><trkpt lat="42.98525354482325" lon="12.881764877845697"><ele>863.0</ele><time>2026-04-04T09:35:49.998Z</time></trkpt><trkpt lat="42.98519225462422" lon="12.881731758446548"><ele>863.0</ele><time>2026-04-04T09:35:50.998Z</time></trkpt><trkpt lat="42.985117203080904" lon="12.881738114353652"><ele>863.0</ele><time>2026-04-04T09:35:53.998Z</time></trkpt><trkpt lat="42.98504419673758" lon="12.881768946962879"><ele>863.0</ele><time>2026-04-04T09:36:08.998Z</time></trkpt><trkpt lat="42.98495101230907" lon="12.881764772662695"><ele>863.0</ele><time>2026-04-04T09:36:09.998Z</time></trkpt><trkpt lat="42.98482011248625" lon="12.881760911509643"><ele>863.0</ele><time>2026-04-04T09:36:10.998Z</time></trkpt><trkpt lat="42.98468543796301" lon="12.881752549140677"><ele>863.0</ele><time>2026-04-04T09:36:11.998Z</time></trkpt><trkpt lat="42.98457158750654" lon="12.881734246694597"><ele>864.25</ele><time>2026-04-04T09:36:12.998Z</time></trkpt><trkpt lat="42.984459862066764" lon="12.881677490463789"><ele>865.5</ele><time>2026-04-04T09:36:13.998Z</time></trkpt><trkpt lat="42.98434033627814" lon="12.881597268951037"><ele>866.75</ele><time>2026-04-04T09:36:14.998Z</time></trkpt><trkpt lat="42.98421500907616" lon="12.881518552444307"><ele>868.0</ele><time>2026-04-04T09:36:15.998Z</time></trkpt><trkpt lat="42.984087376955465" lon="12.881415880554478"><ele>869.3333333333333</ele><time>2026-04-04T09:36:16.998Z</time></trkpt><trkpt lat="42.983934966445716" lon="12.881311895958332"><ele>870.6666666666667</ele><time>2026-04-04T09:36:17.998Z</time></trkpt><trkpt lat="42.98380353824626" lon="12.881197910996999"><ele>872.0</ele><time>2026-04-04T09:36:18.998Z</time></trkpt><trkpt lat="42.983686464191535" lon="12.88107089789695"><ele>872.0</ele><time>2026-04-04T09:36:19.998Z</time></trkpt><trkpt lat="42.98355451989586" lon="12.8809353510948"><ele>872.0</ele><time>2026-04-04T09:36:20.998Z</time></trkpt><trkpt lat="42.983423296106096" lon="12.880837607780883"><ele>872.0</ele><time>2026-04-04T09:36:21.998Z</time></trkpt><trkpt lat="42.98329901733941" lon="12.880715140563797"><ele>873.75</ele><time>2026-04-04T09:36:22.998Z</time></trkpt><trkpt lat="42.98318818069892" lon="12.880609999553505"><ele>875.5</ele><time>2026-04-04T09:36:23.998Z</time></trkpt><trkpt lat="42.983107879837824" lon="12.880512656387806"><ele>877.25</ele><time>2026-04-04T09:36:24.998Z</time></trkpt><trkpt lat="42.982998588738965" lon="12.88045779529862"><ele>879.0</ele><time>2026-04-04T09:36:25.998Z</time></trkpt><trkpt lat="42.98287633160347" lon="12.880416367743944"><ele>879.0</ele><time>2026-04-04T09:36:26.998Z</time></trkpt><trkpt lat="42.982794205963486" lon="12.880358884393996"><ele>879.0</ele><time>2026-04-04T09:36:27.998Z</time></trkpt><trkpt lat="42.982748801750844" lon="12.880285657196161"><ele>879.0</ele><time>2026-04-04T09:36:28.998Z</time></trkpt><trkpt lat="42.98271450276049" lon="12.880208903474221"><ele>879.0</ele><time>2026-04-04T09:36:29.998Z</time></trkpt><trkpt lat="42.98267794435817" lon="12.88010489603729"><ele>879.0</ele><time>2026-04-04T09:36:33Z</time></trkpt><trkpt lat="42.98264763582187" lon="12.879987901461053"><ele>879.0</ele><time>2026-04-04T09:36:35Z</time></trkpt><trkpt lat="42.982642240131746" lon="12.879894065540977"><ele>881.0</ele><time>2026-04-04T09:36:36Z</time></trkpt><trkpt lat="42.98263821850523" lon="12.879800432154651"><ele>883.0000000000001</ele><time>2026-04-04T09:36:37Z</time></trkpt><trkpt lat="42.98263847620516" lon="12.87966444462288"><ele>885.0000000000001</ele><time>2026-04-04T09:36:38Z</time></trkpt><trkpt lat="42.98265799380181" lon="12.879538352413304"><ele>887.0</ele><time>2026-04-04T09:36:39Z</time></trkpt><trkpt lat="42.98268994746004" lon="12.879410362654406"><ele>889.0</ele><time>2026-04-04T09:36:40Z</time></trkpt><trkpt lat="42.98272260966592" lon="12.879271420437082"><ele>891.6</ele><time>2026-04-04T09:36:41Z</time></trkpt><trkpt lat="42.9827517905557" lon="12.879103931255761"><ele>894.2</ele><time>2026-04-04T09:36:42Z</time></trkpt><trkpt lat="42.982786870733364" lon="12.878956034960652"><ele>896.8000000000001</ele><time>2026-04-04T09:36:43Z</time></trkpt><trkpt lat="42.98281399279786" lon="12.878827112346949"><ele>899.4000000000001</ele><time>2026-04-04T09:36:44Z</time></trkpt><trkpt lat="42.982863464015104" lon="12.878718630859701"><ele>902.0</ele><time>2026-04-04T09:36:45Z</time></trkpt><trkpt lat="42.9828879715629" lon="12.878619768675193"><ele>902.0000000000001</ele><time>2026-04-04T09:36:46Z</time></trkpt><trkpt lat="42.98289830435486" lon="12.87853201728698"><ele>902.0</ele><time>2026-04-04T09:36:47Z</time></trkpt><trkpt lat="42.98290714700397" lon="12.878423517097922"><ele>902.0</ele><time>2026-04-04T09:36:49Z</time></trkpt><trkpt lat="42.9827889815355" lon="12.878388904673706"><ele>902.0</ele><time>2026-04-04T09:36:52Z</time></trkpt><trkpt lat="42.98271289911149" lon="12.878347476115959"><ele>902.0000000000001</ele><time>2026-04-04T09:36:53Z</time></trkpt><trkpt lat="42.982651061351945" lon="12.87828204857795"><ele>902.0</ele><time>2026-04-04T09:36:54Z</time></trkpt><trkpt lat="42.98257443153203" lon="12.878201862675208"><ele>900.4000000000001</ele><time>2026-04-04T09:36:55Z</time></trkpt><trkpt lat="42.9824803342592" lon="12.878125152474977"><ele>898.8000000000001</ele><time>2026-04-04T09:36:56Z</time></trkpt><trkpt lat="42.98241105873018" lon="12.878062503948032"><ele>897.2</ele><time>2026-04-04T09:36:57Z</time></trkpt><trkpt lat="42.98229267142646" lon="12.877988229302261"><ele>895.6</ele><time>2026-04-04T09:36:59Z</time></trkpt><trkpt lat="42.98222521618278" lon="12.87785301687788"><ele>894.0</ele><time>2026-04-04T09:37:01Z</time></trkpt><trkpt lat="42.9821855457837" lon="12.877759825321064"><ele>894.0</ele><time>2026-04-04T09:37:02Z</time></trkpt><trkpt lat="42.982122198185394" lon="12.877660241157042"><ele>894.0000000000001</ele><time>2026-04-04T09:37:03Z</time></trkpt><trkpt lat="42.982061129032054" lon="12.877536615454693"><ele>894.0000000000001</ele><time>2026-04-04T09:37:04Z</time></trkpt><trkpt lat="42.98200931649525" lon="12.87740740403702"><ele>894.0</ele><time>2026-04-04T09:37:05Z</time></trkpt><trkpt lat="42.98193997198106" lon="12.877300486510912"><ele>894.0</ele><time>2026-04-04T09:37:06Z</time></trkpt><trkpt lat="42.981873678768586" lon="12.877186877029445"><ele>896.0</ele><time>2026-04-04T09:37:07Z</time></trkpt><trkpt lat="42.98179748317228" lon="12.877098457110309"><ele>898.0</ele><time>2026-04-04T09:37:08Z</time></trkpt><trkpt lat="42.98177034895441" lon="12.877016597347286"><ele>900.0</ele><time>2026-04-04T09:37:09Z</time></trkpt><trkpt lat="42.981878037728684" lon="12.876964513431803"><ele>902.0</ele><time>2026-04-04T09:37:12Z</time></trkpt><trkpt lat="42.98195095926319" lon="12.876997153732486"><ele>904.0</ele><time>2026-04-04T09:37:14Z</time></trkpt><trkpt lat="42.982008175773686" lon="12.877059425884026"><ele>906.0</ele><time>2026-04-04T09:37:15Z</time></trkpt><trkpt lat="42.98209180193835" lon="12.877134917287586"><ele>906.0</ele><time>2026-04-04T09:37:16Z</time></trkpt><trkpt lat="42.98218942361582" lon="12.877204047557466"><ele>905.9999999999999</ele><time>2026-04-04T09:37:17Z</time></trkpt><trkpt lat="42.98228000939775" lon="12.877248561374486"><ele>905.9999999999999</ele><time>2026-04-04T09:37:18Z</time></trkpt><trkpt lat="42.982383455596036" lon="12.877282025363204"><ele>906.0</ele><time>2026-04-04T09:37:19Z</time></trkpt><trkpt lat="42.98246609327888" lon="12.877315523432102"><ele>906.0</ele><time>2026-04-04T09:37:20Z</time></trkpt><trkpt lat="42.98253264884693" lon="12.877341067468501"><ele>905.5999999999999</ele><time>2026-04-04T09:37:21Z</time></trkpt><trkpt lat="42.98262367629206" lon="12.87725616333374"><ele>905.1999999999999</ele><time>2026-04-04T09:37:23Z</time></trkpt><trkpt lat="42.98267140012849" lon="12.877186542001542"><ele>904.8000000000001</ele><time>2026-04-04T09:37:24Z</time></trkpt><trkpt lat="42.982691740046754" lon="12.87707663349564"><ele>904.4000000000001</ele><time>2026-04-04T09:37:26Z</time></trkpt><trkpt lat="42.98260312756724" lon="12.8769165653932"><ele>904.0</ele><time>2026-04-04T09:37:28Z</time></trkpt><trkpt lat="42.98252585044733" lon="12.876794388915497"><ele>909.0</ele><time>2026-04-04T09:37:29Z</time></trkpt><trkpt lat="42.98247163006245" lon="12.876648751344371"><ele>914.0</ele><time>2026-04-04T09:37:30Z</time></trkpt><trkpt lat="42.98243368795548" lon="12.87647778243954"><ele>919.0</ele><time>2026-04-04T09:37:31Z</time></trkpt><trkpt lat="42.98240072980939" lon="12.876313480895343"><ele>924.0</ele><time>2026-04-04T09:37:32Z</time></trkpt><trkpt lat="42.98236525352484" lon="12.876151932177537"><ele>924.0</ele><time>2026-04-04T09:37:33Z</time></trkpt><trkpt lat="42.982320566400645" lon="12.875989387219018"><ele>924.0</ele><time>2026-04-04T09:37:34Z</time></trkpt><trkpt lat="42.98226798431573" lon="12.8758154543815"><ele>924.0</ele><time>2026-04-04T09:37:35Z</time></trkpt><trkpt lat="42.982241095422545" lon="12.875638290679806"><ele>924.0</ele><time>2026-04-04T09:37:36Z</time></trkpt><trkpt lat="42.98221821961003" lon="12.875483592852895"><ele>927.4000000000001</ele><time>2026-04-04T09:37:37Z</time></trkpt><trkpt lat="42.98220038976499" lon="12.875376049624997"><ele>930.8000000000001</ele><time>2026-04-04T09:37:38Z</time></trkpt><trkpt lat="42.982150902863836" lon="12.875279107078283"><ele>934.1999999999999</ele><time>2026-04-04T09:37:39Z</time></trkpt><trkpt lat="42.98207106677305" lon="12.875184105807108"><ele>937.5999999999999</ele><time>2026-04-04T09:37:40Z</time></trkpt><trkpt lat="42.98197894650479" lon="12.875120737321238"><ele>941.0</ele><time>2026-04-04T09:37:41Z</time></trkpt><trkpt lat="42.98188565310299" lon="12.875067371942917"><ele>942.4</ele><time>2026-04-04T09:37:42Z</time></trkpt><trkpt lat="42.981792627868636" lon="12.875027787442697"><ele>943.8</ele><time>2026-04-04T09:37:42.999Z</time></trkpt><trkpt lat="42.9817249443005" lon="12.874941603156188"><ele>945.1999999999999</ele><time>2026-04-04T09:37:43.999Z</time></trkpt><trkpt lat="42.98166704367135" lon="12.874806243333586"><ele>946.5999999999999</ele><time>2026-04-04T09:37:44.999Z</time></trkpt><trkpt lat="42.98161042948892" lon="12.874675476046422"><ele>948.0</ele><time>2026-04-04T09:37:45.999Z</time></trkpt><trkpt lat="42.98157427354739" lon="12.874579001197768"><ele>948.0</ele><time>2026-04-04T09:37:46.999Z</time></trkpt><trkpt lat="42.98155174463744" lon="12.874480348037986"><ele>948.0</ele><time>2026-04-04T09:37:47.999Z</time></trkpt><trkpt lat="42.98152594544118" lon="12.874386183791346"><ele>948.0</ele><time>2026-04-04T09:37:49.999Z</time></trkpt><trkpt lat="42.98158128084857" lon="12.874316934745632"><ele>948.0</ele><time>2026-04-04T09:38:45Z</time></trkpt><trkpt lat="42.98167008654213" lon="12.874188719735669"><ele>948.0</ele><time>2026-04-04T09:38:47Z</time></trkpt><trkpt lat="42.98172620415376" lon="12.87413920960965"><ele>948.0</ele><time>2026-04-04T09:38:48Z</time></trkpt><trkpt lat="42.98179198556409" lon="12.874090016819904"><ele>950.6666666666666</ele><time>2026-04-04T09:38:49Z</time></trkpt><trkpt lat="42.98185531965001" lon="12.874042867519494"><ele>953.3333333333333</ele><time>2026-04-04T09:38:50Z</time></trkpt><trkpt lat="42.981912635615586" lon="12.873993487104364"><ele>956.0</ele><time>2026-04-04T09:38:51Z</time></trkpt><trkpt lat="42.981998883930096" lon="12.873881060740088"><ele>958.6666666666666</ele><time>2026-04-04T09:38:53Z</time></trkpt><trkpt lat="42.98201627441674" lon="12.87376301570152"><ele>961.3333333333333</ele><time>2026-04-04T09:38:55Z</time></trkpt><trkpt lat="42.981956299647074" lon="12.873698061654817"><ele>964.0</ele><time>2026-04-04T09:38:56Z</time></trkpt><trkpt lat="42.98187808547606" lon="12.873617335895924"><ele>964.0</ele><time>2026-04-04T09:38:57Z</time></trkpt><trkpt lat="42.98180779674157" lon="12.873534395532557"><ele>964.0000000000001</ele><time>2026-04-04T09:38:58Z</time></trkpt><trkpt lat="42.98174582994884" lon="12.873444857703541"><ele>964.0000000000001</ele><time>2026-04-04T09:38:59Z</time></trkpt><trkpt lat="42.98170570659454" lon="12.873335968836674"><ele>964.0</ele><time>2026-04-04T09:39:00Z</time></trkpt><trkpt lat="42.98168658350452" lon="12.873211213498978"><ele>964.0</ele><time>2026-04-04T09:39:01Z</time></trkpt><trkpt lat="42.98167086993884" lon="12.873069300875969"><ele>960.75</ele><time>2026-04-04T09:39:02Z</time></trkpt><trkpt lat="42.98163790935169" lon="12.872925853412106"><ele>957.5</ele><time>2026-04-04T09:39:03Z</time></trkpt><trkpt lat="42.981584410218595" lon="12.872784266988402"><ele>954.25</ele><time>2026-04-04T09:39:04Z</time></trkpt><trkpt lat="42.98154788177002" lon="12.872625834825486"><ele>951.0</ele><time>2026-04-04T09:39:05Z</time></trkpt><trkpt lat="42.98149707545435" lon="12.872485337391467"><ele>950.5</ele><time>2026-04-04T09:39:06Z</time></trkpt><trkpt lat="42.981423746005724" lon="12.872333475957475"><ele>950.0</ele><time>2026-04-04T09:39:07Z</time></trkpt><trkpt lat="42.98137245516664" lon="12.872188294972657"><ele>949.5</ele><time>2026-04-04T09:39:08Z</time></trkpt><trkpt lat="42.98130497865613" lon="12.872044106501702"><ele>949.0</ele><time>2026-04-04T09:39:09Z</time></trkpt><trkpt lat="42.98125278385266" lon="12.871911313417133"><ele>949.0</ele><time>2026-04-04T09:39:10Z</time></trkpt><trkpt lat="42.981197809645614" lon="12.871774901351579"><ele>949.0000000000001</ele><time>2026-04-04T09:39:11Z</time></trkpt><trkpt lat="42.981129191755414" lon="12.87164737049793"><ele>949.0000000000001</ele><time>2026-04-04T09:39:12Z</time></trkpt><trkpt lat="42.981072672320686" lon="12.871512111855045"><ele>949.0</ele><time>2026-04-04T09:39:13Z</time></trkpt><trkpt lat="42.981023248644675" lon="12.871388641699426"><ele>949.0</ele><time>2026-04-04T09:39:14Z</time></trkpt><trkpt lat="42.98098578947303" lon="12.871245701354326"><ele>950.5</ele><time>2026-04-04T09:39:15Z</time></trkpt><trkpt lat="42.98093243965839" lon="12.871083082609474"><ele>952.0</ele><time>2026-04-04T09:39:16Z</time></trkpt><trkpt lat="42.98085599003133" lon="12.87094615870299"><ele>953.5</ele><time>2026-04-04T09:39:17Z</time></trkpt><trkpt lat="42.98079354922571" lon="12.870807062020965"><ele>955.0</ele><time>2026-04-04T09:39:18Z</time></trkpt><trkpt lat="42.98074761891885" lon="12.870674980087824"><ele>951.4</ele><time>2026-04-04T09:39:19Z</time></trkpt><trkpt lat="42.98070064179102" lon="12.870551230602153"><ele>947.8</ele><time>2026-04-04T09:39:20Z</time></trkpt><trkpt lat="42.98065155419636" lon="12.870435604484394"><ele>944.2</ele><time>2026-04-04T09:39:21Z</time></trkpt><trkpt lat="42.980599493454136" lon="12.870288353585755"><ele>940.6</ele><time>2026-04-04T09:39:22Z</time></trkpt><trkpt lat="42.98053975892506" lon="12.870136709601626"><ele>937.0</ele><time>2026-04-04T09:39:23Z</time></trkpt><trkpt lat="42.980473835612955" lon="12.86999330958209"><ele>937.0</ele><time>2026-04-04T09:39:24Z</time></trkpt><trkpt lat="42.98041295409503" lon="12.869840597202533"><ele>937.0</ele><time>2026-04-04T09:39:25Z</time></trkpt><trkpt lat="42.98034671017957" lon="12.869703510401468"><ele>937.0</ele><time>2026-04-04T09:39:26Z</time></trkpt><trkpt lat="42.98028358201725" lon="12.869562526025895"><ele>937.0</ele><time>2026-04-04T09:39:27Z</time></trkpt><trkpt lat="42.98021052687948" lon="12.869418798379064"><ele>936.9999999999999</ele><time>2026-04-04T09:39:28Z</time></trkpt><trkpt lat="42.98015733278204" lon="12.869295135263792"><ele>937.0</ele><time>2026-04-04T09:39:29Z</time></trkpt><trkpt lat="42.98011723244127" lon="12.869194517783297"><ele>937.0</ele><time>2026-04-04T09:39:30Z</time></trkpt><trkpt lat="42.9800818451647" lon="12.86909793228994"><ele>937.0</ele><time>2026-04-04T09:39:31Z</time></trkpt><trkpt lat="42.9800468616226" lon="12.869023184208162"><ele>936.9999999999999</ele><time>2026-04-04T09:39:32Z</time></trkpt><trkpt lat="42.980017058249885" lon="12.868912830461538"><ele>937.0</ele><time>2026-04-04T09:39:33Z</time></trkpt><trkpt lat="42.97999010222056" lon="12.86879696241011"><ele>936.7142857142857</ele><time>2026-04-04T09:39:34Z</time></trkpt><trkpt lat="42.97997534057599" lon="12.868680283331315"><ele>936.4285714285716</ele><time>2026-04-04T09:39:35Z</time></trkpt><trkpt lat="42.9799912319532" lon="12.868584116998319"><ele>936.1428571428572</ele><time>2026-04-04T09:39:36Z</time></trkpt><trkpt lat="42.98001564067386" lon="12.868490220673984"><ele>935.8571428571429</ele><time>2026-04-04T09:39:37Z</time></trkpt><trkpt lat="42.9800588962936" lon="12.868402421850574"><ele>935.5714285714287</ele><time>2026-04-04T09:39:38Z</time></trkpt><trkpt lat="42.98009898296307" lon="12.868322938914384"><ele>935.2857142857144</ele><time>2026-04-04T09:39:39Z</time></trkpt><trkpt lat="42.98014307943258" lon="12.868251525710624"><ele>935.0000000000001</ele><time>2026-04-04T09:39:40Z</time></trkpt><trkpt lat="42.98019812791024" lon="12.868148452518623"><ele>935.0</ele><time>2026-04-04T09:39:41Z</time></trkpt><trkpt lat="42.98028425778061" lon="12.86803815398719"><ele>935.0</ele><time>2026-04-04T09:39:42Z</time></trkpt><trkpt lat="42.980368049718884" lon="12.86793784357996"><ele>935.0</ele><time>2026-04-04T09:39:43Z</time></trkpt><trkpt lat="42.98045659742516" lon="12.867845184482864"><ele>935.0</ele><time>2026-04-04T09:39:44Z</time></trkpt><trkpt lat="42.98052761463654" lon="12.867790612008745"><ele>935.0</ele><time>2026-04-04T09:39:45Z</time></trkpt><trkpt lat="42.98056520646874" lon="12.867704659860733"><ele>931.4</ele><time>2026-04-04T09:39:46Z</time></trkpt><trkpt lat="42.98059570178625" lon="12.867574214630078"><ele>927.8</ele><time>2026-04-04T09:39:47Z</time></trkpt><trkpt lat="42.98064147531616" lon="12.867429327390335"><ele>924.2</ele><time>2026-04-04T09:39:48Z</time></trkpt><trkpt lat="42.98067809901016" lon="12.867296836238232"><ele>920.6</ele><time>2026-04-04T09:39:49Z</time></trkpt><trkpt lat="42.980690930543055" lon="12.86717904602364"><ele>917.0</ele><time>2026-04-04T09:39:50Z</time></trkpt><trkpt lat="42.98067849612619" lon="12.86698778295123"><ele>917.0000000000001</ele><time>2026-04-04T09:39:52Z</time></trkpt><trkpt lat="42.98069228152266" lon="12.866870542958862"><ele>917.0</ele><time>2026-04-04T09:39:52.999Z</time></trkpt><trkpt lat="42.980690046471345" lon="12.866745408566715"><ele>917.0</ele><time>2026-04-04T09:39:53.999Z</time></trkpt><trkpt lat="42.980675656995025" lon="12.866640555023983"><ele>917.0</ele><time>2026-04-04T09:39:54.999Z</time></trkpt><trkpt lat="42.98065314417397" lon="12.86655992162207"><ele>917.0000000000001</ele><time>2026-04-04T09:39:55.999Z</time></trkpt><trkpt lat="42.98062664723871" lon="12.86643807490865"><ele>917.0</ele><time>2026-04-04T09:39:57.999Z</time></trkpt><trkpt lat="42.98058196193103" lon="12.866372962839314"><ele>913.2</ele><time>2026-04-04T09:40:02.999Z</time></trkpt><trkpt lat="42.98051481327651" lon="12.866262093785128"><ele>909.4000000000001</ele><time>2026-04-04T09:40:11.999Z</time></trkpt><trkpt lat="42.980460241499685" lon="12.866127658491946"><ele>905.5999999999999</ele><time>2026-04-04T09:40:13.999Z</time></trkpt><trkpt lat="42.980406483640415" lon="12.866037181888418"><ele>901.8</ele><time>2026-04-04T09:40:14.999Z</time></trkpt><trkpt lat="42.98035254977297" lon="12.86590025286226"><ele>898.0</ele><time>2026-04-04T09:40:15.999Z</time></trkpt><trkpt lat="42.98028910311268" lon="12.865826904630428"><ele>895.8333333333333</ele><time>2026-04-04T09:40:16.999Z</time></trkpt><trkpt lat="42.98022368809686" lon="12.865755878536133"><ele>893.6666666666666</ele><time>2026-04-04T09:40:17.999Z</time></trkpt><trkpt lat="42.9801640142675" lon="12.86569400436771"><ele>891.5</ele><time>2026-04-04T09:40:18.999Z</time></trkpt><trkpt lat="42.98009133004038" lon="12.865600387171279"><ele>889.3333333333333</ele><time>2026-04-04T09:40:19.999Z</time></trkpt><trkpt lat="42.98004743774369" lon="12.865506851442433"><ele>887.1666666666666</ele><time>2026-04-04T09:40:20.999Z</time></trkpt><trkpt lat="42.98002534232236" lon="12.865415829171729"><ele>885.0</ele><time>2026-04-04T09:40:21.999Z</time></trkpt><trkpt lat="42.98000999760074" lon="12.865302019144417"><ele>880.2</ele><time>2026-04-04T09:40:22.999Z</time></trkpt><trkpt lat="42.97998583187943" lon="12.865168806608185"><ele>875.4</ele><time>2026-04-04T09:40:23.999Z</time></trkpt><trkpt lat="42.97996511938425" lon="12.86502873856145"><ele>870.5999999999999</ele><time>2026-04-04T09:40:24.999Z</time></trkpt><trkpt lat="42.979939826575034" lon="12.864880420028248"><ele>865.8</ele><time>2026-04-04T09:40:25.999Z</time></trkpt><trkpt lat="42.97991301344422" lon="12.86473311663019"><ele>861.0</ele><time>2026-04-04T09:40:26.999Z</time></trkpt><trkpt lat="42.97989714071219" lon="12.86461886102034"><ele>860.5999999999999</ele><time>2026-04-04T09:40:27.999Z</time></trkpt><trkpt lat="42.979927485946206" lon="12.864462501596773"><ele>860.1999999999999</ele><time>2026-04-04T09:40:29.999Z</time></trkpt><trkpt lat="42.97989993695931" lon="12.864314824690043"><ele>859.8000000000001</ele><time>2026-04-04T09:40:31.999Z</time></trkpt><trkpt lat="42.97995401424566" lon="12.864242512607351"><ele>859.4000000000001</ele><time>2026-04-04T09:43:02Z</time></trkpt><trkpt lat="42.97999192342296" lon="12.864108700382339"><ele>859.0</ele><time>2026-04-04T09:43:05Z</time></trkpt><trkpt lat="42.98003916982244" lon="12.86402119586618"><ele>858.9999999999999</ele><time>2026-04-04T09:43:06Z</time></trkpt><trkpt lat="42.98008987584667" lon="12.86394720416482"><ele>859.0</ele><time>2026-04-04T09:43:07Z</time></trkpt><trkpt lat="42.980149582375056" lon="12.863892621065562"><ele>859.0</ele><time>2026-04-04T09:43:08Z</time></trkpt><trkpt lat="42.98020976675298" lon="12.86383029429286"><ele>859.0</ele><time>2026-04-04T09:43:09Z</time></trkpt><trkpt lat="42.98026952748583" lon="12.863765409526167"><ele>858.9999999999999</ele><time>2026-04-04T09:43:10Z</time></trkpt><trkpt lat="42.98033632994618" lon="12.86370078518747"><ele>859.0</ele><time>2026-04-04T09:43:11Z</time></trkpt><trkpt lat="42.98041052788626" lon="12.863629695016208"><ele>859.0</ele><time>2026-04-04T09:43:12Z</time></trkpt><trkpt lat="42.98049253185477" lon="12.86355103047055"><ele>859.0000000000001</ele><time>2026-04-04T09:43:13Z</time></trkpt><trkpt lat="42.980571510740994" lon="12.863473709045339"><ele>859.0000000000001</ele><time>2026-04-04T09:43:14Z</time></trkpt><trkpt lat="42.98064733606823" lon="12.863397851578846"><ele>859.0</ele><time>2026-04-04T09:43:15Z</time></trkpt><trkpt lat="42.980731274897074" lon="12.863318762899166"><ele>859.0</ele><time>2026-04-04T09:43:16Z</time></trkpt><trkpt lat="42.98081824184324" lon="12.863231513347298"><ele>859.5</ele><time>2026-04-04T09:43:17Z</time></trkpt><trkpt lat="42.98091406199205" lon="12.863140273683353"><ele>860.0</ele><time>2026-04-04T09:43:18Z</time></trkpt><trkpt lat="42.981013758577674" lon="12.863046555062738"><ele>860.5</ele><time>2026-04-04T09:43:19Z</time></trkpt><trkpt lat="42.98111101833894" lon="12.862958155588473"><ele>861.0</ele><time>2026-04-04T09:43:20Z</time></trkpt><trkpt lat="42.98120276809223" lon="12.862874935202425"><ele>861.0</ele><time>2026-04-04T09:43:21Z</time></trkpt><trkpt lat="42.98129684784105" lon="12.862796320840596"><ele>861.0</ele><time>2026-04-04T09:43:22Z</time></trkpt><trkpt lat="42.98139524376047" lon="12.862691448531972"><ele>861.0</ele><time>2026-04-04T09:43:23Z</time></trkpt><trkpt lat="42.981483731185165" lon="12.862602142505708"><ele>861.0</ele><time>2026-04-04T09:43:24Z</time></trkpt><trkpt lat="42.98156585567255" lon="12.862491917601368"><ele>862.25</ele><time>2026-04-04T09:43:25Z</time></trkpt><trkpt lat="42.98164548397121" lon="12.862372104385118"><ele>863.5</ele><time>2026-04-04T09:43:26Z</time></trkpt><trkpt lat="42.981723877486225" lon="12.86223408413006"><ele>864.75</ele><time>2026-04-04T09:43:27Z</time></trkpt><trkpt lat="42.9817726473244" lon="12.862062481015444"><ele>866.0</ele><time>2026-04-04T09:43:28Z</time></trkpt><trkpt lat="42.98182106839095" lon="12.86188770232377"><ele>863.0</ele><time>2026-04-04T09:43:29Z</time></trkpt><trkpt lat="42.98187324136858" lon="12.861701567836551"><ele>860.0</ele><time>2026-04-04T09:43:30Z</time></trkpt><trkpt lat="42.9819269674998" lon="12.861514786634084"><ele>857.0</ele><time>2026-04-04T09:43:31Z</time></trkpt><trkpt lat="42.98198454148972" lon="12.861325190698203"><ele>854.0</ele><time>2026-04-04T09:43:32Z</time></trkpt><trkpt lat="42.98203802600519" lon="12.861156680781601"><ele>854.0</ele><time>2026-04-04T09:43:33Z</time></trkpt><trkpt lat="42.98209091306926" lon="12.860986683728449"><ele>854.0</ele><time>2026-04-04T09:43:34Z</time></trkpt><trkpt lat="42.982141115303314" lon="12.86083718698897"><ele>854.0</ele><time>2026-04-04T09:43:35Z</time></trkpt><trkpt lat="42.98218557344988" lon="12.860703483991129"><ele>854.0</ele><time>2026-04-04T09:43:36Z</time></trkpt><trkpt lat="42.98222330015923" lon="12.860580587179351"><ele>852.1666666666667</ele><time>2026-04-04T09:43:37Z</time></trkpt><trkpt lat="42.98225221068434" lon="12.860474318077827"><ele>850.3333333333334</ele><time>2026-04-04T09:43:38Z</time></trkpt><trkpt lat="42.98227374360022" lon="12.86039115738459"><ele>848.5</ele><time>2026-04-04T09:43:39Z</time></trkpt><trkpt lat="42.98230566365828" lon="12.860270085607688"><ele>846.6666666666667</ele><time>2026-04-04T09:43:41Z</time></trkpt><trkpt lat="42.982318098838924" lon="12.860180890197555"><ele>844.8333333333334</ele><time>2026-04-04T09:43:45Z</time></trkpt><trkpt lat="42.982246088991445" lon="12.860150430688954"><ele>843.0</ele><time>2026-04-04T09:44:27.999Z</time></trkpt><trkpt lat="42.982196431302974" lon="12.860242006750225"><ele>843.0</ele><time>2026-04-04T09:44:29.999Z</time></trkpt><trkpt lat="42.98211145779291" lon="12.860353999622044"><ele>843.0</ele><time>2026-04-04T09:44:31.999Z</time></trkpt><trkpt lat="42.982063290004795" lon="12.860420322286114"><ele>843.0</ele><time>2026-04-04T09:44:32.999Z</time></trkpt><trkpt lat="42.982020137780005" lon="12.860503542107324"><ele>843.0</ele><time>2026-04-04T09:44:33.999Z</time></trkpt><trkpt lat="42.98199489885242" lon="12.86059929650927"><ele>843.0</ele><time>2026-04-04T09:44:34.999Z</time></trkpt><trkpt lat="42.981980315767736" lon="12.860696927348798"><ele>843.0</ele><time>2026-04-04T09:44:35.999Z</time></trkpt><trkpt lat="42.98195835888041" lon="12.860784396578254"><ele>843.0</ele><time>2026-04-04T09:44:36.999Z</time></trkpt><trkpt lat="42.9818973391426" lon="12.860879986172034"><ele>843.0</ele><time>2026-04-04T09:44:37.999Z</time></trkpt><trkpt lat="42.981828911786614" lon="12.860951559489573"><ele>843.0</ele><time>2026-04-04T09:44:38.999Z</time></trkpt><trkpt lat="42.98177535451897" lon="12.861019705974105"><ele>843.0</ele><time>2026-04-04T09:44:39.999Z</time></trkpt><trkpt lat="42.981723627759145" lon="12.861096845266584"><ele>843.0</ele><time>2026-04-04T09:44:40.999Z</time></trkpt><trkpt lat="42.981674636849995" lon="12.861165175670402"><ele>843.0</ele><time>2026-04-04T09:44:41.999Z</time></trkpt><trkpt lat="42.98156690142507" lon="12.861209896729672"><ele>842.3333333333334</ele><time>2026-04-04T09:44:43.999Z</time></trkpt><trkpt lat="42.98149543427584" lon="12.861233651566051"><ele>841.6666666666667</ele><time>2026-04-04T09:44:45.999Z</time></trkpt><trkpt lat="42.9814205337672" lon="12.861226918815325"><ele>841.0</ele><time>2026-04-04T09:44:48.999Z</time></trkpt><trkpt lat="42.98140185080417" lon="12.86112570724858"><ele>840.3333333333334</ele><time>2026-04-04T09:44:49.999Z</time></trkpt><trkpt lat="42.9813359680849" lon="12.861065656925705"><ele>839.6666666666667</ele><time>2026-04-04T09:44:50.999Z</time></trkpt><trkpt lat="42.98129718180484" lon="12.860962071824552"><ele>839.0</ele><time>2026-04-04T09:44:51.999Z</time></trkpt><trkpt lat="42.981239334932205" lon="12.86086713752433"><ele>837.3333333333334</ele><time>2026-04-04T09:44:52.999Z</time></trkpt><trkpt lat="42.9811724237414" lon="12.860783494676758"><ele>835.6666666666667</ele><time>2026-04-04T09:44:53.999Z</time></trkpt><trkpt lat="42.98110328770512" lon="12.860727479641337"><ele>834.0</ele><time>2026-04-04T09:44:55Z</time></trkpt><trkpt lat="42.98104272089415" lon="12.860658117104016"><ele>832.3333333333333</ele><time>2026-04-04T09:44:56Z</time></trkpt><trkpt lat="42.980983563661624" lon="12.860590368857293"><ele>830.6666666666666</ele><time>2026-04-04T09:44:57Z</time></trkpt><trkpt lat="42.9808954567127" lon="12.860489466620578"><ele>829.0</ele><time>2026-04-04T09:44:59Z</time></trkpt><trkpt lat="42.98081355681111" lon="12.8603956728541"><ele>827.1666666666666</ele><time>2026-04-04T09:45:01Z</time></trkpt><trkpt lat="42.98074101871268" lon="12.860388264018923"><ele>825.3333333333333</ele><time>2026-04-04T09:45:02Z</time></trkpt><trkpt lat="42.980704534056144" lon="12.86029865164661"><ele>823.5</ele><time>2026-04-04T09:45:03Z</time></trkpt><trkpt lat="42.98066012613011" lon="12.860203828361144"><ele>821.6666666666667</ele><time>2026-04-04T09:45:04Z</time></trkpt><trkpt lat="42.98062002729848" lon="12.860112493364902"><ele>819.8333333333334</ele><time>2026-04-04T09:45:05Z</time></trkpt><trkpt lat="42.980591897210346" lon="12.860018773987479"><ele>818.0</ele><time>2026-04-04T09:45:06Z</time></trkpt><trkpt lat="42.98058000934282" lon="12.859924486369602"><ele>816.5000000000001</ele><time>2026-04-04T09:45:07Z</time></trkpt><trkpt lat="42.98056457714327" lon="12.859836259365812"><ele>815.0</ele><time>2026-04-04T09:45:08Z</time></trkpt><trkpt lat="42.98053281943457" lon="12.859730648227508"><ele>813.5</ele><time>2026-04-04T09:45:09Z</time></trkpt><trkpt lat="42.980486121136686" lon="12.859664436988567"><ele>812.0</ele><time>2026-04-04T09:45:10Z</time></trkpt><trkpt lat="42.98043512537249" lon="12.859599402040287"><ele>810.5000000000001</ele><time>2026-04-04T09:45:11Z</time></trkpt><trkpt lat="42.98035556779937" lon="12.85943522800499"><ele>809.0</ele><time>2026-04-04T09:45:13Z</time></trkpt><trkpt lat="42.980311854233214" lon="12.859314286456641"><ele>808.0000000000001</ele><time>2026-04-04T09:45:14Z</time></trkpt><trkpt lat="42.98026137544111" lon="12.859213045672938"><ele>807.0</ele><time>2026-04-04T09:45:15Z</time></trkpt><trkpt lat="42.98021645540248" lon="12.85910276025743"><ele>806.0</ele><time>2026-04-04T09:45:16Z</time></trkpt><trkpt lat="42.98017140927704" lon="12.859000959735644"><ele>805.0</ele><time>2026-04-04T09:45:17Z</time></trkpt><trkpt lat="42.98012556374225" lon="12.858918477431672"><ele>804.0000000000001</ele><time>2026-04-04T09:45:18Z</time></trkpt><trkpt lat="42.98007481426177" lon="12.85884003685801"><ele>803.0</ele><time>2026-04-04T09:45:19Z</time></trkpt><trkpt lat="42.980026370038296" lon="12.858770282721768"><ele>801.1666666666667</ele><time>2026-04-04T09:45:20Z</time></trkpt><trkpt lat="42.9799737890939" lon="12.858694105691207"><ele>799.3333333333334</ele><time>2026-04-04T09:45:21Z</time></trkpt><trkpt lat="42.979921282463934" lon="12.858636394185016"><ele>797.5</ele><time>2026-04-04T09:45:22Z</time></trkpt><trkpt lat="42.97986116407009" lon="12.858606458790396"><ele>795.6666666666667</ele><time>2026-04-04T09:45:23Z</time></trkpt><trkpt lat="42.97979695898785" lon="12.858574771173902"><ele>793.8333333333334</ele><time>2026-04-04T09:45:24Z</time></trkpt><trkpt lat="42.97971626273174" lon="12.85853202917148"><ele>792.0</ele><time>2026-04-04T09:45:26Z</time></trkpt><trkpt lat="42.97960093221894" lon="12.858616504015831"><ele>792.0</ele><time>2026-04-04T09:45:28Z</time></trkpt><trkpt lat="42.97952574432009" lon="12.858685789300827"><ele>792.0</ele><time>2026-04-04T09:45:29Z</time></trkpt><trkpt lat="42.97945393059684" lon="12.858736588016392"><ele>792.0</ele><time>2026-04-04T09:45:30Z</time></trkpt><trkpt lat="42.97934979861817" lon="12.858739932140463"><ele>792.0</ele><time>2026-04-04T09:45:32Z</time></trkpt><trkpt lat="42.97929192257965" lon="12.85865157588295"><ele>792.0</ele><time>2026-04-04T09:45:34Z</time></trkpt><trkpt lat="42.9792800196949" lon="12.858562029759806"><ele>792.0</ele><time>2026-04-04T09:45:35Z</time></trkpt><trkpt lat="42.979240808089145" lon="12.85846195524114"><ele>787.25</ele><time>2026-04-04T09:45:36Z</time></trkpt><trkpt lat="42.97916449280746" lon="12.85832347471473"><ele>782.5</ele><time>2026-04-04T09:45:37Z</time></trkpt><trkpt lat="42.97908851130111" lon="12.85819268959802"><ele>777.75</ele><time>2026-04-04T09:45:38Z</time></trkpt><trkpt lat="42.97900752166934" lon="12.858074925906612"><ele>773.0</ele><time>2026-04-04T09:45:39Z</time></trkpt><trkpt lat="42.97891033150707" lon="12.857968901965195"><ele>773.0</ele><time>2026-04-04T09:45:40Z</time></trkpt><trkpt lat="42.978810471058495" lon="12.857855643562"><ele>773.0</ele><time>2026-04-04T09:45:41Z</time></trkpt><trkpt lat="42.97871378924956" lon="12.857743957296544"><ele>773.0</ele><time>2026-04-04T09:45:42Z</time></trkpt><trkpt lat="42.97863858595547" lon="12.85763499994053"><ele>773.0</ele><time>2026-04-04T09:45:43Z</time></trkpt><trkpt lat="42.97856641675041" lon="12.85752464909565"><ele>771.5999999999999</ele><time>2026-04-04T09:45:44Z</time></trkpt><trkpt lat="42.978502759199245" lon="12.85741118939033"><ele>770.1999999999999</ele><time>2026-04-04T09:45:45Z</time></trkpt><trkpt lat="42.97847009121197" lon="12.857296207906279"><ele>768.8</ele><time>2026-04-04T09:45:46Z</time></trkpt><trkpt lat="42.97843563900078" lon="12.857177835925501"><ele>767.4</ele><time>2026-04-04T09:45:47Z</time></trkpt><trkpt lat="42.9784065879762" lon="12.857074920226546"><ele>766.0</ele><time>2026-04-04T09:45:48Z</time></trkpt><trkpt lat="42.97839020518367" lon="12.85695065597977"><ele>766.0</ele><time>2026-04-04T09:45:49Z</time></trkpt><trkpt lat="42.97837995400016" lon="12.856843276046384"><ele>766.0</ele><time>2026-04-04T09:45:50Z</time></trkpt><trkpt lat="42.97838379722893" lon="12.856748749196951"><ele>766.0</ele><time>2026-04-04T09:45:51Z</time></trkpt><trkpt lat="42.97838072825039" lon="12.856646724506653"><ele>766.0</ele><time>2026-04-04T09:45:52Z</time></trkpt><trkpt lat="42.97837024071834" lon="12.856535458477648"><ele>766.0</ele><time>2026-04-04T09:45:53Z</time></trkpt><trkpt lat="42.97832604804986" lon="12.856414227575392"><ele>766.0</ele><time>2026-04-04T09:45:54Z</time></trkpt><trkpt lat="42.97827858501424" lon="12.856296530052242"><ele>764.5999999999999</ele><time>2026-04-04T09:45:55Z</time></trkpt><trkpt lat="42.97822549228039" lon="12.856192454838913"><ele>763.2</ele><time>2026-04-04T09:45:56Z</time></trkpt><trkpt lat="42.97817072151077" lon="12.856107887320238"><ele>761.8</ele><time>2026-04-04T09:45:57Z</time></trkpt><trkpt lat="42.978094312018385" lon="12.856013037896503"><ele>760.4000000000001</ele><time>2026-04-04T09:45:58Z</time></trkpt><trkpt lat="42.978003937419494" lon="12.855928944116776"><ele>759.0</ele><time>2026-04-04T09:45:59Z</time></trkpt><trkpt lat="42.977916993027215" lon="12.855862645534646"><ele>760.6</ele><time>2026-04-04T09:46:00Z</time></trkpt><trkpt lat="42.97782613155878" lon="12.855822772580638"><ele>762.2</ele><time>2026-04-04T09:46:01Z</time></trkpt><trkpt lat="42.97772465651747" lon="12.855774284951233"><ele>763.8000000000001</ele><time>2026-04-04T09:46:02Z</time></trkpt><trkpt lat="42.97761430749668" lon="12.855720732021245"><ele>765.4000000000001</ele><time>2026-04-04T09:46:03Z</time></trkpt><trkpt lat="42.97749515051541" lon="12.855672658557086"><ele>767.0</ele><time>2026-04-04T09:46:04Z</time></trkpt><trkpt lat="42.97738687803601" lon="12.85561253819952"><ele>767.0</ele><time>2026-04-04T09:46:05Z</time></trkpt><trkpt lat="42.97730693166619" lon="12.855559907963714"><ele>767.0</ele><time>2026-04-04T09:46:06Z</time></trkpt><trkpt lat="42.97723814292121" lon="12.855492265953771"><ele>767.0</ele><time>2026-04-04T09:46:07Z</time></trkpt><trkpt lat="42.977178223741404" lon="12.855376880892441"><ele>767.0</ele><time>2026-04-04T09:46:08Z</time></trkpt><trkpt lat="42.97713451484565" lon="12.855263829285361"><ele>767.0</ele><time>2026-04-04T09:46:09Z</time></trkpt><trkpt lat="42.9771211379745" lon="12.855125583000534"><ele>769.8333333333333</ele><time>2026-04-04T09:46:10Z</time></trkpt><trkpt lat="42.97711146187101" lon="12.854992524568036"><ele>772.6666666666666</ele><time>2026-04-04T09:46:11Z</time></trkpt><trkpt lat="42.977097214736546" lon="12.854888350441351"><ele>775.5</ele><time>2026-04-04T09:46:12Z</time></trkpt><trkpt lat="42.97709918940209" lon="12.854742307893881"><ele>778.3333333333333</ele><time>2026-04-04T09:46:14Z</time></trkpt><trkpt lat="42.97709490533905" lon="12.854617791784413"><ele>781.1666666666666</ele><time>2026-04-04T09:46:16Z</time></trkpt><trkpt lat="42.97710024967226" lon="12.854519540685528"><ele>784.0</ele><time>2026-04-04T09:46:18Z</time></trkpt><trkpt lat="42.977127311875925" lon="12.854397866962328"><ele>784.0</ele><time>2026-04-04T09:46:30.999Z</time></trkpt><trkpt lat="42.97715612547897" lon="12.85430900006783"><ele>784.0</ele><time>2026-04-04T09:46:32.999Z</time></trkpt><trkpt lat="42.97720085568012" lon="12.854166295670522"><ele>784.0</ele><time>2026-04-04T09:46:34.999Z</time></trkpt><trkpt lat="42.97721219166071" lon="12.854078336532371"><ele>784.0</ele><time>2026-04-04T09:46:35.999Z</time></trkpt><trkpt lat="42.97723934932089" lon="12.85392181019754"><ele>784.0</ele><time>2026-04-04T09:46:37.999Z</time></trkpt><trkpt lat="42.97724301377378" lon="12.853751058773375"><ele>783.8333333333333</ele><time>2026-04-04T09:46:39.999Z</time></trkpt><trkpt lat="42.97725436605951" lon="12.853659013601487"><ele>783.6666666666666</ele><time>2026-04-04T09:46:40.999Z</time></trkpt><trkpt lat="42.97726713683581" lon="12.853563790623742"><ele>783.5</ele><time>2026-04-04T09:46:41.999Z</time></trkpt><trkpt lat="42.97727076074082" lon="12.853458887361922"><ele>783.3333333333333</ele><time>2026-04-04T09:46:42.999Z</time></trkpt><trkpt lat="42.97727838587884" lon="12.853354908244004"><ele>783.1666666666666</ele><time>2026-04-04T09:46:43.999Z</time></trkpt><trkpt lat="42.977260194745234" lon="12.853209921287776"><ele>783.0</ele><time>2026-04-04T09:46:45.999Z</time></trkpt><trkpt lat="42.977261041464516" lon="12.853115924136027"><ele>781.3333333333334</ele><time>2026-04-04T09:46:46.999Z</time></trkpt><trkpt lat="42.97726418271276" lon="12.853019360565018"><ele>779.6666666666667</ele><time>2026-04-04T09:46:47.999Z</time></trkpt><trkpt lat="42.97727089361027" lon="12.852902898060082"><ele>778.0</ele><time>2026-04-04T09:46:48.999Z</time></trkpt><trkpt lat="42.97726270288918" lon="12.852793708354206"><ele>776.3333333333334</ele><time>2026-04-04T09:46:49.999Z</time></trkpt><trkpt lat="42.977234448969796" lon="12.852687165906563"><ele>774.6666666666667</ele><time>2026-04-04T09:46:51.999Z</time></trkpt><trkpt lat="42.977193032309316" lon="12.852610782332798"><ele>773.0</ele><time>2026-04-04T09:46:54.999Z</time></trkpt><trkpt lat="42.97714989448189" lon="12.852542895795844"><ele>771.0000000000001</ele><time>2026-04-04T09:46:56.999Z</time></trkpt><trkpt lat="42.9771438779923" lon="12.852444696772919"><ele>769.0</ele><time>2026-04-04T09:47:01Z</time></trkpt><trkpt lat="42.97708367683706" lon="12.852375673173777"><ele>767.0</ele><time>2026-04-04T09:47:06Z</time></trkpt><trkpt lat="42.977047896931076" lon="12.852303454571185"><ele>765.0</ele><time>2026-04-04T09:47:08.001Z</time></trkpt><trkpt lat="42.97700745211195" lon="12.852210658562685"><ele>763.0</ele><time>2026-04-04T09:47:11Z</time></trkpt><trkpt lat="42.97695124956286" lon="12.852103170027544"><ele>761.0</ele><time>2026-04-04T09:47:14Z</time></trkpt><trkpt lat="42.97688266788733" lon="12.852017127595113"><ele>761.0</ele><time>2026-04-04T09:47:18Z</time></trkpt><trkpt lat="42.976819062677066" lon="12.851903239263589"><ele>761.0</ele><time>2026-04-04T09:47:20Z</time></trkpt><trkpt lat="42.97678705299329" lon="12.85180214172378"><ele>761.0</ele><time>2026-04-04T09:47:21Z</time></trkpt><trkpt lat="42.97675057196854" lon="12.851706710991131"><ele>761.0</ele><time>2026-04-04T09:47:23Z</time></trkpt><trkpt lat="42.97671908185469" lon="12.851627841598445"><ele>761.0</ele><time>2026-04-04T09:47:25Z</time></trkpt><trkpt lat="42.97669644652604" lon="12.851527951009649"><ele>761.0</ele><time>2026-04-04T09:47:27Z</time></trkpt><trkpt lat="42.97668466993684" lon="12.851408786996611"><ele>757.0</ele><time>2026-04-04T09:47:30Z</time></trkpt><trkpt lat="42.97667077337663" lon="12.851315274323534"><ele>753.0</ele><time>2026-04-04T09:47:32Z</time></trkpt><trkpt lat="42.97665505241778" lon="12.851227650094252"><ele>749.0</ele><time>2026-04-04T09:47:34Z</time></trkpt><trkpt lat="42.97664166819998" lon="12.851139463381106"><ele>745.0</ele><time>2026-04-04T09:47:36Z</time></trkpt><trkpt lat="42.976628185310766" lon="12.85102782883151"><ele>741.0</ele><time>2026-04-04T09:47:39Z</time></trkpt><trkpt lat="42.976589490362755" lon="12.850890958619905"><ele>737.0</ele><time>2026-04-04T09:47:42Z</time></trkpt><trkpt lat="42.976584690831984" lon="12.850789449230636"><ele>733.8</ele><time>2026-04-04T09:47:43Z</time></trkpt><trkpt lat="42.97655142167056" lon="12.850677384123374"><ele>730.6</ele><time>2026-04-04T09:47:44Z</time></trkpt><trkpt lat="42.97652900333461" lon="12.85052740029963"><ele>727.4</ele><time>2026-04-04T09:47:46Z</time></trkpt><trkpt lat="42.97650451135495" lon="12.850382978109131"><ele>724.1999999999999</ele><time>2026-04-04T09:47:48Z</time></trkpt><trkpt lat="42.976479033054794" lon="12.850234590194113"><ele>721.0</ele><time>2026-04-04T09:47:50Z</time></trkpt><trkpt lat="42.97643791878052" lon="12.850100698096764"><ele>718.5</ele><time>2026-04-04T09:47:52Z</time></trkpt><trkpt lat="42.976414002502686" lon="12.849962304547516"><ele>716.0</ele><time>2026-04-04T09:47:54Z</time></trkpt><trkpt lat="42.97639317213924" lon="12.849783022757762"><ele>713.5</ele><time>2026-04-04T09:47:56Z</time></trkpt><trkpt lat="42.976392235908015" lon="12.849681796227864"><ele>711.0</ele><time>2026-04-04T09:47:57Z</time></trkpt><trkpt lat="42.97637707000524" lon="12.849592477839591"><ele>708.5</ele><time>2026-04-04T09:47:58Z</time></trkpt><trkpt lat="42.97634838686439" lon="12.849511330013023"><ele>706.0</ele><time>2026-04-04T09:47:59Z</time></trkpt><trkpt lat="42.9763296911198" lon="12.849407641603094"><ele>706.0</ele><time>2026-04-04T09:48:00Z</time></trkpt><trkpt lat="42.976298871893704" lon="12.849326831750952"><ele>706.0</ele><time>2026-04-04T09:48:01Z</time></trkpt><trkpt lat="42.976266855497826" lon="12.849238315559543"><ele>706.0</ele><time>2026-04-04T09:48:02Z</time></trkpt><trkpt lat="42.9762182607965" lon="12.849095340198005"><ele>706.0</ele><time>2026-04-04T09:48:04Z</time></trkpt><trkpt lat="42.97617449063072" lon="12.848942439778835"><ele>706.0</ele><time>2026-04-04T09:48:06Z</time></trkpt><trkpt lat="42.976153121597896" lon="12.848845021622196"><ele>706.0</ele><time>2026-04-04T09:48:07Z</time></trkpt><trkpt lat="42.97612372556106" lon="12.848768203715416"><ele>703.8333333333334</ele><time>2026-04-04T09:48:08Z</time></trkpt><trkpt lat="42.97609173829436" lon="12.848625114407778"><ele>701.6666666666667</ele><time>2026-04-04T09:48:10Z</time></trkpt><trkpt lat="42.97605707981517" lon="12.848528997660312"><ele>699.5</ele><time>2026-04-04T09:48:12Z</time></trkpt><trkpt lat="42.97606222421843" lon="12.848430710134492"><ele>697.3333333333334</ele><time>2026-04-04T09:48:18Z</time></trkpt><trkpt lat="42.97596568843215" lon="12.848340427949822"><ele>695.1666666666666</ele><time>2026-04-04T09:48:42Z</time></trkpt><trkpt lat="42.97592383497864" lon="12.848262367394707"><ele>693.0</ele><time>2026-04-04T09:48:46Z</time></trkpt><trkpt lat="42.97587849494452" lon="12.84813957420661"><ele>688.2</ele><time>2026-04-04T09:48:48.999Z</time></trkpt><trkpt lat="42.97585384028035" lon="12.848036741703357"><ele>683.4</ele><time>2026-04-04T09:48:50.999Z</time></trkpt><trkpt lat="42.975802855125444" lon="12.847894996215576"><ele>678.6</ele><time>2026-04-04T09:48:52.999Z</time></trkpt><trkpt lat="42.97577488571956" lon="12.847817404214021"><ele>673.8000000000001</ele><time>2026-04-04T09:48:53.999Z</time></trkpt><trkpt lat="42.97579215574433" lon="12.847672248515488"><ele>669.0</ele><time>2026-04-04T09:48:55.999Z</time></trkpt><trkpt lat="42.97581912303762" lon="12.847546404992572"><ele>666.0</ele><time>2026-04-04T09:48:57.999Z</time></trkpt><trkpt lat="42.97579733166442" lon="12.847460710926018"><ele>663.0</ele><time>2026-04-04T09:48:59.999Z</time></trkpt><trkpt lat="42.97572855243029" lon="12.847296272302678"><ele>660.0</ele><time>2026-04-04T09:49:02.999Z</time></trkpt><trkpt lat="42.9756919692551" lon="12.847176458501206"><ele>657.0</ele><time>2026-04-04T09:49:03.999Z</time></trkpt><trkpt lat="42.97564744271528" lon="12.847106713938311"><ele>654.0</ele><time>2026-04-04T09:49:04.999Z</time></trkpt><trkpt lat="42.97555825815199" lon="12.847003071416099"><ele>654.0</ele><time>2026-04-04T09:49:07.001Z</time></trkpt><trkpt lat="42.97550524549991" lon="12.84691709527434"><ele>654.0</ele><time>2026-04-04T09:49:08.001Z</time></trkpt><trkpt lat="42.97544956629498" lon="12.846838753500236"><ele>654.0</ele><time>2026-04-04T09:49:09.001Z</time></trkpt><trkpt lat="42.9753876063858" lon="12.846760994551287"><ele>654.0</ele><time>2026-04-04T09:49:10.001Z</time></trkpt><trkpt lat="42.975297415862585" lon="12.8466398793113"><ele>654.0</ele><time>2026-04-04T09:49:12.001Z</time></trkpt><trkpt lat="42.97521015809422" lon="12.846548422435262"><ele>652.8000000000001</ele><time>2026-04-04T09:49:14.001Z</time></trkpt><trkpt lat="42.97515638073436" lon="12.846470449482908"><ele>651.6</ele><time>2026-04-04T09:49:16.001Z</time></trkpt><trkpt lat="42.975116599154326" lon="12.846382990800295"><ele>650.4</ele><time>2026-04-04T09:49:17.001Z</time></trkpt><trkpt lat="42.97500869249473" lon="12.846229896632648"><ele>649.2</ele><time>2026-04-04T09:49:19.001Z</time></trkpt><trkpt lat="42.974932026064685" lon="12.846113909268714"><ele>648.0</ele><time>2026-04-04T09:49:20.001Z</time></trkpt><trkpt lat="42.97486635430954" lon="12.846011989429249"><ele>642.6666666666666</ele><time>2026-04-04T09:49:21.001Z</time></trkpt><trkpt lat="42.9748161388053" lon="12.845902002013164"><ele>637.3333333333334</ele><time>2026-04-04T09:49:22.001Z</time></trkpt><trkpt lat="42.97476336201673" lon="12.845818779691607"><ele>632.0</ele><time>2026-04-04T09:49:23.001Z</time></trkpt><trkpt lat="42.974723417747924" lon="12.845742095783995"><ele>626.6666666666667</ele><time>2026-04-04T09:49:24.001Z</time></trkpt><trkpt lat="42.974703136891485" lon="12.845639082999782"><ele>621.3333333333334</ele><time>2026-04-04T09:49:25.001Z</time></trkpt><trkpt lat="42.97465850985011" lon="12.845540455009731"><ele>616.0</ele><time>2026-04-04T09:49:26.001Z</time></trkpt><trkpt lat="42.974628141862866" lon="12.845416699942788"><ele>616.0</ele><time>2026-04-04T09:49:27Z</time></trkpt><trkpt lat="42.974590436246366" lon="12.845303498432331"><ele>616.0</ele><time>2026-04-04T09:49:28Z</time></trkpt><trkpt lat="42.97455491913309" lon="12.845218015009308"><ele>616.0</ele><time>2026-04-04T09:49:29Z</time></trkpt><trkpt lat="42.97452204754765" lon="12.845139576388025"><ele>616.0</ele><time>2026-04-04T09:49:30Z</time></trkpt><trkpt lat="42.974451314466144" lon="12.845003641520561"><ele>616.0</ele><time>2026-04-04T09:49:32Z</time></trkpt><trkpt lat="42.97441541691533" lon="12.844916380805461"><ele>616.0</ele><time>2026-04-04T09:49:33.999Z</time></trkpt><trkpt lat="42.97450094720193" lon="12.844925077169297"><ele>616.0</ele><time>2026-04-04T09:49:35.999Z</time></trkpt><trkpt lat="42.97454533770988" lon="12.845001011208028"><ele>616.0</ele><time>2026-04-04T09:49:38.999Z</time></trkpt><trkpt lat="42.97468144191171" lon="12.845161471198807"><ele>616.0</ele><time>2026-04-04T09:49:40.999Z</time></trkpt><trkpt lat="42.974729714726614" lon="12.845240354123538"><ele>616.0</ele><time>2026-04-04T09:49:41.999Z</time></trkpt><trkpt lat="42.974782703990684" lon="12.845315871633067"><ele>616.0</ele><time>2026-04-04T09:49:42.999Z</time></trkpt><trkpt lat="42.97487025242103" lon="12.845389701307068"><ele>616.0</ele><time>2026-04-04T09:49:44.999Z</time></trkpt><trkpt lat="42.974937313884695" lon="12.845455578977198"><ele>616.0</ele><time>2026-04-04T09:49:46.999Z</time></trkpt><trkpt lat="42.97502912579282" lon="12.84548588483677"><ele>616.0</ele><time>2026-04-04T09:49:48.999Z</time></trkpt><trkpt lat="42.97508159460945" lon="12.845425563378438"><ele>616.0</ele><time>2026-04-04T09:49:51.999Z</time></trkpt><trkpt lat="42.97506172978237" lon="12.84531573903047"><ele>616.0</ele><time>2026-04-04T09:49:54.999Z</time></trkpt><trkpt lat="42.97507189421076" lon="12.845216664111655"><ele>616.0</ele><time>2026-04-04T09:49:56.999Z</time></trkpt><trkpt lat="42.97509626273224" lon="12.845002207406763"><ele>608.0</ele><time>2026-04-04T09:49:57.999Z</time></trkpt><trkpt lat="42.975144816474234" lon="12.844888555760186"><ele>600.0</ele><time>2026-04-04T09:49:59.999Z</time></trkpt><trkpt lat="42.975223167139625" lon="12.84479367781211"><ele>592.0</ele><time>2026-04-04T09:50:01.999Z</time></trkpt><trkpt lat="42.97528559345084" lon="12.844693741932302"><ele>584.0</ele><time>2026-04-04T09:50:02.999Z</time></trkpt><trkpt lat="42.975344102171" lon="12.844616723409287"><ele>576.0</ele><time>2026-04-04T09:50:03.999Z</time></trkpt><trkpt lat="42.975340705840665" lon="12.844401302431132"><ele>576.0</ele><time>2026-04-04T09:50:04.999Z</time></trkpt><trkpt lat="42.975428230309475" lon="12.844345869743172"><ele>576.0</ele><time>2026-04-04T09:50:06.999Z</time></trkpt><trkpt lat="42.97549339012321" lon="12.844306390794571"><ele>576.0</ele><time>2026-04-04T09:50:09.999Z</time></trkpt><trkpt lat="42.97559564913111" lon="12.844491721549371"><ele>576.0</ele><time>2026-04-04T09:50:11.999Z</time></trkpt><trkpt lat="42.97568413436079" lon="12.844485523683312"><ele>576.0</ele><time>2026-04-04T09:50:13.999Z</time></trkpt><trkpt lat="42.97578850935918" lon="12.844531737484667"><ele>576.2</ele><time>2026-04-04T09:50:15.999Z</time></trkpt><trkpt lat="42.97587953216377" lon="12.84457912405563"><ele>576.4000000000001</ele><time>2026-04-04T09:50:17.999Z</time></trkpt><trkpt lat="42.97597826060214" lon="12.844629368200682"><ele>576.6</ele><time>2026-04-04T09:50:19.999Z</time></trkpt><trkpt lat="42.97604499871683" lon="12.84467273176078"><ele>576.8000000000001</ele><time>2026-04-04T09:50:20.999Z</time></trkpt><trkpt lat="42.97615605638752" lon="12.84468353392091"><ele>577.0</ele><time>2026-04-04T09:50:22.999Z</time></trkpt><trkpt lat="42.976250191953135" lon="12.84471235387151"><ele>577.0</ele><time>2026-04-04T09:50:24.999Z</time></trkpt><trkpt lat="42.97631837179644" lon="12.844728601084588"><ele>577.0</ele><time>2026-04-04T09:50:27.999Z</time></trkpt><trkpt lat="42.97635383860847" lon="12.844536210676539"><ele>577.0</ele><time>2026-04-04T09:50:28.999Z</time></trkpt><trkpt lat="42.976340203276656" lon="12.844416719226778"><ele>577.0</ele><time>2026-04-04T09:50:30.999Z</time></trkpt><trkpt lat="42.97634273574623" lon="12.84432306351913"><ele>577.0</ele><time>2026-04-04T09:50:32.999Z</time></trkpt><trkpt lat="42.97640687370645" lon="12.844225258768596"><ele>577.8000000000001</ele><time>2026-04-04T09:50:40.999Z</time></trkpt><trkpt lat="42.97652125324497" lon="12.844161916904813"><ele>578.6</ele><time>2026-04-04T09:50:42.999Z</time></trkpt><trkpt lat="42.976606853482025" lon="12.844148448801144"><ele>579.4000000000001</ele><time>2026-04-04T09:50:43.999Z</time></trkpt><trkpt lat="42.976705255576185" lon="12.844127768195676"><ele>580.2</ele><time>2026-04-04T09:50:44.999Z</time></trkpt><trkpt lat="42.97682535228256" lon="12.844157906004009"><ele>581.0</ele><time>2026-04-04T09:50:45.999Z</time></trkpt><trkpt lat="42.97693915481522" lon="12.844165421035443"><ele>583.5</ele><time>2026-04-04T09:50:46.999Z</time></trkpt><trkpt lat="42.97705278793565" lon="12.844171966760227"><ele>586.0</ele><time>2026-04-04T09:50:47.999Z</time></trkpt><trkpt lat="42.97717362410893" lon="12.844187364782325"><ele>588.5</ele><time>2026-04-04T09:50:48.999Z</time></trkpt><trkpt lat="42.977291851665" lon="12.844214542010668"><ele>591.0</ele><time>2026-04-04T09:50:49.999Z</time></trkpt><trkpt lat="42.97739977365483" lon="12.84425551603554"><ele>591.0</ele><time>2026-04-04T09:50:50.999Z</time></trkpt><trkpt lat="42.97750265904867" lon="12.844293769635033"><ele>591.0</ele><time>2026-04-04T09:50:51.998Z</time></trkpt><trkpt lat="42.97760763457892" lon="12.84433157637452"><ele>591.0</ele><time>2026-04-04T09:50:52.998Z</time></trkpt><trkpt lat="42.977694424675235" lon="12.844376115339768"><ele>591.0</ele><time>2026-04-04T09:50:53.998Z</time></trkpt><trkpt lat="42.97778691937442" lon="12.844418626996418"><ele>591.0</ele><time>2026-04-04T09:50:54.998Z</time></trkpt><trkpt lat="42.97789764187946" lon="12.844474525013563"><ele>589.0</ele><time>2026-04-04T09:50:55.998Z</time></trkpt><trkpt lat="42.97800589980584" lon="12.844545534894271"><ele>587.0</ele><time>2026-04-04T09:50:56.998Z</time></trkpt><trkpt lat="42.97811723956906" lon="12.844622606676465"><ele>585.0</ele><time>2026-04-04T09:50:57.998Z</time></trkpt><trkpt lat="42.97822915137379" lon="12.84470162506373"><ele>583.0</ele><time>2026-04-04T09:50:58.998Z</time></trkpt><trkpt lat="42.978336600112684" lon="12.844786001315072"><ele>586.5</ele><time>2026-04-04T09:50:59.998Z</time></trkpt><trkpt lat="42.97844190347436" lon="12.844877448160773"><ele>590.0</ele><time>2026-04-04T09:51:00.998Z</time></trkpt><trkpt lat="42.978540224394095" lon="12.844969429494723"><ele>593.5</ele><time>2026-04-04T09:51:01.998Z</time></trkpt><trkpt lat="42.97862915123536" lon="12.845055493276993"><ele>597.0</ele><time>2026-04-04T09:51:02.998Z</time></trkpt><trkpt lat="42.97872810605702" lon="12.845115713587075"><ele>594.0</ele><time>2026-04-04T09:51:03.998Z</time></trkpt><trkpt lat="42.97882181266763" lon="12.845191852609778"><ele>591.0</ele><time>2026-04-04T09:51:04.998Z</time></trkpt><trkpt lat="42.978920309778154" lon="12.845271884042457"><ele>588.0</ele><time>2026-04-04T09:51:05.998Z</time></trkpt><trkpt lat="42.9790219845194" lon="12.845354510416023"><ele>585.0</ele><time>2026-04-04T09:51:06.998Z</time></trkpt><trkpt lat="42.9791236158806" lon="12.845437099118561"><ele>585.0</ele><time>2026-04-04T09:51:07.998Z</time></trkpt><trkpt lat="42.97916436044522" lon="12.845644106847983"><ele>585.0</ele><time>2026-04-04T09:51:08.998Z</time></trkpt><trkpt lat="42.97920580563766" lon="12.84581359250466"><ele>585.0</ele><time>2026-04-04T09:51:09.998Z</time></trkpt><trkpt lat="42.97923333568643" lon="12.845993055042944"><ele>585.0</ele><time>2026-04-04T09:51:10.998Z</time></trkpt><trkpt lat="42.97925975607302" lon="12.846174258511137"><ele>585.75</ele><time>2026-04-04T09:51:11.998Z</time></trkpt><trkpt lat="42.97930570975578" lon="12.846347436464034"><ele>586.5</ele><time>2026-04-04T09:51:13Z</time></trkpt><trkpt lat="42.979378110517416" lon="12.84649806329436"><ele>587.25</ele><time>2026-04-04T09:51:14Z</time></trkpt><trkpt lat="42.97945298603653" lon="12.846650820309817"><ele>588.0</ele><time>2026-04-04T09:51:15Z</time></trkpt><trkpt lat="42.97953494904408" lon="12.846797783289203"><ele>591.0</ele><time>2026-04-04T09:51:16Z</time></trkpt><trkpt lat="42.979610653832054" lon="12.846924580463318"><ele>594.0</ele><time>2026-04-04T09:51:17Z</time></trkpt><trkpt lat="42.979679637584105" lon="12.847034999052633"><ele>597.0</ele><time>2026-04-04T09:51:18Z</time></trkpt><trkpt lat="42.97974660086929" lon="12.847163177248312"><ele>600.0</ele><time>2026-04-04T09:51:19Z</time></trkpt><trkpt lat="42.97983742027988" lon="12.847275678185927"><ele>600.0</ele><time>2026-04-04T09:51:20Z</time></trkpt><trkpt lat="42.97993045283508" lon="12.84739082382634"><ele>600.0</ele><time>2026-04-04T09:51:21Z</time></trkpt><trkpt lat="42.98002903286724" lon="12.847503447316877"><ele>600.0</ele><time>2026-04-04T09:51:22Z</time></trkpt><trkpt lat="42.98014476415824" lon="12.847610221046196"><ele>600.0</ele><time>2026-04-04T09:51:23Z</time></trkpt><trkpt lat="42.98026656739974" lon="12.847707024198684"><ele>600.6666666666666</ele><time>2026-04-04T09:51:24Z</time></trkpt><trkpt lat="42.980401850335234" lon="12.84779576482452"><ele>601.3333333333333</ele><time>2026-04-04T09:51:25Z</time></trkpt><trkpt lat="42.9805455884098" lon="12.84786528696583"><ele>602.0</ele><time>2026-04-04T09:51:26Z</time></trkpt><trkpt lat="42.98070204419021" lon="12.847914411111688"><ele>599.3333333333333</ele><time>2026-04-04T09:51:27Z</time></trkpt><trkpt lat="42.98086004842757" lon="12.847954625290367"><ele>596.6666666666666</ele><time>2026-04-04T09:51:28Z</time></trkpt><trkpt lat="42.981023152876965" lon="12.84798888969174"><ele>594.0</ele><time>2026-04-04T09:51:29Z</time></trkpt><trkpt lat="42.98118730973784" lon="12.848012399556069"><ele>594.0</ele><time>2026-04-04T09:51:30Z</time></trkpt><trkpt lat="42.98135064303792" lon="12.848026553468486"><ele>594.0</ele><time>2026-04-04T09:51:31Z</time></trkpt><trkpt lat="42.98151495081254" lon="12.848037528502651"><ele>594.0</ele><time>2026-04-04T09:51:32Z</time></trkpt><trkpt lat="42.98167589264382" lon="12.848049180886"><ele>598.6666666666666</ele><time>2026-04-04T09:51:33Z</time></trkpt><trkpt lat="42.98183896467957" lon="12.848072286235947"><ele>603.3333333333333</ele><time>2026-04-04T09:51:34Z</time></trkpt><trkpt lat="42.98199446509948" lon="12.848109442275357"><ele>608.0</ele><time>2026-04-04T09:51:34.999Z</time></trkpt><trkpt lat="42.982143208096545" lon="12.848185990072944"><ele>608.0</ele><time>2026-04-04T09:51:35.999Z</time></trkpt><trkpt lat="42.98227999393452" lon="12.848287730094723"><ele>608.0</ele><time>2026-04-04T09:51:36.999Z</time></trkpt><trkpt lat="42.98240987989979" lon="12.848398642250647"><ele>608.0</ele><time>2026-04-04T09:51:37.999Z</time></trkpt><trkpt lat="42.98253561801681" lon="12.848520608811642"><ele>609.6666666666666</ele><time>2026-04-04T09:51:38.999Z</time></trkpt><trkpt lat="42.982664100813246" lon="12.848637017963119"><ele>611.3333333333334</ele><time>2026-04-04T09:51:39.999Z</time></trkpt><trkpt lat="42.98279801592993" lon="12.848767239870371"><ele>613.0</ele><time>2026-04-04T09:51:40.999Z</time></trkpt><trkpt lat="42.98293226892916" lon="12.848897899721184"><ele>613.0</ele><time>2026-04-04T09:51:41.999Z</time></trkpt><trkpt lat="42.983063454351964" lon="12.849035823409611"><ele>613.0</ele><time>2026-04-04T09:51:42.999Z</time></trkpt><trkpt lat="42.983195434349035" lon="12.849168454155624"><ele>613.0</ele><time>2026-04-04T09:51:43.999Z</time></trkpt><trkpt lat="42.98332962995658" lon="12.849295782357549"><ele>613.3333333333334</ele><time>2026-04-04T09:51:44.999Z</time></trkpt><trkpt lat="42.98345956617523" lon="12.849423587658368"><ele>613.6666666666666</ele><time>2026-04-04T09:51:45.999Z</time></trkpt><trkpt lat="42.983586798187275" lon="12.849553889273116"><ele>614.0</ele><time>2026-04-04T09:51:46.999Z</time></trkpt><trkpt lat="42.98371381998271" lon="12.849682554620541"><ele>614.0</ele><time>2026-04-04T09:51:47.999Z</time></trkpt><trkpt lat="42.98384065777377" lon="12.849808714036234"><ele>614.0</ele><time>2026-04-04T09:51:48.999Z</time></trkpt><trkpt lat="42.983967103216244" lon="12.849934953416632"><ele>614.0</ele><time>2026-04-04T09:51:49.999Z</time></trkpt><trkpt lat="42.98409402023871" lon="12.850062100688378"><ele>613.75</ele><time>2026-04-04T09:51:50.999Z</time></trkpt><trkpt lat="42.9842135827183" lon="12.850179382274902"><ele>613.5</ele><time>2026-04-04T09:51:51.999Z</time></trkpt><trkpt lat="42.98431379921875" lon="12.850279764668137"><ele>613.25</ele><time>2026-04-04T09:51:52.999Z</time></trkpt><trkpt lat="42.9844136958971" lon="12.850376188873808"><ele>613.0</ele><time>2026-04-04T09:51:53.999Z</time></trkpt><trkpt lat="42.984509334733076" lon="12.850448675691771"><ele>613.0</ele><time>2026-04-04T09:51:54.999Z</time></trkpt><trkpt lat="42.98460604996421" lon="12.85047917124579"><ele>613.0</ele><time>2026-04-04T09:51:55.999Z</time></trkpt><trkpt lat="42.984704397716236" lon="12.850430693215003"><ele>613.0</ele><time>2026-04-04T09:51:56.999Z</time></trkpt><trkpt lat="42.98478812281955" lon="12.850339472025345"><ele>613.0</ele><time>2026-04-04T09:51:57.999Z</time></trkpt><trkpt lat="42.98483866444159" lon="12.850199619220398"><ele>613.0</ele><time>2026-04-04T09:51:58.999Z</time></trkpt><trkpt lat="42.984835343173685" lon="12.850039345546246"><ele>615.75</ele><time>2026-04-04T09:51:59.999Z</time></trkpt><trkpt lat="42.98478061853236" lon="12.849890165558051"><ele>618.5</ele><time>2026-04-04T09:52:00.999Z</time></trkpt><trkpt lat="42.9846667355463" lon="12.84978067332875"><ele>621.25</ele><time>2026-04-04T09:52:01.999Z</time></trkpt><trkpt lat="42.984534862089184" lon="12.849707689372554"><ele>624.0</ele><time>2026-04-04T09:52:02.999Z</time></trkpt><trkpt lat="42.98438915602785" lon="12.849651992427622"><ele>624.0</ele><time>2026-04-04T09:52:03.999Z</time></trkpt><trkpt lat="42.984256138756514" lon="12.849539550859532"><ele>624.0</ele><time>2026-04-04T09:52:04.999Z</time></trkpt><trkpt lat="42.98411524102574" lon="12.8494305872152"><ele>624.0</ele><time>2026-04-04T09:52:05.999Z</time></trkpt><trkpt lat="42.98396683404841" lon="12.849307889364187"><ele>628.3333333333334</ele><time>2026-04-04T09:52:06.999Z</time></trkpt><trkpt lat="42.98382058356547" lon="12.84918064656175"><ele>632.6666666666667</ele><time>2026-04-04T09:52:07.999Z</time></trkpt><trkpt lat="42.98368172545432" lon="12.849044920981852"><ele>637.0</ele><time>2026-04-04T09:52:08.999Z</time></trkpt><trkpt lat="42.98355387810444" lon="12.848898341290704"><ele>637.0</ele><time>2026-04-04T09:52:09.999Z</time></trkpt><trkpt lat="42.983429610639845" lon="12.848743011626821"><ele>637.0</ele><time>2026-04-04T09:52:10.999Z</time></trkpt><trkpt lat="42.98330325304403" lon="12.848578543973394"><ele>637.0</ele><time>2026-04-04T09:52:11.999Z</time></trkpt><trkpt lat="42.98317585229696" lon="12.848412718509538"><ele>638.0</ele><time>2026-04-04T09:52:12.999Z</time></trkpt><trkpt lat="42.983046911583294" lon="12.848243368389603"><ele>639.0</ele><time>2026-04-04T09:52:13.999Z</time></trkpt><trkpt lat="42.98292015781673" lon="12.848076794035343"><ele>640.0</ele><time>2026-04-04T09:52:14.999Z</time></trkpt><trkpt lat="42.98278938064419" lon="12.847925101537108"><ele>640.0</ele><time>2026-04-04T09:52:15.999Z</time></trkpt><trkpt lat="42.98266792484692" lon="12.847763936057806"><ele>640.0</ele><time>2026-04-04T09:52:16.999Z</time></trkpt><trkpt lat="42.98254282827513" lon="12.847605411108834"><ele>640.0</ele><time>2026-04-04T09:52:17.999Z</time></trkpt><trkpt lat="42.982420009156655" lon="12.84744537233919"><ele>638.3333333333334</ele><time>2026-04-04T09:52:18.999Z</time></trkpt><trkpt lat="42.982290437358785" lon="12.847281239369021"><ele>636.6666666666666</ele><time>2026-04-04T09:52:19.999Z</time></trkpt><trkpt lat="42.9821628987336" lon="12.847123875832247"><ele>635.0</ele><time>2026-04-04T09:52:20.999Z</time></trkpt><trkpt lat="42.982048582812695" lon="12.846956786795321"><ele>635.0</ele><time>2026-04-04T09:52:21.999Z</time></trkpt><trkpt lat="42.98192948116313" lon="12.846813766738782"><ele>635.0</ele><time>2026-04-04T09:52:22.999Z</time></trkpt><trkpt lat="42.981814197862136" lon="12.846676795365626"><ele>635.0</ele><time>2026-04-04T09:52:23.999Z</time></trkpt><trkpt lat="42.98167751013876" lon="12.846513413911481"><ele>635.6666666666666</ele><time>2026-04-04T09:52:24.999Z</time></trkpt><trkpt lat="42.98153019335783" lon="12.8463350036524"><ele>636.3333333333334</ele><time>2026-04-04T09:52:25.999Z</time></trkpt><trkpt lat="42.981380521908186" lon="12.846150517384709"><ele>637.0</ele><time>2026-04-04T09:52:26.999Z</time></trkpt><trkpt lat="42.98121836083159" lon="12.84594846975695"><ele>653.0</ele><time>2026-04-04T09:52:27.999Z</time></trkpt><trkpt lat="42.981049300088486" lon="12.845735463398865"><ele>669.0</ele><time>2026-04-04T09:52:28.999Z</time></trkpt><trkpt lat="42.980873762926606" lon="12.845512862980256"><ele>669.3333333333334</ele><time>2026-04-04T09:52:29.999Z</time></trkpt><trkpt lat="42.98072176815601" lon="12.84532027591065"><ele>669.6666666666667</ele><time>2026-04-04T09:52:30.999Z</time></trkpt><trkpt lat="42.980585563866065" lon="12.845175340660264"><ele>670.0</ele><time>2026-04-04T09:52:31.999Z</time></trkpt><trkpt lat="42.980474188016395" lon="12.845022050124125"><ele>670.0</ele><time>2026-04-04T09:52:32.999Z</time></trkpt><trkpt lat="42.980361454436725" lon="12.844879293949157"><ele>670.0</ele><time>2026-04-04T09:52:33.999Z</time></trkpt><trkpt lat="42.98024770482505" lon="12.844737040175556"><ele>670.0</ele><time>2026-04-04T09:52:34.999Z</time></trkpt><trkpt lat="42.980131035827924" lon="12.84459008900731"><ele>668.0</ele><time>2026-04-04T09:52:35.999Z</time></trkpt><trkpt lat="42.980009584720875" lon="12.844454097549065"><ele>666.0</ele><time>2026-04-04T09:52:36.999Z</time></trkpt><trkpt lat="42.97987823290982" lon="12.84432431102589"><ele>664.0</ele><time>2026-04-04T09:52:37.999Z</time></trkpt><trkpt lat="42.97974138055044" lon="12.844205513685717"><ele>664.0</ele><time>2026-04-04T09:52:38.999Z</time></trkpt><trkpt lat="42.979616899908216" lon="12.844099729725123"><ele>664.0</ele><time>2026-04-04T09:52:39.999Z</time></trkpt><trkpt lat="42.97948185877428" lon="12.843986612450575"><ele>664.0</ele><time>2026-04-04T09:52:40.999Z</time></trkpt><trkpt lat="42.979351090606016" lon="12.84388085761054"><ele>664.0</ele><time>2026-04-04T09:52:41.999Z</time></trkpt><trkpt lat="42.979220856553944" lon="12.843781875930347"><ele>664.0</ele><time>2026-04-04T09:52:42.999Z</time></trkpt><trkpt lat="42.979088899036626" lon="12.84368669628077"><ele>664.0</ele><time>2026-04-04T09:52:43.999Z</time></trkpt><trkpt lat="42.97895956658899" lon="12.843591546678043"><ele>664.0</ele><time>2026-04-04T09:52:44.999Z</time></trkpt><trkpt lat="42.97883203792669" lon="12.843504961435748"><ele>663.0</ele><time>2026-04-04T09:52:45.999Z</time></trkpt><trkpt lat="42.97870164346981" lon="12.843417147340894"><ele>662.0</ele><time>2026-04-04T09:52:46.999Z</time></trkpt><trkpt lat="42.97857897797119" lon="12.843316093785123"><ele>661.0</ele><time>2026-04-04T09:52:47.999Z</time></trkpt><trkpt lat="42.97845131650215" lon="12.843247662182993"><ele>660.0</ele><time>2026-04-04T09:52:48.999Z</time></trkpt><trkpt lat="42.97833395690806" lon="12.843167105424811"><ele>656.8</ele><time>2026-04-04T09:52:49.999Z</time></trkpt><trkpt lat="42.978233602568785" lon="12.843081719188714"><ele>653.6</ele><time>2026-04-04T09:52:50.999Z</time></trkpt><trkpt lat="42.978156617869466" lon="12.843021277884624"><ele>650.4000000000001</ele><time>2026-04-04T09:52:51.999Z</time></trkpt><trkpt lat="42.97812234179974" lon="12.842897463226025"><ele>647.2</ele><time>2026-04-04T09:52:52.999Z</time></trkpt><trkpt lat="42.97812553213396" lon="12.842771890778808"><ele>644.0</ele><time>2026-04-04T09:52:53.999Z</time></trkpt><trkpt lat="42.9781840458301" lon="12.842666555424445"><ele>644.8333333333333</ele><time>2026-04-04T09:52:54.999Z</time></trkpt><trkpt lat="42.97826774893271" lon="12.842601203946646"><ele>645.6666666666666</ele><time>2026-04-04T09:52:55.999Z</time></trkpt><trkpt lat="42.978353035026124" lon="12.842590413804281"><ele>646.5</ele><time>2026-04-04T09:52:56.999Z</time></trkpt><trkpt lat="42.9784255044541" lon="12.842624481844913"><ele>647.3333333333334</ele><time>2026-04-04T09:52:57.999Z</time></trkpt><trkpt lat="42.97848494088105" lon="12.842678061874524"><ele>648.1666666666667</ele><time>2026-04-04T09:52:58.998Z</time></trkpt><trkpt lat="42.97857291555993" lon="12.842759664873657"><ele>649.0</ele><time>2026-04-04T09:53:00.998Z</time></trkpt><trkpt lat="42.97864048877854" lon="12.842837475433376"><ele>650.8333333333334</ele><time>2026-04-04T09:53:02.998Z</time></trkpt><trkpt lat="42.978689115259755" lon="12.842894322001223"><ele>652.6666666666667</ele><time>2026-04-04T09:53:04.998Z</time></trkpt><trkpt lat="42.97875166855789" lon="12.842967022276781"><ele>654.5</ele><time>2026-04-04T09:53:06.998Z</time></trkpt><trkpt lat="42.97885136757304" lon="12.843077023317417"><ele>656.3333333333334</ele><time>2026-04-04T09:53:08.998Z</time></trkpt><trkpt lat="42.97890617315965" lon="12.84313645219648"><ele>658.1666666666666</ele><time>2026-04-04T09:53:09.998Z</time></trkpt><trkpt lat="42.97895726052454" lon="12.84319048602325"><ele>660.0</ele><time>2026-04-04T09:53:10.998Z</time></trkpt><trkpt lat="42.97901296407545" lon="12.843247713607894"><ele>660.0</ele><time>2026-04-04T09:53:11.998Z</time></trkpt><trkpt lat="42.97908186697654" lon="12.84331827337189"><ele>660.0</ele><time>2026-04-04T09:53:12.998Z</time></trkpt><trkpt lat="42.97916264537086" lon="12.843390625887363"><ele>660.0</ele><time>2026-04-04T09:53:13.998Z</time></trkpt><trkpt lat="42.979229107270655" lon="12.843445472746238"><ele>660.0</ele><time>2026-04-04T09:53:14.998Z</time></trkpt><trkpt lat="42.97932591746647" lon="12.8435214781222"><ele>660.0</ele><time>2026-04-04T09:53:15.998Z</time></trkpt><trkpt lat="42.97941292378552" lon="12.843586997649995"><ele>660.8</ele><time>2026-04-04T09:53:16.998Z</time></trkpt><trkpt lat="42.97949120519378" lon="12.843643521664792"><ele>661.6</ele><time>2026-04-04T09:53:17.998Z</time></trkpt><trkpt lat="42.97957505462423" lon="12.843703219127763"><ele>662.4000000000001</ele><time>2026-04-04T09:53:19Z</time></trkpt><trkpt lat="42.97966207401646" lon="12.843765173494253"><ele>663.2</ele><time>2026-04-04T09:53:20Z</time></trkpt><trkpt lat="42.979738513772546" lon="12.843819595557758"><ele>664.0</ele><time>2026-04-04T09:53:21Z</time></trkpt><trkpt lat="42.97982476869264" lon="12.84387948078947"><ele>664.0</ele><time>2026-04-04T09:53:22Z</time></trkpt><trkpt lat="42.9799152696429" lon="12.843941970059062"><ele>664.0</ele><time>2026-04-04T09:53:23Z</time></trkpt><trkpt lat="42.9800022151438" lon="12.844002004200949"><ele>664.0</ele><time>2026-04-04T09:53:24Z</time></trkpt><trkpt lat="42.98007594142077" lon="12.84405291081398"><ele>664.0</ele><time>2026-04-04T09:53:25Z</time></trkpt><trkpt lat="42.980138476908095" lon="12.844096090340342"><ele>664.0</ele><time>2026-04-04T09:53:26Z</time></trkpt><trkpt lat="42.980197828033106" lon="12.844137071214417"><ele>664.0</ele><time>2026-04-04T09:53:27Z</time></trkpt><trkpt lat="42.98030872001505" lon="12.844171881551471"><ele>681.5</ele><time>2026-04-04T09:53:29Z</time></trkpt><trkpt lat="42.98041695020268" lon="12.844207122027086"><ele>699.0</ele><time>2026-04-04T09:53:31Z</time></trkpt><trkpt lat="42.980817934573075" lon="12.84350883498341"><ele>703.8333333333334</ele><time>2026-04-04T09:53:32Z</time></trkpt><trkpt lat="42.98088075706723" lon="12.843470390364756"><ele>708.6666666666666</ele><time>2026-04-04T09:53:33Z</time></trkpt><trkpt lat="42.980942958050946" lon="12.843399491571056"><ele>713.5</ele><time>2026-04-04T09:53:34Z</time></trkpt><trkpt lat="42.98099004957639" lon="12.843309533585854"><ele>718.3333333333333</ele><time>2026-04-04T09:53:34.999Z</time></trkpt><trkpt lat="42.9810529262877" lon="12.843251824201133"><ele>723.1666666666666</ele><time>2026-04-04T09:53:35.999Z</time></trkpt><trkpt lat="42.98113372153968" lon="12.843260157715285"><ele>728.0</ele><time>2026-04-04T09:53:36.999Z</time></trkpt><trkpt lat="42.9812191033431" lon="12.843264357438331"><ele>728.2</ele><time>2026-04-04T09:53:37.999Z</time></trkpt><trkpt lat="42.98130915769679" lon="12.84317571285318"><ele>728.4</ele><time>2026-04-04T09:53:39.999Z</time></trkpt><trkpt lat="42.98135232977266" lon="12.84310181094298"><ele>728.6</ele><time>2026-04-04T09:53:40.999Z</time></trkpt><trkpt lat="42.981505548033645" lon="12.843051645747604"><ele>728.8000000000001</ele><time>2026-04-04T09:53:42.999Z</time></trkpt><trkpt lat="42.98161303850463" lon="12.843045551354798"><ele>729.0</ele><time>2026-04-04T09:53:43.999Z</time></trkpt><trkpt lat="42.98169686830677" lon="12.843064559629372"><ele>731.8000000000001</ele><time>2026-04-04T09:53:44.999Z</time></trkpt><trkpt lat="42.9817857400516" lon="12.843082210511923"><ele>734.6</ele><time>2026-04-04T09:53:45.999Z</time></trkpt><trkpt lat="42.981869087998206" lon="12.843106727656275"><ele>737.4</ele><time>2026-04-04T09:53:46.999Z</time></trkpt><trkpt lat="42.98193926420282" lon="12.843094523818237"><ele>740.2</ele><time>2026-04-04T09:53:47.999Z</time></trkpt><trkpt lat="42.982035015029" lon="12.843051504416628"><ele>743.0</ele><time>2026-04-04T09:53:48.999Z</time></trkpt><trkpt lat="42.982141614559964" lon="12.84303842656305"><ele>743.0</ele><time>2026-04-04T09:53:49.999Z</time></trkpt><trkpt lat="42.98222907222767" lon="12.843022280518522"><ele>743.0</ele><time>2026-04-04T09:53:50.999Z</time></trkpt><trkpt lat="42.98233642513674" lon="12.843038995080496"><ele>743.0</ele><time>2026-04-04T09:53:51.998Z</time></trkpt><trkpt lat="42.98244902435703" lon="12.843055204638649"><ele>743.0</ele><time>2026-04-04T09:53:52.998Z</time></trkpt><trkpt lat="42.98255088032425" lon="12.843067030454975"><ele>743.0</ele><time>2026-04-04T09:53:53.998Z</time></trkpt><trkpt lat="42.982646763538206" lon="12.843078949124735"><ele>746.75</ele><time>2026-04-04T09:53:54.998Z</time></trkpt><trkpt lat="42.982765137826775" lon="12.843117799305215"><ele>750.5</ele><time>2026-04-04T09:53:55.998Z</time></trkpt><trkpt lat="42.98285656801406" lon="12.843153864420259"><ele>754.25</ele><time>2026-04-04T09:53:56.998Z</time></trkpt><trkpt lat="42.9829543746049" lon="12.843213856787733"><ele>758.0</ele><time>2026-04-04T09:53:57.998Z</time></trkpt><trkpt lat="42.98307948708123" lon="12.843274053405848"><ele>758.0</ele><time>2026-04-04T09:53:58.998Z</time></trkpt><trkpt lat="42.983202884169664" lon="12.843312309769637"><ele>758.0</ele><time>2026-04-04T09:53:59.998Z</time></trkpt><trkpt lat="42.983308956214955" lon="12.843358960312765"><ele>758.0</ele><time>2026-04-04T09:54:00.998Z</time></trkpt><trkpt lat="42.98342473279958" lon="12.843398522921031"><ele>758.0</ele><time>2026-04-04T09:54:01.998Z</time></trkpt><trkpt lat="42.98353861562439" lon="12.843434168575804"><ele>761.75</ele><time>2026-04-04T09:54:02.998Z</time></trkpt><trkpt lat="42.983666342269586" lon="12.84345997371591"><ele>765.5</ele><time>2026-04-04T09:54:03.998Z</time></trkpt><trkpt lat="42.983785897969184" lon="12.8434994150232"><ele>769.25</ele><time>2026-04-04T09:54:04.998Z</time></trkpt><trkpt lat="42.98389187111821" lon="12.843538400929313"><ele>773.0</ele><time>2026-04-04T09:54:05.998Z</time></trkpt><trkpt lat="42.984003706840674" lon="12.843574297439421"><ele>773.2</ele><time>2026-04-04T09:54:06.998Z</time></trkpt><trkpt lat="42.98411639003836" lon="12.843612337569203"><ele>773.4</ele><time>2026-04-04T09:54:07.998Z</time></trkpt><trkpt lat="42.984215834813305" lon="12.843602279981862"><ele>773.6</ele><time>2026-04-04T09:54:08.998Z</time></trkpt><trkpt lat="42.98432655935368" lon="12.84359392259027"><ele>773.8000000000001</ele><time>2026-04-04T09:54:09.998Z</time></trkpt><trkpt lat="42.9844211031249" lon="12.843573756169054"><ele>774.0</ele><time>2026-04-04T09:54:10.998Z</time></trkpt><trkpt lat="42.9845106358648" lon="12.843555925917464"><ele>775.6</ele><time>2026-04-04T09:54:11.998Z</time></trkpt><trkpt lat="42.98463017609808" lon="12.843526804407205"><ele>777.2</ele><time>2026-04-04T09:54:12.998Z</time></trkpt><trkpt lat="42.98474058626433" lon="12.843492017130336"><ele>778.8000000000001</ele><time>2026-04-04T09:54:13.998Z</time></trkpt><trkpt lat="42.98482165085556" lon="12.843472559153252"><ele>780.4000000000001</ele><time>2026-04-04T09:54:14.998Z</time></trkpt><trkpt lat="42.98492963971817" lon="12.843431601156091"><ele>782.0</ele><time>2026-04-04T09:54:16.998Z</time></trkpt><trkpt lat="42.98499650526025" lon="12.84342332482641"><ele>782.4000000000001</ele><time>2026-04-04T09:54:19.998Z</time></trkpt><trkpt lat="42.985084840028854" lon="12.843469188797272"><ele>782.8000000000001</ele><time>2026-04-04T09:54:26.998Z</time></trkpt><trkpt lat="42.98517100348321" lon="12.843457810126809"><ele>783.2</ele><time>2026-04-04T09:54:28.998Z</time></trkpt><trkpt lat="42.98528891849495" lon="12.843450496450608"><ele>783.6</ele><time>2026-04-04T09:54:30.998Z</time></trkpt><trkpt lat="42.98536878926451" lon="12.843459701565129"><ele>784.0</ele><time>2026-04-04T09:54:31.998Z</time></trkpt><trkpt lat="42.98546077407748" lon="12.843466588065358"><ele>785.6</ele><time>2026-04-04T09:54:32.998Z</time></trkpt><trkpt lat="42.98556493791024" lon="12.84348700791577"><ele>787.2</ele><time>2026-04-04T09:54:33.998Z</time></trkpt><trkpt lat="42.98567331854945" lon="12.843481687151183"><ele>788.8000000000001</ele><time>2026-04-04T09:54:34.998Z</time></trkpt><trkpt lat="42.985789433671684" lon="12.843484052562713"><ele>790.4000000000001</ele><time>2026-04-04T09:54:35.998Z</time></trkpt><trkpt lat="42.98589631733301" lon="12.843526813543898"><ele>792.0</ele><time>2026-04-04T09:54:36.998Z</time></trkpt><trkpt lat="42.98599875226641" lon="12.843551429470521"><ele>792.5</ele><time>2026-04-04T09:54:37.998Z</time></trkpt><trkpt lat="42.986092435539206" lon="12.843539574955647"><ele>793.0</ele><time>2026-04-04T09:54:38.998Z</time></trkpt><trkpt lat="42.98617407991739" lon="12.843543319642668"><ele>793.5</ele><time>2026-04-04T09:54:39.998Z</time></trkpt><trkpt lat="42.98625685473383" lon="12.84355034918424"><ele>794.0</ele><time>2026-04-04T09:54:40.998Z</time></trkpt><trkpt lat="42.98633783416973" lon="12.84354690017329"><ele>794.5</ele><time>2026-04-04T09:54:41.998Z</time></trkpt><trkpt lat="42.98642326615368" lon="12.843556552696645"><ele>795.0</ele><time>2026-04-04T09:54:42.998Z</time></trkpt><trkpt lat="42.98651459636031" lon="12.843551106496985"><ele>795.0</ele><time>2026-04-04T09:54:43.998Z</time></trkpt><trkpt lat="42.98662109817836" lon="12.84354010079128"><ele>795.0</ele><time>2026-04-04T09:54:44.997Z</time></trkpt><trkpt lat="42.98672682455671" lon="12.843541028108415"><ele>795.0</ele><time>2026-04-04T09:54:45.997Z</time></trkpt><trkpt lat="42.98686516486188" lon="12.843527188682858"><ele>795.0</ele><time>2026-04-04T09:54:46.997Z</time></trkpt><trkpt lat="42.986992033055884" lon="12.843532059687837"><ele>795.5</ele><time>2026-04-04T09:54:47.997Z</time></trkpt><trkpt lat="42.98712498630323" lon="12.843551638441769"><ele>796.0</ele><time>2026-04-04T09:54:48.997Z</time></trkpt><trkpt lat="42.98725543323427" lon="12.843558713797806"><ele>796.5</ele><time>2026-04-04T09:54:49.997Z</time></trkpt><trkpt lat="42.987392033963324" lon="12.843564568373788"><ele>797.0</ele><time>2026-04-04T09:54:50.997Z</time></trkpt><trkpt lat="42.98754219886607" lon="12.843582263487356"><ele>797.0</ele><time>2026-04-04T09:54:51.997Z</time></trkpt><trkpt lat="42.987680755207656" lon="12.843581827471963"><ele>797.0</ele><time>2026-04-04T09:54:52.997Z</time></trkpt><trkpt lat="42.987809139414935" lon="12.843605987945782"><ele>797.0</ele><time>2026-04-04T09:54:53.997Z</time></trkpt><trkpt lat="42.98792488438825" lon="12.843619824769318"><ele>797.0</ele><time>2026-04-04T09:54:54.997Z</time></trkpt><trkpt lat="42.98805240354498" lon="12.843617814758106"><ele>797.0</ele><time>2026-04-04T09:54:55.997Z</time></trkpt><trkpt lat="42.98818744763025" lon="12.84359057488701"><ele>797.0</ele><time>2026-04-04T09:54:56.997Z</time></trkpt><trkpt lat="42.98831659142315" lon="12.843549376880786"><ele>797.0</ele><time>2026-04-04T09:54:57.997Z</time></trkpt><trkpt lat="42.98842167396833" lon="12.843508749425999"><ele>797.0</ele><time>2026-04-04T09:54:58.997Z</time></trkpt><trkpt lat="42.98849986903578" lon="12.843467771596252"><ele>796.4000000000001</ele><time>2026-04-04T09:54:59.997Z</time></trkpt><trkpt lat="42.98854879316721" lon="12.843394737797157"><ele>795.8000000000001</ele><time>2026-04-04T09:55:00.997Z</time></trkpt><trkpt lat="42.98857858168307" lon="12.843290027876671"><ele>795.2</ele><time>2026-04-04T09:55:01.997Z</time></trkpt><trkpt lat="42.98860598672579" lon="12.843168773176197"><ele>794.6</ele><time>2026-04-04T09:55:02.997Z</time></trkpt><trkpt lat="42.98863505718511" lon="12.842999864130842"><ele>794.0</ele><time>2026-04-04T09:55:03.997Z</time></trkpt><trkpt lat="42.9886779887156" lon="12.842833954232026"><ele>794.0</ele><time>2026-04-04T09:55:04.997Z</time></trkpt><trkpt lat="42.98871059013484" lon="12.842693763267457"><ele>794.0</ele><time>2026-04-04T09:55:05.997Z</time></trkpt><trkpt lat="42.98874784023191" lon="12.84257088777662"><ele>794.0</ele><time>2026-04-04T09:55:06.997Z</time></trkpt><trkpt lat="42.98875467423346" lon="12.842447628206004"><ele>794.0</ele><time>2026-04-04T09:55:07.997Z</time></trkpt><trkpt lat="42.98872083913414" lon="12.842323856187097"><ele>794.0</ele><time>2026-04-04T09:55:08.997Z</time></trkpt><trkpt lat="42.98868528468492" lon="12.84221334630485"><ele>796.75</ele><time>2026-04-04T09:55:09.997Z</time></trkpt><trkpt lat="42.988690422634434" lon="12.842008408031825"><ele>799.5</ele><time>2026-04-04T09:55:11.997Z</time></trkpt><trkpt lat="42.98871517019525" lon="12.84186109790186"><ele>802.25</ele><time>2026-04-04T09:55:12.997Z</time></trkpt><trkpt lat="42.98873613754843" lon="12.841713932029915"><ele>805.0</ele><time>2026-04-04T09:55:13.997Z</time></trkpt><trkpt lat="42.98877780373399" lon="12.841518054330653"><ele>806.25</ele><time>2026-04-04T09:55:14.997Z</time></trkpt><trkpt lat="42.98879714349361" lon="12.841324779806206"><ele>807.5</ele><time>2026-04-04T09:55:15.997Z</time></trkpt><trkpt lat="42.98883792436457" lon="12.841128201594666"><ele>808.75</ele><time>2026-04-04T09:55:16.997Z</time></trkpt><trkpt lat="42.98887188690605" lon="12.840966822164292"><ele>810.0</ele><time>2026-04-04T09:55:17.997Z</time></trkpt><trkpt lat="42.98890299175788" lon="12.840820388853713"><ele>810.3333333333334</ele><time>2026-04-04T09:55:18.997Z</time></trkpt><trkpt lat="42.98890478517458" lon="12.840691904785718"><ele>810.6666666666667</ele><time>2026-04-04T09:55:19.997Z</time></trkpt><trkpt lat="42.98890220833732" lon="12.840601445474913"><ele>811.0</ele><time>2026-04-04T09:55:20.997Z</time></trkpt><trkpt lat="42.988945526067404" lon="12.840527506745255"><ele>811.3333333333334</ele><time>2026-04-04T09:55:21.997Z</time></trkpt><trkpt lat="42.98901769924793" lon="12.840503422114041"><ele>811.6666666666667</ele><time>2026-04-04T09:55:22.997Z</time></trkpt><trkpt lat="42.98911984688516" lon="12.840478441200139"><ele>812.0</ele><time>2026-04-04T09:55:23.997Z</time></trkpt><trkpt lat="42.98923260096297" lon="12.840461205950456"><ele>810.75</ele><time>2026-04-04T09:55:24.998Z</time></trkpt><trkpt lat="42.989329145799566" lon="12.840506093484578"><ele>809.5</ele><time>2026-04-04T09:55:25.998Z</time></trkpt><trkpt lat="42.98944246449672" lon="12.840582056248826"><ele>808.25</ele><time>2026-04-04T09:55:26.998Z</time></trkpt><trkpt lat="42.98955943711511" lon="12.840673996750427"><ele>807.0</ele><time>2026-04-04T09:55:27.998Z</time></trkpt><trkpt lat="42.98964436424864" lon="12.840765370612587"><ele>807.0</ele><time>2026-04-04T09:55:28.999Z</time></trkpt><trkpt lat="42.98972882662812" lon="12.840864956247854"><ele>807.0</ele><time>2026-04-04T09:55:29.999Z</time></trkpt><trkpt lat="42.989818482627825" lon="12.840951214097924"><ele>807.0</ele><time>2026-04-04T09:55:30.999Z</time></trkpt><trkpt lat="42.989883965797524" lon="12.84104894071569"><ele>807.0</ele><time>2026-04-04T09:55:31.999Z</time></trkpt><trkpt lat="42.989952964038764" lon="12.84113643675766"><ele>807.0</ele><time>2026-04-04T09:55:32.999Z</time></trkpt><trkpt lat="42.99002997714817" lon="12.841186342888227"><ele>805.2</ele><time>2026-04-04T09:55:33.999Z</time></trkpt><trkpt lat="42.99011501289228" lon="12.841195432322607"><ele>803.4000000000001</ele><time>2026-04-04T09:55:34.999Z</time></trkpt><trkpt lat="42.99019298635466" lon="12.841175014774457"><ele>801.5999999999999</ele><time>2026-04-04T09:55:35.999Z</time></trkpt><trkpt lat="42.99027201785948" lon="12.841120306890618"><ele>799.8</ele><time>2026-04-04T09:55:36.999Z</time></trkpt><trkpt lat="42.99037463151578" lon="12.841064162814925"><ele>798.0</ele><time>2026-04-04T09:55:37.999Z</time></trkpt><trkpt lat="42.99047577464844" lon="12.84103310281909"><ele>798.0</ele><time>2026-04-04T09:55:38.999Z</time></trkpt><trkpt lat="42.99058219507526" lon="12.840959339069153"><ele>798.0</ele><time>2026-04-04T09:55:39.999Z</time></trkpt><trkpt lat="42.99067351321406" lon="12.840901958167562"><ele>798.0</ele><time>2026-04-04T09:55:40.999Z</time></trkpt><trkpt lat="42.99078029254974" lon="12.840795888859573"><ele>798.0</ele><time>2026-04-04T09:55:41.999Z</time></trkpt><trkpt lat="42.99086932234919" lon="12.840674173766345"><ele>796.0</ele><time>2026-04-04T09:55:42.999Z</time></trkpt><trkpt lat="42.990970136079326" lon="12.840570313597022"><ele>794.0</ele><time>2026-04-04T09:55:43.999Z</time></trkpt><trkpt lat="42.99106582196346" lon="12.840470419460116"><ele>792.0</ele><time>2026-04-04T09:55:44.999Z</time></trkpt><trkpt lat="42.99113140070428" lon="12.840374308335855"><ele>790.0</ele><time>2026-04-04T09:55:45.999Z</time></trkpt><trkpt lat="42.99116627657681" lon="12.840277419398571"><ele>788.0</ele><time>2026-04-04T09:55:46.999Z</time></trkpt><trkpt lat="42.991173226520935" lon="12.840176230860159"><ele>789.8333333333334</ele><time>2026-04-04T09:55:47.999Z</time></trkpt><trkpt lat="42.99115322495104" lon="12.8400757177828"><ele>791.6666666666667</ele><time>2026-04-04T09:55:48.999Z</time></trkpt><trkpt lat="42.99110041678274" lon="12.83999041305215"><ele>793.5</ele><time>2026-04-04T09:55:49.999Z</time></trkpt><trkpt lat="42.99103769891521" lon="12.839917582691701"><ele>795.3333333333333</ele><time>2026-04-04T09:55:50.999Z</time></trkpt><trkpt lat="42.990978988819386" lon="12.839846637547902"><ele>797.1666666666666</ele><time>2026-04-04T09:55:51.999Z</time></trkpt><trkpt lat="42.99092987713749" lon="12.839771208845185"><ele>799.0</ele><time>2026-04-04T09:55:52.999Z</time></trkpt><trkpt lat="42.990877868415865" lon="12.839691619875143"><ele>798.1666666666666</ele><time>2026-04-04T09:55:53.999Z</time></trkpt><trkpt lat="42.99081939127423" lon="12.839617197262335"><ele>797.3333333333333</ele><time>2026-04-04T09:55:54.999Z</time></trkpt><trkpt lat="42.99076692399026" lon="12.839538960226024"><ele>796.5</ele><time>2026-04-04T09:55:55.999Z</time></trkpt><trkpt lat="42.99073062656652" lon="12.83944470811857"><ele>795.6666666666667</ele><time>2026-04-04T09:55:56.999Z</time></trkpt><trkpt lat="42.990704302298546" lon="12.839347330820747"><ele>794.8333333333334</ele><time>2026-04-04T09:55:57.999Z</time></trkpt><trkpt lat="42.99067841952321" lon="12.839247649647385"><ele>794.0</ele><time>2026-04-04T09:55:58.999Z</time></trkpt><trkpt lat="42.99064253927172" lon="12.839092776245495"><ele>794.0000000000001</ele><time>2026-04-04T09:56:00.999Z</time></trkpt><trkpt lat="42.99064797256071" lon="12.83896773274144"><ele>794.0</ele><time>2026-04-04T09:56:02.999Z</time></trkpt><trkpt lat="42.99072121416704" lon="12.838932070370781"><ele>794.0</ele><time>2026-04-04T09:56:04.999Z</time></trkpt><trkpt lat="42.990772314748995" lon="12.838871234333315"><ele>794.0</ele><time>2026-04-04T09:56:05.999Z</time></trkpt><trkpt lat="42.990825833644905" lon="12.838811417666337"><ele>794.0000000000001</ele><time>2026-04-04T09:56:06.999Z</time></trkpt><trkpt lat="42.9909158877415" lon="12.838757164906736"><ele>794.0</ele><time>2026-04-04T09:56:07.999Z</time></trkpt><trkpt lat="42.990999452523035" lon="12.838664392903777"><ele>794.0000000000001</ele><time>2026-04-04T09:56:08.999Z</time></trkpt><trkpt lat="42.991075149093874" lon="12.838581264893374"><ele>794.0</ele><time>2026-04-04T09:56:09.999Z</time></trkpt><trkpt lat="42.99115705134923" lon="12.838508182419282"><ele>794.0</ele><time>2026-04-04T09:56:10.999Z</time></trkpt><trkpt lat="42.991223151352614" lon="12.838418725152033"><ele>794.0</ele><time>2026-04-04T09:56:11.999Z</time></trkpt><trkpt lat="42.9912820936372" lon="12.838378071922698"><ele>794.0000000000001</ele><time>2026-04-04T09:56:12.999Z</time></trkpt><trkpt lat="42.99135517824018" lon="12.838381695060109"><ele>794.0</ele><time>2026-04-04T09:56:13.999Z</time></trkpt><trkpt lat="42.991430709757736" lon="12.838403671427278"><ele>794.0</ele><time>2026-04-04T09:56:14.999Z</time></trkpt><trkpt lat="42.99149517612043" lon="12.838436686689212"><ele>794.0</ele><time>2026-04-04T09:56:15.999Z</time></trkpt><trkpt lat="42.99157637159766" lon="12.83851285233036"><ele>794.0</ele><time>2026-04-04T09:56:16.999Z</time></trkpt><trkpt lat="42.99169613563029" lon="12.838634092606066"><ele>794.0</ele><time>2026-04-04T09:56:17.999Z</time></trkpt><trkpt lat="42.991819449071954" lon="12.838708764658726"><ele>795.25</ele><time>2026-04-04T09:56:18.999Z</time></trkpt><trkpt lat="42.99194776719206" lon="12.838791149338414"><ele>796.5</ele><time>2026-04-04T09:56:19.999Z</time></trkpt><trkpt lat="42.992060488871644" lon="12.838887257927626"><ele>797.75</ele><time>2026-04-04T09:56:20.999Z</time></trkpt><trkpt lat="42.992183318032104" lon="12.838967351931101"><ele>799.0</ele><time>2026-04-04T09:56:21.999Z</time></trkpt><trkpt lat="42.992314309742646" lon="12.839060954243875"><ele>799.0</ele><time>2026-04-04T09:56:22.999Z</time></trkpt><trkpt lat="42.99244582241565" lon="12.839139581820998"><ele>799.0</ele><time>2026-04-04T09:56:23.999Z</time></trkpt><trkpt lat="42.99258291329562" lon="12.839220861383906"><ele>799.0</ele><time>2026-04-04T09:56:24.999Z</time></trkpt><trkpt lat="42.99271112250807" lon="12.839308119154154"><ele>799.0</ele><time>2026-04-04T09:56:25.999Z</time></trkpt><trkpt lat="42.99282785867978" lon="12.839389102196256"><ele>800.25</ele><time>2026-04-04T09:56:26.999Z</time></trkpt><trkpt lat="42.99293950956729" lon="12.839482708038343"><ele>801.5</ele><time>2026-04-04T09:56:27.999Z</time></trkpt><trkpt lat="42.9930413790152" lon="12.839558907310652"><ele>802.75</ele><time>2026-04-04T09:56:28.999Z</time></trkpt><trkpt lat="42.9931313481076" lon="12.839656105021449"><ele>804.0</ele><time>2026-04-04T09:56:29.999Z</time></trkpt><trkpt lat="42.99321440847304" lon="12.839754202991362"><ele>804.0</ele><time>2026-04-04T09:56:30.999Z</time></trkpt><trkpt lat="42.993284568582375" lon="12.839788761056775"><ele>804.0</ele><time>2026-04-04T09:56:31.999Z</time></trkpt><trkpt lat="42.99334253871733" lon="12.83982631501756"><ele>804.0</ele><time>2026-04-04T09:56:32.999Z</time></trkpt><trkpt lat="42.993433292942726" lon="12.839892183225716"><ele>804.0</ele><time>2026-04-04T09:56:33.999Z</time></trkpt><trkpt lat="42.99351524875354" lon="12.839910423533594"><ele>804.0</ele><time>2026-04-04T09:56:34.999Z</time></trkpt><trkpt lat="42.99358539411618" lon="12.839992855962684"><ele>804.0</ele><time>2026-04-04T09:56:35.999Z</time></trkpt><trkpt lat="42.99365812032324" lon="12.840070405865548"><ele>803.1666666666666</ele><time>2026-04-04T09:56:36.999Z</time></trkpt><trkpt lat="42.993720502667735" lon="12.840168374929013"><ele>802.3333333333333</ele><time>2026-04-04T09:56:37.999Z</time></trkpt><trkpt lat="42.99377413264978" lon="12.840249231953296"><ele>801.5</ele><time>2026-04-04T09:56:38.999Z</time></trkpt><trkpt lat="42.99382932215487" lon="12.840317447091481"><ele>800.6666666666666</ele><time>2026-04-04T09:56:39.999Z</time></trkpt><trkpt lat="42.993900948169276" lon="12.840349861925073"><ele>799.8333333333333</ele><time>2026-04-04T09:56:40.999Z</time></trkpt><trkpt lat="42.99399094536085" lon="12.840325062510733"><ele>799.0</ele><time>2026-04-04T09:56:41.999Z</time></trkpt><trkpt lat="42.99407911672538" lon="12.840257135500668"><ele>800.75</ele><time>2026-04-04T09:56:42.999Z</time></trkpt><trkpt lat="42.994175854884574" lon="12.840169034071092"><ele>802.5</ele><time>2026-04-04T09:56:43.999Z</time></trkpt><trkpt lat="42.994283787540354" lon="12.840086213594399"><ele>804.25</ele><time>2026-04-04T09:56:44.999Z</time></trkpt><trkpt lat="42.99441458559168" lon="12.84000083290072"><ele>806.0</ele><time>2026-04-04T09:56:45.999Z</time></trkpt><trkpt lat="42.99454002491428" lon="12.839915897689329"><ele>806.8</ele><time>2026-04-04T09:56:46.999Z</time></trkpt><trkpt lat="42.99464631643401" lon="12.839814604680306"><ele>807.5999999999999</ele><time>2026-04-04T09:56:47.999Z</time></trkpt><trkpt lat="42.994753801923984" lon="12.839733321849481"><ele>808.4</ele><time>2026-04-04T09:56:48.999Z</time></trkpt><trkpt lat="42.99483235672901" lon="12.839687012149552"><ele>809.2</ele><time>2026-04-04T09:56:49.999Z</time></trkpt><trkpt lat="42.994893491449886" lon="12.839608596800957"><ele>810.0</ele><time>2026-04-04T09:56:50.999Z</time></trkpt><trkpt lat="42.99494238295085" lon="12.83948077678224"><ele>810.0</ele><time>2026-04-04T09:56:51.999Z</time></trkpt><trkpt lat="42.99499445184765" lon="12.839340804653125"><ele>810.0</ele><time>2026-04-04T09:56:52.999Z</time></trkpt><trkpt lat="42.99506341864869" lon="12.839229498655607"><ele>810.0</ele><time>2026-04-04T09:56:53.999Z</time></trkpt><trkpt lat="42.995167651001225" lon="12.839223577306411"><ele>810.0</ele><time>2026-04-04T09:56:55.999Z</time></trkpt><trkpt lat="42.995228592326825" lon="12.839285156787014"><ele>810.0</ele><time>2026-04-04T09:56:56.999Z</time></trkpt><trkpt lat="42.99526390265343" lon="12.839397778053552"><ele>811.1428571428571</ele><time>2026-04-04T09:56:57.999Z</time></trkpt><trkpt lat="42.995276710152524" lon="12.839532250168396"><ele>812.2857142857142</ele><time>2026-04-04T09:56:58.999Z</time></trkpt><trkpt lat="42.99530437321658" lon="12.839615524640031"><ele>813.4285714285713</ele><time>2026-04-04T09:56:59.999Z</time></trkpt><trkpt lat="42.99534439929735" lon="12.839693637288319"><ele>814.5714285714286</ele><time>2026-04-04T09:57:00.999Z</time></trkpt><trkpt lat="42.995385040191465" lon="12.83977108817228"><ele>815.7142857142858</ele><time>2026-04-04T09:57:01.999Z</time></trkpt><trkpt lat="42.995419890471105" lon="12.839845353474026"><ele>816.8571428571428</ele><time>2026-04-04T09:57:02.999Z</time></trkpt><trkpt lat="42.995440309198216" lon="12.839930792773169"><ele>818.0</ele><time>2026-04-04T09:57:03.999Z</time></trkpt><trkpt lat="42.99551373832465" lon="12.83998776541565"><ele>818.0000000000001</ele><time>2026-04-04T09:57:04.999Z</time></trkpt><trkpt lat="42.995571854328645" lon="12.840037804583169"><ele>818.0</ele><time>2026-04-04T09:57:05.999Z</time></trkpt><trkpt lat="42.99562629197488" lon="12.84009524656283"><ele>818.0</ele><time>2026-04-04T09:57:06.999Z</time></trkpt><trkpt lat="42.995682797982695" lon="12.840201938207686"><ele>818.0</ele><time>2026-04-04T09:57:08.999Z</time></trkpt><trkpt lat="42.99566563902283" lon="12.84031557568657"><ele>818.0000000000001</ele><time>2026-04-04T09:57:10.999Z</time></trkpt><trkpt lat="42.99563176819598" lon="12.84023102965783"><ele>818.0</ele><time>2026-04-04T09:58:58.999Z</time></trkpt><trkpt lat="42.99568001323672" lon="12.84028656786089"><ele>819.3333333333334</ele><time>2026-04-04T10:00:49.999Z</time></trkpt><trkpt lat="42.995691208656304" lon="12.840376374379947"><ele>820.6666666666667</ele><time>2026-04-04T10:11:55.999Z</time></trkpt><trkpt lat="42.995767970916305" lon="12.840443348254372"><ele>822.0</ele><time>2026-04-04T10:11:57.999Z</time></trkpt><trkpt lat="42.99582396495842" lon="12.840484425004886"><ele>823.3333333333333</ele><time>2026-04-04T10:11:58.999Z</time></trkpt><trkpt lat="42.995891236080745" lon="12.840541084554433"><ele>824.6666666666666</ele><time>2026-04-04T10:11:59.999Z</time></trkpt><trkpt lat="42.99595846053584" lon="12.840608594150723"><ele>826.0</ele><time>2026-04-04T10:12:00.999Z</time></trkpt><trkpt lat="42.99602592971072" lon="12.84068638548736"><ele>827.4999999999999</ele><time>2026-04-04T10:12:01.999Z</time></trkpt><trkpt lat="42.99608515735528" lon="12.84075074697877"><ele>829.0</ele><time>2026-04-04T10:12:02.999Z</time></trkpt><trkpt lat="42.99614621120231" lon="12.840806224467457"><ele>830.5</ele><time>2026-04-04T10:12:03.999Z</time></trkpt><trkpt lat="42.99620242528691" lon="12.840862400117933"><ele>832.0</ele><time>2026-04-04T10:12:04.999Z</time></trkpt><trkpt lat="42.99622861960114" lon="12.840970553097517"><ele>833.4999999999999</ele><time>2026-04-04T10:12:05.999Z</time></trkpt><trkpt lat="42.99628955377103" lon="12.841031696119835"><ele>835.0</ele><time>2026-04-04T10:12:06.999Z</time></trkpt><trkpt lat="42.99634627785075" lon="12.841100091243762"><ele>836.2</ele><time>2026-04-04T10:12:07.999Z</time></trkpt><trkpt lat="42.996407789202735" lon="12.841175152729448"><ele>837.4</ele><time>2026-04-04T10:12:08.999Z</time></trkpt><trkpt lat="42.996457920590956" lon="12.84129491421923"><ele>838.5999999999999</ele><time>2026-04-04T10:12:09.999Z</time></trkpt><trkpt lat="42.99650919877436" lon="12.841430670994395"><ele>839.8</ele><time>2026-04-04T10:12:10.999Z</time></trkpt><trkpt lat="42.9965592018579" lon="12.841556491539828"><ele>841.0</ele><time>2026-04-04T10:12:11.999Z</time></trkpt><trkpt lat="42.996608031684055" lon="12.841682146925555"><ele>841.0</ele><time>2026-04-04T10:12:13Z</time></trkpt><trkpt lat="42.996668252441154" lon="12.841796385652666"><ele>841.0</ele><time>2026-04-04T10:12:14Z</time></trkpt><trkpt lat="42.99672915415301" lon="12.84190883923249"><ele>841.0</ele><time>2026-04-04T10:12:15Z</time></trkpt><trkpt lat="42.99679733344581" lon="12.842002748340368"><ele>841.0</ele><time>2026-04-04T10:12:16Z</time></trkpt><trkpt lat="42.99687040239799" lon="12.84207360196839"><ele>841.0</ele><time>2026-04-04T10:12:17Z</time></trkpt><trkpt lat="42.99694505168109" lon="12.842140206189766"><ele>841.8</ele><time>2026-04-04T10:12:18Z</time></trkpt><trkpt lat="42.99701847619538" lon="12.842210337367547"><ele>842.5999999999999</ele><time>2026-04-04T10:12:19Z</time></trkpt><trkpt lat="42.997087875505834" lon="12.8422929057207"><ele>843.4</ele><time>2026-04-04T10:12:20Z</time></trkpt><trkpt lat="42.9971591751349" lon="12.842364726765759"><ele>844.2</ele><time>2026-04-04T10:12:21Z</time></trkpt><trkpt lat="42.99723173686781" lon="12.842447901908676"><ele>845.0</ele><time>2026-04-04T10:12:22Z</time></trkpt><trkpt lat="42.997302680284115" lon="12.842533024874738"><ele>845.0</ele><time>2026-04-04T10:12:23Z</time></trkpt><trkpt lat="42.99737361409643" lon="12.842614538806517"><ele>845.0</ele><time>2026-04-04T10:12:24Z</time></trkpt><trkpt lat="42.99744683047227" lon="12.84269277431489"><ele>845.0</ele><time>2026-04-04T10:12:25Z</time></trkpt><trkpt lat="42.99752045968415" lon="12.842766282944453"><ele>845.0</ele><time>2026-04-04T10:12:26Z</time></trkpt><trkpt lat="42.9975994181127" lon="12.84283969287846"><ele>845.0</ele><time>2026-04-04T10:12:27Z</time></trkpt><trkpt lat="42.99768604937716" lon="12.842902995469142"><ele>845.0000000000001</ele><time>2026-04-04T10:12:28Z</time></trkpt><trkpt lat="42.99777792996031" lon="12.84296027918107"><ele>845.0</ele><time>2026-04-04T10:12:29Z</time></trkpt><trkpt lat="42.99787064131952" lon="12.84300916684696"><ele>845.0</ele><time>2026-04-04T10:12:30Z</time></trkpt><trkpt lat="42.99795165073815" lon="12.843046081273013"><ele>845.0</ele><time>2026-04-04T10:12:31Z</time></trkpt><trkpt lat="42.998030027275995" lon="12.843061637678545"><ele>845.0000000000001</ele><time>2026-04-04T10:12:32Z</time></trkpt><trkpt lat="42.99811422848922" lon="12.843055896515496"><ele>845.0</ele><time>2026-04-04T10:12:33Z</time></trkpt><trkpt lat="42.99819934081659" lon="12.843019669104793"><ele>845.0</ele><time>2026-04-04T10:12:34Z</time></trkpt><trkpt lat="42.99827948002374" lon="12.842964897402933"><ele>845.0</ele><time>2026-04-04T10:12:35Z</time></trkpt><trkpt lat="42.9983510999067" lon="12.84287602221517"><ele>845.0</ele><time>2026-04-04T10:12:36Z</time></trkpt><trkpt lat="42.9984234442575" lon="12.842774239720109"><ele>845.0</ele><time>2026-04-04T10:12:37Z</time></trkpt><trkpt lat="42.99850302572967" lon="12.842679952525915"><ele>845.0</ele><time>2026-04-04T10:12:38Z</time></trkpt><trkpt lat="42.99858390333393" lon="12.842586238166108"><ele>845.6</ele><time>2026-04-04T10:12:39Z</time></trkpt><trkpt lat="42.998657296603646" lon="12.842503274216176"><ele>846.2</ele><time>2026-04-04T10:12:40Z</time></trkpt><trkpt lat="42.99872983980519" lon="12.84241719197669"><ele>846.8</ele><time>2026-04-04T10:12:41Z</time></trkpt><trkpt lat="42.998798933703775" lon="12.842324612417817"><ele>847.4</ele><time>2026-04-04T10:12:42Z</time></trkpt><trkpt lat="42.99888312673315" lon="12.842250678259655"><ele>848.0</ele><time>2026-04-04T10:12:43Z</time></trkpt><trkpt lat="42.99894917844357" lon="12.842154816173544"><ele>848.0</ele><time>2026-04-04T10:12:44Z</time></trkpt><trkpt lat="42.99903493568151" lon="12.842092175163557"><ele>848.0</ele><time>2026-04-04T10:12:45Z</time></trkpt><trkpt lat="42.99912990676884" lon="12.842026468985528"><ele>848.0</ele><time>2026-04-04T10:12:46Z</time></trkpt><trkpt lat="42.999235251686606" lon="12.841959978829156"><ele>848.0</ele><time>2026-04-04T10:12:47Z</time></trkpt><trkpt lat="42.99933733880263" lon="12.841882918957"><ele>848.0</ele><time>2026-04-04T10:12:48Z</time></trkpt><trkpt lat="42.99943463235695" lon="12.841825555073042"><ele>848.2</ele><time>2026-04-04T10:12:49Z</time></trkpt><trkpt lat="42.99953527980485" lon="12.841799916545778"><ele>848.4</ele><time>2026-04-04T10:12:50Z</time></trkpt><trkpt lat="42.99962596991628" lon="12.84180207994642"><ele>848.6</ele><time>2026-04-04T10:12:51Z</time></trkpt><trkpt lat="42.99971695804213" lon="12.841812376635446"><ele>848.8000000000001</ele><time>2026-04-04T10:12:52Z</time></trkpt><trkpt lat="42.999812020922775" lon="12.841829953262083"><ele>849.0</ele><time>2026-04-04T10:12:53Z</time></trkpt><trkpt lat="42.999907018323086" lon="12.841844963143076"><ele>849.0</ele><time>2026-04-04T10:12:54Z</time></trkpt><trkpt lat="43.000002607971346" lon="12.841863820839299"><ele>849.0</ele><time>2026-04-04T10:12:55Z</time></trkpt><trkpt lat="43.00009446466449" lon="12.841881699642883"><ele>849.0</ele><time>2026-04-04T10:12:56Z</time></trkpt><trkpt lat="43.00019128063862" lon="12.841900457056383"><ele>849.0</ele><time>2026-04-04T10:12:57Z</time></trkpt><trkpt lat="43.00029000732558" lon="12.841909915819658"><ele>849.0</ele><time>2026-04-04T10:12:58Z</time></trkpt><trkpt lat="43.000383804143745" lon="12.841916696555845"><ele>849.0</ele><time>2026-04-04T10:12:59Z</time></trkpt><trkpt lat="43.00048113151453" lon="12.841941105791328"><ele>849.0</ele><time>2026-04-04T10:13:00Z</time></trkpt><trkpt lat="43.00058267392317" lon="12.84194178366549"><ele>849.0</ele><time>2026-04-04T10:13:01Z</time></trkpt><trkpt lat="43.00068612371062" lon="12.841928876568884"><ele>849.0</ele><time>2026-04-04T10:13:02Z</time></trkpt><trkpt lat="43.000781431570374" lon="12.841885008845022"><ele>849.0</ele><time>2026-04-04T10:13:03Z</time></trkpt><trkpt lat="43.00087761917507" lon="12.841859023427887"><ele>850.0</ele><time>2026-04-04T10:13:04Z</time></trkpt><trkpt lat="43.000969693523565" lon="12.841833389695495"><ele>851.0</ele><time>2026-04-04T10:13:05Z</time></trkpt><trkpt lat="43.00106585247346" lon="12.841807430169066"><ele>852.0000000000001</ele><time>2026-04-04T10:13:06Z</time></trkpt><trkpt lat="43.00114196550293" lon="12.841759118602354"><ele>853.0</ele><time>2026-04-04T10:13:07Z</time></trkpt><trkpt lat="43.00122604053593" lon="12.84170982173552"><ele>854.0</ele><time>2026-04-04T10:13:08Z</time></trkpt><trkpt lat="43.00130323691945" lon="12.841668536266535"><ele>855.6666666666667</ele><time>2026-04-04T10:13:09Z</time></trkpt><trkpt lat="43.00137946427273" lon="12.841604137992963"><ele>857.3333333333334</ele><time>2026-04-04T10:13:10Z</time></trkpt><trkpt lat="43.0014377232865" lon="12.841506949129574"><ele>859.0</ele><time>2026-04-04T10:13:11Z</time></trkpt><trkpt lat="43.00150685808504" lon="12.841434448351691"><ele>860.6666666666667</ele><time>2026-04-04T10:13:12Z</time></trkpt><trkpt lat="43.001552282370966" lon="12.841322345332436"><ele>862.3333333333334</ele><time>2026-04-04T10:13:13Z</time></trkpt><trkpt lat="43.00158407964906" lon="12.841212960735701"><ele>864.0</ele><time>2026-04-04T10:13:14Z</time></trkpt><trkpt lat="43.00160978777877" lon="12.841097773905602"><ele>864.0</ele><time>2026-04-04T10:13:15Z</time></trkpt><trkpt lat="43.001626530954184" lon="12.840977744388612"><ele>864.0000000000001</ele><time>2026-04-04T10:13:16Z</time></trkpt><trkpt lat="43.001642053029705" lon="12.840832258036672"><ele>864.0000000000001</ele><time>2026-04-04T10:13:17Z</time></trkpt><trkpt lat="43.00164261244563" lon="12.840683441526847"><ele>864.0</ele><time>2026-04-04T10:13:18Z</time></trkpt><trkpt lat="43.00162622022056" lon="12.84053585583223"><ele>864.0</ele><time>2026-04-04T10:13:19Z</time></trkpt><trkpt lat="43.00161131256533" lon="12.840386821120669"><ele>864.75</ele><time>2026-04-04T10:13:20Z</time></trkpt><trkpt lat="43.00159234297196" lon="12.840235877799573"><ele>865.5</ele><time>2026-04-04T10:13:21Z</time></trkpt><trkpt lat="43.00155697188445" lon="12.840081156320485"><ele>866.25</ele><time>2026-04-04T10:13:22Z</time></trkpt><trkpt lat="43.00151622949714" lon="12.839940608363145"><ele>867.0</ele><time>2026-04-04T10:13:23Z</time></trkpt><trkpt lat="43.00148467588161" lon="12.839796773113642"><ele>867.25</ele><time>2026-04-04T10:13:24Z</time></trkpt><trkpt lat="43.00145675251244" lon="12.839651125448205"><ele>867.5</ele><time>2026-04-04T10:13:25Z</time></trkpt><trkpt lat="43.00144614222137" lon="12.839523299936639"><ele>867.75</ele><time>2026-04-04T10:13:26Z</time></trkpt><trkpt lat="43.00144981380135" lon="12.839403226473644"><ele>868.0</ele><time>2026-04-04T10:13:26.999Z</time></trkpt><trkpt lat="43.001549857780425" lon="12.83922324485123"><ele>867.4</ele><time>2026-04-04T10:13:28.999Z</time></trkpt><trkpt lat="43.001631322848425" lon="12.839164109981969"><ele>866.8</ele><time>2026-04-04T10:13:29.999Z</time></trkpt><trkpt lat="43.00172774066123" lon="12.839141534022566"><ele>866.2</ele><time>2026-04-04T10:13:30.999Z</time></trkpt><trkpt lat="43.00182859485236" lon="12.839126688013124"><ele>865.6</ele><time>2026-04-04T10:13:31.999Z</time></trkpt><trkpt lat="43.00192620768081" lon="12.839125547426326"><ele>865.0</ele><time>2026-04-04T10:13:32.999Z</time></trkpt><trkpt lat="43.00202054788466" lon="12.839088895362504"><ele>863.0</ele><time>2026-04-04T10:13:33.999Z</time></trkpt><trkpt lat="43.00212128500126" lon="12.839072896142817"><ele>861.0</ele><time>2026-04-04T10:13:34.999Z</time></trkpt><trkpt lat="43.00222728302227" lon="12.839057561283486"><ele>859.0</ele><time>2026-04-04T10:13:35.999Z</time></trkpt><trkpt lat="43.00233797678209" lon="12.839039986233644"><ele>857.0</ele><time>2026-04-04T10:13:36.999Z</time></trkpt><trkpt lat="43.002445245660844" lon="12.839004980446761"><ele>855.0</ele><time>2026-04-04T10:13:37.999Z</time></trkpt><trkpt lat="43.002558739102355" lon="12.838965736170413"><ele>854.0</ele><time>2026-04-04T10:13:38.999Z</time></trkpt><trkpt lat="43.00267391543565" lon="12.838972894202552"><ele>853.0</ele><time>2026-04-04T10:13:39.999Z</time></trkpt><trkpt lat="43.00279989793061" lon="12.838986535863311"><ele>852.0</ele><time>2026-04-04T10:13:40.999Z</time></trkpt><trkpt lat="43.00292393865484" lon="12.838998747314378"><ele>851.0</ele><time>2026-04-04T10:13:41.999Z</time></trkpt><trkpt lat="43.00304893206666" lon="12.83902598678217"><ele>851.0</ele><time>2026-04-04T10:13:42.999Z</time></trkpt><trkpt lat="43.00318317661769" lon="12.839053470212777"><ele>851.0</ele><time>2026-04-04T10:13:43.999Z</time></trkpt><trkpt lat="43.00332188171961" lon="12.839081220045673"><ele>851.0</ele><time>2026-04-04T10:13:44.999Z</time></trkpt><trkpt lat="43.00346361148631" lon="12.839106810024601"><ele>851.0</ele><time>2026-04-04T10:13:45.999Z</time></trkpt><trkpt lat="43.00360497395597" lon="12.839124951131735"><ele>849.25</ele><time>2026-04-04T10:13:46.999Z</time></trkpt><trkpt lat="43.003742334522045" lon="12.839138218210023"><ele>847.5</ele><time>2026-04-04T10:13:47.999Z</time></trkpt><trkpt lat="43.00388362268277" lon="12.839151650635502"><ele>845.75</ele><time>2026-04-04T10:13:48.999Z</time></trkpt><trkpt lat="43.00402248972927" lon="12.839164878176046"><ele>844.0</ele><time>2026-04-04T10:13:49.999Z</time></trkpt><trkpt lat="43.00415796794787" lon="12.839202189386759"><ele>843.75</ele><time>2026-04-04T10:13:50.999Z</time></trkpt><trkpt lat="43.004309348541625" lon="12.839218419536397"><ele>843.5</ele><time>2026-04-04T10:13:51.999Z</time></trkpt><trkpt lat="43.00445995742162" lon="12.839235824069839"><ele>843.25</ele><time>2026-04-04T10:13:52.999Z</time></trkpt><trkpt lat="43.00459747716602" lon="12.83924853288882"><ele>843.0</ele><time>2026-04-04T10:13:53.999Z</time></trkpt><trkpt lat="43.00471738178585" lon="12.839263506476167"><ele>843.0</ele><time>2026-04-04T10:13:54.999Z</time></trkpt><trkpt lat="43.00482838565324" lon="12.839276385319561"><ele>843.0</ele><time>2026-04-04T10:13:55.999Z</time></trkpt><trkpt lat="43.00494261468797" lon="12.839289029563643"><ele>843.0</ele><time>2026-04-04T10:13:56.999Z</time></trkpt><trkpt lat="43.00506268066102" lon="12.839277118050374"><ele>843.0</ele><time>2026-04-04T10:13:57.999Z</time></trkpt><trkpt lat="43.00517481298274" lon="12.839279385498218"><ele>843.0</ele><time>2026-04-04T10:13:58.999Z</time></trkpt><trkpt lat="43.005283046756986" lon="12.839291545933355"><ele>843.0</ele><time>2026-04-04T10:13:59.999Z</time></trkpt><trkpt lat="43.00538827527385" lon="12.839266754185187"><ele>843.0</ele><time>2026-04-04T10:14:00.999Z</time></trkpt><trkpt lat="43.00547281603002" lon="12.839230555165345"><ele>843.0</ele><time>2026-04-04T10:14:01.999Z</time></trkpt><trkpt lat="43.00556298481612" lon="12.839184556241834"><ele>843.0</ele><time>2026-04-04T10:14:02.999Z</time></trkpt><trkpt lat="43.00564724531665" lon="12.83913491615889"><ele>843.0</ele><time>2026-04-04T10:14:03.999Z</time></trkpt><trkpt lat="43.005724986017064" lon="12.83907416727659"><ele>843.0</ele><time>2026-04-04T10:14:04.999Z</time></trkpt><trkpt lat="43.00579329556306" lon="12.839008541862405"><ele>843.0</ele><time>2026-04-04T10:14:05.999Z</time></trkpt><trkpt lat="43.005856283297696" lon="12.83894839018904"><ele>843.0</ele><time>2026-04-04T10:14:06.999Z</time></trkpt><trkpt lat="43.00592438084849" lon="12.838885611941263"><ele>843.0</ele><time>2026-04-04T10:14:07.999Z</time></trkpt><trkpt lat="43.00599254867296" lon="12.838819526217485"><ele>843.0</ele><time>2026-04-04T10:14:08.999Z</time></trkpt><trkpt lat="43.00605984428641" lon="12.838747093705916"><ele>841.8</ele><time>2026-04-04T10:14:09.999Z</time></trkpt><trkpt lat="43.006131229068956" lon="12.838674279858804"><ele>840.5999999999999</ele><time>2026-04-04T10:14:10.999Z</time></trkpt><trkpt lat="43.00620777057739" lon="12.838590686389471"><ele>839.4000000000001</ele><time>2026-04-04T10:14:11.999Z</time></trkpt><trkpt lat="43.00628225551195" lon="12.838499465480387"><ele>838.2</ele><time>2026-04-04T10:14:12.999Z</time></trkpt><trkpt lat="43.00635289291986" lon="12.83839658334794"><ele>837.0</ele><time>2026-04-04T10:14:13.999Z</time></trkpt><trkpt lat="43.00641484614265" lon="12.838295489809646"><ele>837.0</ele><time>2026-04-04T10:14:14.999Z</time></trkpt><trkpt lat="43.00648504708556" lon="12.838182550103209"><ele>837.0</ele><time>2026-04-04T10:14:15.999Z</time></trkpt><trkpt lat="43.00657888444674" lon="12.838081515656686"><ele>837.0</ele><time>2026-04-04T10:14:16.999Z</time></trkpt><trkpt lat="43.00664519157292" lon="12.837969586253196"><ele>837.0</ele><time>2026-04-04T10:14:17.999Z</time></trkpt><trkpt lat="43.00674412191311" lon="12.837877865085932"><ele>834.25</ele><time>2026-04-04T10:14:19Z</time></trkpt><trkpt lat="43.0068505077901" lon="12.837790612263547"><ele>831.5</ele><time>2026-04-04T10:14:20Z</time></trkpt><trkpt lat="43.00696293217998" lon="12.837701055675414"><ele>828.75</ele><time>2026-04-04T10:14:21Z</time></trkpt><trkpt lat="43.00707741826914" lon="12.837618020402259"><ele>826.0</ele><time>2026-04-04T10:14:22Z</time></trkpt><trkpt lat="43.007185194155454" lon="12.83753471910256"><ele>826.0</ele><time>2026-04-04T10:14:23Z</time></trkpt><trkpt lat="43.00728583095739" lon="12.837441444831299"><ele>826.0</ele><time>2026-04-04T10:14:24Z</time></trkpt><trkpt lat="43.007376793966934" lon="12.837352552175616"><ele>826.0</ele><time>2026-04-04T10:14:25Z</time></trkpt><trkpt lat="43.00745988397409" lon="12.837267965440768"><ele>826.0</ele><time>2026-04-04T10:14:26Z</time></trkpt><trkpt lat="43.007536647698636" lon="12.837183650311964"><ele>826.0</ele><time>2026-04-04T10:14:27Z</time></trkpt><trkpt lat="43.007601473038235" lon="12.837098476350624"><ele>824.5999999999999</ele><time>2026-04-04T10:14:28Z</time></trkpt><trkpt lat="43.00765771319448" lon="12.837028991091437"><ele>823.2</ele><time>2026-04-04T10:14:29Z</time></trkpt><trkpt lat="43.00771294647542" lon="12.836971027982715"><ele>821.8</ele><time>2026-04-04T10:14:31Z</time></trkpt><trkpt lat="43.00783343236609" lon="12.837069701703626"><ele>820.4000000000001</ele><time>2026-04-04T10:14:33Z</time></trkpt><trkpt lat="43.007803306156426" lon="12.837233418183793"><ele>819.0</ele><time>2026-04-04T10:14:34Z</time></trkpt><trkpt lat="43.007831222673786" lon="12.83735526756093"><ele>819.0</ele><time>2026-04-04T10:14:35Z</time></trkpt><trkpt lat="43.00786954488439" lon="12.8374696663919"><ele>819.0</ele><time>2026-04-04T10:14:36Z</time></trkpt><trkpt lat="43.00790434240638" lon="12.837580123070815"><ele>819.0</ele><time>2026-04-04T10:14:37Z</time></trkpt><trkpt lat="43.00794317698274" lon="12.837672120708755"><ele>819.0</ele><time>2026-04-04T10:14:38Z</time></trkpt><trkpt lat="43.008002338851334" lon="12.837756308798669"><ele>819.0</ele><time>2026-04-04T10:14:39Z</time></trkpt><trkpt lat="43.00808060117359" lon="12.837822436293536"><ele>819.0</ele><time>2026-04-04T10:14:40Z</time></trkpt><trkpt lat="43.00817365200134" lon="12.837879400475476"><ele>818.2</ele><time>2026-04-04T10:14:41Z</time></trkpt><trkpt lat="43.008257963600485" lon="12.837939743235934"><ele>817.4000000000001</ele><time>2026-04-04T10:14:42Z</time></trkpt><trkpt lat="43.00833931993141" lon="12.838017032717698"><ele>816.6</ele><time>2026-04-04T10:14:43Z</time></trkpt><trkpt lat="43.00839153144794" lon="12.838132047070024"><ele>815.8</ele><time>2026-04-04T10:14:44Z</time></trkpt><trkpt lat="43.00845805677612" lon="12.83822751894809"><ele>815.0</ele><time>2026-04-04T10:14:45Z</time></trkpt><trkpt lat="43.008521622700265" lon="12.838331961468544"><ele>814.5000000000001</ele><time>2026-04-04T10:14:46Z</time></trkpt><trkpt lat="43.008585550368146" lon="12.83841624779719"><ele>814.0</ele><time>2026-04-04T10:14:47Z</time></trkpt><trkpt lat="43.008648469513574" lon="12.838478231915433"><ele>813.5</ele><time>2026-04-04T10:14:48Z</time></trkpt><trkpt lat="43.00870412628174" lon="12.838545653813984"><ele>813.0</ele><time>2026-04-04T10:14:49Z</time></trkpt><trkpt lat="43.00876118639064" lon="12.838609080012318"><ele>812.5000000000001</ele><time>2026-04-04T10:14:50Z</time></trkpt><trkpt lat="43.00883126989771" lon="12.83865431053498"><ele>812.0</ele><time>2026-04-04T10:14:51Z</time></trkpt><trkpt lat="43.008902191791414" lon="12.83869962018344"><ele>812.1666666666667</ele><time>2026-04-04T10:14:52Z</time></trkpt><trkpt lat="43.00897099538154" lon="12.838740039093246"><ele>812.3333333333334</ele><time>2026-04-04T10:14:53Z</time></trkpt><trkpt lat="43.00904567311806" lon="12.838770445463155"><ele>812.5</ele><time>2026-04-04T10:14:54Z</time></trkpt><trkpt lat="43.00912590130942" lon="12.838808401565931"><ele>812.6666666666667</ele><time>2026-04-04T10:14:55Z</time></trkpt><trkpt lat="43.00921380530149" lon="12.838847462989412"><ele>812.8333333333334</ele><time>2026-04-04T10:14:56Z</time></trkpt><trkpt lat="43.009299648608895" lon="12.838885389493319"><ele>813.0</ele><time>2026-04-04T10:14:57Z</time></trkpt><trkpt lat="43.00939864519046" lon="12.838919818120056"><ele>813.0</ele><time>2026-04-04T10:14:58Z</time></trkpt><trkpt lat="43.00948368217565" lon="12.838965331013611"><ele>813.0</ele><time>2026-04-04T10:14:59Z</time></trkpt><trkpt lat="43.00954646929722" lon="12.839027426560857"><ele>813.0</ele><time>2026-04-04T10:15:00Z</time></trkpt><trkpt lat="43.00959520467465" lon="12.839099045400031"><ele>813.0</ele><time>2026-04-04T10:15:01Z</time></trkpt><trkpt lat="43.00957329064972" lon="12.839197371915295"><ele>813.0</ele><time>2026-04-04T10:15:02Z</time></trkpt><trkpt lat="43.00957471360088" lon="12.839415298128353"><ele>812.0</ele><time>2026-04-04T10:15:04Z</time></trkpt><trkpt lat="43.009617699936506" lon="12.839526614664729"><ele>811.0</ele><time>2026-04-04T10:15:05Z</time></trkpt><trkpt lat="43.00964686754779" lon="12.839622653184021"><ele>810.0</ele><time>2026-04-04T10:15:06Z</time></trkpt><trkpt lat="43.00966668439646" lon="12.839716648590066"><ele>809.0</ele><time>2026-04-04T10:15:07Z</time></trkpt><trkpt lat="43.00970654661731" lon="12.839862822998649"><ele>808.0</ele><time>2026-04-04T10:15:09Z</time></trkpt><trkpt lat="43.00973971838606" lon="12.839962102263122"><ele>807.0</ele><time>2026-04-04T10:15:12Z</time></trkpt><trkpt lat="43.009807751523205" lon="12.839984656356053"><ele>807.0</ele><time>2026-04-04T10:15:14Z</time></trkpt><trkpt lat="43.009875797229384" lon="12.839880226775483"><ele>807.0</ele><time>2026-04-04T10:15:16Z</time></trkpt><trkpt lat="43.00990157733915" lon="12.839783589605652"><ele>807.0</ele><time>2026-04-04T10:15:17Z</time></trkpt><trkpt lat="43.00994812416548" lon="12.839692728872784"><ele>807.0</ele><time>2026-04-04T10:15:18Z</time></trkpt><trkpt lat="43.01001418539363" lon="12.839606268529035"><ele>807.0</ele><time>2026-04-04T10:15:19Z</time></trkpt><trkpt lat="43.01008744826288" lon="12.83950280115157"><ele>809.0</ele><time>2026-04-04T10:15:20Z</time></trkpt><trkpt lat="43.010152905608656" lon="12.839407885089175"><ele>811.0</ele><time>2026-04-04T10:15:21Z</time></trkpt><trkpt lat="43.010227067029554" lon="12.839317358345498"><ele>813.0</ele><time>2026-04-04T10:15:22Z</time></trkpt><trkpt lat="43.010310658393" lon="12.839220227809932"><ele>815.0</ele><time>2026-04-04T10:15:23Z</time></trkpt><trkpt lat="43.01038628736438" lon="12.83912779294939"><ele>817.0</ele><time>2026-04-04T10:15:24Z</time></trkpt><trkpt lat="43.01046831901955" lon="12.839013986569915"><ele>819.4000000000001</ele><time>2026-04-04T10:15:25Z</time></trkpt><trkpt lat="43.010548900468486" lon="12.838910480503136"><ele>821.8000000000001</ele><time>2026-04-04T10:15:26Z</time></trkpt><trkpt lat="43.01062529342973" lon="12.838806444690947"><ele>824.2</ele><time>2026-04-04T10:15:27Z</time></trkpt><trkpt lat="43.010698777643185" lon="12.838700883043682"><ele>826.6</ele><time>2026-04-04T10:15:28Z</time></trkpt><trkpt lat="43.01076876121785" lon="12.838599403563968"><ele>829.0</ele><time>2026-04-04T10:15:29Z</time></trkpt><trkpt lat="43.01082151583004" lon="12.83848272656078"><ele>835.0</ele><time>2026-04-04T10:15:30Z</time></trkpt><trkpt lat="43.01086684836336" lon="12.838343916681687"><ele>841.0</ele><time>2026-04-04T10:15:31Z</time></trkpt><trkpt lat="43.01089086333851" lon="12.838211608964576"><ele>847.0000000000001</ele><time>2026-04-04T10:15:32Z</time></trkpt><trkpt lat="43.01089292574298" lon="12.838061861951832"><ele>853.0</ele><time>2026-04-04T10:15:33Z</time></trkpt><trkpt lat="43.01087528245944" lon="12.837914641768036"><ele>859.0</ele><time>2026-04-04T10:15:34Z</time></trkpt><trkpt lat="43.01087574180762" lon="12.837769408705519"><ele>861.2</ele><time>2026-04-04T10:15:34.999Z</time></trkpt><trkpt lat="43.01091226958505" lon="12.837622566969422"><ele>863.4000000000001</ele><time>2026-04-04T10:15:35.999Z</time></trkpt><trkpt lat="43.01095133009707" lon="12.837471165856618"><ele>865.6</ele><time>2026-04-04T10:15:36.999Z</time></trkpt><trkpt lat="43.01098070793417" lon="12.83732417084727"><ele>867.8</ele><time>2026-04-04T10:15:37.999Z</time></trkpt><trkpt lat="43.01099862609062" lon="12.837196530039753"><ele>870.0</ele><time>2026-04-04T10:15:38.999Z</time></trkpt><trkpt lat="43.011012944127664" lon="12.83710307596115"><ele>870.0</ele><time>2026-04-04T10:15:39.999Z</time></trkpt><trkpt lat="43.01104314180569" lon="12.837022027617335"><ele>870.0</ele><time>2026-04-04T10:15:40.999Z</time></trkpt><trkpt lat="43.011099116911666" lon="12.836954827144641"><ele>870.0</ele><time>2026-04-04T10:15:41.999Z</time></trkpt><trkpt lat="43.01118799682969" lon="12.836906656384842"><ele>870.0</ele><time>2026-04-04T10:15:42.999Z</time></trkpt><trkpt lat="43.01129071502198" lon="12.83683832991994"><ele>870.0</ele><time>2026-04-04T10:15:43.999Z</time></trkpt><trkpt lat="43.0113755289391" lon="12.836754851128768"><ele>871.0</ele><time>2026-04-04T10:15:44.999Z</time></trkpt><trkpt lat="43.01146384220044" lon="12.836665449016685"><ele>872.0</ele><time>2026-04-04T10:15:45.999Z</time></trkpt><trkpt lat="43.01155062442775" lon="12.836582557538769"><ele>873.0</ele><time>2026-04-04T10:15:46.999Z</time></trkpt><trkpt lat="43.01162462630502" lon="12.836511093487292"><ele>874.0</ele><time>2026-04-04T10:15:47.999Z</time></trkpt><trkpt lat="43.01169301976028" lon="12.836448450206094"><ele>875.0</ele><time>2026-04-04T10:15:48.999Z</time></trkpt><trkpt lat="43.01175994597964" lon="12.83639180948174"><ele>875.0</ele><time>2026-04-04T10:15:49.999Z</time></trkpt><trkpt lat="43.011850734167844" lon="12.836310188969218"><ele>875.0</ele><time>2026-04-04T10:15:51.999Z</time></trkpt><trkpt lat="43.011868962557486" lon="12.836179210122904"><ele>875.0</ele><time>2026-04-04T10:15:53.999Z</time></trkpt><trkpt lat="43.011851223838555" lon="12.836089475255108"><ele>875.0</ele><time>2026-04-04T10:15:54.999Z</time></trkpt><trkpt lat="43.01179594760802" lon="12.835953203471467"><ele>875.0</ele><time>2026-04-04T10:15:56.999Z</time></trkpt><trkpt lat="43.01176329288253" lon="12.835809648680844"><ele>874.8</ele><time>2026-04-04T10:15:58.999Z</time></trkpt><trkpt lat="43.01172964327831" lon="12.835668739683"><ele>874.6</ele><time>2026-04-04T10:16:00.999Z</time></trkpt><trkpt lat="43.011683286750326" lon="12.835488729916557"><ele>874.4000000000001</ele><time>2026-04-04T10:16:02.999Z</time></trkpt><trkpt lat="43.01165760938193" lon="12.835374734181888"><ele>874.2</ele><time>2026-04-04T10:16:03.999Z</time></trkpt><trkpt lat="43.011634934121" lon="12.835245951480394"><ele>874.0</ele><time>2026-04-04T10:16:04.999Z</time></trkpt><trkpt lat="43.011611556027795" lon="12.835132159119478"><ele>871.6666666666666</ele><time>2026-04-04T10:16:05.999Z</time></trkpt><trkpt lat="43.01158321839512" lon="12.835010021043054"><ele>869.3333333333333</ele><time>2026-04-04T10:16:06.999Z</time></trkpt><trkpt lat="43.01156816514919" lon="12.834917588303043"><ele>867.0</ele><time>2026-04-04T10:16:07.999Z</time></trkpt><trkpt lat="43.011560419950676" lon="12.834824848188543"><ele>864.6666666666667</ele><time>2026-04-04T10:16:08.999Z</time></trkpt><trkpt lat="43.01155522004265" lon="12.83470267710409"><ele>862.3333333333334</ele><time>2026-04-04T10:16:09.999Z</time></trkpt><trkpt lat="43.011565992242716" lon="12.834542395237321"><ele>860.0</ele><time>2026-04-04T10:16:10.999Z</time></trkpt><trkpt lat="43.01159449569851" lon="12.83440075854101"><ele>860.0000000000001</ele><time>2026-04-04T10:16:11.999Z</time></trkpt><trkpt lat="43.011641179409786" lon="12.834315644963237"><ele>860.0</ele><time>2026-04-04T10:16:12.999Z</time></trkpt><trkpt lat="43.01168426560879" lon="12.834239551872534"><ele>860.0</ele><time>2026-04-04T10:16:13.999Z</time></trkpt><trkpt lat="43.01172620215605" lon="12.834158977223783"><ele>860.0</ele><time>2026-04-04T10:16:14.999Z</time></trkpt><trkpt lat="43.01180545260074" lon="12.83403568966984"><ele>860.0000000000001</ele><time>2026-04-04T10:16:16.999Z</time></trkpt><trkpt lat="43.01185574962572" lon="12.833966113967781"><ele>860.0</ele><time>2026-04-04T10:16:17.999Z</time></trkpt><trkpt lat="43.01190762323218" lon="12.83390238733572"><ele>861.4</ele><time>2026-04-04T10:16:18.999Z</time></trkpt><trkpt lat="43.01195155530824" lon="12.833784788645831"><ele>862.8</ele><time>2026-04-04T10:16:20.999Z</time></trkpt><trkpt lat="43.0118855353616" lon="12.83369868153699"><ele>864.2</ele><time>2026-04-04T10:16:22.999Z</time></trkpt><trkpt lat="43.0117618562226" lon="12.83373389764478"><ele>865.6</ele><time>2026-04-04T10:16:25Z</time></trkpt><trkpt lat="43.01165462749356" lon="12.83375039068696"><ele>867.0</ele><time>2026-04-04T10:16:26Z</time></trkpt><trkpt lat="43.01154360701202" lon="12.833737769422388"><ele>867.0</ele><time>2026-04-04T10:16:27Z</time></trkpt><trkpt lat="43.01141776875306" lon="12.833482987301002"><ele>867.0</ele><time>2026-04-04T10:16:28Z</time></trkpt><trkpt lat="43.011325963379036" lon="12.833469030974738"><ele>867.0</ele><time>2026-04-04T10:16:29Z</time></trkpt><trkpt lat="43.01124753135041" lon="12.83344028528987"><ele>867.0</ele><time>2026-04-04T10:16:30Z</time></trkpt><trkpt lat="43.01116687063309" lon="12.833401182610686"><ele>866.0</ele><time>2026-04-04T10:16:31Z</time></trkpt><trkpt lat="43.01110357437544" lon="12.833371177096076"><ele>865.0</ele><time>2026-04-04T10:16:33Z</time></trkpt><trkpt lat="43.011029497883264" lon="12.833325097549848"><ele>864.0</ele><time>2026-04-04T10:16:53Z</time></trkpt><trkpt lat="43.01094626590783" lon="12.833245655661708"><ele>863.0</ele><time>2026-04-04T10:16:55Z</time></trkpt><trkpt lat="43.01085009577192" lon="12.833159816556938"><ele>862.0</ele><time>2026-04-04T10:16:57Z</time></trkpt><trkpt lat="43.01075769450165" lon="12.833079244918057"><ele>862.0</ele><time>2026-04-04T10:16:59Z</time></trkpt><trkpt lat="43.01069657694618" lon="12.833013453050182"><ele>862.0</ele><time>2026-04-04T10:17:01Z</time></trkpt><trkpt lat="43.01082025248898" lon="12.832646436690952"><ele>862.0</ele><time>2026-04-04T10:17:03Z</time></trkpt><trkpt lat="43.01081048457871" lon="12.832501444319739"><ele>863.4999999999999</ele><time>2026-04-04T10:17:05Z</time></trkpt><trkpt lat="43.01080182545325" lon="12.832407784164099"><ele>865.0</ele><time>2026-04-04T10:17:06Z</time></trkpt><trkpt lat="43.010782489016" lon="12.832314848040246"><ele>866.5</ele><time>2026-04-04T10:17:07Z</time></trkpt><trkpt lat="43.01074935734385" lon="12.83223831159545"><ele>868.0</ele><time>2026-04-04T10:17:08Z</time></trkpt><trkpt lat="43.010660783805136" lon="12.832122535619703"><ele>869.4999999999999</ele><time>2026-04-04T10:17:10Z</time></trkpt><trkpt lat="43.01061173565778" lon="12.832064652766412"><ele>871.0</ele><time>2026-04-04T10:17:11Z</time></trkpt><trkpt lat="43.01055046752845" lon="12.83195509682892"><ele>871.0</ele><time>2026-04-04T10:17:13Z</time></trkpt><trkpt lat="43.01054908696984" lon="12.831854526784696"><ele>870.9999999999999</ele><time>2026-04-04T10:17:15Z</time></trkpt><trkpt lat="43.010621119480014" lon="12.831772783199291"><ele>870.9999999999999</ele><time>2026-04-04T10:17:17Z</time></trkpt><trkpt lat="43.010684086875884" lon="12.831735926379903"><ele>871.0</ele><time>2026-04-04T10:17:18Z</time></trkpt><trkpt lat="43.010779616840395" lon="12.831662275208265"><ele>871.0</ele><time>2026-04-04T10:17:19Z</time></trkpt><trkpt lat="43.01088782726359" lon="12.831580360096131"><ele>878.25</ele><time>2026-04-04T10:17:20Z</time></trkpt><trkpt lat="43.01100046245732" lon="12.831501084109137"><ele>885.5</ele><time>2026-04-04T10:17:21Z</time></trkpt><trkpt lat="43.011128206652934" lon="12.831422522627685"><ele>892.75</ele><time>2026-04-04T10:17:22Z</time></trkpt><trkpt lat="43.011220224853545" lon="12.83136368162809"><ele>900.0</ele><time>2026-04-04T10:17:23Z</time></trkpt><trkpt lat="43.01131206989012" lon="12.831271313780723"><ele>900.0</ele><time>2026-04-04T10:17:25Z</time></trkpt><trkpt lat="43.01137109921125" lon="12.831181215377816"><ele>900.0</ele><time>2026-04-04T10:17:28Z</time></trkpt><trkpt lat="43.01142913506163" lon="12.831086002415745"><ele>900.0</ele><time>2026-04-04T10:17:31Z</time></trkpt><trkpt lat="43.011499499127694" lon="12.831022843371064"><ele>900.0</ele><time>2026-04-04T10:17:33Z</time></trkpt><trkpt lat="43.01160353766922" lon="12.831059149157898"><ele>900.0</ele><time>2026-04-04T10:17:35Z</time></trkpt><trkpt lat="43.01167228662405" lon="12.831096772134197"><ele>900.0</ele><time>2026-04-04T10:17:36Z</time></trkpt><trkpt lat="43.011746806990764" lon="12.831087445660277"><ele>903.75</ele><time>2026-04-04T10:17:37Z</time></trkpt><trkpt lat="43.01183557987845" lon="12.831054171355845"><ele>907.5</ele><time>2026-04-04T10:17:38Z</time></trkpt><trkpt lat="43.01193755977508" lon="12.830996641541262"><ele>911.25</ele><time>2026-04-04T10:17:39Z</time></trkpt><trkpt lat="43.01205588185119" lon="12.83089846627171"><ele>915.0</ele><time>2026-04-04T10:17:40Z</time></trkpt><trkpt lat="43.01218824491715" lon="12.830802952179933"><ele>915.5</ele><time>2026-04-04T10:17:41Z</time></trkpt><trkpt lat="43.01233388442456" lon="12.83072978122991"><ele>916.0</ele><time>2026-04-04T10:17:42Z</time></trkpt><trkpt lat="43.0124673721334" lon="12.830619211280418"><ele>916.5</ele><time>2026-04-04T10:17:43Z</time></trkpt><trkpt lat="43.01258269344151" lon="12.830548461533088"><ele>917.0</ele><time>2026-04-04T10:17:44Z</time></trkpt><trkpt lat="43.01269245606168" lon="12.830482806273682"><ele>917.6666666666667</ele><time>2026-04-04T10:17:45Z</time></trkpt><trkpt lat="43.012783219661" lon="12.83041767256009"><ele>918.3333333333334</ele><time>2026-04-04T10:17:46Z</time></trkpt><trkpt lat="43.0128540050067" lon="12.830369294159743"><ele>919.0</ele><time>2026-04-04T10:17:46.999Z</time></trkpt><trkpt lat="43.012913011961125" lon="12.8303313121782"><ele>919.6666666666667</ele><time>2026-04-04T10:17:47.999Z</time></trkpt><trkpt lat="43.01299089002386" lon="12.830270989887127"><ele>920.3333333333334</ele><time>2026-04-04T10:17:49.999Z</time></trkpt><trkpt lat="43.013066481464584" lon="12.830215572223"><ele>921.0</ele><time>2026-04-04T10:18:26.999Z</time></trkpt><trkpt lat="43.0130823767133" lon="12.830102889870231"><ele>921.0</ele><time>2026-04-04T10:18:28.999Z</time></trkpt><trkpt lat="43.01306873730232" lon="12.829924522168138"><ele>920.9999999999999</ele><time>2026-04-04T10:18:31Z</time></trkpt><trkpt lat="43.01305970356332" lon="12.829799972279725"><ele>920.9999999999999</ele><time>2026-04-04T10:18:32Z</time></trkpt><trkpt lat="43.013048541497994" lon="12.8296628923937"><ele>921.0</ele><time>2026-04-04T10:18:33Z</time></trkpt><trkpt lat="43.01302531357011" lon="12.82950383947659"><ele>921.0</ele><time>2026-04-04T10:18:34Z</time></trkpt><trkpt lat="43.01300493980963" lon="12.829334215272553"><ele>920.4</ele><time>2026-04-04T10:18:35Z</time></trkpt><trkpt lat="43.01299629457089" lon="12.829172554171098"><ele>919.8</ele><time>2026-04-04T10:18:36Z</time></trkpt><trkpt lat="43.01299683722331" lon="12.829023887870829"><ele>919.1999999999999</ele><time>2026-04-04T10:18:37Z</time></trkpt><trkpt lat="43.013001946022115" lon="12.828879849135411"><ele>918.5999999999999</ele><time>2026-04-04T10:18:38Z</time></trkpt><trkpt lat="43.0130079824642" lon="12.82873803521274"><ele>918.0</ele><time>2026-04-04T10:18:39Z</time></trkpt><trkpt lat="43.01302835639697" lon="12.82858078708024"><ele>917.75</ele><time>2026-04-04T10:18:40Z</time></trkpt><trkpt lat="43.01305220494036" lon="12.828387585298675"><ele>917.5</ele><time>2026-04-04T10:18:41Z</time></trkpt><trkpt lat="43.01307233537211" lon="12.828199595467062"><ele>917.25</ele><time>2026-04-04T10:18:42Z</time></trkpt><trkpt lat="43.0130889900256" lon="12.828004232250478"><ele>917.0</ele><time>2026-04-04T10:18:43Z</time></trkpt><trkpt lat="43.01310137310775" lon="12.827808454092038"><ele>916.75</ele><time>2026-04-04T10:18:44Z</time></trkpt><trkpt lat="43.01310835001112" lon="12.827627301453651"><ele>916.5</ele><time>2026-04-04T10:18:45Z</time></trkpt><trkpt lat="43.01310797177446" lon="12.82746383988731"><ele>916.25</ele><time>2026-04-04T10:18:46Z</time></trkpt><trkpt lat="43.01310271105693" lon="12.827315223958195"><ele>916.0</ele><time>2026-04-04T10:18:47Z</time></trkpt><trkpt lat="43.013102031289044" lon="12.827176108447004"><ele>916.0</ele><time>2026-04-04T10:18:48Z</time></trkpt><trkpt lat="43.01309999858555" lon="12.82703469091888"><ele>916.0</ele><time>2026-04-04T10:18:49Z</time></trkpt><trkpt lat="43.013084705813455" lon="12.826874279270282"><ele>916.0</ele><time>2026-04-04T10:18:50Z</time></trkpt><trkpt lat="43.013068904971966" lon="12.82670833566765"><ele>916.0</ele><time>2026-04-04T10:18:51Z</time></trkpt><trkpt lat="43.01305125066238" lon="12.826543909898609"><ele>915.5</ele><time>2026-04-04T10:18:52Z</time></trkpt><trkpt lat="43.013037741280264" lon="12.826383423499134"><ele>915.0</ele><time>2026-04-04T10:18:53Z</time></trkpt><trkpt lat="43.013027296245774" lon="12.826220364967405"><ele>914.5</ele><time>2026-04-04T10:18:54Z</time></trkpt><trkpt lat="43.01302530143071" lon="12.826052535183555"><ele>914.0</ele><time>2026-04-04T10:18:55Z</time></trkpt><trkpt lat="43.0130240174491" lon="12.825879540426257"><ele>913.0</ele><time>2026-04-04T10:18:56Z</time></trkpt><trkpt lat="43.01304165741597" lon="12.825692471378671"><ele>912.0</ele><time>2026-04-04T10:18:57Z</time></trkpt><trkpt lat="43.01304754837675" lon="12.82551374113728"><ele>911.0</ele><time>2026-04-04T10:18:58Z</time></trkpt><trkpt lat="43.01306118530551" lon="12.825338750276744"><ele>910.0</ele><time>2026-04-04T10:18:59Z</time></trkpt><trkpt lat="43.013064122154965" lon="12.82517841141038"><ele>909.25</ele><time>2026-04-04T10:19:00Z</time></trkpt><trkpt lat="43.01305699162358" lon="12.82501531477983"><ele>908.5</ele><time>2026-04-04T10:19:01Z</time></trkpt><trkpt lat="43.0130439092586" lon="12.824846675837723"><ele>907.75</ele><time>2026-04-04T10:19:02Z</time></trkpt><trkpt lat="43.01302690134511" lon="12.824670646393228"><ele>907.0</ele><time>2026-04-04T10:19:03Z</time></trkpt><trkpt lat="43.01302722466066" lon="12.82450533877473"><ele>907.0</ele><time>2026-04-04T10:19:04Z</time></trkpt><trkpt lat="43.01302337159192" lon="12.824333136634355"><ele>907.0</ele><time>2026-04-04T10:19:05Z</time></trkpt><trkpt lat="43.013004251582586" lon="12.824137704240526"><ele>907.0</ele><time>2026-04-04T10:19:06Z</time></trkpt><trkpt lat="43.01299661235618" lon="12.823969250449887"><ele>907.0</ele><time>2026-04-04T10:19:07Z</time></trkpt><trkpt lat="43.01300545534209" lon="12.823798316966673"><ele>906.4999999999999</ele><time>2026-04-04T10:19:08Z</time></trkpt><trkpt lat="43.01303617401996" lon="12.823649449480213"><ele>906.0</ele><time>2026-04-04T10:19:09Z</time></trkpt><trkpt lat="43.013047806258264" lon="12.82355868748347"><ele>905.5</ele><time>2026-04-04T10:19:10Z</time></trkpt><trkpt lat="43.0130632795598" lon="12.823474243197742"><ele>905.0</ele><time>2026-04-04T10:19:11Z</time></trkpt><trkpt lat="43.01308324556901" lon="12.823370450268467"><ele>904.4999999999999</ele><time>2026-04-04T10:19:13Z</time></trkpt><trkpt lat="43.013116493983524" lon="12.823260461023848"><ele>904.0</ele><time>2026-04-04T10:19:32Z</time></trkpt><trkpt lat="43.013143978931275" lon="12.82313116508412"><ele>903.6</ele><time>2026-04-04T10:19:34Z</time></trkpt><trkpt lat="43.013166256555856" lon="12.822957544997385"><ele>903.2</ele><time>2026-04-04T10:19:36Z</time></trkpt><trkpt lat="43.01317970762338" lon="12.822858469741623"><ele>902.8000000000001</ele><time>2026-04-04T10:19:37Z</time></trkpt><trkpt lat="43.01320438479909" lon="12.822750672884254"><ele>902.4000000000001</ele><time>2026-04-04T10:19:38Z</time></trkpt><trkpt lat="43.0132351290705" lon="12.822631694534772"><ele>902.0</ele><time>2026-04-04T10:19:39Z</time></trkpt><trkpt lat="43.01328146898667" lon="12.822492214911888"><ele>903.8</ele><time>2026-04-04T10:19:40Z</time></trkpt><trkpt lat="43.013334248131116" lon="12.822344442126747"><ele>905.6</ele><time>2026-04-04T10:19:41Z</time></trkpt><trkpt lat="43.01339560587222" lon="12.822202714074438"><ele>907.3999999999999</ele><time>2026-04-04T10:19:42Z</time></trkpt><trkpt lat="43.01344676732092" lon="12.822075282833246"><ele>909.1999999999999</ele><time>2026-04-04T10:19:43Z</time></trkpt><trkpt lat="43.013490380319794" lon="12.821963936899703"><ele>911.0</ele><time>2026-04-04T10:19:44Z</time></trkpt><trkpt lat="43.01352997478757" lon="12.821846977611747"><ele>909.0</ele><time>2026-04-04T10:19:45Z</time></trkpt><trkpt lat="43.0135726940406" lon="12.821711789743112"><ele>906.9999999999999</ele><time>2026-04-04T10:19:46Z</time></trkpt><trkpt lat="43.013620659198985" lon="12.821591503290387"><ele>904.9999999999999</ele><time>2026-04-04T10:19:47Z</time></trkpt><trkpt lat="43.01366585193844" lon="12.821483113725401"><ele>903.0</ele><time>2026-04-04T10:19:48Z</time></trkpt><trkpt lat="43.01370979259904" lon="12.82137829740322"><ele>901.0</ele><time>2026-04-04T10:19:49Z</time></trkpt><trkpt lat="43.013731529803685" lon="12.821246184709791"><ele>901.0</ele><time>2026-04-04T10:19:50Z</time></trkpt><trkpt lat="43.01377830685748" lon="12.82111188564691"><ele>900.9999999999999</ele><time>2026-04-04T10:19:51Z</time></trkpt><trkpt lat="43.013807173379256" lon="12.820977249751245"><ele>900.9999999999999</ele><time>2026-04-04T10:19:52Z</time></trkpt><trkpt lat="43.013846494289936" lon="12.820842626365476"><ele>901.0</ele><time>2026-04-04T10:19:53Z</time></trkpt><trkpt lat="43.01388731442" lon="12.82073229701873"><ele>901.0</ele><time>2026-04-04T10:19:54Z</time></trkpt><trkpt lat="43.013904959803504" lon="12.820626640475103"><ele>899.1999999999999</ele><time>2026-04-04T10:19:55Z</time></trkpt><trkpt lat="43.01393873555127" lon="12.82053909319375"><ele>897.3999999999999</ele><time>2026-04-04T10:19:56Z</time></trkpt><trkpt lat="43.01399620675518" lon="12.820435804275347"><ele>895.6</ele><time>2026-04-04T10:19:57Z</time></trkpt><trkpt lat="43.014049781412126" lon="12.820322485001224"><ele>893.8</ele><time>2026-04-04T10:19:57.999Z</time></trkpt><trkpt lat="43.01409697603447" lon="12.820205476408772"><ele>892.0</ele><time>2026-04-04T10:19:58.999Z</time></trkpt><trkpt lat="43.01413815858946" lon="12.820091202957977"><ele>890.0</ele><time>2026-04-04T10:19:59.999Z</time></trkpt><trkpt lat="43.01416972059057" lon="12.819984477184011"><ele>888.0</ele><time>2026-04-04T10:20:00.999Z</time></trkpt><trkpt lat="43.014191731802406" lon="12.819879008357741"><ele>886.0</ele><time>2026-04-04T10:20:01.999Z</time></trkpt><trkpt lat="43.01419427717131" lon="12.81974807907331"><ele>884.0</ele><time>2026-04-04T10:20:02.999Z</time></trkpt><trkpt lat="43.014188059709376" lon="12.819595718701564"><ele>882.0</ele><time>2026-04-04T10:20:03.999Z</time></trkpt><trkpt lat="43.01417850625332" lon="12.819426106433449"><ele>880.6</ele><time>2026-04-04T10:20:04.999Z</time></trkpt><trkpt lat="43.014169690160045" lon="12.819267174045605"><ele>879.2</ele><time>2026-04-04T10:20:05.999Z</time></trkpt><trkpt lat="43.01417637264104" lon="12.81909656857721"><ele>877.8</ele><time>2026-04-04T10:20:06.999Z</time></trkpt><trkpt lat="43.01416788495184" lon="12.818939373951975"><ele>876.4</ele><time>2026-04-04T10:20:07.999Z</time></trkpt><trkpt lat="43.01416289632981" lon="12.818831658066303"><ele>875.0</ele><time>2026-04-04T10:20:08.999Z</time></trkpt><trkpt lat="43.0141349996867" lon="12.81874250290801"><ele>874.3333333333334</ele><time>2026-04-04T10:20:10.999Z</time></trkpt><trkpt lat="43.01412770617108" lon="12.818628844808751"><ele>873.6666666666667</ele><time>2026-04-04T10:20:27.999Z</time></trkpt><trkpt lat="43.01413946508858" lon="12.818503697681747"><ele>873.0</ele><time>2026-04-04T10:20:29.999Z</time></trkpt><trkpt lat="43.01414015044217" lon="12.818413267049706"><ele>872.3333333333333</ele><time>2026-04-04T10:20:30.999Z</time></trkpt><trkpt lat="43.014139197215805" lon="12.818325572056658"><ele>871.6666666666666</ele><time>2026-04-04T10:20:31.999Z</time></trkpt><trkpt lat="43.014115916058685" lon="12.818152894149152"><ele>871.0</ele><time>2026-04-04T10:20:33.999Z</time></trkpt><trkpt lat="43.01407018152171" lon="12.81797356809655"><ele>869.25</ele><time>2026-04-04T10:20:34.999Z</time></trkpt><trkpt lat="43.01402871467657" lon="12.817816042890097"><ele>867.5</ele><time>2026-04-04T10:20:35.999Z</time></trkpt><trkpt lat="43.01398790917919" lon="12.81765842846175"><ele>865.75</ele><time>2026-04-04T10:20:37Z</time></trkpt><trkpt lat="43.013929734252976" lon="12.817520823753105"><ele>864.0</ele><time>2026-04-04T10:20:38Z</time></trkpt><trkpt lat="43.01387930917127" lon="12.817385744993514"><ele>864.0</ele><time>2026-04-04T10:20:39Z</time></trkpt><trkpt lat="43.01382296031777" lon="12.817244463692326"><ele>864.0</ele><time>2026-04-04T10:20:40Z</time></trkpt><trkpt lat="43.01375345697948" lon="12.817094479219397"><ele>864.0</ele><time>2026-04-04T10:20:41Z</time></trkpt><trkpt lat="43.01367630957822" lon="12.816945674338104"><ele>864.0</ele><time>2026-04-04T10:20:42Z</time></trkpt><trkpt lat="43.01360651651995" lon="12.816788614087319"><ele>862.5</ele><time>2026-04-04T10:20:43Z</time></trkpt><trkpt lat="43.013539483003015" lon="12.816628633622418"><ele>861.0</ele><time>2026-04-04T10:20:44Z</time></trkpt><trkpt lat="43.01347787247804" lon="12.816468776582884"><ele>859.5</ele><time>2026-04-04T10:20:45Z</time></trkpt><trkpt lat="43.01341447443554" lon="12.816312908981326"><ele>858.0</ele><time>2026-04-04T10:20:46Z</time></trkpt><trkpt lat="43.01334626317441" lon="12.816166461521874"><ele>854.25</ele><time>2026-04-04T10:20:47Z</time></trkpt><trkpt lat="43.013268321186494" lon="12.816017268914756"><ele>850.5</ele><time>2026-04-04T10:20:48Z</time></trkpt><trkpt lat="43.01319736169594" lon="12.815846108164129"><ele>846.75</ele><time>2026-04-04T10:20:49Z</time></trkpt><trkpt lat="43.013138206460745" lon="12.81564974771089"><ele>843.0</ele><time>2026-04-04T10:20:50Z</time></trkpt><trkpt lat="43.013084505296376" lon="12.815447038693005"><ele>843.0</ele><time>2026-04-04T10:20:51Z</time></trkpt><trkpt lat="43.01301518724295" lon="12.815256772520074"><ele>843.0</ele><time>2026-04-04T10:20:52Z</time></trkpt><trkpt lat="43.01294934281191" lon="12.815087355491842"><ele>843.0</ele><time>2026-04-04T10:20:53Z</time></trkpt><trkpt lat="43.01288578523923" lon="12.814907266142754"><ele>843.0</ele><time>2026-04-04T10:20:54Z</time></trkpt><trkpt lat="43.01283073159482" lon="12.814729012432098"><ele>842.5</ele><time>2026-04-04T10:20:55Z</time></trkpt><trkpt lat="43.012778393751915" lon="12.814555800255851"><ele>842.0</ele><time>2026-04-04T10:20:56Z</time></trkpt><trkpt lat="43.01272841428082" lon="12.814404471580765"><ele>841.5</ele><time>2026-04-04T10:20:57Z</time></trkpt><trkpt lat="43.0126726959588" lon="12.814227720311912"><ele>841.0</ele><time>2026-04-04T10:20:58Z</time></trkpt><trkpt lat="43.01261556777516" lon="12.814032143224194"><ele>841.0</ele><time>2026-04-04T10:20:59Z</time></trkpt><trkpt lat="43.012553746493715" lon="12.813852562101188"><ele>841.0</ele><time>2026-04-04T10:21:00Z</time></trkpt><trkpt lat="43.01248167924052" lon="12.813690709226297"><ele>841.0</ele><time>2026-04-04T10:21:01Z</time></trkpt><trkpt lat="43.01241868713051" lon="12.813541882118482"><ele>841.0</ele><time>2026-04-04T10:21:02Z</time></trkpt><trkpt lat="43.01237044394501" lon="12.81338875049286"><ele>837.75</ele><time>2026-04-04T10:21:03Z</time></trkpt><trkpt lat="43.012346961572895" lon="12.813208255150263"><ele>834.5</ele><time>2026-04-04T10:21:04Z</time></trkpt><trkpt lat="43.01232890254241" lon="12.813018842644743"><ele>831.25</ele><time>2026-04-04T10:21:05Z</time></trkpt><trkpt lat="43.012281847756206" lon="12.812837325201661"><ele>828.0</ele><time>2026-04-04T10:21:06Z</time></trkpt><trkpt lat="43.012217856297916" lon="12.81265499264456"><ele>828.0</ele><time>2026-04-04T10:21:07Z</time></trkpt><trkpt lat="43.01214262529938" lon="12.812506560458901"><ele>828.0</ele><time>2026-04-04T10:21:08Z</time></trkpt><trkpt lat="43.01206740427214" lon="12.812386910767348"><ele>828.0</ele><time>2026-04-04T10:21:09Z</time></trkpt><trkpt lat="43.012024472704454" lon="12.81226579570495"><ele>828.0</ele><time>2026-04-04T10:21:10Z</time></trkpt><trkpt lat="43.01198862957374" lon="12.812125821739778"><ele>828.0</ele><time>2026-04-04T10:21:11Z</time></trkpt><trkpt lat="43.011948319563274" lon="12.811991615700363"><ele>828.0</ele><time>2026-04-04T10:21:12Z</time></trkpt><trkpt lat="43.0119202910387" lon="12.811850019942765"><ele>828.0</ele><time>2026-04-04T10:21:13Z</time></trkpt><trkpt lat="43.0118946966014" lon="12.811709583028183"><ele>828.0</ele><time>2026-04-04T10:21:14Z</time></trkpt><trkpt lat="43.01186691072639" lon="12.81157975271778"><ele>828.0</ele><time>2026-04-04T10:21:15Z</time></trkpt><trkpt lat="43.01180328304097" lon="12.811470334268774"><ele>828.4</ele><time>2026-04-04T10:21:16Z</time></trkpt><trkpt lat="43.0117508155954" lon="12.81136113481059"><ele>828.8</ele><time>2026-04-04T10:21:17Z</time></trkpt><trkpt lat="43.01171129315614" lon="12.811242223298636"><ele>829.2</ele><time>2026-04-04T10:21:18Z</time></trkpt><trkpt lat="43.0116706548724" lon="12.811123674152398"><ele>829.6</ele><time>2026-04-04T10:21:19Z</time></trkpt><trkpt lat="43.011596882404135" lon="12.811010932879958"><ele>830.0</ele><time>2026-04-04T10:21:20Z</time></trkpt><trkpt lat="43.01151282857209" lon="12.810900166024958"><ele>829.5714285714286</ele><time>2026-04-04T10:21:21Z</time></trkpt><trkpt lat="43.01147971035985" lon="12.810818684140797"><ele>829.1428571428571</ele><time>2026-04-04T10:21:22Z</time></trkpt><trkpt lat="43.01143276295083" lon="12.810725737469546"><ele>828.7142857142858</ele><time>2026-04-04T10:21:24Z</time></trkpt><trkpt lat="43.01148628940911" lon="12.810674359944429"><ele>828.2857142857142</ele><time>2026-04-04T10:21:27Z</time></trkpt><trkpt lat="43.01151209275664" lon="12.810581916066264"><ele>827.8571428571428</ele><time>2026-04-04T10:21:30Z</time></trkpt><trkpt lat="43.011587806830484" lon="12.810564277321678"><ele>827.4285714285714</ele><time>2026-04-04T10:21:33Z</time></trkpt><trkpt lat="43.01166909994213" lon="12.810570845495535"><ele>827.0</ele><time>2026-04-04T10:21:35Z</time></trkpt><trkpt lat="43.011749571024794" lon="12.810613536883862"><ele>827.0</ele><time>2026-04-04T10:21:36Z</time></trkpt><trkpt lat="43.01188784627837" lon="12.810622516760937"><ele>827.0</ele><time>2026-04-04T10:21:37Z</time></trkpt><trkpt lat="43.01199039361103" lon="12.810625619813603"><ele>827.0</ele><time>2026-04-04T10:21:38Z</time></trkpt><trkpt lat="43.01205695072851" lon="12.810611425661776"><ele>827.0</ele><time>2026-04-04T10:21:39Z</time></trkpt><trkpt lat="43.01215659129688" lon="12.810559104654889"><ele>827.0</ele><time>2026-04-04T10:21:41Z</time></trkpt><trkpt lat="43.01223004224455" lon="12.810531658388271"><ele>827.0000000000001</ele><time>2026-04-04T10:21:43Z</time></trkpt><trkpt lat="43.01231769556787" lon="12.8105308014724"><ele>827.0</ele><time>2026-04-04T10:21:46Z</time></trkpt><trkpt lat="43.01238000452531" lon="12.81051617534235"><ele>827.0</ele><time>2026-04-04T10:21:53Z</time></trkpt><trkpt lat="43.01244777360084" lon="12.810455517242229"><ele>827.0</ele><time>2026-04-04T10:22:04Z</time></trkpt><trkpt lat="43.01249878677822" lon="12.810402855591107"><ele>827.0000000000001</ele><time>2026-04-04T10:22:05Z</time></trkpt><trkpt lat="43.012556607725585" lon="12.810304027276704"><ele>827.0</ele><time>2026-04-04T10:22:07Z</time></trkpt><trkpt lat="43.01261012026223" lon="12.810142067439548"><ele>823.3333333333334</ele><time>2026-04-04T10:22:08.999Z</time></trkpt><trkpt lat="43.01264043778902" lon="12.81005483302745"><ele>819.6666666666667</ele><time>2026-04-04T10:22:09.999Z</time></trkpt><trkpt lat="43.01266011004392" lon="12.80996805391589"><ele>816.0</ele><time>2026-04-04T10:22:10.999Z</time></trkpt><trkpt lat="43.01268311163319" lon="12.809861879431006"><ele>812.3333333333333</ele><time>2026-04-04T10:22:11.999Z</time></trkpt><trkpt lat="43.0126960545516" lon="12.809754662115763"><ele>808.6666666666666</ele><time>2026-04-04T10:22:12.999Z</time></trkpt><trkpt lat="43.01269369709053" lon="12.809632210637291"><ele>805.0</ele><time>2026-04-04T10:22:14.999Z</time></trkpt><trkpt lat="43.01273213511743" lon="12.809512645617383"><ele>804.9999999999999</ele><time>2026-04-04T10:22:18.999Z</time></trkpt><trkpt lat="43.012787427325485" lon="12.80941495929181"><ele>805.0</ele><time>2026-04-04T10:22:20.999Z</time></trkpt><trkpt lat="43.01282730687824" lon="12.809267500998672"><ele>805.0</ele><time>2026-04-04T10:22:22.999Z</time></trkpt><trkpt lat="43.012809615944235" lon="12.80916220551705"><ele>805.0</ele><time>2026-04-04T10:22:24.999Z</time></trkpt><trkpt lat="43.012799763570264" lon="12.809068637012647"><ele>804.9999999999999</ele><time>2026-04-04T10:22:25.999Z</time></trkpt><trkpt lat="43.012827235221856" lon="12.808980681805073"><ele>805.0</ele><time>2026-04-04T10:22:26.999Z</time></trkpt><trkpt lat="43.01285443232464" lon="12.808824217279616"><ele>803.6666666666666</ele><time>2026-04-04T10:22:28.999Z</time></trkpt><trkpt lat="43.01291457602247" lon="12.808737318729646"><ele>802.3333333333333</ele><time>2026-04-04T10:22:29.999Z</time></trkpt><trkpt lat="43.01295203755261" lon="12.808613576012554"><ele>801.0</ele><time>2026-04-04T10:22:31.999Z</time></trkpt><trkpt lat="43.01295834217048" lon="12.808525652069696"><ele>799.6666666666667</ele><time>2026-04-04T10:22:34.999Z</time></trkpt><trkpt lat="43.01299232245585" lon="12.808451918250766"><ele>798.3333333333334</ele><time>2026-04-04T10:22:37.999Z</time></trkpt><trkpt lat="43.013020639477965" lon="12.808348502822966"><ele>797.0</ele><time>2026-04-04T10:22:40.999Z</time></trkpt><trkpt lat="43.013043723989064" lon="12.80823896642883"><ele>795.1666666666667</ele><time>2026-04-04T10:22:44Z</time></trkpt><trkpt lat="43.01310773413987" lon="12.808145415262384"><ele>793.3333333333334</ele><time>2026-04-04T10:22:48Z</time></trkpt><trkpt lat="43.01315977657273" lon="12.808096094381138"><ele>791.5</ele><time>2026-04-04T10:22:51Z</time></trkpt><trkpt lat="43.01320876232584" lon="12.80803983587392"><ele>789.6666666666667</ele><time>2026-04-04T10:22:53Z</time></trkpt><trkpt lat="43.01328920489144" lon="12.807968621460835"><ele>787.8333333333334</ele><time>2026-04-04T10:22:56Z</time></trkpt><trkpt lat="43.01334104694527" lon="12.8078962260967"><ele>786.0</ele><time>2026-04-04T10:22:59Z</time></trkpt><trkpt lat="43.01340711589429" lon="12.80784387876885"><ele>784.8</ele><time>2026-04-04T10:23:01Z</time></trkpt><trkpt lat="43.0135458251544" lon="12.807800519468678"><ele>783.5999999999999</ele><time>2026-04-04T10:23:04Z</time></trkpt><trkpt lat="43.01359403967869" lon="12.807732698043663"><ele>782.4</ele><time>2026-04-04T10:23:05Z</time></trkpt><trkpt lat="43.01367295256736" lon="12.80761011981947"><ele>781.2</ele><time>2026-04-04T10:23:07Z</time></trkpt><trkpt lat="43.013704527420344" lon="12.807455771711913"><ele>780.0</ele><time>2026-04-04T10:23:09Z</time></trkpt><trkpt lat="43.013759738394775" lon="12.807343235256235"><ele>778.1666666666666</ele><time>2026-04-04T10:23:11Z</time></trkpt><trkpt lat="43.013782277328914" lon="12.807197279131811"><ele>776.3333333333333</ele><time>2026-04-04T10:23:13Z</time></trkpt><trkpt lat="43.0137849433902" lon="12.807077201580418"><ele>774.5</ele><time>2026-04-04T10:23:15Z</time></trkpt><trkpt lat="43.01377208617289" lon="12.806991472428443"><ele>772.6666666666666</ele><time>2026-04-04T10:23:19Z</time></trkpt><trkpt lat="43.01380271121387" lon="12.806914105686808"><ele>770.8333333333333</ele><time>2026-04-04T10:23:22Z</time></trkpt><trkpt lat="43.013865533659214" lon="12.806828946205325"><ele>769.0</ele><time>2026-04-04T10:23:25Z</time></trkpt><trkpt lat="43.01394012744658" lon="12.806775253442373"><ele>763.6</ele><time>2026-04-04T10:23:27Z</time></trkpt><trkpt lat="43.01400981226659" lon="12.806715092534542"><ele>758.2</ele><time>2026-04-04T10:23:29Z</time></trkpt><trkpt lat="43.01405586791565" lon="12.806641218854773"><ele>752.8000000000001</ele><time>2026-04-04T10:23:31Z</time></trkpt><trkpt lat="43.0141404937864" lon="12.806612600447759"><ele>747.4000000000001</ele><time>2026-04-04T10:23:33Z</time></trkpt><trkpt lat="43.01420725547963" lon="12.806531721912442"><ele>742.0</ele><time>2026-04-04T10:23:35Z</time></trkpt><trkpt lat="43.01439708877978" lon="12.806489543511002"><ele>741.0</ele><time>2026-04-04T10:23:39Z</time></trkpt><trkpt lat="43.01452413810928" lon="12.806408865423096"><ele>740.0</ele><time>2026-04-04T10:23:41Z</time></trkpt><trkpt lat="43.01473074792864" lon="12.806231722328794"><ele>739.0</ele><time>2026-04-04T10:23:46Z</time></trkpt><trkpt lat="43.01478363538429" lon="12.806167958881444"><ele>739.0</ele><time>2026-04-04T10:23:47Z</time></trkpt><trkpt lat="43.014846607334405" lon="12.806149016011904"><ele>739.0</ele><time>2026-04-04T10:23:48Z</time></trkpt><trkpt lat="43.01491570992351" lon="12.806139666634625"><ele>739.0</ele><time>2026-04-04T10:23:51Z</time></trkpt><trkpt lat="43.01499667721943" lon="12.806115627774078"><ele>739.0</ele><time>2026-04-04T10:23:55Z</time></trkpt><trkpt lat="43.01505671392066" lon="12.806081326519298"><ele>739.0</ele><time>2026-04-04T10:24:06Z</time></trkpt><trkpt lat="43.01510827813112" lon="12.80598098388482"><ele>739.0</ele><time>2026-04-04T10:24:09Z</time></trkpt><trkpt lat="43.01517929595943" lon="12.805885310202653"><ele>734.5</ele><time>2026-04-04T10:24:12Z</time></trkpt><trkpt lat="43.015234163934174" lon="12.805809424731605"><ele>730.0</ele><time>2026-04-04T10:24:14Z</time></trkpt><trkpt lat="43.01532192142391" lon="12.805750053437833"><ele>725.5</ele><time>2026-04-04T10:24:15.999Z</time></trkpt><trkpt lat="43.015395234096026" lon="12.805676013612665"><ele>721.0</ele><time>2026-04-04T10:24:17.999Z</time></trkpt><trkpt lat="43.01546319113473" lon="12.805617024812678"><ele>716.5</ele><time>2026-04-04T10:24:19.999Z</time></trkpt><trkpt lat="43.01551196443858" lon="12.805543638284128"><ele>712.0</ele><time>2026-04-04T10:24:20.999Z</time></trkpt><trkpt lat="43.01554576909287" lon="12.805459731444126"><ele>712.0</ele><time>2026-04-04T10:24:21.999Z</time></trkpt><trkpt lat="43.01557589945371" lon="12.805378570896368"><ele>712.0</ele><time>2026-04-04T10:24:22.999Z</time></trkpt><trkpt lat="43.015644949754716" lon="12.80527156078912"><ele>712.0</ele><time>2026-04-04T10:24:24.999Z</time></trkpt><trkpt lat="43.01570962073965" lon="12.805188111614486"><ele>712.0</ele><time>2026-04-04T10:24:25.999Z</time></trkpt><trkpt lat="43.015767020271554" lon="12.805122693902762"><ele>712.0</ele><time>2026-04-04T10:24:26.999Z</time></trkpt><trkpt lat="43.01585001401655" lon="12.804997754521542"><ele>709.8333333333334</ele><time>2026-04-04T10:24:28.999Z</time></trkpt><trkpt lat="43.015906206746386" lon="12.804937616718174"><ele>707.6666666666667</ele><time>2026-04-04T10:24:29.999Z</time></trkpt><trkpt lat="43.01594890834779" lon="12.804870722445651"><ele>705.5</ele><time>2026-04-04T10:24:30.999Z</time></trkpt><trkpt lat="43.0159912606761" lon="12.804776023028598"><ele>703.3333333333334</ele><time>2026-04-04T10:24:32.999Z</time></trkpt><trkpt lat="43.01602641568961" lon="12.804639209772592"><ele>701.1666666666666</ele><time>2026-04-04T10:24:34.999Z</time></trkpt><trkpt lat="43.01607109269581" lon="12.804568652395266"><ele>699.0</ele><time>2026-04-04T10:24:35.999Z</time></trkpt><trkpt lat="43.01612889341097" lon="12.804494073738903"><ele>699.0</ele><time>2026-04-04T10:24:36.999Z</time></trkpt><trkpt lat="43.01618353479499" lon="12.804412322170895"><ele>699.0</ele><time>2026-04-04T10:24:37.999Z</time></trkpt><trkpt lat="43.01627284396692" lon="12.804341035689452"><ele>699.0</ele><time>2026-04-04T10:24:38.999Z</time></trkpt><trkpt lat="43.01632679162726" lon="12.80427308815752"><ele>699.0</ele><time>2026-04-04T10:24:39.999Z</time></trkpt><trkpt lat="43.016373328359364" lon="12.804165765492206"><ele>699.0</ele><time>2026-04-04T10:24:41.999Z</time></trkpt><trkpt lat="43.01647505965348" lon="12.804006149353615"><ele>698.5</ele><time>2026-04-04T10:24:43.999Z</time></trkpt><trkpt lat="43.0165312320138" lon="12.803935389425884"><ele>698.0</ele><time>2026-04-04T10:24:44.999Z</time></trkpt><trkpt lat="43.016572867533554" lon="12.803857576592861"><ele>697.5</ele><time>2026-04-04T10:24:45.999Z</time></trkpt><trkpt lat="43.01662470175345" lon="12.803796331724458"><ele>697.0</ele><time>2026-04-04T10:24:46.999Z</time></trkpt><trkpt lat="43.01668274705222" lon="12.80376296969225"><ele>696.5</ele><time>2026-04-04T10:24:47.999Z</time></trkpt><trkpt lat="43.01676895505962" lon="12.803667505504002"><ele>696.0</ele><time>2026-04-04T10:24:50Z</time></trkpt><trkpt lat="43.01683347805007" lon="12.803668673738732"><ele>696.0</ele><time>2026-04-04T10:24:52Z</time></trkpt><trkpt lat="43.01690223175102" lon="12.803672587104003"><ele>696.0</ele><time>2026-04-04T10:24:54Z</time></trkpt><trkpt lat="43.0169528049867" lon="12.80360113697349"><ele>696.0</ele><time>2026-04-04T10:24:59Z</time></trkpt><trkpt lat="43.017006494197055" lon="12.803525732355514"><ele>696.0</ele><time>2026-04-04T10:25:03Z</time></trkpt><trkpt lat="43.01707189322008" lon="12.803478373816453"><ele>696.0</ele><time>2026-04-04T10:25:07Z</time></trkpt><trkpt lat="43.017132666732415" lon="12.803413484209994"><ele>696.0</ele><time>2026-04-04T10:25:11Z</time></trkpt><trkpt lat="43.01719756206154" lon="12.803353000919452"><ele>696.0</ele><time>2026-04-04T10:25:13Z</time></trkpt><trkpt lat="43.017265225461735" lon="12.803325606256182"><ele>694.5999999999999</ele><time>2026-04-04T10:25:15Z</time></trkpt><trkpt lat="43.0173381003529" lon="12.803261698499291"><ele>693.2</ele><time>2026-04-04T10:25:17Z</time></trkpt><trkpt lat="43.01740149943052" lon="12.803137816685709"><ele>691.8</ele><time>2026-04-04T10:25:19Z</time></trkpt><trkpt lat="43.01745852092676" lon="12.803034965637293"><ele>690.4000000000001</ele><time>2026-04-04T10:25:21Z</time></trkpt><trkpt lat="43.01750220861627" lon="12.802890115343457"><ele>689.0</ele><time>2026-04-04T10:25:23Z</time></trkpt><trkpt lat="43.017542693753235" lon="12.802822250599656"><ele>687.8333333333333</ele><time>2026-04-04T10:25:25Z</time></trkpt><trkpt lat="43.01759654464839" lon="12.802719450355475"><ele>686.6666666666666</ele><time>2026-04-04T10:25:29Z</time></trkpt><trkpt lat="43.017634318586765" lon="12.802628805035996"><ele>685.5</ele><time>2026-04-04T10:25:30Z</time></trkpt><trkpt lat="43.01767305373373" lon="12.802526799126781"><ele>684.3333333333334</ele><time>2026-04-04T10:25:32Z</time></trkpt><trkpt lat="43.017717665124" lon="12.802441439268861"><ele>683.1666666666667</ele><time>2026-04-04T10:25:43Z</time></trkpt><trkpt lat="43.01776548599233" lon="12.802319270939956"><ele>682.0</ele><time>2026-04-04T10:25:45Z</time></trkpt><trkpt lat="43.01782243287586" lon="12.802175553882238"><ele>680.5</ele><time>2026-04-04T10:25:47Z</time></trkpt><trkpt lat="43.01790821405727" lon="12.802071364822904"><ele>679.0</ele><time>2026-04-04T10:25:49Z</time></trkpt><trkpt lat="43.01795937267038" lon="12.801994044680608"><ele>677.5</ele><time>2026-04-04T10:25:52Z</time></trkpt><trkpt lat="43.018008498257295" lon="12.801895161767202"><ele>676.0</ele><time>2026-04-04T10:25:55Z</time></trkpt><trkpt lat="43.01803928535264" lon="12.801817693709534"><ele>674.5</ele><time>2026-04-04T10:25:58.999Z</time></trkpt><trkpt lat="43.018062225378266" lon="12.801703756534069"><ele>673.0</ele><time>2026-04-04T10:26:01.999Z</time></trkpt><trkpt lat="43.01810842686425" lon="12.80162649438516"><ele>673.3333333333334</ele><time>2026-04-04T10:26:04.999Z</time></trkpt><trkpt lat="43.01815548576684" lon="12.80152842953426"><ele>673.6666666666667</ele><time>2026-04-04T10:26:07.999Z</time></trkpt><trkpt lat="43.018167476956435" lon="12.801428122423754"><ele>674.0</ele><time>2026-04-04T10:26:09.999Z</time></trkpt><trkpt lat="43.018232430178436" lon="12.801337606189346"><ele>674.3333333333334</ele><time>2026-04-04T10:26:11.999Z</time></trkpt><trkpt lat="43.018256607429265" lon="12.801240442559925"><ele>674.6666666666666</ele><time>2026-04-04T10:26:15.999Z</time></trkpt><trkpt lat="43.01829706229325" lon="12.801135651097576"><ele>675.0</ele><time>2026-04-04T10:26:17.999Z</time></trkpt><trkpt lat="43.018352391510824" lon="12.801036364051656"><ele>675.2</ele><time>2026-04-04T10:26:19.999Z</time></trkpt><trkpt lat="43.01838031629112" lon="12.800915677068529"><ele>675.4</ele><time>2026-04-04T10:26:21.999Z</time></trkpt><trkpt lat="43.018441164883946" lon="12.800797138151875"><ele>675.5999999999999</ele><time>2026-04-04T10:26:23.999Z</time></trkpt><trkpt lat="43.01848961913905" lon="12.800678184882724"><ele>675.8</ele><time>2026-04-04T10:26:25.999Z</time></trkpt><trkpt lat="43.018525391354764" lon="12.800576343964394"><ele>676.0</ele><time>2026-04-04T10:26:27.998Z</time></trkpt><trkpt lat="43.018570229602695" lon="12.80046762354355"><ele>676.0</ele><time>2026-04-04T10:26:29.998Z</time></trkpt><trkpt lat="43.01858778517256" lon="12.800364016408547"><ele>676.0</ele><time>2026-04-04T10:26:31.998Z</time></trkpt><trkpt lat="43.018633090424245" lon="12.800279891222255"><ele>676.0</ele><time>2026-04-04T10:26:34.998Z</time></trkpt><trkpt lat="43.01865063820866" lon="12.800175653701386"><ele>676.0</ele><time>2026-04-04T10:26:38.998Z</time></trkpt><trkpt lat="43.01867235449557" lon="12.800056053986408"><ele>676.0</ele><time>2026-04-04T10:26:40.998Z</time></trkpt><trkpt lat="43.01869917639237" lon="12.799938603192572"><ele>676.0</ele><time>2026-04-04T10:26:42.998Z</time></trkpt><trkpt lat="43.01872573204966" lon="12.799827728080706"><ele>672.8</ele><time>2026-04-04T10:26:44.998Z</time></trkpt><trkpt lat="43.01874997534426" lon="12.799688084967363"><ele>669.5999999999999</ele><time>2026-04-04T10:26:46.998Z</time></trkpt><trkpt lat="43.0187697525957" lon="12.799578971036903"><ele>666.4</ele><time>2026-04-04T10:26:48.998Z</time></trkpt><trkpt lat="43.01880623100039" lon="12.799444495503787"><ele>663.2</ele><time>2026-04-04T10:26:50.998Z</time></trkpt><trkpt lat="43.01884936820716" lon="12.799327540582263"><ele>660.0</ele><time>2026-04-04T10:26:52.998Z</time></trkpt><trkpt lat="43.018883669321255" lon="12.799219500071997"><ele>656.3333333333334</ele><time>2026-04-04T10:26:55Z</time></trkpt><trkpt lat="43.01892597886671" lon="12.799127374658731"><ele>652.6666666666666</ele><time>2026-04-04T10:26:57Z</time></trkpt><trkpt lat="43.018960945355126" lon="12.799043402894064"><ele>649.0</ele><time>2026-04-04T10:26:59Z</time></trkpt><trkpt lat="43.01898278143355" lon="12.79895950427306"><ele>645.3333333333333</ele><time>2026-04-04T10:27:02Z</time></trkpt><trkpt lat="43.019023155783835" lon="12.798854856199023"><ele>641.6666666666666</ele><time>2026-04-04T10:27:05Z</time></trkpt><trkpt lat="43.01904953419837" lon="12.798742178088485"><ele>638.0</ele><time>2026-04-04T10:27:07Z</time></trkpt><trkpt lat="43.01909677886909" lon="12.798635962952565"><ele>638.0</ele><time>2026-04-04T10:27:09Z</time></trkpt><trkpt lat="43.019124350643175" lon="12.79852661132755"><ele>638.0</ele><time>2026-04-04T10:27:10.999Z</time></trkpt><trkpt lat="43.019106124139974" lon="12.798439161860083"><ele>638.0</ele><time>2026-04-04T10:27:12.999Z</time></trkpt><trkpt lat="43.0191316703001" lon="12.798311976780349"><ele>638.0</ele><time>2026-04-04T10:27:15.999Z</time></trkpt><trkpt lat="43.01917475052521" lon="12.798221314433407"><ele>638.0</ele><time>2026-04-04T10:27:17.999Z</time></trkpt><trkpt lat="43.01918414165253" lon="12.798121998875887"><ele>638.0</ele><time>2026-04-04T10:27:19.999Z</time></trkpt><trkpt lat="43.01920950466317" lon="12.798006190741761"><ele>643.3333333333333</ele><time>2026-04-04T10:27:22.999Z</time></trkpt><trkpt lat="43.01920346293095" lon="12.797902767966582"><ele>648.6666666666666</ele><time>2026-04-04T10:27:24.999Z</time></trkpt><trkpt lat="43.01920127445043" lon="12.797783039257892"><ele>654.0</ele><time>2026-04-04T10:27:27.999Z</time></trkpt><trkpt lat="43.01921599405873" lon="12.79768676305637"><ele>659.3333333333334</ele><time>2026-04-04T10:27:29.999Z</time></trkpt><trkpt lat="43.01920899198577" lon="12.797577426483816"><ele>664.6666666666667</ele><time>2026-04-04T10:27:31.999Z</time></trkpt><trkpt lat="43.019226443428025" lon="12.797459781053252"><ele>670.0</ele><time>2026-04-04T10:27:33.999Z</time></trkpt><trkpt lat="43.01922351703445" lon="12.797343210424057"><ele>670.0</ele><time>2026-04-04T10:27:36.999Z</time></trkpt><trkpt lat="43.01921217280089" lon="12.797210810167606"><ele>670.0</ele><time>2026-04-04T10:27:39.999Z</time></trkpt><trkpt lat="43.019197916863014" lon="12.797111210226067"><ele>670.0</ele><time>2026-04-04T10:27:41.999Z</time></trkpt><trkpt lat="43.01920285675907" lon="12.797020258465453"><ele>670.0</ele><time>2026-04-04T10:27:43.999Z</time></trkpt><trkpt lat="43.019158972429636" lon="12.796912758132123"><ele>670.0</ele><time>2026-04-04T10:27:45.999Z</time></trkpt><trkpt lat="43.019170923118395" lon="12.796793812923758"><ele>670.0</ele><time>2026-04-04T10:27:48.999Z</time></trkpt><trkpt lat="43.0191472060162" lon="12.796603008277629"><ele>658.8</ele><time>2026-04-04T10:27:50.999Z</time></trkpt><trkpt lat="43.01909176849157" lon="12.796351017500527"><ele>647.6</ele><time>2026-04-04T10:27:52.999Z</time></trkpt><trkpt lat="43.019073821697134" lon="12.796263913729481"><ele>636.4</ele><time>2026-04-04T10:27:53.999Z</time></trkpt><trkpt lat="43.019057137585314" lon="12.796165266956729"><ele>625.2</ele><time>2026-04-04T10:27:54.999Z</time></trkpt><trkpt lat="43.01904144869167" lon="12.796069537537544"><ele>614.0</ele><time>2026-04-04T10:27:55.999Z</time></trkpt><trkpt lat="43.01902721048213" lon="12.795982727367296"><ele>614.0</ele><time>2026-04-04T10:27:56.999Z</time></trkpt><trkpt lat="43.019014596911326" lon="12.79584940300632"><ele>614.0</ele><time>2026-04-04T10:27:58.999Z</time></trkpt><trkpt lat="43.01904627473924" lon="12.795740610542817"><ele>614.0</ele><time>2026-04-04T10:28:02.999Z</time></trkpt><trkpt lat="43.019020373227626" lon="12.795656032082439"><ele>614.0</ele><time>2026-04-04T10:28:03.999Z</time></trkpt><trkpt lat="43.01899567487603" lon="12.795550555652751"><ele>614.0</ele><time>2026-04-04T10:28:04.999Z</time></trkpt><trkpt lat="43.018949019241404" lon="12.795412731677853"><ele>614.0</ele><time>2026-04-04T10:28:06.999Z</time></trkpt><trkpt lat="43.01893519028812" lon="12.795286998990763"><ele>614.0</ele><time>2026-04-04T10:28:08.999Z</time></trkpt><trkpt lat="43.01889287748348" lon="12.79517435080423"><ele>614.0</ele><time>2026-04-04T10:28:11.999Z</time></trkpt><trkpt lat="43.018928773578196" lon="12.795098481363212"><ele>614.0</ele><time>2026-04-04T10:28:13.999Z</time></trkpt><trkpt lat="43.018918040522024" lon="12.79499928652582"><ele>614.0</ele><time>2026-04-04T10:28:16.999Z</time></trkpt><trkpt lat="43.01891187980528" lon="12.794912337443236"><ele>614.0</ele><time>2026-04-04T10:28:18.999Z</time></trkpt><trkpt lat="43.018906524144356" lon="12.794808153200131"><ele>614.0</ele><time>2026-04-04T10:28:21.999Z</time></trkpt><trkpt lat="43.01889646213119" lon="12.794691203324716"><ele>613.1666666666666</ele><time>2026-04-04T10:28:24.999Z</time></trkpt><trkpt lat="43.01888819271558" lon="12.794572488308157"><ele>612.3333333333333</ele><time>2026-04-04T10:28:27.999Z</time></trkpt><trkpt lat="43.01885608978745" lon="12.794480847031993"><ele>611.5</ele><time>2026-04-04T10:28:30.999Z</time></trkpt><trkpt lat="43.01888372730485" lon="12.794400357344333"><ele>610.6666666666666</ele><time>2026-04-04T10:28:32.999Z</time></trkpt><trkpt lat="43.01884159376341" lon="12.794307602971267"><ele>609.8333333333334</ele><time>2026-04-04T10:28:35.999Z</time></trkpt><trkpt lat="43.018855863222235" lon="12.794215832934372"><ele>609.0</ele><time>2026-04-04T10:28:38.998Z</time></trkpt><trkpt lat="43.018870590972334" lon="12.794104854829897"><ele>607.5</ele><time>2026-04-04T10:28:42.998Z</time></trkpt><trkpt lat="43.018800075344465" lon="12.794133535621732"><ele>606.0</ele><time>2026-04-04T10:28:46.998Z</time></trkpt><trkpt lat="43.01874364689711" lon="12.794024181910878"><ele>604.5</ele><time>2026-04-04T10:28:49.998Z</time></trkpt><trkpt lat="43.018738856399416" lon="12.793911566125537"><ele>603.0</ele><time>2026-04-04T10:28:51.998Z</time></trkpt><trkpt lat="43.018707727319715" lon="12.793786979819288"><ele>601.5</ele><time>2026-04-04T10:28:54.998Z</time></trkpt><trkpt lat="43.018693114337445" lon="12.79367773431266"><ele>600.0</ele><time>2026-04-04T10:28:59Z</time></trkpt><trkpt lat="43.018690495101225" lon="12.793557478288916"><ele>598.8333333333334</ele><time>2026-04-04T10:29:02Z</time></trkpt><trkpt lat="43.01868438873295" lon="12.793427489740905"><ele>597.6666666666666</ele><time>2026-04-04T10:29:04Z</time></trkpt><trkpt lat="43.01868519832664" lon="12.793314812319108"><ele>596.5</ele><time>2026-04-04T10:29:06Z</time></trkpt><trkpt lat="43.018732550094384" lon="12.793220001321137"><ele>595.3333333333333</ele><time>2026-04-04T10:29:09Z</time></trkpt><trkpt lat="43.01871539435757" lon="12.793131305706366"><ele>594.1666666666666</ele><time>2026-04-04T10:29:12Z</time></trkpt><trkpt lat="43.01870583484852" lon="12.793015554038634"><ele>593.0</ele><time>2026-04-04T10:29:16Z</time></trkpt><trkpt lat="43.018640315246635" lon="12.792929390360483"><ele>592.9999999999999</ele><time>2026-04-04T10:29:18.999Z</time></trkpt><trkpt lat="43.01857303724818" lon="12.792882692392311"><ele>593.0</ele><time>2026-04-04T10:29:21.999Z</time></trkpt><trkpt lat="43.018506360978066" lon="12.792869449617537"><ele>593.0</ele><time>2026-04-04T10:29:23.999Z</time></trkpt><trkpt lat="43.018485276714" lon="12.79276461568701"><ele>593.0</ele><time>2026-04-04T10:29:26.999Z</time></trkpt><trkpt lat="43.01848076889342" lon="12.79264954458757"><ele>593.0</ele><time>2026-04-04T10:29:30.999Z</time></trkpt><trkpt lat="43.01841808322248" lon="12.792619965362915"><ele>592.9999999999999</ele><time>2026-04-04T10:29:34.999Z</time></trkpt><trkpt lat="43.01834942606799" lon="12.79261914482548"><ele>593.0</ele><time>2026-04-04T10:29:51.999Z</time></trkpt><trkpt lat="43.0182857397705" lon="12.79256318773835"><ele>590.5</ele><time>2026-04-04T10:29:57.999Z</time></trkpt><trkpt lat="43.01824714799145" lon="12.792482215172496"><ele>588.0</ele><time>2026-04-04T10:29:59.999Z</time></trkpt><trkpt lat="43.01831978964489" lon="12.79240923396466"><ele>585.5</ele><time>2026-04-04T10:30:02.999Z</time></trkpt><trkpt lat="43.018323362642256" lon="12.792320906611595"><ele>583.0</ele><time>2026-04-04T10:30:07.999Z</time></trkpt><trkpt lat="43.018312784289975" lon="12.792235277446444"><ele>580.5</ele><time>2026-04-04T10:30:10.999Z</time></trkpt><trkpt lat="43.01826394561972" lon="12.792125323076725"><ele>578.0</ele><time>2026-04-04T10:30:12.999Z</time></trkpt><trkpt lat="43.01827843262747" lon="12.792008952169828"><ele>570.6666666666666</ele><time>2026-04-04T10:30:16.999Z</time></trkpt><trkpt lat="43.018206181136826" lon="12.791947302005905"><ele>563.3333333333333</ele><time>2026-04-04T10:30:20.999Z</time></trkpt><trkpt lat="43.018140812848976" lon="12.791870889563823"><ele>556.0</ele><time>2026-04-04T10:30:24.999Z</time></trkpt><trkpt lat="43.01811349603313" lon="12.791773801413987"><ele>548.6666666666666</ele><time>2026-04-04T10:30:27.999Z</time></trkpt><trkpt lat="43.01811145866884" lon="12.79167656521526"><ele>541.3333333333334</ele><time>2026-04-04T10:30:30.999Z</time></trkpt><trkpt lat="43.018077196812705" lon="12.791574185273912"><ele>534.0</ele><time>2026-04-04T10:30:32.999Z</time></trkpt><trkpt lat="43.018033731606906" lon="12.791466417776702"><ele>532.75</ele><time>2026-04-04T10:30:35.999Z</time></trkpt><trkpt lat="43.01802371225231" lon="12.791323171339233"><ele>531.5</ele><time>2026-04-04T10:30:38.998Z</time></trkpt><trkpt lat="43.01801642661273" lon="12.791233932062585"><ele>530.25</ele><time>2026-04-04T10:30:40.998Z</time></trkpt><trkpt lat="43.01800029132201" lon="12.79086081449906"><ele>529.0</ele><time>2026-04-04T10:30:43.998Z</time></trkpt><trkpt lat="43.01800831864388" lon="12.790765573556008"><ele>527.5</ele><time>2026-04-04T10:30:44.998Z</time></trkpt><trkpt lat="43.01800853118327" lon="12.790674551580915"><ele>526.0</ele><time>2026-04-04T10:30:45.998Z</time></trkpt><trkpt lat="43.01797177358124" lon="12.79059390117808"><ele>524.5</ele><time>2026-04-04T10:30:47.998Z</time></trkpt><trkpt lat="43.01788731812071" lon="12.790592407279622"><ele>523.0</ele><time>2026-04-04T10:30:49.998Z</time></trkpt><trkpt lat="43.01778221643581" lon="12.790602323694461"><ele>521.5</ele><time>2026-04-04T10:30:51.998Z</time></trkpt><trkpt lat="43.01766665423791" lon="12.790608285433096"><ele>520.0</ele><time>2026-04-04T10:30:53.998Z</time></trkpt><trkpt lat="43.01754509120297" lon="12.790654910691913"><ele>512.8333333333334</ele><time>2026-04-04T10:30:55.998Z</time></trkpt><trkpt lat="43.0174719334845" lon="12.790702866815165"><ele>505.6666666666667</ele><time>2026-04-04T10:30:56.998Z</time></trkpt><trkpt lat="43.01738204429049" lon="12.790785606322347"><ele>498.5</ele><time>2026-04-04T10:30:57.998Z</time></trkpt><trkpt lat="43.0173227429801" lon="12.790862049351722"><ele>491.33333333333337</ele><time>2026-04-04T10:30:58.998Z</time></trkpt><trkpt lat="43.017278469153176" lon="12.790928870587402"><ele>484.1666666666667</ele><time>2026-04-04T10:30:59.998Z</time></trkpt><trkpt lat="43.01723136780975" lon="12.791060185024175"><ele>477.0</ele><time>2026-04-04T10:31:01.998Z</time></trkpt><trkpt lat="43.01717179260211" lon="12.791095716448048"><ele>476.5</ele><time>2026-04-04T10:31:03.998Z</time></trkpt><trkpt lat="43.017163271061136" lon="12.79095571236312"><ele>476.0</ele><time>2026-04-04T10:31:06Z</time></trkpt><trkpt lat="43.01718407667225" lon="12.79078796092291"><ele>475.5</ele><time>2026-04-04T10:31:09Z</time></trkpt><trkpt lat="43.01716095157914" lon="12.790672325185403"><ele>475.0</ele><time>2026-04-04T10:31:12Z</time></trkpt><trkpt lat="43.01699640195033" lon="12.790661685319098"><ele>475.00000000000006</ele><time>2026-04-04T10:31:15Z</time></trkpt><trkpt lat="43.016943915081406" lon="12.790716069271562"><ele>475.0</ele><time>2026-04-04T10:31:16Z</time></trkpt><trkpt lat="43.01687857320518" lon="12.790845459102892"><ele>475.0</ele><time>2026-04-04T10:31:18Z</time></trkpt><trkpt lat="43.01681318900204" lon="12.790945208192133"><ele>475.0</ele><time>2026-04-04T10:31:20Z</time></trkpt><trkpt lat="43.01678905898822" lon="12.79085142502262"><ele>475.00000000000006</ele><time>2026-04-04T10:31:23Z</time></trkpt><trkpt lat="43.01679257387734" lon="12.790754795824267"><ele>475.0</ele><time>2026-04-04T10:31:25Z</time></trkpt><trkpt lat="43.0168017340538" lon="12.790590909580065"><ele>475.0</ele><time>2026-04-04T10:31:27Z</time></trkpt><trkpt lat="43.01680155439707" lon="12.790464637395779"><ele>475.0</ele><time>2026-04-04T10:31:28Z</time></trkpt><trkpt lat="43.01680144238474" lon="12.790353382318422"><ele>475.0</ele><time>2026-04-04T10:31:29Z</time></trkpt><trkpt lat="43.01681559157403" lon="12.790190357493627"><ele>475.0</ele><time>2026-04-04T10:31:30.999Z</time></trkpt><trkpt lat="43.01685157807939" lon="12.790048545532052"><ele>475.0</ele><time>2026-04-04T10:31:32.999Z</time></trkpt><trkpt lat="43.01692214262261" lon="12.789915412051306"><ele>471.8</ele><time>2026-04-04T10:31:34.999Z</time></trkpt><trkpt lat="43.01700030567526" lon="12.789749491556563"><ele>468.6</ele><time>2026-04-04T10:31:36.999Z</time></trkpt><trkpt lat="43.01703350046663" lon="12.789640800199706"><ele>465.4</ele><time>2026-04-04T10:31:37.999Z</time></trkpt><trkpt lat="43.017061094720006" lon="12.789518051950688"><ele>462.2</ele><time>2026-04-04T10:31:38.999Z</time></trkpt><trkpt lat="43.017092482280994" lon="12.789404386991423"><ele>459.0</ele><time>2026-04-04T10:31:39.999Z</time></trkpt><trkpt lat="43.01711169089731" lon="12.789309339486469"><ele>454.6</ele><time>2026-04-04T10:31:40.999Z</time></trkpt><trkpt lat="43.01713496240897" lon="12.78921735870027"><ele>450.2</ele><time>2026-04-04T10:31:41.999Z</time></trkpt><trkpt lat="43.01717071460636" lon="12.78910259608707"><ele>445.80000000000007</ele><time>2026-04-04T10:31:42.999Z</time></trkpt><trkpt lat="43.01722059918772" lon="12.788989694088597"><ele>441.40000000000003</ele><time>2026-04-04T10:31:43.999Z</time></trkpt><trkpt lat="43.01725171878375" lon="12.78888789874302"><ele>437.0</ele><time>2026-04-04T10:31:44.999Z</time></trkpt><trkpt lat="43.01728777893634" lon="12.788721581070973"><ele>436.99999999999994</ele><time>2026-04-04T10:31:46.999Z</time></trkpt><trkpt lat="43.017312956327615" lon="12.788607826112962"><ele>437.0</ele><time>2026-04-04T10:31:47.999Z</time></trkpt><trkpt lat="43.017330712100396" lon="12.788518896799015"><ele>437.0</ele><time>2026-04-04T10:31:48.999Z</time></trkpt><trkpt lat="43.01732593131414" lon="12.788407061656573"><ele>437.0</ele><time>2026-04-04T10:31:50.999Z</time></trkpt><trkpt lat="43.017254491858914" lon="12.78836951966481"><ele>436.99999999999994</ele><time>2026-04-04T10:31:52.999Z</time></trkpt><trkpt lat="43.01713867647957" lon="12.788388443171497"><ele>437.0</ele><time>2026-04-04T10:31:54.999Z</time></trkpt><trkpt lat="43.01707226350299" lon="12.78841643356896"><ele>434.49999999999994</ele><time>2026-04-04T10:31:55.999Z</time></trkpt><trkpt lat="43.01700819195743" lon="12.788439717196214"><ele>432.0</ele><time>2026-04-04T10:31:56.999Z</time></trkpt><trkpt lat="43.016925415884394" lon="12.788412933339318"><ele>429.5</ele><time>2026-04-04T10:31:58.999Z</time></trkpt><trkpt lat="43.01694242945915" lon="12.78831767995784"><ele>427.0</ele><time>2026-04-04T10:32:00.999Z</time></trkpt><trkpt lat="43.01697199980717" lon="12.788155482624274"><ele>424.49999999999994</ele><time>2026-04-04T10:32:02.999Z</time></trkpt><trkpt lat="43.01700188406928" lon="12.788042819945057"><ele>422.0</ele><time>2026-04-04T10:32:04.999Z</time></trkpt><trkpt lat="43.01702819452263" lon="12.787928490766143"><ele>421.99999999999994</ele><time>2026-04-04T10:32:06.999Z</time></trkpt><trkpt lat="43.01702376331294" lon="12.78777423731622"><ele>422.0</ele><time>2026-04-04T10:32:08.999Z</time></trkpt><trkpt lat="43.01700863120754" lon="12.787671263190106"><ele>422.0</ele><time>2026-04-04T10:32:09.999Z</time></trkpt><trkpt lat="43.01699707550902" lon="12.78756485733334"><ele>422.0</ele><time>2026-04-04T10:32:10.999Z</time></trkpt><trkpt lat="43.01697745382589" lon="12.787469979817164"><ele>421.99999999999994</ele><time>2026-04-04T10:32:12.999Z</time></trkpt><trkpt lat="43.01703812175562" lon="12.787441558248753"><ele>422.0</ele><time>2026-04-04T10:32:47.999Z</time></trkpt><trkpt lat="43.01701487539177" lon="12.787311307828485"><ele>419.99999999999994</ele><time>2026-04-04T10:32:50.999Z</time></trkpt><trkpt lat="43.01696874502816" lon="12.787206174256012"><ele>418.0</ele><time>2026-04-04T10:32:52.999Z</time></trkpt><trkpt lat="43.016924768540825" lon="12.787126464102611"><ele>416.0</ele><time>2026-04-04T10:32:53.999Z</time></trkpt><trkpt lat="43.01688986284569" lon="12.787026406852535"><ele>414.0</ele><time>2026-04-04T10:32:54.999Z</time></trkpt><trkpt lat="43.016872804895144" lon="12.786926450380674"><ele>411.99999999999994</ele><time>2026-04-04T10:32:55.999Z</time></trkpt><trkpt lat="43.01686000848559" lon="12.786810974622774"><ele>410.0</ele><time>2026-04-04T10:32:56.999Z</time></trkpt><trkpt lat="43.01684435201734" lon="12.78667771484447"><ele>409.2</ele><time>2026-04-04T10:32:57.998Z</time></trkpt><trkpt lat="43.016833927058144" lon="12.786542979768207"><ele>408.4</ele><time>2026-04-04T10:32:58.998Z</time></trkpt><trkpt lat="43.016834243556474" lon="12.786412843469149"><ele>407.6</ele><time>2026-04-04T10:32:59.998Z</time></trkpt><trkpt lat="43.016856181925114" lon="12.786297683894741"><ele>406.8</ele><time>2026-04-04T10:33:00.998Z</time></trkpt><trkpt lat="43.01689555600508" lon="12.786198904323811"><ele>406.0</ele><time>2026-04-04T10:33:01.998Z</time></trkpt><trkpt lat="43.01697020769849" lon="12.786115186232164"><ele>404.6</ele><time>2026-04-04T10:33:02.998Z</time></trkpt><trkpt lat="43.01703715634465" lon="12.786007432725484"><ele>403.20000000000005</ele><time>2026-04-04T10:33:03.998Z</time></trkpt><trkpt lat="43.017100126406035" lon="12.785904716847835"><ele>401.79999999999995</ele><time>2026-04-04T10:33:04.998Z</time></trkpt><trkpt lat="43.017161220303315" lon="12.785797883515764"><ele>400.4</ele><time>2026-04-04T10:33:05.998Z</time></trkpt><trkpt lat="43.017236233579986" lon="12.785709128265685"><ele>399.0</ele><time>2026-04-04T10:33:06.998Z</time></trkpt><trkpt lat="43.01729026839438" lon="12.785583799479365"><ele>399.0</ele><time>2026-04-04T10:33:07.998Z</time></trkpt><trkpt lat="43.01734402837591" lon="12.785453651444568"><ele>399.0</ele><time>2026-04-04T10:33:08.998Z</time></trkpt><trkpt lat="43.017415046104" lon="12.78535578566784"><ele>399.0</ele><time>2026-04-04T10:33:09.998Z</time></trkpt><trkpt lat="43.01748682838925" lon="12.7852634221034"><ele>399.0</ele><time>2026-04-04T10:33:11Z</time></trkpt><trkpt lat="43.01754987099253" lon="12.785172458092674"><ele>399.0</ele><time>2026-04-04T10:33:12Z</time></trkpt><trkpt lat="43.01761551497419" lon="12.785083682295335"><ele>398.6666666666667</ele><time>2026-04-04T10:33:13Z</time></trkpt><trkpt lat="43.01767407108492" lon="12.784998597177655"><ele>398.33333333333337</ele><time>2026-04-04T10:33:14Z</time></trkpt><trkpt lat="43.01772910294578" lon="12.784937186577759"><ele>398.0</ele><time>2026-04-04T10:33:15Z</time></trkpt><trkpt lat="43.01778229409169" lon="12.784889512888162"><ele>397.6666666666667</ele><time>2026-04-04T10:33:17Z</time></trkpt><trkpt lat="43.01784761752433" lon="12.78499183222363"><ele>397.33333333333337</ele><time>2026-04-04T10:33:18Z</time></trkpt><trkpt lat="43.01784605607268" lon="12.785089698044981"><ele>397.0</ele><time>2026-04-04T10:33:20Z</time></trkpt><trkpt lat="43.01789704972175" lon="12.78527218875588"><ele>397.0</ele><time>2026-04-04T10:33:22Z</time></trkpt><trkpt lat="43.017940052039236" lon="12.785405768599816"><ele>397.0</ele><time>2026-04-04T10:33:23Z</time></trkpt><trkpt lat="43.01798829524662" lon="12.785545264047327"><ele>397.0</ele><time>2026-04-04T10:33:24Z</time></trkpt><trkpt lat="43.01808472306016" lon="12.785667323390665"><ele>397.0</ele><time>2026-04-04T10:33:25Z</time></trkpt><trkpt lat="43.01816985982657" lon="12.78581141279181"><ele>397.0</ele><time>2026-04-04T10:33:26Z</time></trkpt><trkpt lat="43.018275843228146" lon="12.785946421987992"><ele>397.0</ele><time>2026-04-04T10:33:27Z</time></trkpt><trkpt lat="43.0183828652839" lon="12.786093324751572"><ele>397.0</ele><time>2026-04-04T10:33:28Z</time></trkpt><trkpt lat="43.018487527993315" lon="12.786243739261488"><ele>397.0</ele><time>2026-04-04T10:33:29Z</time></trkpt><trkpt lat="43.018591615830246" lon="12.786384238946102"><ele>398.0</ele><time>2026-04-04T10:33:30Z</time></trkpt><trkpt lat="43.01868921921956" lon="12.786526463204115"><ele>399.0</ele><time>2026-04-04T10:33:31Z</time></trkpt><trkpt lat="43.0187720622222" lon="12.786653803697561"><ele>400.0</ele><time>2026-04-04T10:33:32Z</time></trkpt><trkpt lat="43.018835224100734" lon="12.786774077999896"><ele>401.0</ele><time>2026-04-04T10:33:33Z</time></trkpt><trkpt lat="43.01888607224487" lon="12.786895711967384"><ele>402.25</ele><time>2026-04-04T10:33:34Z</time></trkpt><trkpt lat="43.01892824261573" lon="12.787040183773337"><ele>403.5</ele><time>2026-04-04T10:33:35Z</time></trkpt><trkpt lat="43.0189658211152" lon="12.787210551153455"><ele>404.75</ele><time>2026-04-04T10:33:36Z</time></trkpt><trkpt lat="43.0190068461244" lon="12.787402562030454"><ele>406.0</ele><time>2026-04-04T10:33:37Z</time></trkpt><trkpt lat="43.019038132482684" lon="12.787590604036517"><ele>413.25</ele><time>2026-04-04T10:33:38Z</time></trkpt><trkpt lat="43.01906362969804" lon="12.7877796617955"><ele>420.5</ele><time>2026-04-04T10:33:39Z</time></trkpt><trkpt lat="43.01908622092189" lon="12.7879715797001"><ele>427.75</ele><time>2026-04-04T10:33:40Z</time></trkpt><trkpt lat="43.01911527378293" lon="12.788160925492496"><ele>435.0</ele><time>2026-04-04T10:33:41Z</time></trkpt><trkpt lat="43.01914647995841" lon="12.788340193145771"><ele>435.4</ele><time>2026-04-04T10:33:42Z</time></trkpt><trkpt lat="43.01917803544629" lon="12.788495212794919"><ele>435.8</ele><time>2026-04-04T10:33:43Z</time></trkpt><trkpt lat="43.0192205526274" lon="12.788625485622244"><ele>436.20000000000005</ele><time>2026-04-04T10:33:43.999Z</time></trkpt><trkpt lat="43.019290370233065" lon="12.788729577861936"><ele>436.6</ele><time>2026-04-04T10:33:44.999Z</time></trkpt><trkpt lat="43.019389650484264" lon="12.788818056934506"><ele>437.0</ele><time>2026-04-04T10:33:45.999Z</time></trkpt><trkpt lat="43.01948368006312" lon="12.78894376251536"><ele>437.0</ele><time>2026-04-04T10:33:46.999Z</time></trkpt><trkpt lat="43.019591164457005" lon="12.789074461127344"><ele>437.0</ele><time>2026-04-04T10:33:47.999Z</time></trkpt><trkpt lat="43.019693652534606" lon="12.789220649631032"><ele>437.0</ele><time>2026-04-04T10:33:48.999Z</time></trkpt><trkpt lat="43.01979566499717" lon="12.789372324522573"><ele>437.0</ele><time>2026-04-04T10:33:49.999Z</time></trkpt><trkpt lat="43.01990578468181" lon="12.78952750438839"><ele>438.3333333333333</ele><time>2026-04-04T10:33:50.999Z</time></trkpt><trkpt lat="43.020019288162196" lon="12.78969042679532"><ele>439.66666666666663</ele><time>2026-04-04T10:33:51.999Z</time></trkpt><trkpt lat="43.02014292232378" lon="12.789854004830838"><ele>441.0</ele><time>2026-04-04T10:33:52.999Z</time></trkpt><trkpt lat="43.02025471076276" lon="12.790017880549856"><ele>451.33333333333337</ele><time>2026-04-04T10:33:53.999Z</time></trkpt><trkpt lat="43.02036392376701" lon="12.790185507652373"><ele>461.6666666666667</ele><time>2026-04-04T10:33:54.999Z</time></trkpt><trkpt lat="43.02046890305907" lon="12.790353455094206"><ele>472.0</ele><time>2026-04-04T10:33:55.999Z</time></trkpt><trkpt lat="43.02056233841931" lon="12.79053244387947"><ele>472.0</ele><time>2026-04-04T10:33:56.999Z</time></trkpt><trkpt lat="43.020650394368815" lon="12.79071929053274"><ele>472.0</ele><time>2026-04-04T10:33:57.999Z</time></trkpt><trkpt lat="43.02074036303637" lon="12.790903402940222"><ele>472.0</ele><time>2026-04-04T10:33:58.999Z</time></trkpt><trkpt lat="43.02082697685437" lon="12.791089314252806"><ele>464.33333333333337</ele><time>2026-04-04T10:33:59.999Z</time></trkpt><trkpt lat="43.02089693582246" lon="12.791286749697369"><ele>456.66666666666663</ele><time>2026-04-04T10:34:00.999Z</time></trkpt><trkpt lat="43.02095685998442" lon="12.791486376960494"><ele>449.0</ele><time>2026-04-04T10:34:01.999Z</time></trkpt><trkpt lat="43.021015539178855" lon="12.791686282950538"><ele>455.66666666666663</ele><time>2026-04-04T10:34:02.999Z</time></trkpt><trkpt lat="43.02106940479596" lon="12.791889907908295"><ele>462.33333333333337</ele><time>2026-04-04T10:34:03.999Z</time></trkpt><trkpt lat="43.021117660570894" lon="12.792094329043044"><ele>469.0</ele><time>2026-04-04T10:34:04.999Z</time></trkpt><trkpt lat="43.02116407486595" lon="12.79229659034969"><ele>469.0</ele><time>2026-04-04T10:34:05.999Z</time></trkpt><trkpt lat="43.02121526871294" lon="12.792500359624507"><ele>469.0</ele><time>2026-04-04T10:34:06.999Z</time></trkpt><trkpt lat="43.02126643228236" lon="12.792705564848708"><ele>469.0</ele><time>2026-04-04T10:34:07.999Z</time></trkpt><trkpt lat="43.021323702878206" lon="12.792910668897399"><ele>475.0</ele><time>2026-04-04T10:34:08.999Z</time></trkpt><trkpt lat="43.02138281071512" lon="12.793113677773189"><ele>481.0</ele><time>2026-04-04T10:34:09.999Z</time></trkpt><trkpt lat="43.02143942090351" lon="12.793316551778913"><ele>487.0</ele><time>2026-04-04T10:34:10.999Z</time></trkpt><trkpt lat="43.021498358027884" lon="12.79351753473902"><ele>494.6666666666667</ele><time>2026-04-04T10:34:11.999Z</time></trkpt><trkpt lat="43.02155943018907" lon="12.793730985088562"><ele>502.33333333333337</ele><time>2026-04-04T10:34:12.999Z</time></trkpt><trkpt lat="43.02162951474031" lon="12.793950663557252"><ele>510.0</ele><time>2026-04-04T10:34:13.999Z</time></trkpt><trkpt lat="43.02170043800253" lon="12.794177431211743"><ele>496.33333333333337</ele><time>2026-04-04T10:34:14.999Z</time></trkpt><trkpt lat="43.0217678975462" lon="12.794411836426377"><ele>482.6666666666667</ele><time>2026-04-04T10:34:15.999Z</time></trkpt><trkpt lat="43.02183035584043" lon="12.794656032296059"><ele>469.0</ele><time>2026-04-04T10:34:16.999Z</time></trkpt><trkpt lat="43.021887619606694" lon="12.794897775102406"><ele>469.0</ele><time>2026-04-04T10:34:17.999Z</time></trkpt><trkpt lat="43.02194267413291" lon="12.795136744905426"><ele>469.0</ele><time>2026-04-04T10:34:18.999Z</time></trkpt><trkpt lat="43.02199570661523" lon="12.795371986034526"><ele>469.0</ele><time>2026-04-04T10:34:19.999Z</time></trkpt><trkpt lat="43.02205072167448" lon="12.795604899732762"><ele>475.33333333333337</ele><time>2026-04-04T10:34:20.999Z</time></trkpt><trkpt lat="43.02210746050912" lon="12.795835245587636"><ele>481.66666666666663</ele><time>2026-04-04T10:34:21.999Z</time></trkpt><trkpt lat="43.02215974662548" lon="12.796057896845237"><ele>488.0</ele><time>2026-04-04T10:34:22.999Z</time></trkpt><trkpt lat="43.02219787831824" lon="12.796251594009478"><ele>491.75</ele><time>2026-04-04T10:34:23.999Z</time></trkpt><trkpt lat="43.02223832608987" lon="12.796420320420129"><ele>495.5</ele><time>2026-04-04T10:34:24.999Z</time></trkpt><trkpt lat="43.02228072063816" lon="12.796595795924802"><ele>499.25</ele><time>2026-04-04T10:34:25.999Z</time></trkpt><trkpt lat="43.02233152204331" lon="12.7967675075475"><ele>503.0</ele><time>2026-04-04T10:34:26.999Z</time></trkpt><trkpt lat="43.02238460912839" lon="12.796944775569882"><ele>508.0</ele><time>2026-04-04T10:34:27.999Z</time></trkpt><trkpt lat="43.022398192469666" lon="12.797134184655947"><ele>513.0</ele><time>2026-04-04T10:34:28.999Z</time></trkpt><trkpt lat="43.02241016689067" lon="12.79733078336551"><ele>518.0</ele><time>2026-04-04T10:34:29.999Z</time></trkpt><trkpt lat="43.02241967787724" lon="12.79753235205568"><ele>523.0</ele><time>2026-04-04T10:34:30.999Z</time></trkpt><trkpt lat="43.02242630918553" lon="12.797732896223456"><ele>525.5</ele><time>2026-04-04T10:34:31.999Z</time></trkpt><trkpt lat="43.022433274676885" lon="12.79793651148535"><ele>528.0</ele><time>2026-04-04T10:34:32.999Z</time></trkpt><trkpt lat="43.0224442684127" lon="12.798139765670616"><ele>530.5</ele><time>2026-04-04T10:34:33.999Z</time></trkpt><trkpt lat="43.022457640289765" lon="12.798340061326803"><ele>533.0</ele><time>2026-04-04T10:34:34.999Z</time></trkpt><trkpt lat="43.02247278948795" lon="12.798543072266002"><ele>523.0</ele><time>2026-04-04T10:34:35.999Z</time></trkpt><trkpt lat="43.022490522724155" lon="12.798740636244194"><ele>513.0</ele><time>2026-04-04T10:34:36.999Z</time></trkpt><trkpt lat="43.02251206490943" lon="12.79893523789275"><ele>503.0</ele><time>2026-04-04T10:34:37.999Z</time></trkpt><trkpt lat="43.02254984306848" lon="12.79912646016543"><ele>493.0</ele><time>2026-04-04T10:34:38.999Z</time></trkpt><trkpt lat="43.022571855673576" lon="12.799324000819617"><ele>492.75</ele><time>2026-04-04T10:34:39.999Z</time></trkpt><trkpt lat="43.022598622492026" lon="12.799513727932386"><ele>492.5</ele><time>2026-04-04T10:34:40.999Z</time></trkpt><trkpt lat="43.022612152144525" lon="12.799688421969414"><ele>492.25</ele><time>2026-04-04T10:34:41.999Z</time></trkpt><trkpt lat="43.022573658384005" lon="12.799831768589065"><ele>492.0</ele><time>2026-04-04T10:34:42.999Z</time></trkpt><trkpt lat="43.02253167320551" lon="12.799941098260136"><ele>496.8333333333333</ele><time>2026-04-04T10:34:43.999Z</time></trkpt><trkpt lat="43.02248118588792" lon="12.800044399288986"><ele>501.66666666666663</ele><time>2026-04-04T10:34:44.999Z</time></trkpt><trkpt lat="43.02242849377716" lon="12.800128105781916"><ele>506.5</ele><time>2026-04-04T10:34:45.999Z</time></trkpt><trkpt lat="43.02237348864849" lon="12.800215857818635"><ele>511.3333333333333</ele><time>2026-04-04T10:34:46.999Z</time></trkpt><trkpt lat="43.022319932063375" lon="12.800301298959171"><ele>516.1666666666666</ele><time>2026-04-04T10:34:47.999Z</time></trkpt><trkpt lat="43.022274051947115" lon="12.800373674836553"><ele>521.0</ele><time>2026-04-04T10:34:48.999Z</time></trkpt><trkpt lat="43.02223151827899" lon="12.800439644718983"><ele>521.0</ele><time>2026-04-04T10:34:49.999Z</time></trkpt><trkpt lat="43.022169090055336" lon="12.800536297642628"><ele>521.0</ele><time>2026-04-04T10:34:51.999Z</time></trkpt><trkpt lat="43.02228544734287" lon="12.800615680540437"><ele>521.0</ele><time>2026-04-04T10:34:55.999Z</time></trkpt><trkpt lat="43.02236564603911" lon="12.800521020771214"><ele>521.0</ele><time>2026-04-04T10:34:57.999Z</time></trkpt><trkpt lat="43.022414963714105" lon="12.80043773142463"><ele>521.0</ele><time>2026-04-04T10:34:59.999Z</time></trkpt><trkpt lat="43.02248477718115" lon="12.800362988051406"><ele>516.1666666666666</ele><time>2026-04-04T10:35:01.999Z</time></trkpt><trkpt lat="43.02257655118933" lon="12.800305172324624"><ele>511.3333333333333</ele><time>2026-04-04T10:35:03.999Z</time></trkpt><trkpt lat="43.02265598694337" lon="12.800309560826614"><ele>506.5</ele><time>2026-04-04T10:35:05.999Z</time></trkpt><trkpt lat="43.022736991869905" lon="12.800284801956485"><ele>501.66666666666663</ele><time>2026-04-04T10:35:19Z</time></trkpt><trkpt lat="43.02277357518641" lon="12.800213964827941"><ele>496.8333333333333</ele><time>2026-04-04T10:35:26Z</time></trkpt><trkpt lat="43.02283864927595" lon="12.800163780867598"><ele>492.0</ele><time>2026-04-04T10:35:30Z</time></trkpt><trkpt lat="43.02288493279404" lon="12.800088709815913"><ele>492.0</ele><time>2026-04-04T10:35:33Z</time></trkpt><trkpt lat="43.02296663894068" lon="12.800051282604816"><ele>492.0</ele><time>2026-04-04T10:35:36Z</time></trkpt><trkpt lat="43.02303703914754" lon="12.800022783003579"><ele>492.0</ele><time>2026-04-04T10:35:38Z</time></trkpt><trkpt lat="43.02314747374702" lon="12.800009075301658"><ele>492.0</ele><time>2026-04-04T10:35:40Z</time></trkpt><trkpt lat="43.02318587565391" lon="12.800101158955558"><ele>492.0</ele><time>2026-04-04T10:35:44Z</time></trkpt><trkpt lat="43.0232121417982" lon="12.800190070392121"><ele>492.0</ele><time>2026-04-04T10:35:46Z</time></trkpt><trkpt lat="43.02327921529692" lon="12.800301765523681"><ele>494.1666666666667</ele><time>2026-04-04T10:35:48Z</time></trkpt><trkpt lat="43.02333334977495" lon="12.800379662928968"><ele>496.33333333333337</ele><time>2026-04-04T10:35:50Z</time></trkpt><trkpt lat="43.02335930471069" lon="12.800473388768529"><ele>498.5</ele><time>2026-04-04T10:35:51.999Z</time></trkpt><trkpt lat="43.023369777431974" lon="12.800589037936941"><ele>500.6666666666667</ele><time>2026-04-04T10:35:53.999Z</time></trkpt><trkpt lat="43.023433809880345" lon="12.800643176501698"><ele>502.83333333333337</ele><time>2026-04-04T10:35:55.999Z</time></trkpt><trkpt lat="43.02349896191767" lon="12.800697039663198"><ele>505.0</ele><time>2026-04-04T10:35:57.999Z</time></trkpt><trkpt lat="43.023588897325936" lon="12.800739435669513"><ele>505.0</ele><time>2026-04-04T10:35:59.999Z</time></trkpt><trkpt lat="43.02366786006419" lon="12.800760210695396"><ele>505.0</ele><time>2026-04-04T10:36:01.999Z</time></trkpt><trkpt lat="43.023752604882255" lon="12.800749281754953"><ele>505.0</ele><time>2026-04-04T10:36:03.999Z</time></trkpt><trkpt lat="43.02395005837975" lon="12.800740526802656"><ele>505.0</ele><time>2026-04-04T10:36:08.999Z</time></trkpt><trkpt lat="43.024014489217315" lon="12.800781982215671"><ele>505.0</ele><time>2026-04-04T10:36:10.999Z</time></trkpt><trkpt lat="43.024098856664104" lon="12.800784594118118"><ele>511.2</ele><time>2026-04-04T10:36:13.999Z</time></trkpt><trkpt lat="43.024191528769016" lon="12.800764427123985"><ele>517.4</ele><time>2026-04-04T10:36:15.999Z</time></trkpt><trkpt lat="43.024289480008406" lon="12.800792249598533"><ele>523.6</ele><time>2026-04-04T10:36:20.999Z</time></trkpt><trkpt lat="43.024364782954606" lon="12.800810634690054"><ele>529.8</ele><time>2026-04-04T10:36:25.999Z</time></trkpt><trkpt lat="43.02454255450301" lon="12.800838204301867"><ele>536.0</ele><time>2026-04-04T10:37:27Z</time></trkpt><trkpt lat="43.024619058090636" lon="12.800860209626956"><ele>536.0</ele><time>2026-04-04T10:37:29Z</time></trkpt><trkpt lat="43.0247269310465" lon="12.800874503309183"><ele>536.0</ele><time>2026-04-04T10:37:31Z</time></trkpt><trkpt lat="43.02479847374944" lon="12.800918117718668"><ele>536.0</ele><time>2026-04-04T10:37:34Z</time></trkpt><trkpt lat="43.02485111547622" lon="12.800992421129717"><ele>536.0</ele><time>2026-04-04T10:37:36Z</time></trkpt><trkpt lat="43.02502854334137" lon="12.801047057481929"><ele>536.0</ele><time>2026-04-04T10:37:40Z</time></trkpt><trkpt lat="43.02511635419712" lon="12.801117960002752"><ele>539.4</ele><time>2026-04-04T10:37:42Z</time></trkpt><trkpt lat="43.025223296767855" lon="12.801187849960602"><ele>542.8</ele><time>2026-04-04T10:37:44Z</time></trkpt><trkpt lat="43.02528568687671" lon="12.801214707235848"><ele>546.1999999999999</ele><time>2026-04-04T10:37:45Z</time></trkpt><trkpt lat="43.02539984091548" lon="12.801249983163558"><ele>549.6</ele><time>2026-04-04T10:37:47Z</time></trkpt><trkpt lat="43.02545897912048" lon="12.801383347432353"><ele>553.0</ele><time>2026-04-04T10:37:49Z</time></trkpt><trkpt lat="43.02547297029129" lon="12.801482829683883"><ele>553.0</ele><time>2026-04-04T10:37:50Z</time></trkpt><trkpt lat="43.025485943620446" lon="12.80163851601725"><ele>553.0</ele><time>2026-04-04T10:37:52Z</time></trkpt><trkpt lat="43.02553750566151" lon="12.801705553470196"><ele>553.0</ele><time>2026-04-04T10:37:54Z</time></trkpt><trkpt lat="43.02561975678805" lon="12.801696229889748"><ele>553.0</ele><time>2026-04-04T10:37:57Z</time></trkpt><trkpt lat="43.0256954517073" lon="12.801766402915773"><ele>553.0</ele><time>2026-04-04T10:39:00.999Z</time></trkpt><trkpt lat="43.02573517024144" lon="12.801941052341874"><ele>554.4</ele><time>2026-04-04T10:39:03.999Z</time></trkpt><trkpt lat="43.025773236780665" lon="12.802027419204503"><ele>555.8</ele><time>2026-04-04T10:39:04.999Z</time></trkpt><trkpt lat="43.02585459910456" lon="12.802120770687278"><ele>557.2</ele><time>2026-04-04T10:39:06.999Z</time></trkpt><trkpt lat="43.02592571039242" lon="12.802154383087116"><ele>558.6</ele><time>2026-04-04T10:39:07.999Z</time></trkpt><trkpt lat="43.026066904290616" lon="12.80222881271117"><ele>560.0</ele><time>2026-04-04T10:39:12.999Z</time></trkpt><trkpt lat="43.02612039983307" lon="12.802325530802857"><ele>563.1666666666666</ele><time>2026-04-04T10:39:15.999Z</time></trkpt><trkpt lat="43.02618214585005" lon="12.802384858544936"><ele>566.3333333333333</ele><time>2026-04-04T10:39:17.999Z</time></trkpt><trkpt lat="43.026208079815156" lon="12.802275347617796"><ele>569.5</ele><time>2026-04-04T10:39:22.999Z</time></trkpt><trkpt lat="43.02618613012039" lon="12.802188848908093"><ele>572.6666666666666</ele><time>2026-04-04T10:39:24.999Z</time></trkpt><trkpt lat="43.026164684503726" lon="12.802087395500736"><ele>575.8333333333334</ele><time>2026-04-04T10:39:26.999Z</time></trkpt><trkpt lat="43.02621717663866" lon="12.801970729028282"><ele>579.0</ele><time>2026-04-04T10:39:29Z</time></trkpt><trkpt lat="43.02627590512535" lon="12.801905714463306"><ele>579.0</ele><time>2026-04-04T10:39:30Z</time></trkpt><trkpt lat="43.026328144167415" lon="12.801828577354904"><ele>579.0</ele><time>2026-04-04T10:39:31Z</time></trkpt><trkpt lat="43.02637278157519" lon="12.801765431599199"><ele>579.0</ele><time>2026-04-04T10:39:32Z</time></trkpt><trkpt lat="43.02643823156851" lon="12.801705419451405"><ele>579.0</ele><time>2026-04-04T10:39:34Z</time></trkpt><trkpt lat="43.026481445505" lon="12.801805083340692"><ele>579.0</ele><time>2026-04-04T10:39:41Z</time></trkpt><trkpt lat="43.02655063198165" lon="12.801928781762935"><ele>579.0</ele><time>2026-04-04T10:39:44Z</time></trkpt><trkpt lat="43.02656866776051" lon="12.8020195732173"><ele>578.9999999999999</ele><time>2026-04-04T10:39:46Z</time></trkpt><trkpt lat="43.02663018081182" lon="12.802057607583098"><ele>579.0</ele><time>2026-04-04T10:39:48Z</time></trkpt><trkpt lat="43.02668860740578" lon="12.801958390268318"><ele>579.0</ele><time>2026-04-04T10:39:51Z</time></trkpt><trkpt lat="43.0267276344248" lon="12.801883873878422"><ele>579.0</ele><time>2026-04-04T10:39:53Z</time></trkpt><trkpt lat="43.02676859775059" lon="12.801805619389741"><ele>579.0</ele><time>2026-04-04T10:39:55Z</time></trkpt><trkpt lat="43.02680952521143" lon="12.8017386234418"><ele>578.9999999999999</ele><time>2026-04-04T10:39:58Z</time></trkpt><trkpt lat="43.02686992188173" lon="12.801774413000835"><ele>579.0</ele><time>2026-04-04T10:40:02Z</time></trkpt><trkpt lat="43.02693381078633" lon="12.801722329980938"><ele>584.5714285714286</ele><time>2026-04-04T10:40:06Z</time></trkpt><trkpt lat="43.02696906314672" lon="12.801818206367201"><ele>590.1428571428571</ele><time>2026-04-04T10:40:09Z</time></trkpt><trkpt lat="43.026992712979954" lon="12.801913438081213"><ele>595.7142857142858</ele><time>2026-04-04T10:40:12Z</time></trkpt><trkpt lat="43.02706522975088" lon="12.801905797103293"><ele>601.2857142857142</ele><time>2026-04-04T10:40:14.999Z</time></trkpt><trkpt lat="43.02713391655649" lon="12.801828343601413"><ele>606.8571428571429</ele><time>2026-04-04T10:40:16.999Z</time></trkpt><trkpt lat="43.02714881932076" lon="12.801744125112412"><ele>612.4285714285714</ele><time>2026-04-04T10:40:18.999Z</time></trkpt><trkpt lat="43.0272006454987" lon="12.801809650669691"><ele>618.0</ele><time>2026-04-04T10:40:22.999Z</time></trkpt><trkpt lat="43.027243174164155" lon="12.801889116381828"><ele>618.0</ele><time>2026-04-04T10:40:24.999Z</time></trkpt><trkpt lat="43.02731399799846" lon="12.80192145757672"><ele>618.0</ele><time>2026-04-04T10:40:26.999Z</time></trkpt><trkpt lat="43.02737037070716" lon="12.801978566306207"><ele>618.0</ele><time>2026-04-04T10:40:27.999Z</time></trkpt><trkpt lat="43.027420093776705" lon="12.802082019526221"><ele>618.0</ele><time>2026-04-04T10:40:29.999Z</time></trkpt><trkpt lat="43.02746082067927" lon="12.802161353523697"><ele>618.0</ele><time>2026-04-04T10:40:31.999Z</time></trkpt><trkpt lat="43.02752770072076" lon="12.802181379052827"><ele>618.0</ele><time>2026-04-04T10:40:32.999Z</time></trkpt><trkpt lat="43.02760655583413" lon="12.80226355163164"><ele>618.0</ele><time>2026-04-04T10:40:34.999Z</time></trkpt><trkpt lat="43.02759860178937" lon="12.80237693505017"><ele>618.0</ele><time>2026-04-04T10:40:36.999Z</time></trkpt><trkpt lat="43.027519067289035" lon="12.802439916463959"><ele>618.0</ele><time>2026-04-04T10:40:38.999Z</time></trkpt><trkpt lat="43.027432488293286" lon="12.802530844037026"><ele>618.0</ele><time>2026-04-04T10:40:40.999Z</time></trkpt><trkpt lat="43.02739935756169" lon="12.80267543637398"><ele>618.0</ele><time>2026-04-04T10:40:43.999Z</time></trkpt><trkpt lat="43.027355277140984" lon="12.802784192249295"><ele>617.1666666666666</ele><time>2026-04-04T10:40:45.999Z</time></trkpt><trkpt lat="43.02740395320354" lon="12.802846781047085"><ele>616.3333333333334</ele><time>2026-04-04T10:40:51.999Z</time></trkpt><trkpt lat="43.027463998489445" lon="12.802768917346325"><ele>615.5</ele><time>2026-04-04T10:40:53.999Z</time></trkpt><trkpt lat="43.02753145141737" lon="12.80272996892274"><ele>614.6666666666667</ele><time>2026-04-04T10:40:55.999Z</time></trkpt><trkpt lat="43.02760188694335" lon="12.80270658895615"><ele>613.8333333333334</ele><time>2026-04-04T10:40:57.999Z</time></trkpt><trkpt lat="43.0275515364134" lon="12.80281147394367"><ele>613.0</ele><time>2026-04-04T10:41:04.999Z</time></trkpt><trkpt lat="43.027607613020656" lon="12.802856931476663"><ele>621.1666666666667</ele><time>2026-04-04T10:41:12.999Z</time></trkpt><trkpt lat="43.027681470041074" lon="12.802787131901647"><ele>629.3333333333334</ele><time>2026-04-04T10:41:15.999Z</time></trkpt><trkpt lat="43.02763884441103" lon="12.802889271681499"><ele>637.5</ele><time>2026-04-04T10:41:25.999Z</time></trkpt><trkpt lat="43.027700365487625" lon="12.8029148199611"><ele>645.6666666666666</ele><time>2026-04-04T10:41:30.999Z</time></trkpt><trkpt lat="43.02776596208741" lon="12.802834953871914"><ele>653.8333333333333</ele><time>2026-04-04T10:41:40Z</time></trkpt><trkpt lat="43.027834189504745" lon="12.802812629623768"><ele>662.0</ele><time>2026-04-04T10:41:43Z</time></trkpt><trkpt lat="43.02784568502103" lon="12.802911451405272"><ele>662.0</ele><time>2026-04-04T10:41:47Z</time></trkpt><trkpt lat="43.027892539565755" lon="12.80297306889886"><ele>662.0</ele><time>2026-04-04T10:41:56Z</time></trkpt><trkpt lat="43.02795072901439" lon="12.802938310980965"><ele>662.0</ele><time>2026-04-04T10:42:00Z</time></trkpt><trkpt lat="43.028042052737874" lon="12.802902029873543"><ele>662.0</ele><time>2026-04-04T10:42:03Z</time></trkpt><trkpt lat="43.02811535125245" lon="12.802879057749998"><ele>662.0</ele><time>2026-04-04T10:42:05Z</time></trkpt><trkpt lat="43.02818299453805" lon="12.802837230153186"><ele>662.0</ele><time>2026-04-04T10:42:07Z</time></trkpt><trkpt lat="43.028253684725335" lon="12.802814070873447"><ele>662.0</ele><time>2026-04-04T10:42:09Z</time></trkpt><trkpt lat="43.02830238663825" lon="12.802759353829405"><ele>671.1666666666666</ele><time>2026-04-04T10:42:11Z</time></trkpt><trkpt lat="43.028368812574946" lon="12.802744640194236"><ele>680.3333333333333</ele><time>2026-04-04T10:42:14Z</time></trkpt><trkpt lat="43.02841283578073" lon="12.80265077494017"><ele>689.5</ele><time>2026-04-04T10:42:18Z</time></trkpt><trkpt lat="43.028476905482435" lon="12.802659947577476"><ele>698.6666666666666</ele><time>2026-04-04T10:42:22Z</time></trkpt><trkpt lat="43.028499437990114" lon="12.80276202496731"><ele>707.8333333333334</ele><time>2026-04-04T10:42:23.999Z</time></trkpt><trkpt lat="43.02847855100961" lon="12.802859004663683"><ele>717.0</ele><time>2026-04-04T10:42:25.999Z</time></trkpt><trkpt lat="43.028404357807766" lon="12.802942716501024"><ele>717.3333333333334</ele><time>2026-04-04T10:42:28.999Z</time></trkpt><trkpt lat="43.02836155986198" lon="12.803041326511005"><ele>717.6666666666666</ele><time>2026-04-04T10:42:30.999Z</time></trkpt><trkpt lat="43.02835465270691" lon="12.80315319897275"><ele>718.0</ele><time>2026-04-04T10:42:32.999Z</time></trkpt><trkpt lat="43.028362561931296" lon="12.803245118790503"><ele>718.3333333333333</ele><time>2026-04-04T10:42:34.999Z</time></trkpt><trkpt lat="43.028459842267196" lon="12.80319363589266"><ele>718.6666666666666</ele><time>2026-04-04T10:42:42.999Z</time></trkpt><trkpt lat="43.02853252061588" lon="12.803114904103031"><ele>719.0</ele><time>2026-04-04T10:42:45.999Z</time></trkpt><trkpt lat="43.02859207960964" lon="12.803080941136345"><ele>719.0</ele><time>2026-04-04T10:42:48.999Z</time></trkpt><trkpt lat="43.02862147962526" lon="12.803177357888707"><ele>719.0</ele><time>2026-04-04T10:42:52.999Z</time></trkpt><trkpt lat="43.028587108548535" lon="12.803279345692077"><ele>719.0</ele><time>2026-04-04T10:42:54.999Z</time></trkpt><trkpt lat="43.02853722239187" lon="12.803379650929568"><ele>719.0</ele><time>2026-04-04T10:42:57.999Z</time></trkpt><trkpt lat="43.028518018602696" lon="12.803468231227278"><ele>719.0</ele><time>2026-04-04T10:42:59.999Z</time></trkpt><trkpt lat="43.0285923828399" lon="12.803434738753703"><ele>719.0</ele><time>2026-04-04T10:43:05.999Z</time></trkpt><trkpt lat="43.028658453661926" lon="12.803386641154423"><ele>719.0</ele><time>2026-04-04T10:43:07.999Z</time></trkpt><trkpt lat="43.02871840762635" lon="12.803294895957276"><ele>719.0</ele><time>2026-04-04T10:43:10.999Z</time></trkpt><trkpt lat="43.028778587499644" lon="12.8033291349659"><ele>719.0</ele><time>2026-04-04T10:43:15.999Z</time></trkpt><trkpt lat="43.02875266361199" lon="12.80341576902712"><ele>719.0</ele><time>2026-04-04T10:43:17.999Z</time></trkpt><trkpt lat="43.02870410582579" lon="12.803523635141302"><ele>719.0</ele><time>2026-04-04T10:43:19.999Z</time></trkpt><trkpt lat="43.02868516526754" lon="12.803633962493555"><ele>719.0</ele><time>2026-04-04T10:43:21.999Z</time></trkpt><trkpt lat="43.02866947576869" lon="12.803722184283806"><ele>717.5</ele><time>2026-04-04T10:43:23.999Z</time></trkpt><trkpt lat="43.028746251252656" lon="12.803680223107614"><ele>716.0</ele><time>2026-04-04T10:43:27.999Z</time></trkpt><trkpt lat="43.02879930755388" lon="12.803626487199626"><ele>714.5</ele><time>2026-04-04T10:43:30.999Z</time></trkpt><trkpt lat="43.028865538605025" lon="12.80356811251034"><ele>713.0</ele><time>2026-04-04T10:43:33.999Z</time></trkpt><trkpt lat="43.028922520339194" lon="12.80350280427382"><ele>711.5</ele><time>2026-04-04T10:43:36.999Z</time></trkpt><trkpt lat="43.028947865807524" lon="12.803584437467148"><ele>710.0</ele><time>2026-04-04T10:43:41Z</time></trkpt><trkpt lat="43.028933669503594" lon="12.80372048863433"><ele>710.0</ele><time>2026-04-04T10:43:44Z</time></trkpt><trkpt lat="43.0289475600192" lon="12.803826142922901"><ele>710.0</ele><time>2026-04-04T10:43:46Z</time></trkpt><trkpt lat="43.02896955373961" lon="12.803926135838974"><ele>710.0</ele><time>2026-04-04T10:43:49Z</time></trkpt><trkpt lat="43.02902953671164" lon="12.803871042430519"><ele>710.0</ele><time>2026-04-04T10:43:52Z</time></trkpt><trkpt lat="43.029084587268486" lon="12.80378943105319"><ele>710.0</ele><time>2026-04-04T10:43:55Z</time></trkpt><trkpt lat="43.02914183402185" lon="12.803737292742422"><ele>710.0</ele><time>2026-04-04T10:43:57Z</time></trkpt><trkpt lat="43.02919264327417" lon="12.803667445798762"><ele>710.0</ele><time>2026-04-04T10:43:59Z</time></trkpt><trkpt lat="43.02923269496488" lon="12.80358559270902"><ele>719.6666666666666</ele><time>2026-04-04T10:44:02Z</time></trkpt><trkpt lat="43.029246204546816" lon="12.803496295417595"><ele>729.3333333333333</ele><time>2026-04-04T10:44:04Z</time></trkpt><trkpt lat="43.02928877065947" lon="12.803432476585511"><ele>739.0</ele><time>2026-04-04T10:44:07Z</time></trkpt><trkpt lat="43.02934210946013" lon="12.803489711268924"><ele>748.6666666666666</ele><time>2026-04-04T10:44:12Z</time></trkpt><trkpt lat="43.02936407826731" lon="12.80362565389441"><ele>758.3333333333334</ele><time>2026-04-04T10:44:16Z</time></trkpt><trkpt lat="43.02937586894724" lon="12.803767862946026"><ele>768.0</ele><time>2026-04-04T10:44:18Z</time></trkpt><trkpt lat="43.02940439642158" lon="12.803871630008203"><ele>768.0</ele><time>2026-04-04T10:44:20Z</time></trkpt><trkpt lat="43.02948246499465" lon="12.80395808380232"><ele>768.0</ele><time>2026-04-04T10:44:22Z</time></trkpt><trkpt lat="43.02955857580786" lon="12.804043949076553"><ele>768.0</ele><time>2026-04-04T10:44:24Z</time></trkpt><trkpt lat="43.02962056611722" lon="12.804131465403579"><ele>768.0</ele><time>2026-04-04T10:44:26Z</time></trkpt><trkpt lat="43.02971482417554" lon="12.804147786013704"><ele>768.0</ele><time>2026-04-04T10:44:28Z</time></trkpt><trkpt lat="43.029809567099626" lon="12.804156589631122"><ele>768.0</ele><time>2026-04-04T10:44:30Z</time></trkpt><trkpt lat="43.02990277283799" lon="12.804156655226594"><ele>768.0</ele><time>2026-04-04T10:44:32Z</time></trkpt><trkpt lat="43.03002404038492" lon="12.804175729918127"><ele>768.0</ele><time>2026-04-04T10:44:33.999Z</time></trkpt><trkpt lat="43.030134468554074" lon="12.804219741464713"><ele>768.0</ele><time>2026-04-04T10:44:35.999Z</time></trkpt><trkpt lat="43.0302294997059" lon="12.804290678157166"><ele>768.0</ele><time>2026-04-04T10:44:37.999Z</time></trkpt><trkpt lat="43.03029199618521" lon="12.804316836235023"><ele>770.0</ele><time>2026-04-04T10:44:38.999Z</time></trkpt><trkpt lat="43.030385492064916" lon="12.804441010422678"><ele>772.0</ele><time>2026-04-04T10:44:40.999Z</time></trkpt><trkpt lat="43.03047771315475" lon="12.804462927366336"><ele>774.0</ele><time>2026-04-04T10:44:42.999Z</time></trkpt><trkpt lat="43.03056918379684" lon="12.80447118943042"><ele>776.0</ele><time>2026-04-04T10:44:44.999Z</time></trkpt><trkpt lat="43.030662102189225" lon="12.804532284699194"><ele>778.0</ele><time>2026-04-04T10:44:46.999Z</time></trkpt><trkpt lat="43.03075215193568" lon="12.80455086240364"><ele>786.1666666666666</ele><time>2026-04-04T10:44:48.999Z</time></trkpt><trkpt lat="43.03082770971075" lon="12.80455540115442"><ele>794.3333333333333</ele><time>2026-04-04T10:44:53.999Z</time></trkpt><trkpt lat="43.03090463099496" lon="12.80459622256966"><ele>802.5</ele><time>2026-04-04T10:44:57.999Z</time></trkpt><trkpt lat="43.03097331332298" lon="12.80462756695613"><ele>810.6666666666667</ele><time>2026-04-04T10:45:00.999Z</time></trkpt><trkpt lat="43.031020756928584" lon="12.804715748629945"><ele>818.8333333333334</ele><time>2026-04-04T10:45:06.999Z</time></trkpt><trkpt lat="43.03107360494119" lon="12.804774192335103"><ele>827.0</ele><time>2026-04-04T10:45:09.999Z</time></trkpt><trkpt lat="43.03112105680392" lon="12.804870164889847"><ele>827.0</ele><time>2026-04-04T10:45:12.999Z</time></trkpt><trkpt lat="43.031105652129106" lon="12.80497757016479"><ele>827.0</ele><time>2026-04-04T10:45:14.999Z</time></trkpt><trkpt lat="43.03110818883793" lon="12.80508194426476"><ele>827.0</ele><time>2026-04-04T10:45:16.999Z</time></trkpt><trkpt lat="43.03111754304991" lon="12.805179156809768"><ele>827.0</ele><time>2026-04-04T10:45:18.999Z</time></trkpt><trkpt lat="43.031159889944774" lon="12.805253399996667"><ele>827.0</ele><time>2026-04-04T10:45:21.999Z</time></trkpt><trkpt lat="43.03120572987631" lon="12.8051925869007"><ele>827.0</ele><time>2026-04-04T10:45:25.999Z</time></trkpt><trkpt lat="43.031242199512576" lon="12.80512081867215"><ele>827.0</ele><time>2026-04-04T10:45:27.999Z</time></trkpt><trkpt lat="43.03130163571265" lon="12.80507511648278"><ele>827.0000000000001</ele><time>2026-04-04T10:45:29.999Z</time></trkpt><trkpt lat="43.031378338294644" lon="12.80508356595612"><ele>827.0</ele><time>2026-04-04T10:45:32.999Z</time></trkpt><trkpt lat="43.0313974723319" lon="12.805202055451561"><ele>827.0</ele><time>2026-04-04T10:45:35.999Z</time></trkpt><trkpt lat="43.03145381588662" lon="12.805275111000785"><ele>827.0</ele><time>2026-04-04T10:45:38.999Z</time></trkpt><trkpt lat="43.03152757974406" lon="12.805346112754362"><ele>827.0000000000001</ele><time>2026-04-04T10:45:41.999Z</time></trkpt><trkpt lat="43.03161564470144" lon="12.805403674182237"><ele>827.0</ele><time>2026-04-04T10:45:43.999Z</time></trkpt><trkpt lat="43.03168791219288" lon="12.805413709565576"><ele>832.0</ele><time>2026-04-04T10:45:46Z</time></trkpt><trkpt lat="43.031833343052995" lon="12.805417540201343"><ele>837.0</ele><time>2026-04-04T10:45:50Z</time></trkpt><trkpt lat="43.03193190889976" lon="12.805399944509647"><ele>842.0</ele><time>2026-04-04T10:45:52Z</time></trkpt><trkpt lat="43.032058108551574" lon="12.80547594832777"><ele>847.0</ele><time>2026-04-04T10:45:55Z</time></trkpt><trkpt lat="43.03212757466544" lon="12.805563063894297"><ele>846.9999999999999</ele><time>2026-04-04T10:45:57Z</time></trkpt><trkpt lat="43.032206093598" lon="12.805643914786701"><ele>847.0</ele><time>2026-04-04T10:45:59Z</time></trkpt><trkpt lat="43.0322730359222" lon="12.805764963686562"><ele>847.0</ele><time>2026-04-04T10:46:01Z</time></trkpt><trkpt lat="43.03232097741877" lon="12.805854431012053"><ele>847.0</ele><time>2026-04-04T10:46:03Z</time></trkpt><trkpt lat="43.03236842826953" lon="12.805950387929087"><ele>846.9999999999999</ele><time>2026-04-04T10:46:08Z</time></trkpt><trkpt lat="43.03239001017912" lon="12.806047596414233"><ele>847.0</ele><time>2026-04-04T10:46:13Z</time></trkpt><trkpt lat="43.03239419579047" lon="12.806153897548914"><ele>850.1666666666666</ele><time>2026-04-04T11:03:48.999Z</time></trkpt><trkpt lat="43.03239496681628" lon="12.806283422952141"><ele>853.3333333333333</ele><time>2026-04-04T11:03:50.999Z</time></trkpt><trkpt lat="43.032424652457095" lon="12.806451107552261"><ele>856.5</ele><time>2026-04-04T11:03:52.999Z</time></trkpt><trkpt lat="43.03244359942433" lon="12.806543802121144"><ele>859.6666666666667</ele><time>2026-04-04T11:03:53.999Z</time></trkpt><trkpt lat="43.03246356408412" lon="12.80663701298745"><ele>862.8333333333334</ele><time>2026-04-04T11:03:54.999Z</time></trkpt><trkpt lat="43.0324816473873" lon="12.806719559909839"><ele>866.0</ele><time>2026-04-04T11:03:55.999Z</time></trkpt><trkpt lat="43.032559138186926" lon="12.80679521349423"><ele>866.0000000000001</ele><time>2026-04-04T11:03:57.999Z</time></trkpt><trkpt lat="43.032625438533614" lon="12.806813099070984"><ele>866.0</ele><time>2026-04-04T11:03:58.999Z</time></trkpt><trkpt lat="43.03270129571546" lon="12.80681991164584"><ele>866.0</ele><time>2026-04-04T11:03:59.999Z</time></trkpt><trkpt lat="43.03278056978079" lon="12.806790100313012"><ele>866.0</ele><time>2026-04-04T11:04:00.999Z</time></trkpt><trkpt lat="43.032859552718904" lon="12.806746540629588"><ele>866.0000000000001</ele><time>2026-04-04T11:04:01.999Z</time></trkpt><trkpt lat="43.03294129783834" lon="12.806715775165843"><ele>866.0</ele><time>2026-04-04T11:04:02.999Z</time></trkpt><trkpt lat="43.03302199902586" lon="12.806685515399009"><ele>866.0</ele><time>2026-04-04T11:04:03.999Z</time></trkpt><trkpt lat="43.0330955939952" lon="12.806659333846946"><ele>865.9999999999999</ele><time>2026-04-04T11:04:04.999Z</time></trkpt><trkpt lat="43.03324188581746" lon="12.80671029327006"><ele>865.9999999999999</ele><time>2026-04-04T11:04:06.999Z</time></trkpt><trkpt lat="43.03331909385669" lon="12.806793911141249"><ele>866.0</ele><time>2026-04-04T11:04:07.999Z</time></trkpt><trkpt lat="43.03338740691989" lon="12.806885295662838"><ele>866.0</ele><time>2026-04-04T11:04:08.999Z</time></trkpt><trkpt lat="43.0334579381322" lon="12.806990075230217"><ele>865.4</ele><time>2026-04-04T11:04:09.999Z</time></trkpt><trkpt lat="43.03353550992993" lon="12.807089827656954"><ele>864.8</ele><time>2026-04-04T11:04:10.999Z</time></trkpt><trkpt lat="43.03361049599001" lon="12.807172811030732"><ele>864.1999999999999</ele><time>2026-04-04T11:04:11.999Z</time></trkpt><trkpt lat="43.033688852445906" lon="12.8072462969274"><ele>863.5999999999999</ele><time>2026-04-04T11:04:12.999Z</time></trkpt><trkpt lat="43.03376472280259" lon="12.80731752504115"><ele>863.0</ele><time>2026-04-04T11:04:13.999Z</time></trkpt><trkpt lat="43.033837633261406" lon="12.8073876211965"><ele>863.0</ele><time>2026-04-04T11:04:14.999Z</time></trkpt><trkpt lat="43.03391601937905" lon="12.80746618674437"><ele>863.0</ele><time>2026-04-04T11:04:15.999Z</time></trkpt><trkpt lat="43.033989252397085" lon="12.807548542769197"><ele>863.0</ele><time>2026-04-04T11:04:16.999Z</time></trkpt><trkpt lat="43.034060005612226" lon="12.807639355311794"><ele>863.0</ele><time>2026-04-04T11:04:17.999Z</time></trkpt><trkpt lat="43.034131450516576" lon="12.807745594059933"><ele>863.0</ele><time>2026-04-04T11:04:18.999Z</time></trkpt><trkpt lat="43.03420592774172" lon="12.807854243998737"><ele>863.75</ele><time>2026-04-04T11:04:19.999Z</time></trkpt><trkpt lat="43.034275991059886" lon="12.80796588963033"><ele>864.5</ele><time>2026-04-04T11:04:20.999Z</time></trkpt><trkpt lat="43.03435329440905" lon="12.808080503095157"><ele>865.25</ele><time>2026-04-04T11:04:21.999Z</time></trkpt><trkpt lat="43.0344401498876" lon="12.808187214990529"><ele>866.0</ele><time>2026-04-04T11:04:22.999Z</time></trkpt><trkpt lat="43.034525183286185" lon="12.808288091456584"><ele>866.0</ele><time>2026-04-04T11:04:23.999Z</time></trkpt><trkpt lat="43.03461076125219" lon="12.80838936287004"><ele>865.9999999999999</ele><time>2026-04-04T11:04:24.999Z</time></trkpt><trkpt lat="43.03469620192106" lon="12.808480950590907"><ele>865.9999999999999</ele><time>2026-04-04T11:04:25.999Z</time></trkpt><trkpt lat="43.03477743500103" lon="12.80858397422769"><ele>866.0</ele><time>2026-04-04T11:04:26.999Z</time></trkpt><trkpt lat="43.03486464651704" lon="12.808678228974982"><ele>866.0</ele><time>2026-04-04T11:04:27.999Z</time></trkpt><trkpt lat="43.03496984374944" lon="12.808761020830767"><ele>868.5</ele><time>2026-04-04T11:04:28.999Z</time></trkpt><trkpt lat="43.035082462866434" lon="12.808849849000449"><ele>871.0</ele><time>2026-04-04T11:04:29.999Z</time></trkpt><trkpt lat="43.03519837221685" lon="12.808968043455101"><ele>873.5</ele><time>2026-04-04T11:04:30.999Z</time></trkpt><trkpt lat="43.03531621687701" lon="12.809102354493653"><ele>876.0</ele><time>2026-04-04T11:04:31.999Z</time></trkpt><trkpt lat="43.035423303365555" lon="12.809216364079807"><ele>876.0</ele><time>2026-04-04T11:04:32.999Z</time></trkpt><trkpt lat="43.03551482211056" lon="12.809319827130158"><ele>875.9999999999999</ele><time>2026-04-04T11:04:33.999Z</time></trkpt><trkpt lat="43.0355959861221" lon="12.809404941083981"><ele>875.9999999999999</ele><time>2026-04-04T11:04:34.999Z</time></trkpt><trkpt lat="43.03565865627829" lon="12.809464281826612"><ele>876.0</ele><time>2026-04-04T11:04:35.999Z</time></trkpt><trkpt lat="43.035756179882995" lon="12.809551843609718"><ele>876.0</ele><time>2026-04-04T11:04:37.999Z</time></trkpt><trkpt lat="43.03580594591558" lon="12.80964828823884"><ele>878.1666666666666</ele><time>2026-04-04T11:04:40Z</time></trkpt><trkpt lat="43.03583790386614" lon="12.809727986080375"><ele>880.3333333333333</ele><time>2026-04-04T11:04:42Z</time></trkpt><trkpt lat="43.035869219864814" lon="12.809856591857407"><ele>882.5</ele><time>2026-04-04T11:04:44Z</time></trkpt><trkpt lat="43.035885835764574" lon="12.809943549993967"><ele>884.6666666666666</ele><time>2026-04-04T11:04:45Z</time></trkpt><trkpt lat="43.03589801454431" lon="12.810052926263065"><ele>886.8333333333333</ele><time>2026-04-04T11:04:46Z</time></trkpt><trkpt lat="43.035906237035164" lon="12.810171113534883"><ele>889.0</ele><time>2026-04-04T11:04:47Z</time></trkpt><trkpt lat="43.03592173765821" lon="12.81029575635956"><ele>889.0</ele><time>2026-04-04T11:04:48Z</time></trkpt><trkpt lat="43.03594611441182" lon="12.810414005282373"><ele>889.0000000000001</ele><time>2026-04-04T11:04:49Z</time></trkpt><trkpt lat="43.035979689868455" lon="12.810536885127567"><ele>889.0000000000001</ele><time>2026-04-04T11:04:50Z</time></trkpt><trkpt lat="43.03601751994556" lon="12.810686534009674"><ele>889.0</ele><time>2026-04-04T11:04:51Z</time></trkpt><trkpt lat="43.03605649531047" lon="12.810862903405997"><ele>889.0</ele><time>2026-04-04T11:04:52Z</time></trkpt><trkpt lat="43.03608881554339" lon="12.811075743917577"><ele>888.5</ele><time>2026-04-04T11:04:53Z</time></trkpt><trkpt lat="43.03614582789531" lon="12.811260536540976"><ele>888.0</ele><time>2026-04-04T11:04:54Z</time></trkpt><trkpt lat="43.03618358828052" lon="12.811447006135865"><ele>887.5</ele><time>2026-04-04T11:04:55Z</time></trkpt><trkpt lat="43.03622080497886" lon="12.811590566700419"><ele>887.0</ele><time>2026-04-04T11:04:56Z</time></trkpt><trkpt lat="43.03625379019899" lon="12.811701453299975"><ele>887.0</ele><time>2026-04-04T11:04:57Z</time></trkpt><trkpt lat="43.036293210746656" lon="12.811797668535679"><ele>887.0</ele><time>2026-04-04T11:04:59Z</time></trkpt><trkpt lat="43.036350096327716" lon="12.811973771976245"><ele>887.0</ele><time>2026-04-04T11:05:47.999Z</time></trkpt><trkpt lat="43.036388520181355" lon="12.812075338475342"><ele>887.0</ele><time>2026-04-04T11:05:48.999Z</time></trkpt><trkpt lat="43.0364617526764" lon="12.81220159826748"><ele>887.0</ele><time>2026-04-04T11:05:49.999Z</time></trkpt><trkpt lat="43.03653701477914" lon="12.812371645598438"><ele>889.0</ele><time>2026-04-04T11:05:50.999Z</time></trkpt><trkpt lat="43.036636497742315" lon="12.812569851325728"><ele>891.0</ele><time>2026-04-04T11:05:51.999Z</time></trkpt><trkpt lat="43.036780438947254" lon="12.81275994161071"><ele>893.0</ele><time>2026-04-04T11:05:52.999Z</time></trkpt><trkpt lat="43.03690155463812" lon="12.812982991154968"><ele>893.0</ele><time>2026-04-04T11:05:53.999Z</time></trkpt><trkpt lat="43.037011447049935" lon="12.813134315116866"><ele>893.0</ele><time>2026-04-04T11:05:54.999Z</time></trkpt><trkpt lat="43.03708333257838" lon="12.813280618208127"><ele>893.0</ele><time>2026-04-04T11:05:55.999Z</time></trkpt><trkpt lat="43.03715053727934" lon="12.813426595901586"><ele>893.0</ele><time>2026-04-04T11:05:56.999Z</time></trkpt><trkpt lat="43.03722809994752" lon="12.813583860925615"><ele>890.5</ele><time>2026-04-04T11:05:57.999Z</time></trkpt><trkpt lat="43.03729301399012" lon="12.813755434465554"><ele>888.0</ele><time>2026-04-04T11:05:58.999Z</time></trkpt><trkpt lat="43.037353369187386" lon="12.813915263071902"><ele>885.5</ele><time>2026-04-04T11:05:59.999Z</time></trkpt><trkpt lat="43.03742556123687" lon="12.814061327715462"><ele>883.0</ele><time>2026-04-04T11:06:00.999Z</time></trkpt><trkpt lat="43.0375058385" lon="12.814217311189473"><ele>885.75</ele><time>2026-04-04T11:06:01.999Z</time></trkpt><trkpt lat="43.037575505066634" lon="12.8143717788332"><ele>888.5</ele><time>2026-04-04T11:06:02.999Z</time></trkpt><trkpt lat="43.037640697286314" lon="12.814524410682841"><ele>891.25</ele><time>2026-04-04T11:06:03.999Z</time></trkpt><trkpt lat="43.03770323251044" lon="12.814674645107079"><ele>894.0</ele><time>2026-04-04T11:06:04.999Z</time></trkpt><trkpt lat="43.03776582754535" lon="12.814824311755036"><ele>894.0</ele><time>2026-04-04T11:06:05.999Z</time></trkpt><trkpt lat="43.03783219161662" lon="12.814975223834807"><ele>894.0</ele><time>2026-04-04T11:06:06.999Z</time></trkpt><trkpt lat="43.037899759315316" lon="12.81512446500602"><ele>894.0</ele><time>2026-04-04T11:06:07.999Z</time></trkpt><trkpt lat="43.03797206295626" lon="12.815281207300448"><ele>894.0</ele><time>2026-04-04T11:06:08.999Z</time></trkpt><trkpt lat="43.038050733434275" lon="12.815436904590902"><ele>894.75</ele><time>2026-04-04T11:06:09.999Z</time></trkpt><trkpt lat="43.03814720403205" lon="12.815598890867262"><ele>895.5</ele><time>2026-04-04T11:06:10.999Z</time></trkpt><trkpt lat="43.03823554410054" lon="12.815761940018294"><ele>896.25</ele><time>2026-04-04T11:06:11.999Z</time></trkpt><trkpt lat="43.0382878681398" lon="12.81592053887734"><ele>897.0</ele><time>2026-04-04T11:06:12.999Z</time></trkpt><trkpt lat="43.03833965334354" lon="12.816071903989089"><ele>899.5</ele><time>2026-04-04T11:06:13.999Z</time></trkpt><trkpt lat="43.038414800452216" lon="12.816188715672563"><ele>902.0</ele><time>2026-04-04T11:06:14.999Z</time></trkpt><trkpt lat="43.038511685050075" lon="12.81628090727775"><ele>904.5</ele><time>2026-04-04T11:06:15.999Z</time></trkpt><trkpt lat="43.03861087186607" lon="12.816406529365018"><ele>907.0</ele><time>2026-04-04T11:06:16.999Z</time></trkpt><trkpt lat="43.038693823562916" lon="12.816551758764257"><ele>907.0</ele><time>2026-04-04T11:06:17.999Z</time></trkpt><trkpt lat="43.03876123630695" lon="12.816713316987029"><ele>907.0</ele><time>2026-04-04T11:06:18.999Z</time></trkpt><trkpt lat="43.03885343189355" lon="12.816862853985945"><ele>907.0</ele><time>2026-04-04T11:06:19.999Z</time></trkpt><trkpt lat="43.03895193876463" lon="12.8170010734966"><ele>907.0</ele><time>2026-04-04T11:06:20.999Z</time></trkpt><trkpt lat="43.03901386784947" lon="12.817170763662672"><ele>908.75</ele><time>2026-04-04T11:06:21.999Z</time></trkpt><trkpt lat="43.039060933703716" lon="12.817337915147592"><ele>910.5</ele><time>2026-04-04T11:06:22.999Z</time></trkpt><trkpt lat="43.039105359500105" lon="12.817543459121923"><ele>912.25</ele><time>2026-04-04T11:06:23.999Z</time></trkpt><trkpt lat="43.039167866082614" lon="12.817734065184458"><ele>914.0</ele><time>2026-04-04T11:06:24.999Z</time></trkpt><trkpt lat="43.03921365671848" lon="12.8178919444353"><ele>915.6</ele><time>2026-04-04T11:06:25.999Z</time></trkpt><trkpt lat="43.039258301811095" lon="12.818034342444527"><ele>917.2</ele><time>2026-04-04T11:06:26.999Z</time></trkpt><trkpt lat="43.039298012415166" lon="12.818168825288183"><ele>918.8000000000001</ele><time>2026-04-04T11:06:27.999Z</time></trkpt><trkpt lat="43.039333593560194" lon="12.818304131952777"><ele>920.4000000000001</ele><time>2026-04-04T11:06:28.999Z</time></trkpt><trkpt lat="43.039366345928" lon="12.81843675550138"><ele>922.0</ele><time>2026-04-04T11:06:29.999Z</time></trkpt><trkpt lat="43.039413695625385" lon="12.818565721603068"><ele>922.4000000000001</ele><time>2026-04-04T11:06:30.999Z</time></trkpt><trkpt lat="43.03945418985458" lon="12.818686190186536"><ele>922.8000000000001</ele><time>2026-04-04T11:06:31.999Z</time></trkpt><trkpt lat="43.03949454567725" lon="12.818811977987629"><ele>923.2</ele><time>2026-04-04T11:06:32.999Z</time></trkpt><trkpt lat="43.03953315999217" lon="12.818940889649042"><ele>923.6</ele><time>2026-04-04T11:06:33.999Z</time></trkpt><trkpt lat="43.03957339906862" lon="12.819075944245128"><ele>924.0</ele><time>2026-04-04T11:06:34.999Z</time></trkpt><trkpt lat="43.03960785065572" lon="12.819198387346042"><ele>924.0</ele><time>2026-04-04T11:06:35.999Z</time></trkpt><trkpt lat="43.039609692514624" lon="12.81931230387003"><ele>924.0000000000001</ele><time>2026-04-04T11:06:36.999Z</time></trkpt><trkpt lat="43.039620653144524" lon="12.819428862425355"><ele>924.0000000000001</ele><time>2026-04-04T11:06:37.999Z</time></trkpt><trkpt lat="43.03964336145967" lon="12.819546150735414"><ele>924.0</ele><time>2026-04-04T11:06:38.999Z</time></trkpt><trkpt lat="43.039644960609266" lon="12.819677183785167"><ele>924.0</ele><time>2026-04-04T11:06:39.999Z</time></trkpt><trkpt lat="43.039656139645736" lon="12.819846954423157"><ele>924.5</ele><time>2026-04-04T11:06:41.999Z</time></trkpt><trkpt lat="43.039568186882065" lon="12.81995833169569"><ele>925.0</ele><time>2026-04-04T11:06:42.999Z</time></trkpt><trkpt lat="43.039610640921865" lon="12.82003832375906"><ele>925.5</ele><time>2026-04-04T11:06:43.999Z</time></trkpt><trkpt lat="43.03966629682252" lon="12.820117549636374"><ele>926.0</ele><time>2026-04-04T11:06:44.999Z</time></trkpt><trkpt lat="43.03972022345471" lon="12.820194554408175"><ele>926.5</ele><time>2026-04-04T11:06:46Z</time></trkpt><trkpt lat="43.039777799159566" lon="12.82028163002768"><ele>927.0</ele><time>2026-04-04T11:06:47Z</time></trkpt><trkpt lat="43.03982472932473" lon="12.820367499062488"><ele>926.9999999999999</ele><time>2026-04-04T11:06:48Z</time></trkpt><trkpt lat="43.039871793296406" lon="12.82045248626367"><ele>927.0</ele><time>2026-04-04T11:06:49Z</time></trkpt><trkpt lat="43.03990926750046" lon="12.820524312566505"><ele>926.9999999999999</ele><time>2026-04-04T11:06:50Z</time></trkpt><trkpt lat="43.039956123671594" lon="12.820591965053044"><ele>926.9999999999999</ele><time>2026-04-04T11:06:51Z</time></trkpt><trkpt lat="43.040002294165944" lon="12.82066049789791"><ele>927.0</ele><time>2026-04-04T11:06:52Z</time></trkpt><trkpt lat="43.0400506580548" lon="12.820742676309026"><ele>926.9999999999999</ele><time>2026-04-04T11:06:53Z</time></trkpt><trkpt lat="43.04010174056019" lon="12.82082707125947"><ele>926.9999999999999</ele><time>2026-04-04T11:06:54Z</time></trkpt><trkpt lat="43.04015411811203" lon="12.820904629286316"><ele>927.6666666666666</ele><time>2026-04-04T11:06:55Z</time></trkpt><trkpt lat="43.0402015458782" lon="12.820989252749174"><ele>928.3333333333333</ele><time>2026-04-04T11:06:56Z</time></trkpt><trkpt lat="43.04024868680908" lon="12.821056645697235"><ele>929.0</ele><time>2026-04-04T11:06:57Z</time></trkpt><trkpt lat="43.04032704874075" lon="12.821161690588854"><ele>929.6666666666666</ele><time>2026-04-04T11:06:59Z</time></trkpt><trkpt lat="43.040367462847044" lon="12.821247400105563"><ele>930.3333333333333</ele><time>2026-04-04T11:07:02Z</time></trkpt><trkpt lat="43.040425611645006" lon="12.821338078605613"><ele>931.0</ele><time>2026-04-04T11:07:04Z</time></trkpt><trkpt lat="43.04045987663872" lon="12.821412576904175"><ele>930.9999999999999</ele><time>2026-04-04T11:07:05Z</time></trkpt><trkpt lat="43.040495813524345" lon="12.821496635879358"><ele>931.0</ele><time>2026-04-04T11:07:06Z</time></trkpt><trkpt lat="43.04056427049324" lon="12.821600671607865"><ele>931.0</ele><time>2026-04-04T11:07:08Z</time></trkpt><trkpt lat="43.040555380702386" lon="12.82173577495093"><ele>931.0</ele><time>2026-04-04T11:07:11Z</time></trkpt><trkpt lat="43.04054936698952" lon="12.821851951694166"><ele>930.9999999999999</ele><time>2026-04-04T11:07:13Z</time></trkpt><trkpt lat="43.0406030491334" lon="12.821947746769562"><ele>931.0</ele><time>2026-04-04T11:07:15Z</time></trkpt><trkpt lat="43.04067821292505" lon="12.82206455006093"><ele>930.3333333333333</ele><time>2026-04-04T11:07:17Z</time></trkpt><trkpt lat="43.04077057888334" lon="12.822164753591004"><ele>929.6666666666666</ele><time>2026-04-04T11:07:19Z</time></trkpt><trkpt lat="43.040829707841674" lon="12.82221263354038"><ele>929.0</ele><time>2026-04-04T11:07:20Z</time></trkpt><trkpt lat="43.04088907419599" lon="12.822265107037824"><ele>928.3333333333333</ele><time>2026-04-04T11:07:21Z</time></trkpt><trkpt lat="43.04094359449197" lon="12.822323436778586"><ele>927.6666666666666</ele><time>2026-04-04T11:07:22Z</time></trkpt><trkpt lat="43.04100029767152" lon="12.822390309899246"><ele>927.0</ele><time>2026-04-04T11:07:23Z</time></trkpt><trkpt lat="43.0410557820234" lon="12.822456265613722"><ele>927.0</ele><time>2026-04-04T11:07:24Z</time></trkpt><trkpt lat="43.041115217161305" lon="12.82254232057167"><ele>927.0</ele><time>2026-04-04T11:07:25Z</time></trkpt><trkpt lat="43.04118702679567" lon="12.822640658457251"><ele>927.0</ele><time>2026-04-04T11:07:26Z</time></trkpt><trkpt lat="43.04126867540353" lon="12.822750350611313"><ele>927.0</ele><time>2026-04-04T11:07:27Z</time></trkpt><trkpt lat="43.04135551251011" lon="12.822869921354917"><ele>927.0</ele><time>2026-04-04T11:07:28Z</time></trkpt><trkpt lat="43.041437203299246" lon="12.822986837763635"><ele>925.0</ele><time>2026-04-04T11:07:29Z</time></trkpt><trkpt lat="43.041508307047174" lon="12.82309756006596"><ele>923.0</ele><time>2026-04-04T11:07:30Z</time></trkpt><trkpt lat="43.04157438177005" lon="12.823203328935842"><ele>921.0</ele><time>2026-04-04T11:07:30.999Z</time></trkpt><trkpt lat="43.041639079072446" lon="12.823298197780726"><ele>919.0</ele><time>2026-04-04T11:07:31.999Z</time></trkpt><trkpt lat="43.041700382398524" lon="12.823381897814954"><ele>917.0</ele><time>2026-04-04T11:07:32.999Z</time></trkpt><trkpt lat="43.04175204377448" lon="12.823436647216392"><ele>916.8333333333334</ele><time>2026-04-04T11:07:33.999Z</time></trkpt><trkpt lat="43.04181884611571" lon="12.82349723745532"><ele>916.6666666666667</ele><time>2026-04-04T11:07:35.999Z</time></trkpt><trkpt lat="43.04187910607514" lon="12.823416996482994"><ele>916.5</ele><time>2026-04-04T11:07:39.999Z</time></trkpt><trkpt lat="43.04193057620296" lon="12.823490270284397"><ele>916.3333333333333</ele><time>2026-04-04T11:07:42.999Z</time></trkpt><trkpt lat="43.04200904943976" lon="12.823554066438112"><ele>916.1666666666666</ele><time>2026-04-04T11:07:45.999Z</time></trkpt><trkpt lat="43.042070453879845" lon="12.823600121851296"><ele>916.0</ele><time>2026-04-04T11:07:47.999Z</time></trkpt><trkpt lat="43.04213536935841" lon="12.823672326350172"><ele>914.8</ele><time>2026-04-04T11:07:48.999Z</time></trkpt><trkpt lat="43.04221274713119" lon="12.823779628360427"><ele>913.5999999999999</ele><time>2026-04-04T11:07:50.999Z</time></trkpt><trkpt lat="43.04227722918173" lon="12.82390488936379"><ele>912.4</ele><time>2026-04-04T11:07:52.999Z</time></trkpt><trkpt lat="43.04234109266365" lon="12.824050733939348"><ele>911.2</ele><time>2026-04-04T11:07:54.999Z</time></trkpt><trkpt lat="43.042361876088" lon="12.824132575728601"><ele>910.0</ele><time>2026-04-04T11:07:55.999Z</time></trkpt><trkpt lat="43.042389008168584" lon="12.824219259454937"><ele>907.4999999999999</ele><time>2026-04-04T11:07:56.999Z</time></trkpt><trkpt lat="43.04241756318034" lon="12.824314221072546"><ele>905.0</ele><time>2026-04-04T11:07:57.999Z</time></trkpt><trkpt lat="43.042451566500795" lon="12.824432400549094"><ele>902.5</ele><time>2026-04-04T11:07:58.999Z</time></trkpt><trkpt lat="43.04248602541245" lon="12.824533760710713"><ele>900.0</ele><time>2026-04-04T11:07:59.999Z</time></trkpt><trkpt lat="43.042513789805135" lon="12.824629564946564"><ele>897.4999999999999</ele><time>2026-04-04T11:08:00.999Z</time></trkpt><trkpt lat="43.042549314035895" lon="12.824746886068331"><ele>895.0</ele><time>2026-04-04T11:08:02.999Z</time></trkpt><trkpt lat="43.04257428293456" lon="12.82483174170046"><ele>894.2</ele><time>2026-04-04T11:08:03.999Z</time></trkpt><trkpt lat="43.04263482187696" lon="12.824975965525097"><ele>893.4</ele><time>2026-04-04T11:08:05.999Z</time></trkpt><trkpt lat="43.04266962711356" lon="12.825068372243466"><ele>892.5999999999999</ele><time>2026-04-04T11:08:06.999Z</time></trkpt><trkpt lat="43.04270714643159" lon="12.82515649367889"><ele>891.8</ele><time>2026-04-04T11:08:07.999Z</time></trkpt><trkpt lat="43.04275652529995" lon="12.82528994097253"><ele>891.0</ele><time>2026-04-04T11:08:09.999Z</time></trkpt><trkpt lat="43.042752233578405" lon="12.825446567753247"><ele>888.1666666666666</ele><time>2026-04-04T11:08:11.999Z</time></trkpt><trkpt lat="43.04274311850853" lon="12.825545297691923"><ele>885.3333333333333</ele><time>2026-04-04T11:08:12.999Z</time></trkpt><trkpt lat="43.04274906531304" lon="12.825643719006443"><ele>882.5</ele><time>2026-04-04T11:08:13.999Z</time></trkpt><trkpt lat="43.042751803394886" lon="12.825776407983808"><ele>879.6666666666666</ele><time>2026-04-04T11:08:14.999Z</time></trkpt><trkpt lat="43.04274832648014" lon="12.825901133019691"><ele>876.8333333333333</ele><time>2026-04-04T11:08:15.999Z</time></trkpt><trkpt lat="43.04274677478808" lon="12.826023945271638"><ele>874.0</ele><time>2026-04-04T11:08:16.999Z</time></trkpt><trkpt lat="43.04274545901747" lon="12.826153395639144"><ele>871.3333333333333</ele><time>2026-04-04T11:08:17.999Z</time></trkpt><trkpt lat="43.04275417574891" lon="12.826263603436768"><ele>868.6666666666666</ele><time>2026-04-04T11:08:18.999Z</time></trkpt><trkpt lat="43.042750746691176" lon="12.82636514542126"><ele>866.0</ele><time>2026-04-04T11:08:19.999Z</time></trkpt><trkpt lat="43.042694396486404" lon="12.82644592464734"><ele>863.3333333333333</ele><time>2026-04-04T11:08:21.999Z</time></trkpt><trkpt lat="43.04268398893459" lon="12.82654784965042"><ele>860.6666666666666</ele><time>2026-04-04T11:08:25.999Z</time></trkpt><trkpt lat="43.042755194914" lon="12.82663086137198"><ele>858.0</ele><time>2026-04-04T11:08:27.999Z</time></trkpt><trkpt lat="43.042815848891536" lon="12.826723743665523"><ele>858.0</ele><time>2026-04-04T11:08:29.999Z</time></trkpt><trkpt lat="43.042861124043235" lon="12.826793519845102"><ele>858.0</ele><time>2026-04-04T11:08:31.999Z</time></trkpt><trkpt lat="43.04292220546081" lon="12.826853334519955"><ele>858.0</ele><time>2026-04-04T11:08:33.999Z</time></trkpt><trkpt lat="43.043004253090864" lon="12.826959381136758"><ele>858.0</ele><time>2026-04-04T11:08:35.999Z</time></trkpt><trkpt lat="43.04308422428547" lon="12.827081867125306"><ele>858.0</ele><time>2026-04-04T11:08:37.999Z</time></trkpt><trkpt lat="43.04313421646971" lon="12.827189592797957"><ele>854.5</ele><time>2026-04-04T11:08:38.999Z</time></trkpt><trkpt lat="43.04317902391678" lon="12.827262099470053"><ele>851.0</ele><time>2026-04-04T11:08:39.999Z</time></trkpt><trkpt lat="43.043235854370145" lon="12.827329393462506"><ele>847.5</ele><time>2026-04-04T11:08:40.999Z</time></trkpt><trkpt lat="43.04329007613355" lon="12.827401531049128"><ele>844.0</ele><time>2026-04-04T11:08:41.999Z</time></trkpt><trkpt lat="43.043348407826" lon="12.827520213937142"><ele>840.5</ele><time>2026-04-04T11:08:43.999Z</time></trkpt><trkpt lat="43.04339799985733" lon="12.827599012567923"><ele>837.0</ele><time>2026-04-04T11:08:46.999Z</time></trkpt><trkpt lat="43.04347253771183" lon="12.827682140426438"><ele>834.1666666666666</ele><time>2026-04-04T11:08:48.999Z</time></trkpt><trkpt lat="43.04357734513245" lon="12.827784223504265"><ele>831.3333333333333</ele><time>2026-04-04T11:08:50.999Z</time></trkpt><trkpt lat="43.04362769882304" lon="12.82783862870703"><ele>828.5</ele><time>2026-04-04T11:08:52Z</time></trkpt><trkpt lat="43.04367391967848" lon="12.827908605720106"><ele>825.6666666666666</ele><time>2026-04-04T11:08:54Z</time></trkpt><trkpt lat="43.04372406625055" lon="12.827976365459042"><ele>822.8333333333333</ele><time>2026-04-04T11:08:59Z</time></trkpt><trkpt lat="43.043801952644024" lon="12.828043389162366"><ele>820.0</ele><time>2026-04-04T11:09:01Z</time></trkpt><trkpt lat="43.04385477267547" lon="12.828103505184986"><ele>819.9999999999999</ele><time>2026-04-04T11:09:03Z</time></trkpt><trkpt lat="43.043895509506655" lon="12.828176542360591"><ele>820.0</ele><time>2026-04-04T11:09:05Z</time></trkpt><trkpt lat="43.04397163204364" lon="12.828237194885787"><ele>820.0</ele><time>2026-04-04T11:09:08Z</time></trkpt><trkpt lat="43.04403154083526" lon="12.828315083269995"><ele>820.0</ele><time>2026-04-04T11:09:10Z</time></trkpt><trkpt lat="43.044060307711284" lon="12.828398007372678"><ele>819.9999999999999</ele><time>2026-04-04T11:09:12Z</time></trkpt><trkpt lat="43.04412925907549" lon="12.828432585575381"><ele>820.0</ele><time>2026-04-04T11:09:14Z</time></trkpt><trkpt lat="43.04418862677477" lon="12.828536274354237"><ele>815.9999999999999</ele><time>2026-04-04T11:09:16Z</time></trkpt><trkpt lat="43.04428323231523" lon="12.828610468919933"><ele>812.0</ele><time>2026-04-04T11:09:18Z</time></trkpt><trkpt lat="43.04434501407553" lon="12.828646247590473"><ele>808.0</ele><time>2026-04-04T11:09:19Z</time></trkpt><trkpt lat="43.04440564473219" lon="12.828670054387757"><ele>804.0</ele><time>2026-04-04T11:09:20Z</time></trkpt><trkpt lat="43.04447766721319" lon="12.828717559884948"><ele>799.9999999999999</ele><time>2026-04-04T11:09:21Z</time></trkpt><trkpt lat="43.04454909645839" lon="12.828763082972038"><ele>796.0</ele><time>2026-04-04T11:09:22Z</time></trkpt><trkpt lat="43.044619195735095" lon="12.828819511928916"><ele>796.0</ele><time>2026-04-04T11:09:23Z</time></trkpt><trkpt lat="43.04467556488117" lon="12.82887004863422"><ele>796.0</ele><time>2026-04-04T11:09:24Z</time></trkpt><trkpt lat="43.044724998427306" lon="12.828943349161706"><ele>796.0</ele><time>2026-04-04T11:09:25Z</time></trkpt><trkpt lat="43.04477464857866" lon="12.82903223430244"><ele>796.0</ele><time>2026-04-04T11:09:26Z</time></trkpt><trkpt lat="43.04485194069406" lon="12.829152647964335"><ele>796.0</ele><time>2026-04-04T11:09:28Z</time></trkpt><trkpt lat="43.0449764542669" lon="12.829247638744498"><ele>793.1666666666666</ele><time>2026-04-04T11:09:30Z</time></trkpt><trkpt lat="43.04504841530576" lon="12.829272993614591"><ele>790.3333333333333</ele><time>2026-04-04T11:09:31Z</time></trkpt><trkpt lat="43.04513869305539" lon="12.829304828477797"><ele>787.5</ele><time>2026-04-04T11:09:32Z</time></trkpt><trkpt lat="43.045206554809184" lon="12.829328945029543"><ele>784.6666666666667</ele><time>2026-04-04T11:09:33Z</time></trkpt><trkpt lat="43.045250198751184" lon="12.829403349571686"><ele>781.8333333333334</ele><time>2026-04-04T11:09:34Z</time></trkpt><trkpt lat="43.04528143195632" lon="12.829485879364322"><ele>779.0</ele><time>2026-04-04T11:09:35Z</time></trkpt><trkpt lat="43.04532156907576" lon="12.829622912456962"><ele>779.0</ele><time>2026-04-04T11:09:37Z</time></trkpt><trkpt lat="43.0454544689238" lon="12.829479699181364"><ele>779.0</ele><time>2026-04-04T11:09:40Z</time></trkpt><trkpt lat="43.04547186458312" lon="12.829379973858373"><ele>779.0</ele><time>2026-04-04T11:09:41Z</time></trkpt><trkpt lat="43.04546402808303" lon="12.829248089593024"><ele>779.0</ele><time>2026-04-04T11:09:42Z</time></trkpt><trkpt lat="43.04545695804924" lon="12.829135527127272"><ele>779.0</ele><time>2026-04-04T11:09:42.999Z</time></trkpt><trkpt lat="43.045448948514796" lon="12.829018012555231"><ele>779.0000000000001</ele><time>2026-04-04T11:09:43.999Z</time></trkpt><trkpt lat="43.04544080273298" lon="12.828899186960765"><ele>779.0</ele><time>2026-04-04T11:09:44.999Z</time></trkpt><trkpt lat="43.04542154211927" lon="12.828780212486553"><ele>779.0</ele><time>2026-04-04T11:09:45.999Z</time></trkpt><trkpt lat="43.045406280740465" lon="12.828664152564153"><ele>779.0</ele><time>2026-04-04T11:09:46.999Z</time></trkpt><trkpt lat="43.04541557319908" lon="12.828540243060461"><ele>779.0000000000001</ele><time>2026-04-04T11:09:47.999Z</time></trkpt><trkpt lat="43.045483117838124" lon="12.82848549039871"><ele>779.0</ele><time>2026-04-04T11:09:48.999Z</time></trkpt><trkpt lat="43.04554634669114" lon="12.828440754863488"><ele>779.4000000000001</ele><time>2026-04-04T11:09:49.999Z</time></trkpt><trkpt lat="43.045638998425474" lon="12.828449388841317"><ele>779.8</ele><time>2026-04-04T11:09:50.999Z</time></trkpt><trkpt lat="43.04574407292255" lon="12.828431431576936"><ele>780.2</ele><time>2026-04-04T11:09:52.999Z</time></trkpt><trkpt lat="43.0458455475231" lon="12.828475538156313"><ele>780.5999999999999</ele><time>2026-04-04T11:09:54.999Z</time></trkpt><trkpt lat="43.04591270297172" lon="12.828544913615678"><ele>781.0</ele><time>2026-04-04T11:09:56.999Z</time></trkpt><trkpt lat="43.04599747429403" lon="12.828589411642847"><ele>776.9999999999999</ele><time>2026-04-04T11:09:58.999Z</time></trkpt><trkpt lat="43.046068806037276" lon="12.828632563923408"><ele>773.0</ele><time>2026-04-04T11:10:11.999Z</time></trkpt><trkpt lat="43.04613328789234" lon="12.828669429586789"><ele>769.0</ele><time>2026-04-04T11:10:14.999Z</time></trkpt><trkpt lat="43.04622226698736" lon="12.828732813242926"><ele>765.0</ele><time>2026-04-04T11:10:16.999Z</time></trkpt><trkpt lat="43.046280766499855" lon="12.828778106562847"><ele>761.0</ele><time>2026-04-04T11:10:17.999Z</time></trkpt><trkpt lat="43.04634800414271" lon="12.828825874294841"><ele>757.0</ele><time>2026-04-04T11:10:18.999Z</time></trkpt><trkpt lat="43.04641374367091" lon="12.82887209444563"><ele>757.0</ele><time>2026-04-04T11:10:19.999Z</time></trkpt><trkpt lat="43.04647173117709" lon="12.828928086831503"><ele>757.0</ele><time>2026-04-04T11:10:20.999Z</time></trkpt><trkpt lat="43.046526310994565" lon="12.828991248663309"><ele>757.0</ele><time>2026-04-04T11:10:21.999Z</time></trkpt><trkpt lat="43.046586163280736" lon="12.829054417522265"><ele>757.0</ele><time>2026-04-04T11:10:22.999Z</time></trkpt><trkpt lat="43.04670700123328" lon="12.829120989721536"><ele>757.0</ele><time>2026-04-04T11:10:24.999Z</time></trkpt><trkpt lat="43.046776133459396" lon="12.82916894720038"><ele>757.0</ele><time>2026-04-04T11:10:25.999Z</time></trkpt><trkpt lat="43.04685912384015" lon="12.829231966202169"><ele>752.8</ele><time>2026-04-04T11:10:26.999Z</time></trkpt><trkpt lat="43.04695779612872" lon="12.829313334734705"><ele>748.6</ele><time>2026-04-04T11:10:27.999Z</time></trkpt><trkpt lat="43.04704402373774" lon="12.829390875123362"><ele>744.4</ele><time>2026-04-04T11:10:28.999Z</time></trkpt><trkpt lat="43.04713497811378" lon="12.829461751876993"><ele>740.1999999999999</ele><time>2026-04-04T11:10:29.999Z</time></trkpt><trkpt lat="43.047236968903576" lon="12.829524549202358"><ele>736.0</ele><time>2026-04-04T11:10:30.999Z</time></trkpt><trkpt lat="43.04734657137498" lon="12.829572253389026"><ele>736.0</ele><time>2026-04-04T11:10:31.999Z</time></trkpt><trkpt lat="43.047458016022986" lon="12.82961895596978"><ele>736.0</ele><time>2026-04-04T11:10:32.999Z</time></trkpt><trkpt lat="43.04757286394565" lon="12.829663302375446"><ele>736.0</ele><time>2026-04-04T11:10:33.999Z</time></trkpt><trkpt lat="43.0476765913663" lon="12.829708354587508"><ele>736.0</ele><time>2026-04-04T11:10:34.999Z</time></trkpt><trkpt lat="43.047766428639434" lon="12.829719809925116"><ele>736.0</ele><time>2026-04-04T11:10:35.999Z</time></trkpt><trkpt lat="43.0478764677075" lon="12.829691474639477"><ele>734.8</ele><time>2026-04-04T11:10:36.999Z</time></trkpt><trkpt lat="43.04800990637679" lon="12.82963777748329"><ele>733.5999999999999</ele><time>2026-04-04T11:10:37.999Z</time></trkpt><trkpt lat="43.048141928090544" lon="12.829585834538078"><ele>732.4</ele><time>2026-04-04T11:10:38.999Z</time></trkpt><trkpt lat="43.04824165970763" lon="12.829562365864081"><ele>731.2</ele><time>2026-04-04T11:10:39.999Z</time></trkpt><trkpt lat="43.04831095986167" lon="12.82956795253535"><ele>730.0</ele><time>2026-04-04T11:10:40.999Z</time></trkpt><trkpt lat="43.04838755176459" lon="12.829621532031629"><ele>728.4</ele><time>2026-04-04T11:10:41.999Z</time></trkpt><trkpt lat="43.04847310113514" lon="12.82969996130749"><ele>726.8</ele><time>2026-04-04T11:10:42.999Z</time></trkpt><trkpt lat="43.048550446789655" lon="12.829804680412645"><ele>725.2</ele><time>2026-04-04T11:10:43.999Z</time></trkpt><trkpt lat="43.0486040290473" lon="12.829899271442981"><ele>723.6</ele><time>2026-04-04T11:10:44.999Z</time></trkpt><trkpt lat="43.048684989207445" lon="12.829941194612138"><ele>722.0</ele><time>2026-04-04T11:10:46.999Z</time></trkpt><trkpt lat="43.04875481166546" lon="12.829923118289049"><ele>722.0</ele><time>2026-04-04T11:10:47.999Z</time></trkpt><trkpt lat="43.04886086635381" lon="12.829867121620785"><ele>722.0</ele><time>2026-04-04T11:10:48.999Z</time></trkpt><trkpt lat="43.04898693923956" lon="12.829804442499762"><ele>722.0</ele><time>2026-04-04T11:10:49.999Z</time></trkpt><trkpt lat="43.04911904351876" lon="12.829766571847964"><ele>722.0</ele><time>2026-04-04T11:10:50.999Z</time></trkpt><trkpt lat="43.04924720061023" lon="12.82973907426057"><ele>721.75</ele><time>2026-04-04T11:10:51.999Z</time></trkpt><trkpt lat="43.04938347444801" lon="12.829691403150875"><ele>721.5</ele><time>2026-04-04T11:10:52.999Z</time></trkpt><trkpt lat="43.049516541985135" lon="12.829645628607636"><ele>721.25</ele><time>2026-04-04T11:10:53.999Z</time></trkpt><trkpt lat="43.04964200976364" lon="12.829611112033238"><ele>721.0</ele><time>2026-04-04T11:10:54.999Z</time></trkpt><trkpt lat="43.049769751367116" lon="12.829552083179054"><ele>721.0</ele><time>2026-04-04T11:10:55.999Z</time></trkpt><trkpt lat="43.049889472304585" lon="12.829455913477926"><ele>721.0</ele><time>2026-04-04T11:10:56.999Z</time></trkpt><trkpt lat="43.050009897208824" lon="12.829382320260127"><ele>721.0</ele><time>2026-04-04T11:10:58Z</time></trkpt><trkpt lat="43.050133368341825" lon="12.829331764923321"><ele>721.0</ele><time>2026-04-04T11:10:59Z</time></trkpt><trkpt lat="43.050260216550896" lon="12.82927122726856"><ele>719.75</ele><time>2026-04-04T11:11:00Z</time></trkpt><trkpt lat="43.05039433836365" lon="12.829225375298632"><ele>718.5</ele><time>2026-04-04T11:11:01Z</time></trkpt><trkpt lat="43.05053273833237" lon="12.829209246345693"><ele>717.25</ele><time>2026-04-04T11:11:02Z</time></trkpt><trkpt lat="43.0506743990901" lon="12.829201029041803"><ele>716.0</ele><time>2026-04-04T11:11:03Z</time></trkpt><trkpt lat="43.05081842288409" lon="12.829214175897569"><ele>715.5</ele><time>2026-04-04T11:11:04Z</time></trkpt><trkpt lat="43.05095626401617" lon="12.829227881573953"><ele>715.0</ele><time>2026-04-04T11:11:05Z</time></trkpt><trkpt lat="43.05108272207842" lon="12.829209117043062"><ele>714.5</ele><time>2026-04-04T11:11:06Z</time></trkpt><trkpt lat="43.051200548303626" lon="12.82917185976455"><ele>714.0</ele><time>2026-04-04T11:11:07Z</time></trkpt><trkpt lat="43.05131121902967" lon="12.82915954344953"><ele>714.0</ele><time>2026-04-04T11:11:08Z</time></trkpt><trkpt lat="43.05141370388882" lon="12.82919127690611"><ele>714.0</ele><time>2026-04-04T11:11:09Z</time></trkpt><trkpt lat="43.05149928128688" lon="12.829240240095203"><ele>714.0</ele><time>2026-04-04T11:11:10Z</time></trkpt><trkpt lat="43.05158993182012" lon="12.829236370848545"><ele>714.0</ele><time>2026-04-04T11:11:11Z</time></trkpt><trkpt lat="43.05169419372975" lon="12.829169416468407"><ele>714.0</ele><time>2026-04-04T11:11:12Z</time></trkpt><trkpt lat="43.05178376917036" lon="12.829090076431836"><ele>713.8333333333334</ele><time>2026-04-04T11:11:13Z</time></trkpt><trkpt lat="43.05186616407337" lon="12.829028340204555"><ele>713.6666666666666</ele><time>2026-04-04T11:11:14Z</time></trkpt><trkpt lat="43.051941240084005" lon="12.828977717387627"><ele>713.5</ele><time>2026-04-04T11:11:15Z</time></trkpt><trkpt lat="43.052011809032194" lon="12.828933524393822"><ele>713.3333333333333</ele><time>2026-04-04T11:11:16Z</time></trkpt><trkpt lat="43.0520800972177" lon="12.828896310586709"><ele>713.1666666666666</ele><time>2026-04-04T11:11:17Z</time></trkpt><trkpt lat="43.05215069553933" lon="12.82887804933598"><ele>713.0</ele><time>2026-04-04T11:11:18Z</time></trkpt><trkpt lat="43.05224544892986" lon="12.828877073207611"><ele>713.0</ele><time>2026-04-04T11:11:20Z</time></trkpt><trkpt lat="43.052253655483426" lon="12.828974506354282"><ele>713.0</ele><time>2026-04-04T11:11:22Z</time></trkpt><trkpt lat="43.05220221920515" lon="12.82909946433786"><ele>713.0</ele><time>2026-04-04T11:11:24Z</time></trkpt><trkpt lat="43.052134406219444" lon="12.8292276898466"><ele>713.0</ele><time>2026-04-04T11:11:26Z</time></trkpt><trkpt lat="43.0521176038099" lon="12.829311169104418"><ele>713.0</ele><time>2026-04-04T11:11:27Z</time></trkpt><trkpt lat="43.05210424714988" lon="12.829408479973827"><ele>713.0</ele><time>2026-04-04T11:11:28Z</time></trkpt><trkpt lat="43.052094116452594" lon="12.829518821307024"><ele>714.5</ele><time>2026-04-04T11:11:29Z</time></trkpt><trkpt lat="43.05208067437708" lon="12.829647528143209"><ele>716.0</ele><time>2026-04-04T11:11:30Z</time></trkpt><trkpt lat="43.05207258948445" lon="12.829784347992724"><ele>717.5</ele><time>2026-04-04T11:11:31Z</time></trkpt><trkpt lat="43.052068238799926" lon="12.829946873299345"><ele>719.0</ele><time>2026-04-04T11:11:32Z</time></trkpt><trkpt lat="43.052063411849936" lon="12.830145194041426"><ele>720.0</ele><time>2026-04-04T11:11:33Z</time></trkpt><trkpt lat="43.05205429909007" lon="12.830374820180106"><ele>721.0</ele><time>2026-04-04T11:11:34Z</time></trkpt><trkpt lat="43.05205056304312" lon="12.83062329189789"><ele>722.0</ele><time>2026-04-04T11:11:35Z</time></trkpt><trkpt lat="43.05204078544394" lon="12.830880935770436"><ele>722.6666666666666</ele><time>2026-04-04T11:11:36Z</time></trkpt><trkpt lat="43.05202628710904" lon="12.831135952356158"><ele>723.3333333333334</ele><time>2026-04-04T11:11:37Z</time></trkpt><trkpt lat="43.05200013635807" lon="12.831374662809573"><ele>724.0</ele><time>2026-04-04T11:11:38Z</time></trkpt><trkpt lat="43.051971242706955" lon="12.831596782173767"><ele>725.0</ele><time>2026-04-04T11:11:39Z</time></trkpt><trkpt lat="43.05195800569835" lon="12.831811047734616"><ele>726.0</ele><time>2026-04-04T11:11:40Z</time></trkpt><trkpt lat="43.05196010193553" lon="12.832015952240987"><ele>727.0</ele><time>2026-04-04T11:11:41Z</time></trkpt><trkpt lat="43.05197571844681" lon="12.832220882072152"><ele>727.0</ele><time>2026-04-04T11:11:42Z</time></trkpt><trkpt lat="43.051996413078705" lon="12.832422093678415"><ele>727.0</ele><time>2026-04-04T11:11:43Z</time></trkpt><trkpt lat="43.05202646039506" lon="12.832615568746562"><ele>727.0</ele><time>2026-04-04T11:11:44Z</time></trkpt><trkpt lat="43.05206375414652" lon="12.832806260697991"><ele>727.0</ele><time>2026-04-04T11:11:45Z</time></trkpt><trkpt lat="43.05209863682315" lon="12.832992879730513"><ele>727.25</ele><time>2026-04-04T11:11:46Z</time></trkpt><trkpt lat="43.05214091423512" lon="12.833179919869115"><ele>727.5</ele><time>2026-04-04T11:11:47Z</time></trkpt><trkpt lat="43.05218241661282" lon="12.83336146849105"><ele>727.75</ele><time>2026-04-04T11:11:48Z</time></trkpt><trkpt lat="43.052215103151696" lon="12.83354533325158"><ele>728.0</ele><time>2026-04-04T11:11:49Z</time></trkpt><trkpt lat="43.052228531931746" lon="12.833731560820372"><ele>728.0</ele><time>2026-04-04T11:11:50Z</time></trkpt><trkpt lat="43.05223112220519" lon="12.833918400337344"><ele>728.0</ele><time>2026-04-04T11:11:51Z</time></trkpt><trkpt lat="43.052230409536094" lon="12.834090479572211"><ele>728.0</ele><time>2026-04-04T11:11:52Z</time></trkpt><trkpt lat="43.052223477676534" lon="12.834244691355334"><ele>728.0</ele><time>2026-04-04T11:11:53Z</time></trkpt><trkpt lat="43.052220019091614" lon="12.83440461025712"><ele>728.75</ele><time>2026-04-04T11:11:54Z</time></trkpt><trkpt lat="43.05220660611862" lon="12.83455332242119"><ele>729.5</ele><time>2026-04-04T11:11:55Z</time></trkpt><trkpt lat="43.05217227062386" lon="12.834697024806303"><ele>730.25</ele><time>2026-04-04T11:11:56Z</time></trkpt><trkpt lat="43.05212447440528" lon="12.834859690849532"><ele>731.0</ele><time>2026-04-04T11:11:57Z</time></trkpt><trkpt lat="43.05206953981678" lon="12.834989125759362"><ele>731.0</ele><time>2026-04-04T11:11:58Z</time></trkpt><trkpt lat="43.052010508997306" lon="12.8351028993562"><ele>731.0</ele><time>2026-04-04T11:11:59Z</time></trkpt><trkpt lat="43.051959040295934" lon="12.835209999777176"><ele>731.0</ele><time>2026-04-04T11:12:00Z</time></trkpt><trkpt lat="43.05191777785223" lon="12.83530390628859"><ele>731.0</ele><time>2026-04-04T11:12:00.999Z</time></trkpt><trkpt lat="43.051881883686924" lon="12.835384300118541"><ele>731.0</ele><time>2026-04-04T11:12:01.999Z</time></trkpt><trkpt lat="43.05188070414099" lon="12.83550773584172"><ele>731.0</ele><time>2026-04-04T11:12:03.999Z</time></trkpt><trkpt lat="43.05196380821764" lon="12.835564515735323"><ele>731.5999999999999</ele><time>2026-04-04T11:12:05.999Z</time></trkpt><trkpt lat="43.05206409083533" lon="12.835544769977231"><ele>732.2</ele><time>2026-04-04T11:12:07.999Z</time></trkpt><trkpt lat="43.05214881343046" lon="12.83557033475407"><ele>732.8</ele><time>2026-04-04T11:12:09.999Z</time></trkpt><trkpt lat="43.052185440248756" lon="12.835686489833819"><ele>733.4000000000001</ele><time>2026-04-04T11:12:11.999Z</time></trkpt><trkpt lat="43.05217661730004" lon="12.83583274745964"><ele>734.0</ele><time>2026-04-04T11:12:13.999Z</time></trkpt><trkpt lat="43.052148747123006" lon="12.835988670736151"><ele>734.8000000000001</ele><time>2026-04-04T11:12:15.999Z</time></trkpt><trkpt lat="43.05214684251822" lon="12.836090074720763"><ele>735.6</ele><time>2026-04-04T11:12:16.999Z</time></trkpt><trkpt lat="43.05214120808205" lon="12.836303302944952"><ele>736.4</ele><time>2026-04-04T11:12:18.999Z</time></trkpt><trkpt lat="43.05214362462109" lon="12.836426105597445"><ele>737.2</ele><time>2026-04-04T11:12:19.999Z</time></trkpt><trkpt lat="43.052143576533375" lon="12.836547837183277"><ele>738.0</ele><time>2026-04-04T11:12:20.999Z</time></trkpt><trkpt lat="43.0521437704129" lon="12.8366598313674"><ele>738.0</ele><time>2026-04-04T11:12:21.999Z</time></trkpt><trkpt lat="43.052151286399116" lon="12.836771140779563"><ele>738.0</ele><time>2026-04-04T11:12:22.999Z</time></trkpt><trkpt lat="43.05217150494612" lon="12.836893233151898"><ele>738.0</ele><time>2026-04-04T11:12:23.999Z</time></trkpt><trkpt lat="43.05220659617161" lon="12.837007067486569"><ele>738.0</ele><time>2026-04-04T11:12:24.999Z</time></trkpt><trkpt lat="43.052226769440374" lon="12.837095233141591"><ele>738.0</ele><time>2026-04-04T11:12:25.999Z</time></trkpt><trkpt lat="43.05226550835558" lon="12.837181238776383"><ele>738.0</ele><time>2026-04-04T11:12:26.999Z</time></trkpt><trkpt lat="43.05233012044682" lon="12.837258333560165"><ele>738.5</ele><time>2026-04-04T11:12:27.999Z</time></trkpt><trkpt lat="43.052374710254476" lon="12.837352364306144"><ele>739.0</ele><time>2026-04-04T11:12:28.999Z</time></trkpt><trkpt lat="43.05241615762421" lon="12.837442060502704"><ele>739.5</ele><time>2026-04-04T11:12:29.999Z</time></trkpt><trkpt lat="43.05245771821904" lon="12.837531743721582"><ele>740.0</ele><time>2026-04-04T11:12:30.999Z</time></trkpt><trkpt lat="43.052491047598885" lon="12.83762522841055"><ele>740.5</ele><time>2026-04-04T11:12:31.999Z</time></trkpt><trkpt lat="43.0525086778316" lon="12.837771950937102"><ele>741.0</ele><time>2026-04-04T11:12:33.999Z</time></trkpt><trkpt lat="43.052642779573574" lon="12.837967813947612"><ele>742.8</ele><time>2026-04-04T11:13:31Z</time></trkpt><trkpt lat="43.05276022787533" lon="12.838049059686915"><ele>744.5999999999999</ele><time>2026-04-04T11:13:33Z</time></trkpt><trkpt lat="43.05281917131309" lon="12.83809793095936"><ele>746.4</ele><time>2026-04-04T11:13:34Z</time></trkpt><trkpt lat="43.05289913119134" lon="12.838171626813255"><ele>748.2</ele><time>2026-04-04T11:13:35Z</time></trkpt><trkpt lat="43.052979059582746" lon="12.838265673667781"><ele>750.0</ele><time>2026-04-04T11:13:36Z</time></trkpt><trkpt lat="43.05305222575913" lon="12.838381173581494"><ele>752.3333333333334</ele><time>2026-04-04T11:13:37Z</time></trkpt><trkpt lat="43.05313249656088" lon="12.838531313968248"><ele>754.6666666666667</ele><time>2026-04-04T11:13:38Z</time></trkpt><trkpt lat="43.05322123256795" lon="12.838713206928587"><ele>757.0</ele><time>2026-04-04T11:13:39Z</time></trkpt><trkpt lat="43.053313826891895" lon="12.838894031280798"><ele>758.5</ele><time>2026-04-04T11:13:40Z</time></trkpt><trkpt lat="43.05340409420885" lon="12.839069454480489"><ele>760.0</ele><time>2026-04-04T11:13:41Z</time></trkpt><trkpt lat="43.053491382639514" lon="12.839233259198648"><ele>761.5</ele><time>2026-04-04T11:13:42Z</time></trkpt><trkpt lat="43.053586352639385" lon="12.83938206837104"><ele>763.0</ele><time>2026-04-04T11:13:43Z</time></trkpt><trkpt lat="43.0536892552157" lon="12.839522373576825"><ele>764.0</ele><time>2026-04-04T11:13:44Z</time></trkpt><trkpt lat="43.05380206474811" lon="12.839664544362355"><ele>765.0</ele><time>2026-04-04T11:13:45Z</time></trkpt><trkpt lat="43.05390738166162" lon="12.839821399627686"><ele>766.0</ele><time>2026-04-04T11:13:46Z</time></trkpt><trkpt lat="43.05400501272863" lon="12.840010185574842"><ele>769.0</ele><time>2026-04-04T11:13:47Z</time></trkpt><trkpt lat="43.05409748750596" lon="12.840199282871492"><ele>772.0</ele><time>2026-04-04T11:13:48Z</time></trkpt><trkpt lat="43.054184651691806" lon="12.840377628968609"><ele>775.0</ele><time>2026-04-04T11:13:49Z</time></trkpt><trkpt lat="43.05426270900185" lon="12.840551478046697"><ele>775.0</ele><time>2026-04-04T11:13:50Z</time></trkpt><trkpt lat="43.05432836780371" lon="12.840723107966449"><ele>775.0</ele><time>2026-04-04T11:13:51Z</time></trkpt><trkpt lat="43.05437501597147" lon="12.840906260232751"><ele>775.0</ele><time>2026-04-04T11:13:52Z</time></trkpt><trkpt lat="43.05441772356761" lon="12.841090441663628"><ele>775.0</ele><time>2026-04-04T11:13:53Z</time></trkpt><trkpt lat="43.05446520704001" lon="12.841248447451877"><ele>777.6666666666666</ele><time>2026-04-04T11:13:54Z</time></trkpt><trkpt lat="43.05454660202475" lon="12.8414154690019"><ele>780.3333333333333</ele><time>2026-04-04T11:13:55Z</time></trkpt><trkpt lat="43.05463470590222" lon="12.84158668247347"><ele>783.0</ele><time>2026-04-04T11:13:56Z</time></trkpt><trkpt lat="43.05472483579907" lon="12.841751694880793"><ele>784.5</ele><time>2026-04-04T11:13:57Z</time></trkpt><trkpt lat="43.05482044388474" lon="12.841905859186824"><ele>786.0</ele><time>2026-04-04T11:13:58Z</time></trkpt><trkpt lat="43.0549172199106" lon="12.842025514018617"><ele>787.5</ele><time>2026-04-04T11:13:59Z</time></trkpt><trkpt lat="43.055015108516514" lon="12.842145372094937"><ele>789.0</ele><time>2026-04-04T11:14:00Z</time></trkpt><trkpt lat="43.05513996093944" lon="12.842244239441051"><ele>789.0</ele><time>2026-04-04T11:14:01Z</time></trkpt><trkpt lat="43.05526571993356" lon="12.842326629664939"><ele>789.0</ele><time>2026-04-04T11:14:02Z</time></trkpt><trkpt lat="43.0553951441385" lon="12.842434615933213"><ele>789.0</ele><time>2026-04-04T11:14:03Z</time></trkpt><trkpt lat="43.055521105622056" lon="12.842563020628264"><ele>789.0</ele><time>2026-04-04T11:14:04Z</time></trkpt><trkpt lat="43.05561407407206" lon="12.842695011986521"><ele>792.0</ele><time>2026-04-04T11:14:05Z</time></trkpt><trkpt lat="43.05570056510713" lon="12.842817352919859"><ele>795.0</ele><time>2026-04-04T11:14:06Z</time></trkpt><trkpt lat="43.05581290499566" lon="12.84294626695683"><ele>798.0</ele><time>2026-04-04T11:14:07Z</time></trkpt><trkpt lat="43.055915629945986" lon="12.84307583819362"><ele>801.0</ele><time>2026-04-04T11:14:08Z</time></trkpt><trkpt lat="43.05600557896705" lon="12.843215507989797"><ele>801.0</ele><time>2026-04-04T11:14:09Z</time></trkpt><trkpt lat="43.05609035864982" lon="12.843354458607998"><ele>801.0</ele><time>2026-04-04T11:14:10Z</time></trkpt><trkpt lat="43.05616707786879" lon="12.843493879396398"><ele>801.0</ele><time>2026-04-04T11:14:11Z</time></trkpt><trkpt lat="43.05624954377112" lon="12.843631452423107"><ele>801.0</ele><time>2026-04-04T11:14:11.999Z</time></trkpt><trkpt lat="43.056331680702314" lon="12.843775782754502"><ele>801.5</ele><time>2026-04-04T11:14:12.999Z</time></trkpt><trkpt lat="43.05641850237719" lon="12.843917027155426"><ele>802.0</ele><time>2026-04-04T11:14:13.999Z</time></trkpt><trkpt lat="43.056508513640104" lon="12.844053265540879"><ele>802.5</ele><time>2026-04-04T11:14:14.999Z</time></trkpt><trkpt lat="43.05659720282488" lon="12.844203327682397"><ele>803.0</ele><time>2026-04-04T11:14:15.999Z</time></trkpt><trkpt lat="43.05668924068902" lon="12.84433663729248"><ele>808.0</ele><time>2026-04-04T11:14:16.999Z</time></trkpt><trkpt lat="43.056784069740495" lon="12.84444389926979"><ele>813.0</ele><time>2026-04-04T11:14:17.999Z</time></trkpt><trkpt lat="43.056870304982176" lon="12.844514910973624"><ele>818.0</ele><time>2026-04-04T11:14:18.999Z</time></trkpt><trkpt lat="43.056944657248316" lon="12.844582355832776"><ele>823.0</ele><time>2026-04-04T11:14:19.999Z</time></trkpt><trkpt lat="43.0570110142711" lon="12.844659682920105"><ele>828.0</ele><time>2026-04-04T11:14:20.999Z</time></trkpt><trkpt lat="43.05708070462796" lon="12.844732142659181"><ele>828.0</ele><time>2026-04-04T11:14:21.999Z</time></trkpt><trkpt lat="43.05715048886201" lon="12.844792839077744"><ele>828.0</ele><time>2026-04-04T11:14:22.999Z</time></trkpt><trkpt lat="43.05721510594405" lon="12.844843064569634"><ele>828.0</ele><time>2026-04-04T11:14:23.999Z</time></trkpt><trkpt lat="43.05728126440419" lon="12.844891384112762"><ele>828.0</ele><time>2026-04-04T11:14:24.999Z</time></trkpt><trkpt lat="43.057354545228776" lon="12.844941506559442"><ele>828.0</ele><time>2026-04-04T11:14:25.999Z</time></trkpt><trkpt lat="43.05741468035225" lon="12.844974704082441"><ele>828.0</ele><time>2026-04-04T11:14:26.999Z</time></trkpt><trkpt lat="43.05747549865898" lon="12.845040272539165"><ele>831.4</ele><time>2026-04-04T11:14:28.999Z</time></trkpt><trkpt lat="43.057419468730366" lon="12.845183851019362"><ele>834.8</ele><time>2026-04-04T11:14:30.999Z</time></trkpt><trkpt lat="43.057499630872094" lon="12.845315967110613"><ele>838.2</ele><time>2026-04-04T11:14:33.999Z</time></trkpt><trkpt lat="43.05754793555826" lon="12.84540264248618"><ele>841.6</ele><time>2026-04-04T11:14:34.999Z</time></trkpt><trkpt lat="43.05760202839643" lon="12.845460530916858"><ele>845.0</ele><time>2026-04-04T11:14:35.999Z</time></trkpt><trkpt lat="43.05766588223949" lon="12.84559564111956"><ele>846.75</ele><time>2026-04-04T11:14:37.999Z</time></trkpt><trkpt lat="43.05772323033819" lon="12.845694296705354"><ele>848.5</ele><time>2026-04-04T11:14:39.999Z</time></trkpt><trkpt lat="43.05778797538439" lon="12.845832527146607"><ele>850.25</ele><time>2026-04-04T11:14:41.999Z</time></trkpt><trkpt lat="43.05786069634924" lon="12.84596491631809"><ele>852.0</ele><time>2026-04-04T11:14:43.999Z</time></trkpt><trkpt lat="43.057988829755956" lon="12.845997219570346"><ele>854.8333333333334</ele><time>2026-04-04T11:14:45.999Z</time></trkpt><trkpt lat="43.05806358677483" lon="12.846014939248999"><ele>857.6666666666667</ele><time>2026-04-04T11:14:46.999Z</time></trkpt><trkpt lat="43.058141677726354" lon="12.84610230937019"><ele>860.5</ele><time>2026-04-04T11:14:48.999Z</time></trkpt><trkpt lat="43.05820185425308" lon="12.846155200987809"><ele>863.3333333333334</ele><time>2026-04-04T11:14:50.999Z</time></trkpt><trkpt lat="43.05822152163003" lon="12.84625420128411"><ele>866.1666666666667</ele><time>2026-04-04T11:14:52.999Z</time></trkpt><trkpt lat="43.058251046092074" lon="12.846360062239706"><ele>869.0</ele><time>2026-04-04T11:14:54.999Z</time></trkpt><trkpt lat="43.05827391359509" lon="12.846451947063628"><ele>871.5</ele><time>2026-04-04T11:14:55.999Z</time></trkpt><trkpt lat="43.05837790454857" lon="12.846646157440187"><ele>874.0</ele><time>2026-04-04T11:14:57.999Z</time></trkpt><trkpt lat="43.058453710745255" lon="12.846779438869019"><ele>876.5</ele><time>2026-04-04T11:14:58.999Z</time></trkpt><trkpt lat="43.05852369837064" lon="12.846851312695607"><ele>879.0</ele><time>2026-04-04T11:14:59.999Z</time></trkpt><trkpt lat="43.0586090786896" lon="12.846892095503756"><ele>884.1666666666666</ele><time>2026-04-04T11:15:00.999Z</time></trkpt><trkpt lat="43.058675145652884" lon="12.846944688449371"><ele>889.3333333333333</ele><time>2026-04-04T11:15:01.999Z</time></trkpt><trkpt lat="43.05870367225862" lon="12.847035293755017"><ele>894.5</ele><time>2026-04-04T11:15:02.999Z</time></trkpt><trkpt lat="43.058765594605404" lon="12.847102503840073"><ele>899.6666666666666</ele><time>2026-04-04T11:15:03.999Z</time></trkpt><trkpt lat="43.058832487474554" lon="12.84712849388815"><ele>904.8333333333333</ele><time>2026-04-04T11:15:04.999Z</time></trkpt><trkpt lat="43.058899597236554" lon="12.847140672181235"><ele>910.0</ele><time>2026-04-04T11:15:05.999Z</time></trkpt><trkpt lat="43.059027447724844" lon="12.847160803076331"><ele>910.0</ele><time>2026-04-04T11:15:07.999Z</time></trkpt><trkpt lat="43.05910830448335" lon="12.847197889662196"><ele>910.0</ele><time>2026-04-04T11:15:09Z</time></trkpt><trkpt lat="43.059174573146045" lon="12.84723192266091"><ele>910.0</ele><time>2026-04-04T11:15:10Z</time></trkpt><trkpt lat="43.05925568625091" lon="12.847265170871582"><ele>910.0</ele><time>2026-04-04T11:15:11Z</time></trkpt><trkpt lat="43.05938048554655" lon="12.847365722881058"><ele>910.0</ele><time>2026-04-04T11:15:13Z</time></trkpt><trkpt lat="43.05946503786304" lon="12.847453134239858"><ele>910.4999999999999</ele><time>2026-04-04T11:15:14Z</time></trkpt><trkpt lat="43.059535854805056" lon="12.847519664934737"><ele>911.0</ele><time>2026-04-04T11:15:15Z</time></trkpt><trkpt lat="43.059618184781385" lon="12.847603377372394"><ele>911.5</ele><time>2026-04-04T11:15:16Z</time></trkpt><trkpt lat="43.05968413188763" lon="12.847683611347495"><ele>912.0</ele><time>2026-04-04T11:15:17Z</time></trkpt><trkpt lat="43.059690759301006" lon="12.847781216754958"><ele>912.4999999999999</ele><time>2026-04-04T11:15:18Z</time></trkpt><trkpt lat="43.05976947902484" lon="12.847851264981333"><ele>913.0</ele><time>2026-04-04T11:15:19Z</time></trkpt><trkpt lat="43.05984028052402" lon="12.847926289671127"><ele>917.8333333333333</ele><time>2026-04-04T11:15:20Z</time></trkpt><trkpt lat="43.05990541664772" lon="12.847961820198469"><ele>922.6666666666666</ele><time>2026-04-04T11:15:21Z</time></trkpt><trkpt lat="43.05993473678756" lon="12.848045864360623"><ele>927.5</ele><time>2026-04-04T11:15:22Z</time></trkpt><trkpt lat="43.05999010839197" lon="12.848179210075402"><ele>932.3333333333333</ele><time>2026-04-04T11:15:24Z</time></trkpt><trkpt lat="43.060048927995936" lon="12.84825415081952"><ele>937.1666666666666</ele><time>2026-04-04T11:15:25Z</time></trkpt><trkpt lat="43.060106569160375" lon="12.848318917644317"><ele>942.0</ele><time>2026-04-04T11:15:26Z</time></trkpt><trkpt lat="43.06017394954601" lon="12.848349671805023"><ele>942.0</ele><time>2026-04-04T11:15:27Z</time></trkpt><trkpt lat="43.06024719858229" lon="12.848377095596549"><ele>942.0</ele><time>2026-04-04T11:15:28Z</time></trkpt><trkpt lat="43.06038610372835" lon="12.8484037689324"><ele>942.0</ele><time>2026-04-04T11:15:30Z</time></trkpt><trkpt lat="43.06046503118712" lon="12.848450254674502"><ele>942.0</ele><time>2026-04-04T11:15:31Z</time></trkpt><trkpt lat="43.060536689236464" lon="12.848604715414751"><ele>942.0</ele><time>2026-04-04T11:15:33Z</time></trkpt><trkpt lat="43.06057228317264" lon="12.848707533936835"><ele>945.4000000000001</ele><time>2026-04-04T11:15:34Z</time></trkpt><trkpt lat="43.06070831279526" lon="12.84880615547946"><ele>948.8000000000001</ele><time>2026-04-04T11:15:37Z</time></trkpt><trkpt lat="43.0607602672363" lon="12.848896400549458"><ele>952.2</ele><time>2026-04-04T11:15:38Z</time></trkpt><trkpt lat="43.060832441000954" lon="12.848966991305762"><ele>955.6</ele><time>2026-04-04T11:15:39Z</time></trkpt><trkpt lat="43.0609168446992" lon="12.849025956592296"><ele>959.0</ele><time>2026-04-04T11:15:40Z</time></trkpt><trkpt lat="43.060992741179085" lon="12.849091445224921"><ele>961.6</ele><time>2026-04-04T11:15:41Z</time></trkpt><trkpt lat="43.06104843770442" lon="12.849180385920349"><ele>964.2</ele><time>2026-04-04T11:15:42Z</time></trkpt><trkpt lat="43.06109927739814" lon="12.84929930902189"><ele>966.8000000000001</ele><time>2026-04-04T11:15:43Z</time></trkpt><trkpt lat="43.06113053704345" lon="12.849423558286244"><ele>969.4000000000001</ele><time>2026-04-04T11:15:44Z</time></trkpt><trkpt lat="43.061162448047604" lon="12.849561146145243"><ele>972.0</ele><time>2026-04-04T11:15:46Z</time></trkpt><trkpt lat="43.061246388648364" lon="12.849697338754915"><ele>973.6</ele><time>2026-04-04T11:15:48Z</time></trkpt><trkpt lat="43.061315514632156" lon="12.84980385455223"><ele>975.2</ele><time>2026-04-04T11:15:49Z</time></trkpt><trkpt lat="43.06139536436025" lon="12.849891389635063"><ele>976.8</ele><time>2026-04-04T11:15:50Z</time></trkpt><trkpt lat="43.061476502641504" lon="12.849989480526197"><ele>978.4</ele><time>2026-04-04T11:15:51Z</time></trkpt><trkpt lat="43.06154939780883" lon="12.850074900412235"><ele>980.0</ele><time>2026-04-04T11:15:52Z</time></trkpt><trkpt lat="43.061633776260436" lon="12.850132050914073"><ele>982.3333333333334</ele><time>2026-04-04T11:15:53Z</time></trkpt><trkpt lat="43.061708433468674" lon="12.850194614011977"><ele>984.6666666666667</ele><time>2026-04-04T11:15:54Z</time></trkpt><trkpt lat="43.06176890732699" lon="12.850242082689665"><ele>987.0</ele><time>2026-04-04T11:15:55Z</time></trkpt><trkpt lat="43.06185795257181" lon="12.850317214806394"><ele>989.3333333333333</ele><time>2026-04-04T11:15:57Z</time></trkpt><trkpt lat="43.06188626482759" lon="12.850423472584877"><ele>991.6666666666666</ele><time>2026-04-04T11:15:59Z</time></trkpt><trkpt lat="43.06183820432829" lon="12.850497240559626"><ele>994.0</ele><time>2026-04-04T11:16:02Z</time></trkpt><trkpt lat="43.06179647177873" lon="12.850562130599629"><ele>994.0</ele><time>2026-04-04T11:16:06Z</time></trkpt><trkpt lat="43.061840362512655" lon="12.850666868985483"><ele>994.0000000000001</ele><time>2026-04-04T11:16:12Z</time></trkpt><trkpt lat="43.06189479285092" lon="12.850729436234154"><ele>994.0000000000001</ele><time>2026-04-04T11:16:13Z</time></trkpt><trkpt lat="43.06196553769188" lon="12.850825206000128"><ele>994.0</ele><time>2026-04-04T11:16:14Z</time></trkpt><trkpt lat="43.06206573381553" lon="12.850961050585012"><ele>994.0</ele><time>2026-04-04T11:16:15Z</time></trkpt><trkpt lat="43.06217985492495" lon="12.851129433150398"><ele>995.75</ele><time>2026-04-04T11:16:16Z</time></trkpt><trkpt lat="43.0622837027126" lon="12.85129755445047"><ele>997.5</ele><time>2026-04-04T11:16:17Z</time></trkpt><trkpt lat="43.06236827749868" lon="12.851433911453585"><ele>999.25</ele><time>2026-04-04T11:16:18Z</time></trkpt><trkpt lat="43.06242927563435" lon="12.851525541857262"><ele>1001.0</ele><time>2026-04-04T11:16:19Z</time></trkpt><trkpt lat="43.062502387465734" lon="12.851632435570433"><ele>1001.3333333333334</ele><time>2026-04-04T11:16:21Z</time></trkpt><trkpt lat="43.062570917119764" lon="12.851726224846146"><ele>1001.6666666666667</ele><time>2026-04-04T11:16:22.999Z</time></trkpt><trkpt lat="43.06265279359004" lon="12.851854950009884"><ele>1002.0</ele><time>2026-04-04T11:16:24.999Z</time></trkpt><trkpt lat="43.06269373208216" lon="12.851935278408039"><ele>1002.3333333333333</ele><time>2026-04-04T11:16:25.999Z</time></trkpt><trkpt lat="43.06273545349154" lon="12.85200851079462"><ele>1002.6666666666666</ele><time>2026-04-04T11:16:26.999Z</time></trkpt><trkpt lat="43.062789077206716" lon="12.852100637822968"><ele>1003.0</ele><time>2026-04-04T11:16:27.999Z</time></trkpt><trkpt lat="43.06284912259542" lon="12.852196843304846"><ele>1003.0</ele><time>2026-04-04T11:16:28.999Z</time></trkpt><trkpt lat="43.06290601297218" lon="12.852281123935693"><ele>1003.0</ele><time>2026-04-04T11:16:29.999Z</time></trkpt><trkpt lat="43.06294764576039" lon="12.852360624586584"><ele>1003.0</ele><time>2026-04-04T11:16:30.999Z</time></trkpt><trkpt lat="43.062975846602974" lon="12.85250894499417"><ele>1003.0</ele><time>2026-04-04T11:16:32.999Z</time></trkpt><trkpt lat="43.062989089809165" lon="12.8526620007701"><ele>1003.0</ele><time>2026-04-04T11:16:34.999Z</time></trkpt><trkpt lat="43.06300286105578" lon="12.852838267146321"><ele>1004.3333333333333</ele><time>2026-04-04T11:16:36.999Z</time></trkpt><trkpt lat="43.063021253315966" lon="12.852939934274541"><ele>1005.6666666666666</ele><time>2026-04-04T11:16:37.999Z</time></trkpt><trkpt lat="43.063054679363745" lon="12.853102687119877"><ele>1007.0</ele><time>2026-04-04T11:16:39.999Z</time></trkpt><trkpt lat="43.06306415327411" lon="12.853194649971043"><ele>1008.3333333333333</ele><time>2026-04-04T11:16:40.999Z</time></trkpt><trkpt lat="43.063064723863974" lon="12.853282749619106"><ele>1009.6666666666666</ele><time>2026-04-04T11:16:41.999Z</time></trkpt><trkpt lat="43.06304596412844" lon="12.853428169008971"><ele>1011.0</ele><time>2026-04-04T11:16:43.999Z</time></trkpt><trkpt lat="43.06309304495731" lon="12.853570579239628"><ele>1012.5</ele><time>2026-04-04T11:16:45.999Z</time></trkpt><trkpt lat="43.06315302298815" lon="12.853597900862122"><ele>1014.0</ele><time>2026-04-04T11:16:46.999Z</time></trkpt><trkpt lat="43.06324968593106" lon="12.853684974050985"><ele>1015.5</ele><time>2026-04-04T11:16:48.999Z</time></trkpt><trkpt lat="43.06329023718887" lon="12.853769305208587"><ele>1017.0</ele><time>2026-04-04T11:16:49.999Z</time></trkpt><trkpt lat="43.06332816876317" lon="12.853896422708887"><ele>1018.5</ele><time>2026-04-04T11:16:51.999Z</time></trkpt><trkpt lat="43.06339586079393" lon="12.853927009961387"><ele>1020.0</ele><time>2026-04-04T11:16:52.999Z</time></trkpt><trkpt lat="43.063451975209944" lon="12.853987588809266"><ele>1013.8333333333334</ele><time>2026-04-04T11:16:53.999Z</time></trkpt><trkpt lat="43.063536816208995" lon="12.854013080214125"><ele>1007.6666666666667</ele><time>2026-04-04T11:16:54.999Z</time></trkpt><trkpt lat="43.063606486259765" lon="12.854062238347558"><ele>1001.5</ele><time>2026-04-04T11:16:55.999Z</time></trkpt><trkpt lat="43.063662026702275" lon="12.854119857417528"><ele>995.3333333333334</ele><time>2026-04-04T11:16:56.999Z</time></trkpt><trkpt lat="43.06371978013138" lon="12.854173491593848"><ele>989.1666666666667</ele><time>2026-04-04T11:16:57.999Z</time></trkpt><trkpt lat="43.06383176749771" lon="12.854242277091268"><ele>983.0</ele><time>2026-04-04T11:16:59.999Z</time></trkpt><trkpt lat="43.063900210458065" lon="12.85425964258864"><ele>985.3333333333334</ele><time>2026-04-04T11:17:00.999Z</time></trkpt><trkpt lat="43.0639788278083" lon="12.854298615052215"><ele>987.6666666666667</ele><time>2026-04-04T11:17:01.999Z</time></trkpt><trkpt lat="43.06402776759001" lon="12.854368655255302"><ele>990.0</ele><time>2026-04-04T11:17:02.999Z</time></trkpt><trkpt lat="43.06407367536674" lon="12.854447292958174"><ele>992.3333333333333</ele><time>2026-04-04T11:17:03.999Z</time></trkpt><trkpt lat="43.06418964623967" lon="12.854522390217726"><ele>994.6666666666666</ele><time>2026-04-04T11:17:05.999Z</time></trkpt><trkpt lat="43.064263155836954" lon="12.854511271304956"><ele>997.0</ele><time>2026-04-04T11:17:06.999Z</time></trkpt><trkpt lat="43.06435167667468" lon="12.854588924118946"><ele>988.75</ele><time>2026-04-04T11:17:08.999Z</time></trkpt><trkpt lat="43.064445497731704" lon="12.854694381079568"><ele>980.5</ele><time>2026-04-04T11:17:09.999Z</time></trkpt><trkpt lat="43.06454121045852" lon="12.854800121476242"><ele>972.25</ele><time>2026-04-04T11:17:10.999Z</time></trkpt><trkpt lat="43.06465958570534" lon="12.854864050795516"><ele>964.0</ele><time>2026-04-04T11:17:11.999Z</time></trkpt><trkpt lat="43.064768408152005" lon="12.854947922177326"><ele>964.0</ele><time>2026-04-04T11:17:12.999Z</time></trkpt><trkpt lat="43.06487356823719" lon="12.85502381845576"><ele>964.0000000000001</ele><time>2026-04-04T11:17:13.999Z</time></trkpt><trkpt lat="43.06496201362293" lon="12.855084093906703"><ele>964.0000000000001</ele><time>2026-04-04T11:17:15Z</time></trkpt><trkpt lat="43.065059695446344" lon="12.855157905606069"><ele>964.0</ele><time>2026-04-04T11:17:16Z</time></trkpt><trkpt lat="43.065139845820354" lon="12.855253183062807"><ele>964.0</ele><time>2026-04-04T11:17:17Z</time></trkpt><trkpt lat="43.06521569346538" lon="12.855345483075764"><ele>960.6</ele><time>2026-04-04T11:17:18Z</time></trkpt><trkpt lat="43.06530401819562" lon="12.85540056708036"><ele>957.2</ele><time>2026-04-04T11:17:19Z</time></trkpt><trkpt lat="43.06539406053859" lon="12.855447346446256"><ele>953.8000000000001</ele><time>2026-04-04T11:17:20Z</time></trkpt><trkpt lat="43.06548360582501" lon="12.85550712756366"><ele>950.4000000000001</ele><time>2026-04-04T11:17:21Z</time></trkpt><trkpt lat="43.065580612912456" lon="12.855554310702985"><ele>947.0</ele><time>2026-04-04T11:17:22Z</time></trkpt><trkpt lat="43.06565064144153" lon="12.85562158323655"><ele>947.0000000000001</ele><time>2026-04-04T11:17:23Z</time></trkpt><trkpt lat="43.06571751306749" lon="12.855675675763266"><ele>947.0</ele><time>2026-04-04T11:17:24Z</time></trkpt><trkpt lat="43.06577649929832" lon="12.855708346222297"><ele>947.0</ele><time>2026-04-04T11:17:25Z</time></trkpt><trkpt lat="43.06584318779998" lon="12.855758731235529"><ele>947.0</ele><time>2026-04-04T11:17:34Z</time></trkpt><trkpt lat="43.0658526801685" lon="12.85586207895098"><ele>947.0000000000001</ele><time>2026-04-04T11:18:02Z</time></trkpt><trkpt lat="43.06580817899227" lon="12.855987265103424"><ele>947.0</ele><time>2026-04-04T11:18:04Z</time></trkpt><trkpt lat="43.065747858292724" lon="12.856106439131382"><ele>943.6</ele><time>2026-04-04T11:18:06Z</time></trkpt><trkpt lat="43.06565639410234" lon="12.856218873640593"><ele>940.2</ele><time>2026-04-04T11:18:08Z</time></trkpt><trkpt lat="43.06559647254637" lon="12.85630660936494"><ele>936.8</ele><time>2026-04-04T11:18:09Z</time></trkpt><trkpt lat="43.06552670024135" lon="12.856394043501071"><ele>933.4</ele><time>2026-04-04T11:18:10Z</time></trkpt><trkpt lat="43.065438731602875" lon="12.856489091728866"><ele>930.0</ele><time>2026-04-04T11:18:11Z</time></trkpt><trkpt lat="43.06533334739308" lon="12.856573840800124"><ele>930.0</ele><time>2026-04-04T11:18:12Z</time></trkpt><trkpt lat="43.06523920484234" lon="12.85664774936774"><ele>930.0</ele><time>2026-04-04T11:18:13Z</time></trkpt><trkpt lat="43.06514920399523" lon="12.856748036808069"><ele>930.0</ele><time>2026-04-04T11:18:14Z</time></trkpt><trkpt lat="43.06507400301212" lon="12.856862407057172"><ele>930.0</ele><time>2026-04-04T11:18:15Z</time></trkpt><trkpt lat="43.06502888542214" lon="12.856998523664556"><ele>930.0</ele><time>2026-04-04T11:18:16Z</time></trkpt><trkpt lat="43.06499149754662" lon="12.85713266361602"><ele>928.0</ele><time>2026-04-04T11:18:17Z</time></trkpt><trkpt lat="43.064969109332694" lon="12.857242824279814"><ele>926.0</ele><time>2026-04-04T11:18:18Z</time></trkpt><trkpt lat="43.06493853045429" lon="12.857352870261964"><ele>924.0</ele><time>2026-04-04T11:18:19Z</time></trkpt><trkpt lat="43.064881697686026" lon="12.857427924090352"><ele>922.0</ele><time>2026-04-04T11:18:20Z</time></trkpt><trkpt lat="43.064799788426136" lon="12.857498003977557"><ele>920.0</ele><time>2026-04-04T11:18:21Z</time></trkpt><trkpt lat="43.06468853744377" lon="12.857546864247245"><ele>920.0</ele><time>2026-04-04T11:18:22Z</time></trkpt><trkpt lat="43.06456828407972" lon="12.857561852107011"><ele>920.0</ele><time>2026-04-04T11:18:23Z</time></trkpt><trkpt lat="43.06444560102091" lon="12.857552621267109"><ele>920.0</ele><time>2026-04-04T11:18:24Z</time></trkpt><trkpt lat="43.064319290042334" lon="12.85754899697437"><ele>920.0</ele><time>2026-04-04T11:18:25Z</time></trkpt><trkpt lat="43.06419924820166" lon="12.857574595886673"><ele>919.4</ele><time>2026-04-04T11:18:26Z</time></trkpt><trkpt lat="43.064084022625615" lon="12.857616074493441"><ele>918.8</ele><time>2026-04-04T11:18:27Z</time></trkpt><trkpt lat="43.06397996128413" lon="12.85766235405898"><ele>918.2</ele><time>2026-04-04T11:18:28Z</time></trkpt><trkpt lat="43.0638952323033" lon="12.85773005339875"><ele>917.6</ele><time>2026-04-04T11:18:29Z</time></trkpt><trkpt lat="43.06384323818707" lon="12.857814325321831"><ele>917.0</ele><time>2026-04-04T11:18:30Z</time></trkpt><trkpt lat="43.063803220594984" lon="12.857915748872516"><ele>917.0</ele><time>2026-04-04T11:18:31Z</time></trkpt><trkpt lat="43.063755084640825" lon="12.8580451649554"><ele>917.0</ele><time>2026-04-04T11:18:31.999Z</time></trkpt><trkpt lat="43.063700463308095" lon="12.858150406476556"><ele>917.0</ele><time>2026-04-04T11:18:32.999Z</time></trkpt><trkpt lat="43.063647046170445" lon="12.85822442831456"><ele>917.0</ele><time>2026-04-04T11:18:33.999Z</time></trkpt><trkpt lat="43.06356971244928" lon="12.858255503536268"><ele>917.0</ele><time>2026-04-04T11:18:34.999Z</time></trkpt><trkpt lat="43.06345531433518" lon="12.85829165727186"><ele>917.0</ele><time>2026-04-04T11:18:35.999Z</time></trkpt><trkpt lat="43.06332084116497" lon="12.858284556025207"><ele>917.0</ele><time>2026-04-04T11:18:36.999Z</time></trkpt><trkpt lat="43.06320074080951" lon="12.858304084683615"><ele>917.0</ele><time>2026-04-04T11:18:37.999Z</time></trkpt><trkpt lat="43.06310356556142" lon="12.858372022896523"><ele>917.0</ele><time>2026-04-04T11:18:38.999Z</time></trkpt><trkpt lat="43.06301857470047" lon="12.85845498656438"><ele>920.6</ele><time>2026-04-04T11:18:39.999Z</time></trkpt><trkpt lat="43.06292941776693" lon="12.858489574410692"><ele>924.2</ele><time>2026-04-04T11:18:40.999Z</time></trkpt><trkpt lat="43.06282254961485" lon="12.858472878636704"><ele>927.8</ele><time>2026-04-04T11:18:41.999Z</time></trkpt><trkpt lat="43.062714570917066" lon="12.858441344345483"><ele>931.4</ele><time>2026-04-04T11:18:42.999Z</time></trkpt><trkpt lat="43.06260311039281" lon="12.858425191267072"><ele>935.0</ele><time>2026-04-04T11:18:43.999Z</time></trkpt><trkpt lat="43.062475982731186" lon="12.85842968225086"><ele>937.4</ele><time>2026-04-04T11:18:44.999Z</time></trkpt><trkpt lat="43.06235948183848" lon="12.85844363199738"><ele>939.8</ele><time>2026-04-04T11:18:45.999Z</time></trkpt><trkpt lat="43.062261599684504" lon="12.858451544604282"><ele>942.2</ele><time>2026-04-04T11:18:46.999Z</time></trkpt><trkpt lat="43.06218203206507" lon="12.858500961551805"><ele>944.6</ele><time>2026-04-04T11:18:47.999Z</time></trkpt><trkpt lat="43.06210010393465" lon="12.858617924807135"><ele>947.0</ele><time>2026-04-04T11:18:48.999Z</time></trkpt><trkpt lat="43.062026802177144" lon="12.858706751819117"><ele>940.0</ele><time>2026-04-04T11:18:49.999Z</time></trkpt><trkpt lat="43.06194033528208" lon="12.858759343442586"><ele>933.0</ele><time>2026-04-04T11:18:50.999Z</time></trkpt><trkpt lat="43.06181948852152" lon="12.858778532044775"><ele>926.0</ele><time>2026-04-04T11:18:51.999Z</time></trkpt><trkpt lat="43.061695586500065" lon="12.85875897563458"><ele>919.0</ele><time>2026-04-04T11:18:52.999Z</time></trkpt><trkpt lat="43.06155805015463" lon="12.858720256352589"><ele>919.0</ele><time>2026-04-04T11:18:53.999Z</time></trkpt><trkpt lat="43.06143438681068" lon="12.85869465685578"><ele>919.0</ele><time>2026-04-04T11:18:54.999Z</time></trkpt><trkpt lat="43.06131675182904" lon="12.85869396230012"><ele>919.0</ele><time>2026-04-04T11:18:55.999Z</time></trkpt><trkpt lat="43.061187576964684" lon="12.858711614204605"><ele>919.0</ele><time>2026-04-04T11:18:56.999Z</time></trkpt><trkpt lat="43.06107085044351" lon="12.858710783360271"><ele>918.9999999999999</ele><time>2026-04-04T11:18:57.999Z</time></trkpt><trkpt lat="43.0609735713373" lon="12.858703696147913"><ele>919.0</ele><time>2026-04-04T11:18:58.999Z</time></trkpt><trkpt lat="43.06088685668737" lon="12.85869847530566"><ele>919.0</ele><time>2026-04-04T11:18:59.999Z</time></trkpt><trkpt lat="43.060785117537606" lon="12.858753874284055"><ele>919.0</ele><time>2026-04-04T11:19:00.999Z</time></trkpt><trkpt lat="43.06072402033669" lon="12.858809127638242"><ele>918.9999999999999</ele><time>2026-04-04T11:19:01.999Z</time></trkpt><trkpt lat="43.0606594976389" lon="12.858838704845834"><ele>919.0</ele><time>2026-04-04T11:19:02.999Z</time></trkpt><trkpt lat="43.060592326403196" lon="12.858801291260137"><ele>922.4000000000001</ele><time>2026-04-04T11:19:03.999Z</time></trkpt><trkpt lat="43.06052347280323" lon="12.858823751559019"><ele>925.8000000000001</ele><time>2026-04-04T11:19:05.999Z</time></trkpt><trkpt lat="43.060500700073746" lon="12.858931506958088"><ele>929.1999999999999</ele><time>2026-04-04T11:19:06.999Z</time></trkpt><trkpt lat="43.06047877608709" lon="12.859066753943322"><ele>932.5999999999999</ele><time>2026-04-04T11:19:07.999Z</time></trkpt><trkpt lat="43.0604497411004" lon="12.859214296442623"><ele>936.0</ele><time>2026-04-04T11:19:08.999Z</time></trkpt><trkpt lat="43.06039876390903" lon="12.859317881178153"><ele>936.0</ele><time>2026-04-04T11:19:09.999Z</time></trkpt><trkpt lat="43.06032572893339" lon="12.859431432193206"><ele>935.9999999999999</ele><time>2026-04-04T11:19:10.999Z</time></trkpt><trkpt lat="43.06028709772162" lon="12.859568621485199"><ele>935.9999999999999</ele><time>2026-04-04T11:19:11.999Z</time></trkpt><trkpt lat="43.0602447350072" lon="12.859699884372663"><ele>936.0</ele><time>2026-04-04T11:19:12.999Z</time></trkpt><trkpt lat="43.060203017718216" lon="12.859836761276828"><ele>936.0</ele><time>2026-04-04T11:19:13.999Z</time></trkpt><trkpt lat="43.06017568657892" lon="12.859970954666792"><ele>936.0</ele><time>2026-04-04T11:19:14.999Z</time></trkpt><trkpt lat="43.06014636690059" lon="12.86006656551454"><ele>935.9999999999999</ele><time>2026-04-04T11:19:15.999Z</time></trkpt><trkpt lat="43.06007797306401" lon="12.860130308659839"><ele>935.9999999999999</ele><time>2026-04-04T11:19:16.999Z</time></trkpt><trkpt lat="43.05997771655339" lon="12.8602106751933"><ele>936.0</ele><time>2026-04-04T11:19:17.999Z</time></trkpt><trkpt lat="43.05986577674746" lon="12.860292899614647"><ele>936.0</ele><time>2026-04-04T11:19:18.999Z</time></trkpt><trkpt lat="43.05975703323266" lon="12.860351882335912"><ele>930.5</ele><time>2026-04-04T11:19:19.999Z</time></trkpt><trkpt lat="43.05964768061429" lon="12.860391947335753"><ele>925.0</ele><time>2026-04-04T11:19:21Z</time></trkpt><trkpt lat="43.059524179636185" lon="12.8603957337918"><ele>919.5</ele><time>2026-04-04T11:19:22Z</time></trkpt><trkpt lat="43.05940992160479" lon="12.860396015316933"><ele>914.0</ele><time>2026-04-04T11:19:23Z</time></trkpt><trkpt lat="43.05929323396816" lon="12.860398054466888"><ele>914.0</ele><time>2026-04-04T11:19:24Z</time></trkpt><trkpt lat="43.059198845819445" lon="12.860400755279809"><ele>914.0000000000001</ele><time>2026-04-04T11:19:25Z</time></trkpt><trkpt lat="43.059100355802286" lon="12.860418771464069"><ele>914.0000000000001</ele><time>2026-04-04T11:19:26Z</time></trkpt><trkpt lat="43.059000337325756" lon="12.8604340063173"><ele>914.0</ele><time>2026-04-04T11:19:27Z</time></trkpt><trkpt lat="43.058882943986305" lon="12.860449079263047"><ele>914.0</ele><time>2026-04-04T11:19:28Z</time></trkpt><trkpt lat="43.05877239350605" lon="12.860460627641267"><ele>912.5</ele><time>2026-04-04T11:19:29Z</time></trkpt><trkpt lat="43.05865787254949" lon="12.860456097548374"><ele>911.0</ele><time>2026-04-04T11:19:30Z</time></trkpt><trkpt lat="43.058536534370866" lon="12.860434540858034"><ele>909.5</ele><time>2026-04-04T11:19:31Z</time></trkpt><trkpt lat="43.05840622581335" lon="12.860402954952418"><ele>908.0</ele><time>2026-04-04T11:19:32Z</time></trkpt><trkpt lat="43.05827201439382" lon="12.860384340555285"><ele>905.25</ele><time>2026-04-04T11:19:33Z</time></trkpt><trkpt lat="43.05813753532391" lon="12.86038062380248"><ele>902.5</ele><time>2026-04-04T11:19:34Z</time></trkpt><trkpt lat="43.058009881444015" lon="12.860387648981078"><ele>899.75</ele><time>2026-04-04T11:19:35Z</time></trkpt><trkpt lat="43.057890627797924" lon="12.860385205119984"><ele>897.0</ele><time>2026-04-04T11:19:36Z</time></trkpt><trkpt lat="43.057776436277685" lon="12.860398694349533"><ele>897.0</ele><time>2026-04-04T11:19:37Z</time></trkpt><trkpt lat="43.05765493981901" lon="12.860421070856523"><ele>897.0</ele><time>2026-04-04T11:19:38Z</time></trkpt><trkpt lat="43.05752701685697" lon="12.860456727847371"><ele>897.0</ele><time>2026-04-04T11:19:39Z</time></trkpt><trkpt lat="43.057408630459626" lon="12.860467272297841"><ele>897.0</ele><time>2026-04-04T11:19:40Z</time></trkpt><trkpt lat="43.057308148155684" lon="12.86047621682275"><ele>894.4000000000001</ele><time>2026-04-04T11:19:41Z</time></trkpt><trkpt lat="43.05721525912754" lon="12.860474702765949"><ele>891.8000000000001</ele><time>2026-04-04T11:19:42Z</time></trkpt><trkpt lat="43.057115582200325" lon="12.860485571149109"><ele>889.2</ele><time>2026-04-04T11:19:43Z</time></trkpt><trkpt lat="43.05702241612584" lon="12.860528563287753"><ele>886.6</ele><time>2026-04-04T11:19:44Z</time></trkpt><trkpt lat="43.05691296823102" lon="12.860556294074867"><ele>884.0</ele><time>2026-04-04T11:19:45Z</time></trkpt><trkpt lat="43.05680705616644" lon="12.860551242208139"><ele>884.0000000000001</ele><time>2026-04-04T11:19:46Z</time></trkpt><trkpt lat="43.056712202406636" lon="12.860563060788047"><ele>884.0</ele><time>2026-04-04T11:19:47Z</time></trkpt><trkpt lat="43.0566385703441" lon="12.860586374778032"><ele>884.0</ele><time>2026-04-04T11:19:48Z</time></trkpt><trkpt lat="43.056575138248526" lon="12.860611148183517"><ele>884.0</ele><time>2026-04-04T11:19:49Z</time></trkpt><trkpt lat="43.05651097339188" lon="12.86065430010746"><ele>884.0000000000001</ele><time>2026-04-04T11:19:50Z</time></trkpt><trkpt lat="43.05640934774828" lon="12.86068301811225"><ele>884.0</ele><time>2026-04-04T11:19:52Z</time></trkpt><trkpt lat="43.05634435936479" lon="12.86068443564121"><ele>881.3333333333334</ele><time>2026-04-04T11:19:54Z</time></trkpt><trkpt lat="43.05627190309233" lon="12.860697959050881"><ele>878.6666666666667</ele><time>2026-04-04T11:19:56Z</time></trkpt><trkpt lat="43.05620643044397" lon="12.86068506969215"><ele>876.0</ele><time>2026-04-04T11:19:57Z</time></trkpt><trkpt lat="43.056132709779774" lon="12.86067626506284"><ele>873.3333333333333</ele><time>2026-04-04T11:19:58Z</time></trkpt><trkpt lat="43.05604252125434" lon="12.860673270828933"><ele>870.6666666666666</ele><time>2026-04-04T11:19:59Z</time></trkpt><trkpt lat="43.05594863643879" lon="12.86067315532354"><ele>868.0</ele><time>2026-04-04T11:20:00Z</time></trkpt><trkpt lat="43.05585537250349" lon="12.860691394790766"><ele>865.6666666666666</ele><time>2026-04-04T11:20:01Z</time></trkpt><trkpt lat="43.055769634746966" lon="12.860724949771553"><ele>863.3333333333333</ele><time>2026-04-04T11:20:02Z</time></trkpt><trkpt lat="43.05569879394979" lon="12.860763542378825"><ele>861.0</ele><time>2026-04-04T11:20:03Z</time></trkpt><trkpt lat="43.0556142594746" lon="12.8608142906441"><ele>858.6666666666667</ele><time>2026-04-04T11:20:05Z</time></trkpt><trkpt lat="43.05553750843096" lon="12.86077048158593"><ele>856.3333333333334</ele><time>2026-04-04T11:20:07Z</time></trkpt><trkpt lat="43.05547728174999" lon="12.860680141741893"><ele>854.0</ele><time>2026-04-04T11:20:08Z</time></trkpt><trkpt lat="43.055418659549005" lon="12.860585014186746"><ele>854.0000000000001</ele><time>2026-04-04T11:20:09Z</time></trkpt><trkpt lat="43.05535267521977" lon="12.860496842774815"><ele>854.0</ele><time>2026-04-04T11:20:10Z</time></trkpt><trkpt lat="43.05528902868568" lon="12.860414616846207"><ele>854.0</ele><time>2026-04-04T11:20:11Z</time></trkpt><trkpt lat="43.055226807565596" lon="12.860341955987991"><ele>854.0</ele><time>2026-04-04T11:20:12Z</time></trkpt><trkpt lat="43.055163035541206" lon="12.860276685944315"><ele>854.0000000000001</ele><time>2026-04-04T11:20:13Z</time></trkpt><trkpt lat="43.055101868979506" lon="12.860222646382336"><ele>854.0</ele><time>2026-04-04T11:20:14Z</time></trkpt><trkpt lat="43.05503857253777" lon="12.860171105168304"><ele>853.2857142857143</ele><time>2026-04-04T11:20:15Z</time></trkpt><trkpt lat="43.05497921372893" lon="12.860110680730436"><ele>852.5714285714286</ele><time>2026-04-04T11:20:16Z</time></trkpt><trkpt lat="43.05492200331467" lon="12.860056136967554"><ele>851.8571428571429</ele><time>2026-04-04T11:20:17Z</time></trkpt><trkpt lat="43.054862915435166" lon="12.860007554245573"><ele>851.1428571428571</ele><time>2026-04-04T11:20:18Z</time></trkpt><trkpt lat="43.0548045136887" lon="12.859968496689545"><ele>850.4285714285714</ele><time>2026-04-04T11:20:19Z</time></trkpt><trkpt lat="43.05474814084793" lon="12.859927580856242"><ele>849.7142857142858</ele><time>2026-04-04T11:20:20Z</time></trkpt><trkpt lat="43.05469216429902" lon="12.859877750554691"><ele>849.0</ele><time>2026-04-04T11:20:21Z</time></trkpt><trkpt lat="43.054632323768466" lon="12.859820647865229"><ele>849.0</ele><time>2026-04-04T11:20:22Z</time></trkpt><trkpt lat="43.05457393599437" lon="12.85975113517459"><ele>849.0</ele><time>2026-04-04T11:20:23Z</time></trkpt><trkpt lat="43.05452026217012" lon="12.859670767698772"><ele>849.0</ele><time>2026-04-04T11:20:24Z</time></trkpt><trkpt lat="43.05447265729281" lon="12.859587847302722"><ele>849.0</ele><time>2026-04-04T11:20:25Z</time></trkpt><trkpt lat="43.054426352136055" lon="12.859507272999707"><ele>849.0</ele><time>2026-04-04T11:20:26Z</time></trkpt><trkpt lat="43.05438603382822" lon="12.859427918307865"><ele>849.0</ele><time>2026-04-04T11:20:27Z</time></trkpt><trkpt lat="43.05434299853608" lon="12.859308927532016"><ele>849.0</ele><time>2026-04-04T11:20:29Z</time></trkpt><trkpt lat="43.05428548066798" lon="12.859354414312588"><ele>849.0</ele><time>2026-04-04T11:20:33Z</time></trkpt><trkpt lat="43.05428102590283" lon="12.859455294115605"><ele>849.0</ele><time>2026-04-04T11:20:59.999Z</time></trkpt><trkpt lat="43.05428907229804" lon="12.859585783810793"><ele>849.0</ele><time>2026-04-04T11:21:02.999Z</time></trkpt><trkpt lat="43.054313199597395" lon="12.859726104340925"><ele>849.0</ele><time>2026-04-04T11:21:04.999Z</time></trkpt><trkpt lat="43.05433318927162" lon="12.85989251424406"><ele>849.0</ele><time>2026-04-04T11:21:06.999Z</time></trkpt><trkpt lat="43.05434759960416" lon="12.859994790413406"><ele>849.0</ele><time>2026-04-04T11:21:07.999Z</time></trkpt><trkpt lat="43.05436496664024" lon="12.860101037040758"><ele>849.0</ele><time>2026-04-04T11:21:08.999Z</time></trkpt><trkpt lat="43.05438625729073" lon="12.860217741435294"><ele>849.0</ele><time>2026-04-04T11:21:09.999Z</time></trkpt><trkpt lat="43.05440969420349" lon="12.860334257868747"><ele>849.0</ele><time>2026-04-04T11:21:10.999Z</time></trkpt><trkpt lat="43.054437763237374" lon="12.860460134005784"><ele>849.0</ele><time>2026-04-04T11:21:11.999Z</time></trkpt><trkpt lat="43.054471603774424" lon="12.860589200840783"><ele>845.8000000000001</ele><time>2026-04-04T11:21:12.999Z</time></trkpt><trkpt lat="43.054509531147374" lon="12.860724974420787"><ele>842.6</ele><time>2026-04-04T11:21:13.999Z</time></trkpt><trkpt lat="43.054547393332676" lon="12.860866877582241"><ele>839.4</ele><time>2026-04-04T11:21:14.999Z</time></trkpt><trkpt lat="43.05459260662599" lon="12.861011774263941"><ele>836.2</ele><time>2026-04-04T11:21:15.999Z</time></trkpt><trkpt lat="43.054643635293715" lon="12.861151663205089"><ele>833.0</ele><time>2026-04-04T11:21:16.999Z</time></trkpt><trkpt lat="43.05470094535131" lon="12.861296017130357"><ele>829.0</ele><time>2026-04-04T11:21:17.999Z</time></trkpt><trkpt lat="43.05476006073843" lon="12.861446806808082"><ele>825.0</ele><time>2026-04-04T11:21:18.999Z</time></trkpt><trkpt lat="43.05482661356991" lon="12.861600905502286"><ele>821.0</ele><time>2026-04-04T11:21:19.999Z</time></trkpt><trkpt lat="43.05489877043163" lon="12.861742553355949"><ele>817.0</ele><time>2026-04-04T11:21:20.999Z</time></trkpt><trkpt lat="43.05496998486721" lon="12.861875667869178"><ele>816.2</ele><time>2026-04-04T11:21:21.999Z</time></trkpt><trkpt lat="43.05503630694796" lon="12.862007155183319"><ele>815.4000000000001</ele><time>2026-04-04T11:21:22.999Z</time></trkpt><trkpt lat="43.05510012964512" lon="12.862131700875553"><ele>814.5999999999999</ele><time>2026-04-04T11:21:23.999Z</time></trkpt><trkpt lat="43.055154821271756" lon="12.862245284163672"><ele>813.8</ele><time>2026-04-04T11:21:24.999Z</time></trkpt><trkpt lat="43.055201474331454" lon="12.862358175724358"><ele>813.0</ele><time>2026-04-04T11:21:25.999Z</time></trkpt><trkpt lat="43.05524684024965" lon="12.86247426056581"><ele>813.0</ele><time>2026-04-04T11:21:27Z</time></trkpt><trkpt lat="43.055289223042344" lon="12.862584765962685"><ele>813.0</ele><time>2026-04-04T11:21:28Z</time></trkpt><trkpt lat="43.055349914857466" lon="12.862703808889405"><ele>813.0</ele><time>2026-04-04T11:21:29Z</time></trkpt><trkpt lat="43.05543889829969" lon="12.862798024253552"><ele>813.0</ele><time>2026-04-04T11:21:30Z</time></trkpt><trkpt lat="43.055530982095966" lon="12.862883038745286"><ele>813.0</ele><time>2026-04-04T11:21:31Z</time></trkpt><trkpt lat="43.05563630969744" lon="12.862967454031034"><ele>810.0</ele><time>2026-04-04T11:21:32Z</time></trkpt><trkpt lat="43.05574869283855" lon="12.863045903239575"><ele>807.0</ele><time>2026-04-04T11:21:33Z</time></trkpt><trkpt lat="43.05586681477687" lon="12.863105570164818"><ele>804.0</ele><time>2026-04-04T11:21:34Z</time></trkpt><trkpt lat="43.055987244153954" lon="12.863153718817403"><ele>801.0</ele><time>2026-04-04T11:21:35Z</time></trkpt><trkpt lat="43.05609477971814" lon="12.863203962771381"><ele>801.0</ele><time>2026-04-04T11:21:36Z</time></trkpt><trkpt lat="43.056188179216896" lon="12.86326093769471"><ele>801.0</ele><time>2026-04-04T11:21:37Z</time></trkpt><trkpt lat="43.056280137023144" lon="12.863341476589"><ele>801.0</ele><time>2026-04-04T11:21:38Z</time></trkpt><trkpt lat="43.056361370452315" lon="12.86344291987555"><ele>801.0</ele><time>2026-04-04T11:21:39Z</time></trkpt><trkpt lat="43.05642952996529" lon="12.863556993439094"><ele>801.0</ele><time>2026-04-04T11:21:40Z</time></trkpt><trkpt lat="43.05649392716772" lon="12.863681979853329"><ele>799.25</ele><time>2026-04-04T11:21:41Z</time></trkpt><trkpt lat="43.05660390871531" lon="12.863767222368619"><ele>797.5</ele><time>2026-04-04T11:21:42Z</time></trkpt><trkpt lat="43.05662041699995" lon="12.863931778235866"><ele>795.75</ele><time>2026-04-04T11:21:43Z</time></trkpt><trkpt lat="43.05662518710084" lon="12.864094632323225"><ele>794.0</ele><time>2026-04-04T11:21:44Z</time></trkpt><trkpt lat="43.056638686079076" lon="12.864256327953075"><ele>793.5000000000001</ele><time>2026-04-04T11:21:45Z</time></trkpt><trkpt lat="43.05664950050124" lon="12.864400496306056"><ele>793.0</ele><time>2026-04-04T11:21:46Z</time></trkpt><trkpt lat="43.05665943801842" lon="12.86451734750166"><ele>792.5</ele><time>2026-04-04T11:21:47Z</time></trkpt><trkpt lat="43.05666439280713" lon="12.864609315711844"><ele>792.0</ele><time>2026-04-04T11:21:48Z</time></trkpt><trkpt lat="43.056668832477676" lon="12.86470899242001"><ele>791.5000000000001</ele><time>2026-04-04T11:21:49Z</time></trkpt><trkpt lat="43.05667803747959" lon="12.864802056470014"><ele>791.0</ele><time>2026-04-04T11:21:50Z</time></trkpt><trkpt lat="43.05667726674749" lon="12.864910136005726"><ele>791.0</ele><time>2026-04-04T11:21:51Z</time></trkpt><trkpt lat="43.05666131614998" lon="12.865029905862098"><ele>791.0</ele><time>2026-04-04T11:21:52Z</time></trkpt><trkpt lat="43.056643508212815" lon="12.865153757356149"><ele>791.0</ele><time>2026-04-04T11:21:53Z</time></trkpt><trkpt lat="43.05662035832181" lon="12.865286258880177"><ele>791.0</ele><time>2026-04-04T11:21:54Z</time></trkpt><trkpt lat="43.0565913046463" lon="12.865437172621677"><ele>791.0</ele><time>2026-04-04T11:21:55Z</time></trkpt><trkpt lat="43.056548058208975" lon="12.86559030082948"><ele>791.25</ele><time>2026-04-04T11:21:56Z</time></trkpt><trkpt lat="43.05649708278361" lon="12.865743184248672"><ele>791.5</ele><time>2026-04-04T11:21:57Z</time></trkpt><trkpt lat="43.05643784519981" lon="12.865897713993204"><ele>791.75</ele><time>2026-04-04T11:21:58Z</time></trkpt><trkpt lat="43.0563870619017" lon="12.866046762298573"><ele>792.0</ele><time>2026-04-04T11:21:59Z</time></trkpt><trkpt lat="43.05632947375231" lon="12.866199042831802"><ele>792.75</ele><time>2026-04-04T11:22:00Z</time></trkpt><trkpt lat="43.05625930105443" lon="12.866338433005254"><ele>793.5</ele><time>2026-04-04T11:22:01Z</time></trkpt><trkpt lat="43.0561892076112" lon="12.866478253368683"><ele>794.25</ele><time>2026-04-04T11:22:02Z</time></trkpt><trkpt lat="43.056116098154654" lon="12.866613549859661"><ele>795.0</ele><time>2026-04-04T11:22:03Z</time></trkpt><trkpt lat="43.056052704347564" lon="12.86674644678476"><ele>795.0</ele><time>2026-04-04T11:22:04Z</time></trkpt><trkpt lat="43.05598345570401" lon="12.866894165517959"><ele>795.0</ele><time>2026-04-04T11:22:05Z</time></trkpt><trkpt lat="43.05591405257532" lon="12.867041898945695"><ele>795.0</ele><time>2026-04-04T11:22:06Z</time></trkpt><trkpt lat="43.05584738466478" lon="12.867189867052138"><ele>795.0</ele><time>2026-04-04T11:22:07Z</time></trkpt><trkpt lat="43.05578641208312" lon="12.867337138441597"><ele>795.0</ele><time>2026-04-04T11:22:08Z</time></trkpt><trkpt lat="43.055729444179946" lon="12.867482395503174"><ele>795.0</ele><time>2026-04-04T11:22:09Z</time></trkpt><trkpt lat="43.055675130599724" lon="12.867640403486964"><ele>795.0</ele><time>2026-04-04T11:22:10Z</time></trkpt><trkpt lat="43.05562443185751" lon="12.867798231484784"><ele>795.0</ele><time>2026-04-04T11:22:11Z</time></trkpt><trkpt lat="43.055574285749636" lon="12.867964642093721"><ele>795.25</ele><time>2026-04-04T11:22:12Z</time></trkpt><trkpt lat="43.055539306049745" lon="12.868125014235295"><ele>795.5</ele><time>2026-04-04T11:22:13Z</time></trkpt><trkpt lat="43.05550692413183" lon="12.868291412323625"><ele>795.75</ele><time>2026-04-04T11:22:14Z</time></trkpt><trkpt lat="43.05546991907839" lon="12.868454168020657"><ele>796.0</ele><time>2026-04-04T11:22:15Z</time></trkpt><trkpt lat="43.05543007676876" lon="12.868618278538646"><ele>796.75</ele><time>2026-04-04T11:22:16Z</time></trkpt><trkpt lat="43.055395713413155" lon="12.86878204360627"><ele>797.5</ele><time>2026-04-04T11:22:17Z</time></trkpt><trkpt lat="43.055376378000055" lon="12.868953955931124"><ele>798.25</ele><time>2026-04-04T11:22:18Z</time></trkpt><trkpt lat="43.05535905708952" lon="12.86911901338844"><ele>799.0</ele><time>2026-04-04T11:22:19Z</time></trkpt><trkpt lat="43.055347678733646" lon="12.869252704180067"><ele>799.1666666666666</ele><time>2026-04-04T11:22:20Z</time></trkpt><trkpt lat="43.05534174290253" lon="12.869357680722258"><ele>799.3333333333333</ele><time>2026-04-04T11:22:21Z</time></trkpt><trkpt lat="43.055342303132186" lon="12.869445503259483"><ele>799.5</ele><time>2026-04-04T11:22:22Z</time></trkpt><trkpt lat="43.055343519101164" lon="12.869547700365406"><ele>799.6666666666667</ele><time>2026-04-04T11:22:23Z</time></trkpt><trkpt lat="43.05535233251652" lon="12.869662024113358"><ele>799.8333333333334</ele><time>2026-04-04T11:22:24Z</time></trkpt><trkpt lat="43.055367290070656" lon="12.869784009968802"><ele>800.0</ele><time>2026-04-04T11:22:25Z</time></trkpt><trkpt lat="43.05537200883879" lon="12.8699106049832"><ele>800.0</ele><time>2026-04-04T11:22:26Z</time></trkpt><trkpt lat="43.05538365257532" lon="12.870042469387808"><ele>800.0</ele><time>2026-04-04T11:22:27Z</time></trkpt><trkpt lat="43.055391325785266" lon="12.870177903449788"><ele>800.0</ele><time>2026-04-04T11:22:28Z</time></trkpt><trkpt lat="43.055404651404196" lon="12.870316305701559"><ele>800.0</ele><time>2026-04-04T11:22:29Z</time></trkpt><trkpt lat="43.05541657873075" lon="12.870456117972036"><ele>800.0</ele><time>2026-04-04T11:22:30Z</time></trkpt><trkpt lat="43.05542693419287" lon="12.870595155814247"><ele>800.3333333333334</ele><time>2026-04-04T11:22:31Z</time></trkpt><trkpt lat="43.055437586325716" lon="12.870716181448914"><ele>800.6666666666667</ele><time>2026-04-04T11:22:32Z</time></trkpt><trkpt lat="43.055450153013915" lon="12.870820193776296"><ele>801.0</ele><time>2026-04-04T11:22:33Z</time></trkpt><trkpt lat="43.055466520156116" lon="12.870931070448023"><ele>801.3333333333333</ele><time>2026-04-04T11:22:34Z</time></trkpt><trkpt lat="43.05548565628869" lon="12.871058595300708"><ele>801.6666666666666</ele><time>2026-04-04T11:22:35Z</time></trkpt><trkpt lat="43.055507525997214" lon="12.871199596066047"><ele>802.0</ele><time>2026-04-04T11:22:36Z</time></trkpt><trkpt lat="43.05553525228314" lon="12.87134701917004"><ele>802.25</ele><time>2026-04-04T11:22:37Z</time></trkpt><trkpt lat="43.05556467576129" lon="12.87150124892719"><ele>802.5</ele><time>2026-04-04T11:22:38Z</time></trkpt><trkpt lat="43.05559725959473" lon="12.871664097466553"><ele>802.75</ele><time>2026-04-04T11:22:39Z</time></trkpt><trkpt lat="43.05562860886154" lon="12.871822749010382"><ele>803.0</ele><time>2026-04-04T11:22:40Z</time></trkpt><trkpt lat="43.05566167414455" lon="12.871985746361872"><ele>803.0</ele><time>2026-04-04T11:22:41Z</time></trkpt><trkpt lat="43.05568984065394" lon="12.872140115699967"><ele>803.0</ele><time>2026-04-04T11:22:42Z</time></trkpt><trkpt lat="43.055716114372174" lon="12.872282912182325"><ele>803.0</ele><time>2026-04-04T11:22:43Z</time></trkpt><trkpt lat="43.05574270504343" lon="12.872418912001567"><ele>803.0</ele><time>2026-04-04T11:22:44Z</time></trkpt><trkpt lat="43.055767366184234" lon="12.872554875916014"><ele>803.0</ele><time>2026-04-04T11:22:45Z</time></trkpt><trkpt lat="43.055795270434956" lon="12.872695236585583"><ele>803.8</ele><time>2026-04-04T11:22:45.999Z</time></trkpt><trkpt lat="43.055825979238" lon="12.872840212112841"><ele>804.5999999999999</ele><time>2026-04-04T11:22:46.999Z</time></trkpt><trkpt lat="43.05585912319991" lon="12.87298124074724"><ele>805.4000000000001</ele><time>2026-04-04T11:22:47.999Z</time></trkpt><trkpt lat="43.0558952739649" lon="12.873119745123685"><ele>806.2</ele><time>2026-04-04T11:22:48.999Z</time></trkpt><trkpt lat="43.05594390208811" lon="12.87324647287266"><ele>807.0</ele><time>2026-04-04T11:22:49.999Z</time></trkpt><trkpt lat="43.056014095322425" lon="12.873357397265504"><ele>807.25</ele><time>2026-04-04T11:22:50.999Z</time></trkpt><trkpt lat="43.05610622808506" lon="12.873446788975171"><ele>807.5</ele><time>2026-04-04T11:22:51.999Z</time></trkpt><trkpt lat="43.05621918816191" lon="12.873521251429247"><ele>807.75</ele><time>2026-04-04T11:22:52.999Z</time></trkpt><trkpt lat="43.05633672053483" lon="12.873595996601612"><ele>808.0</ele><time>2026-04-04T11:22:53.999Z</time></trkpt><trkpt lat="43.05646010959123" lon="12.873685307051923"><ele>808.0</ele><time>2026-04-04T11:22:54.999Z</time></trkpt><trkpt lat="43.05658445710314" lon="12.873780470491758"><ele>808.0</ele><time>2026-04-04T11:22:55.999Z</time></trkpt><trkpt lat="43.056711157133826" lon="12.87387797745816"><ele>808.0</ele><time>2026-04-04T11:22:56.999Z</time></trkpt><trkpt lat="43.05684178550548" lon="12.873975188377958"><ele>808.0</ele><time>2026-04-04T11:22:57.999Z</time></trkpt><trkpt lat="43.056973768324745" lon="12.87407293454067"><ele>809.0</ele><time>2026-04-04T11:22:58.999Z</time></trkpt><trkpt lat="43.05710740915332" lon="12.874168357697366"><ele>810.0</ele><time>2026-04-04T11:22:59.999Z</time></trkpt><trkpt lat="43.05723799338087" lon="12.87426637443925"><ele>811.0</ele><time>2026-04-04T11:23:00.999Z</time></trkpt><trkpt lat="43.05736945572794" lon="12.874365059588909"><ele>811.75</ele><time>2026-04-04T11:23:01.999Z</time></trkpt><trkpt lat="43.057499335554446" lon="12.874454649927438"><ele>812.5</ele><time>2026-04-04T11:23:02.999Z</time></trkpt><trkpt lat="43.05762828547891" lon="12.874535764788119"><ele>813.25</ele><time>2026-04-04T11:23:03.999Z</time></trkpt><trkpt lat="43.05776258994912" lon="12.87460656951867"><ele>814.0</ele><time>2026-04-04T11:23:04.999Z</time></trkpt><trkpt lat="43.057899489234856" lon="12.874673522366244"><ele>814.0</ele><time>2026-04-04T11:23:05.999Z</time></trkpt><trkpt lat="43.058034627192946" lon="12.874745576557114"><ele>814.0</ele><time>2026-04-04T11:23:06.999Z</time></trkpt><trkpt lat="43.0581713588883" lon="12.874818522581357"><ele>814.0</ele><time>2026-04-04T11:23:07.999Z</time></trkpt><trkpt lat="43.05830874298072" lon="12.874892754343394"><ele>814.0</ele><time>2026-04-04T11:23:08.999Z</time></trkpt><trkpt lat="43.058445937558126" lon="12.874968789285452"><ele>814.75</ele><time>2026-04-04T11:23:09.999Z</time></trkpt><trkpt lat="43.058579755041016" lon="12.875042668313174"><ele>815.5</ele><time>2026-04-04T11:23:10.999Z</time></trkpt><trkpt lat="43.05871074325287" lon="12.875115968287707"><ele>816.25</ele><time>2026-04-04T11:23:11.999Z</time></trkpt><trkpt lat="43.058840755914474" lon="12.875184500046931"><ele>817.0</ele><time>2026-04-04T11:23:12.999Z</time></trkpt><trkpt lat="43.05895826239682" lon="12.875249159698724"><ele>817.0</ele><time>2026-04-04T11:23:13.999Z</time></trkpt><trkpt lat="43.05906423565689" lon="12.875308568688029"><ele>817.0</ele><time>2026-04-04T11:23:14.999Z</time></trkpt><trkpt lat="43.05916409929104" lon="12.875359240283956"><ele>817.0</ele><time>2026-04-04T11:23:15.999Z</time></trkpt><trkpt lat="43.05927112521015" lon="12.875413724133596"><ele>817.0</ele><time>2026-04-04T11:23:16.999Z</time></trkpt><trkpt lat="43.05937610615545" lon="12.875474802877497"><ele>817.0</ele><time>2026-04-04T11:23:17.999Z</time></trkpt><trkpt lat="43.05948797788441" lon="12.8755427319631"><ele>818.25</ele><time>2026-04-04T11:23:18.999Z</time></trkpt><trkpt lat="43.05959312666605" lon="12.875582290121859"><ele>819.5</ele><time>2026-04-04T11:23:19.999Z</time></trkpt><trkpt lat="43.05969587340612" lon="12.875652597074085"><ele>820.75</ele><time>2026-04-04T11:23:20.999Z</time></trkpt><trkpt lat="43.05977985909821" lon="12.875766097903536"><ele>822.0</ele><time>2026-04-04T11:23:21.999Z</time></trkpt><trkpt lat="43.059871530486774" lon="12.875869560648079"><ele>824.0</ele><time>2026-04-04T11:23:22.999Z</time></trkpt><trkpt lat="43.05996368779162" lon="12.87595205170041"><ele>826.0</ele><time>2026-04-04T11:23:23.999Z</time></trkpt><trkpt lat="43.060042769183106" lon="12.876025354015143"><ele>828.0</ele><time>2026-04-04T11:23:24.999Z</time></trkpt><trkpt lat="43.060125175542616" lon="12.876127128839165"><ele>830.0</ele><time>2026-04-04T11:23:25.999Z</time></trkpt><trkpt lat="43.06019776741814" lon="12.876239775669482"><ele>832.0</ele><time>2026-04-04T11:23:26.999Z</time></trkpt><trkpt lat="43.06025085293273" lon="12.87636301993674"><ele>832.0</ele><time>2026-04-04T11:23:27.999Z</time></trkpt><trkpt lat="43.06030628677029" lon="12.876495043980212"><ele>832.0</ele><time>2026-04-04T11:23:28.999Z</time></trkpt><trkpt lat="43.06041660023563" lon="12.876622538357076"><ele>832.0</ele><time>2026-04-04T11:23:29.999Z</time></trkpt><trkpt lat="43.060535679483486" lon="12.876742132636748"><ele>832.0</ele><time>2026-04-04T11:23:30.999Z</time></trkpt><trkpt lat="43.06061408330441" lon="12.876832379202172"><ele>832.2</ele><time>2026-04-04T11:23:31.999Z</time></trkpt><trkpt lat="43.06066084877345" lon="12.876925488440072"><ele>832.4000000000001</ele><time>2026-04-04T11:23:33Z</time></trkpt><trkpt lat="43.06069913695525" lon="12.877041368033067"><ele>832.5999999999999</ele><time>2026-04-04T11:23:34Z</time></trkpt><trkpt lat="43.060733578950654" lon="12.877195358172521"><ele>832.8</ele><time>2026-04-04T11:23:35Z</time></trkpt><trkpt lat="43.06077579689657" lon="12.877360293167166"><ele>833.0</ele><time>2026-04-04T11:23:36Z</time></trkpt><trkpt lat="43.06084433661839" lon="12.877526313585316"><ele>837.5</ele><time>2026-04-04T11:23:37Z</time></trkpt><trkpt lat="43.06090460083086" lon="12.877710591857815"><ele>842.0</ele><time>2026-04-04T11:23:38Z</time></trkpt><trkpt lat="43.06095445101752" lon="12.877876991806806"><ele>846.5</ele><time>2026-04-04T11:23:39Z</time></trkpt><trkpt lat="43.061004547105746" lon="12.87804042276629"><ele>851.0</ele><time>2026-04-04T11:23:40Z</time></trkpt><trkpt lat="43.0610529935575" lon="12.878190653704861"><ele>851.0</ele><time>2026-04-04T11:23:41Z</time></trkpt><trkpt lat="43.0610966174142" lon="12.878338594923965"><ele>851.0</ele><time>2026-04-04T11:23:42Z</time></trkpt><trkpt lat="43.06113530520795" lon="12.878479373733487"><ele>851.0</ele><time>2026-04-04T11:23:43Z</time></trkpt><trkpt lat="43.06115570461127" lon="12.878626713329442"><ele>851.0</ele><time>2026-04-04T11:23:44Z</time></trkpt><trkpt lat="43.061143610371815" lon="12.878757172634002"><ele>851.0</ele><time>2026-04-04T11:23:45Z</time></trkpt><trkpt lat="43.06110293714314" lon="12.878911964241071"><ele>851.5999999999999</ele><time>2026-04-04T11:23:46Z</time></trkpt><trkpt lat="43.06105240201679" lon="12.879038220964025"><ele>852.2</ele><time>2026-04-04T11:23:47Z</time></trkpt><trkpt lat="43.06101304665368" lon="12.879158420642174"><ele>852.8000000000001</ele><time>2026-04-04T11:23:48Z</time></trkpt><trkpt lat="43.06099484380183" lon="12.879290666080383"><ele>853.4000000000001</ele><time>2026-04-04T11:23:49Z</time></trkpt><trkpt lat="43.060995372866074" lon="12.879423193040484"><ele>854.0</ele><time>2026-04-04T11:23:50Z</time></trkpt><trkpt lat="43.06101536817337" lon="12.87954105580452"><ele>854.5</ele><time>2026-04-04T11:23:51Z</time></trkpt><trkpt lat="43.06105027114327" lon="12.879654319889367"><ele>855.0</ele><time>2026-04-04T11:23:52Z</time></trkpt><trkpt lat="43.06110059714363" lon="12.879780483042891"><ele>855.5</ele><time>2026-04-04T11:23:53Z</time></trkpt><trkpt lat="43.061175310012274" lon="12.879916327182393"><ele>856.0</ele><time>2026-04-04T11:23:54Z</time></trkpt><trkpt lat="43.061249033683666" lon="12.880069853460238"><ele>856.5999999999999</ele><time>2026-04-04T11:23:55Z</time></trkpt><trkpt lat="43.06130947003589" lon="12.880209800739982"><ele>857.1999999999999</ele><time>2026-04-04T11:23:56Z</time></trkpt><trkpt lat="43.061376588833866" lon="12.880314359683098"><ele>857.8000000000001</ele><time>2026-04-04T11:23:57Z</time></trkpt><trkpt lat="43.06142282756856" lon="12.88040883230078"><ele>858.4000000000001</ele><time>2026-04-04T11:23:58Z</time></trkpt><trkpt lat="43.061439346597005" lon="12.880549368988362"><ele>859.0</ele><time>2026-04-04T11:23:59Z</time></trkpt><trkpt lat="43.061429889166696" lon="12.880722903154945"><ele>859.0</ele><time>2026-04-04T11:24:00Z</time></trkpt><trkpt lat="43.0614207767989" lon="12.880871730691672"><ele>859.0000000000001</ele><time>2026-04-04T11:24:01Z</time></trkpt><trkpt lat="43.06144163563509" lon="12.881002981887612"><ele>859.0000000000001</ele><time>2026-04-04T11:24:02Z</time></trkpt><trkpt lat="43.06149002996867" lon="12.881140404231727"><ele>859.0</ele><time>2026-04-04T11:24:03Z</time></trkpt><trkpt lat="43.0615574590538" lon="12.88128595257836"><ele>859.0</ele><time>2026-04-04T11:24:04Z</time></trkpt><trkpt lat="43.06162251793655" lon="12.881390432970472"><ele>863.5</ele><time>2026-04-04T11:24:05Z</time></trkpt><trkpt lat="43.06170703575864" lon="12.881477300519643"><ele>868.0</ele><time>2026-04-04T11:24:06Z</time></trkpt><trkpt lat="43.06181191217041" lon="12.88156152288505"><ele>872.5</ele><time>2026-04-04T11:24:07Z</time></trkpt><trkpt lat="43.061918402498996" lon="12.881648420233775"><ele>877.0</ele><time>2026-04-04T11:24:08Z</time></trkpt><trkpt lat="43.062004121141655" lon="12.881725527803532"><ele>878.4000000000001</ele><time>2026-04-04T11:24:09Z</time></trkpt><trkpt lat="43.0620710474648" lon="12.881846351445036"><ele>879.8000000000001</ele><time>2026-04-04T11:24:10Z</time></trkpt><trkpt lat="43.06210624334619" lon="12.881986048484203"><ele>881.2</ele><time>2026-04-04T11:24:11Z</time></trkpt><trkpt lat="43.0621671664283" lon="12.88208660977676"><ele>882.6</ele><time>2026-04-04T11:24:12Z</time></trkpt><trkpt lat="43.06224585107351" lon="12.882192407041169"><ele>884.0</ele><time>2026-04-04T11:24:13Z</time></trkpt><trkpt lat="43.062292618975654" lon="12.882361449281069"><ele>884.0000000000001</ele><time>2026-04-04T11:24:14Z</time></trkpt><trkpt lat="43.062313741471286" lon="12.88249878921596"><ele>884.0</ele><time>2026-04-04T11:24:15Z</time></trkpt><trkpt lat="43.06233616024256" lon="12.882598702372622"><ele>884.0</ele><time>2026-04-04T11:24:16Z</time></trkpt><trkpt lat="43.06225650656475" lon="12.88270332306468"><ele>884.0</ele><time>2026-04-04T11:24:18Z</time></trkpt><trkpt lat="43.06218502283581" lon="12.882737143769164"><ele>884.0000000000001</ele><time>2026-04-04T11:24:19Z</time></trkpt><trkpt lat="43.06212169083641" lon="12.88277258647937"><ele>884.0</ele><time>2026-04-04T11:24:20Z</time></trkpt><trkpt lat="43.06208550600854" lon="12.882935770064984"><ele>886.0000000000001</ele><time>2026-04-04T11:24:22Z</time></trkpt><trkpt lat="43.062120884086106" lon="12.883035508521955"><ele>888.0</ele><time>2026-04-04T11:24:23Z</time></trkpt><trkpt lat="43.06219720446715" lon="12.883119079583746"><ele>890.0</ele><time>2026-04-04T11:24:24Z</time></trkpt><trkpt lat="43.06228003465136" lon="12.88318731277969"><ele>892.0</ele><time>2026-04-04T11:24:25Z</time></trkpt><trkpt lat="43.06232719871797" lon="12.883268695487148"><ele>894.0000000000001</ele><time>2026-04-04T11:24:26Z</time></trkpt><trkpt lat="43.062332362987874" lon="12.883359233831692"><ele>896.0</ele><time>2026-04-04T11:24:27Z</time></trkpt><trkpt lat="43.0623084014003" lon="12.883467826123546"><ele>898.75</ele><time>2026-04-04T11:24:28Z</time></trkpt><trkpt lat="43.06228893430757" lon="12.88360441842345"><ele>901.5</ele><time>2026-04-04T11:24:29Z</time></trkpt><trkpt lat="43.06227183191899" lon="12.883766971545136"><ele>904.25</ele><time>2026-04-04T11:24:30Z</time></trkpt><trkpt lat="43.0622559895852" lon="12.883951826144159"><ele>907.0</ele><time>2026-04-04T11:24:31Z</time></trkpt><trkpt lat="43.06225024314094" lon="12.884115982997582"><ele>909.25</ele><time>2026-04-04T11:24:32Z</time></trkpt><trkpt lat="43.06223745092897" lon="12.884279632836117"><ele>911.5</ele><time>2026-04-04T11:24:33Z</time></trkpt><trkpt lat="43.06222052843893" lon="12.884443934781244"><ele>913.75</ele><time>2026-04-04T11:24:34Z</time></trkpt><trkpt lat="43.062186131574045" lon="12.884594619933564"><ele>916.0</ele><time>2026-04-04T11:24:35Z</time></trkpt><trkpt lat="43.06213607647699" lon="12.884724674077644"><ele>915.9999999999999</ele><time>2026-04-04T11:24:36Z</time></trkpt><trkpt lat="43.06208335695629" lon="12.884851517971027"><ele>916.0</ele><time>2026-04-04T11:24:37Z</time></trkpt><trkpt lat="43.06207758514919" lon="12.884955231181614"><ele>916.0</ele><time>2026-04-04T11:24:38Z</time></trkpt><trkpt lat="43.06208100823608" lon="12.885103346157345"><ele>916.0</ele><time>2026-04-04T11:24:39Z</time></trkpt><trkpt lat="43.06206850774136" lon="12.885208778641873"><ele>915.9999999999999</ele><time>2026-04-04T11:24:40Z</time></trkpt><trkpt lat="43.06207269444921" lon="12.885317747777204"><ele>916.0</ele><time>2026-04-04T11:24:41Z</time></trkpt><trkpt lat="43.062111323732154" lon="12.885435012266143"><ele>918.1999999999999</ele><time>2026-04-04T11:24:42Z</time></trkpt><trkpt lat="43.06216846043651" lon="12.885551159185223"><ele>920.3999999999999</ele><time>2026-04-04T11:24:43Z</time></trkpt><trkpt lat="43.06223775009412" lon="12.885636040231295"><ele>922.6</ele><time>2026-04-04T11:24:44Z</time></trkpt><trkpt lat="43.06231939684857" lon="12.885712935783932"><ele>924.8</ele><time>2026-04-04T11:24:45Z</time></trkpt><trkpt lat="43.062409935287135" lon="12.885771372692517"><ele>927.0</ele><time>2026-04-04T11:24:46Z</time></trkpt><trkpt lat="43.06246312479368" lon="12.88581753307055"><ele>930.6</ele><time>2026-04-04T11:24:47Z</time></trkpt><trkpt lat="43.062475518981984" lon="12.885903618091495"><ele>934.2</ele><time>2026-04-04T11:24:48Z</time></trkpt><trkpt lat="43.06245503811301" lon="12.886046162922863"><ele>937.8</ele><time>2026-04-04T11:24:49Z</time></trkpt><trkpt lat="43.062447842449515" lon="12.886192246317774"><ele>941.4</ele><time>2026-04-04T11:24:50Z</time></trkpt><trkpt lat="43.06245916880605" lon="12.8863319889828"><ele>945.0</ele><time>2026-04-04T11:24:51Z</time></trkpt><trkpt lat="43.06248968610573" lon="12.886461537975382"><ele>947.25</ele><time>2026-04-04T11:24:52Z</time></trkpt><trkpt lat="43.062545563224276" lon="12.886609208011564"><ele>949.5</ele><time>2026-04-04T11:24:53Z</time></trkpt><trkpt lat="43.06259308277431" lon="12.886786919236933"><ele>951.75</ele><time>2026-04-04T11:24:54Z</time></trkpt><trkpt lat="43.06261886352882" lon="12.886919990243266"><ele>954.0</ele><time>2026-04-04T11:24:55Z</time></trkpt><trkpt lat="43.062650772569484" lon="12.887078033597732"><ele>956.0</ele><time>2026-04-04T11:24:55.999Z</time></trkpt><trkpt lat="43.06268601282074" lon="12.887245025400192"><ele>958.0</ele><time>2026-04-04T11:24:56.999Z</time></trkpt><trkpt lat="43.062714813245755" lon="12.887419001937218"><ele>960.0</ele><time>2026-04-04T11:24:57.999Z</time></trkpt><trkpt lat="43.06274226772022" lon="12.887585726365778"><ele>962.0</ele><time>2026-04-04T11:24:58.999Z</time></trkpt><trkpt lat="43.06276833757532" lon="12.88773825393472"><ele>964.4000000000001</ele><time>2026-04-04T11:24:59.999Z</time></trkpt><trkpt lat="43.06280095402533" lon="12.887828778440012"><ele>966.8000000000001</ele><time>2026-04-04T11:25:00.999Z</time></trkpt><trkpt lat="43.06286067887731" lon="12.887913739897424"><ele>969.2</ele><time>2026-04-04T11:25:02.999Z</time></trkpt><trkpt lat="43.06289161669534" lon="12.888069204681194"><ele>971.6</ele><time>2026-04-04T11:27:21.999Z</time></trkpt><trkpt lat="43.06286314870448" lon="12.888232319539865"><ele>974.0</ele><time>2026-04-04T11:27:23.999Z</time></trkpt><trkpt lat="43.06286084349976" lon="12.888334603326207"><ele>976.6</ele><time>2026-04-04T11:27:24.999Z</time></trkpt><trkpt lat="43.06287728582117" lon="12.888444676293652"><ele>979.2</ele><time>2026-04-04T11:27:25.999Z</time></trkpt><trkpt lat="43.0629146007789" lon="12.888576336468782"><ele>981.8000000000001</ele><time>2026-04-04T11:27:26.999Z</time></trkpt><trkpt lat="43.06294840721082" lon="12.888738740355436"><ele>984.4000000000001</ele><time>2026-04-04T11:27:27.999Z</time></trkpt><trkpt lat="43.06297888914315" lon="12.888915764365828"><ele>987.0</ele><time>2026-04-04T11:27:28.999Z</time></trkpt><trkpt lat="43.06302426963424" lon="12.889053703784205"><ele>987.0</ele><time>2026-04-04T11:27:29.999Z</time></trkpt><trkpt lat="43.06306832768601" lon="12.88920490588853"><ele>987.0</ele><time>2026-04-04T11:27:30.999Z</time></trkpt><trkpt lat="43.06311051507022" lon="12.889388938001968"><ele>987.0</ele><time>2026-04-04T11:27:31.999Z</time></trkpt><trkpt lat="43.06317422408809" lon="12.889556260992917"><ele>987.0</ele><time>2026-04-04T11:27:32.999Z</time></trkpt><trkpt lat="43.063242669798875" lon="12.889705800761622"><ele>987.75</ele><time>2026-04-04T11:27:33.999Z</time></trkpt><trkpt lat="43.063289016414814" lon="12.88985137502273"><ele>988.5</ele><time>2026-04-04T11:27:34.999Z</time></trkpt><trkpt lat="43.06332114004574" lon="12.890050538744722"><ele>989.25</ele><time>2026-04-04T11:27:35.999Z</time></trkpt><trkpt lat="43.06334926470496" lon="12.890259536617922"><ele>990.0</ele><time>2026-04-04T11:27:36.999Z</time></trkpt><trkpt lat="43.06340434190719" lon="12.890446591781163"><ele>992.6666666666667</ele><time>2026-04-04T11:27:37.999Z</time></trkpt><trkpt lat="43.06348176929156" lon="12.890636337371498"><ele>995.3333333333334</ele><time>2026-04-04T11:27:38.999Z</time></trkpt><trkpt lat="43.06357260062094" lon="12.890819784767036"><ele>998.0</ele><time>2026-04-04T11:27:39.999Z</time></trkpt><trkpt lat="43.063649032073215" lon="12.890965279426094"><ele>999.1666666666667</ele><time>2026-04-04T11:27:40.999Z</time></trkpt><trkpt lat="43.06368783915007" lon="12.891077393006068"><ele>1000.3333333333334</ele><time>2026-04-04T11:27:41.999Z</time></trkpt><trkpt lat="43.06369230186353" lon="12.891187519844452"><ele>1001.5</ele><time>2026-04-04T11:27:42.999Z</time></trkpt><trkpt lat="43.06366946955427" lon="12.891302592338558"><ele>1002.6666666666667</ele><time>2026-04-04T11:27:43.999Z</time></trkpt><trkpt lat="43.063639739055716" lon="12.891407209793986"><ele>1003.8333333333334</ele><time>2026-04-04T11:27:45Z</time></trkpt><trkpt lat="43.06362511314845" lon="12.89152003033223"><ele>1005.0</ele><time>2026-04-04T11:27:46Z</time></trkpt><trkpt lat="43.0636179379448" lon="12.891633232931275"><ele>1005.0</ele><time>2026-04-04T11:27:47Z</time></trkpt><trkpt lat="43.063597523575474" lon="12.891754404354833"><ele>1005.0</ele><time>2026-04-04T11:27:48Z</time></trkpt><trkpt lat="43.06357749259469" lon="12.891875881976455"><ele>1005.0</ele><time>2026-04-04T11:27:49Z</time></trkpt><trkpt lat="43.063556740025824" lon="12.891971498680796"><ele>1005.0</ele><time>2026-04-04T11:27:50Z</time></trkpt><trkpt lat="43.06353659892875" lon="12.892082299943876"><ele>1005.0</ele><time>2026-04-04T11:27:52Z</time></trkpt><trkpt lat="43.06347146002168" lon="12.892053334019467"><ele>1005.0</ele><time>2026-04-04T11:27:58Z</time></trkpt><trkpt lat="43.063303763786514" lon="12.891988436232413"><ele>1006.75</ele><time>2026-04-04T11:28:00Z</time></trkpt><trkpt lat="43.063173776669366" lon="12.891946444311111"><ele>1008.5</ele><time>2026-04-04T11:28:01Z</time></trkpt><trkpt lat="43.06303808034849" lon="12.891886329582217"><ele>1010.25</ele><time>2026-04-04T11:28:02Z</time></trkpt><trkpt lat="43.06289671389004" lon="12.891821663308322"><ele>1012.0</ele><time>2026-04-04T11:28:03Z</time></trkpt><trkpt lat="43.06277246613799" lon="12.891764275697033"><ele>1011.6</ele><time>2026-04-04T11:28:04Z</time></trkpt><trkpt lat="43.06266096410345" lon="12.89172396474324"><ele>1011.2</ele><time>2026-04-04T11:28:05Z</time></trkpt><trkpt lat="43.06256746715584" lon="12.891706276933178"><ele>1010.8</ele><time>2026-04-04T11:28:06Z</time></trkpt><trkpt lat="43.06248058161108" lon="12.891700347679143"><ele>1010.4</ele><time>2026-04-04T11:28:07Z</time></trkpt><trkpt lat="43.06239188252573" lon="12.89172287168521"><ele>1010.0</ele><time>2026-04-04T11:28:08Z</time></trkpt><trkpt lat="43.062297017164354" lon="12.891768288128338"><ele>1009.4285714285713</ele><time>2026-04-04T11:28:09Z</time></trkpt><trkpt lat="43.06221980897778" lon="12.891807030548607"><ele>1008.8571428571428</ele><time>2026-04-04T11:28:10Z</time></trkpt><trkpt lat="43.062150678682585" lon="12.891827602755358"><ele>1008.2857142857142</ele><time>2026-04-04T11:28:11Z</time></trkpt><trkpt lat="43.062066311627696" lon="12.89184081172793"><ele>1007.7142857142858</ele><time>2026-04-04T11:28:12Z</time></trkpt><trkpt lat="43.06199218929978" lon="12.891844287028812"><ele>1007.1428571428572</ele><time>2026-04-04T11:28:13Z</time></trkpt><trkpt lat="43.06192758558683" lon="12.891830432284172"><ele>1006.5714285714287</ele><time>2026-04-04T11:28:14Z</time></trkpt><trkpt lat="43.06186588566024" lon="12.891796441291111"><ele>1006.0</ele><time>2026-04-04T11:28:15Z</time></trkpt><trkpt lat="43.0618009570768" lon="12.891758412952916"><ele>1005.6666666666666</ele><time>2026-04-04T11:28:16Z</time></trkpt><trkpt lat="43.06173438851657" lon="12.891712671508312"><ele>1005.3333333333333</ele><time>2026-04-04T11:28:17Z</time></trkpt><trkpt lat="43.06166131114819" lon="12.89167238978618"><ele>1005.0</ele><time>2026-04-04T11:28:18Z</time></trkpt><trkpt lat="43.061593999624975" lon="12.891644294167762"><ele>1004.6666666666667</ele><time>2026-04-04T11:28:19Z</time></trkpt><trkpt lat="43.06153134348381" lon="12.891621786660874"><ele>1004.3333333333334</ele><time>2026-04-04T11:28:20Z</time></trkpt><trkpt lat="43.06142811383443" lon="12.8916134993244"><ele>1004.0</ele><time>2026-04-04T11:28:22Z</time></trkpt><trkpt lat="43.061331203225876" lon="12.891658275082124"><ele>1004.0</ele><time>2026-04-04T11:28:24Z</time></trkpt><trkpt lat="43.06125527121499" lon="12.89175105767831"><ele>1004.0000000000001</ele><time>2026-04-04T11:28:26Z</time></trkpt><trkpt lat="43.06121048213697" lon="12.891872566897531"><ele>1004.0000000000001</ele><time>2026-04-04T11:28:28Z</time></trkpt><trkpt lat="43.06114913984466" lon="12.891968664375808"><ele>1004.0</ele><time>2026-04-04T11:28:30Z</time></trkpt><trkpt lat="43.06102868131937" lon="12.891920517864298"><ele>1004.0</ele><time>2026-04-04T11:28:32Z</time></trkpt><trkpt lat="43.06092358167605" lon="12.891859394861033"><ele>1002.4000000000001</ele><time>2026-04-04T11:28:33Z</time></trkpt><trkpt lat="43.06081202776524" lon="12.89183944616541"><ele>1000.8000000000001</ele><time>2026-04-04T11:28:34Z</time></trkpt><trkpt lat="43.06070872777052" lon="12.891836353924417"><ele>999.1999999999999</ele><time>2026-04-04T11:28:35Z</time></trkpt><trkpt lat="43.06060853655728" lon="12.891833885750893"><ele>997.5999999999999</ele><time>2026-04-04T11:28:36Z</time></trkpt><trkpt lat="43.060521493940385" lon="12.89182244548886"><ele>996.0</ele><time>2026-04-04T11:28:37Z</time></trkpt><trkpt lat="43.06042962268598" lon="12.891802461892294"><ele>995.5999999999999</ele><time>2026-04-04T11:28:38Z</time></trkpt><trkpt lat="43.060335071023744" lon="12.891786335837988"><ele>995.1999999999999</ele><time>2026-04-04T11:28:39Z</time></trkpt><trkpt lat="43.06023360793374" lon="12.891773944802416"><ele>994.8000000000001</ele><time>2026-04-04T11:28:40Z</time></trkpt><trkpt lat="43.06013718116185" lon="12.891757562505349"><ele>994.4000000000001</ele><time>2026-04-04T11:28:41Z</time></trkpt><trkpt lat="43.060046679969176" lon="12.891716734002848"><ele>994.0</ele><time>2026-04-04T11:28:42Z</time></trkpt><trkpt lat="43.05993497139039" lon="12.891660663162108"><ele>994.0</ele><time>2026-04-04T11:28:43Z</time></trkpt><trkpt lat="43.05981669723537" lon="12.891631984561183"><ele>994.0</ele><time>2026-04-04T11:28:44Z</time></trkpt><trkpt lat="43.05971166498296" lon="12.89161942326795"><ele>994.0</ele><time>2026-04-04T11:28:45Z</time></trkpt><trkpt lat="43.05958798579768" lon="12.891631979737667"><ele>994.0</ele><time>2026-04-04T11:28:46Z</time></trkpt><trkpt lat="43.05945977807139" lon="12.891663340665621"><ele>994.0</ele><time>2026-04-04T11:28:47Z</time></trkpt><trkpt lat="43.05932769831127" lon="12.891724471099781"><ele>994.0</ele><time>2026-04-04T11:28:48Z</time></trkpt><trkpt lat="43.05920079871242" lon="12.891789485204091"><ele>994.0</ele><time>2026-04-04T11:28:49Z</time></trkpt><trkpt lat="43.059069869604336" lon="12.891838272979378"><ele>994.0</ele><time>2026-04-04T11:28:50Z</time></trkpt><trkpt lat="43.05893694026339" lon="12.891887919537039"><ele>989.4000000000001</ele><time>2026-04-04T11:28:51Z</time></trkpt><trkpt lat="43.05882645864157" lon="12.891945437317947"><ele>984.8000000000001</ele><time>2026-04-04T11:28:52Z</time></trkpt><trkpt lat="43.058727268749905" lon="12.891984021314602"><ele>980.1999999999999</ele><time>2026-04-04T11:28:53Z</time></trkpt><trkpt lat="43.05863468321432" lon="12.891988081779237"><ele>975.5999999999999</ele><time>2026-04-04T11:28:54Z</time></trkpt><trkpt lat="43.05851632741662" lon="12.891957233220872"><ele>971.0</ele><time>2026-04-04T11:28:55Z</time></trkpt><trkpt lat="43.05839137529846" lon="12.891894020941542"><ele>973.5</ele><time>2026-04-04T11:28:56Z</time></trkpt><trkpt lat="43.058277819486506" lon="12.891817115978329"><ele>976.0</ele><time>2026-04-04T11:28:57Z</time></trkpt><trkpt lat="43.05817219386204" lon="12.891739376824821"><ele>978.5</ele><time>2026-04-04T11:28:58Z</time></trkpt><trkpt lat="43.05807040698803" lon="12.891679899382439"><ele>981.0</ele><time>2026-04-04T11:28:59Z</time></trkpt><trkpt lat="43.05795801343431" lon="12.891650514307148"><ele>981.0</ele><time>2026-04-04T11:29:00Z</time></trkpt><trkpt lat="43.05783967721993" lon="12.891623669984854"><ele>981.0</ele><time>2026-04-04T11:29:01Z</time></trkpt><trkpt lat="43.0577320982824" lon="12.891562700254863"><ele>981.0</ele><time>2026-04-04T11:29:02Z</time></trkpt><trkpt lat="43.05761270374994" lon="12.891469863673743"><ele>981.0</ele><time>2026-04-04T11:29:03Z</time></trkpt><trkpt lat="43.05749078259373" lon="12.891378335078619"><ele>978.5999999999999</ele><time>2026-04-04T11:29:04Z</time></trkpt><trkpt lat="43.057380346524546" lon="12.891306593374557"><ele>976.1999999999999</ele><time>2026-04-04T11:29:05Z</time></trkpt><trkpt lat="43.05727094715072" lon="12.891271101343946"><ele>973.8000000000001</ele><time>2026-04-04T11:29:06Z</time></trkpt><trkpt lat="43.057160745214595" lon="12.891254068976492"><ele>971.4000000000001</ele><time>2026-04-04T11:29:07Z</time></trkpt><trkpt lat="43.057058745012796" lon="12.89123878849103"><ele>969.0</ele><time>2026-04-04T11:29:08Z</time></trkpt><trkpt lat="43.05694569881541" lon="12.89125213896967"><ele>969.0</ele><time>2026-04-04T11:29:09Z</time></trkpt><trkpt lat="43.056824636530195" lon="12.891252341311024"><ele>969.0000000000001</ele><time>2026-04-04T11:29:10Z</time></trkpt><trkpt lat="43.05671636596126" lon="12.891246695704945"><ele>969.0000000000001</ele><time>2026-04-04T11:29:11Z</time></trkpt><trkpt lat="43.05661875873248" lon="12.89122563857"><ele>969.0</ele><time>2026-04-04T11:29:12Z</time></trkpt><trkpt lat="43.05652499934481" lon="12.891176880963478"><ele>969.0</ele><time>2026-04-04T11:29:13Z</time></trkpt><trkpt lat="43.05642910913827" lon="12.891130058514765"><ele>969.0</ele><time>2026-04-04T11:29:14Z</time></trkpt><trkpt lat="43.056337624595194" lon="12.891108104276267"><ele>969.0000000000001</ele><time>2026-04-04T11:29:14.999Z</time></trkpt><trkpt lat="43.05627139315412" lon="12.89111152088795"><ele>969.0000000000001</ele><time>2026-04-04T11:29:15.999Z</time></trkpt><trkpt lat="43.05621295867619" lon="12.891161972218498"><ele>969.0</ele><time>2026-04-04T11:29:19.999Z</time></trkpt><trkpt lat="43.05601514758193" lon="12.891194675747588"><ele>969.0</ele><time>2026-04-04T11:29:23.999Z</time></trkpt><trkpt lat="43.05588417900078" lon="12.891237054443028"><ele>969.0</ele><time>2026-04-04T11:29:24.999Z</time></trkpt><trkpt lat="43.05579879279885" lon="12.891294549002353"><ele>969.0000000000001</ele><time>2026-04-04T11:29:25.999Z</time></trkpt><trkpt lat="43.055698113128564" lon="12.891345886059119"><ele>969.0000000000001</ele><time>2026-04-04T11:29:26.999Z</time></trkpt><trkpt lat="43.055598467379" lon="12.891394531414404"><ele>969.0</ele><time>2026-04-04T11:29:27.999Z</time></trkpt><trkpt lat="43.05550366271746" lon="12.89142411162359"><ele>969.0</ele><time>2026-04-04T11:29:28.999Z</time></trkpt><trkpt lat="43.05540903289007" lon="12.891432317926816"><ele>970.4000000000001</ele><time>2026-04-04T11:29:29.999Z</time></trkpt><trkpt lat="43.055317344784626" lon="12.89142243869136"><ele>971.8000000000001</ele><time>2026-04-04T11:29:30.999Z</time></trkpt><trkpt lat="43.05522154473808" lon="12.89141972738296"><ele>973.1999999999999</ele><time>2026-04-04T11:29:31.999Z</time></trkpt><trkpt lat="43.05511780751515" lon="12.891441073041973"><ele>974.5999999999999</ele><time>2026-04-04T11:29:32.999Z</time></trkpt><trkpt lat="43.055039950810865" lon="12.891526985775165"><ele>976.0</ele><time>2026-04-04T11:29:33.999Z</time></trkpt><trkpt lat="43.05496976450721" lon="12.891592565415584"><ele>975.5714285714284</ele><time>2026-04-04T11:29:34.999Z</time></trkpt><trkpt lat="43.05489998524494" lon="12.891625514879069"><ele>975.1428571428571</ele><time>2026-04-04T11:29:35.999Z</time></trkpt><trkpt lat="43.05483640501273" lon="12.891642825242492"><ele>974.7142857142857</ele><time>2026-04-04T11:29:51Z</time></trkpt><trkpt lat="43.054769974692796" lon="12.8916526876272"><ele>974.2857142857142</ele><time>2026-04-04T11:29:52Z</time></trkpt><trkpt lat="43.054699395713065" lon="12.891667148410752"><ele>973.8571428571429</ele><time>2026-04-04T11:29:53Z</time></trkpt><trkpt lat="43.05461826795306" lon="12.891674882180524"><ele>973.4285714285714</ele><time>2026-04-04T11:29:54Z</time></trkpt><trkpt lat="43.05454025601341" lon="12.891667090524242"><ele>973.0</ele><time>2026-04-04T11:29:55Z</time></trkpt><trkpt lat="43.054464074636336" lon="12.891635523396502"><ele>973.0</ele><time>2026-04-04T11:29:56Z</time></trkpt><trkpt lat="43.05439522035086" lon="12.891582150901906"><ele>973.0</ele><time>2026-04-04T11:29:57Z</time></trkpt><trkpt lat="43.054309778677656" lon="12.891514784649605"><ele>973.0</ele><time>2026-04-04T11:29:58Z</time></trkpt><trkpt lat="43.05422253851221" lon="12.891454830006648"><ele>973.0</ele><time>2026-04-04T11:29:59Z</time></trkpt><trkpt lat="43.054137961467255" lon="12.89141584452276"><ele>973.0</ele><time>2026-04-04T11:30:00Z</time></trkpt><trkpt lat="43.05405685498534" lon="12.891364565064581"><ele>973.4999999999999</ele><time>2026-04-04T11:30:02Z</time></trkpt><trkpt lat="43.053977915958654" lon="12.891269093959517"><ele>974.0</ele><time>2026-04-04T11:30:05Z</time></trkpt><trkpt lat="43.05392300362045" lon="12.891178642609912"><ele>974.5</ele><time>2026-04-04T11:30:06Z</time></trkpt><trkpt lat="43.053870341005364" lon="12.89109843739615"><ele>975.0</ele><time>2026-04-04T11:30:07Z</time></trkpt><trkpt lat="43.05381353989753" lon="12.891019493869365"><ele>975.4999999999999</ele><time>2026-04-04T11:30:08Z</time></trkpt><trkpt lat="43.0537204307578" lon="12.891022296177653"><ele>976.0</ele><time>2026-04-04T11:30:10Z</time></trkpt><trkpt lat="43.05367294183089" lon="12.891086524524814"><ele>976.0</ele><time>2026-04-04T11:30:11Z</time></trkpt><trkpt lat="43.05366329410683" lon="12.89118876876403"><ele>975.9999999999999</ele><time>2026-04-04T11:30:12Z</time></trkpt><trkpt lat="43.05367648260431" lon="12.891329124750534"><ele>975.9999999999999</ele><time>2026-04-04T11:30:13Z</time></trkpt><trkpt lat="43.053670927763534" lon="12.891470088845535"><ele>976.0</ele><time>2026-04-04T11:30:14Z</time></trkpt><trkpt lat="43.05365386347586" lon="12.891590143092886"><ele>976.0</ele><time>2026-04-04T11:30:15Z</time></trkpt><trkpt lat="43.053630440030005" lon="12.891707526715214"><ele>973.3333333333333</ele><time>2026-04-04T11:30:16Z</time></trkpt><trkpt lat="43.05358574108127" lon="12.89182155242819"><ele>970.6666666666666</ele><time>2026-04-04T11:30:17Z</time></trkpt><trkpt lat="43.053521941026766" lon="12.891912636098782"><ele>968.0</ele><time>2026-04-04T11:30:18Z</time></trkpt><trkpt lat="43.05345844228178" lon="12.892001453851503"><ele>965.3333333333333</ele><time>2026-04-04T11:30:19Z</time></trkpt><trkpt lat="43.05339659534164" lon="12.892068858404347"><ele>962.6666666666666</ele><time>2026-04-04T11:30:20Z</time></trkpt><trkpt lat="43.05332013910332" lon="12.892097479297613"><ele>960.0</ele><time>2026-04-04T11:30:21Z</time></trkpt><trkpt lat="43.05321461159877" lon="12.892117177403122"><ele>959.2</ele><time>2026-04-04T11:30:22Z</time></trkpt><trkpt lat="43.05311810693945" lon="12.892119690858614"><ele>958.4</ele><time>2026-04-04T11:30:23Z</time></trkpt><trkpt lat="43.053009893232506" lon="12.892129096596962"><ele>957.5999999999999</ele><time>2026-04-04T11:30:24Z</time></trkpt><trkpt lat="43.052892216968985" lon="12.892129229060954"><ele>956.8</ele><time>2026-04-04T11:30:25Z</time></trkpt><trkpt lat="43.05277723154076" lon="12.89212866100936"><ele>956.0</ele><time>2026-04-04T11:30:26Z</time></trkpt><trkpt lat="43.05264712570188" lon="12.892154514888873"><ele>956.0</ele><time>2026-04-04T11:30:27Z</time></trkpt><trkpt lat="43.05251350522147" lon="12.89214644722236"><ele>956.0</ele><time>2026-04-04T11:30:28Z</time></trkpt><trkpt lat="43.05238515093341" lon="12.892118299326858"><ele>956.0</ele><time>2026-04-04T11:30:29Z</time></trkpt><trkpt lat="43.05227401648636" lon="12.892120418610004"><ele>956.0</ele><time>2026-04-04T11:30:30Z</time></trkpt><trkpt lat="43.05215439576408" lon="12.892114433676342"><ele>954.5</ele><time>2026-04-04T11:30:31Z</time></trkpt><trkpt lat="43.052036131698195" lon="12.892091537611758"><ele>953.0</ele><time>2026-04-04T11:30:32Z</time></trkpt><trkpt lat="43.05190912754869" lon="12.892051923900349"><ele>951.5</ele><time>2026-04-04T11:30:33Z</time></trkpt><trkpt lat="43.05179294743503" lon="12.892005986472096"><ele>950.0</ele><time>2026-04-04T11:30:34Z</time></trkpt><trkpt lat="43.051661101646744" lon="12.891994213180062"><ele>948.25</ele><time>2026-04-04T11:30:35Z</time></trkpt><trkpt lat="43.05153597292752" lon="12.892000752931748"><ele>946.5</ele><time>2026-04-04T11:30:36Z</time></trkpt><trkpt lat="43.05140740440043" lon="12.89201490117857"><ele>944.75</ele><time>2026-04-04T11:30:37Z</time></trkpt><trkpt lat="43.05127700244733" lon="12.89201145723874"><ele>943.0</ele><time>2026-04-04T11:30:38Z</time></trkpt><trkpt lat="43.05116264491143" lon="12.892004416387334"><ele>943.0</ele><time>2026-04-04T11:30:39Z</time></trkpt><trkpt lat="43.05105830483967" lon="12.891989082310435"><ele>943.0</ele><time>2026-04-04T11:30:40Z</time></trkpt><trkpt lat="43.050947051412585" lon="12.891954535502661"><ele>943.0</ele><time>2026-04-04T11:30:41Z</time></trkpt><trkpt lat="43.0508382620305" lon="12.891907177473469"><ele>943.0</ele><time>2026-04-04T11:30:42Z</time></trkpt><trkpt lat="43.05073021804797" lon="12.891872959497984"><ele>943.0</ele><time>2026-04-04T11:30:43Z</time></trkpt><trkpt lat="43.05063431057906" lon="12.89186698739692"><ele>941.6666666666666</ele><time>2026-04-04T11:30:44Z</time></trkpt><trkpt lat="43.05053910821392" lon="12.891873190880338"><ele>940.3333333333333</ele><time>2026-04-04T11:30:45Z</time></trkpt><trkpt lat="43.05045965706799" lon="12.8918892713965"><ele>939.0</ele><time>2026-04-04T11:30:46Z</time></trkpt><trkpt lat="43.050366234997206" lon="12.89187024298635"><ele>937.6666666666667</ele><time>2026-04-04T11:30:47Z</time></trkpt><trkpt lat="43.050282436547626" lon="12.891835889794002"><ele>936.3333333333334</ele><time>2026-04-04T11:30:48Z</time></trkpt><trkpt lat="43.05021900372001" lon="12.89186466866766"><ele>935.0</ele><time>2026-04-04T11:30:49Z</time></trkpt><trkpt lat="43.05013656600791" lon="12.891906472562633"><ele>935.0000000000001</ele><time>2026-04-04T11:30:50Z</time></trkpt><trkpt lat="43.05006005278313" lon="12.891911430528468"><ele>935.0</ele><time>2026-04-04T11:30:51Z</time></trkpt><trkpt lat="43.0499638549157" lon="12.891906528963531"><ele>935.0</ele><time>2026-04-04T11:30:52Z</time></trkpt><trkpt lat="43.049866370254996" lon="12.891904900115982"><ele>935.0</ele><time>2026-04-04T11:30:53Z</time></trkpt><trkpt lat="43.049786589716476" lon="12.891910170856521"><ele>935.0000000000001</ele><time>2026-04-04T11:30:54Z</time></trkpt><trkpt lat="43.049694607560305" lon="12.891915923153602"><ele>935.0</ele><time>2026-04-04T11:30:55Z</time></trkpt><trkpt lat="43.049611408421946" lon="12.8919399876693"><ele>932.6</ele><time>2026-04-04T11:30:56Z</time></trkpt><trkpt lat="43.04951833126325" lon="12.891979658677005"><ele>930.2</ele><time>2026-04-04T11:30:57Z</time></trkpt><trkpt lat="43.04942164730435" lon="12.891997243374865"><ele>927.8</ele><time>2026-04-04T11:30:58Z</time></trkpt><trkpt lat="43.04933880839609" lon="12.891994556998688"><ele>925.4</ele><time>2026-04-04T11:30:59Z</time></trkpt><trkpt lat="43.04922689904209" lon="12.89198120119074"><ele>923.0</ele><time>2026-04-04T11:31:00Z</time></trkpt><trkpt lat="43.04912704338859" lon="12.89196763835675"><ele>920.5000000000001</ele><time>2026-04-04T11:31:01Z</time></trkpt><trkpt lat="43.04903085653645" lon="12.891981894151005"><ele>918.0</ele><time>2026-04-04T11:31:02Z</time></trkpt><trkpt lat="43.048927302341575" lon="12.891993211994814"><ele>915.5</ele><time>2026-04-04T11:31:03Z</time></trkpt><trkpt lat="43.048829526028214" lon="12.89200000674165"><ele>913.0</ele><time>2026-04-04T11:31:04Z</time></trkpt><trkpt lat="43.04874955311832" lon="12.892010421521695"><ele>910.5000000000001</ele><time>2026-04-04T11:31:05Z</time></trkpt><trkpt lat="43.04868103358367" lon="12.892016957438596"><ele>908.0</ele><time>2026-04-04T11:31:06Z</time></trkpt><trkpt lat="43.04857625150203" lon="12.892001874379632"><ele>908.0000000000001</ele><time>2026-04-04T11:31:08Z</time></trkpt><trkpt lat="43.04850486578169" lon="12.891954501095366"><ele>908.0</ele><time>2026-04-04T11:31:10Z</time></trkpt><trkpt lat="43.04845950467598" lon="12.891880205151637"><ele>908.0</ele><time>2026-04-04T11:31:13Z</time></trkpt><trkpt lat="43.04840308921182" lon="12.891803127994278"><ele>908.0</ele><time>2026-04-04T11:31:15Z</time></trkpt><trkpt lat="43.04835480856567" lon="12.891742385449135"><ele>908.0000000000001</ele><time>2026-04-04T11:31:16Z</time></trkpt><trkpt lat="43.04828667301545" lon="12.89166047425612"><ele>908.0</ele><time>2026-04-04T11:31:17Z</time></trkpt><trkpt lat="43.048183526808224" lon="12.891588506023217"><ele>910.0</ele><time>2026-04-04T11:31:18Z</time></trkpt><trkpt lat="43.04808668591653" lon="12.891497637602631"><ele>912.0</ele><time>2026-04-04T11:31:19Z</time></trkpt><trkpt lat="43.04800322242949" lon="12.891396288106817"><ele>914.0</ele><time>2026-04-04T11:31:20Z</time></trkpt><trkpt lat="43.047911304099806" lon="12.891291813439562"><ele>916.0</ele><time>2026-04-04T11:31:21Z</time></trkpt><trkpt lat="43.04781975223487" lon="12.891220174397482"><ele>916.0</ele><time>2026-04-04T11:31:22Z</time></trkpt><trkpt lat="43.04774362589133" lon="12.891171987236797"><ele>915.9999999999999</ele><time>2026-04-04T11:31:23Z</time></trkpt><trkpt lat="43.04764285420321" lon="12.891171279341357"><ele>915.9999999999999</ele><time>2026-04-04T11:31:25Z</time></trkpt><trkpt lat="43.0475308150967" lon="12.891218086940182"><ele>916.0</ele><time>2026-04-04T11:31:26.999Z</time></trkpt><trkpt lat="43.04745518747218" lon="12.891204223077553"><ele>916.0</ele><time>2026-04-04T11:31:27.999Z</time></trkpt><trkpt lat="43.047361008504936" lon="12.89113704303965"><ele>916.75</ele><time>2026-04-04T11:31:28.999Z</time></trkpt><trkpt lat="43.047237147199716" lon="12.891106204310336"><ele>917.5</ele><time>2026-04-04T11:31:29.999Z</time></trkpt><trkpt lat="43.04710144424366" lon="12.891067199170518"><ele>918.25</ele><time>2026-04-04T11:31:30.999Z</time></trkpt><trkpt lat="43.046983483178344" lon="12.89102907239434"><ele>919.0</ele><time>2026-04-04T11:31:31.999Z</time></trkpt><trkpt lat="43.04688477300601" lon="12.890997646955666"><ele>919.0</ele><time>2026-04-04T11:31:32.999Z</time></trkpt><trkpt lat="43.04677620579088" lon="12.890981021953312"><ele>919.0</ele><time>2026-04-04T11:31:33.999Z</time></trkpt><trkpt lat="43.04665474783438" lon="12.890998813051167"><ele>919.0</ele><time>2026-04-04T11:31:34.999Z</time></trkpt><trkpt lat="43.04653970527981" lon="12.89104258323626"><ele>919.0</ele><time>2026-04-04T11:31:35.999Z</time></trkpt><trkpt lat="43.04644752272907" lon="12.891093973219933"><ele>919.5</ele><time>2026-04-04T11:31:36.999Z</time></trkpt><trkpt lat="43.04636658684073" lon="12.891175621154886"><ele>920.0</ele><time>2026-04-04T11:31:37.999Z</time></trkpt><trkpt lat="43.04626527382595" lon="12.891226910849777"><ele>920.5</ele><time>2026-04-04T11:31:38.999Z</time></trkpt><trkpt lat="43.046142903539895" lon="12.891285549337443"><ele>921.0</ele><time>2026-04-04T11:31:39.999Z</time></trkpt><trkpt lat="43.04601668956506" lon="12.891345782658762"><ele>921.0</ele><time>2026-04-04T11:31:40.999Z</time></trkpt><trkpt lat="43.045878017220325" lon="12.891407253091591"><ele>921.0</ele><time>2026-04-04T11:31:41.999Z</time></trkpt><trkpt lat="43.04574996370199" lon="12.891461396814647"><ele>921.0</ele><time>2026-04-04T11:31:42.999Z</time></trkpt><trkpt lat="43.0456263316112" lon="12.891524301055956"><ele>921.0</ele><time>2026-04-04T11:31:43.999Z</time></trkpt><trkpt lat="43.045496048132684" lon="12.89157770956157"><ele>920.3333333333334</ele><time>2026-04-04T11:31:44.999Z</time></trkpt><trkpt lat="43.04538757787618" lon="12.891619254847885"><ele>919.6666666666667</ele><time>2026-04-04T11:31:45.999Z</time></trkpt><trkpt lat="43.045328434266345" lon="12.891650993095308"><ele>919.0</ele><time>2026-04-04T11:31:46.999Z</time></trkpt><trkpt lat="43.04527675914335" lon="12.891719463711919"><ele>918.3333333333334</ele><time>2026-04-04T11:31:47.999Z</time></trkpt><trkpt lat="43.045229984134515" lon="12.891797330680504"><ele>917.6666666666667</ele><time>2026-04-04T11:31:48.998Z</time></trkpt><trkpt lat="43.045164012741836" lon="12.891852241839983"><ele>917.0</ele><time>2026-04-04T11:31:49.998Z</time></trkpt><trkpt lat="43.04515040774633" lon="12.891957940775047"><ele>916.2</ele><time>2026-04-04T11:31:50.998Z</time></trkpt><trkpt lat="43.045063333502185" lon="12.89196017598044"><ele>915.4000000000001</ele><time>2026-04-04T11:31:52.998Z</time></trkpt><trkpt lat="43.04498760058611" lon="12.892045595621871"><ele>914.5999999999999</ele><time>2026-04-04T11:31:53.998Z</time></trkpt><trkpt lat="43.04489625915384" lon="12.892132929051108"><ele>913.8</ele><time>2026-04-04T11:31:54.998Z</time></trkpt><trkpt lat="43.04481069080472" lon="12.892205973538049"><ele>913.0</ele><time>2026-04-04T11:31:55.998Z</time></trkpt><trkpt lat="43.04472824314183" lon="12.892258957647828"><ele>912.8</ele><time>2026-04-04T11:31:57Z</time></trkpt><trkpt lat="43.044639340834316" lon="12.892226148526229"><ele>912.5999999999999</ele><time>2026-04-04T11:31:58Z</time></trkpt><trkpt lat="43.04454895378955" lon="12.892193994205341"><ele>912.4000000000001</ele><time>2026-04-04T11:31:59Z</time></trkpt><trkpt lat="43.04447143405011" lon="12.892096771834037"><ele>912.2</ele><time>2026-04-04T11:32:00Z</time></trkpt><trkpt lat="43.04434614792872" lon="12.891975271207189"><ele>912.0</ele><time>2026-04-04T11:32:01Z</time></trkpt><trkpt lat="43.044192928060006" lon="12.891915933259803"><ele>911.3333333333333</ele><time>2026-04-04T11:32:02Z</time></trkpt><trkpt lat="43.04403160324828" lon="12.891907187160701"><ele>910.6666666666666</ele><time>2026-04-04T11:32:03Z</time></trkpt><trkpt lat="43.04387921156798" lon="12.891909569588705"><ele>910.0</ele><time>2026-04-04T11:32:04Z</time></trkpt><trkpt lat="43.04370908016688" lon="12.891893925851209"><ele>910.0</ele><time>2026-04-04T11:32:05Z</time></trkpt><trkpt lat="43.04352741611274" lon="12.891875084436007"><ele>910.0</ele><time>2026-04-04T11:32:06Z</time></trkpt><trkpt lat="43.04337000128774" lon="12.891845669410456"><ele>910.0</ele><time>2026-04-04T11:32:07Z</time></trkpt><trkpt lat="43.04321200238281" lon="12.89182235220549"><ele>908.5</ele><time>2026-04-04T11:32:08Z</time></trkpt><trkpt lat="43.043066162604475" lon="12.89181725687182"><ele>907.0</ele><time>2026-04-04T11:32:09Z</time></trkpt><trkpt lat="43.04292187444459" lon="12.891810158594545"><ele>905.5</ele><time>2026-04-04T11:32:10Z</time></trkpt><trkpt lat="43.04281313666788" lon="12.891803904795907"><ele>904.0</ele><time>2026-04-04T11:32:11Z</time></trkpt><trkpt lat="43.04270283486005" lon="12.891807248852754"><ele>904.0</ele><time>2026-04-04T11:32:12Z</time></trkpt><trkpt lat="43.04260112827962" lon="12.891809409657148"><ele>904.0000000000001</ele><time>2026-04-04T11:32:13Z</time></trkpt><trkpt lat="43.04250898087167" lon="12.891822247397048"><ele>904.0000000000001</ele><time>2026-04-04T11:32:13.999Z</time></trkpt><trkpt lat="43.04242582141892" lon="12.891833354568227"><ele>904.0</ele><time>2026-04-04T11:32:14.999Z</time></trkpt><trkpt lat="43.042342089757675" lon="12.891864108934072"><ele>904.0</ele><time>2026-04-04T11:32:15.999Z</time></trkpt><trkpt lat="43.04226969131213" lon="12.891934210484935"><ele>900.8333333333333</ele><time>2026-04-04T11:32:16.999Z</time></trkpt><trkpt lat="43.042193061788936" lon="12.892013159630972"><ele>897.6666666666666</ele><time>2026-04-04T11:32:17.999Z</time></trkpt><trkpt lat="43.042112616866305" lon="12.89208614776835"><ele>894.5</ele><time>2026-04-04T11:32:18.999Z</time></trkpt><trkpt lat="43.04203083510659" lon="12.892138866688054"><ele>891.3333333333333</ele><time>2026-04-04T11:32:19.999Z</time></trkpt><trkpt lat="43.04196226552807" lon="12.892155955239794"><ele>888.1666666666666</ele><time>2026-04-04T11:32:20.999Z</time></trkpt><trkpt lat="43.04186847807323" lon="12.892144183463902"><ele>885.0</ele><time>2026-04-04T11:32:21.999Z</time></trkpt><trkpt lat="43.0417717603185" lon="12.892128735642887"><ele>885.0</ele><time>2026-04-04T11:32:22.999Z</time></trkpt><trkpt lat="43.04167980195477" lon="12.892103218980711"><ele>885.0</ele><time>2026-04-04T11:32:23.999Z</time></trkpt><trkpt lat="43.04158524770413" lon="12.892067229402869"><ele>885.0</ele><time>2026-04-04T11:32:24.999Z</time></trkpt><trkpt lat="43.0414918131857" lon="12.892019730770377"><ele>885.0</ele><time>2026-04-04T11:32:25.999Z</time></trkpt><trkpt lat="43.04139386687722" lon="12.89196585458933"><ele>885.0</ele><time>2026-04-04T11:32:26.999Z</time></trkpt><trkpt lat="43.04128315134317" lon="12.891913262826556"><ele>882.2</ele><time>2026-04-04T11:32:27.999Z</time></trkpt><trkpt lat="43.041190809420044" lon="12.8918365014396"><ele>879.4</ele><time>2026-04-04T11:32:28.999Z</time></trkpt><trkpt lat="43.0411060348646" lon="12.89177064169727"><ele>876.5999999999999</ele><time>2026-04-04T11:32:29.999Z</time></trkpt><trkpt lat="43.04101708056413" lon="12.891739800308983"><ele>873.8</ele><time>2026-04-04T11:32:30.999Z</time></trkpt><trkpt lat="43.040925940961515" lon="12.891739438688399"><ele>871.0</ele><time>2026-04-04T11:32:31.999Z</time></trkpt><trkpt lat="43.040842989418366" lon="12.891748364586133"><ele>868.1999999999999</ele><time>2026-04-04T11:32:32.999Z</time></trkpt><trkpt lat="43.040769552699516" lon="12.891794973087435"><ele>865.3999999999999</ele><time>2026-04-04T11:32:33.999Z</time></trkpt><trkpt lat="43.04071214278651" lon="12.891848251060445"><ele>862.6</ele><time>2026-04-04T11:32:34.999Z</time></trkpt><trkpt lat="43.040640044182844" lon="12.891951049386464"><ele>859.8</ele><time>2026-04-04T11:32:35.999Z</time></trkpt><trkpt lat="43.04054092625902" lon="12.892082299966054"><ele>857.0</ele><time>2026-04-04T11:32:36.999Z</time></trkpt><trkpt lat="43.04043878865883" lon="12.892192484208236"><ele>857.0</ele><time>2026-04-04T11:32:37.999Z</time></trkpt><trkpt lat="43.04033432493804" lon="12.892274758347813"><ele>857.0</ele><time>2026-04-04T11:32:38.999Z</time></trkpt><trkpt lat="43.040240030407" lon="12.892350062998492"><ele>857.0</ele><time>2026-04-04T11:32:39.999Z</time></trkpt><trkpt lat="43.04015736224025" lon="12.89241255145266"><ele>857.0</ele><time>2026-04-04T11:32:40.999Z</time></trkpt><trkpt lat="43.04005988182228" lon="12.892444253181413"><ele>857.0</ele><time>2026-04-04T11:32:42.999Z</time></trkpt><trkpt lat="43.03998997909329" lon="12.892390788220077"><ele>852.4000000000001</ele><time>2026-04-04T11:32:44.999Z</time></trkpt><trkpt lat="43.039885858108306" lon="12.892442163272548"><ele>847.8000000000001</ele><time>2026-04-04T11:32:46.999Z</time></trkpt><trkpt lat="43.03980828988047" lon="12.892552215983596"><ele>843.2</ele><time>2026-04-04T11:32:48.999Z</time></trkpt><trkpt lat="43.03978792955142" lon="12.89269579895682"><ele>838.6</ele><time>2026-04-04T11:32:50.999Z</time></trkpt><trkpt lat="43.039764669025985" lon="12.892777411641953"><ele>834.0</ele><time>2026-04-04T11:32:51.999Z</time></trkpt><trkpt lat="43.039718480025165" lon="12.892838664686074"><ele>832.6666666666666</ele><time>2026-04-04T11:32:52.999Z</time></trkpt><trkpt lat="43.039661795679926" lon="12.89287677101571"><ele>831.3333333333333</ele><time>2026-04-04T11:32:53.999Z</time></trkpt><trkpt lat="43.03959404425615" lon="12.89288536820738"><ele>830.0</ele><time>2026-04-04T11:32:54.999Z</time></trkpt><trkpt lat="43.03951969902792" lon="12.892891609587867"><ele>828.6666666666666</ele><time>2026-04-04T11:32:55.999Z</time></trkpt><trkpt lat="43.03945431748317" lon="12.892925092039775"><ele>827.3333333333333</ele><time>2026-04-04T11:32:56.999Z</time></trkpt><trkpt lat="43.03937159623003" lon="12.893012042535569"><ele>826.0</ele><time>2026-04-04T11:32:58.999Z</time></trkpt><trkpt lat="43.03930822482878" lon="12.893139915385209"><ele>825.9999999999999</ele><time>2026-04-04T11:33:00.999Z</time></trkpt><trkpt lat="43.039274429604745" lon="12.893279520695243"><ele>826.0</ele><time>2026-04-04T11:33:02.999Z</time></trkpt><trkpt lat="43.03921302234263" lon="12.893393515739834"><ele>826.0</ele><time>2026-04-04T11:33:04.999Z</time></trkpt><trkpt lat="43.03915737589019" lon="12.893441067754027"><ele>826.0</ele><time>2026-04-04T11:33:05.999Z</time></trkpt><trkpt lat="43.03910076522595" lon="12.893502961772462"><ele>825.9999999999999</ele><time>2026-04-04T11:33:06.999Z</time></trkpt><trkpt lat="43.03905379848222" lon="12.893562589029473"><ele>826.0</ele><time>2026-04-04T11:33:07.999Z</time></trkpt><trkpt lat="43.0390084483766" lon="12.893625479574695"><ele>819.7142857142857</ele><time>2026-04-04T11:33:08.999Z</time></trkpt><trkpt lat="43.03896342258126" lon="12.893691096481605"><ele>813.4285714285714</ele><time>2026-04-04T11:33:09.999Z</time></trkpt><trkpt lat="43.03891463946727" lon="12.893765312489299"><ele>807.1428571428571</ele><time>2026-04-04T11:33:10.999Z</time></trkpt><trkpt lat="43.038869150011124" lon="12.89383241226608"><ele>800.8571428571429</ele><time>2026-04-04T11:33:11.999Z</time></trkpt><trkpt lat="43.0388229824944" lon="12.893898441841094"><ele>794.5714285714286</ele><time>2026-04-04T11:33:12.999Z</time></trkpt><trkpt lat="43.03877611855194" lon="12.893975330732097"><ele>788.2857142857142</ele><time>2026-04-04T11:33:13.999Z</time></trkpt><trkpt lat="43.03873418148414" lon="12.89404618747079"><ele>782.0</ele><time>2026-04-04T11:33:14.999Z</time></trkpt><trkpt lat="43.03869017839213" lon="12.894120851744464"><ele>782.0000000000001</ele><time>2026-04-04T11:33:15.999Z</time></trkpt><trkpt lat="43.03864727355664" lon="12.894191223088676"><ele>782.0</ele><time>2026-04-04T11:33:16.999Z</time></trkpt><trkpt lat="43.03855161814111" lon="12.8943210058525"><ele>782.0</ele><time>2026-04-04T11:33:18.999Z</time></trkpt><trkpt lat="43.03849271977131" lon="12.89439451509644"><ele>782.0</ele><time>2026-04-04T11:33:19.999Z</time></trkpt><trkpt lat="43.0384403373407" lon="12.894468088606528"><ele>782.0000000000001</ele><time>2026-04-04T11:33:20.999Z</time></trkpt><trkpt lat="43.038386829764846" lon="12.89452930794482"><ele>782.0</ele><time>2026-04-04T11:33:21.999Z</time></trkpt><trkpt lat="43.038335966771996" lon="12.894587067502853"><ele>778.6666666666667</ele><time>2026-04-04T11:33:22.999Z</time></trkpt><trkpt lat="43.03828052006198" lon="12.894649445223383"><ele>775.3333333333334</ele><time>2026-04-04T11:33:23.999Z</time></trkpt><trkpt lat="43.03821472646933" lon="12.89475250798402"><ele>772.0</ele><time>2026-04-04T11:33:25.999Z</time></trkpt><trkpt lat="43.03817865281412" lon="12.894895524466948"><ele>768.6666666666667</ele><time>2026-04-04T11:33:27.999Z</time></trkpt><trkpt lat="43.038179391283045" lon="12.894984868710075"><ele>765.3333333333334</ele><time>2026-04-04T11:33:28.999Z</time></trkpt><trkpt lat="43.038197603282185" lon="12.895073178674394"><ele>762.0</ele><time>2026-04-04T11:33:29.999Z</time></trkpt><trkpt lat="43.038203403380926" lon="12.895225199078196"><ele>761.25</ele><time>2026-04-04T11:33:31.999Z</time></trkpt><trkpt lat="43.038158420241466" lon="12.895297619619887"><ele>760.5</ele><time>2026-04-04T11:33:32.999Z</time></trkpt><trkpt lat="43.03807553692296" lon="12.895391374573775"><ele>759.75</ele><time>2026-04-04T11:33:33.999Z</time></trkpt><trkpt lat="43.037971927850855" lon="12.89550810278964"><ele>759.0</ele><time>2026-04-04T11:33:34.998Z</time></trkpt><trkpt lat="43.037860396169876" lon="12.895633863109305"><ele>759.0</ele><time>2026-04-04T11:33:35.998Z</time></trkpt><trkpt lat="43.03775411841157" lon="12.895733633310572"><ele>759.0</ele><time>2026-04-04T11:33:36.998Z</time></trkpt><trkpt lat="43.037656110088136" lon="12.895831588589889"><ele>759.0</ele><time>2026-04-04T11:33:37.998Z</time></trkpt><trkpt lat="43.03755991962599" lon="12.895948012764114"><ele>759.0</ele><time>2026-04-04T11:33:38.998Z</time></trkpt><trkpt lat="43.03746977385028" lon="12.896059091242284"><ele>758.8000000000001</ele><time>2026-04-04T11:33:39.998Z</time></trkpt><trkpt lat="43.03738399182759" lon="12.896168259910258"><ele>758.6</ele><time>2026-04-04T11:33:40.998Z</time></trkpt><trkpt lat="43.03730772268034" lon="12.8962680288614"><ele>758.4</ele><time>2026-04-04T11:33:41.998Z</time></trkpt><trkpt lat="43.037235376656064" lon="12.896359657908388"><ele>758.2</ele><time>2026-04-04T11:33:42.998Z</time></trkpt><trkpt lat="43.03717856990575" lon="12.896446977570092"><ele>758.0</ele><time>2026-04-04T11:33:43.998Z</time></trkpt><trkpt lat="43.037135060904994" lon="12.896514624796618"><ele>758.0</ele><time>2026-04-04T11:33:44.998Z</time></trkpt><trkpt lat="43.0370808401018" lon="12.896577283361268"><ele>758.0</ele><time>2026-04-04T11:33:46.998Z</time></trkpt><trkpt lat="43.03699779996493" lon="12.896562213639315"><ele>758.0</ele><time>2026-04-04T11:34:10Z</time></trkpt><trkpt lat="43.03687965090213" lon="12.896503973356966"><ele>758.0</ele><time>2026-04-04T11:34:12Z</time></trkpt><trkpt lat="43.03681618858765" lon="12.896466489143386"><ele>758.0</ele><time>2026-04-04T11:34:13Z</time></trkpt><trkpt lat="43.03674692684945" lon="12.896422996225315"><ele>758.0</ele><time>2026-04-04T11:34:14Z</time></trkpt><trkpt lat="43.03667497969761" lon="12.896374158554332"><ele>758.2</ele><time>2026-04-04T11:34:15Z</time></trkpt><trkpt lat="43.03659699893915" lon="12.896329277521438"><ele>758.4</ele><time>2026-04-04T11:34:16Z</time></trkpt><trkpt lat="43.036514032596195" lon="12.89629077272903"><ele>758.6</ele><time>2026-04-04T11:34:17Z</time></trkpt><trkpt lat="43.03643238821302" lon="12.896254306870217"><ele>758.8000000000001</ele><time>2026-04-04T11:34:18Z</time></trkpt><trkpt lat="43.03634702125199" lon="12.896205210586702"><ele>759.0</ele><time>2026-04-04T11:34:19Z</time></trkpt><trkpt lat="43.03625572054095" lon="12.896146802805406"><ele>759.0</ele><time>2026-04-04T11:34:20Z</time></trkpt><trkpt lat="43.03615325386222" lon="12.896086553795104"><ele>759.0</ele><time>2026-04-04T11:34:21Z</time></trkpt><trkpt lat="43.03604362796153" lon="12.896025042607684"><ele>759.0</ele><time>2026-04-04T11:34:22Z</time></trkpt><trkpt lat="43.03593071279784" lon="12.895957362980544"><ele>759.0</ele><time>2026-04-04T11:34:23Z</time></trkpt><trkpt lat="43.03581507486589" lon="12.89588773732156"><ele>759.25</ele><time>2026-04-04T11:34:24Z</time></trkpt><trkpt lat="43.03569573007468" lon="12.895815111528506"><ele>759.5</ele><time>2026-04-04T11:34:24.999Z</time></trkpt><trkpt lat="43.03557264139423" lon="12.895743372088004"><ele>759.75</ele><time>2026-04-04T11:34:25.999Z</time></trkpt><trkpt lat="43.035444175704704" lon="12.895675137353416"><ele>760.0</ele><time>2026-04-04T11:34:26.999Z</time></trkpt><trkpt lat="43.035314408916655" lon="12.895604314246071"><ele>760.0</ele><time>2026-04-04T11:34:27.999Z</time></trkpt><trkpt lat="43.03518363929549" lon="12.895528245621783"><ele>760.0</ele><time>2026-04-04T11:34:28.999Z</time></trkpt><trkpt lat="43.03505057846718" lon="12.89545196721012"><ele>760.0</ele><time>2026-04-04T11:34:29.999Z</time></trkpt><trkpt lat="43.034916144554884" lon="12.895375311702733"><ele>760.0</ele><time>2026-04-04T11:34:30.999Z</time></trkpt><trkpt lat="43.034782600797065" lon="12.895297317570195"><ele>759.5</ele><time>2026-04-04T11:34:31.999Z</time></trkpt><trkpt lat="43.03464716314168" lon="12.895216008593943"><ele>759.0</ele><time>2026-04-04T11:34:32.999Z</time></trkpt><trkpt lat="43.03451230598082" lon="12.895134481505158"><ele>758.5</ele><time>2026-04-04T11:34:33.999Z</time></trkpt><trkpt lat="43.03437545449842" lon="12.895060535069302"><ele>758.0</ele><time>2026-04-04T11:34:34.999Z</time></trkpt><trkpt lat="43.03423822891898" lon="12.894982891370672"><ele>758.0</ele><time>2026-04-04T11:34:35.999Z</time></trkpt><trkpt lat="43.03410276920667" lon="12.894898598348442"><ele>758.0</ele><time>2026-04-04T11:34:36.999Z</time></trkpt><trkpt lat="43.033967804315736" lon="12.894813327941002"><ele>758.0</ele><time>2026-04-04T11:34:37.999Z</time></trkpt><trkpt lat="43.03383136087279" lon="12.894727277264458"><ele>758.0</ele><time>2026-04-04T11:34:38.999Z</time></trkpt><trkpt lat="43.03369391355683" lon="12.894640668531792"><ele>758.0</ele><time>2026-04-04T11:34:39.999Z</time></trkpt><trkpt lat="43.03355862940195" lon="12.894561454819005"><ele>758.0</ele><time>2026-04-04T11:34:40.999Z</time></trkpt><trkpt lat="43.03342520347968" lon="12.894486249784817"><ele>758.0</ele><time>2026-04-04T11:34:41.999Z</time></trkpt><trkpt lat="43.03329637586917" lon="12.89441308793775"><ele>758.0</ele><time>2026-04-04T11:34:42.999Z</time></trkpt><trkpt lat="43.0331674356257" lon="12.894338100115592"><ele>758.3333333333333</ele><time>2026-04-04T11:34:43.999Z</time></trkpt><trkpt lat="43.03302581524169" lon="12.894256446289775"><ele>758.6666666666666</ele><time>2026-04-04T11:34:44.999Z</time></trkpt><trkpt lat="43.032885221947495" lon="12.894174731963702"><ele>759.0</ele><time>2026-04-04T11:34:45.999Z</time></trkpt><trkpt lat="43.032747666379116" lon="12.894097476679198"><ele>758.75</ele><time>2026-04-04T11:34:46.999Z</time></trkpt><trkpt lat="43.032603924500926" lon="12.894013745332256"><ele>758.5</ele><time>2026-04-04T11:34:47.999Z</time></trkpt><trkpt lat="43.03247930752394" lon="12.893927890457062"><ele>758.25</ele><time>2026-04-04T11:34:48.999Z</time></trkpt><trkpt lat="43.032368108783025" lon="12.893857296569722"><ele>758.0</ele><time>2026-04-04T11:34:49.999Z</time></trkpt><trkpt lat="43.03226144152662" lon="12.893791894497767"><ele>758.0</ele><time>2026-04-04T11:34:50.999Z</time></trkpt><trkpt lat="43.0321562261415" lon="12.89372500082766"><ele>758.0</ele><time>2026-04-04T11:34:51.999Z</time></trkpt><trkpt lat="43.03205149501231" lon="12.893656739008172"><ele>758.0</ele><time>2026-04-04T11:34:52.999Z</time></trkpt><trkpt lat="43.031946411139714" lon="12.89358401128622"><ele>758.0</ele><time>2026-04-04T11:34:53.999Z</time></trkpt><trkpt lat="43.03185032903773" lon="12.893517671989757"><ele>758.0</ele><time>2026-04-04T11:34:54.999Z</time></trkpt><trkpt lat="43.03176349480878" lon="12.893459940566853"><ele>758.0</ele><time>2026-04-04T11:34:55.999Z</time></trkpt><trkpt lat="43.03167886921924" lon="12.893433939771398"><ele>758.0</ele><time>2026-04-04T11:34:56.999Z</time></trkpt><trkpt lat="43.03159891612336" lon="12.893433428704071"><ele>758.0</ele><time>2026-04-04T11:34:57.999Z</time></trkpt><trkpt lat="43.031506816184965" lon="12.89341148514676"><ele>758.0</ele><time>2026-04-04T11:34:59.999Z</time></trkpt><trkpt lat="43.031437855814964" lon="12.8933834512689"><ele>758.0</ele><time>2026-04-04T11:35:01.999Z</time></trkpt><trkpt lat="43.03135836616435" lon="12.893393886984654"><ele>758.0000000000001</ele><time>2026-04-04T11:35:05.999Z</time></trkpt><trkpt lat="43.03134264314689" lon="12.893479333485777"><ele>758.0</ele><time>2026-04-04T11:35:08.999Z</time></trkpt><trkpt lat="43.03135348555223" lon="12.893564696140206"><ele>758.0</ele><time>2026-04-04T11:35:11.999Z</time></trkpt><trkpt lat="43.031299348322385" lon="12.893610522525883"><ele>758.0</ele><time>2026-04-04T11:37:51.999Z</time></trkpt><trkpt lat="43.031229954607696" lon="12.893597006960913"><ele>758.0</ele><time>2026-04-04T11:37:57.998Z</time></trkpt><trkpt lat="43.03114449453032" lon="12.893643642793743"><ele>758.0000000000001</ele><time>2026-04-04T11:38:15.033Z</time></trkpt><trkpt lat="43.03114927911739" lon="12.893759129775631"><ele>758.0</ele><time>2026-04-04T11:38:19.032Z</time></trkpt><trkpt lat="43.031216326612714" lon="12.893759290820666"><ele>758.0</ele><time>2026-04-04T11:38:21.032Z</time></trkpt><trkpt lat="43.03128675695812" lon="12.893677961757597"><ele>758.0</ele><time>2026-04-04T11:38:32.028Z</time></trkpt><trkpt lat="43.031276151310166" lon="12.893569809290522"><ele>758.0</ele><time>2026-04-04T11:38:55.016Z</time></trkpt><trkpt lat="43.0313456249276" lon="12.893561816908264"><ele>758.0</ele><time>2026-04-04T11:39:03.015Z</time></trkpt><trkpt lat="43.031270688714926" lon="12.893511057537467"><ele>758.0</ele><time>2026-04-04T11:39:15.028Z</time></trkpt><trkpt lat="43.03141870946336" lon="12.893528358860372"><ele>758.0</ele><time>2026-04-04T11:40:11.922Z</time></trkpt><trkpt lat="43.03141870946336" lon="12.893528358860372"><ele>758.0</ele><time>2026-04-04T11:40:11.922Z</time></trkpt><trkpt lat="43.03141870946336" lon="12.893528358860372"><ele>758.0</ele><time>2026-04-04T11:40:11.922Z</time></trkpt><trkpt lat="43.03141870946336" lon="12.893528358860372"><ele>758.0</ele><time>2026-04-04T11:40:11.922Z</time></trkpt></trkseg><trkseg><trkpt lat="43.03145443499378" lon="12.89344298726873"><ele>758.0</ele><time>2026-04-04T13:09:52.178Z</time></trkpt><trkpt lat="43.03151079981524" lon="12.893497719451204"><ele>758.0</ele><time>2026-04-04T13:09:56.978Z</time></trkpt><trkpt lat="43.03158513953713" lon="12.89353706035874"><ele>758.0</ele><time>2026-04-04T13:10:44Z</time></trkpt><trkpt lat="43.031649003526844" lon="12.893458112288055"><ele>758.0</ele><time>2026-04-04T13:10:47Z</time></trkpt><trkpt lat="43.03173877429182" lon="12.893449447544821"><ele>758.0</ele><time>2026-04-04T13:10:50Z</time></trkpt><trkpt lat="43.03183257252903" lon="12.893522298831275"><ele>758.0</ele><time>2026-04-04T13:10:52Z</time></trkpt><trkpt lat="43.031891007697986" lon="12.89358208101451"><ele>758.0</ele><time>2026-04-04T13:10:53Z</time></trkpt><trkpt lat="43.031956388927945" lon="12.89363660166737"><ele>758.0</ele><time>2026-04-04T13:10:54Z</time></trkpt><trkpt lat="43.032026032740866" lon="12.893696129870591"><ele>758.0</ele><time>2026-04-04T13:10:55Z</time></trkpt><trkpt lat="43.03210224891653" lon="12.89375063636959"><ele>758.0</ele><time>2026-04-04T13:10:56Z</time></trkpt><trkpt lat="43.032176975383656" lon="12.893801757364995"><ele>758.0</ele><time>2026-04-04T13:10:57Z</time></trkpt><trkpt lat="43.03225702941309" lon="12.893853579923096"><ele>758.0</ele><time>2026-04-04T13:10:58Z</time></trkpt><trkpt lat="43.032345413943204" lon="12.893908663442646"><ele>758.0</ele><time>2026-04-04T13:10:59Z</time></trkpt><trkpt lat="43.032436818346675" lon="12.893960988959916"><ele>758.0</ele><time>2026-04-04T13:11:00Z</time></trkpt><trkpt lat="43.03252439841054" lon="12.894014389545369"><ele>758.0</ele><time>2026-04-04T13:11:01Z</time></trkpt><trkpt lat="43.03262746118569" lon="12.89407200208047"><ele>758.0</ele><time>2026-04-04T13:11:02Z</time></trkpt><trkpt lat="43.032730500285254" lon="12.894139348579202"><ele>758.0</ele><time>2026-04-04T13:11:03Z</time></trkpt><trkpt lat="43.03283787428883" lon="12.894211015857515"><ele>758.25</ele><time>2026-04-04T13:11:04Z</time></trkpt><trkpt lat="43.03293977591356" lon="12.894279675836147"><ele>758.5</ele><time>2026-04-04T13:11:05Z</time></trkpt><trkpt lat="43.03303722632634" lon="12.894334544206425"><ele>758.75</ele><time>2026-04-04T13:11:06Z</time></trkpt><trkpt lat="43.033144577343656" lon="12.894391508899094"><ele>759.0</ele><time>2026-04-04T13:11:07Z</time></trkpt><trkpt lat="43.03325243535528" lon="12.894453049799372"><ele>758.75</ele><time>2026-04-04T13:11:08Z</time></trkpt><trkpt lat="43.03336113158653" lon="12.894515465329354"><ele>758.5</ele><time>2026-04-04T13:11:09Z</time></trkpt><trkpt lat="43.033474957750855" lon="12.894583291766187"><ele>758.25</ele><time>2026-04-04T13:11:10Z</time></trkpt><trkpt lat="43.03359629999528" lon="12.894650858294048"><ele>758.0</ele><time>2026-04-04T13:11:11Z</time></trkpt><trkpt lat="43.033722826112204" lon="12.894720322139865"><ele>758.0</ele><time>2026-04-04T13:11:12Z</time></trkpt><trkpt lat="43.033850442437064" lon="12.89479239333339"><ele>758.0</ele><time>2026-04-04T13:11:13Z</time></trkpt><trkpt lat="43.03398177694735" lon="12.89486885557979"><ele>758.0</ele><time>2026-04-04T13:11:14Z</time></trkpt><trkpt lat="43.03411017944423" lon="12.894943853955338"><ele>758.0</ele><time>2026-04-04T13:11:15Z</time></trkpt><trkpt lat="43.034235889000875" lon="12.895017181700522"><ele>757.75</ele><time>2026-04-04T13:11:16Z</time></trkpt><trkpt lat="43.034359609141354" lon="12.895090970121844"><ele>757.5</ele><time>2026-04-04T13:11:17Z</time></trkpt><trkpt lat="43.034482838016174" lon="12.8951647283236"><ele>757.25</ele><time>2026-04-04T13:11:18Z</time></trkpt><trkpt lat="43.034610574701674" lon="12.895234985750568"><ele>757.0</ele><time>2026-04-04T13:11:19Z</time></trkpt><trkpt lat="43.03474369356038" lon="12.895313028092122"><ele>757.0</ele><time>2026-04-04T13:11:20Z</time></trkpt><trkpt lat="43.034878302302225" lon="12.895393423516202"><ele>757.0</ele><time>2026-04-04T13:11:21Z</time></trkpt><trkpt lat="43.03501480703726" lon="12.895475118525946"><ele>757.0</ele><time>2026-04-04T13:11:22Z</time></trkpt><trkpt lat="43.035152292460374" lon="12.895556935297426"><ele>757.0</ele><time>2026-04-04T13:11:23Z</time></trkpt><trkpt lat="43.035290476613014" lon="12.895637180217994"><ele>758.0</ele><time>2026-04-04T13:11:24Z</time></trkpt><trkpt lat="43.03542893230389" lon="12.895715460854516"><ele>759.0</ele><time>2026-04-04T13:11:25Z</time></trkpt><trkpt lat="43.035568227615336" lon="12.895794606482548"><ele>760.0</ele><time>2026-04-04T13:11:26Z</time></trkpt><trkpt lat="43.035706262849025" lon="12.895873928686138"><ele>759.6666666666667</ele><time>2026-04-04T13:11:27Z</time></trkpt><trkpt lat="43.03584413185219" lon="12.895954675070886"><ele>759.3333333333334</ele><time>2026-04-04T13:11:28Z</time></trkpt><trkpt lat="43.035985337674326" lon="12.896036229521894"><ele>759.0</ele><time>2026-04-04T13:11:29Z</time></trkpt><trkpt lat="43.03612760973229" lon="12.89611664949525"><ele>759.0</ele><time>2026-04-04T13:11:30Z</time></trkpt><trkpt lat="43.036269502594216" lon="12.896195446219048"><ele>759.0</ele><time>2026-04-04T13:11:31Z</time></trkpt><trkpt lat="43.03641326531259" lon="12.896277072942446"><ele>759.0</ele><time>2026-04-04T13:11:32Z</time></trkpt><trkpt lat="43.03656001777288" lon="12.89636156414365"><ele>758.6666666666666</ele><time>2026-04-04T13:11:33Z</time></trkpt><trkpt lat="43.0367076554406" lon="12.896443441333329"><ele>758.3333333333333</ele><time>2026-04-04T13:11:34Z</time></trkpt><trkpt lat="43.03685043422092" lon="12.896522477481934"><ele>758.0</ele><time>2026-04-04T13:11:35Z</time></trkpt><trkpt lat="43.03698866781631" lon="12.896598845907997"><ele>758.0</ele><time>2026-04-04T13:11:36Z</time></trkpt><trkpt lat="43.03712604378499" lon="12.896675497062125"><ele>758.0</ele><time>2026-04-04T13:11:37Z</time></trkpt><trkpt lat="43.03726180861503" lon="12.896753618043386"><ele>758.0</ele><time>2026-04-04T13:11:38Z</time></trkpt><trkpt lat="43.037395449915095" lon="12.896829097737598"><ele>758.0</ele><time>2026-04-04T13:11:39Z</time></trkpt><trkpt lat="43.03753319827398" lon="12.896902101951245"><ele>757.3333333333333</ele><time>2026-04-04T13:11:40Z</time></trkpt><trkpt lat="43.037675258826454" lon="12.896974881129223"><ele>756.6666666666666</ele><time>2026-04-04T13:11:41Z</time></trkpt><trkpt lat="43.037817359921235" lon="12.897048523207486"><ele>756.0</ele><time>2026-04-04T13:11:42Z</time></trkpt><trkpt lat="43.03796111103588" lon="12.897122347504787"><ele>756.0</ele><time>2026-04-04T13:11:43Z</time></trkpt><trkpt lat="43.03810524425682" lon="12.897195327954408"><ele>756.0</ele><time>2026-04-04T13:11:44Z</time></trkpt><trkpt lat="43.03824800003502" lon="12.897264926855504"><ele>756.0</ele><time>2026-04-04T13:11:45Z</time></trkpt><trkpt lat="43.038392851544266" lon="12.897334241695065"><ele>757.0</ele><time>2026-04-04T13:11:46Z</time></trkpt><trkpt lat="43.03853778915261" lon="12.89740558574706"><ele>758.0</ele><time>2026-04-04T13:11:47Z</time></trkpt><trkpt lat="43.03868287361226" lon="12.897473380045824"><ele>759.0</ele><time>2026-04-04T13:11:48Z</time></trkpt><trkpt lat="43.03883013318916" lon="12.897537556017149"><ele>758.6666666666666</ele><time>2026-04-04T13:11:49Z</time></trkpt><trkpt lat="43.03897867258405" lon="12.897591909346668"><ele>758.3333333333333</ele><time>2026-04-04T13:11:50Z</time></trkpt><trkpt lat="43.039128030289234" lon="12.897643755673906"><ele>758.0</ele><time>2026-04-04T13:11:51Z</time></trkpt><trkpt lat="43.03928051541668" lon="12.897692107048133"><ele>757.3333333333333</ele><time>2026-04-04T13:11:52Z</time></trkpt><trkpt lat="43.03943482251156" lon="12.897739257407732"><ele>756.6666666666666</ele><time>2026-04-04T13:11:53Z</time></trkpt><trkpt lat="43.03958994403479" lon="12.897789170284039"><ele>756.0</ele><time>2026-04-04T13:11:54Z</time></trkpt><trkpt lat="43.03975023596846" lon="12.89783953203801"><ele>756.0</ele><time>2026-04-04T13:11:55Z</time></trkpt><trkpt lat="43.039917332237785" lon="12.89789099607085"><ele>756.0</ele><time>2026-04-04T13:11:56.001Z</time></trkpt><trkpt lat="43.0400908189555" lon="12.89794353036914"><ele>756.0</ele><time>2026-04-04T13:11:57.001Z</time></trkpt><trkpt lat="43.04026604424159" lon="12.897992394828938"><ele>755.3333333333334</ele><time>2026-04-04T13:11:58.001Z</time></trkpt><trkpt lat="43.04044275763244" lon="12.898031507256835"><ele>754.6666666666667</ele><time>2026-04-04T13:11:59.001Z</time></trkpt><trkpt lat="43.040623580374465" lon="12.898051988558262"><ele>754.0</ele><time>2026-04-04T13:12:00.001Z</time></trkpt><trkpt lat="43.04080804178738" lon="12.898055420198032"><ele>754.0</ele><time>2026-04-04T13:12:01.001Z</time></trkpt><trkpt lat="43.040991770247494" lon="12.898049796368145"><ele>754.0</ele><time>2026-04-04T13:12:02.001Z</time></trkpt><trkpt lat="43.04117963782727" lon="12.898038838978788"><ele>754.0</ele><time>2026-04-04T13:12:03.001Z</time></trkpt><trkpt lat="43.0413688883425" lon="12.89802818922635"><ele>754.0</ele><time>2026-04-04T13:12:04.001Z</time></trkpt><trkpt lat="43.04155843703247" lon="12.898020347316747"><ele>754.0</ele><time>2026-04-04T13:12:05.001Z</time></trkpt><trkpt lat="43.04174885373546" lon="12.898013364849241"><ele>754.0</ele><time>2026-04-04T13:12:06.001Z</time></trkpt><trkpt lat="43.04193917291507" lon="12.898003439944006"><ele>754.0</ele><time>2026-04-04T13:12:07.001Z</time></trkpt><trkpt lat="43.04212930279073" lon="12.897986178641139"><ele>754.0</ele><time>2026-04-04T13:12:08.001Z</time></trkpt><trkpt lat="43.04231971956924" lon="12.897972257692153"><ele>754.0</ele><time>2026-04-04T13:12:09.001Z</time></trkpt><trkpt lat="43.04251183617215" lon="12.897958788539338"><ele>755.3333333333334</ele><time>2026-04-04T13:12:10.001Z</time></trkpt><trkpt lat="43.04270180590719" lon="12.897943653691902"><ele>756.6666666666666</ele><time>2026-04-04T13:12:11.001Z</time></trkpt><trkpt lat="43.042889404959936" lon="12.897930283063788"><ele>758.0</ele><time>2026-04-04T13:12:12.001Z</time></trkpt><trkpt lat="43.043070870732414" lon="12.897916660466153"><ele>758.0</ele><time>2026-04-04T13:12:13.001Z</time></trkpt><trkpt lat="43.04324494764659" lon="12.897905567791335"><ele>758.0</ele><time>2026-04-04T13:12:14.001Z</time></trkpt><trkpt lat="43.04341134856038" lon="12.89790176597643"><ele>758.0</ele><time>2026-04-04T13:12:15.001Z</time></trkpt><trkpt lat="43.04357176056333" lon="12.897910138722741"><ele>757.6666666666666</ele><time>2026-04-04T13:12:16.001Z</time></trkpt><trkpt lat="43.04372893153416" lon="12.897931588850353"><ele>757.3333333333334</ele><time>2026-04-04T13:12:17.001Z</time></trkpt><trkpt lat="43.04388346095094" lon="12.897951161917621"><ele>757.0</ele><time>2026-04-04T13:12:18.001Z</time></trkpt><trkpt lat="43.044035186336195" lon="12.897968997840627"><ele>758.25</ele><time>2026-04-04T13:12:19.001Z</time></trkpt><trkpt lat="43.044182572298105" lon="12.897987839336285"><ele>759.5</ele><time>2026-04-04T13:12:20.001Z</time></trkpt><trkpt lat="43.04432723776706" lon="12.898015811503779"><ele>760.75</ele><time>2026-04-04T13:12:21Z</time></trkpt><trkpt lat="43.044453794072595" lon="12.89804195840231"><ele>762.0</ele><time>2026-04-04T13:12:22Z</time></trkpt><trkpt lat="43.04457442305446" lon="12.898067594847388"><ele>762.0</ele><time>2026-04-04T13:12:23Z</time></trkpt><trkpt lat="43.04469269820574" lon="12.898102449333894"><ele>762.0</ele><time>2026-04-04T13:12:24Z</time></trkpt><trkpt lat="43.04478913760419" lon="12.898175943134747"><ele>762.0</ele><time>2026-04-04T13:12:25Z</time></trkpt><trkpt lat="43.04487869848205" lon="12.898237432184667"><ele>762.0</ele><time>2026-04-04T13:12:26Z</time></trkpt><trkpt lat="43.04495110797493" lon="12.89829502824176"><ele>762.0</ele><time>2026-04-04T13:12:27Z</time></trkpt><trkpt lat="43.04500780664394" lon="12.898342332759992"><ele>762.6</ele><time>2026-04-04T13:12:28Z</time></trkpt><trkpt lat="43.04506770515027" lon="12.898400390732554"><ele>763.2</ele><time>2026-04-04T13:12:30Z</time></trkpt><trkpt lat="43.045129434431736" lon="12.898316958973712"><ele>763.8</ele><time>2026-04-04T13:12:31Z</time></trkpt><trkpt lat="43.04521998774997" lon="12.898284017801501"><ele>764.4</ele><time>2026-04-04T13:12:34Z</time></trkpt><trkpt lat="43.04531862021609" lon="12.89826113310384"><ele>765.0</ele><time>2026-04-04T13:12:36Z</time></trkpt><trkpt lat="43.04543463351648" lon="12.898214432325405"><ele>765.0</ele><time>2026-04-04T13:12:38Z</time></trkpt><trkpt lat="43.045553117176325" lon="12.898162076626042"><ele>765.0</ele><time>2026-04-04T13:12:40Z</time></trkpt><trkpt lat="43.04563024444657" lon="12.898139071595592"><ele>765.0</ele><time>2026-04-04T13:12:41Z</time></trkpt><trkpt lat="43.045714523883134" lon="12.898130465767826"><ele>765.0</ele><time>2026-04-04T13:12:42Z</time></trkpt><trkpt lat="43.045799093796695" lon="12.898123553540454"><ele>765.0</ele><time>2026-04-04T13:12:43Z</time></trkpt><trkpt lat="43.045888573181195" lon="12.898104957387744"><ele>765.6</ele><time>2026-04-04T13:12:44Z</time></trkpt><trkpt lat="43.04597617968392" lon="12.898077371140477"><ele>766.2</ele><time>2026-04-04T13:12:45Z</time></trkpt><trkpt lat="43.04607602569941" lon="12.898055970021714"><ele>766.8</ele><time>2026-04-04T13:12:46Z</time></trkpt><trkpt lat="43.046170683492555" lon="12.89802575663508"><ele>767.4</ele><time>2026-04-04T13:12:47Z</time></trkpt><trkpt lat="43.0462713489406" lon="12.897994021233789"><ele>768.0</ele><time>2026-04-04T13:12:48Z</time></trkpt><trkpt lat="43.0463652986319" lon="12.897971359971434"><ele>768.0</ele><time>2026-04-04T13:12:49Z</time></trkpt><trkpt lat="43.04647539247244" lon="12.897961551519055"><ele>768.0</ele><time>2026-04-04T13:12:50Z</time></trkpt><trkpt lat="43.046584792457075" lon="12.897958531500299"><ele>768.0</ele><time>2026-04-04T13:12:51Z</time></trkpt><trkpt lat="43.04666766594329" lon="12.897914414545902"><ele>768.0</ele><time>2026-04-04T13:12:52Z</time></trkpt><trkpt lat="43.04673480109741" lon="12.897837441776266"><ele>768.0</ele><time>2026-04-04T13:12:53Z</time></trkpt><trkpt lat="43.04678533145919" lon="12.897726953324613"><ele>767.0</ele><time>2026-04-04T13:12:54Z</time></trkpt><trkpt lat="43.046853396612185" lon="12.897592988726522"><ele>766.0</ele><time>2026-04-04T13:12:55Z</time></trkpt><trkpt lat="43.0469342289077" lon="12.897481271215545"><ele>765.0</ele><time>2026-04-04T13:12:56Z</time></trkpt><trkpt lat="43.04701440495659" lon="12.897364667086611"><ele>764.0</ele><time>2026-04-04T13:12:57Z</time></trkpt><trkpt lat="43.047084247420244" lon="12.897255065929643"><ele>766.2</ele><time>2026-04-04T13:12:58Z</time></trkpt><trkpt lat="43.047180791291495" lon="12.897208102721011"><ele>768.4000000000001</ele><time>2026-04-04T13:12:59Z</time></trkpt><trkpt lat="43.04725260982816" lon="12.897114422516779"><ele>770.6</ele><time>2026-04-04T13:13:00Z</time></trkpt><trkpt lat="43.04735247137014" lon="12.89706362697637"><ele>772.8</ele><time>2026-04-04T13:13:01Z</time></trkpt><trkpt lat="43.04745175186583" lon="12.897030499864055"><ele>775.0</ele><time>2026-04-04T13:13:02Z</time></trkpt><trkpt lat="43.04747079425752" lon="12.896857381666718"><ele>775.0</ele><time>2026-04-04T13:13:03Z</time></trkpt><trkpt lat="43.04749181766095" lon="12.896760871866567"><ele>775.0</ele><time>2026-04-04T13:13:04Z</time></trkpt><trkpt lat="43.047747759539796" lon="12.8962661762512"><ele>778.0</ele><time>2026-04-04T13:13:05Z</time></trkpt><trkpt lat="43.0478454589888" lon="12.896251414387843"><ele>781.0</ele><time>2026-04-04T13:13:06Z</time></trkpt><trkpt lat="43.04791252015099" lon="12.896238096759904"><ele>784.0</ele><time>2026-04-04T13:13:07Z</time></trkpt><trkpt lat="43.04802633394845" lon="12.896200957960913"><ele>787.0</ele><time>2026-04-04T13:13:08Z</time></trkpt><trkpt lat="43.04814800351887" lon="12.896161251667914"><ele>790.0</ele><time>2026-04-04T13:13:09Z</time></trkpt><trkpt lat="43.048272234868676" lon="12.896120710522267"><ele>790.0</ele><time>2026-04-04T13:13:10Z</time></trkpt><trkpt lat="43.04823352729487" lon="12.89605143952223"><ele>790.0</ele><time>2026-04-04T13:13:11Z</time></trkpt><trkpt lat="43.04861784640261" lon="12.896703911541163"><ele>791.0</ele><time>2026-04-04T13:13:12Z</time></trkpt><trkpt lat="43.048734069459094" lon="12.89673726231577"><ele>792.0</ele><time>2026-04-04T13:13:13Z</time></trkpt><trkpt lat="43.04884881469065" lon="12.89677097971008"><ele>793.0</ele><time>2026-04-04T13:13:14Z</time></trkpt><trkpt lat="43.048972239007036" lon="12.896787157989017"><ele>794.0</ele><time>2026-04-04T13:13:15Z</time></trkpt><trkpt lat="43.04909445458372" lon="12.896790365185325"><ele>788.25</ele><time>2026-04-04T13:13:16Z</time></trkpt><trkpt lat="43.04922502834645" lon="12.896793781771914"><ele>782.5</ele><time>2026-04-04T13:13:17Z</time></trkpt><trkpt lat="43.04935633474718" lon="12.896805513440189"><ele>776.75</ele><time>2026-04-04T13:13:18Z</time></trkpt><trkpt lat="43.049486329591076" lon="12.896817938125558"><ele>771.0</ele><time>2026-04-04T13:13:19Z</time></trkpt><trkpt lat="43.049615651830365" lon="12.896822334900719"><ele>771.0</ele><time>2026-04-04T13:13:20Z</time></trkpt><trkpt lat="43.04974677393683" lon="12.896832159465784"><ele>771.0</ele><time>2026-04-04T13:13:21Z</time></trkpt><trkpt lat="43.049874910554315" lon="12.896834152452024"><ele>771.0</ele><time>2026-04-04T13:13:22Z</time></trkpt><trkpt lat="43.050004850590554" lon="12.896847384993743"><ele>771.0</ele><time>2026-04-04T13:13:23Z</time></trkpt><trkpt lat="43.050133290513074" lon="12.896824143777947"><ele>771.25</ele><time>2026-04-04T13:13:24Z</time></trkpt><trkpt lat="43.05027098701459" lon="12.896799829290737"><ele>771.5</ele><time>2026-04-04T13:13:25Z</time></trkpt><trkpt lat="43.05040238566309" lon="12.896802024004312"><ele>771.75</ele><time>2026-04-04T13:13:26Z</time></trkpt><trkpt lat="43.05052851536101" lon="12.89681580475549"><ele>772.0</ele><time>2026-04-04T13:13:27Z</time></trkpt><trkpt lat="43.05066479637493" lon="12.896789099452324"><ele>772.25</ele><time>2026-04-04T13:13:28Z</time></trkpt><trkpt lat="43.05079632243678" lon="12.896775319853685"><ele>772.5</ele><time>2026-04-04T13:13:29Z</time></trkpt><trkpt lat="43.050931520007886" lon="12.896757639566957"><ele>772.75</ele><time>2026-04-04T13:13:30Z</time></trkpt><trkpt lat="43.051076895364915" lon="12.896720763598289"><ele>773.0</ele><time>2026-04-04T13:13:31Z</time></trkpt><trkpt lat="43.051221663561584" lon="12.896695254579425"><ele>778.5</ele><time>2026-04-04T13:13:31.999Z</time></trkpt><trkpt lat="43.051348505662915" lon="12.89666979740297"><ele>784.0</ele><time>2026-04-04T13:13:32.999Z</time></trkpt><trkpt lat="43.05148163805584" lon="12.89666293596905"><ele>789.5</ele><time>2026-04-04T13:13:33.999Z</time></trkpt><trkpt lat="43.051623596248156" lon="12.896672535248985"><ele>795.0</ele><time>2026-04-04T13:13:34.999Z</time></trkpt><trkpt lat="43.051764287651096" lon="12.896687808584183"><ele>795.0</ele><time>2026-04-04T13:13:35.999Z</time></trkpt><trkpt lat="43.05189744471878" lon="12.89670506631258"><ele>795.0</ele><time>2026-04-04T13:13:36.999Z</time></trkpt><trkpt lat="43.05202748775485" lon="12.896718691311467"><ele>795.0</ele><time>2026-04-04T13:13:37.999Z</time></trkpt><trkpt lat="43.05215575139179" lon="12.896738379212827"><ele>795.0</ele><time>2026-04-04T13:13:38.999Z</time></trkpt><trkpt lat="43.0522761812968" lon="12.896760707307966"><ele>790.25</ele><time>2026-04-04T13:13:39.999Z</time></trkpt><trkpt lat="43.05239666711279" lon="12.896778552261095"><ele>785.5</ele><time>2026-04-04T13:13:40.999Z</time></trkpt><trkpt lat="43.05252408162948" lon="12.896824325457231"><ele>780.75</ele><time>2026-04-04T13:13:41.999Z</time></trkpt><trkpt lat="43.05265375256904" lon="12.896871471900594"><ele>776.0</ele><time>2026-04-04T13:13:42.999Z</time></trkpt><trkpt lat="43.052774991478216" lon="12.89691031464536"><ele>776.0</ele><time>2026-04-04T13:13:43.999Z</time></trkpt><trkpt lat="43.05289843914177" lon="12.89696649693236"><ele>776.0</ele><time>2026-04-04T13:13:44.999Z</time></trkpt><trkpt lat="43.05302864621617" lon="12.897027345621831"><ele>776.0</ele><time>2026-04-04T13:13:45.999Z</time></trkpt><trkpt lat="43.053152909375044" lon="12.897094108924488"><ele>776.0</ele><time>2026-04-04T13:13:46.999Z</time></trkpt><trkpt lat="43.053274022647955" lon="12.897169786311705"><ele>776.25</ele><time>2026-04-04T13:13:47.999Z</time></trkpt><trkpt lat="43.053387381086075" lon="12.897254271268245"><ele>776.5</ele><time>2026-04-04T13:13:48.999Z</time></trkpt><trkpt lat="43.053493212212075" lon="12.897371369308503"><ele>776.75</ele><time>2026-04-04T13:13:49.999Z</time></trkpt><trkpt lat="43.053585598322165" lon="12.897508668107823"><ele>777.0</ele><time>2026-04-04T13:13:50.999Z</time></trkpt><trkpt lat="43.05367794522863" lon="12.897632196160547"><ele>777.0</ele><time>2026-04-04T13:13:51.999Z</time></trkpt><trkpt lat="43.053782287519084" lon="12.89775227937645"><ele>777.0</ele><time>2026-04-04T13:13:52.999Z</time></trkpt><trkpt lat="43.05389993540035" lon="12.897881432292051"><ele>777.0</ele><time>2026-04-04T13:13:53.999Z</time></trkpt><trkpt lat="43.05402893196236" lon="12.8980011288389"><ele>777.0</ele><time>2026-04-04T13:13:54.999Z</time></trkpt><trkpt lat="43.054168435548775" lon="12.898127856370966"><ele>778.3333333333333</ele><time>2026-04-04T13:13:55.999Z</time></trkpt><trkpt lat="43.05429409277659" lon="12.898254839161403"><ele>779.6666666666666</ele><time>2026-04-04T13:13:56.999Z</time></trkpt><trkpt lat="43.05440469042833" lon="12.898384238513875"><ele>781.0</ele><time>2026-04-04T13:13:57.999Z</time></trkpt><trkpt lat="43.05451706284536" lon="12.898518928109283"><ele>781.0</ele><time>2026-04-04T13:13:58.999Z</time></trkpt><trkpt lat="43.05461331931405" lon="12.898661083559386"><ele>781.0</ele><time>2026-04-04T13:13:59.999Z</time></trkpt><trkpt lat="43.0547137583255" lon="12.898816562159665"><ele>781.0</ele><time>2026-04-04T13:14:00.999Z</time></trkpt><trkpt lat="43.05480253998939" lon="12.89894896677462"><ele>781.0</ele><time>2026-04-04T13:14:02.001Z</time></trkpt><trkpt lat="43.05489147774877" lon="12.89908030258163"><ele>780.75</ele><time>2026-04-04T13:14:03.001Z</time></trkpt><trkpt lat="43.05498632547605" lon="12.899205777308545"><ele>780.5</ele><time>2026-04-04T13:14:04.001Z</time></trkpt><trkpt lat="43.05509028178238" lon="12.899327385468851"><ele>780.25</ele><time>2026-04-04T13:14:05.001Z</time></trkpt><trkpt lat="43.05519872173706" lon="12.899463884099323"><ele>780.0</ele><time>2026-04-04T13:14:06.001Z</time></trkpt><trkpt lat="43.055285399365495" lon="12.899607920819054"><ele>780.0</ele><time>2026-04-04T13:14:07.001Z</time></trkpt><trkpt lat="43.055339822255235" lon="12.899719539191695"><ele>780.0</ele><time>2026-04-04T13:14:08.001Z</time></trkpt><trkpt lat="43.05538642370737" lon="12.899851208459333"><ele>780.0</ele><time>2026-04-04T13:14:09.001Z</time></trkpt><trkpt lat="43.055400820650426" lon="12.900001424886902"><ele>780.0</ele><time>2026-04-04T13:14:10.001Z</time></trkpt><trkpt lat="43.05539736318112" lon="12.90013617119273"><ele>780.0</ele><time>2026-04-04T13:14:11.001Z</time></trkpt><trkpt lat="43.05537420545783" lon="12.900300253601486"><ele>780.1666666666666</ele><time>2026-04-04T13:14:12.001Z</time></trkpt><trkpt lat="43.05532784227586" lon="12.90037939651043"><ele>780.3333333333333</ele><time>2026-04-04T13:14:13.001Z</time></trkpt><trkpt lat="43.055287275535" lon="12.90046256360838"><ele>780.5</ele><time>2026-04-04T13:14:16.001Z</time></trkpt><trkpt lat="43.05535779072009" lon="12.9005331855554"><ele>780.6666666666666</ele><time>2026-04-04T13:14:19Z</time></trkpt><trkpt lat="43.055450853096914" lon="12.900464216951814"><ele>780.8333333333333</ele><time>2026-04-04T13:14:21Z</time></trkpt><trkpt lat="43.05554102682143" lon="12.900385635131425"><ele>781.0</ele><time>2026-04-04T13:14:23Z</time></trkpt><trkpt lat="43.05561239661825" lon="12.900408585866394"><ele>781.0</ele><time>2026-04-04T13:14:24Z</time></trkpt><trkpt lat="43.05570102843993" lon="12.900445701888074"><ele>781.0</ele><time>2026-04-04T13:14:25Z</time></trkpt><trkpt lat="43.05579969189282" lon="12.900469735653232"><ele>781.0</ele><time>2026-04-04T13:14:26Z</time></trkpt><trkpt lat="43.05591082936895" lon="12.900470744618266"><ele>781.0</ele><time>2026-04-04T13:14:27Z</time></trkpt><trkpt lat="43.056037736860134" lon="12.9004716061328"><ele>781.0</ele><time>2026-04-04T13:14:28Z</time></trkpt><trkpt lat="43.05616604237457" lon="12.900475452892618"><ele>784.0</ele><time>2026-04-04T13:14:29Z</time></trkpt><trkpt lat="43.05630080931118" lon="12.900478071786633"><ele>787.0</ele><time>2026-04-04T13:14:30Z</time></trkpt><trkpt lat="43.056434863075154" lon="12.900468358681248"><ele>790.0</ele><time>2026-04-04T13:14:31Z</time></trkpt><trkpt lat="43.05657745689239" lon="12.90044129422511"><ele>793.0</ele><time>2026-04-04T13:14:32Z</time></trkpt><trkpt lat="43.056705393832516" lon="12.900423198745981"><ele>796.25</ele><time>2026-04-04T13:14:33Z</time></trkpt><trkpt lat="43.05682890951533" lon="12.90041209966509"><ele>799.5</ele><time>2026-04-04T13:14:34Z</time></trkpt><trkpt lat="43.05694282861831" lon="12.900408860552574"><ele>802.75</ele><time>2026-04-04T13:14:35Z</time></trkpt><trkpt lat="43.05706303030612" lon="12.900410774920744"><ele>806.0</ele><time>2026-04-04T13:14:36Z</time></trkpt><trkpt lat="43.05717936986817" lon="12.900417408396743"><ele>806.0</ele><time>2026-04-04T13:14:37Z</time></trkpt><trkpt lat="43.057292916076136" lon="12.900413083862079"><ele>806.0</ele><time>2026-04-04T13:14:38Z</time></trkpt><trkpt lat="43.05739550145288" lon="12.9003885243255"><ele>806.0</ele><time>2026-04-04T13:14:39Z</time></trkpt><trkpt lat="43.057488058090314" lon="12.900363631284781"><ele>806.0</ele><time>2026-04-04T13:14:40Z</time></trkpt><trkpt lat="43.057571829095195" lon="12.900320002639614"><ele>806.0</ele><time>2026-04-04T13:14:41Z</time></trkpt><trkpt lat="43.05766592079329" lon="12.9002721207897"><ele>807.8</ele><time>2026-04-04T13:14:42Z</time></trkpt><trkpt lat="43.05777167872772" lon="12.900239808849578"><ele>809.5999999999999</ele><time>2026-04-04T13:14:43Z</time></trkpt><trkpt lat="43.05787669997319" lon="12.900239376633962"><ele>811.4</ele><time>2026-04-04T13:14:44Z</time></trkpt><trkpt lat="43.05798895012936" lon="12.900253882861172"><ele>813.2</ele><time>2026-04-04T13:14:45Z</time></trkpt><trkpt lat="43.05810546441681" lon="12.900255726217766"><ele>815.0</ele><time>2026-04-04T13:14:46Z</time></trkpt><trkpt lat="43.05820656222529" lon="12.90025345286988"><ele>816.4</ele><time>2026-04-04T13:14:47Z</time></trkpt><trkpt lat="43.05832182221426" lon="12.900243498485011"><ele>817.8</ele><time>2026-04-04T13:14:48Z</time></trkpt><trkpt lat="43.05842169267551" lon="12.900210763498006"><ele>819.2</ele><time>2026-04-04T13:14:49Z</time></trkpt><trkpt lat="43.058524071287515" lon="12.900179328099782"><ele>820.6</ele><time>2026-04-04T13:14:50Z</time></trkpt><trkpt lat="43.05864102079122" lon="12.900144343271737"><ele>822.0</ele><time>2026-04-04T13:14:51Z</time></trkpt><trkpt lat="43.05875709113124" lon="12.900108053282331"><ele>824.75</ele><time>2026-04-04T13:14:52Z</time></trkpt><trkpt lat="43.05888234793225" lon="12.900075136802212"><ele>827.5</ele><time>2026-04-04T13:14:53Z</time></trkpt><trkpt lat="43.059007803253145" lon="12.900044784310841"><ele>830.25</ele><time>2026-04-04T13:14:54Z</time></trkpt><trkpt lat="43.059133237883024" lon="12.90001060704731"><ele>833.0</ele><time>2026-04-04T13:14:55Z</time></trkpt><trkpt lat="43.05925483408813" lon="12.899986101193345"><ele>834.75</ele><time>2026-04-04T13:14:56Z</time></trkpt><trkpt lat="43.059388075197916" lon="12.899977496307244"><ele>836.5</ele><time>2026-04-04T13:14:57Z</time></trkpt><trkpt lat="43.05951445500053" lon="12.899966370728295"><ele>838.25</ele><time>2026-04-04T13:14:58Z</time></trkpt><trkpt lat="43.05963673562989" lon="12.899951067348352"><ele>840.0</ele><time>2026-04-04T13:14:59Z</time></trkpt><trkpt lat="43.05975310716284" lon="12.899940210893938"><ele>840.0</ele><time>2026-04-04T13:15:00Z</time></trkpt><trkpt lat="43.059881021515515" lon="12.899944379922168"><ele>840.0</ele><time>2026-04-04T13:15:01Z</time></trkpt><trkpt lat="43.0599981124286" lon="12.899930691827208"><ele>840.0</ele><time>2026-04-04T13:15:02Z</time></trkpt><trkpt lat="43.06011490645614" lon="12.89993010001127"><ele>840.0</ele><time>2026-04-04T13:15:03Z</time></trkpt><trkpt lat="43.060233393821434" lon="12.899920436554865"><ele>841.5</ele><time>2026-04-04T13:15:04Z</time></trkpt><trkpt lat="43.06035396885256" lon="12.899913733783244"><ele>843.0</ele><time>2026-04-04T13:15:05Z</time></trkpt><trkpt lat="43.06046963252376" lon="12.899916996781187"><ele>844.5</ele><time>2026-04-04T13:15:06Z</time></trkpt><trkpt lat="43.06059199406446" lon="12.899912256900025"><ele>846.0</ele><time>2026-04-04T13:15:07Z</time></trkpt><trkpt lat="43.060716657186774" lon="12.899899506412789"><ele>848.0</ele><time>2026-04-04T13:15:08Z</time></trkpt><trkpt lat="43.06085186936051" lon="12.899878923610212"><ele>850.0</ele><time>2026-04-04T13:15:09Z</time></trkpt><trkpt lat="43.060964658038905" lon="12.899884478568367"><ele>852.0</ele><time>2026-04-04T13:15:10Z</time></trkpt><trkpt lat="43.06108740589951" lon="12.899887512489407"><ele>854.0</ele><time>2026-04-04T13:15:11Z</time></trkpt><trkpt lat="43.06121052321693" lon="12.899889885793309"><ele>854.0</ele><time>2026-04-04T13:15:12Z</time></trkpt><trkpt lat="43.06133333486155" lon="12.89989730943271"><ele>854.0</ele><time>2026-04-04T13:15:13Z</time></trkpt><trkpt lat="43.061456401555674" lon="12.899897019000514"><ele>854.0</ele><time>2026-04-04T13:15:14Z</time></trkpt><trkpt lat="43.0615803441343" lon="12.899898598839224"><ele>854.0</ele><time>2026-04-04T13:15:15Z</time></trkpt><trkpt lat="43.06170175536201" lon="12.89987932924658"><ele>856.25</ele><time>2026-04-04T13:15:16Z</time></trkpt><trkpt lat="43.06182505793539" lon="12.899849653718334"><ele>858.5</ele><time>2026-04-04T13:15:17Z</time></trkpt><trkpt lat="43.061949202317074" lon="12.899809116394"><ele>860.75</ele><time>2026-04-04T13:15:18Z</time></trkpt><trkpt lat="43.06208485570549" lon="12.899776858983483"><ele>863.0</ele><time>2026-04-04T13:15:19Z</time></trkpt><trkpt lat="43.0622088524194" lon="12.899767726302917"><ele>863.0</ele><time>2026-04-04T13:15:20Z</time></trkpt><trkpt lat="43.06233845165746" lon="12.899739869180436"><ele>863.0</ele><time>2026-04-04T13:15:21Z</time></trkpt><trkpt lat="43.06245856524365" lon="12.899717815865335"><ele>863.0</ele><time>2026-04-04T13:15:22Z</time></trkpt><trkpt lat="43.06258796678674" lon="12.899685267491177"><ele>863.0</ele><time>2026-04-04T13:15:23Z</time></trkpt><trkpt lat="43.062716248965565" lon="12.899647148587842"><ele>863.75</ele><time>2026-04-04T13:15:24Z</time></trkpt><trkpt lat="43.06284370157454" lon="12.899610933854815"><ele>864.5</ele><time>2026-04-04T13:15:25Z</time></trkpt><trkpt lat="43.06295747374249" lon="12.899590710546507"><ele>865.25</ele><time>2026-04-04T13:15:26Z</time></trkpt><trkpt lat="43.063081539811364" lon="12.899555899293434"><ele>866.0</ele><time>2026-04-04T13:15:27Z</time></trkpt><trkpt lat="43.063204849439906" lon="12.899522943985358"><ele>864.75</ele><time>2026-04-04T13:15:28Z</time></trkpt><trkpt lat="43.063327508773774" lon="12.899474038200514"><ele>863.5</ele><time>2026-04-04T13:15:29Z</time></trkpt><trkpt lat="43.06345198382419" lon="12.899429308799794"><ele>862.25</ele><time>2026-04-04T13:15:30Z</time></trkpt><trkpt lat="43.06358069352449" lon="12.899385050987176"><ele>861.0</ele><time>2026-04-04T13:15:31Z</time></trkpt><trkpt lat="43.063695618051995" lon="12.899359748236856"><ele>861.0</ele><time>2026-04-04T13:15:32Z</time></trkpt><trkpt lat="43.06381561376949" lon="12.899323177453148"><ele>861.0</ele><time>2026-04-04T13:15:33Z</time></trkpt><trkpt lat="43.06393203604172" lon="12.899267110304777"><ele>861.0</ele><time>2026-04-04T13:15:34Z</time></trkpt><trkpt lat="43.06404120024641" lon="12.899222010005568"><ele>861.0</ele><time>2026-04-04T13:15:35Z</time></trkpt><trkpt lat="43.06414779283322" lon="12.899159765958899"><ele>869.0</ele><time>2026-04-04T13:15:36Z</time></trkpt><trkpt lat="43.06425352542997" lon="12.89907018667757"><ele>877.0</ele><time>2026-04-04T13:15:37Z</time></trkpt><trkpt lat="43.064333028271854" lon="12.898969515642484"><ele>885.0</ele><time>2026-04-04T13:15:38Z</time></trkpt><trkpt lat="43.06442297578096" lon="12.89889815751342"><ele>893.0</ele><time>2026-04-04T13:15:39Z</time></trkpt><trkpt lat="43.06454791133635" lon="12.89888284844616"><ele>893.0</ele><time>2026-04-04T13:15:40Z</time></trkpt><trkpt lat="43.06467006766782" lon="12.898903273255344"><ele>893.0</ele><time>2026-04-04T13:15:41Z</time></trkpt><trkpt lat="43.06477903717831" lon="12.898915953211953"><ele>893.0</ele><time>2026-04-04T13:15:42Z</time></trkpt><trkpt lat="43.064878678560795" lon="12.898920311953095"><ele>893.0</ele><time>2026-04-04T13:15:42.999Z</time></trkpt><trkpt lat="43.064995972726344" lon="12.898886017138222"><ele>891.75</ele><time>2026-04-04T13:15:43.999Z</time></trkpt><trkpt lat="43.06511624377138" lon="12.898830046648712"><ele>890.5</ele><time>2026-04-04T13:15:44.999Z</time></trkpt><trkpt lat="43.065223249979866" lon="12.898788314891153"><ele>889.25</ele><time>2026-04-04T13:15:45.999Z</time></trkpt><trkpt lat="43.06531709747375" lon="12.898733215335335"><ele>888.0</ele><time>2026-04-04T13:15:46.999Z</time></trkpt><trkpt lat="43.065412640462" lon="12.898650435335906"><ele>888.0</ele><time>2026-04-04T13:15:47.999Z</time></trkpt><trkpt lat="43.065492172935876" lon="12.898557898681286"><ele>888.0</ele><time>2026-04-04T13:15:48.999Z</time></trkpt><trkpt lat="43.06555590394471" lon="12.898433254289545"><ele>888.0</ele><time>2026-04-04T13:15:49.999Z</time></trkpt><trkpt lat="43.065636487199626" lon="12.89829686189686"><ele>888.0</ele><time>2026-04-04T13:15:50.999Z</time></trkpt><trkpt lat="43.065709094318755" lon="12.898197609052435"><ele>888.0</ele><time>2026-04-04T13:15:51.999Z</time></trkpt><trkpt lat="43.06577875491001" lon="12.898133048604217"><ele>893.5</ele><time>2026-04-04T13:15:52.999Z</time></trkpt><trkpt lat="43.06590467517628" lon="12.898111407303137"><ele>899.0</ele><time>2026-04-04T13:15:53.999Z</time></trkpt><trkpt lat="43.0660433601803" lon="12.898129479030246"><ele>904.5</ele><time>2026-04-04T13:15:54.999Z</time></trkpt><trkpt lat="43.066148792028116" lon="12.898141751380985"><ele>910.0</ele><time>2026-04-04T13:15:55.999Z</time></trkpt><trkpt lat="43.066262379733644" lon="12.898110357427774"><ele>910.0</ele><time>2026-04-04T13:15:56.999Z</time></trkpt><trkpt lat="43.0663619206075" lon="12.898073742062337"><ele>910.0</ele><time>2026-04-04T13:15:57.999Z</time></trkpt><trkpt lat="43.06647615294426" lon="12.898061713652385"><ele>910.0</ele><time>2026-04-04T13:15:58.999Z</time></trkpt><trkpt lat="43.06658856902368" lon="12.8980506171988"><ele>910.0</ele><time>2026-04-04T13:15:59.999Z</time></trkpt><trkpt lat="43.06669411005991" lon="12.897994718646116"><ele>910.0</ele><time>2026-04-04T13:16:00.999Z</time></trkpt><trkpt lat="43.06680903543126" lon="12.897947620024043"><ele>909.75</ele><time>2026-04-04T13:16:01.999Z</time></trkpt><trkpt lat="43.066948669489186" lon="12.897876641832267"><ele>909.5</ele><time>2026-04-04T13:16:02.999Z</time></trkpt><trkpt lat="43.0670813331691" lon="12.897822548394602"><ele>909.25</ele><time>2026-04-04T13:16:03.999Z</time></trkpt><trkpt lat="43.06719936929426" lon="12.897720678786005"><ele>909.0</ele><time>2026-04-04T13:16:04.999Z</time></trkpt><trkpt lat="43.067313219869476" lon="12.89761990579515"><ele>915.0</ele><time>2026-04-04T13:16:05.999Z</time></trkpt><trkpt lat="43.067425420495184" lon="12.897511142464925"><ele>921.0</ele><time>2026-04-04T13:16:06.999Z</time></trkpt><trkpt lat="43.06754173196072" lon="12.897414623714095"><ele>927.0</ele><time>2026-04-04T13:16:08.001Z</time></trkpt><trkpt lat="43.06766094786279" lon="12.897325763835616"><ele>933.0</ele><time>2026-04-04T13:16:09.001Z</time></trkpt><trkpt lat="43.067780146247316" lon="12.897240834768809"><ele>933.0</ele><time>2026-04-04T13:16:10.001Z</time></trkpt><trkpt lat="43.06789569871326" lon="12.897173002614307"><ele>933.0</ele><time>2026-04-04T13:16:11.001Z</time></trkpt><trkpt lat="43.06800485689423" lon="12.897095729475488"><ele>933.0</ele><time>2026-04-04T13:16:12.001Z</time></trkpt><trkpt lat="43.068118776541546" lon="12.897017046504882"><ele>933.0</ele><time>2026-04-04T13:16:13.001Z</time></trkpt><trkpt lat="43.06822674173349" lon="12.896932628061117"><ele>929.25</ele><time>2026-04-04T13:16:14.001Z</time></trkpt><trkpt lat="43.06833665475628" lon="12.896822952349288"><ele>925.5</ele><time>2026-04-04T13:16:15.001Z</time></trkpt><trkpt lat="43.06845981072747" lon="12.896696649705065"><ele>921.75</ele><time>2026-04-04T13:16:16.001Z</time></trkpt><trkpt lat="43.06857955543473" lon="12.896627406512033"><ele>918.0</ele><time>2026-04-04T13:16:17.001Z</time></trkpt><trkpt lat="43.06870681256003" lon="12.896571141607243"><ele>923.25</ele><time>2026-04-04T13:16:18.001Z</time></trkpt><trkpt lat="43.06882682950517" lon="12.89651549560599"><ele>928.5</ele><time>2026-04-04T13:16:19.001Z</time></trkpt><trkpt lat="43.068947392992904" lon="12.896450034061111"><ele>933.75</ele><time>2026-04-04T13:16:20.001Z</time></trkpt><trkpt lat="43.069063089999474" lon="12.89640092125532"><ele>939.0</ele><time>2026-04-04T13:16:21.001Z</time></trkpt><trkpt lat="43.06918201177658" lon="12.896329060506421"><ele>939.0</ele><time>2026-04-04T13:16:22.001Z</time></trkpt><trkpt lat="43.06930434129293" lon="12.896250203033361"><ele>939.0</ele><time>2026-04-04T13:16:23.001Z</time></trkpt><trkpt lat="43.06943254481352" lon="12.896202392943268"><ele>939.0</ele><time>2026-04-04T13:16:24.001Z</time></trkpt><trkpt lat="43.06956761035845" lon="12.896157216546015"><ele>939.0</ele><time>2026-04-04T13:16:25.001Z</time></trkpt><trkpt lat="43.0696967704332" lon="12.8961217833828"><ele>939.0</ele><time>2026-04-04T13:16:26.001Z</time></trkpt><trkpt lat="43.06982772289735" lon="12.896105875699938"><ele>939.0</ele><time>2026-04-04T13:16:27Z</time></trkpt><trkpt lat="43.069952006311304" lon="12.89607467887639"><ele>939.0</ele><time>2026-04-04T13:16:28Z</time></trkpt><trkpt lat="43.07008672012369" lon="12.896022301201036"><ele>939.0</ele><time>2026-04-04T13:16:29Z</time></trkpt><trkpt lat="43.070214344934485" lon="12.895980766857683"><ele>937.5</ele><time>2026-04-04T13:16:30Z</time></trkpt><trkpt lat="43.070353728085564" lon="12.895943704391433"><ele>936.0</ele><time>2026-04-04T13:16:31Z</time></trkpt><trkpt lat="43.07049115335476" lon="12.895941415809506"><ele>934.5</ele><time>2026-04-04T13:16:32Z</time></trkpt><trkpt lat="43.07062759928039" lon="12.89586947691059"><ele>933.0</ele><time>2026-04-04T13:16:33Z</time></trkpt><trkpt lat="43.07075056925593" lon="12.895777470426003"><ele>939.75</ele><time>2026-04-04T13:16:34Z</time></trkpt><trkpt lat="43.07086204832882" lon="12.895696798582485"><ele>946.5</ele><time>2026-04-04T13:16:35Z</time></trkpt><trkpt lat="43.070983982479" lon="12.89562304613316"><ele>953.25</ele><time>2026-04-04T13:16:36Z</time></trkpt><trkpt lat="43.07110572624372" lon="12.895540504889196"><ele>960.0</ele><time>2026-04-04T13:16:37Z</time></trkpt><trkpt lat="43.07123865887611" lon="12.895470177710012"><ele>960.0</ele><time>2026-04-04T13:16:38Z</time></trkpt><trkpt lat="43.07136965507189" lon="12.895407368112712"><ele>960.0</ele><time>2026-04-04T13:16:39Z</time></trkpt><trkpt lat="43.071476488430825" lon="12.895333342444093"><ele>960.0</ele><time>2026-04-04T13:16:40Z</time></trkpt><trkpt lat="43.07157504924317" lon="12.89525977259067"><ele>960.0</ele><time>2026-04-04T13:16:41Z</time></trkpt><trkpt lat="43.07166092904538" lon="12.89516061646565"><ele>969.5</ele><time>2026-04-04T13:16:42Z</time></trkpt><trkpt lat="43.0717566962452" lon="12.895048315842836"><ele>979.0</ele><time>2026-04-04T13:16:43Z</time></trkpt><trkpt lat="43.071878716481116" lon="12.894974587955259"><ele>988.5</ele><time>2026-04-04T13:16:44Z</time></trkpt><trkpt lat="43.071996960101686" lon="12.894925170795906"><ele>998.0</ele><time>2026-04-04T13:16:45Z</time></trkpt><trkpt lat="43.072106563568504" lon="12.894924939714357"><ele>998.0</ele><time>2026-04-04T13:16:46Z</time></trkpt><trkpt lat="43.07221422667212" lon="12.8949443372052"><ele>998.0</ele><time>2026-04-04T13:16:47Z</time></trkpt><trkpt lat="43.072319805730665" lon="12.89500312240392"><ele>998.0</ele><time>2026-04-04T13:16:48Z</time></trkpt><trkpt lat="43.072433590275985" lon="12.895027801820216"><ele>998.0</ele><time>2026-04-04T13:16:49Z</time></trkpt><trkpt lat="43.072533278721814" lon="12.895047161668321"><ele>998.0</ele><time>2026-04-04T13:16:50Z</time></trkpt><trkpt lat="43.07263370134414" lon="12.895102731568448"><ele>998.0</ele><time>2026-04-04T13:16:51Z</time></trkpt><trkpt lat="43.07274232487935" lon="12.895084586788078"><ele>998.0</ele><time>2026-04-04T13:16:52Z</time></trkpt><trkpt lat="43.07284411027048" lon="12.89510418987911"><ele>998.0</ele><time>2026-04-04T13:16:53Z</time></trkpt><trkpt lat="43.0729669155355" lon="12.895111681563883"><ele>998.0</ele><time>2026-04-04T13:16:54Z</time></trkpt><trkpt lat="43.07308450183567" lon="12.895123832664723"><ele>998.0</ele><time>2026-04-04T13:16:55Z</time></trkpt><trkpt lat="43.0732195538017" lon="12.89508263439601"><ele>998.0</ele><time>2026-04-04T13:16:56Z</time></trkpt><trkpt lat="43.07334272950899" lon="12.895073315229418"><ele>998.0</ele><time>2026-04-04T13:16:57Z</time></trkpt><trkpt lat="43.07346003382134" lon="12.895059522616185"><ele>998.0</ele><time>2026-04-04T13:16:58Z</time></trkpt><trkpt lat="43.073585783015304" lon="12.895059376647042"><ele>998.75</ele><time>2026-04-04T13:16:59Z</time></trkpt><trkpt lat="43.073703270390276" lon="12.895050272630149"><ele>999.5</ele><time>2026-04-04T13:17:00Z</time></trkpt><trkpt lat="43.073813478219165" lon="12.8950261702353"><ele>1000.25</ele><time>2026-04-04T13:17:01Z</time></trkpt><trkpt lat="43.07393160174763" lon="12.894986441110905"><ele>1001.0</ele><time>2026-04-04T13:17:02Z</time></trkpt><trkpt lat="43.07404433256503" lon="12.894938612577944"><ele>1001.25</ele><time>2026-04-04T13:17:03Z</time></trkpt><trkpt lat="43.0741637554577" lon="12.894889893889802"><ele>1001.5</ele><time>2026-04-04T13:17:04Z</time></trkpt><trkpt lat="43.07427176933069" lon="12.894820911874696"><ele>1001.75</ele><time>2026-04-04T13:17:05Z</time></trkpt><trkpt lat="43.07437587416623" lon="12.894724767314235"><ele>1002.0</ele><time>2026-04-04T13:17:06Z</time></trkpt><trkpt lat="43.07447530991727" lon="12.894642141936414"><ele>1002.0</ele><time>2026-04-04T13:17:07Z</time></trkpt><trkpt lat="43.07456445824553" lon="12.894567323238103"><ele>1002.0</ele><time>2026-04-04T13:17:08Z</time></trkpt><trkpt lat="43.07465283692704" lon="12.894513651947738"><ele>1002.0</ele><time>2026-04-04T13:17:09Z</time></trkpt><trkpt lat="43.074744553810625" lon="12.894454415485535"><ele>1002.0</ele><time>2026-04-04T13:17:10Z</time></trkpt><trkpt lat="43.07480419959758" lon="12.89439157595659"><ele>1002.0</ele><time>2026-04-04T13:17:11Z</time></trkpt><trkpt lat="43.074857504548596" lon="12.894275654922014"><ele>1005.25</ele><time>2026-04-04T13:17:12Z</time></trkpt><trkpt lat="43.07493041479444" lon="12.894196084980775"><ele>1008.5</ele><time>2026-04-04T13:17:13Z</time></trkpt><trkpt lat="43.07501238268583" lon="12.894087232748948"><ele>1011.75</ele><time>2026-04-04T13:17:14Z</time></trkpt><trkpt lat="43.07510872169379" lon="12.893935370840794"><ele>1015.0</ele><time>2026-04-04T13:17:15Z</time></trkpt><trkpt lat="43.07518597944042" lon="12.893825638654155"><ele>1015.0</ele><time>2026-04-04T13:17:16Z</time></trkpt><trkpt lat="43.07527099459983" lon="12.893700884976155"><ele>1015.0</ele><time>2026-04-04T13:17:17Z</time></trkpt><trkpt lat="43.07536784731926" lon="12.893627077798866"><ele>1015.0</ele><time>2026-04-04T13:17:18Z</time></trkpt><trkpt lat="43.07546511764824" lon="12.893581836241477"><ele>1015.0</ele><time>2026-04-04T13:17:19Z</time></trkpt><trkpt lat="43.07556541705668" lon="12.893558659975659"><ele>1015.0</ele><time>2026-04-04T13:17:20Z</time></trkpt><trkpt lat="43.07564405363938" lon="12.893561570660383"><ele>1015.0</ele><time>2026-04-04T13:17:21Z</time></trkpt><trkpt lat="43.075768086653" lon="12.893594989721066"><ele>1015.0</ele><time>2026-04-04T13:17:21.999Z</time></trkpt><trkpt lat="43.075851157575144" lon="12.893669625006371"><ele>1015.0</ele><time>2026-04-04T13:17:22.999Z</time></trkpt><trkpt lat="43.075907230765196" lon="12.893796568511661"><ele>1015.0</ele><time>2026-04-04T13:17:23.999Z</time></trkpt><trkpt lat="43.075994539786265" lon="12.893934287966767"><ele>1018.0</ele><time>2026-04-04T13:17:24.999Z</time></trkpt><trkpt lat="43.07609450702877" lon="12.894072300722929"><ele>1021.0</ele><time>2026-04-04T13:17:25.999Z</time></trkpt><trkpt lat="43.07620819486475" lon="12.89420734478427"><ele>1024.0</ele><time>2026-04-04T13:17:26.999Z</time></trkpt><trkpt lat="43.076313589592885" lon="12.89428458594374"><ele>1027.0</ele><time>2026-04-04T13:17:27.999Z</time></trkpt><trkpt lat="43.07642634129248" lon="12.894333996580928"><ele>1026.75</ele><time>2026-04-04T13:17:28.999Z</time></trkpt><trkpt lat="43.076537849527654" lon="12.894373886910417"><ele>1026.5</ele><time>2026-04-04T13:17:29.999Z</time></trkpt><trkpt lat="43.07664334301947" lon="12.894464307484085"><ele>1026.25</ele><time>2026-04-04T13:17:30.999Z</time></trkpt><trkpt lat="43.07675473473573" lon="12.894590523765643"><ele>1026.0</ele><time>2026-04-04T13:17:31.999Z</time></trkpt><trkpt lat="43.07685386609522" lon="12.894652206462395"><ele>1026.0</ele><time>2026-04-04T13:17:32.999Z</time></trkpt><trkpt lat="43.076955258366" lon="12.894660889654801"><ele>1026.0</ele><time>2026-04-04T13:17:33.999Z</time></trkpt><trkpt lat="43.0770600450287" lon="12.89480054703468"><ele>1026.0</ele><time>2026-04-04T13:17:34.999Z</time></trkpt><trkpt lat="43.07715283575714" lon="12.894890564653018"><ele>1026.0</ele><time>2026-04-04T13:17:35.999Z</time></trkpt><trkpt lat="43.07722109057055" lon="12.894990935579282"><ele>1026.0</ele><time>2026-04-04T13:17:36.999Z</time></trkpt><trkpt lat="43.07730470208219" lon="12.895063932104815"><ele>1026.0</ele><time>2026-04-04T13:17:37.999Z</time></trkpt><trkpt lat="43.07738805594283" lon="12.895121827185132"><ele>1026.0</ele><time>2026-04-04T13:17:38.999Z</time></trkpt><trkpt lat="43.07748309257754" lon="12.895141579109637"><ele>1026.0</ele><time>2026-04-04T13:17:39.999Z</time></trkpt><trkpt lat="43.077587854176045" lon="12.895140995448623"><ele>1026.0</ele><time>2026-04-04T13:17:40.999Z</time></trkpt><trkpt lat="43.0776885532886" lon="12.89517549252757"><ele>1024.75</ele><time>2026-04-04T13:17:41.999Z</time></trkpt><trkpt lat="43.0778079400172" lon="12.895191601814346"><ele>1023.5</ele><time>2026-04-04T13:17:42.999Z</time></trkpt><trkpt lat="43.077949104937034" lon="12.895206431449123"><ele>1022.25</ele><time>2026-04-04T13:17:43.999Z</time></trkpt><trkpt lat="43.07807807828523" lon="12.895217192559135"><ele>1021.0</ele><time>2026-04-04T13:17:44.999Z</time></trkpt><trkpt lat="43.078204369901435" lon="12.895240275827804"><ele>1025.75</ele><time>2026-04-04T13:17:45.999Z</time></trkpt><trkpt lat="43.07833109416394" lon="12.895254016097182"><ele>1030.5</ele><time>2026-04-04T13:17:46.999Z</time></trkpt><trkpt lat="43.07848373779043" lon="12.895316931989806"><ele>1035.25</ele><time>2026-04-04T13:17:47.999Z</time></trkpt><trkpt lat="43.07860743195813" lon="12.895371850508788"><ele>1040.0</ele><time>2026-04-04T13:17:48.999Z</time></trkpt><trkpt lat="43.07872576825437" lon="12.895427579876053"><ele>1040.0</ele><time>2026-04-04T13:17:49.999Z</time></trkpt><trkpt lat="43.07883075369761" lon="12.89547797640987"><ele>1040.0</ele><time>2026-04-04T13:17:50.998Z</time></trkpt><trkpt lat="43.07892154829941" lon="12.895522899935656"><ele>1040.0</ele><time>2026-04-04T13:17:51.998Z</time></trkpt><trkpt lat="43.079006293245186" lon="12.895559516193785"><ele>1040.0</ele><time>2026-04-04T13:17:52.998Z</time></trkpt><trkpt lat="43.07909254855954" lon="12.895551361654949"><ele>1040.0</ele><time>2026-04-04T13:17:53.998Z</time></trkpt><trkpt lat="43.07917214412121" lon="12.895513332959224"><ele>1043.0</ele><time>2026-04-04T13:17:54.998Z</time></trkpt><trkpt lat="43.079307889200734" lon="12.895519891364584"><ele>1046.0</ele><time>2026-04-04T13:17:56.998Z</time></trkpt><trkpt lat="43.0793971368293" lon="12.895549420899531"><ele>1049.0</ele><time>2026-04-04T13:17:57.998Z</time></trkpt><trkpt lat="43.079510935626026" lon="12.89557509924106"><ele>1052.0</ele><time>2026-04-04T13:17:58.998Z</time></trkpt><trkpt lat="43.079618676794745" lon="12.895581349357744"><ele>1052.0</ele><time>2026-04-04T13:17:59.998Z</time></trkpt><trkpt lat="43.079725053988724" lon="12.895618640655195"><ele>1052.0</ele><time>2026-04-04T13:18:00.998Z</time></trkpt><trkpt lat="43.07983375483798" lon="12.895671169492688"><ele>1052.0</ele><time>2026-04-04T13:18:01.998Z</time></trkpt><trkpt lat="43.07994132157764" lon="12.895728030269781"><ele>1052.0</ele><time>2026-04-04T13:18:02.998Z</time></trkpt><trkpt lat="43.08005615153596" lon="12.895761124230932"><ele>1053.6</ele><time>2026-04-04T13:18:03.998Z</time></trkpt><trkpt lat="43.08015883969148" lon="12.895777593077197"><ele>1055.2</ele><time>2026-04-04T13:18:04.998Z</time></trkpt><trkpt lat="43.08024805537868" lon="12.895809524366028"><ele>1056.8</ele><time>2026-04-04T13:18:05.998Z</time></trkpt><trkpt lat="43.08034678592198" lon="12.895827902695387"><ele>1058.4</ele><time>2026-04-04T13:18:06.998Z</time></trkpt><trkpt lat="43.08045835849269" lon="12.89581034493503"><ele>1060.0</ele><time>2026-04-04T13:18:07.998Z</time></trkpt><trkpt lat="43.080580579605005" lon="12.895783913247923"><ele>1060.0</ele><time>2026-04-04T13:18:08.998Z</time></trkpt><trkpt lat="43.0807084449713" lon="12.895785304250051"><ele>1060.0</ele><time>2026-04-04T13:18:09.998Z</time></trkpt><trkpt lat="43.08083288550945" lon="12.895789484569086"><ele>1060.0</ele><time>2026-04-04T13:18:10.998Z</time></trkpt><trkpt lat="43.08095846529426" lon="12.895772112224474"><ele>1060.0</ele><time>2026-04-04T13:18:11.998Z</time></trkpt><trkpt lat="43.08108622690513" lon="12.895799328324879"><ele>1061.4</ele><time>2026-04-04T13:18:12.998Z</time></trkpt><trkpt lat="43.08119475449779" lon="12.895809430193605"><ele>1062.8</ele><time>2026-04-04T13:18:14Z</time></trkpt><trkpt lat="43.081293833386056" lon="12.895792764198283"><ele>1064.2</ele><time>2026-04-04T13:18:15Z</time></trkpt><trkpt lat="43.081393273018854" lon="12.89578060036745"><ele>1065.6</ele><time>2026-04-04T13:18:16Z</time></trkpt><trkpt lat="43.081489765142905" lon="12.895781823017419"><ele>1067.0</ele><time>2026-04-04T13:18:17Z</time></trkpt><trkpt lat="43.08159565737651" lon="12.895780576135436"><ele>1067.8</ele><time>2026-04-04T13:18:18Z</time></trkpt><trkpt lat="43.08169798109253" lon="12.895780147860492"><ele>1068.6</ele><time>2026-04-04T13:18:19Z</time></trkpt><trkpt lat="43.081795903713314" lon="12.895770301849307"><ele>1069.3999999999999</ele><time>2026-04-04T13:18:20Z</time></trkpt><trkpt lat="43.08189040799942" lon="12.895775611908968"><ele>1070.2</ele><time>2026-04-04T13:18:21Z</time></trkpt><trkpt lat="43.0819904006388" lon="12.89576755142709"><ele>1071.0</ele><time>2026-04-04T13:18:22Z</time></trkpt><trkpt lat="43.082104655411506" lon="12.895764082734308"><ele>1071.0</ele><time>2026-04-04T13:18:23Z</time></trkpt><trkpt lat="43.08221192329651" lon="12.895767132272576"><ele>1071.0</ele><time>2026-04-04T13:18:24Z</time></trkpt><trkpt lat="43.08232704308423" lon="12.89576128369026"><ele>1071.0</ele><time>2026-04-04T13:18:25Z</time></trkpt><trkpt lat="43.08243103239102" lon="12.895745217717538"><ele>1071.0</ele><time>2026-04-04T13:18:26Z</time></trkpt><trkpt lat="43.082519948394676" lon="12.895727093156896"><ele>1071.0</ele><time>2026-04-04T13:18:27Z</time></trkpt><trkpt lat="43.08259849479523" lon="12.895694154922996"><ele>1071.0</ele><time>2026-04-04T13:18:28Z</time></trkpt><trkpt lat="43.082663400829624" lon="12.895618406783365"><ele>1071.0</ele><time>2026-04-04T13:18:29Z</time></trkpt><trkpt lat="43.082750319932146" lon="12.895583008350568"><ele>1071.0</ele><time>2026-04-04T13:18:30Z</time></trkpt><trkpt lat="43.08282725753298" lon="12.895568810326976"><ele>1071.0</ele><time>2026-04-04T13:18:31Z</time></trkpt><trkpt lat="43.0829064512712" lon="12.895563371563302"><ele>1071.0</ele><time>2026-04-04T13:18:32Z</time></trkpt><trkpt lat="43.082970417278936" lon="12.895585756511018"><ele>1071.0</ele><time>2026-04-04T13:18:32.999Z</time></trkpt><trkpt lat="43.08303290269624" lon="12.895627656635082"><ele>1071.0</ele><time>2026-04-04T13:18:33.999Z</time></trkpt><trkpt lat="43.08309941244485" lon="12.895663205417632"><ele>1071.0</ele><time>2026-04-04T13:18:34.999Z</time></trkpt><trkpt lat="43.08318169179806" lon="12.895705591386017"><ele>1071.0</ele><time>2026-04-04T13:18:35.999Z</time></trkpt><trkpt lat="43.0832604277098" lon="12.895719504893762"><ele>1071.0</ele><time>2026-04-04T13:18:36.999Z</time></trkpt><trkpt lat="43.083347864809554" lon="12.895737704894703"><ele>1071.0</ele><time>2026-04-04T13:18:37.999Z</time></trkpt><trkpt lat="43.08345425729804" lon="12.89575059153379"><ele>1071.0</ele><time>2026-04-04T13:18:38.999Z</time></trkpt><trkpt lat="43.08357095571938" lon="12.895788359912581"><ele>1072.25</ele><time>2026-04-04T13:18:39.999Z</time></trkpt><trkpt lat="43.08369149683543" lon="12.895804981744709"><ele>1073.5</ele><time>2026-04-04T13:18:40.999Z</time></trkpt><trkpt lat="43.08381263190182" lon="12.895835219143336"><ele>1074.75</ele><time>2026-04-04T13:18:41.999Z</time></trkpt><trkpt lat="43.08392326932525" lon="12.895860554990634"><ele>1076.0</ele><time>2026-04-04T13:18:42.999Z</time></trkpt><trkpt lat="43.08404856647846" lon="12.89589730983333"><ele>1069.75</ele><time>2026-04-04T13:18:43.999Z</time></trkpt><trkpt lat="43.08417463218796" lon="12.895941822222227"><ele>1063.5</ele><time>2026-04-04T13:18:44.999Z</time></trkpt><trkpt lat="43.08429532309058" lon="12.895940101609758"><ele>1057.25</ele><time>2026-04-04T13:18:45.999Z</time></trkpt><trkpt lat="43.0844060653105" lon="12.89593947786509"><ele>1051.0</ele><time>2026-04-04T13:18:46.999Z</time></trkpt><trkpt lat="43.084511844474406" lon="12.895937290978553"><ele>1051.0</ele><time>2026-04-04T13:18:47.999Z</time></trkpt><trkpt lat="43.08461771440712" lon="12.895929240183662"><ele>1051.0</ele><time>2026-04-04T13:18:48.999Z</time></trkpt><trkpt lat="43.084727013764365" lon="12.895903449943656"><ele>1051.0</ele><time>2026-04-04T13:18:49.999Z</time></trkpt><trkpt lat="43.08483318300836" lon="12.895899998133755"><ele>1051.0</ele><time>2026-04-04T13:18:50.999Z</time></trkpt><trkpt lat="43.08495343026021" lon="12.895877475207058"><ele>1051.0</ele><time>2026-04-04T13:18:51.999Z</time></trkpt><trkpt lat="43.08509093842026" lon="12.895860745010548"><ele>1061.3999999999999</ele><time>2026-04-04T13:18:52.999Z</time></trkpt><trkpt lat="43.085214407465784" lon="12.895850270104335"><ele>1071.8</ele><time>2026-04-04T13:18:53.999Z</time></trkpt><trkpt lat="43.08533998198734" lon="12.89581448837679"><ele>1082.1999999999998</ele><time>2026-04-04T13:18:54.999Z</time></trkpt><trkpt lat="43.085444023561" lon="12.895802323427823"><ele>1092.6</ele><time>2026-04-04T13:18:55.999Z</time></trkpt><trkpt lat="43.08553662085038" lon="12.895789485980503"><ele>1103.0</ele><time>2026-04-04T13:18:56.999Z</time></trkpt><trkpt lat="43.0856308006546" lon="12.895781489747389"><ele>1103.0</ele><time>2026-04-04T13:18:57.999Z</time></trkpt><trkpt lat="43.08573397593571" lon="12.895766583954787"><ele>1103.0</ele><time>2026-04-04T13:18:58.999Z</time></trkpt><trkpt lat="43.08581927925457" lon="12.895785820105875"><ele>1103.0</ele><time>2026-04-04T13:18:59.999Z</time></trkpt><trkpt lat="43.085902218123735" lon="12.895804152243512"><ele>1103.0</ele><time>2026-04-04T13:19:00.999Z</time></trkpt><trkpt lat="43.08599216937839" lon="12.89581312866656"><ele>1103.0</ele><time>2026-04-04T13:19:01.999Z</time></trkpt><trkpt lat="43.086075554689224" lon="12.8958303535298"><ele>1103.0</ele><time>2026-04-04T13:19:02.999Z</time></trkpt><trkpt lat="43.08614213611001" lon="12.895858684376755"><ele>1103.3333333333335</ele><time>2026-04-04T13:19:03.999Z</time></trkpt><trkpt lat="43.0862122420743" lon="12.895871059503357"><ele>1103.6666666666667</ele><time>2026-04-04T13:19:04.999Z</time></trkpt><trkpt lat="43.08628600395108" lon="12.895854544053943"><ele>1104.0</ele><time>2026-04-04T13:19:05.999Z</time></trkpt><trkpt lat="43.086367255997146" lon="12.89582448966286"><ele>1104.3333333333333</ele><time>2026-04-04T13:19:06.999Z</time></trkpt><trkpt lat="43.086442905599384" lon="12.895798170586545"><ele>1104.6666666666665</ele><time>2026-04-04T13:19:07.999Z</time></trkpt><trkpt lat="43.08656386621963" lon="12.895787756514675"><ele>1105.0</ele><time>2026-04-04T13:19:09.999Z</time></trkpt><trkpt lat="43.08662290995903" lon="12.89574436078761"><ele>1105.0</ele><time>2026-04-04T13:19:10.999Z</time></trkpt><trkpt lat="43.08668409201735" lon="12.895686466072476"><ele>1105.0</ele><time>2026-04-04T13:19:11.999Z</time></trkpt><trkpt lat="43.086754357126146" lon="12.895632247375548"><ele>1105.0</ele><time>2026-04-04T13:19:12.999Z</time></trkpt><trkpt lat="43.08682403995242" lon="12.89560620708221"><ele>1105.0</ele><time>2026-04-04T13:19:13.999Z</time></trkpt><trkpt lat="43.08690147628236" lon="12.895595392698862"><ele>1105.0</ele><time>2026-04-04T13:19:14.999Z</time></trkpt><trkpt lat="43.08696848488653" lon="12.895589102161338"><ele>1105.0</ele><time>2026-04-04T13:19:15.999Z</time></trkpt><trkpt lat="43.0870741373019" lon="12.895572058409744"><ele>1105.0</ele><time>2026-04-04T13:19:17.999Z</time></trkpt><trkpt lat="43.08720946178004" lon="12.895576665833227"><ele>1105.0</ele><time>2026-04-04T13:19:19.999Z</time></trkpt><trkpt lat="43.08729143333938" lon="12.895585495728298"><ele>1105.0</ele><time>2026-04-04T13:19:20.999Z</time></trkpt><trkpt lat="43.08735912047477" lon="12.89559983384271"><ele>1105.0</ele><time>2026-04-04T13:19:21.999Z</time></trkpt><trkpt lat="43.08743053340009" lon="12.895610639603957"><ele>1105.0</ele><time>2026-04-04T13:19:22.999Z</time></trkpt><trkpt lat="43.08750303258794" lon="12.895608421294694"><ele>1105.0</ele><time>2026-04-04T13:19:23.999Z</time></trkpt><trkpt lat="43.08757070781914" lon="12.895601736921373"><ele>1105.857142857143</ele><time>2026-04-04T13:19:24.999Z</time></trkpt><trkpt lat="43.08764088758027" lon="12.895583712734355"><ele>1106.7142857142858</ele><time>2026-04-04T13:19:25.999Z</time></trkpt><trkpt lat="43.08771787710657" lon="12.895595358909919"><ele>1107.5714285714287</ele><time>2026-04-04T13:19:26.999Z</time></trkpt><trkpt lat="43.08777994683464" lon="12.895620376380293"><ele>1108.4285714285716</ele><time>2026-04-04T13:19:27.999Z</time></trkpt><trkpt lat="43.08784753448162" lon="12.895634284871868"><ele>1109.2857142857144</ele><time>2026-04-04T13:19:28.999Z</time></trkpt><trkpt lat="43.08791531772293" lon="12.895660577485208"><ele>1110.142857142857</ele><time>2026-04-04T13:19:29.999Z</time></trkpt><trkpt lat="43.08798178817036" lon="12.895672094159346"><ele>1111.0</ele><time>2026-04-04T13:19:30.999Z</time></trkpt><trkpt lat="43.08804883153147" lon="12.89568275581101"><ele>1111.0</ele><time>2026-04-04T13:19:31.999Z</time></trkpt><trkpt lat="43.0881462266966" lon="12.895726259777286"><ele>1111.0</ele><time>2026-04-04T13:19:33.999Z</time></trkpt><trkpt lat="43.08822251097183" lon="12.895794351966575"><ele>1111.0</ele><time>2026-04-04T13:19:35.999Z</time></trkpt><trkpt lat="43.08828687400307" lon="12.895880823465541"><ele>1111.0</ele><time>2026-04-04T13:19:37.999Z</time></trkpt><trkpt lat="43.08834396897594" lon="12.895951996774961"><ele>1111.0</ele><time>2026-04-04T13:19:39.999Z</time></trkpt><trkpt lat="43.08842440711039" lon="12.896012187476463"><ele>1113.2857142857142</ele><time>2026-04-04T13:19:42.999Z</time></trkpt><trkpt lat="43.088475309278344" lon="12.896063140982672"><ele>1115.5714285714287</ele><time>2026-04-04T13:19:44.999Z</time></trkpt><trkpt lat="43.088499717609764" lon="12.89616209680242"><ele>1117.857142857143</ele><time>2026-04-04T13:21:42.999Z</time></trkpt><trkpt lat="43.088530612560525" lon="12.896248533463924"><ele>1120.142857142857</ele><time>2026-04-04T13:21:44.999Z</time></trkpt><trkpt lat="43.08848061396285" lon="12.896362738904648"><ele>1122.4285714285716</ele><time>2026-04-04T13:21:46.999Z</time></trkpt><trkpt lat="43.08844154390109" lon="12.896434791987028"><ele>1124.7142857142858</ele><time>2026-04-04T13:21:47.999Z</time></trkpt><trkpt lat="43.08839772824967" lon="12.896502964294568"><ele>1127.0</ele><time>2026-04-04T13:21:48.999Z</time></trkpt><trkpt lat="43.088353835156944" lon="12.896597957141974"><ele>1127.0</ele><time>2026-04-04T13:21:50.999Z</time></trkpt><trkpt lat="43.08832278170124" lon="12.896721490727177"><ele>1127.0</ele><time>2026-04-04T13:21:52.999Z</time></trkpt><trkpt lat="43.08832437869496" lon="12.896819737153923"><ele>1127.0</ele><time>2026-04-04T13:21:55.999Z</time></trkpt><trkpt lat="43.08832951188988" lon="12.896970290471486"><ele>1127.0</ele><time>2026-04-04T13:21:58.999Z</time></trkpt><trkpt lat="43.088357388544374" lon="12.897093605274247"><ele>1127.0</ele><time>2026-04-04T13:22:01.999Z</time></trkpt><trkpt lat="43.088395442443726" lon="12.897176612652155"><ele>1127.0</ele><time>2026-04-04T13:22:03.999Z</time></trkpt><trkpt lat="43.08847819164142" lon="12.897280345188674"><ele>1127.0</ele><time>2026-04-04T13:22:06.999Z</time></trkpt><trkpt lat="43.08856784274566" lon="12.897358980161712"><ele>1127.0</ele><time>2026-04-04T13:22:08.999Z</time></trkpt><trkpt lat="43.08864731848977" lon="12.897418477410811"><ele>1127.0</ele><time>2026-04-04T13:22:10.999Z</time></trkpt><trkpt lat="43.088754550515574" lon="12.897467271252705"><ele>1127.0</ele><time>2026-04-04T13:22:12.999Z</time></trkpt><trkpt lat="43.0888259782989" lon="12.897491178853222"><ele>1127.0</ele><time>2026-04-04T13:22:14.998Z</time></trkpt><trkpt lat="43.08887753876276" lon="12.89754561470252"><ele>1127.0</ele><time>2026-04-04T13:22:23.998Z</time></trkpt><trkpt lat="43.08895970065573" lon="12.897635472994311"><ele>1128.7142857142858</ele><time>2026-04-04T13:23:15.999Z</time></trkpt><trkpt lat="43.089028525709075" lon="12.897657415172151"><ele>1130.4285714285716</ele><time>2026-04-04T13:24:20.998Z</time></trkpt><trkpt lat="43.08909186683379" lon="12.897658005534712"><ele>1132.142857142857</ele><time>2026-04-04T13:24:25.998Z</time></trkpt><trkpt lat="43.08916157402194" lon="12.897659009852479"><ele>1133.857142857143</ele><time>2026-04-04T13:24:30.998Z</time></trkpt><trkpt lat="43.0892263813503" lon="12.897668801617638"><ele>1135.5714285714287</ele><time>2026-04-04T13:24:32.999Z</time></trkpt><trkpt lat="43.089287502144686" lon="12.897647212249442"><ele>1137.2857142857142</ele><time>2026-04-04T13:24:39.999Z</time></trkpt><trkpt lat="43.08926315838005" lon="12.897559664818651"><ele>1139.0</ele><time>2026-04-04T13:24:53.999Z</time></trkpt><trkpt lat="43.08918571581014" lon="12.897544047394986"><ele>1136.6000000000001</ele><time>2026-04-04T13:26:35.998Z</time></trkpt><trkpt lat="43.08908381073453" lon="12.897468138378628"><ele>1134.2</ele><time>2026-04-04T13:26:37.999Z</time></trkpt><trkpt lat="43.088997725911206" lon="12.897374311091063"><ele>1131.8000000000002</ele><time>2026-04-04T13:26:39.999Z</time></trkpt><trkpt lat="43.08894449131691" lon="12.897282611853901"><ele>1129.4</ele><time>2026-04-04T13:26:41.999Z</time></trkpt><trkpt lat="43.08891007707912" lon="12.897209716685396"><ele>1127.0</ele><time>2026-04-04T13:26:43.999Z</time></trkpt><trkpt lat="43.08889497320051" lon="12.897084014378144"><ele>1127.0</ele><time>2026-04-04T13:26:47.999Z</time></trkpt><trkpt lat="43.088900461668025" lon="12.896990617943384"><ele>1127.0</ele><time>2026-04-04T13:26:49.999Z</time></trkpt><trkpt lat="43.08892013222135" lon="12.8968991202957"><ele>1127.0</ele><time>2026-04-04T13:26:51.999Z</time></trkpt><trkpt lat="43.088962787165954" lon="12.89680530970314"><ele>1127.0</ele><time>2026-04-04T13:26:54.999Z</time></trkpt><trkpt lat="43.089003570530565" lon="12.896727930913999"><ele>1127.0</ele><time>2026-04-04T13:26:56.999Z</time></trkpt><trkpt lat="43.08905533400054" lon="12.896660047283193"><ele>1127.0</ele><time>2026-04-04T13:26:58.999Z</time></trkpt><trkpt lat="43.0891313671365" lon="12.896602969468107"><ele>1127.0</ele><time>2026-04-04T13:27:01.999Z</time></trkpt><trkpt lat="43.08921129176753" lon="12.896561675043499"><ele>1130.8333333333335</ele><time>2026-04-04T13:27:04.999Z</time></trkpt><trkpt lat="43.089288499274986" lon="12.896553179928514"><ele>1134.6666666666667</ele><time>2026-04-04T13:27:08.999Z</time></trkpt><trkpt lat="43.08936362343225" lon="12.896551407572934"><ele>1138.5</ele><time>2026-04-04T13:27:11.999Z</time></trkpt><trkpt lat="43.08942832712381" lon="12.89655575375871"><ele>1142.3333333333333</ele><time>2026-04-04T13:27:15.999Z</time></trkpt><trkpt lat="43.08950462749603" lon="12.896555689895317"><ele>1146.1666666666665</ele><time>2026-04-04T13:27:18.999Z</time></trkpt><trkpt lat="43.08959096946532" lon="12.89656266560275"><ele>1150.0</ele><time>2026-04-04T13:27:21.999Z</time></trkpt><trkpt lat="43.08967346893716" lon="12.89658135006111"><ele>1150.0</ele><time>2026-04-04T13:27:26.999Z</time></trkpt><trkpt lat="43.08975480266042" lon="12.89664974918156"><ele>1150.0</ele><time>2026-04-04T13:27:38.999Z</time></trkpt><trkpt lat="43.08982959581541" lon="12.896689784480921"><ele>1150.0</ele><time>2026-04-04T13:27:42.999Z</time></trkpt><trkpt lat="43.08989408673571" lon="12.896744513439495"><ele>1150.0</ele><time>2026-04-04T13:27:46.999Z</time></trkpt><trkpt lat="43.089951118780704" lon="12.896799250104655"><ele>1150.0</ele><time>2026-04-04T13:27:49.999Z</time></trkpt><trkpt lat="43.09001931718893" lon="12.896848799055311"><ele>1150.0</ele><time>2026-04-04T13:27:52.999Z</time></trkpt><trkpt lat="43.090092273600675" lon="12.896899229617278"><ele>1151.1666666666665</ele><time>2026-04-04T13:27:55.999Z</time></trkpt><trkpt lat="43.09014622853432" lon="12.896966571524631"><ele>1152.3333333333333</ele><time>2026-04-04T13:27:59.999Z</time></trkpt><trkpt lat="43.090224762565626" lon="12.897027000143982"><ele>1153.5</ele><time>2026-04-04T13:28:13.999Z</time></trkpt><trkpt lat="43.090305910045856" lon="12.897061729255359"><ele>1154.6666666666667</ele><time>2026-04-04T13:28:20.999Z</time></trkpt><trkpt lat="43.09039123931335" lon="12.897085100236316"><ele>1155.8333333333335</ele><time>2026-04-04T13:28:24.999Z</time></trkpt><trkpt lat="43.09049617917195" lon="12.897088214881235"><ele>1157.0</ele><time>2026-04-04T13:28:29.999Z</time></trkpt><trkpt lat="43.09056383155071" lon="12.89712055900524"><ele>1157.0</ele><time>2026-04-04T13:28:33.999Z</time></trkpt><trkpt lat="43.09061599458071" lon="12.897249872264542"><ele>1157.0</ele><time>2026-04-04T13:30:06.999Z</time></trkpt><trkpt lat="43.09069084359479" lon="12.897262731717582"><ele>1157.0</ele><time>2026-04-04T13:30:11.999Z</time></trkpt><trkpt lat="43.090845872040866" lon="12.897268897283896"><ele>1157.0</ele><time>2026-04-04T13:30:19.999Z</time></trkpt><trkpt lat="43.0909141344806" lon="12.89728566503268"><ele>1157.0</ele><time>2026-04-04T13:30:26.999Z</time></trkpt><trkpt lat="43.090990369694886" lon="12.897299998059506"><ele>1154.142857142857</ele><time>2026-04-04T13:30:33.999Z</time></trkpt><trkpt lat="43.09105203435945" lon="12.897353701318005"><ele>1151.2857142857142</ele><time>2026-04-04T13:30:38.999Z</time></trkpt><trkpt lat="43.09112320343136" lon="12.897379231034979"><ele>1148.4285714285713</ele><time>2026-04-04T13:30:43.999Z</time></trkpt><trkpt lat="43.09118409382096" lon="12.897406699203609"><ele>1145.5714285714284</ele><time>2026-04-04T13:30:48.999Z</time></trkpt><trkpt lat="43.091247525736925" lon="12.897417885977976"><ele>1142.7142857142858</ele><time>2026-04-04T13:30:53Z</time></trkpt><trkpt lat="43.091340419766794" lon="12.89740911238691"><ele>1139.8571428571427</ele><time>2026-04-04T13:30:56Z</time></trkpt><trkpt lat="43.09142184065417" lon="12.897407378889342"><ele>1137.0</ele><time>2026-04-04T13:30:59Z</time></trkpt><trkpt lat="43.09149793578346" lon="12.897412799079158"><ele>1136.9999999999998</ele><time>2026-04-04T13:31:02Z</time></trkpt><trkpt lat="43.09155858173654" lon="12.897443656577266"><ele>1137.0</ele><time>2026-04-04T13:31:07Z</time></trkpt><trkpt lat="43.091619205276864" lon="12.89750200715826"><ele>1137.0</ele><time>2026-04-04T13:31:38Z</time></trkpt><trkpt lat="43.091688256717" lon="12.897523167509217"><ele>1137.0</ele><time>2026-04-04T13:31:42Z</time></trkpt><trkpt lat="43.091780441376834" lon="12.897573256067966"><ele>1137.0</ele><time>2026-04-04T13:31:48Z</time></trkpt><trkpt lat="43.091842470114685" lon="12.897592851030549"><ele>1136.9999999999998</ele><time>2026-04-04T13:31:55Z</time></trkpt><trkpt lat="43.09190586031884" lon="12.897620540656435"><ele>1137.0</ele><time>2026-04-04T13:31:59.999Z</time></trkpt><trkpt lat="43.09203182393635" lon="12.897652634268274"><ele>1137.5</ele><time>2026-04-04T13:32:15.999Z</time></trkpt><trkpt lat="43.09210148907551" lon="12.89767775074183"><ele>1138.0</ele><time>2026-04-04T13:32:20.999Z</time></trkpt><trkpt lat="43.09221331065637" lon="12.897675890035341"><ele>1138.5</ele><time>2026-04-04T13:32:52.999Z</time></trkpt><trkpt lat="43.092266159810734" lon="12.897575573210597"><ele>1139.0</ele><time>2026-04-04T13:33:04Z</time></trkpt><trkpt lat="43.092326656889924" lon="12.897615371775023"><ele>1139.5</ele><time>2026-04-04T13:33:20Z</time></trkpt><trkpt lat="43.092353607077115" lon="12.897693767602027"><ele>1140.0</ele><time>2026-04-04T13:33:29Z</time></trkpt><trkpt lat="43.09252555378189" lon="12.897715036564659"><ele>1135.4</ele><time>2026-04-04T13:33:38Z</time></trkpt><trkpt lat="43.09261412299601" lon="12.897740762180462"><ele>1130.8</ele><time>2026-04-04T13:33:41Z</time></trkpt><trkpt lat="43.0926935524421" lon="12.897793816112166"><ele>1126.2</ele><time>2026-04-04T13:33:44Z</time></trkpt><trkpt lat="43.09277878389341" lon="12.897829860710766"><ele>1121.6</ele><time>2026-04-04T13:33:47Z</time></trkpt><trkpt lat="43.09285307093944" lon="12.897860462793323"><ele>1117.0</ele><time>2026-04-04T13:33:48.999Z</time></trkpt><trkpt lat="43.09299383168986" lon="12.897854877588028"><ele>1117.0</ele><time>2026-04-04T13:33:54.999Z</time></trkpt><trkpt lat="43.09306539197316" lon="12.897837611896563"><ele>1117.0</ele><time>2026-04-04T13:33:57.999Z</time></trkpt><trkpt lat="43.093131512015105" lon="12.897820615064559"><ele>1117.0</ele><time>2026-04-04T13:34:00.999Z</time></trkpt><trkpt lat="43.09319967782114" lon="12.897807204551912"><ele>1117.0</ele><time>2026-04-04T13:34:02.999Z</time></trkpt><trkpt lat="43.093267923204536" lon="12.897800911309941"><ele>1117.0</ele><time>2026-04-04T13:34:04.999Z</time></trkpt><trkpt lat="43.093336247585746" lon="12.897769424327729"><ele>1117.0</ele><time>2026-04-04T13:34:07.999Z</time></trkpt><trkpt lat="43.09355899080367" lon="12.897741310441711"><ele>1113.3333333333333</ele><time>2026-04-04T13:34:19.999Z</time></trkpt><trkpt lat="43.093661855034526" lon="12.897728733344385"><ele>1109.6666666666665</ele><time>2026-04-04T13:35:08Z</time></trkpt><trkpt lat="43.09375463970812" lon="12.89773445085037"><ele>1106.0</ele><time>2026-04-04T13:35:52Z</time></trkpt><trkpt lat="43.09382321482557" lon="12.897764887856056"><ele>1102.3333333333333</ele><time>2026-04-04T13:35:56Z</time></trkpt><trkpt lat="43.09387560191213" lon="12.897814137474986"><ele>1098.6666666666667</ele><time>2026-04-04T13:36:00Z</time></trkpt><trkpt lat="43.09393893021908" lon="12.89783749392608"><ele>1095.0</ele><time>2026-04-04T13:36:03Z</time></trkpt><trkpt lat="43.09397096450679" lon="12.897927287063622"><ele>1095.0</ele><time>2026-04-04T13:36:11Z</time></trkpt><trkpt lat="43.094024779129654" lon="12.897990317817397"><ele>1095.0</ele><time>2026-04-04T13:36:16Z</time></trkpt><trkpt lat="43.09408402680054" lon="12.898036106426494"><ele>1095.0</ele><time>2026-04-04T13:36:20Z</time></trkpt><trkpt lat="43.09415215029273" lon="12.8980361982636"><ele>1095.0</ele><time>2026-04-04T13:36:24Z</time></trkpt><trkpt lat="43.094228837949245" lon="12.898062779742013"><ele>1095.0</ele><time>2026-04-04T13:36:30Z</time></trkpt><trkpt lat="43.09433751302247" lon="12.898064637214064"><ele>1095.0</ele><time>2026-04-04T13:36:38.999Z</time></trkpt><trkpt lat="43.094400539248454" lon="12.898071082593905"><ele>1089.2</ele><time>2026-04-04T13:36:40.999Z</time></trkpt><trkpt lat="43.094465228319734" lon="12.898081939726584"><ele>1083.4</ele><time>2026-04-04T13:36:43.999Z</time></trkpt><trkpt lat="43.09469387997546" lon="12.898122152018527"><ele>1077.6</ele><time>2026-04-04T13:36:52.999Z</time></trkpt><trkpt lat="43.094766240438176" lon="12.898132096047034"><ele>1071.8</ele><time>2026-04-04T13:36:54.999Z</time></trkpt><trkpt lat="43.0948316369594" lon="12.89818540889284"><ele>1066.0</ele><time>2026-04-04T13:36:57.999Z</time></trkpt><trkpt lat="43.094893297751284" lon="12.898211989568372"><ele>1066.8333333333333</ele><time>2026-04-04T13:36:59.999Z</time></trkpt><trkpt lat="43.09497396333294" lon="12.898257961694354"><ele>1067.6666666666665</ele><time>2026-04-04T13:37:01.999Z</time></trkpt><trkpt lat="43.095040942374155" lon="12.898311552565229"><ele>1068.5</ele><time>2026-04-04T13:37:03.999Z</time></trkpt><trkpt lat="43.095116559492126" lon="12.89835560196398"><ele>1069.3333333333333</ele><time>2026-04-04T13:37:05.999Z</time></trkpt><trkpt lat="43.09517783950806" lon="12.898410323880052"><ele>1070.1666666666667</ele><time>2026-04-04T13:37:08Z</time></trkpt><trkpt lat="43.09524808555816" lon="12.898503838853074"><ele>1071.0</ele><time>2026-04-04T13:37:11Z</time></trkpt><trkpt lat="43.095320303579236" lon="12.898598249686675"><ele>1071.0</ele><time>2026-04-04T13:37:13Z</time></trkpt><trkpt lat="43.095365866924546" lon="12.898678540630057"><ele>1071.0</ele><time>2026-04-04T13:37:15Z</time></trkpt><trkpt lat="43.09541860680077" lon="12.898771965597646"><ele>1071.0</ele><time>2026-04-04T13:37:18Z</time></trkpt><trkpt lat="43.09549544913277" lon="12.898858223037122"><ele>1071.0</ele><time>2026-04-04T13:37:22Z</time></trkpt><trkpt lat="43.095560802453946" lon="12.89893447591673"><ele>1071.0</ele><time>2026-04-04T13:37:25Z</time></trkpt><trkpt lat="43.09561461959955" lon="12.899008605862846"><ele>1071.0</ele><time>2026-04-04T13:37:28Z</time></trkpt><trkpt lat="43.095662966575375" lon="12.899098787494257"><ele>1071.0</ele><time>2026-04-04T13:37:32Z</time></trkpt><trkpt lat="43.0957310692342" lon="12.89916540577282"><ele>1071.0</ele><time>2026-04-04T13:37:36Z</time></trkpt><trkpt lat="43.09578133177418" lon="12.899223469470888"><ele>1071.0</ele><time>2026-04-04T13:38:02Z</time></trkpt><trkpt lat="43.09585097078173" lon="12.899279006944615"><ele>1071.0</ele><time>2026-04-04T13:38:07Z</time></trkpt><trkpt lat="43.09592592215958" lon="12.89932091744893"><ele>1071.0</ele><time>2026-04-04T13:38:10Z</time></trkpt><trkpt lat="43.09601227475897" lon="12.899400069450632"><ele>1071.0</ele><time>2026-04-04T13:38:13Z</time></trkpt><trkpt lat="43.09606508581396" lon="12.899472203914769"><ele>1065.8333333333333</ele><time>2026-04-04T13:38:16Z</time></trkpt><trkpt lat="43.09612075497785" lon="12.899538545268648"><ele>1060.6666666666667</ele><time>2026-04-04T13:38:19Z</time></trkpt><trkpt lat="43.09616934606896" lon="12.8996196397283"><ele>1055.5</ele><time>2026-04-04T13:38:23Z</time></trkpt><trkpt lat="43.09623785891146" lon="12.899648135060255"><ele>1050.3333333333335</ele><time>2026-04-04T13:38:27Z</time></trkpt><trkpt lat="43.096308884090966" lon="12.899683683834349"><ele>1045.1666666666667</ele><time>2026-04-04T13:38:30Z</time></trkpt><trkpt lat="43.09638755421887" lon="12.899708536808657"><ele>1040.0</ele><time>2026-04-04T13:38:33Z</time></trkpt><trkpt lat="43.09648519421143" lon="12.899741219534137"><ele>1040.0000000000002</ele><time>2026-04-04T13:38:36Z</time></trkpt><trkpt lat="43.09654333760091" lon="12.899785928977645"><ele>1040.0</ele><time>2026-04-04T13:38:39Z</time></trkpt><trkpt lat="43.09660998152396" lon="12.899810824979095"><ele>1040.0</ele><time>2026-04-04T13:38:41Z</time></trkpt><trkpt lat="43.09668538178252" lon="12.899854890594339"><ele>1040.0</ele><time>2026-04-04T13:38:44Z</time></trkpt><trkpt lat="43.09675442257997" lon="12.899935546835284"><ele>1040.0</ele><time>2026-04-04T13:38:47Z</time></trkpt><trkpt lat="43.09680958329244" lon="12.89999824657256"><ele>1040.0000000000002</ele><time>2026-04-04T13:38:50Z</time></trkpt><trkpt lat="43.09685340564434" lon="12.900070930017646"><ele>1040.0</ele><time>2026-04-04T13:38:52Z</time></trkpt><trkpt lat="43.09691540230043" lon="12.900136636819413"><ele>1037.4285714285716</ele><time>2026-04-04T13:38:54.999Z</time></trkpt><trkpt lat="43.096950324437564" lon="12.900243329802878"><ele>1034.857142857143</ele><time>2026-04-04T13:38:57.999Z</time></trkpt><trkpt lat="43.096966038766546" lon="12.90034600623749"><ele>1032.2857142857142</ele><time>2026-04-04T13:39:00.999Z</time></trkpt><trkpt lat="43.09700082028232" lon="12.900421967395266"><ele>1029.7142857142858</ele><time>2026-04-04T13:39:03.999Z</time></trkpt><trkpt lat="43.09703893351109" lon="12.900506569660529"><ele>1027.142857142857</ele><time>2026-04-04T13:39:06.999Z</time></trkpt><trkpt lat="43.09706394229853" lon="12.90061378849522"><ele>1024.5714285714287</ele><time>2026-04-04T13:39:09.999Z</time></trkpt><trkpt lat="43.09707886340827" lon="12.900701490493612"><ele>1022.0</ele><time>2026-04-04T13:39:11.999Z</time></trkpt><trkpt lat="43.09708790588878" lon="12.90079313135682"><ele>1022.0000000000001</ele><time>2026-04-04T13:39:15Z</time></trkpt><trkpt lat="43.09710021019844" lon="12.900878332817244"><ele>1022.0</ele><time>2026-04-04T13:39:17Z</time></trkpt><trkpt lat="43.09712717062112" lon="12.900983538169012"><ele>1022.0</ele><time>2026-04-04T13:39:19Z</time></trkpt><trkpt lat="43.097136846887494" lon="12.901092414811288"><ele>1022.0</ele><time>2026-04-04T13:39:21Z</time></trkpt><trkpt lat="43.0971414784933" lon="12.90119106213506"><ele>1022.0000000000001</ele><time>2026-04-04T13:39:23Z</time></trkpt><trkpt lat="43.09714256707697" lon="12.901314418962025"><ele>1022.0</ele><time>2026-04-04T13:39:27Z</time></trkpt><trkpt lat="43.09714794797982" lon="12.901434838116048"><ele>1020.8333333333334</ele><time>2026-04-04T13:39:29Z</time></trkpt><trkpt lat="43.097169967486295" lon="12.901540148223036"><ele>1019.6666666666667</ele><time>2026-04-04T13:39:32Z</time></trkpt><trkpt lat="43.0971906011102" lon="12.901689757952758"><ele>1018.5</ele><time>2026-04-04T13:39:34Z</time></trkpt><trkpt lat="43.0972084360845" lon="12.90180871009544"><ele>1017.3333333333333</ele><time>2026-04-04T13:39:37Z</time></trkpt><trkpt lat="43.09721893011122" lon="12.901901256318931"><ele>1016.1666666666666</ele><time>2026-04-04T13:39:39Z</time></trkpt><trkpt lat="43.09725154574287" lon="12.902011841396785"><ele>1015.0</ele><time>2026-04-04T13:39:42Z</time></trkpt><trkpt lat="43.09730070844008" lon="12.902090447303912"><ele>1014.3333333333333</ele><time>2026-04-04T13:39:44Z</time></trkpt><trkpt lat="43.09730556305358" lon="12.90220048831812"><ele>1013.6666666666666</ele><time>2026-04-04T13:39:47Z</time></trkpt><trkpt lat="43.09733239046621" lon="12.902297894573211"><ele>1013.0</ele><time>2026-04-04T13:39:50Z</time></trkpt><trkpt lat="43.097313700418596" lon="12.902397176201784"><ele>1012.3333333333333</ele><time>2026-04-04T13:39:53Z</time></trkpt><trkpt lat="43.097273800736346" lon="12.902465240005476"><ele>1011.6666666666666</ele><time>2026-04-04T13:39:55Z</time></trkpt><trkpt lat="43.097267104104766" lon="12.90256789881457"><ele>1011.0</ele><time>2026-04-04T13:39:59Z</time></trkpt><trkpt lat="43.09727849341895" lon="12.90268297000946"><ele>1011.0</ele><time>2026-04-04T13:40:02Z</time></trkpt><trkpt lat="43.09729642054846" lon="12.902814327736374"><ele>1011.0</ele><time>2026-04-04T13:40:05Z</time></trkpt><trkpt lat="43.09732151562515" lon="12.902897474093942"><ele>1011.0</ele><time>2026-04-04T13:40:07Z</time></trkpt><trkpt lat="43.09738990497028" lon="12.902996606492712"><ele>1011.0</ele><time>2026-04-04T13:40:09Z</time></trkpt><trkpt lat="43.09741371653026" lon="12.903079403318895"><ele>1011.0</ele><time>2026-04-04T13:40:10Z</time></trkpt><trkpt lat="43.09746323086399" lon="12.903168273959237"><ele>1011.0</ele><time>2026-04-04T13:40:12Z</time></trkpt><trkpt lat="43.097494810319716" lon="12.903246452467442"><ele>1004.0</ele><time>2026-04-04T13:40:13Z</time></trkpt><trkpt lat="43.09754518520535" lon="12.903331251538232"><ele>997.0</ele><time>2026-04-04T13:40:15Z</time></trkpt><trkpt lat="43.09760783522313" lon="12.90340700694538"><ele>990.0</ele><time>2026-04-04T13:40:20Z</time></trkpt><trkpt lat="43.09766819906356" lon="12.90344076457868"><ele>983.0</ele><time>2026-04-04T13:40:23Z</time></trkpt><trkpt lat="43.09772758448553" lon="12.903498644816827"><ele>976.0</ele><time>2026-04-04T13:40:25Z</time></trkpt><trkpt lat="43.097807523497615" lon="12.903552122421434"><ele>969.0</ele><time>2026-04-04T13:40:28Z</time></trkpt><trkpt lat="43.09786358409103" lon="12.903630674719949"><ele>969.0</ele><time>2026-04-04T13:40:30Z</time></trkpt><trkpt lat="43.09793719197128" lon="12.903665830651436"><ele>969.0</ele><time>2026-04-04T13:40:32Z</time></trkpt><trkpt lat="43.09801713407218" lon="12.903725221978252"><ele>969.0</ele><time>2026-04-04T13:40:34Z</time></trkpt><trkpt lat="43.09808390653696" lon="12.90372927896735"><ele>969.0</ele><time>2026-04-04T13:40:35Z</time></trkpt><trkpt lat="43.098170400623296" lon="12.90375096284668"><ele>969.0</ele><time>2026-04-04T13:40:37Z</time></trkpt><trkpt lat="43.09825923320566" lon="12.903787085001847"><ele>969.0</ele><time>2026-04-04T13:40:40Z</time></trkpt><trkpt lat="43.09832023192923" lon="12.903842271780382"><ele>969.3333333333334</ele><time>2026-04-04T13:40:42Z</time></trkpt><trkpt lat="43.09840450430258" lon="12.903859073721305"><ele>969.6666666666667</ele><time>2026-04-04T13:40:45Z</time></trkpt><trkpt lat="43.09850749986401" lon="12.903851854603301"><ele>970.0</ele><time>2026-04-04T13:40:47Z</time></trkpt><trkpt lat="43.09859669132981" lon="12.903836151528811"><ele>970.3333333333334</ele><time>2026-04-04T13:40:49Z</time></trkpt><trkpt lat="43.09869078730243" lon="12.903803792442362"><ele>970.6666666666667</ele><time>2026-04-04T13:40:51Z</time></trkpt><trkpt lat="43.098729024249636" lon="12.903734963402096"><ele>971.0</ele><time>2026-04-04T13:40:53Z</time></trkpt><trkpt lat="43.0988262371169" lon="12.903698365578832"><ele>971.0</ele><time>2026-04-04T13:40:55Z</time></trkpt><trkpt lat="43.09891915477637" lon="12.903630637175086"><ele>970.9999999999999</ele><time>2026-04-04T13:40:57Z</time></trkpt><trkpt lat="43.098996271960985" lon="12.903537661011653"><ele>970.9999999999999</ele><time>2026-04-04T13:40:59Z</time></trkpt><trkpt lat="43.099072522711865" lon="12.903567484970367"><ele>971.0</ele><time>2026-04-04T13:41:01Z</time></trkpt><trkpt lat="43.09916751893562" lon="12.903577206042858"><ele>971.0</ele><time>2026-04-04T13:41:02.999Z</time></trkpt><trkpt lat="43.099275721360335" lon="12.903648942035925"><ele>970.5714285714287</ele><time>2026-04-04T13:41:04.999Z</time></trkpt><trkpt lat="43.09937819784793" lon="12.90369165943397"><ele>970.1428571428572</ele><time>2026-04-04T13:41:06.999Z</time></trkpt><trkpt lat="43.09944705333599" lon="12.903692121191659"><ele>969.7142857142858</ele><time>2026-04-04T13:41:07.999Z</time></trkpt><trkpt lat="43.09951355981227" lon="12.903687671049765"><ele>969.2857142857142</ele><time>2026-04-04T13:41:08.999Z</time></trkpt><trkpt lat="43.099578107000994" lon="12.90369024709404"><ele>968.8571428571428</ele><time>2026-04-04T13:41:09.999Z</time></trkpt><trkpt lat="43.099653374819695" lon="12.903704990304703"><ele>968.4285714285713</ele><time>2026-04-04T13:41:10.999Z</time></trkpt><trkpt lat="43.099715645742485" lon="12.903718777303732"><ele>968.0</ele><time>2026-04-04T13:41:11.999Z</time></trkpt><trkpt lat="43.099829679470766" lon="12.903684978995795"><ele>968.0000000000001</ele><time>2026-04-04T13:41:13.999Z</time></trkpt><trkpt lat="43.09990959175917" lon="12.90362149257959"><ele>968.0</ele><time>2026-04-04T13:41:15.999Z</time></trkpt><trkpt lat="43.09998688584704" lon="12.903542076495906"><ele>968.0</ele><time>2026-04-04T13:41:17.999Z</time></trkpt><trkpt lat="43.100053425733385" lon="12.903512478110462"><ele>968.0</ele><time>2026-04-04T13:41:20Z</time></trkpt><trkpt lat="43.10011723942976" lon="12.9034945439661"><ele>968.0000000000001</ele><time>2026-04-04T13:41:22Z</time></trkpt><trkpt lat="43.10017817114928" lon="12.903590890311339"><ele>968.0</ele><time>2026-04-04T13:41:25Z</time></trkpt><trkpt lat="43.10023915956466" lon="12.903640836954988"><ele>968.2</ele><time>2026-04-04T13:41:27Z</time></trkpt><trkpt lat="43.10030705027065" lon="12.903730587953131"><ele>968.4</ele><time>2026-04-04T13:41:29Z</time></trkpt><trkpt lat="43.100402808506594" lon="12.903783996994093"><ele>968.6000000000001</ele><time>2026-04-04T13:41:31Z</time></trkpt><trkpt lat="43.10049694420837" lon="12.903822235837788"><ele>968.8000000000001</ele><time>2026-04-04T13:41:33Z</time></trkpt><trkpt lat="43.10056620041551" lon="12.90386904222026"><ele>969.0</ele><time>2026-04-04T13:41:35Z</time></trkpt><trkpt lat="43.10064352662966" lon="12.9038914971652"><ele>969.0</ele><time>2026-04-04T13:41:37Z</time></trkpt><trkpt lat="43.100721207811134" lon="12.903944537615493"><ele>969.0</ele><time>2026-04-04T13:41:40Z</time></trkpt><trkpt lat="43.10075541425499" lon="12.904040450022919"><ele>969.0</ele><time>2026-04-04T13:41:44Z</time></trkpt><trkpt lat="43.10081512848903" lon="12.904070821637694"><ele>969.0</ele><time>2026-04-04T13:41:46Z</time></trkpt><trkpt lat="43.10087085868285" lon="12.904171815378675"><ele>969.0</ele><time>2026-04-04T13:41:48Z</time></trkpt><trkpt lat="43.10092654550782" lon="12.904246028283433"><ele>969.0</ele><time>2026-04-04T13:41:50Z</time></trkpt><trkpt lat="43.10099682936749" lon="12.904300351629969"><ele>969.2</ele><time>2026-04-04T13:41:52Z</time></trkpt><trkpt lat="43.10108326700273" lon="12.904365057029242"><ele>969.4000000000001</ele><time>2026-04-04T13:41:54Z</time></trkpt><trkpt lat="43.10117572837916" lon="12.904394111136781"><ele>969.6</ele><time>2026-04-04T13:41:56Z</time></trkpt><trkpt lat="43.101264733025005" lon="12.904410599778938"><ele>969.8</ele><time>2026-04-04T13:41:58Z</time></trkpt><trkpt lat="43.10132902218033" lon="12.904507482170208"><ele>970.0</ele><time>2026-04-04T13:42:00Z</time></trkpt><trkpt lat="43.101399806750905" lon="12.904607683602395"><ele>970.0</ele><time>2026-04-04T13:42:02Z</time></trkpt><trkpt lat="43.10148742673145" lon="12.904690121569857"><ele>970.0</ele><time>2026-04-04T13:42:04Z</time></trkpt><trkpt lat="43.101559971816" lon="12.904726004035146"><ele>970.0</ele><time>2026-04-04T13:42:06Z</time></trkpt><trkpt lat="43.10164629316799" lon="12.90476296545093"><ele>970.0</ele><time>2026-04-04T13:42:08Z</time></trkpt><trkpt lat="43.10175585493336" lon="12.904820186469722"><ele>970.0</ele><time>2026-04-04T13:42:10Z</time></trkpt><trkpt lat="43.10181705596906" lon="12.904846185218837"><ele>975.1666666666666</ele><time>2026-04-04T13:42:11Z</time></trkpt><trkpt lat="43.101896942796564" lon="12.904893112607269"><ele>980.3333333333333</ele><time>2026-04-04T13:42:12Z</time></trkpt><trkpt lat="43.10198052515047" lon="12.904946421554609"><ele>985.5</ele><time>2026-04-04T13:42:13Z</time></trkpt><trkpt lat="43.102055730828226" lon="12.904997500895597"><ele>990.6666666666667</ele><time>2026-04-04T13:42:14Z</time></trkpt><trkpt lat="43.1021359481789" lon="12.905027544158811"><ele>995.8333333333334</ele><time>2026-04-04T13:42:15Z</time></trkpt><trkpt lat="43.102196174852885" lon="12.905055877446335"><ele>1001.0</ele><time>2026-04-04T13:42:16Z</time></trkpt><trkpt lat="43.10226925720142" lon="12.905070964162903"><ele>999.5000000000001</ele><time>2026-04-04T13:42:17Z</time></trkpt><trkpt lat="43.10238151556204" lon="12.905110917027805"><ele>998.0</ele><time>2026-04-04T13:42:19Z</time></trkpt><trkpt lat="43.10245183296283" lon="12.905168299047855"><ele>996.5</ele><time>2026-04-04T13:42:21Z</time></trkpt><trkpt lat="43.10252833541674" lon="12.905169308433406"><ele>995.0</ele><time>2026-04-04T13:42:23Z</time></trkpt><trkpt lat="43.102604085889745" lon="12.9051586888033"><ele>993.5000000000001</ele><time>2026-04-04T13:42:26Z</time></trkpt><trkpt lat="43.10267832421187" lon="12.905132230946377"><ele>992.0</ele><time>2026-04-04T13:42:57Z</time></trkpt><trkpt lat="43.10273092366203" lon="12.905069683419505"><ele>996.5000000000001</ele><time>2026-04-04T13:43:00Z</time></trkpt><trkpt lat="43.10280354387627" lon="12.905037584255775"><ele>1001.0</ele><time>2026-04-04T13:43:03Z</time></trkpt><trkpt lat="43.102878743029876" lon="12.905047657056867"><ele>1005.5</ele><time>2026-04-04T13:43:06Z</time></trkpt><trkpt lat="43.10295594196999" lon="12.905032006254531"><ele>1010.0</ele><time>2026-04-04T13:43:08Z</time></trkpt><trkpt lat="43.10301289768137" lon="12.90499294383488"><ele>1014.5000000000001</ele><time>2026-04-04T13:43:09Z</time></trkpt><trkpt lat="43.10312433561047" lon="12.904925096985087"><ele>1019.0</ele><time>2026-04-04T13:43:11Z</time></trkpt><trkpt lat="43.103180424318325" lon="12.90488310325931"><ele>1015.8000000000001</ele><time>2026-04-04T13:43:12Z</time></trkpt><trkpt lat="43.103279741963135" lon="12.904807630632305"><ele>1012.6000000000001</ele><time>2026-04-04T13:43:14Z</time></trkpt><trkpt lat="43.10336735763483" lon="12.904712959854326"><ele>1009.4</ele><time>2026-04-04T13:43:16Z</time></trkpt><trkpt lat="43.103455020269294" lon="12.904649083094236"><ele>1006.2</ele><time>2026-04-04T13:43:18Z</time></trkpt><trkpt lat="43.10353805384712" lon="12.904618878723069"><ele>1003.0</ele><time>2026-04-04T13:43:20Z</time></trkpt><trkpt lat="43.103620591736735" lon="12.904613626734246"><ele>1002.9999999999999</ele><time>2026-04-04T13:43:22Z</time></trkpt><trkpt lat="43.10371365267446" lon="12.904602458749535"><ele>1003.0</ele><time>2026-04-04T13:43:25Z</time></trkpt><trkpt lat="43.10378092810589" lon="12.904591676149535"><ele>1003.0</ele><time>2026-04-04T13:43:27.001Z</time></trkpt><trkpt lat="43.103864093368514" lon="12.90456060523915"><ele>1003.0</ele><time>2026-04-04T13:43:30.001Z</time></trkpt><trkpt lat="43.10393569011625" lon="12.90455681208671"><ele>1002.9999999999999</ele><time>2026-04-04T13:43:34.001Z</time></trkpt><trkpt lat="43.10401721212573" lon="12.904590570835765"><ele>1003.0</ele><time>2026-04-04T13:44:31Z</time></trkpt><trkpt lat="43.104094616463364" lon="12.904593186964517"><ele>1002.9999999999999</ele><time>2026-04-04T13:44:33Z</time></trkpt><trkpt lat="43.10416474775444" lon="12.904629751551651"><ele>1003.0</ele><time>2026-04-04T13:44:43Z</time></trkpt><trkpt lat="43.10425272731607" lon="12.904610088170017"><ele>1003.0</ele><time>2026-04-04T13:44:45Z</time></trkpt><trkpt lat="43.104329987610186" lon="12.904665429938383"><ele>1003.0</ele><time>2026-04-04T13:44:47Z</time></trkpt><trkpt lat="43.10440942138362" lon="12.904729885364144"><ele>1002.9999999999999</ele><time>2026-04-04T13:44:50Z</time></trkpt><trkpt lat="43.10449181423186" lon="12.904754601564445"><ele>1003.0</ele><time>2026-04-04T13:44:52Z</time></trkpt><trkpt lat="43.10453135148322" lon="12.904832320495979"><ele>1002.9999999999999</ele><time>2026-04-04T13:44:56Z</time></trkpt><trkpt lat="43.10460433164146" lon="12.904904990866168"><ele>1003.0</ele><time>2026-04-04T13:44:59Z</time></trkpt><trkpt lat="43.10469474104533" lon="12.904935505401628"><ele>1003.0</ele><time>2026-04-04T13:45:02Z</time></trkpt><trkpt lat="43.104733598732594" lon="12.905034111434702"><ele>1003.0</ele><time>2026-04-04T13:45:06Z</time></trkpt><trkpt lat="43.10477554482792" lon="12.90511649771683"><ele>1002.9999999999999</ele><time>2026-04-04T13:45:08Z</time></trkpt><trkpt lat="43.10481853736383" lon="12.905195646393027"><ele>1003.0</ele><time>2026-04-04T13:45:10Z</time></trkpt><trkpt lat="43.10487720457277" lon="12.905238760638497"><ele>1004.4285714285713</ele><time>2026-04-04T13:45:12Z</time></trkpt><trkpt lat="43.10484769043562" lon="12.905340985279386"><ele>1005.8571428571428</ele><time>2026-04-04T13:47:07Z</time></trkpt><trkpt lat="43.104840672713614" lon="12.90542755543331"><ele>1007.2857142857142</ele><time>2026-04-04T13:47:09Z</time></trkpt><trkpt lat="43.10479399607246" lon="12.905526919265707"><ele>1008.7142857142858</ele><time>2026-04-04T13:47:12Z</time></trkpt><trkpt lat="43.104785580676214" lon="12.90561292378195"><ele>1010.1428571428572</ele><time>2026-04-04T13:48:17.999Z</time></trkpt><trkpt lat="43.10477561114136" lon="12.905715596656433"><ele>1011.5714285714287</ele><time>2026-04-04T13:48:26.999Z</time></trkpt><trkpt lat="43.10472841451321" lon="12.905804104713612"><ele>1013.0</ele><time>2026-04-04T13:48:53.999Z</time></trkpt><trkpt lat="43.10469542354298" lon="12.905890805416005"><ele>1014.0000000000001</ele><time>2026-04-04T13:48:56.999Z</time></trkpt><trkpt lat="43.10467180783886" lon="12.905979824011261"><ele>1015.0</ele><time>2026-04-04T13:48:58.999Z</time></trkpt><trkpt lat="43.104657879149" lon="12.90610705351948"><ele>1016.0</ele><time>2026-04-04T13:49:01.999Z</time></trkpt><trkpt lat="43.10465022457779" lon="12.90622302701903"><ele>1017.0</ele><time>2026-04-04T13:49:03.999Z</time></trkpt><trkpt lat="43.10468517978475" lon="12.906312737802775"><ele>1018.0000000000001</ele><time>2026-04-04T13:49:05.999Z</time></trkpt><trkpt lat="43.10477251652845" lon="12.906359530762135"><ele>1019.0</ele><time>2026-04-04T13:49:08.999Z</time></trkpt><trkpt lat="43.1048460722193" lon="12.906347671109408"><ele>1019.0000000000001</ele><time>2026-04-04T13:49:10.999Z</time></trkpt><trkpt lat="43.10491009142103" lon="12.906384019001855"><ele>1019.0</ele><time>2026-04-04T13:49:12.999Z</time></trkpt><trkpt lat="43.10494010532554" lon="12.906485692073112"><ele>1019.0000000000001</ele><time>2026-04-04T13:49:14.999Z</time></trkpt><trkpt lat="43.10496354946262" lon="12.906573953399356"><ele>1019.0000000000001</ele><time>2026-04-04T13:49:16.999Z</time></trkpt><trkpt lat="43.105008605538906" lon="12.906641303852346"><ele>1019.0</ele><time>2026-04-04T13:49:19.999Z</time></trkpt><trkpt lat="43.10508804757533" lon="12.906648013788327"><ele>1019.0000000000001</ele><time>2026-04-04T13:49:22.999Z</time></trkpt><trkpt lat="43.10516593599046" lon="12.906656235202405"><ele>1019.0000000000001</ele><time>2026-04-04T13:49:25.999Z</time></trkpt><trkpt lat="43.10519712415398" lon="12.90674590633365"><ele>1022.1666666666667</ele><time>2026-04-04T13:49:27.999Z</time></trkpt><trkpt lat="43.10521671324699" lon="12.906833126155442"><ele>1025.3333333333335</ele><time>2026-04-04T13:49:29.999Z</time></trkpt><trkpt lat="43.105261534588806" lon="12.906923462637616"><ele>1028.5</ele><time>2026-04-04T13:49:36.999Z</time></trkpt><trkpt lat="43.10534326990951" lon="12.906999627089162"><ele>1031.6666666666667</ele><time>2026-04-04T13:49:38.999Z</time></trkpt><trkpt lat="43.1054222220869" lon="12.907019480449614"><ele>1034.8333333333333</ele><time>2026-04-04T13:49:41.999Z</time></trkpt><trkpt lat="43.105518998618095" lon="12.907070810716332"><ele>1038.0</ele><time>2026-04-04T13:49:44.999Z</time></trkpt><trkpt lat="43.105588867774905" lon="12.907142037175646"><ele>1038.0</ele><time>2026-04-04T13:49:47.999Z</time></trkpt><trkpt lat="43.105662578422454" lon="12.907198581760198"><ele>1038.0</ele><time>2026-04-04T13:49:49.999Z</time></trkpt><trkpt lat="43.10574860613703" lon="12.907205108730276"><ele>1038.0</ele><time>2026-04-04T13:49:51.999Z</time></trkpt><trkpt lat="43.10587110901648" lon="12.90722325386806"><ele>1038.0</ele><time>2026-04-04T13:49:53.999Z</time></trkpt><trkpt lat="43.105971391621026" lon="12.907218332367824"><ele>1038.0</ele><time>2026-04-04T13:49:55.999Z</time></trkpt><trkpt lat="43.10604446475714" lon="12.907184261659905"><ele>1042.6666666666667</ele><time>2026-04-04T13:49:59.999Z</time></trkpt><trkpt lat="43.106112715379695" lon="12.907200031359611"><ele>1047.3333333333333</ele><time>2026-04-04T13:50:03.999Z</time></trkpt><trkpt lat="43.10620011825814" lon="12.907217010163343"><ele>1052.0</ele><time>2026-04-04T13:50:07.999Z</time></trkpt><trkpt lat="43.10626845092018" lon="12.90724126027017"><ele>1056.6666666666665</ele><time>2026-04-04T13:50:09.999Z</time></trkpt><trkpt lat="43.10634959377903" lon="12.907254345786724"><ele>1061.3333333333333</ele><time>2026-04-04T13:50:11.999Z</time></trkpt><trkpt lat="43.106435395189344" lon="12.907275366079897"><ele>1066.0</ele><time>2026-04-04T13:50:13.999Z</time></trkpt><trkpt lat="43.10635650714744" lon="12.907258424660961"><ele>1066.0</ele><time>2026-04-04T13:52:34.999Z</time></trkpt><trkpt lat="43.10628239335764" lon="12.907251471770863"><ele>1066.0</ele><time>2026-04-04T13:52:38.999Z</time></trkpt><trkpt lat="43.10621687608002" lon="12.907239412750323"><ele>1066.0</ele><time>2026-04-04T13:52:43.999Z</time></trkpt><trkpt lat="43.10614348376604" lon="12.907215731258153"><ele>1066.0</ele><time>2026-04-04T13:52:47.999Z</time></trkpt><trkpt lat="43.106080181772164" lon="12.907215682134671"><ele>1066.0</ele><time>2026-04-04T13:52:53.999Z</time></trkpt><trkpt lat="43.10615384017952" lon="12.907204474293545"><ele>1066.0</ele><time>2026-04-04T13:53:27.999Z</time></trkpt><trkpt lat="43.10621905601191" lon="12.907218624526221"><ele>1066.0</ele><time>2026-04-04T13:54:14.999Z</time></trkpt><trkpt lat="43.10628855571394" lon="12.9072372421045"><ele>1066.0</ele><time>2026-04-04T13:54:27.999Z</time></trkpt><trkpt lat="43.106351746075504" lon="12.907262152026094"><ele>1066.0</ele><time>2026-04-04T13:54:36.999Z</time></trkpt><trkpt lat="43.10644312751032" lon="12.907265444462116"><ele>1066.0</ele><time>2026-04-04T13:54:53.999Z</time></trkpt><trkpt lat="43.1065327397856" lon="12.907239007016942"><ele>1066.0</ele><time>2026-04-04T13:57:08.999Z</time></trkpt><trkpt lat="43.10662025270263" lon="12.907180267337418"><ele>1066.0</ele><time>2026-04-04T13:57:10.999Z</time></trkpt><trkpt lat="43.10669359764571" lon="12.907079061997177"><ele>1070.6666666666665</ele><time>2026-04-04T13:57:12.999Z</time></trkpt><trkpt lat="43.1067455289803" lon="12.907023823425623"><ele>1075.3333333333333</ele><time>2026-04-04T13:57:13.999Z</time></trkpt><trkpt lat="43.10681101148415" lon="12.907015845507093"><ele>1080.0</ele><time>2026-04-04T13:57:15.999Z</time></trkpt><trkpt lat="43.106884000292744" lon="12.907033476774613"><ele>1084.6666666666667</ele><time>2026-04-04T13:57:18.999Z</time></trkpt><trkpt lat="43.106953128569714" lon="12.907065689983817"><ele>1089.3333333333335</ele><time>2026-04-04T13:57:20.999Z</time></trkpt><trkpt lat="43.10703726283498" lon="12.907123816268498"><ele>1094.0</ele><time>2026-04-04T13:57:22.999Z</time></trkpt><trkpt lat="43.1071069698209" lon="12.907171034847849"><ele>1094.0</ele><time>2026-04-04T13:57:24.999Z</time></trkpt><trkpt lat="43.107196795362086" lon="12.907236946472839"><ele>1094.0</ele><time>2026-04-04T13:57:27.999Z</time></trkpt><trkpt lat="43.10724802510127" lon="12.90728757502335"><ele>1094.0</ele><time>2026-04-04T13:57:29.999Z</time></trkpt><trkpt lat="43.107323598333046" lon="12.907335575022955"><ele>1094.0</ele><time>2026-04-04T13:57:31.999Z</time></trkpt><trkpt lat="43.10739584081733" lon="12.907385733466572"><ele>1094.0</ele><time>2026-04-04T13:57:33.999Z</time></trkpt><trkpt lat="43.10746889450762" lon="12.90744950435453"><ele>1094.0</ele><time>2026-04-04T13:57:35.999Z</time></trkpt><trkpt lat="43.107545827080244" lon="12.907490250515567"><ele>1091.0</ele><time>2026-04-04T13:57:37.999Z</time></trkpt><trkpt lat="43.107626534381495" lon="12.907527158534867"><ele>1088.0</ele><time>2026-04-04T13:57:39.999Z</time></trkpt><trkpt lat="43.10773987189292" lon="12.90756560532163"><ele>1085.0</ele><time>2026-04-04T13:57:41.999Z</time></trkpt><trkpt lat="43.107849341538554" lon="12.907598458625463"><ele>1082.0</ele><time>2026-04-04T13:57:43.999Z</time></trkpt><trkpt lat="43.107973520803384" lon="12.907640747126985"><ele>1079.0</ele><time>2026-04-04T13:57:45.999Z</time></trkpt><trkpt lat="43.1080397350669" lon="12.907658107976367"><ele>1079.0</ele><time>2026-04-04T13:57:46.999Z</time></trkpt><trkpt lat="43.1081040331463" lon="12.90767571344122"><ele>1079.0</ele><time>2026-04-04T13:57:47.999Z</time></trkpt><trkpt lat="43.108223649697266" lon="12.907699740286612"><ele>1079.0</ele><time>2026-04-04T13:57:49.999Z</time></trkpt><trkpt lat="43.10830252718055" lon="12.90773025968324"><ele>1079.0</ele><time>2026-04-04T13:57:51.999Z</time></trkpt><trkpt lat="43.108407470894456" lon="12.907787344354093"><ele>1079.0</ele><time>2026-04-04T13:57:53.999Z</time></trkpt><trkpt lat="43.108498304068135" lon="12.90785312905407"><ele>1083.8</ele><time>2026-04-04T13:57:55.999Z</time></trkpt><trkpt lat="43.108596982587514" lon="12.907889168433512"><ele>1088.6000000000001</ele><time>2026-04-04T13:57:57.999Z</time></trkpt><trkpt lat="43.10866691491785" lon="12.907913940658391"><ele>1093.4</ele><time>2026-04-04T13:57:58.999Z</time></trkpt><trkpt lat="43.10878283216167" lon="12.907979856422642"><ele>1098.2</ele><time>2026-04-04T13:58:00.999Z</time></trkpt><trkpt lat="43.1088671272374" lon="12.907988963271984"><ele>1103.0</ele><time>2026-04-04T13:58:02.999Z</time></trkpt><trkpt lat="43.10900118880026" lon="12.908002688399119"><ele>1103.0</ele><time>2026-04-04T13:58:04.999Z</time></trkpt><trkpt lat="43.10907302384302" lon="12.908007566391014"><ele>1103.0</ele><time>2026-04-04T13:58:05.999Z</time></trkpt><trkpt lat="43.10916544479003" lon="12.908056172037556"><ele>1103.0</ele><time>2026-04-04T13:58:08Z</time></trkpt><trkpt lat="43.10925163103198" lon="12.908083230612018"><ele>1103.0</ele><time>2026-04-04T13:58:10Z</time></trkpt><trkpt lat="43.10935429775121" lon="12.908097620002142"><ele>1103.0</ele><time>2026-04-04T13:58:12Z</time></trkpt><trkpt lat="43.1094590776401" lon="12.908095765317416"><ele>1106.1666666666667</ele><time>2026-04-04T13:58:14Z</time></trkpt><trkpt lat="43.10956754527201" lon="12.908088368907558"><ele>1109.3333333333335</ele><time>2026-04-04T13:58:16Z</time></trkpt><trkpt lat="43.10967093146733" lon="12.908110403808712"><ele>1112.5</ele><time>2026-04-04T13:58:18Z</time></trkpt><trkpt lat="43.109733945280205" lon="12.908160069782456"><ele>1115.6666666666667</ele><time>2026-04-04T13:58:20Z</time></trkpt><trkpt lat="43.10982039190673" lon="12.908184039346729"><ele>1118.8333333333333</ele><time>2026-04-04T13:58:22Z</time></trkpt><trkpt lat="43.1098744664312" lon="12.908230056415238"><ele>1122.0</ele><time>2026-04-04T13:58:24Z</time></trkpt><trkpt lat="43.1099559070332" lon="12.908227120310537"><ele>1123.2</ele><time>2026-04-04T13:58:25Z</time></trkpt><trkpt lat="43.11003013998574" lon="12.908207642794041"><ele>1124.4</ele><time>2026-04-04T13:58:27Z</time></trkpt><trkpt lat="43.11011917862279" lon="12.908199761647081"><ele>1125.6</ele><time>2026-04-04T13:58:29Z</time></trkpt><trkpt lat="43.11021345941816" lon="12.908195895807287"><ele>1126.8</ele><time>2026-04-04T13:58:31Z</time></trkpt><trkpt lat="43.11032047781861" lon="12.908187115676904"><ele>1128.0</ele><time>2026-04-04T13:58:33Z</time></trkpt><trkpt lat="43.110424957082635" lon="12.908189383225738"><ele>1128.0</ele><time>2026-04-04T13:58:35Z</time></trkpt><trkpt lat="43.11049283033564" lon="12.908166150335802"><ele>1128.0</ele><time>2026-04-04T13:58:37Z</time></trkpt><trkpt lat="43.110572271022505" lon="12.908151939256623"><ele>1128.0</ele><time>2026-04-04T13:58:39Z</time></trkpt><trkpt lat="43.11062279117512" lon="12.908094384104126"><ele>1128.0</ele><time>2026-04-04T13:58:41Z</time></trkpt><trkpt lat="43.11066565428988" lon="12.908024966337534"><ele>1128.0</ele><time>2026-04-04T13:58:44Z</time></trkpt><trkpt lat="43.110722966096006" lon="12.907950114563908"><ele>1128.0</ele><time>2026-04-04T13:58:46Z</time></trkpt><trkpt lat="43.11078347526601" lon="12.907868775270435"><ele>1128.0</ele><time>2026-04-04T13:58:49Z</time></trkpt><trkpt lat="43.11085137543036" lon="12.907867395942908"><ele>1127.0</ele><time>2026-04-04T13:58:51Z</time></trkpt><trkpt lat="43.110937278763814" lon="12.907855838362458"><ele>1126.0</ele><time>2026-04-04T13:58:55Z</time></trkpt><trkpt lat="43.111007286521556" lon="12.907838685671829"><ele>1125.0</ele><time>2026-04-04T13:58:57Z</time></trkpt><trkpt lat="43.11112450237317" lon="12.907877110115589"><ele>1124.0</ele><time>2026-04-04T13:58:59Z</time></trkpt><trkpt lat="43.11122145293152" lon="12.907927133215598"><ele>1123.0</ele><time>2026-04-04T13:59:01Z</time></trkpt><trkpt lat="43.11133145859026" lon="12.907952075149188"><ele>1123.0</ele><time>2026-04-04T13:59:03Z</time></trkpt><trkpt lat="43.11143445675106" lon="12.907986846618785"><ele>1123.0</ele><time>2026-04-04T13:59:05Z</time></trkpt><trkpt lat="43.111538706560644" lon="12.908033566684328"><ele>1123.0</ele><time>2026-04-04T13:59:07Z</time></trkpt><trkpt lat="43.111638284272935" lon="12.908077644120006"><ele>1123.0</ele><time>2026-04-04T13:59:09Z</time></trkpt><trkpt lat="43.11172857426639" lon="12.908140690617948"><ele>1123.0</ele><time>2026-04-04T13:59:11Z</time></trkpt><trkpt lat="43.111809106942424" lon="12.908202684451107"><ele>1124.4</ele><time>2026-04-04T13:59:13Z</time></trkpt><trkpt lat="43.11190603689088" lon="12.908248265285472"><ele>1125.8</ele><time>2026-04-04T13:59:15Z</time></trkpt><trkpt lat="43.11198584608711" lon="12.908300098980574"><ele>1127.2</ele><time>2026-04-04T13:59:17Z</time></trkpt><trkpt lat="43.1120586933819" lon="12.90833810560163"><ele>1128.6</ele><time>2026-04-04T13:59:19Z</time></trkpt><trkpt lat="43.11215249479747" lon="12.908422296446885"><ele>1130.0</ele><time>2026-04-04T13:59:22Z</time></trkpt><trkpt lat="43.11222071735969" lon="12.908483486970908"><ele>1132.0</ele><time>2026-04-04T13:59:25Z</time></trkpt><trkpt lat="43.11229063341135" lon="12.908545565107666"><ele>1134.0</ele><time>2026-04-04T13:59:27Z</time></trkpt><trkpt lat="43.11237737442799" lon="12.908607419546232"><ele>1136.0</ele><time>2026-04-04T13:59:29Z</time></trkpt><trkpt lat="43.11243548693996" lon="12.908663172198068"><ele>1138.0</ele><time>2026-04-04T13:59:31Z</time></trkpt><trkpt lat="43.11248994953176" lon="12.908708782390871"><ele>1140.0</ele><time>2026-04-04T13:59:33Z</time></trkpt><trkpt lat="43.11256690677242" lon="12.908773596502192"><ele>1142.0</ele><time>2026-04-04T13:59:35Z</time></trkpt><trkpt lat="43.112648303018865" lon="12.908821651160181"><ele>1142.0</ele><time>2026-04-04T13:59:37Z</time></trkpt><trkpt lat="43.11275600284275" lon="12.908882226067218"><ele>1142.0</ele><time>2026-04-04T13:59:38.999Z</time></trkpt><trkpt lat="43.112834023516605" lon="12.908917389601832"><ele>1142.0</ele><time>2026-04-04T13:59:42.999Z</time></trkpt><trkpt lat="43.11290122801168" lon="12.908909382634613"><ele>1142.0</ele><time>2026-04-04T13:59:44.999Z</time></trkpt><trkpt lat="43.11297078234484" lon="12.908903516922015"><ele>1142.0</ele><time>2026-04-04T13:59:46.999Z</time></trkpt><trkpt lat="43.11303544115399" lon="12.908875897240653"><ele>1142.0</ele><time>2026-04-04T13:59:48.999Z</time></trkpt><trkpt lat="43.11311226883091" lon="12.908865094420857"><ele>1142.0</ele><time>2026-04-04T13:59:50.999Z</time></trkpt><trkpt lat="43.11317747893" lon="12.908840123512674"><ele>1142.0</ele><time>2026-04-04T13:59:52.999Z</time></trkpt><trkpt lat="43.113253324336675" lon="12.908780508939383"><ele>1142.0</ele><time>2026-04-04T13:59:55.999Z</time></trkpt><trkpt lat="43.11334043643353" lon="12.90872564533155"><ele>1142.0</ele><time>2026-04-04T13:59:57.999Z</time></trkpt><trkpt lat="43.11343688247557" lon="12.908750315426689"><ele>1142.0</ele><time>2026-04-04T13:59:59.999Z</time></trkpt><trkpt lat="43.11353755767686" lon="12.90876924285368"><ele>1144.0</ele><time>2026-04-04T14:00:01.999Z</time></trkpt><trkpt lat="43.11363889729502" lon="12.908734914638288"><ele>1146.0</ele><time>2026-04-04T14:00:03.999Z</time></trkpt><trkpt lat="43.11373172701785" lon="12.908693632848008"><ele>1148.0</ele><time>2026-04-04T14:00:05.999Z</time></trkpt><trkpt lat="43.11382116866219" lon="12.908715612636156"><ele>1150.0</ele><time>2026-04-04T14:00:07.999Z</time></trkpt><trkpt lat="43.11390276904462" lon="12.90871895432551"><ele>1152.0</ele><time>2026-04-04T14:00:09.999Z</time></trkpt><trkpt lat="43.11402527007003" lon="12.908724127579953"><ele>1153.6</ele><time>2026-04-04T14:00:11.999Z</time></trkpt><trkpt lat="43.11409310496222" lon="12.908743740537181"><ele>1155.2</ele><time>2026-04-04T14:00:12.999Z</time></trkpt><trkpt lat="43.114208189082504" lon="12.908757994136815"><ele>1156.8</ele><time>2026-04-04T14:00:15Z</time></trkpt><trkpt lat="43.11431682192611" lon="12.908760595778697"><ele>1158.4</ele><time>2026-04-04T14:00:17Z</time></trkpt><trkpt lat="43.11438031971898" lon="12.908671795725583"><ele>1160.0</ele><time>2026-04-04T14:00:20Z</time></trkpt><trkpt lat="43.11446026566116" lon="12.908697404253592"><ele>1160.0</ele><time>2026-04-04T14:02:39Z</time></trkpt><trkpt lat="43.114570530589965" lon="12.908720079069472"><ele>1160.0</ele><time>2026-04-04T14:02:41Z</time></trkpt><trkpt lat="43.11466902478825" lon="12.908727439918227"><ele>1160.0</ele><time>2026-04-04T14:02:43Z</time></trkpt><trkpt lat="43.114749670926216" lon="12.908744214791556"><ele>1160.0</ele><time>2026-04-04T14:02:45Z</time></trkpt><trkpt lat="43.11481483495571" lon="12.908744417518617"><ele>1160.0</ele><time>2026-04-04T14:02:48Z</time></trkpt><trkpt lat="43.11489120609314" lon="12.908750866405892"><ele>1160.0</ele><time>2026-04-04T14:02:51Z</time></trkpt><trkpt lat="43.11498647673041" lon="12.908770594116202"><ele>1160.8333333333335</ele><time>2026-04-04T14:02:54Z</time></trkpt><trkpt lat="43.11505901627092" lon="12.908803238994414"><ele>1161.6666666666667</ele><time>2026-04-04T14:03:00Z</time></trkpt><trkpt lat="43.115118439223096" lon="12.90884106158307"><ele>1162.5</ele><time>2026-04-04T14:03:03Z</time></trkpt><trkpt lat="43.11518077627853" lon="12.908869035518185"><ele>1163.3333333333333</ele><time>2026-04-04T14:03:07Z</time></trkpt><trkpt lat="43.11527121754159" lon="12.908887713042166"><ele>1164.1666666666665</ele><time>2026-04-04T14:03:11Z</time></trkpt><trkpt lat="43.11535507539695" lon="12.908893439827631"><ele>1165.0</ele><time>2026-04-04T14:03:14Z</time></trkpt><trkpt lat="43.11543132763913" lon="12.908904946762272"><ele>1165.0</ele><time>2026-04-04T14:03:17Z</time></trkpt><trkpt lat="43.11554712155765" lon="12.908895341018578"><ele>1165.0</ele><time>2026-04-04T14:03:20Z</time></trkpt><trkpt lat="43.11562315768701" lon="12.9088943788559"><ele>1165.0</ele><time>2026-04-04T14:03:23Z</time></trkpt><trkpt lat="43.11569430789028" lon="12.908893741269635"><ele>1165.0</ele><time>2026-04-04T14:03:26Z</time></trkpt><trkpt lat="43.11576479972736" lon="12.908941322268339"><ele>1165.0</ele><time>2026-04-04T14:03:34Z</time></trkpt><trkpt lat="43.11583627955915" lon="12.908967819800537"><ele>1165.0</ele><time>2026-04-04T14:03:37Z</time></trkpt><trkpt lat="43.11593948104765" lon="12.908990569037192"><ele>1164.4285714285713</ele><time>2026-04-04T14:03:40Z</time></trkpt><trkpt lat="43.116014722294075" lon="12.908983507627457"><ele>1163.857142857143</ele><time>2026-04-04T14:03:42Z</time></trkpt><trkpt lat="43.11608269248366" lon="12.908982266724669"><ele>1163.2857142857142</ele><time>2026-04-04T14:03:44Z</time></trkpt><trkpt lat="43.116155183852065" lon="12.908968194312639"><ele>1162.7142857142858</ele><time>2026-04-04T14:03:46Z</time></trkpt><trkpt lat="43.11622187515775" lon="12.908957236602589"><ele>1162.142857142857</ele><time>2026-04-04T14:03:48Z</time></trkpt><trkpt lat="43.11629739465971" lon="12.908936682771328"><ele>1161.5714285714284</ele><time>2026-04-04T14:03:51Z</time></trkpt><trkpt lat="43.11638354086603" lon="12.908931595686953"><ele>1161.0</ele><time>2026-04-04T14:03:53Z</time></trkpt><trkpt lat="43.11647297329864" lon="12.908919888256428"><ele>1161.0</ele><time>2026-04-04T14:03:56Z</time></trkpt><trkpt lat="43.11656783670379" lon="12.908924189306697"><ele>1161.0</ele><time>2026-04-04T14:03:59Z</time></trkpt><trkpt lat="43.11666167582978" lon="12.908920688926825"><ele>1161.0</ele><time>2026-04-04T14:04:10Z</time></trkpt><trkpt lat="43.11675068381836" lon="12.908915478785534"><ele>1161.0</ele><time>2026-04-04T14:04:28Z</time></trkpt><trkpt lat="43.11682998707291" lon="12.90891444272863"><ele>1161.0</ele><time>2026-04-04T14:04:31Z</time></trkpt><trkpt lat="43.11691232873905" lon="12.908902201542247"><ele>1161.0</ele><time>2026-04-04T14:04:33Z</time></trkpt><trkpt lat="43.11700060526092" lon="12.908892452218575"><ele>1160.3333333333333</ele><time>2026-04-04T14:04:35Z</time></trkpt><trkpt lat="43.11708628284902" lon="12.908899151389516"><ele>1159.6666666666667</ele><time>2026-04-04T14:04:37Z</time></trkpt><trkpt lat="43.117172047323294" lon="12.908934078038708"><ele>1159.0</ele><time>2026-04-04T14:04:39Z</time></trkpt><trkpt lat="43.11723049683152" lon="12.908969507565258"><ele>1158.3333333333335</ele><time>2026-04-04T14:04:41Z</time></trkpt><trkpt lat="43.11729552713116" lon="12.908990570469175"><ele>1157.6666666666667</ele><time>2026-04-04T14:04:44Z</time></trkpt><trkpt lat="43.117374608056195" lon="12.908991521698464"><ele>1157.0</ele><time>2026-04-04T14:04:48Z</time></trkpt><trkpt lat="43.11743488962169" lon="12.909039959469238"><ele>1156.4285714285713</ele><time>2026-04-04T14:04:51Z</time></trkpt><trkpt lat="43.11750193169873" lon="12.909080953685592"><ele>1155.8571428571427</ele><time>2026-04-04T14:04:55Z</time></trkpt><trkpt lat="43.11755975419528" lon="12.909118666508345"><ele>1155.2857142857142</ele><time>2026-04-04T14:04:58Z</time></trkpt><trkpt lat="43.117638747778784" lon="12.909157900974558"><ele>1154.7142857142858</ele><time>2026-04-04T14:05:02Z</time></trkpt><trkpt lat="43.11770288083387" lon="12.909147779897145"><ele>1154.1428571428573</ele><time>2026-04-04T14:05:15Z</time></trkpt><trkpt lat="43.11776652378081" lon="12.909147069601808"><ele>1153.5714285714287</ele><time>2026-04-04T14:05:17Z</time></trkpt><trkpt lat="43.11783423663784" lon="12.909141072770664"><ele>1153.0</ele><time>2026-04-04T14:05:19Z</time></trkpt><trkpt lat="43.11792878680735" lon="12.909133930509554"><ele>1153.0</ele><time>2026-04-04T14:05:22Z</time></trkpt><trkpt lat="43.117998507220136" lon="12.90911748251642"><ele>1153.0</ele><time>2026-04-04T14:05:25Z</time></trkpt><trkpt lat="43.118068476038665" lon="12.909074250343597"><ele>1153.0</ele><time>2026-04-04T14:05:29Z</time></trkpt><trkpt lat="43.11813780305658" lon="12.909094944689185"><ele>1153.0</ele><time>2026-04-04T14:05:42Z</time></trkpt><trkpt lat="43.11824315784796" lon="12.909104460323576"><ele>1153.0</ele><time>2026-04-04T14:05:45Z</time></trkpt><trkpt lat="43.11834730725281" lon="12.909092756934685"><ele>1153.0</ele><time>2026-04-04T14:05:47Z</time></trkpt><trkpt lat="43.11841119403178" lon="12.909098853804329"><ele>1152.0</ele><time>2026-04-04T14:05:48Z</time></trkpt><trkpt lat="43.1184776730046" lon="12.90910188272108"><ele>1151.0</ele><time>2026-04-04T14:05:50Z</time></trkpt><trkpt lat="43.11853113876066" lon="12.909018779244443"><ele>1150.0</ele><time>2026-04-04T14:05:52Z</time></trkpt><trkpt lat="43.11861616243017" lon="12.908940329612623"><ele>1149.0</ele><time>2026-04-04T14:05:54Z</time></trkpt><trkpt lat="43.11871242338775" lon="12.908895085414985"><ele>1148.0</ele><time>2026-04-04T14:05:56Z</time></trkpt><trkpt lat="43.118782340017994" lon="12.908859310208813"><ele>1147.0</ele><time>2026-04-04T14:05:58Z</time></trkpt><trkpt lat="43.118854040257304" lon="12.908827787463185"><ele>1147.0</ele><time>2026-04-04T14:06:00Z</time></trkpt><trkpt lat="43.11891621779833" lon="12.908809890053805"><ele>1147.0</ele><time>2026-04-04T14:06:02Z</time></trkpt><trkpt lat="43.11898377584421" lon="12.908799246056583"><ele>1147.0</ele><time>2026-04-04T14:06:05Z</time></trkpt><trkpt lat="43.11907649536768" lon="12.908795319148815"><ele>1147.0</ele><time>2026-04-04T14:06:08Z</time></trkpt><trkpt lat="43.11914103948082" lon="12.908774294917736"><ele>1147.0</ele><time>2026-04-04T14:06:10Z</time></trkpt><trkpt lat="43.119206395378754" lon="12.908782096614111"><ele>1147.0</ele><time>2026-04-04T14:06:13Z</time></trkpt><trkpt lat="43.11928613586713" lon="12.908764306010955"><ele>1147.0</ele><time>2026-04-04T14:07:41Z</time></trkpt><trkpt lat="43.119358469954385" lon="12.908768756757967"><ele>1146.5</ele><time>2026-04-04T14:07:44Z</time></trkpt><trkpt lat="43.11939915759403" lon="12.908689429639425"><ele>1146.0</ele><time>2026-04-04T14:08:01Z</time></trkpt><trkpt lat="43.11937276933962" lon="12.908583439127131"><ele>1145.5</ele><time>2026-04-04T14:08:05Z</time></trkpt><trkpt lat="43.11936432624245" lon="12.908464577000856"><ele>1145.0</ele><time>2026-04-04T14:08:10Z</time></trkpt><trkpt lat="43.11935517211784" lon="12.908361886135282"><ele>1144.5</ele><time>2026-04-04T14:08:14Z</time></trkpt><trkpt lat="43.11934273310956" lon="12.908268178410749"><ele>1144.0</ele><time>2026-04-04T14:08:18Z</time></trkpt><trkpt lat="43.11932301149799" lon="12.908177087209594"><ele>1141.2857142857142</ele><time>2026-04-04T14:08:21Z</time></trkpt><trkpt lat="43.11930153483459" lon="12.908087254616472"><ele>1138.5714285714284</ele><time>2026-04-04T14:08:26Z</time></trkpt><trkpt lat="43.11927575598008" lon="12.907986704288852"><ele>1135.857142857143</ele><time>2026-04-04T14:08:29.999Z</time></trkpt><trkpt lat="43.11926664121192" lon="12.907884522951424"><ele>1133.142857142857</ele><time>2026-04-04T14:08:33.999Z</time></trkpt><trkpt lat="43.119258302131925" lon="12.907797094025735"><ele>1130.4285714285716</ele><time>2026-04-04T14:08:39.001Z</time></trkpt><trkpt lat="43.11926361443978" lon="12.907700194860658"><ele>1127.7142857142858</ele><time>2026-04-04T14:08:43.001Z</time></trkpt><trkpt lat="43.1192913390688" lon="12.907611577662868"><ele>1125.0</ele><time>2026-04-04T14:08:46.001Z</time></trkpt><trkpt lat="43.119340470237" lon="12.907537641855136"><ele>1121.857142857143</ele><time>2026-04-04T14:08:49.001Z</time></trkpt><trkpt lat="43.11940480155492" lon="12.907471477981954"><ele>1118.7142857142858</ele><time>2026-04-04T14:08:55.001Z</time></trkpt><trkpt lat="43.11945749234305" lon="12.907421456340167"><ele>1115.5714285714287</ele><time>2026-04-04T14:08:59Z</time></trkpt><trkpt lat="43.11951690398846" lon="12.907369157305798"><ele>1112.4285714285716</ele><time>2026-04-04T14:09:09Z</time></trkpt><trkpt lat="43.11957301280254" lon="12.907326006420115"><ele>1109.2857142857142</ele><time>2026-04-04T14:09:13Z</time></trkpt><trkpt lat="43.11956172403409" lon="12.907229495443218"><ele>1106.1428571428573</ele><time>2026-04-04T14:09:18Z</time></trkpt><trkpt lat="43.119475106927354" lon="12.907196780877765"><ele>1103.0</ele><time>2026-04-04T14:09:22Z</time></trkpt><trkpt lat="43.11941139720495" lon="12.907141914076462"><ele>1103.0000000000002</ele><time>2026-04-04T14:09:25Z</time></trkpt><trkpt lat="43.119350635835126" lon="12.907097766326132"><ele>1103.0</ele><time>2026-04-04T14:09:36Z</time></trkpt><trkpt lat="43.11927836629116" lon="12.907064682795948"><ele>1103.0</ele><time>2026-04-04T14:09:40Z</time></trkpt><trkpt lat="43.119236963517984" lon="12.906996037760578"><ele>1103.0</ele><time>2026-04-04T14:09:43Z</time></trkpt><trkpt lat="43.11926927570564" lon="12.906921741825471"><ele>1103.0</ele><time>2026-04-04T14:09:50Z</time></trkpt><trkpt lat="43.11931602105968" lon="12.906838399801641"><ele>1103.0000000000002</ele><time>2026-04-04T14:09:54Z</time></trkpt><trkpt lat="43.119362201642666" lon="12.906769011464506"><ele>1103.0</ele><time>2026-04-04T14:09:57Z</time></trkpt><trkpt lat="43.11941209791255" lon="12.906716338828883"><ele>1099.5</ele><time>2026-04-04T14:09:59Z</time></trkpt><trkpt lat="43.11948108567204" lon="12.906666235234008"><ele>1096.0</ele><time>2026-04-04T14:10:02Z</time></trkpt><trkpt lat="43.11954280406679" lon="12.906617269310392"><ele>1092.5</ele><time>2026-04-04T14:10:07Z</time></trkpt><trkpt lat="43.11960740915165" lon="12.906566866811522"><ele>1089.0</ele><time>2026-04-04T14:10:12Z</time></trkpt><trkpt lat="43.1196881145881" lon="12.906497434705615"><ele>1085.5</ele><time>2026-04-04T14:10:16Z</time></trkpt><trkpt lat="43.11973960040915" lon="12.90642459134473"><ele>1082.0</ele><time>2026-04-04T14:10:21Z</time></trkpt><trkpt lat="43.11978691798214" lon="12.906349767159215"><ele>1082.0</ele><time>2026-04-04T14:10:24Z</time></trkpt><trkpt lat="43.1198402044689" lon="12.906261881424644"><ele>1082.0</ele><time>2026-04-04T14:10:26Z</time></trkpt><trkpt lat="43.11991140063914" lon="12.906171121723284"><ele>1082.0</ele><time>2026-04-04T14:10:28Z</time></trkpt><trkpt lat="43.119971933492934" lon="12.906116167307301"><ele>1082.0</ele><time>2026-04-04T14:10:30Z</time></trkpt><trkpt lat="43.12004356150675" lon="12.906029007260045"><ele>1082.0</ele><time>2026-04-04T14:10:34Z</time></trkpt><trkpt lat="43.12009479777148" lon="12.905954616734617"><ele>1082.0</ele><time>2026-04-04T14:10:37Z</time></trkpt><trkpt lat="43.12013581263954" lon="12.905840126084815"><ele>1078.6666666666667</ele><time>2026-04-04T14:10:41Z</time></trkpt><trkpt lat="43.120204714117875" lon="12.905748175548664"><ele>1075.3333333333335</ele><time>2026-04-04T14:10:44Z</time></trkpt><trkpt lat="43.12024911613786" lon="12.905646932439943"><ele>1072.0</ele><time>2026-04-04T14:10:47Z</time></trkpt><trkpt lat="43.120265139319734" lon="12.905554976251468"><ele>1068.6666666666667</ele><time>2026-04-04T14:10:49Z</time></trkpt><trkpt lat="43.12025274114711" lon="12.905449048083087"><ele>1065.3333333333333</ele><time>2026-04-04T14:10:52Z</time></trkpt><trkpt lat="43.120195040939606" lon="12.905381903605448"><ele>1062.0</ele><time>2026-04-04T14:10:55Z</time></trkpt><trkpt lat="43.12012571103036" lon="12.905343251793035"><ele>1062.0</ele><time>2026-04-04T14:10:58Z</time></trkpt><trkpt lat="43.12004438339618" lon="12.905338749217952"><ele>1062.0</ele><time>2026-04-04T14:11:02Z</time></trkpt><trkpt lat="43.11997938725068" lon="12.905330551283829"><ele>1062.0</ele><time>2026-04-04T14:11:05Z</time></trkpt><trkpt lat="43.11994120454801" lon="12.905241982156001"><ele>1062.0</ele><time>2026-04-04T14:11:08Z</time></trkpt><trkpt lat="43.11997765669887" lon="12.905156866167422"><ele>1062.0</ele><time>2026-04-04T14:11:11Z</time></trkpt><trkpt lat="43.12001088987488" lon="12.90507656283293"><ele>1062.0</ele><time>2026-04-04T14:11:13Z</time></trkpt><trkpt lat="43.120058944268166" lon="12.904996894486532"><ele>1062.0</ele><time>2026-04-04T14:11:16Z</time></trkpt><trkpt lat="43.12011693151269" lon="12.904919130016495"><ele>1057.5</ele><time>2026-04-04T14:11:18Z</time></trkpt><trkpt lat="43.120177048895336" lon="12.90482163310961"><ele>1053.0</ele><time>2026-04-04T14:11:20Z</time></trkpt><trkpt lat="43.12021752355687" lon="12.904743482948126"><ele>1048.5</ele><time>2026-04-04T14:11:22Z</time></trkpt><trkpt lat="43.12027191871723" lon="12.904691365643405"><ele>1044.0</ele><time>2026-04-04T14:11:24Z</time></trkpt><trkpt lat="43.12032990853206" lon="12.904606281207856"><ele>1039.5</ele><time>2026-04-04T14:11:27Z</time></trkpt><trkpt lat="43.12038089053361" lon="12.904531331058172"><ele>1035.0</ele><time>2026-04-04T14:11:29Z</time></trkpt><trkpt lat="43.12042790254582" lon="12.904459450437988"><ele>1035.0</ele><time>2026-04-04T14:11:31Z</time></trkpt><trkpt lat="43.12048911067751" lon="12.904414594721697"><ele>1035.0</ele><time>2026-04-04T14:12:52Z</time></trkpt><trkpt lat="43.12055321178832" lon="12.90441812542969"><ele>1035.0</ele><time>2026-04-04T14:12:55Z</time></trkpt><trkpt lat="43.12062863571061" lon="12.904400893241162"><ele>1035.0</ele><time>2026-04-04T14:12:58Z</time></trkpt><trkpt lat="43.12071503223543" lon="12.904453192704246"><ele>1035.0</ele><time>2026-04-04T14:13:01Z</time></trkpt><trkpt lat="43.12076147166274" lon="12.904525002628706"><ele>1035.0</ele><time>2026-04-04T14:13:03Z</time></trkpt><trkpt lat="43.120816336118494" lon="12.904583856114545"><ele>1035.0</ele><time>2026-04-04T14:13:05Z</time></trkpt><trkpt lat="43.12085548030941" lon="12.904508984768732"><ele>1033.7142857142858</ele><time>2026-04-04T14:13:09Z</time></trkpt><trkpt lat="43.12086604600314" lon="12.90442220774786"><ele>1032.4285714285716</ele><time>2026-04-04T14:13:12Z</time></trkpt><trkpt lat="43.12088248235614" lon="12.90433229453503"><ele>1031.1428571428573</ele><time>2026-04-04T14:13:21Z</time></trkpt><trkpt lat="43.12089298759765" lon="12.904205905409682"><ele>1029.857142857143</ele><time>2026-04-04T14:13:25Z</time></trkpt><trkpt lat="43.12087689209061" lon="12.904119237337671"><ele>1028.5714285714287</ele><time>2026-04-04T14:13:29Z</time></trkpt><trkpt lat="43.120862056179725" lon="12.904035247152228"><ele>1027.2857142857144</ele><time>2026-04-04T14:14:03Z</time></trkpt><trkpt lat="43.12087626776287" lon="12.904125325629126"><ele>1026.0</ele><time>2026-04-04T14:14:58.001Z</time></trkpt><trkpt lat="43.12083743021764" lon="12.904054764631539"><ele>1022.6666666666666</ele><time>2026-04-04T14:15:12.001Z</time></trkpt><trkpt lat="43.12084115991539" lon="12.90393463371491"><ele>1019.3333333333333</ele><time>2026-04-04T14:15:41Z</time></trkpt><trkpt lat="43.12083119224148" lon="12.903818014975968"><ele>1016.0</ele><time>2026-04-04T14:17:06.999Z</time></trkpt><trkpt lat="43.12084191236525" lon="12.903731299140341"><ele>1012.6666666666666</ele><time>2026-04-04T14:17:07.999Z</time></trkpt><trkpt lat="43.12087636315644" lon="12.903607438672516"><ele>1009.3333333333333</ele><time>2026-04-04T14:17:09.999Z</time></trkpt><trkpt lat="43.12090268523002" lon="12.903495342110006"><ele>1006.0</ele><time>2026-04-04T14:17:11.999Z</time></trkpt><trkpt lat="43.12093108750625" lon="12.903373008333693"><ele>1004.1999999999999</ele><time>2026-04-04T14:17:13.999Z</time></trkpt><trkpt lat="43.1209826732394" lon="12.903289184611625"><ele>1002.3999999999999</ele><time>2026-04-04T14:17:15.999Z</time></trkpt><trkpt lat="43.12104744944192" lon="12.903177130246391"><ele>1000.6</ele><time>2026-04-04T14:17:17.999Z</time></trkpt><trkpt lat="43.12114331783386" lon="12.903080315307179"><ele>998.8</ele><time>2026-04-04T14:17:19.999Z</time></trkpt><trkpt lat="43.12124139574869" lon="12.902989482085902"><ele>997.0</ele><time>2026-04-04T14:17:21.999Z</time></trkpt><trkpt lat="43.12129354838643" lon="12.902939900124242"><ele>997.0</ele><time>2026-04-04T14:17:23.999Z</time></trkpt><trkpt lat="43.121334911278616" lon="12.902871444893448"><ele>997.0</ele><time>2026-04-04T14:17:24.999Z</time></trkpt><trkpt lat="43.12138343003385" lon="12.902766143905382"><ele>997.0</ele><time>2026-04-04T14:17:26.999Z</time></trkpt><trkpt lat="43.12147527886643" lon="12.902609564528822"><ele>997.0</ele><time>2026-04-04T14:17:28.999Z</time></trkpt><trkpt lat="43.121553377853814" lon="12.902531406303721"><ele>997.0</ele><time>2026-04-04T14:17:29.999Z</time></trkpt><trkpt lat="43.12162608269916" lon="12.902440345149547"><ele>991.4000000000001</ele><time>2026-04-04T14:17:30.999Z</time></trkpt><trkpt lat="43.121702704909744" lon="12.902364633791901"><ele>985.8000000000001</ele><time>2026-04-04T14:17:31.999Z</time></trkpt><trkpt lat="43.12178380646301" lon="12.902273876826817"><ele>980.2</ele><time>2026-04-04T14:17:32.999Z</time></trkpt><trkpt lat="43.12183624910239" lon="12.902174402327388"><ele>974.6</ele><time>2026-04-04T14:17:33.999Z</time></trkpt><trkpt lat="43.12189535764023" lon="12.90206333220223"><ele>969.0</ele><time>2026-04-04T14:17:34.999Z</time></trkpt><trkpt lat="43.12193142146502" lon="12.901979771120635"><ele>969.0</ele><time>2026-04-04T14:17:35.999Z</time></trkpt><trkpt lat="43.122027057014336" lon="12.901885131016822"><ele>969.0</ele><time>2026-04-04T14:17:37.999Z</time></trkpt><trkpt lat="43.122091309945205" lon="12.90182941909137"><ele>969.0</ele><time>2026-04-04T14:17:38.999Z</time></trkpt><trkpt lat="43.122159087372495" lon="12.901777191994597"><ele>969.0</ele><time>2026-04-04T14:17:39.999Z</time></trkpt><trkpt lat="43.12224900672483" lon="12.901720484437122"><ele>969.0</ele><time>2026-04-04T14:17:40.999Z</time></trkpt><trkpt lat="43.12231921502901" lon="12.901674281123556"><ele>969.0</ele><time>2026-04-04T14:17:41.999Z</time></trkpt><trkpt lat="43.12240273829959" lon="12.901619254506494"><ele>964.0</ele><time>2026-04-04T14:17:42.999Z</time></trkpt><trkpt lat="43.1224731454169" lon="12.901553413572417"><ele>959.0</ele><time>2026-04-04T14:17:43.999Z</time></trkpt><trkpt lat="43.122542639750115" lon="12.901488451716997"><ele>954.0</ele><time>2026-04-04T14:17:44.999Z</time></trkpt><trkpt lat="43.122598086025896" lon="12.901430356515762"><ele>949.0</ele><time>2026-04-04T14:17:45.999Z</time></trkpt><trkpt lat="43.122661859245014" lon="12.901375478393748"><ele>944.0</ele><time>2026-04-04T14:17:46.999Z</time></trkpt><trkpt lat="43.12275773298913" lon="12.901331322313965"><ele>939.0</ele><time>2026-04-04T14:17:48.999Z</time></trkpt><trkpt lat="43.12284742066764" lon="12.901303018646074"><ele>939.0</ele><time>2026-04-04T14:17:50.999Z</time></trkpt><trkpt lat="43.12292744053071" lon="12.901275612809188"><ele>939.0</ele><time>2026-04-04T14:17:52.999Z</time></trkpt><trkpt lat="43.12300066730009" lon="12.901261710121123"><ele>939.0</ele><time>2026-04-04T14:17:54.999Z</time></trkpt><trkpt lat="43.123068938043154" lon="12.901250152616333"><ele>939.0</ele><time>2026-04-04T14:17:57.999Z</time></trkpt><trkpt lat="43.12313625839694" lon="12.901245578998855"><ele>939.0</ele><time>2026-04-04T14:18:02.999Z</time></trkpt><trkpt lat="43.12320331612505" lon="12.901234809860824"><ele>939.0</ele><time>2026-04-04T14:18:05.999Z</time></trkpt><trkpt lat="43.12326649181144" lon="12.90120946291861"><ele>939.0</ele><time>2026-04-04T14:18:08.999Z</time></trkpt><trkpt lat="43.123327236268565" lon="12.90116046667507"><ele>932.6666666666666</ele><time>2026-04-04T14:18:11.999Z</time></trkpt><trkpt lat="43.12339366035876" lon="12.901136069988873"><ele>926.3333333333333</ele><time>2026-04-04T14:18:13.999Z</time></trkpt><trkpt lat="43.123461938696835" lon="12.901135716770456"><ele>920.0</ele><time>2026-04-04T14:18:15.999Z</time></trkpt><trkpt lat="43.123557689538245" lon="12.901120863315468"><ele>913.6666666666666</ele><time>2026-04-04T14:18:18.999Z</time></trkpt><trkpt lat="43.123625640787765" lon="12.901098019822376"><ele>907.3333333333333</ele><time>2026-04-04T14:18:20.999Z</time></trkpt><trkpt lat="43.123703867743906" lon="12.901096333313337"><ele>901.0</ele><time>2026-04-04T14:18:23.999Z</time></trkpt><trkpt lat="43.12378059472643" lon="12.901080751081112"><ele>900.9999999999999</ele><time>2026-04-04T14:18:26.999Z</time></trkpt><trkpt lat="43.123855106287465" lon="12.901067321975631"><ele>901.0</ele><time>2026-04-04T14:18:29.999Z</time></trkpt><trkpt lat="43.123919415881915" lon="12.90105102518574"><ele>901.0</ele><time>2026-04-04T14:18:31.999Z</time></trkpt><trkpt lat="43.123990005690565" lon="12.901005837852818"><ele>901.0</ele><time>2026-04-04T14:18:34.999Z</time></trkpt><trkpt lat="43.124102620271834" lon="12.900975462754298"><ele>900.9999999999999</ele><time>2026-04-04T14:18:36.999Z</time></trkpt><trkpt lat="43.124176832470376" lon="12.900908796292024"><ele>901.0</ele><time>2026-04-04T14:18:38.999Z</time></trkpt><trkpt lat="43.124256201140945" lon="12.900860017045579"><ele>897.9999999999999</ele><time>2026-04-04T14:18:40.999Z</time></trkpt><trkpt lat="43.124321335898856" lon="12.900834077591764"><ele>895.0</ele><time>2026-04-04T14:18:41.999Z</time></trkpt><trkpt lat="43.124384319111805" lon="12.900801112442503"><ele>892.0</ele><time>2026-04-04T14:18:42.999Z</time></trkpt><trkpt lat="43.12448903042991" lon="12.900748702563748"><ele>889.0</ele><time>2026-04-04T14:18:44.999Z</time></trkpt><trkpt lat="43.12456226798188" lon="12.900698805423534"><ele>885.9999999999999</ele><time>2026-04-04T14:18:46.999Z</time></trkpt><trkpt lat="43.124624432971956" lon="12.900671275848904"><ele>883.0</ele><time>2026-04-04T14:18:48.999Z</time></trkpt><trkpt lat="43.12471862347634" lon="12.900595426300004"><ele>882.9999999999999</ele><time>2026-04-04T14:18:51.999Z</time></trkpt><trkpt lat="43.12476622580891" lon="12.900528392714689"><ele>883.0</ele><time>2026-04-04T14:18:53.999Z</time></trkpt><trkpt lat="43.12483537663648" lon="12.900490550947037"><ele>883.0</ele><time>2026-04-04T14:18:54.999Z</time></trkpt><trkpt lat="43.12494204433367" lon="12.900472496185017"><ele>883.0</ele><time>2026-04-04T14:18:56.999Z</time></trkpt><trkpt lat="43.12501633308435" lon="12.900389316188637"><ele>882.9999999999999</ele><time>2026-04-04T14:18:58.999Z</time></trkpt><trkpt lat="43.12510027300259" lon="12.90035289429816"><ele>883.0</ele><time>2026-04-04T14:19:00.999Z</time></trkpt><trkpt lat="43.12517037764519" lon="12.90033086749426"><ele>878.4285714285714</ele><time>2026-04-04T14:19:01.999Z</time></trkpt><trkpt lat="43.125242429801084" lon="12.900329878488009"><ele>873.8571428571428</ele><time>2026-04-04T14:19:02.999Z</time></trkpt><trkpt lat="43.12532306031909" lon="12.900319360383467"><ele>869.2857142857142</ele><time>2026-04-04T14:19:03.999Z</time></trkpt><trkpt lat="43.125394412837714" lon="12.900307471447048"><ele>864.7142857142858</ele><time>2026-04-04T14:19:04.999Z</time></trkpt><trkpt lat="43.12546971380965" lon="12.900296085461802"><ele>860.1428571428571</ele><time>2026-04-04T14:19:05.999Z</time></trkpt><trkpt lat="43.12554216180471" lon="12.900284897140594"><ele>855.5714285714286</ele><time>2026-04-04T14:19:07Z</time></trkpt><trkpt lat="43.12560829832743" lon="12.900243599837534"><ele>851.0</ele><time>2026-04-04T14:19:08Z</time></trkpt><trkpt lat="43.12569323668257" lon="12.90015987465942"><ele>849.8</ele><time>2026-04-04T14:19:10Z</time></trkpt><trkpt lat="43.12578949447094" lon="12.90021146447196"><ele>848.5999999999999</ele><time>2026-04-04T14:19:12Z</time></trkpt><trkpt lat="43.12585707900273" lon="12.900197835831284"><ele>847.4</ele><time>2026-04-04T14:19:14Z</time></trkpt><trkpt lat="43.125982522787986" lon="12.900104585912459"><ele>846.2</ele><time>2026-04-04T14:19:16Z</time></trkpt><trkpt lat="43.126054856044796" lon="12.900057416300355"><ele>845.0</ele><time>2026-04-04T14:19:17Z</time></trkpt><trkpt lat="43.12609905467177" lon="12.899987391216195"><ele>841.0000000000001</ele><time>2026-04-04T14:19:18Z</time></trkpt><trkpt lat="43.12614005088134" lon="12.899905781176408"><ele>837.0</ele><time>2026-04-04T14:19:19Z</time></trkpt><trkpt lat="43.126205375618646" lon="12.89980211713077"><ele>833.0</ele><time>2026-04-04T14:19:20Z</time></trkpt><trkpt lat="43.12625157290161" lon="12.8997052758095"><ele>829.0</ele><time>2026-04-04T14:19:21Z</time></trkpt><trkpt lat="43.12629834179596" lon="12.899620571794678"><ele>825.0000000000001</ele><time>2026-04-04T14:19:22Z</time></trkpt><trkpt lat="43.12634955503331" lon="12.899529333761887"><ele>821.0</ele><time>2026-04-04T14:19:23Z</time></trkpt><trkpt lat="43.12639077704551" lon="12.899438587342859"><ele>821.0</ele><time>2026-04-04T14:19:24Z</time></trkpt><trkpt lat="43.12645678250698" lon="12.89935230468142"><ele>821.0</ele><time>2026-04-04T14:19:25Z</time></trkpt><trkpt lat="43.12653024455029" lon="12.899281972752718"><ele>821.0</ele><time>2026-04-04T14:19:26Z</time></trkpt><trkpt lat="43.12659786501057" lon="12.899199545259444"><ele>821.0</ele><time>2026-04-04T14:19:27Z</time></trkpt><trkpt lat="43.12667552599619" lon="12.899141971927172"><ele>821.0</ele><time>2026-04-04T14:19:28Z</time></trkpt><trkpt lat="43.12675288184987" lon="12.899075656955961"><ele>817.0</ele><time>2026-04-04T14:19:29Z</time></trkpt><trkpt lat="43.12680891188177" lon="12.899023133353149"><ele>813.0</ele><time>2026-04-04T14:19:30Z</time></trkpt><trkpt lat="43.126917464492294" lon="12.898892833866373"><ele>809.0</ele><time>2026-04-04T14:19:32Z</time></trkpt><trkpt lat="43.12699156438158" lon="12.898821475861668"><ele>805.0</ele><time>2026-04-04T14:19:33Z</time></trkpt><trkpt lat="43.12708106706162" lon="12.898747420849515"><ele>801.0</ele><time>2026-04-04T14:19:34Z</time></trkpt><trkpt lat="43.1271493242914" lon="12.898660498774397"><ele>801.0</ele><time>2026-04-04T14:19:35Z</time></trkpt><trkpt lat="43.12722354907736" lon="12.898593389743926"><ele>801.0</ele><time>2026-04-04T14:19:36Z</time></trkpt><trkpt lat="43.12732748725281" lon="12.898539498739053"><ele>801.0</ele><time>2026-04-04T14:19:37Z</time></trkpt><trkpt lat="43.12742274356784" lon="12.89849099589074"><ele>801.0</ele><time>2026-04-04T14:19:38Z</time></trkpt><trkpt lat="43.12750179306495" lon="12.898429969639446"><ele>801.0</ele><time>2026-04-04T14:19:39Z</time></trkpt><trkpt lat="43.127576154221536" lon="12.89836498489685"><ele>796.8</ele><time>2026-04-04T14:19:39.999Z</time></trkpt><trkpt lat="43.12766732997937" lon="12.898317258772877"><ele>792.5999999999999</ele><time>2026-04-04T14:19:40.999Z</time></trkpt><trkpt lat="43.12775914873301" lon="12.898290928443599"><ele>788.4</ele><time>2026-04-04T14:19:41.999Z</time></trkpt><trkpt lat="43.12785410050246" lon="12.898249746630887"><ele>784.2</ele><time>2026-04-04T14:19:42.999Z</time></trkpt><trkpt lat="43.12794959288972" lon="12.898205106244264"><ele>780.0</ele><time>2026-04-04T14:19:43.999Z</time></trkpt><trkpt lat="43.12803938401932" lon="12.898152691399787"><ele>780.0</ele><time>2026-04-04T14:19:44.999Z</time></trkpt><trkpt lat="43.12812955479396" lon="12.898094595823908"><ele>780.0</ele><time>2026-04-04T14:19:45.999Z</time></trkpt><trkpt lat="43.128210217950034" lon="12.89804327505653"><ele>780.0</ele><time>2026-04-04T14:19:46.999Z</time></trkpt><trkpt lat="43.12829791932579" lon="12.897991595461422"><ele>780.0</ele><time>2026-04-04T14:19:48.999Z</time></trkpt><trkpt lat="43.128357445367094" lon="12.897883032059843"><ele>780.0</ele><time>2026-04-04T14:20:21.999Z</time></trkpt><trkpt lat="43.128389695882746" lon="12.897654991008531"><ele>775.75</ele><time>2026-04-04T14:20:23.999Z</time></trkpt><trkpt lat="43.12841430219021" lon="12.897495532496983"><ele>771.5</ele><time>2026-04-04T14:20:24.999Z</time></trkpt><trkpt lat="43.12845356580898" lon="12.897316056235448"><ele>767.25</ele><time>2026-04-04T14:20:25.999Z</time></trkpt><trkpt lat="43.12851225691191" lon="12.89714788922993"><ele>763.0</ele><time>2026-04-04T14:20:26.999Z</time></trkpt><trkpt lat="43.12858881538554" lon="12.897003370833087"><ele>763.0</ele><time>2026-04-04T14:20:27.999Z</time></trkpt><trkpt lat="43.128668075921546" lon="12.896873732191045"><ele>763.0</ele><time>2026-04-04T14:20:28.999Z</time></trkpt><trkpt lat="43.12875716703724" lon="12.896750748183909"><ele>763.0</ele><time>2026-04-04T14:20:29.999Z</time></trkpt><trkpt lat="43.128850215306" lon="12.896625939034605"><ele>763.0</ele><time>2026-04-04T14:20:30.999Z</time></trkpt><trkpt lat="43.128926500429436" lon="12.8964894879714"><ele>762.75</ele><time>2026-04-04T14:20:31.999Z</time></trkpt><trkpt lat="43.12899544254251" lon="12.896347700445466"><ele>762.5</ele><time>2026-04-04T14:20:32.999Z</time></trkpt><trkpt lat="43.129054591072915" lon="12.89619472199893"><ele>762.25</ele><time>2026-04-04T14:20:33.999Z</time></trkpt><trkpt lat="43.12910318143822" lon="12.896042482172422"><ele>762.0</ele><time>2026-04-04T14:20:34.999Z</time></trkpt><trkpt lat="43.1291382144299" lon="12.895885176686667"><ele>761.5</ele><time>2026-04-04T14:20:35.999Z</time></trkpt><trkpt lat="43.12914617972763" lon="12.89571589265491"><ele>761.0</ele><time>2026-04-04T14:20:36.999Z</time></trkpt><trkpt lat="43.1291222844151" lon="12.895551706875738"><ele>760.5</ele><time>2026-04-04T14:20:37.999Z</time></trkpt><trkpt lat="43.12907884432516" lon="12.895396370515247"><ele>760.0</ele><time>2026-04-04T14:20:38.999Z</time></trkpt><trkpt lat="43.1290441361368" lon="12.895254546508191"><ele>759.0</ele><time>2026-04-04T14:20:39.999Z</time></trkpt><trkpt lat="43.129025510483274" lon="12.895111890160297"><ele>758.0</ele><time>2026-04-04T14:20:40.999Z</time></trkpt><trkpt lat="43.129029548117714" lon="12.894958647260127"><ele>757.0</ele><time>2026-04-04T14:20:41.999Z</time></trkpt><trkpt lat="43.12904616117036" lon="12.894796219206702"><ele>756.0</ele><time>2026-04-04T14:20:42.999Z</time></trkpt><trkpt lat="43.12906630822389" lon="12.894626276245607"><ele>756.0</ele><time>2026-04-04T14:20:43.999Z</time></trkpt><trkpt lat="43.129099467203034" lon="12.894441869188308"><ele>756.0</ele><time>2026-04-04T14:20:44.999Z</time></trkpt><trkpt lat="43.12915551699521" lon="12.894255632111921"><ele>756.0</ele><time>2026-04-04T14:20:45.999Z</time></trkpt><trkpt lat="43.12920520122032" lon="12.894078528303684"><ele>756.0</ele><time>2026-04-04T14:20:46.999Z</time></trkpt><trkpt lat="43.129239057872894" lon="12.89389613008184"><ele>754.0</ele><time>2026-04-04T14:20:47.999Z</time></trkpt><trkpt lat="43.12925708905625" lon="12.893720980256228"><ele>752.0</ele><time>2026-04-04T14:20:48.999Z</time></trkpt><trkpt lat="43.12926742230219" lon="12.893532529737085"><ele>750.0</ele><time>2026-04-04T14:20:49.999Z</time></trkpt><trkpt lat="43.129285411754154" lon="12.893349640633682"><ele>748.0</ele><time>2026-04-04T14:20:50.999Z</time></trkpt><trkpt lat="43.1293169951327" lon="12.893163929707327"><ele>745.0</ele><time>2026-04-04T14:20:51.999Z</time></trkpt><trkpt lat="43.129353025493515" lon="12.892998104897973"><ele>742.0</ele><time>2026-04-04T14:20:52.999Z</time></trkpt><trkpt lat="43.12938787025595" lon="12.892819981599143"><ele>739.0</ele><time>2026-04-04T14:20:53.999Z</time></trkpt><trkpt lat="43.129420923079756" lon="12.892657703999772"><ele>736.0</ele><time>2026-04-04T14:20:54.999Z</time></trkpt><trkpt lat="43.12945840171146" lon="12.8924962060475"><ele>734.5999999999999</ele><time>2026-04-04T14:20:55.999Z</time></trkpt><trkpt lat="43.12949527510621" lon="12.892348909955105"><ele>733.2</ele><time>2026-04-04T14:20:56.999Z</time></trkpt><trkpt lat="43.1295396931752" lon="12.892233164835263"><ele>731.8</ele><time>2026-04-04T14:20:57.999Z</time></trkpt><trkpt lat="43.12961226853383" lon="12.892139293863401"><ele>730.4000000000001</ele><time>2026-04-04T14:20:58.999Z</time></trkpt><trkpt lat="43.129709499130264" lon="12.892003874784056"><ele>729.0</ele><time>2026-04-04T14:20:59.999Z</time></trkpt><trkpt lat="43.12978447417252" lon="12.891866601942287"><ele>729.5</ele><time>2026-04-04T14:21:00.999Z</time></trkpt><trkpt lat="43.12985969184613" lon="12.891711847679698"><ele>730.0</ele><time>2026-04-04T14:21:01.999Z</time></trkpt><trkpt lat="43.12992899672358" lon="12.891559259331798"><ele>730.5</ele><time>2026-04-04T14:21:02.999Z</time></trkpt><trkpt lat="43.12999340687009" lon="12.891407739564695"><ele>731.0</ele><time>2026-04-04T14:21:03.999Z</time></trkpt><trkpt lat="43.1300540247497" lon="12.891250943216216"><ele>731.0</ele><time>2026-04-04T14:21:04.999Z</time></trkpt><trkpt lat="43.13007980477493" lon="12.891113080365889"><ele>731.0</ele><time>2026-04-04T14:21:05.999Z</time></trkpt><trkpt lat="43.13007335365286" lon="12.890979993973682"><ele>731.0</ele><time>2026-04-04T14:21:06.999Z</time></trkpt><trkpt lat="43.13006067618359" lon="12.89084317551628"><ele>731.0</ele><time>2026-04-04T14:21:07.999Z</time></trkpt><trkpt lat="43.13004530247418" lon="12.890694673852828"><ele>731.0</ele><time>2026-04-04T14:21:08.999Z</time></trkpt><trkpt lat="43.13004559318103" lon="12.89055295601673"><ele>726.8</ele><time>2026-04-04T14:21:09.999Z</time></trkpt><trkpt lat="43.130075385185144" lon="12.890420553131905"><ele>722.5999999999999</ele><time>2026-04-04T14:21:10.999Z</time></trkpt><trkpt lat="43.130116124076125" lon="12.890275497212281"><ele>718.4</ele><time>2026-04-04T14:21:11.999Z</time></trkpt><trkpt lat="43.130164812859626" lon="12.890126831411475"><ele>714.2</ele><time>2026-04-04T14:21:13Z</time></trkpt><trkpt lat="43.130208335316745" lon="12.890016129175454"><ele>710.0</ele><time>2026-04-04T14:21:14Z</time></trkpt><trkpt lat="43.13025235583667" lon="12.889921050843665"><ele>710.0</ele><time>2026-04-04T14:21:15Z</time></trkpt><trkpt lat="43.130274580067" lon="12.88981879692391"><ele>710.0</ele><time>2026-04-04T14:21:17Z</time></trkpt><trkpt lat="43.13020478269635" lon="12.889840206256867"><ele>710.0</ele><time>2026-04-04T14:21:19Z</time></trkpt><trkpt lat="43.130110909712684" lon="12.889898453708316"><ele>710.0</ele><time>2026-04-04T14:21:21Z</time></trkpt><trkpt lat="43.13002953094174" lon="12.889983518307302"><ele>710.0</ele><time>2026-04-04T14:21:22Z</time></trkpt><trkpt lat="43.12995027432703" lon="12.890101961475013"><ele>713.0</ele><time>2026-04-04T14:21:23Z</time></trkpt><trkpt lat="43.12986876168129" lon="12.890207092329254"><ele>716.0</ele><time>2026-04-04T14:21:24Z</time></trkpt><trkpt lat="43.12977873928161" lon="12.890268877702878"><ele>719.0</ele><time>2026-04-04T14:21:25Z</time></trkpt><trkpt lat="43.12968290801324" lon="12.890288119533764"><ele>722.0</ele><time>2026-04-04T14:21:26Z</time></trkpt><trkpt lat="43.129615939161184" lon="12.890314149189248"><ele>725.0</ele><time>2026-04-04T14:21:27Z</time></trkpt><trkpt lat="43.12954286170872" lon="12.890258246805576"><ele>725.0</ele><time>2026-04-04T14:21:28Z</time></trkpt><trkpt lat="43.12949160094572" lon="12.890150799492424"><ele>725.0</ele><time>2026-04-04T14:21:29Z</time></trkpt><trkpt lat="43.12946970880356" lon="12.890006658032673"><ele>725.0</ele><time>2026-04-04T14:21:30Z</time></trkpt><trkpt lat="43.129471675038054" lon="12.88987138144696"><ele>725.0</ele><time>2026-04-04T14:21:31Z</time></trkpt><trkpt lat="43.129488059703235" lon="12.889765703007392"><ele>725.0</ele><time>2026-04-04T14:21:32Z</time></trkpt><trkpt lat="43.12956067532653" lon="12.88965823982739"><ele>721.3333333333333</ele><time>2026-04-04T14:21:33Z</time></trkpt><trkpt lat="43.12968288135787" lon="12.889514524175011"><ele>717.6666666666666</ele><time>2026-04-04T14:21:34Z</time></trkpt><trkpt lat="43.12976336336178" lon="12.889348506658168"><ele>714.0</ele><time>2026-04-04T14:21:35Z</time></trkpt><trkpt lat="43.12983722737084" lon="12.889169009759813"><ele>706.0</ele><time>2026-04-04T14:21:36Z</time></trkpt><trkpt lat="43.12989754992578" lon="12.889012470745099"><ele>698.0</ele><time>2026-04-04T14:21:37Z</time></trkpt><trkpt lat="43.12995595515952" lon="12.88887117133809"><ele>690.0</ele><time>2026-04-04T14:21:38Z</time></trkpt><trkpt lat="43.130005196622" lon="12.888724361970219"><ele>682.0</ele><time>2026-04-04T14:21:39Z</time></trkpt><trkpt lat="43.13003675464329" lon="12.88859332889278"><ele>682.0</ele><time>2026-04-04T14:21:40Z</time></trkpt><trkpt lat="43.130070376046476" lon="12.888492236589752"><ele>682.0</ele><time>2026-04-04T14:21:41Z</time></trkpt><trkpt lat="43.13008526426097" lon="12.888384947190836"><ele>682.0</ele><time>2026-04-04T14:21:42Z</time></trkpt><trkpt lat="43.13009217130851" lon="12.888294696882511"><ele>682.0</ele><time>2026-04-04T14:21:43Z</time></trkpt><trkpt lat="43.13007565627451" lon="12.888127056304757"><ele>682.0</ele><time>2026-04-04T14:21:45Z</time></trkpt><trkpt lat="43.13007530919201" lon="12.888017825425699"><ele>682.0</ele><time>2026-04-04T14:21:46Z</time></trkpt><trkpt lat="43.130079157492325" lon="12.887904844682797"><ele>681.5</ele><time>2026-04-04T14:21:47Z</time></trkpt><trkpt lat="43.13008321224253" lon="12.887797824104073"><ele>681.0</ele><time>2026-04-04T14:21:48Z</time></trkpt><trkpt lat="43.1300879731449" lon="12.887698634285822"><ele>680.5</ele><time>2026-04-04T14:21:49Z</time></trkpt><trkpt lat="43.13008603733521" lon="12.887604277731965"><ele>680.0</ele><time>2026-04-04T14:21:50Z</time></trkpt><trkpt lat="43.13007822380467" lon="12.887504414953474"><ele>679.5</ele><time>2026-04-04T14:21:51Z</time></trkpt><trkpt lat="43.13006648736557" lon="12.88741128659496"><ele>679.0</ele><time>2026-04-04T14:21:52Z</time></trkpt><trkpt lat="43.130097506319885" lon="12.887275038469816"><ele>676.8000000000001</ele><time>2026-04-04T14:21:54Z</time></trkpt><trkpt lat="43.13021769747986" lon="12.887235892348258"><ele>674.6</ele><time>2026-04-04T14:21:56Z</time></trkpt><trkpt lat="43.13030183370197" lon="12.88718201077169"><ele>672.4</ele><time>2026-04-04T14:21:58Z</time></trkpt><trkpt lat="43.13034868634227" lon="12.887123777418545"><ele>670.2</ele><time>2026-04-04T14:21:59Z</time></trkpt><trkpt lat="43.130415551207115" lon="12.887037163248785"><ele>668.0</ele><time>2026-04-04T14:22:00Z</time></trkpt><trkpt lat="43.130495685991" lon="12.886945740035152"><ele>668.0</ele><time>2026-04-04T14:22:01Z</time></trkpt><trkpt lat="43.13057819632803" lon="12.88685466864928"><ele>668.0</ele><time>2026-04-04T14:22:02Z</time></trkpt><trkpt lat="43.13066021046446" lon="12.886771116020324"><ele>668.0</ele><time>2026-04-04T14:22:03Z</time></trkpt><trkpt lat="43.13075481171606" lon="12.886709744411366"><ele>668.0</ele><time>2026-04-04T14:22:04Z</time></trkpt><trkpt lat="43.130862167231456" lon="12.886663055220632"><ele>668.0</ele><time>2026-04-04T14:22:05Z</time></trkpt><trkpt lat="43.13098760265801" lon="12.88664962220453"><ele>668.25</ele><time>2026-04-04T14:22:06Z</time></trkpt><trkpt lat="43.13111860158216" lon="12.886608839207726"><ele>668.5</ele><time>2026-04-04T14:22:07Z</time></trkpt><trkpt lat="43.13123183199753" lon="12.886520923070833"><ele>668.75</ele><time>2026-04-04T14:22:08Z</time></trkpt><trkpt lat="43.13133184301575" lon="12.886396401956395"><ele>669.0</ele><time>2026-04-04T14:22:09Z</time></trkpt><trkpt lat="43.13142426693948" lon="12.886249983723093"><ele>669.0</ele><time>2026-04-04T14:22:10Z</time></trkpt><trkpt lat="43.13151453615899" lon="12.886107371949446"><ele>669.0</ele><time>2026-04-04T14:22:11Z</time></trkpt><trkpt lat="43.13160861180075" lon="12.885976642283909"><ele>669.0</ele><time>2026-04-04T14:22:12Z</time></trkpt><trkpt lat="43.13169935470301" lon="12.885857062417163"><ele>669.0</ele><time>2026-04-04T14:22:13Z</time></trkpt><trkpt lat="43.13178464367036" lon="12.88575252637997"><ele>667.0</ele><time>2026-04-04T14:22:14Z</time></trkpt><trkpt lat="43.131872574366895" lon="12.885675004924494"><ele>665.0</ele><time>2026-04-04T14:22:15Z</time></trkpt><trkpt lat="43.13197453944415" lon="12.88560783731334"><ele>663.0</ele><time>2026-04-04T14:22:16Z</time></trkpt><trkpt lat="43.13209667548861" lon="12.885568479247144"><ele>661.0</ele><time>2026-04-04T14:22:17Z</time></trkpt><trkpt lat="43.13220521591497" lon="12.885558577858724"><ele>661.0</ele><time>2026-04-04T14:22:18Z</time></trkpt><trkpt lat="43.13230642585852" lon="12.885541311626413"><ele>661.0</ele><time>2026-04-04T14:22:19Z</time></trkpt><trkpt lat="43.13240605941244" lon="12.885508328978437"><ele>661.0</ele><time>2026-04-04T14:22:20Z</time></trkpt><trkpt lat="43.1324960520531" lon="12.885454727544412"><ele>661.0</ele><time>2026-04-04T14:22:21Z</time></trkpt><trkpt lat="43.13258047203586" lon="12.88540492449308"><ele>661.0</ele><time>2026-04-04T14:22:22Z</time></trkpt><trkpt lat="43.132658396564814" lon="12.885340984641651"><ele>659.8</ele><time>2026-04-04T14:22:23Z</time></trkpt><trkpt lat="43.13273085537106" lon="12.885269442818583"><ele>658.5999999999999</ele><time>2026-04-04T14:22:24Z</time></trkpt><trkpt lat="43.13280629701726" lon="12.885192096939525"><ele>657.4</ele><time>2026-04-04T14:22:25Z</time></trkpt><trkpt lat="43.132888305084705" lon="12.885113150926045"><ele>656.2</ele><time>2026-04-04T14:22:25.999Z</time></trkpt><trkpt lat="43.13297294354983" lon="12.8850343947701"><ele>655.0</ele><time>2026-04-04T14:22:26.999Z</time></trkpt><trkpt lat="43.133057131112096" lon="12.884969880650331"><ele>655.0</ele><time>2026-04-04T14:22:27.999Z</time></trkpt><trkpt lat="43.13313741604973" lon="12.88492337057813"><ele>655.0</ele><time>2026-04-04T14:22:28.999Z</time></trkpt><trkpt lat="43.133219073882856" lon="12.884897562945858"><ele>655.0</ele><time>2026-04-04T14:22:29.999Z</time></trkpt><trkpt lat="43.13329306083335" lon="12.884874043935648"><ele>655.0</ele><time>2026-04-04T14:22:30.999Z</time></trkpt><trkpt lat="43.13335599644274" lon="12.884851620953267"><ele>655.0</ele><time>2026-04-04T14:22:31.999Z</time></trkpt><trkpt lat="43.13344544481805" lon="12.884812549241586"><ele>655.0</ele><time>2026-04-04T14:22:33.999Z</time></trkpt><trkpt lat="43.13350809404336" lon="12.884795373986941"><ele>655.0</ele><time>2026-04-04T14:22:35.999Z</time></trkpt><trkpt lat="43.133570011482476" lon="12.884830043325262"><ele>655.0</ele><time>2026-04-04T14:22:38.999Z</time></trkpt><trkpt lat="43.13365529068753" lon="12.884883261967712"><ele>655.0</ele><time>2026-04-04T14:22:40.999Z</time></trkpt><trkpt lat="43.133719009961474" lon="12.884899818514034"><ele>655.0</ele><time>2026-04-04T14:22:41.999Z</time></trkpt><trkpt lat="43.133807934758266" lon="12.884943948513552"><ele>655.0</ele><time>2026-04-04T14:22:43.999Z</time></trkpt><trkpt lat="43.133917393073645" lon="12.884957156017927"><ele>655.0</ele><time>2026-04-04T14:22:45.999Z</time></trkpt><trkpt lat="43.133983075768576" lon="12.884974996564122"><ele>657.0</ele><time>2026-04-04T14:22:46.999Z</time></trkpt><trkpt lat="43.134076425985164" lon="12.8849980167877"><ele>659.0</ele><time>2026-04-04T14:22:48.999Z</time></trkpt><trkpt lat="43.13413763713523" lon="12.884963006550038"><ele>661.0</ele><time>2026-04-04T14:22:50.999Z</time></trkpt><trkpt lat="43.13416304618386" lon="12.884834367357323"><ele>663.0</ele><time>2026-04-04T14:22:52.999Z</time></trkpt><trkpt lat="43.134211148160404" lon="12.884686079759515"><ele>665.0</ele><time>2026-04-04T14:22:54.999Z</time></trkpt><trkpt lat="43.134270301113695" lon="12.884640220405085"><ele>667.0</ele><time>2026-04-04T14:22:55.999Z</time></trkpt><trkpt lat="43.13433902839078" lon="12.884597703590016"><ele>667.0</ele><time>2026-04-04T14:22:56.999Z</time></trkpt><trkpt lat="43.134399078792235" lon="12.884541059581819"><ele>667.0</ele><time>2026-04-04T14:22:57.999Z</time></trkpt><trkpt lat="43.134458039207786" lon="12.884490534558443"><ele>667.0</ele><time>2026-04-04T14:22:58.999Z</time></trkpt><trkpt lat="43.134544458706465" lon="12.88442272421332"><ele>667.0</ele><time>2026-04-04T14:22:59.999Z</time></trkpt><trkpt lat="43.13464166527041" lon="12.884330802115622"><ele>667.0</ele><time>2026-04-04T14:23:00.999Z</time></trkpt><trkpt lat="43.1347324262115" lon="12.884234657396682"><ele>667.6</ele><time>2026-04-04T14:23:01.999Z</time></trkpt><trkpt lat="43.134822993791744" lon="12.884160723866835"><ele>668.2</ele><time>2026-04-04T14:23:02.999Z</time></trkpt><trkpt lat="43.13490565902964" lon="12.884100597116742"><ele>668.8</ele><time>2026-04-04T14:23:03.999Z</time></trkpt><trkpt lat="43.1350028341529" lon="12.884038002405493"><ele>669.4</ele><time>2026-04-04T14:23:04.999Z</time></trkpt><trkpt lat="43.13510509804447" lon="12.883988715077818"><ele>670.0</ele><time>2026-04-04T14:23:05.999Z</time></trkpt><trkpt lat="43.13519329619308" lon="12.883949191566156"><ele>670.0</ele><time>2026-04-04T14:23:06.999Z</time></trkpt><trkpt lat="43.13527772597782" lon="12.883928802257525"><ele>670.0</ele><time>2026-04-04T14:23:07.999Z</time></trkpt><trkpt lat="43.135345033993225" lon="12.883912559747491"><ele>670.0</ele><time>2026-04-04T14:23:08.999Z</time></trkpt><trkpt lat="43.135436777924106" lon="12.88390460912568"><ele>670.0</ele><time>2026-04-04T14:23:09.999Z</time></trkpt><trkpt lat="43.13553846226411" lon="12.88390932193424"><ele>670.0</ele><time>2026-04-04T14:23:10.999Z</time></trkpt><trkpt lat="43.13563474376608" lon="12.883909211861083"><ele>670.0</ele><time>2026-04-04T14:23:11.999Z</time></trkpt><trkpt lat="43.13574066082375" lon="12.883916560903328"><ele>673.25</ele><time>2026-04-04T14:23:12.999Z</time></trkpt><trkpt lat="43.1358585841416" lon="12.883945827374678"><ele>676.5</ele><time>2026-04-04T14:23:13.999Z</time></trkpt><trkpt lat="43.13597383844682" lon="12.883998418042415"><ele>679.75</ele><time>2026-04-04T14:23:14.999Z</time></trkpt><trkpt lat="43.13607851436584" lon="12.88401761227478"><ele>683.0</ele><time>2026-04-04T14:23:15.999Z</time></trkpt><trkpt lat="43.136190945238845" lon="12.884020651118592"><ele>683.0</ele><time>2026-04-04T14:23:16.999Z</time></trkpt><trkpt lat="43.13631035443786" lon="12.88402980924851"><ele>683.0</ele><time>2026-04-04T14:23:17.999Z</time></trkpt><trkpt lat="43.13641751453553" lon="12.884058285037344"><ele>683.0</ele><time>2026-04-04T14:23:19Z</time></trkpt><trkpt lat="43.136520384285255" lon="12.884064161776335"><ele>683.0</ele><time>2026-04-04T14:23:20Z</time></trkpt><trkpt lat="43.13663024088583" lon="12.884038848676868"><ele>683.0</ele><time>2026-04-04T14:23:21Z</time></trkpt><trkpt lat="43.13674665262686" lon="12.884009683667985"><ele>684.75</ele><time>2026-04-04T14:23:22Z</time></trkpt><trkpt lat="43.136863935587556" lon="12.883991652424312"><ele>686.5</ele><time>2026-04-04T14:23:23Z</time></trkpt><trkpt lat="43.13698200063936" lon="12.883976702376296"><ele>688.25</ele><time>2026-04-04T14:23:24Z</time></trkpt><trkpt lat="43.137097536653606" lon="12.883943000786099"><ele>690.0</ele><time>2026-04-04T14:23:25Z</time></trkpt><trkpt lat="43.137191876713516" lon="12.88388797459463"><ele>690.0</ele><time>2026-04-04T14:23:26Z</time></trkpt><trkpt lat="43.13728735493709" lon="12.883826752564929"><ele>690.0</ele><time>2026-04-04T14:23:27Z</time></trkpt><trkpt lat="43.13739685505351" lon="12.883766280915413"><ele>690.0</ele><time>2026-04-04T14:23:28Z</time></trkpt><trkpt lat="43.13751433937983" lon="12.88372229831169"><ele>690.0</ele><time>2026-04-04T14:23:29Z</time></trkpt><trkpt lat="43.13762577953725" lon="12.883676990514633"><ele>692.2</ele><time>2026-04-04T14:23:30Z</time></trkpt><trkpt lat="43.13774607790851" lon="12.88363303752418"><ele>694.4</ele><time>2026-04-04T14:23:31Z</time></trkpt><trkpt lat="43.137848990107294" lon="12.883598251833368"><ele>696.5999999999999</ele><time>2026-04-04T14:23:32Z</time></trkpt><trkpt lat="43.13792551491752" lon="12.883530795986301"><ele>698.8</ele><time>2026-04-04T14:23:33Z</time></trkpt><trkpt lat="43.137995434919056" lon="12.883460844932374"><ele>701.0</ele><time>2026-04-04T14:23:34Z</time></trkpt><trkpt lat="43.13808076690611" lon="12.883419340412189"><ele>696.4</ele><time>2026-04-04T14:23:35Z</time></trkpt><trkpt lat="43.13818409945271" lon="12.883395808052045"><ele>691.8</ele><time>2026-04-04T14:23:36Z</time></trkpt><trkpt lat="43.138303216759496" lon="12.883370352328408"><ele>687.1999999999999</ele><time>2026-04-04T14:23:37Z</time></trkpt><trkpt lat="43.13841720648299" lon="12.883366176034121"><ele>682.5999999999999</ele><time>2026-04-04T14:23:38Z</time></trkpt><trkpt lat="43.13851984691326" lon="12.883384722397619"><ele>678.0</ele><time>2026-04-04T14:23:39Z</time></trkpt><trkpt lat="43.1386075294067" lon="12.883371143035884"><ele>678.0</ele><time>2026-04-04T14:23:40Z</time></trkpt><trkpt lat="43.13866049667992" lon="12.883278071028128"><ele>678.0</ele><time>2026-04-04T14:23:42Z</time></trkpt><trkpt lat="43.13874406218371" lon="12.883178881412539"><ele>678.0</ele><time>2026-04-04T14:23:44Z</time></trkpt><trkpt lat="43.13885081524879" lon="12.883122919054392"><ele>678.0</ele><time>2026-04-04T14:23:45Z</time></trkpt><trkpt lat="43.13896036821863" lon="12.883085104185064"><ele>678.0</ele><time>2026-04-04T14:23:46Z</time></trkpt><trkpt lat="43.13906440124884" lon="12.883067789760437"><ele>679.5999999999999</ele><time>2026-04-04T14:23:47Z</time></trkpt><trkpt lat="43.13917149843694" lon="12.883038737274825"><ele>681.1999999999999</ele><time>2026-04-04T14:23:48Z</time></trkpt><trkpt lat="43.139283066861786" lon="12.883007197683652"><ele>682.8</ele><time>2026-04-04T14:23:49Z</time></trkpt><trkpt lat="43.139392751602756" lon="12.883020237704153"><ele>684.4</ele><time>2026-04-04T14:23:50Z</time></trkpt><trkpt lat="43.139496897468455" lon="12.883012506685459"><ele>686.0</ele><time>2026-04-04T14:23:51Z</time></trkpt><trkpt lat="43.139599525968904" lon="12.88299528255744"><ele>686.0</ele><time>2026-04-04T14:23:52Z</time></trkpt><trkpt lat="43.13970311527072" lon="12.882970573743236"><ele>686.0</ele><time>2026-04-04T14:23:53Z</time></trkpt><trkpt lat="43.139781740032696" lon="12.882937977448728"><ele>686.0</ele><time>2026-04-04T14:23:54Z</time></trkpt><trkpt lat="43.13984625314925" lon="12.882958303071245"><ele>686.0</ele><time>2026-04-04T14:23:55Z</time></trkpt><trkpt lat="43.1399148267032" lon="12.883015748530516"><ele>686.0</ele><time>2026-04-04T14:23:56Z</time></trkpt><trkpt lat="43.13995623439407" lon="12.883107151279129"><ele>686.0</ele><time>2026-04-04T14:23:57Z</time></trkpt><trkpt lat="43.139975840514566" lon="12.883224904710925"><ele>684.8333333333333</ele><time>2026-04-04T14:23:58Z</time></trkpt><trkpt lat="43.13995668192314" lon="12.883320905989507"><ele>683.6666666666666</ele><time>2026-04-04T14:23:59Z</time></trkpt><trkpt lat="43.139946342298806" lon="12.88341304963951"><ele>682.5</ele><time>2026-04-04T14:24:00Z</time></trkpt><trkpt lat="43.13996971138592" lon="12.883497471608592"><ele>681.3333333333334</ele><time>2026-04-04T14:24:01Z</time></trkpt><trkpt lat="43.14003092592727" lon="12.88361909240059"><ele>680.1666666666667</ele><time>2026-04-04T14:24:03Z</time></trkpt><trkpt lat="43.140090636058254" lon="12.883718898506471"><ele>679.0</ele><time>2026-04-04T14:24:04Z</time></trkpt><trkpt lat="43.14017445820321" lon="12.883774130208952"><ele>685.4000000000001</ele><time>2026-04-04T14:24:05Z</time></trkpt><trkpt lat="43.14026539710266" lon="12.883852504837117"><ele>691.8</ele><time>2026-04-04T14:24:06Z</time></trkpt><trkpt lat="43.1403332565103" lon="12.883929993429748"><ele>698.2</ele><time>2026-04-04T14:24:07Z</time></trkpt><trkpt lat="43.14042327601331" lon="12.883978583797951"><ele>704.5999999999999</ele><time>2026-04-04T14:24:08Z</time></trkpt><trkpt lat="43.14051159703279" lon="12.884013663197942"><ele>711.0</ele><time>2026-04-04T14:24:09Z</time></trkpt><trkpt lat="43.1406053852005" lon="12.884042389228265"><ele>712.0</ele><time>2026-04-04T14:24:16Z</time></trkpt><trkpt lat="43.140745339780985" lon="12.884056757218406"><ele>713.0</ele><time>2026-04-04T14:24:18Z</time></trkpt><trkpt lat="43.14084176354285" lon="12.884091183156793"><ele>714.0</ele><time>2026-04-04T14:24:19Z</time></trkpt><trkpt lat="43.1409254691039" lon="12.884146932461439"><ele>715.0</ele><time>2026-04-04T14:24:20Z</time></trkpt><trkpt lat="43.14097026123037" lon="12.884221515526258"><ele>716.0</ele><time>2026-04-04T14:24:21Z</time></trkpt><trkpt lat="43.141010458273215" lon="12.884313144285727"><ele>716.0</ele><time>2026-04-04T14:24:22Z</time></trkpt><trkpt lat="43.14106087396151" lon="12.884410707073481"><ele>716.0</ele><time>2026-04-04T14:24:23Z</time></trkpt><trkpt lat="43.14112436501108" lon="12.884503244937445"><ele>716.0</ele><time>2026-04-04T14:24:24Z</time></trkpt><trkpt lat="43.14119183994846" lon="12.884597036209007"><ele>716.0</ele><time>2026-04-04T14:24:25Z</time></trkpt><trkpt lat="43.14125153213018" lon="12.884663225159569"><ele>716.0</ele><time>2026-04-04T14:24:26Z</time></trkpt><trkpt lat="43.14130399459967" lon="12.884714223062936"><ele>716.0</ele><time>2026-04-04T14:24:27Z</time></trkpt><trkpt lat="43.14136223806883" lon="12.884774052810467"><ele>716.0</ele><time>2026-04-04T14:24:28Z</time></trkpt><trkpt lat="43.14142278116643" lon="12.884807294867436"><ele>716.0</ele><time>2026-04-04T14:24:29Z</time></trkpt><trkpt lat="43.141526347564536" lon="12.88482427506331"><ele>716.0</ele><time>2026-04-04T14:24:31Z</time></trkpt><trkpt lat="43.14162564432816" lon="12.88483233995427"><ele>716.0</ele><time>2026-04-04T14:24:32Z</time></trkpt><trkpt lat="43.14173660138813" lon="12.884820521360789"><ele>716.0</ele><time>2026-04-04T14:24:33Z</time></trkpt><trkpt lat="43.14183248399372" lon="12.884752645537027"><ele>710.1999999999999</ele><time>2026-04-04T14:24:34Z</time></trkpt><trkpt lat="43.14190531988592" lon="12.884639929030458"><ele>704.4</ele><time>2026-04-04T14:24:35Z</time></trkpt><trkpt lat="43.14192849902253" lon="12.884484369433236"><ele>698.6</ele><time>2026-04-04T14:24:36Z</time></trkpt><trkpt lat="43.14193211538149" lon="12.88435656832872"><ele>692.8</ele><time>2026-04-04T14:24:37Z</time></trkpt><trkpt lat="43.14197439363221" lon="12.88428124519213"><ele>687.0</ele><time>2026-04-04T14:24:38Z</time></trkpt><trkpt lat="43.1420568982705" lon="12.8842209181153"><ele>688.25</ele><time>2026-04-04T14:24:39Z</time></trkpt><trkpt lat="43.14218601433938" lon="12.884157060246553"><ele>689.5</ele><time>2026-04-04T14:24:40Z</time></trkpt><trkpt lat="43.14231279997588" lon="12.884099502162009"><ele>690.75</ele><time>2026-04-04T14:24:41Z</time></trkpt><trkpt lat="43.14244602767253" lon="12.884044412445192"><ele>692.0</ele><time>2026-04-04T14:24:42Z</time></trkpt><trkpt lat="43.14259244635849" lon="12.883976448105258"><ele>692.0</ele><time>2026-04-04T14:24:42.999Z</time></trkpt><trkpt lat="43.14276157682562" lon="12.88390277772849"><ele>692.0</ele><time>2026-04-04T14:24:43.999Z</time></trkpt><trkpt lat="43.142909310596366" lon="12.8838388092143"><ele>692.0</ele><time>2026-04-04T14:24:44.999Z</time></trkpt><trkpt lat="43.14305057746212" lon="12.883790806582558"><ele>692.0</ele><time>2026-04-04T14:24:45.999Z</time></trkpt><trkpt lat="43.14318341435773" lon="12.883748705495663"><ele>692.0</ele><time>2026-04-04T14:24:46.999Z</time></trkpt><trkpt lat="43.14332203304068" lon="12.883702266411296"><ele>692.0</ele><time>2026-04-04T14:24:47.999Z</time></trkpt><trkpt lat="43.14346120264251" lon="12.883654243977345"><ele>692.0</ele><time>2026-04-04T14:24:48.999Z</time></trkpt><trkpt lat="43.14359201363993" lon="12.88360803032426"><ele>697.75</ele><time>2026-04-04T14:24:49.999Z</time></trkpt><trkpt lat="43.14371437860073" lon="12.88356643525059"><ele>703.5</ele><time>2026-04-04T14:24:50.999Z</time></trkpt><trkpt lat="43.143836547609865" lon="12.883514114326864"><ele>709.25</ele><time>2026-04-04T14:24:51.999Z</time></trkpt><trkpt lat="43.143957298524384" lon="12.883470783433916"><ele>715.0</ele><time>2026-04-04T14:24:52.999Z</time></trkpt><trkpt lat="43.14407924596855" lon="12.883432787440873"><ele>714.25</ele><time>2026-04-04T14:24:53.999Z</time></trkpt><trkpt lat="43.14420191145313" lon="12.883390744211082"><ele>713.5</ele><time>2026-04-04T14:24:54.999Z</time></trkpt><trkpt lat="43.14432863601579" lon="12.883341988641355"><ele>712.75</ele><time>2026-04-04T14:24:55.999Z</time></trkpt><trkpt lat="43.14446415638235" lon="12.883290854537796"><ele>712.0</ele><time>2026-04-04T14:24:56.999Z</time></trkpt><trkpt lat="43.14460596534924" lon="12.883243168305057"><ele>712.0</ele><time>2026-04-04T14:24:57.999Z</time></trkpt><trkpt lat="43.14475411381872" lon="12.883213903050766"><ele>712.0</ele><time>2026-04-04T14:24:58.999Z</time></trkpt><trkpt lat="43.14486230511421" lon="12.883192738550642"><ele>712.0</ele><time>2026-04-04T14:24:59.999Z</time></trkpt><trkpt lat="43.1449484955249" lon="12.883173196420858"><ele>712.0</ele><time>2026-04-04T14:25:00.999Z</time></trkpt><trkpt lat="43.14502280327305" lon="12.883154305402124"><ele>712.0</ele><time>2026-04-04T14:25:01.999Z</time></trkpt><trkpt lat="43.145094824597145" lon="12.883140101445363"><ele>716.25</ele><time>2026-04-04T14:25:02.999Z</time></trkpt><trkpt lat="43.14519209665674" lon="12.883087730511479"><ele>720.5</ele><time>2026-04-04T14:25:04.999Z</time></trkpt><trkpt lat="43.1453282691756" lon="12.883044267152533"><ele>724.75</ele><time>2026-04-04T14:25:06.999Z</time></trkpt><trkpt lat="43.14542556583892" lon="12.883020899983663"><ele>729.0</ele><time>2026-04-04T14:25:07.999Z</time></trkpt><trkpt lat="43.145537909222554" lon="12.882996972546714"><ele>729.0</ele><time>2026-04-04T14:25:08.999Z</time></trkpt><trkpt lat="43.145664098453445" lon="12.882969263939646"><ele>729.0</ele><time>2026-04-04T14:25:09.999Z</time></trkpt><trkpt lat="43.145797534609564" lon="12.88293682879843"><ele>729.0</ele><time>2026-04-04T14:25:10.999Z</time></trkpt><trkpt lat="43.14592559336436" lon="12.882905097382942"><ele>729.0</ele><time>2026-04-04T14:25:11.999Z</time></trkpt><trkpt lat="43.14605172812069" lon="12.882870309605615"><ele>727.25</ele><time>2026-04-04T14:25:12.999Z</time></trkpt><trkpt lat="43.14617534235215" lon="12.882825057402702"><ele>725.5</ele><time>2026-04-04T14:25:13.999Z</time></trkpt><trkpt lat="43.146294700338025" lon="12.882764443523147"><ele>723.75</ele><time>2026-04-04T14:25:14.999Z</time></trkpt><trkpt lat="43.146408598556405" lon="12.882688256038444"><ele>722.0</ele><time>2026-04-04T14:25:15.999Z</time></trkpt><trkpt lat="43.14652149072329" lon="12.882605016350684"><ele>716.5</ele><time>2026-04-04T14:25:16.999Z</time></trkpt><trkpt lat="43.14663543092768" lon="12.882528933640756"><ele>711.0</ele><time>2026-04-04T14:25:17.999Z</time></trkpt><trkpt lat="43.14674710473955" lon="12.882474426728761"><ele>705.5</ele><time>2026-04-04T14:25:18.999Z</time></trkpt><trkpt lat="43.146860445587905" lon="12.882443674987787"><ele>700.0</ele><time>2026-04-04T14:25:19.999Z</time></trkpt><trkpt lat="43.146968995164144" lon="12.882427908467482"><ele>700.0</ele><time>2026-04-04T14:25:20.999Z</time></trkpt><trkpt lat="43.14705747965584" lon="12.882449772342948"><ele>700.0</ele><time>2026-04-04T14:25:21.999Z</time></trkpt><trkpt lat="43.14713520800877" lon="12.882456851132762"><ele>700.0</ele><time>2026-04-04T14:25:22.999Z</time></trkpt><trkpt lat="43.147196379756714" lon="12.882493282535782"><ele>700.0</ele><time>2026-04-04T14:25:23.999Z</time></trkpt><trkpt lat="43.14727765720569" lon="12.882610691865997"><ele>700.0</ele><time>2026-04-04T14:25:26Z</time></trkpt><trkpt lat="43.147349025973355" lon="12.88271746395157"><ele>698.3333333333334</ele><time>2026-04-04T14:25:28Z</time></trkpt><trkpt lat="43.14740848565295" lon="12.882861924779533"><ele>696.6666666666667</ele><time>2026-04-04T14:25:30Z</time></trkpt><trkpt lat="43.14742832069691" lon="12.882944663769075"><ele>695.0</ele><time>2026-04-04T14:25:31Z</time></trkpt><trkpt lat="43.147442887188895" lon="12.883030524872796"><ele>693.3333333333334</ele><time>2026-04-04T14:25:32Z</time></trkpt><trkpt lat="43.14745255700721" lon="12.883116937028095"><ele>691.6666666666666</ele><time>2026-04-04T14:25:33Z</time></trkpt><trkpt lat="43.14748373446299" lon="12.883273350145851"><ele>690.0</ele><time>2026-04-04T14:25:35Z</time></trkpt><trkpt lat="43.147520672611996" lon="12.883395319371783"><ele>690.0</ele><time>2026-04-04T14:25:37Z</time></trkpt><trkpt lat="43.14759272119819" lon="12.883306880391581"><ele>690.0</ele><time>2026-04-04T14:25:40Z</time></trkpt><trkpt lat="43.147618954082894" lon="12.883217793066471"><ele>690.0</ele><time>2026-04-04T14:25:41Z</time></trkpt><trkpt lat="43.14764711281936" lon="12.883112901778002"><ele>690.0</ele><time>2026-04-04T14:25:42Z</time></trkpt><trkpt lat="43.14768165061189" lon="12.883018653423992"><ele>690.0</ele><time>2026-04-04T14:25:43Z</time></trkpt><trkpt lat="43.14776754519505" lon="12.882984202744383"><ele>690.0</ele><time>2026-04-04T14:25:45Z</time></trkpt><trkpt lat="43.14786424767407" lon="12.88307174062645"><ele>690.0</ele><time>2026-04-04T14:25:47Z</time></trkpt><trkpt lat="43.14792859662938" lon="12.883108030691442"><ele>690.0</ele><time>2026-04-04T14:25:48Z</time></trkpt><trkpt lat="43.14800019881827" lon="12.883141327119242"><ele>690.0</ele><time>2026-04-04T14:25:49Z</time></trkpt><trkpt lat="43.14808106224062" lon="12.88319325492485"><ele>690.0</ele><time>2026-04-04T14:25:50Z</time></trkpt><trkpt lat="43.148154316332985" lon="12.883249616680494"><ele>690.0</ele><time>2026-04-04T14:25:51Z</time></trkpt><trkpt lat="43.14822642212405" lon="12.883259066805802"><ele>690.0</ele><time>2026-04-04T14:25:52Z</time></trkpt><trkpt lat="43.148318627553024" lon="12.883230011717885"><ele>685.5</ele><time>2026-04-04T14:25:53Z</time></trkpt><trkpt lat="43.148451008239924" lon="12.883179744554502"><ele>681.0</ele><time>2026-04-04T14:25:54Z</time></trkpt><trkpt lat="43.14858530532843" lon="12.88313930110489"><ele>676.5</ele><time>2026-04-04T14:25:55Z</time></trkpt><trkpt lat="43.14871795841067" lon="12.88311606561769"><ele>672.0</ele><time>2026-04-04T14:25:56Z</time></trkpt><trkpt lat="43.14885824429156" lon="12.883080225080834"><ele>672.0</ele><time>2026-04-04T14:25:57Z</time></trkpt><trkpt lat="43.148977906631515" lon="12.88304314970736"><ele>672.0</ele><time>2026-04-04T14:25:58Z</time></trkpt><trkpt lat="43.149095316398586" lon="12.883003485746547"><ele>672.0</ele><time>2026-04-04T14:25:59Z</time></trkpt><trkpt lat="43.1491821611244" lon="12.882976555410186"><ele>672.0</ele><time>2026-04-04T14:26:00Z</time></trkpt><trkpt lat="43.149242772807035" lon="12.882928214269278"><ele>672.0</ele><time>2026-04-04T14:26:01Z</time></trkpt><trkpt lat="43.14930282250184" lon="12.882864110176953"><ele>667.25</ele><time>2026-04-04T14:26:02Z</time></trkpt><trkpt lat="43.149377007297524" lon="12.882848370230983"><ele>662.5</ele><time>2026-04-04T14:26:03Z</time></trkpt><trkpt lat="43.1495130566844" lon="12.88288201052654"><ele>657.75</ele><time>2026-04-04T14:26:04Z</time></trkpt><trkpt lat="43.14966372803931" lon="12.882916762429137"><ele>653.0</ele><time>2026-04-04T14:26:05Z</time></trkpt><trkpt lat="43.149795184778256" lon="12.882923448061385"><ele>649.75</ele><time>2026-04-04T14:26:06Z</time></trkpt><trkpt lat="43.14990791934457" lon="12.882906704009901"><ele>646.5</ele><time>2026-04-04T14:26:07Z</time></trkpt><trkpt lat="43.15002576610958" lon="12.88289723846651"><ele>643.25</ele><time>2026-04-04T14:26:08Z</time></trkpt><trkpt lat="43.150146540855204" lon="12.882895024727354"><ele>640.0</ele><time>2026-04-04T14:26:09Z</time></trkpt><trkpt lat="43.15025644324581" lon="12.882897622213127"><ele>640.0</ele><time>2026-04-04T14:26:10Z</time></trkpt><trkpt lat="43.15036867683423" lon="12.882916564506935"><ele>640.0</ele><time>2026-04-04T14:26:11Z</time></trkpt><trkpt lat="43.15047845692205" lon="12.882961864367694"><ele>640.0</ele><time>2026-04-04T14:26:12Z</time></trkpt><trkpt lat="43.1505830000367" lon="12.883011155134145"><ele>640.0</ele><time>2026-04-04T14:26:13Z</time></trkpt><trkpt lat="43.150682516068024" lon="12.883043719847322"><ele>640.0</ele><time>2026-04-04T14:26:14Z</time></trkpt><trkpt lat="43.15078424257464" lon="12.88305485285655"><ele>637.75</ele><time>2026-04-04T14:26:15Z</time></trkpt><trkpt lat="43.150896683297844" lon="12.88306113506559"><ele>635.5</ele><time>2026-04-04T14:26:16Z</time></trkpt><trkpt lat="43.151023750291515" lon="12.883052291379963"><ele>633.25</ele><time>2026-04-04T14:26:17Z</time></trkpt><trkpt lat="43.15116161566897" lon="12.883041588175171"><ele>631.0</ele><time>2026-04-04T14:26:18Z</time></trkpt><trkpt lat="43.151307191047756" lon="12.883041793598283"><ele>631.0</ele><time>2026-04-04T14:26:19Z</time></trkpt><trkpt lat="43.1514439709958" lon="12.883067088588394"><ele>631.0</ele><time>2026-04-04T14:26:20Z</time></trkpt><trkpt lat="43.15156743315425" lon="12.883097721382342"><ele>631.0</ele><time>2026-04-04T14:26:21Z</time></trkpt><trkpt lat="43.15167963279374" lon="12.883119904110085"><ele>631.0</ele><time>2026-04-04T14:26:22Z</time></trkpt><trkpt lat="43.151783162347705" lon="12.88311672367344"><ele>629.6</ele><time>2026-04-04T14:26:23Z</time></trkpt><trkpt lat="43.15187870942862" lon="12.883079750200796"><ele>628.2</ele><time>2026-04-04T14:26:24Z</time></trkpt><trkpt lat="43.15196773546029" lon="12.883018002248237"><ele>626.8</ele><time>2026-04-04T14:26:25Z</time></trkpt><trkpt lat="43.15204975426269" lon="12.882991345430044"><ele>625.4</ele><time>2026-04-04T14:26:26Z</time></trkpt><trkpt lat="43.1521178794762" lon="12.8830053185587"><ele>624.0</ele><time>2026-04-04T14:26:27Z</time></trkpt><trkpt lat="43.15219643897636" lon="12.883141447710884"><ele>624.0</ele><time>2026-04-04T14:26:29Z</time></trkpt><trkpt lat="43.15222858856379" lon="12.88323909896333"><ele>624.0</ele><time>2026-04-04T14:26:30Z</time></trkpt><trkpt lat="43.15227255038426" lon="12.883339108986634"><ele>624.0</ele><time>2026-04-04T14:26:31Z</time></trkpt><trkpt lat="43.152323345789895" lon="12.88345618321296"><ele>624.0</ele><time>2026-04-04T14:26:32Z</time></trkpt><trkpt lat="43.152374622030514" lon="12.883580038574035"><ele>624.0</ele><time>2026-04-04T14:26:33Z</time></trkpt><trkpt lat="43.152403444733075" lon="12.883705322342855"><ele>625.2</ele><time>2026-04-04T14:26:34Z</time></trkpt><trkpt lat="43.15240448900167" lon="12.883843591647599"><ele>626.4</ele><time>2026-04-04T14:26:35Z</time></trkpt><trkpt lat="43.1523957987372" lon="12.883982711221234"><ele>627.6</ele><time>2026-04-04T14:26:36Z</time></trkpt><trkpt lat="43.15238194607396" lon="12.884110559350795"><ele>628.8</ele><time>2026-04-04T14:26:37Z</time></trkpt><trkpt lat="43.152360647951866" lon="12.884220194722008"><ele>630.0</ele><time>2026-04-04T14:26:38Z</time></trkpt><trkpt lat="43.15233302594035" lon="12.884326479627168"><ele>631.8</ele><time>2026-04-04T14:26:39Z</time></trkpt><trkpt lat="43.15229611598768" lon="12.884436080506465"><ele>633.6</ele><time>2026-04-04T14:26:40Z</time></trkpt><trkpt lat="43.15226158170077" lon="12.884551852141147"><ele>635.4</ele><time>2026-04-04T14:26:41Z</time></trkpt><trkpt lat="43.15223048975951" lon="12.884675422208677"><ele>637.2</ele><time>2026-04-04T14:26:42Z</time></trkpt><trkpt lat="43.152202201313045" lon="12.884800858697341"><ele>639.0</ele><time>2026-04-04T14:26:42.999Z</time></trkpt><trkpt lat="43.15218119933806" lon="12.884924357536429"><ele>639.0</ele><time>2026-04-04T14:26:43.999Z</time></trkpt><trkpt lat="43.15216412599506" lon="12.885044980248582"><ele>639.0</ele><time>2026-04-04T14:26:44.999Z</time></trkpt><trkpt lat="43.15215269574309" lon="12.885134103499231"><ele>639.0</ele><time>2026-04-04T14:26:45.999Z</time></trkpt><trkpt lat="43.152131969835914" lon="12.885281259106275"><ele>639.0</ele><time>2026-04-04T14:26:47.999Z</time></trkpt><trkpt lat="43.1521507015022" lon="12.885375367832745"><ele>639.0</ele><time>2026-04-04T14:26:49.999Z</time></trkpt><trkpt lat="43.15222234913716" lon="12.885352025759477"><ele>639.0</ele><time>2026-04-04T14:26:51.999Z</time></trkpt><trkpt lat="43.15231570620534" lon="12.88524485137374"><ele>640.0</ele><time>2026-04-04T14:26:53.999Z</time></trkpt><trkpt lat="43.152380731957" lon="12.88514813853463"><ele>641.0</ele><time>2026-04-04T14:26:55.999Z</time></trkpt><trkpt lat="43.15242918451606" lon="12.885016891643659"><ele>642.0</ele><time>2026-04-04T14:26:57.999Z</time></trkpt><trkpt lat="43.15247977844051" lon="12.884887612878227"><ele>643.0</ele><time>2026-04-04T14:26:59.999Z</time></trkpt><trkpt lat="43.15251035762734" lon="12.884811121941956"><ele>644.0</ele><time>2026-04-04T14:27:00.999Z</time></trkpt><trkpt lat="43.15251902686143" lon="12.884723770177612"><ele>645.0</ele><time>2026-04-04T14:27:01.999Z</time></trkpt><trkpt lat="43.15253107235334" lon="12.884624720790594"><ele>645.0</ele><time>2026-04-04T14:27:02.999Z</time></trkpt><trkpt lat="43.15256478838017" lon="12.884497931026115"><ele>645.0</ele><time>2026-04-04T14:27:03.999Z</time></trkpt><trkpt lat="43.15262553416162" lon="12.88436321106995"><ele>645.0</ele><time>2026-04-04T14:27:04.999Z</time></trkpt><trkpt lat="43.152705964763435" lon="12.884244675299364"><ele>645.0</ele><time>2026-04-04T14:27:05.999Z</time></trkpt><trkpt lat="43.152802610899585" lon="12.884095663993152"><ele>642.3333333333334</ele><time>2026-04-04T14:27:06.999Z</time></trkpt><trkpt lat="43.1529159812008" lon="12.883927656746172"><ele>639.6666666666667</ele><time>2026-04-04T14:27:07.999Z</time></trkpt><trkpt lat="43.15302279977015" lon="12.8837783128465"><ele>637.0</ele><time>2026-04-04T14:27:08.999Z</time></trkpt><trkpt lat="43.15315706173605" lon="12.883632441414484"><ele>641.0</ele><time>2026-04-04T14:27:09.999Z</time></trkpt><trkpt lat="43.15329097342442" lon="12.88351184979744"><ele>645.0</ele><time>2026-04-04T14:27:10.999Z</time></trkpt><trkpt lat="43.15341553558099" lon="12.88342907739101"><ele>649.0</ele><time>2026-04-04T14:27:11.999Z</time></trkpt><trkpt lat="43.15351056937964" lon="12.883345255284178"><ele>653.0</ele><time>2026-04-04T14:27:12.999Z</time></trkpt><trkpt lat="43.15357953647162" lon="12.883252148367799"><ele>653.0</ele><time>2026-04-04T14:27:13.999Z</time></trkpt><trkpt lat="43.15359382228264" lon="12.88315531740801"><ele>653.0</ele><time>2026-04-04T14:27:14.999Z</time></trkpt><trkpt lat="43.15356952133585" lon="12.883050888187702"><ele>653.0</ele><time>2026-04-04T14:27:15.999Z</time></trkpt><trkpt lat="43.15351164594019" lon="12.88294522184752"><ele>653.0</ele><time>2026-04-04T14:27:16.999Z</time></trkpt><trkpt lat="43.15342586846972" lon="12.882858857533254"><ele>653.0</ele><time>2026-04-04T14:27:17.999Z</time></trkpt><trkpt lat="43.153312621417285" lon="12.882787078690363"><ele>651.0</ele><time>2026-04-04T14:27:18.999Z</time></trkpt><trkpt lat="43.15320264082119" lon="12.882740815560904"><ele>649.0</ele><time>2026-04-04T14:27:19.999Z</time></trkpt><trkpt lat="43.153123883569926" lon="12.88270114110213"><ele>647.0</ele><time>2026-04-04T14:27:20.999Z</time></trkpt><trkpt lat="43.15302730421319" lon="12.882614348302216"><ele>645.0</ele><time>2026-04-04T14:27:22.999Z</time></trkpt><trkpt lat="43.15295613683418" lon="12.882518748099164"><ele>643.0</ele><time>2026-04-04T14:27:24.999Z</time></trkpt><trkpt lat="43.15292442162269" lon="12.882361306794605"><ele>643.0</ele><time>2026-04-04T14:27:26.999Z</time></trkpt><trkpt lat="43.15292121701916" lon="12.882257197254958"><ele>643.0</ele><time>2026-04-04T14:27:27.999Z</time></trkpt><trkpt lat="43.15294173737686" lon="12.88213527980422"><ele>643.0</ele><time>2026-04-04T14:27:28.999Z</time></trkpt><trkpt lat="43.15299641019059" lon="12.882034167484283"><ele>643.0</ele><time>2026-04-04T14:27:29.999Z</time></trkpt><trkpt lat="43.153057766031466" lon="12.881965082032595"><ele>643.0</ele><time>2026-04-04T14:27:31Z</time></trkpt><trkpt lat="43.153158719510905" lon="12.881937762168349"><ele>643.0</ele><time>2026-04-04T14:27:33Z</time></trkpt><trkpt lat="43.15324554967967" lon="12.882043749230293"><ele>646.4</ele><time>2026-04-04T14:27:35Z</time></trkpt><trkpt lat="43.153311867076035" lon="12.882149785102708"><ele>649.8</ele><time>2026-04-04T14:27:37Z</time></trkpt><trkpt lat="43.153394451081724" lon="12.882143287531322"><ele>653.2</ele><time>2026-04-04T14:27:40Z</time></trkpt><trkpt lat="43.153502269722836" lon="12.882228759063972"><ele>656.6</ele><time>2026-04-04T14:27:41Z</time></trkpt><trkpt lat="43.15362241225353" lon="12.88224845862765"><ele>660.0</ele><time>2026-04-04T14:27:42Z</time></trkpt><trkpt lat="43.15376007858931" lon="12.882330136256487"><ele>660.0</ele><time>2026-04-04T14:27:44Z</time></trkpt><trkpt lat="43.15384229205719" lon="12.882331564952057"><ele>660.0</ele><time>2026-04-04T14:27:45Z</time></trkpt><trkpt lat="43.15394919502979" lon="12.882324478825332"><ele>660.0</ele><time>2026-04-04T14:27:46Z</time></trkpt><trkpt lat="43.15408505791704" lon="12.882334040495364"><ele>660.0</ele><time>2026-04-04T14:27:47Z</time></trkpt><trkpt lat="43.15423080029482" lon="12.882385603332178"><ele>662.75</ele><time>2026-04-04T14:27:48Z</time></trkpt><trkpt lat="43.15433723089824" lon="12.882436247815617"><ele>665.5</ele><time>2026-04-04T14:27:49Z</time></trkpt><trkpt lat="43.154456760819365" lon="12.882481586960544"><ele>668.25</ele><time>2026-04-04T14:27:50Z</time></trkpt><trkpt lat="43.154570203072524" lon="12.882531905193597"><ele>671.0</ele><time>2026-04-04T14:27:51Z</time></trkpt><trkpt lat="43.15468228813471" lon="12.882555562454108"><ele>671.0</ele><time>2026-04-04T14:27:52Z</time></trkpt><trkpt lat="43.154796213852435" lon="12.882574445490677"><ele>671.0</ele><time>2026-04-04T14:27:53Z</time></trkpt><trkpt lat="43.15489899139269" lon="12.88257131525809"><ele>671.0</ele><time>2026-04-04T14:27:54Z</time></trkpt><trkpt lat="43.15500450395623" lon="12.882554022086689"><ele>671.0</ele><time>2026-04-04T14:27:55Z</time></trkpt><trkpt lat="43.15510654974167" lon="12.882512759605625"><ele>671.0</ele><time>2026-04-04T14:27:56Z</time></trkpt><trkpt lat="43.15520755633573" lon="12.882477161756414"><ele>673.25</ele><time>2026-04-04T14:27:57Z</time></trkpt><trkpt lat="43.15529008311617" lon="12.882438445268159"><ele>675.5</ele><time>2026-04-04T14:27:58Z</time></trkpt><trkpt lat="43.15542819830901" lon="12.882457056092166"><ele>677.75</ele><time>2026-04-04T14:28:00Z</time></trkpt><trkpt lat="43.15552020521511" lon="12.882519027463266"><ele>680.0</ele><time>2026-04-04T14:28:01Z</time></trkpt><trkpt lat="43.155633737979144" lon="12.882586714519991"><ele>684.2</ele><time>2026-04-04T14:28:02Z</time></trkpt><trkpt lat="43.15574429540436" lon="12.882673758570188"><ele>688.4</ele><time>2026-04-04T14:28:03Z</time></trkpt><trkpt lat="43.15583107401659" lon="12.882743405210341"><ele>692.5999999999999</ele><time>2026-04-04T14:28:04Z</time></trkpt><trkpt lat="43.15590108807754" lon="12.882809944346564"><ele>696.8</ele><time>2026-04-04T14:28:05Z</time></trkpt><trkpt lat="43.1559537193831" lon="12.882869619772318"><ele>701.0</ele><time>2026-04-04T14:28:06Z</time></trkpt><trkpt lat="43.15602237469772" lon="12.882910946220266"><ele>701.0</ele><time>2026-04-04T14:28:08Z</time></trkpt><trkpt lat="43.15609862124134" lon="12.882911279504798"><ele>701.0</ele><time>2026-04-04T14:28:09Z</time></trkpt><trkpt lat="43.15616871829167" lon="12.882953651395079"><ele>701.0</ele><time>2026-04-04T14:28:10Z</time></trkpt><trkpt lat="43.15624066416903" lon="12.882976359213218"><ele>701.0</ele><time>2026-04-04T14:28:11Z</time></trkpt><trkpt lat="43.156313216528474" lon="12.882962494696622"><ele>701.0</ele><time>2026-04-04T14:28:12Z</time></trkpt><trkpt lat="43.15640705495443" lon="12.88297624215365"><ele>701.0</ele><time>2026-04-04T14:28:13Z</time></trkpt><trkpt lat="43.156510153544986" lon="12.88300046193634"><ele>701.5</ele><time>2026-04-04T14:28:14Z</time></trkpt><trkpt lat="43.156634231776245" lon="12.883013012480001"><ele>702.0</ele><time>2026-04-04T14:28:15Z</time></trkpt><trkpt lat="43.15677506157249" lon="12.883017956646155"><ele>702.5</ele><time>2026-04-04T14:28:16Z</time></trkpt><trkpt lat="43.156921889647016" lon="12.883007914224866"><ele>703.0</ele><time>2026-04-04T14:28:17Z</time></trkpt><trkpt lat="43.157075196219004" lon="12.88298312848964"><ele>703.0</ele><time>2026-04-04T14:28:18Z</time></trkpt><trkpt lat="43.157216991343624" lon="12.882972899364725"><ele>703.0</ele><time>2026-04-04T14:28:19Z</time></trkpt><trkpt lat="43.157361489228194" lon="12.88296913407841"><ele>703.0</ele><time>2026-04-04T14:28:20Z</time></trkpt><trkpt lat="43.15748334630251" lon="12.88297154638326"><ele>703.0</ele><time>2026-04-04T14:28:21Z</time></trkpt><trkpt lat="43.15759267372137" lon="12.882967229846264"><ele>702.5</ele><time>2026-04-04T14:28:22Z</time></trkpt><trkpt lat="43.15769907933119" lon="12.883009001482915"><ele>702.0</ele><time>2026-04-04T14:28:23Z</time></trkpt><trkpt lat="43.157820391963625" lon="12.883074798537859"><ele>701.5</ele><time>2026-04-04T14:28:24Z</time></trkpt><trkpt lat="43.157933225628724" lon="12.883140560543712"><ele>701.0</ele><time>2026-04-04T14:28:25Z</time></trkpt><trkpt lat="43.15803753410327" lon="12.883193530620632"><ele>701.0</ele><time>2026-04-04T14:28:26Z</time></trkpt><trkpt lat="43.15811867732071" lon="12.883191653791135"><ele>701.0</ele><time>2026-04-04T14:28:27Z</time></trkpt><trkpt lat="43.15821122087257" lon="12.883120919802106"><ele>701.0</ele><time>2026-04-04T14:28:28Z</time></trkpt><trkpt lat="43.15833091950044" lon="12.883048935393909"><ele>701.0</ele><time>2026-04-04T14:28:29Z</time></trkpt><trkpt lat="43.15846004146878" lon="12.88299859822873"><ele>699.75</ele><time>2026-04-04T14:28:30Z</time></trkpt><trkpt lat="43.158575942070364" lon="12.882973852993043"><ele>698.5</ele><time>2026-04-04T14:28:31Z</time></trkpt><trkpt lat="43.15869743848319" lon="12.882929020796611"><ele>697.25</ele><time>2026-04-04T14:28:32Z</time></trkpt><trkpt lat="43.15881217301951" lon="12.882868072663372"><ele>696.0</ele><time>2026-04-04T14:28:33Z</time></trkpt><trkpt lat="43.15894103603342" lon="12.88282750942047"><ele>696.25</ele><time>2026-04-04T14:28:34Z</time></trkpt><trkpt lat="43.15905930034593" lon="12.882779417346255"><ele>696.5</ele><time>2026-04-04T14:28:35Z</time></trkpt><trkpt lat="43.15917186730084" lon="12.882749265872233"><ele>696.75</ele><time>2026-04-04T14:28:36Z</time></trkpt><trkpt lat="43.15930441496508" lon="12.882737071305634"><ele>697.0</ele><time>2026-04-04T14:28:37Z</time></trkpt><trkpt lat="43.15942119899376" lon="12.882721214893087"><ele>697.0</ele><time>2026-04-04T14:28:38Z</time></trkpt><trkpt lat="43.159532597589894" lon="12.882716246406849"><ele>697.0</ele><time>2026-04-04T14:28:39Z</time></trkpt><trkpt lat="43.159645044224014" lon="12.882741846183578"><ele>697.0</ele><time>2026-04-04T14:28:40Z</time></trkpt><trkpt lat="43.15976086154658" lon="12.88279914124532"><ele>697.0</ele><time>2026-04-04T14:28:41Z</time></trkpt><trkpt lat="43.15987150280819" lon="12.882868019805956"><ele>695.75</ele><time>2026-04-04T14:28:42Z</time></trkpt><trkpt lat="43.159985684610476" lon="12.882944518457101"><ele>694.5</ele><time>2026-04-04T14:28:43Z</time></trkpt><trkpt lat="43.160092369764534" lon="12.883015406437087"><ele>693.25</ele><time>2026-04-04T14:28:44Z</time></trkpt><trkpt lat="43.160195428018234" lon="12.88307165745896"><ele>692.0</ele><time>2026-04-04T14:28:45Z</time></trkpt><trkpt lat="43.16031117228649" lon="12.883107500619014"><ele>692.0</ele><time>2026-04-04T14:28:46Z</time></trkpt><trkpt lat="43.160405190643125" lon="12.883146479863758"><ele>692.0</ele><time>2026-04-04T14:28:47Z</time></trkpt><trkpt lat="43.16049516810002" lon="12.88319623485543"><ele>692.0</ele><time>2026-04-04T14:28:47.999Z</time></trkpt><trkpt lat="43.160569191575874" lon="12.883247785168649"><ele>692.0</ele><time>2026-04-04T14:28:48.999Z</time></trkpt><trkpt lat="43.16064510621426" lon="12.883283446778337"><ele>692.0</ele><time>2026-04-04T14:28:49.999Z</time></trkpt><trkpt lat="43.160711430364664" lon="12.883314765295639"><ele>692.0</ele><time>2026-04-04T14:28:50.999Z</time></trkpt><trkpt lat="43.16082650942961" lon="12.883264540666909"><ele>690.2857142857142</ele><time>2026-04-04T14:28:52.999Z</time></trkpt><trkpt lat="43.16090215176216" lon="12.883253912746452"><ele>688.5714285714287</ele><time>2026-04-04T14:28:53.999Z</time></trkpt><trkpt lat="43.16097563496253" lon="12.88327667342911"><ele>686.8571428571429</ele><time>2026-04-04T14:28:54.999Z</time></trkpt><trkpt lat="43.16104395350349" lon="12.883307487983556"><ele>685.1428571428571</ele><time>2026-04-04T14:28:55.999Z</time></trkpt><trkpt lat="43.16111032964063" lon="12.883335679947066"><ele>683.4285714285713</ele><time>2026-04-04T14:28:56.999Z</time></trkpt><trkpt lat="43.161178086988556" lon="12.883373999333482"><ele>681.7142857142858</ele><time>2026-04-04T14:28:57.999Z</time></trkpt><trkpt lat="43.16124054834477" lon="12.883430860335574"><ele>680.0</ele><time>2026-04-04T14:28:58.999Z</time></trkpt><trkpt lat="43.16129154126798" lon="12.883505190021443"><ele>685.5</ele><time>2026-04-04T14:28:59.999Z</time></trkpt><trkpt lat="43.16135135499821" lon="12.88360928919602"><ele>691.0</ele><time>2026-04-04T14:29:00.999Z</time></trkpt><trkpt lat="43.16140932627811" lon="12.883704289574212"><ele>696.5</ele><time>2026-04-04T14:29:01.999Z</time></trkpt><trkpt lat="43.161485919911776" lon="12.883789304841729"><ele>702.0</ele><time>2026-04-04T14:29:02.999Z</time></trkpt><trkpt lat="43.1615496232708" lon="12.88385575864952"><ele>707.5</ele><time>2026-04-04T14:29:03.999Z</time></trkpt><trkpt lat="43.16161158754728" lon="12.88392148882273"><ele>713.0</ele><time>2026-04-04T14:29:04.999Z</time></trkpt><trkpt lat="43.16167618601966" lon="12.883965810205678"><ele>713.0</ele><time>2026-04-04T14:29:05.999Z</time></trkpt><trkpt lat="43.161753153495845" lon="12.8839636007661"><ele>713.0</ele><time>2026-04-04T14:29:06.999Z</time></trkpt><trkpt lat="43.16181043106696" lon="12.883916049632994"><ele>713.0</ele><time>2026-04-04T14:29:07.999Z</time></trkpt><trkpt lat="43.16188295295412" lon="12.883847647998428"><ele>713.0</ele><time>2026-04-04T14:29:08.999Z</time></trkpt><trkpt lat="43.16198773499738" lon="12.883831042483344"><ele>713.0</ele><time>2026-04-04T14:29:09.999Z</time></trkpt><trkpt lat="43.16206933428999" lon="12.883786964313053"><ele>713.0</ele><time>2026-04-04T14:29:10.999Z</time></trkpt><trkpt lat="43.16213799495459" lon="12.88371402157825"><ele>713.0</ele><time>2026-04-04T14:29:11.999Z</time></trkpt><trkpt lat="43.162207639599956" lon="12.883658272989361"><ele>713.0</ele><time>2026-04-04T14:29:12.999Z</time></trkpt><trkpt lat="43.16228160181012" lon="12.883568647849845"><ele>713.0</ele><time>2026-04-04T14:29:13.999Z</time></trkpt><trkpt lat="43.16234746122761" lon="12.88353632298256"><ele>713.0</ele><time>2026-04-04T14:29:14.999Z</time></trkpt><trkpt lat="43.16244456916329" lon="12.883536917508977"><ele>713.0</ele><time>2026-04-04T14:29:15.999Z</time></trkpt><trkpt lat="43.16253818131886" lon="12.883531506381319"><ele>713.0</ele><time>2026-04-04T14:29:16.999Z</time></trkpt><trkpt lat="43.16264052386036" lon="12.883529160460865"><ele>714.4</ele><time>2026-04-04T14:29:17.999Z</time></trkpt><trkpt lat="43.16274176127497" lon="12.883544568900756"><ele>715.8</ele><time>2026-04-04T14:29:18.999Z</time></trkpt><trkpt lat="43.162857832629754" lon="12.883553699925205"><ele>717.2</ele><time>2026-04-04T14:29:19.999Z</time></trkpt><trkpt lat="43.16297681588747" lon="12.883560441642643"><ele>718.6</ele><time>2026-04-04T14:29:20.999Z</time></trkpt><trkpt lat="43.163072114147425" lon="12.883564115052252"><ele>720.0</ele><time>2026-04-04T14:29:21.999Z</time></trkpt><trkpt lat="43.16318271365348" lon="12.883578194117016"><ele>723.2</ele><time>2026-04-04T14:29:22.999Z</time></trkpt><trkpt lat="43.163297077155164" lon="12.883593341378912"><ele>726.4</ele><time>2026-04-04T14:29:23.999Z</time></trkpt><trkpt lat="43.163402285219355" lon="12.883611307767705"><ele>729.5999999999999</ele><time>2026-04-04T14:29:24.999Z</time></trkpt><trkpt lat="43.16350893927301" lon="12.883617883410766"><ele>732.8</ele><time>2026-04-04T14:29:25.999Z</time></trkpt><trkpt lat="43.16362701275865" lon="12.883629228451358"><ele>736.0</ele><time>2026-04-04T14:29:26.999Z</time></trkpt><trkpt lat="43.16375395325609" lon="12.88364480410387"><ele>736.0</ele><time>2026-04-04T14:29:27.999Z</time></trkpt><trkpt lat="43.16388114123289" lon="12.883659656432915"><ele>736.0</ele><time>2026-04-04T14:29:28.999Z</time></trkpt><trkpt lat="43.16398640807333" lon="12.883673636387805"><ele>736.0</ele><time>2026-04-04T14:29:29.999Z</time></trkpt><trkpt lat="43.16407296420213" lon="12.883686916225779"><ele>736.0</ele><time>2026-04-04T14:29:30.999Z</time></trkpt><trkpt lat="43.16415435990613" lon="12.883707616830677"><ele>736.0</ele><time>2026-04-04T14:29:31.999Z</time></trkpt><trkpt lat="43.16423840727978" lon="12.883732485053397"><ele>736.3333333333334</ele><time>2026-04-04T14:29:32.999Z</time></trkpt><trkpt lat="43.164317611430604" lon="12.883740282670196"><ele>736.6666666666667</ele><time>2026-04-04T14:29:33.999Z</time></trkpt><trkpt lat="43.16439847781941" lon="12.883748772948081"><ele>737.0</ele><time>2026-04-04T14:29:34.999Z</time></trkpt><trkpt lat="43.16447804953068" lon="12.883760286072775"><ele>737.3333333333334</ele><time>2026-04-04T14:29:35.999Z</time></trkpt><trkpt lat="43.164554545947475" lon="12.883757294324276"><ele>737.6666666666666</ele><time>2026-04-04T14:29:37Z</time></trkpt><trkpt lat="43.164632168415025" lon="12.883764697168557"><ele>738.0</ele><time>2026-04-04T14:29:38Z</time></trkpt><trkpt lat="43.16469939900726" lon="12.88379605854751"><ele>738.0</ele><time>2026-04-04T14:29:39Z</time></trkpt><trkpt lat="43.164772530750945" lon="12.883835940727403"><ele>738.0</ele><time>2026-04-04T14:29:40Z</time></trkpt><trkpt lat="43.16484883605691" lon="12.883854776483478"><ele>738.0</ele><time>2026-04-04T14:29:41Z</time></trkpt><trkpt lat="43.164921137038796" lon="12.883893219826026"><ele>738.0</ele><time>2026-04-04T14:29:42Z</time></trkpt><trkpt lat="43.165001758435565" lon="12.883927971777705"><ele>738.0</ele><time>2026-04-04T14:29:43Z</time></trkpt><trkpt lat="43.16508473066483" lon="12.883932030451302"><ele>738.0</ele><time>2026-04-04T14:29:44Z</time></trkpt><trkpt lat="43.16516998449311" lon="12.883959085787053"><ele>736.5</ele><time>2026-04-04T14:29:45Z</time></trkpt><trkpt lat="43.16524274173888" lon="12.88400134338598"><ele>735.0</ele><time>2026-04-04T14:29:46Z</time></trkpt><trkpt lat="43.165304049645435" lon="12.884037558351748"><ele>733.5</ele><time>2026-04-04T14:29:47Z</time></trkpt><trkpt lat="43.16537992296884" lon="12.884068996471452"><ele>732.0</ele><time>2026-04-04T14:29:48Z</time></trkpt><trkpt lat="43.16546004924805" lon="12.884117051029015"><ele>730.5</ele><time>2026-04-04T14:29:49Z</time></trkpt><trkpt lat="43.16555900385317" lon="12.884183329455297"><ele>729.0</ele><time>2026-04-04T14:29:50Z</time></trkpt><trkpt lat="43.16567002364306" lon="12.884236960556331"><ele>735.75</ele><time>2026-04-04T14:29:51Z</time></trkpt><trkpt lat="43.16580232435286" lon="12.884291101147664"><ele>742.5</ele><time>2026-04-04T14:29:52Z</time></trkpt><trkpt lat="43.1659211678043" lon="12.884320712372347"><ele>749.25</ele><time>2026-04-04T14:29:53Z</time></trkpt><trkpt lat="43.16602790996119" lon="12.884345698337224"><ele>756.0</ele><time>2026-04-04T14:29:54Z</time></trkpt><trkpt lat="43.166125994450205" lon="12.884357808354371"><ele>756.0</ele><time>2026-04-04T14:29:55Z</time></trkpt><trkpt lat="43.16620541604715" lon="12.88437134198076"><ele>756.0</ele><time>2026-04-04T14:29:56Z</time></trkpt><trkpt lat="43.16628902389726" lon="12.88436010785428"><ele>756.0</ele><time>2026-04-04T14:29:57Z</time></trkpt><trkpt lat="43.16636459828536" lon="12.88433755240724"><ele>756.0</ele><time>2026-04-04T14:29:58Z</time></trkpt><trkpt lat="43.16648991077609" lon="12.8843259814805"><ele>756.0</ele><time>2026-04-04T14:30:00Z</time></trkpt><trkpt lat="43.166595341289934" lon="12.884362530395531"><ele>755.4</ele><time>2026-04-04T14:30:04Z</time></trkpt><trkpt lat="43.16668082642721" lon="12.884369032226859"><ele>754.8</ele><time>2026-04-04T14:30:06Z</time></trkpt><trkpt lat="43.16676876216572" lon="12.884372301015917"><ele>754.1999999999999</ele><time>2026-04-04T14:30:08Z</time></trkpt><trkpt lat="43.16686069270868" lon="12.884384069417518"><ele>753.5999999999999</ele><time>2026-04-04T14:30:10Z</time></trkpt><trkpt lat="43.16695291573966" lon="12.884410545007967"><ele>753.0</ele><time>2026-04-04T14:30:12Z</time></trkpt><trkpt lat="43.1670430587688" lon="12.884431508169344"><ele>753.0</ele><time>2026-04-04T14:30:14Z</time></trkpt><trkpt lat="43.16711127473345" lon="12.884437790640343"><ele>753.0</ele><time>2026-04-04T14:30:15Z</time></trkpt><trkpt lat="43.16717431934809" lon="12.884449127778346"><ele>753.0</ele><time>2026-04-04T14:30:16Z</time></trkpt><trkpt lat="43.1673083620588" lon="12.88445508170649"><ele>753.0</ele><time>2026-04-04T14:30:18Z</time></trkpt><trkpt lat="43.16737860689204" lon="12.884466384044389"><ele>753.0</ele><time>2026-04-04T14:30:19Z</time></trkpt><trkpt lat="43.16744319489733" lon="12.884468320042524"><ele>753.0</ele><time>2026-04-04T14:30:20Z</time></trkpt><trkpt lat="43.16751070786188" lon="12.884471225550103"><ele>752.0</ele><time>2026-04-04T14:30:21Z</time></trkpt><trkpt lat="43.16762303033726" lon="12.884494114176944"><ele>751.0</ele><time>2026-04-04T14:30:23Z</time></trkpt><trkpt lat="43.167734868524605" lon="12.884485842282709"><ele>750.0</ele><time>2026-04-04T14:30:25Z</time></trkpt><trkpt lat="43.16769513411144" lon="12.884407873729728"><ele>749.0</ele><time>2026-04-04T14:30:35Z</time></trkpt><trkpt lat="43.167622425229226" lon="12.884354822694258"><ele>748.0</ele><time>2026-04-04T14:30:37Z</time></trkpt><trkpt lat="43.16753077431348" lon="12.884259878108168"><ele>742.6666666666667</ele><time>2026-04-04T14:30:39Z</time></trkpt><trkpt lat="43.16746616066514" lon="12.884252120588513"><ele>737.3333333333334</ele><time>2026-04-04T14:30:41Z</time></trkpt><trkpt lat="43.16739019828255" lon="12.88416822437161"><ele>732.0</ele><time>2026-04-04T14:30:45Z</time></trkpt><trkpt lat="43.16730952774589" lon="12.884105265380311"><ele>726.6666666666666</ele><time>2026-04-04T14:30:47Z</time></trkpt><trkpt lat="43.167264951922654" lon="12.884040182445696"><ele>721.3333333333333</ele><time>2026-04-04T14:30:49.999Z</time></trkpt><trkpt lat="43.167218505629805" lon="12.88396795524459"><ele>716.0</ele><time>2026-04-04T14:30:52.999Z</time></trkpt><trkpt lat="43.16717490053261" lon="12.883899232351023"><ele>715.6666666666666</ele><time>2026-04-04T14:30:54.999Z</time></trkpt><trkpt lat="43.16712727090795" lon="12.88383695938614"><ele>715.3333333333333</ele><time>2026-04-04T14:30:56.999Z</time></trkpt><trkpt lat="43.167050028879444" lon="12.883786919909836"><ele>715.0</ele><time>2026-04-04T14:30:58.999Z</time></trkpt><trkpt lat="43.16695145967224" lon="12.883700096235946"><ele>714.6666666666666</ele><time>2026-04-04T14:31:00.999Z</time></trkpt><trkpt lat="43.16684383475579" lon="12.883676691796849"><ele>714.3333333333334</ele><time>2026-04-04T14:31:02.999Z</time></trkpt><trkpt lat="43.16677492531476" lon="12.883679342250858"><ele>714.0</ele><time>2026-04-04T14:31:04.999Z</time></trkpt><trkpt lat="43.16669008248021" lon="12.883706889227033"><ele>714.0</ele><time>2026-04-04T14:31:06.999Z</time></trkpt><trkpt lat="43.16662676426581" lon="12.883653030444776"><ele>714.0</ele><time>2026-04-04T14:31:08.999Z</time></trkpt><trkpt lat="43.16663969082161" lon="12.883537945386788"><ele>714.0</ele><time>2026-04-04T14:31:10.999Z</time></trkpt><trkpt lat="43.16668155167284" lon="12.883437758984954"><ele>714.0</ele><time>2026-04-04T14:31:11.999Z</time></trkpt><trkpt lat="43.1667549879358" lon="12.8833293004558"><ele>714.0</ele><time>2026-04-04T14:31:13.999Z</time></trkpt><trkpt lat="43.166820556492546" lon="12.883286352234602"><ele>714.0</ele><time>2026-04-04T14:31:14.999Z</time></trkpt><trkpt lat="43.16688818394654" lon="12.883233780656964"><ele>708.8333333333334</ele><time>2026-04-04T14:31:15.999Z</time></trkpt><trkpt lat="43.166949730813485" lon="12.883178312333767"><ele>703.6666666666666</ele><time>2026-04-04T14:31:16.999Z</time></trkpt><trkpt lat="43.16701521991438" lon="12.883140201857636"><ele>698.5</ele><time>2026-04-04T14:31:17.999Z</time></trkpt><trkpt lat="43.16709841294429" lon="12.883104587023517"><ele>693.3333333333333</ele><time>2026-04-04T14:31:19.999Z</time></trkpt><trkpt lat="43.16721359356317" lon="12.883057944944161"><ele>688.1666666666666</ele><time>2026-04-04T14:31:21.999Z</time></trkpt><trkpt lat="43.16728343208473" lon="12.883046680463822"><ele>683.0</ele><time>2026-04-04T14:31:22.999Z</time></trkpt><trkpt lat="43.167384187974854" lon="12.88300992413767"><ele>683.0</ele><time>2026-04-04T14:31:24.999Z</time></trkpt><trkpt lat="43.167495991070815" lon="12.882958924404395"><ele>683.0</ele><time>2026-04-04T14:31:26.999Z</time></trkpt><trkpt lat="43.16756517058589" lon="12.882927194883232"><ele>683.0</ele><time>2026-04-04T14:31:27.999Z</time></trkpt><trkpt lat="43.167627165448245" lon="12.882878549667508"><ele>683.0</ele><time>2026-04-04T14:31:28.999Z</time></trkpt><trkpt lat="43.16770802024067" lon="12.882802028742974"><ele>683.0</ele><time>2026-04-04T14:31:30.999Z</time></trkpt><trkpt lat="43.16782442740313" lon="12.882752216122293"><ele>683.0</ele><time>2026-04-04T14:31:32.999Z</time></trkpt><trkpt lat="43.167930511818" lon="12.882703007212577"><ele>683.0</ele><time>2026-04-04T14:31:34.999Z</time></trkpt><trkpt lat="43.16798247259827" lon="12.882648549829014"><ele>683.0</ele><time>2026-04-04T14:31:35.999Z</time></trkpt><trkpt lat="43.16809438813078" lon="12.882590604070876"><ele>683.0</ele><time>2026-04-04T14:31:37.999Z</time></trkpt><trkpt lat="43.16815821940733" lon="12.882558336966138"><ele>683.0</ele><time>2026-04-04T14:31:38.999Z</time></trkpt><trkpt lat="43.1682285238501" lon="12.882521929302712"><ele>683.0</ele><time>2026-04-04T14:31:39.999Z</time></trkpt><trkpt lat="43.16829356659457" lon="12.882486088931714"><ele>676.1666666666666</ele><time>2026-04-04T14:31:40.999Z</time></trkpt><trkpt lat="43.168354940006424" lon="12.882443303646758"><ele>669.3333333333333</ele><time>2026-04-04T14:31:41.999Z</time></trkpt><trkpt lat="43.16841573415106" lon="12.882385146138525"><ele>662.5</ele><time>2026-04-04T14:31:43Z</time></trkpt><trkpt lat="43.16847760887746" lon="12.882317036390193"><ele>655.6666666666666</ele><time>2026-04-04T14:31:44Z</time></trkpt><trkpt lat="43.16855402304614" lon="12.882259195888988"><ele>648.8333333333334</ele><time>2026-04-04T14:31:45Z</time></trkpt><trkpt lat="43.16863491582137" lon="12.882200811284577"><ele>642.0</ele><time>2026-04-04T14:31:46Z</time></trkpt><trkpt lat="43.168707780619016" lon="12.882158040189935"><ele>641.9999999999999</ele><time>2026-04-04T14:31:47Z</time></trkpt><trkpt lat="43.16877076864207" lon="12.882108011814388"><ele>642.0</ele><time>2026-04-04T14:31:48Z</time></trkpt><trkpt lat="43.16883760450388" lon="12.88205466686996"><ele>642.0</ele><time>2026-04-04T14:31:49Z</time></trkpt><trkpt lat="43.16890773763957" lon="12.882001627152794"><ele>642.0</ele><time>2026-04-04T14:31:50Z</time></trkpt><trkpt lat="43.1689738722039" lon="12.8819577727955"><ele>642.0</ele><time>2026-04-04T14:31:51Z</time></trkpt><trkpt lat="43.16903228134128" lon="12.881921902450765"><ele>641.9999999999999</ele><time>2026-04-04T14:31:52Z</time></trkpt><trkpt lat="43.169097444627354" lon="12.88189804377092"><ele>642.0</ele><time>2026-04-04T14:31:53Z</time></trkpt><trkpt lat="43.16917790853404" lon="12.881863063100338"><ele>642.0</ele><time>2026-04-04T14:31:54Z</time></trkpt><trkpt lat="43.16924530675549" lon="12.881825996200783"><ele>642.0</ele><time>2026-04-04T14:31:55Z</time></trkpt><trkpt lat="43.1692994157804" lon="12.881778521938992"><ele>642.0</ele><time>2026-04-04T14:31:56Z</time></trkpt><trkpt lat="43.169349418122145" lon="12.881665450860424"><ele>642.0</ele><time>2026-04-04T14:31:58Z</time></trkpt><trkpt lat="43.16938187848072" lon="12.881576086311187"><ele>642.0</ele><time>2026-04-04T14:31:59Z</time></trkpt><trkpt lat="43.16943373409779" lon="12.881424554565283"><ele>642.0</ele><time>2026-04-04T14:32:01Z</time></trkpt><trkpt lat="43.16946525246754" lon="12.881346792915975"><ele>636.8333333333334</ele><time>2026-04-04T14:32:02Z</time></trkpt><trkpt lat="43.169490145863534" lon="12.881254211126203"><ele>631.6666666666666</ele><time>2026-04-04T14:32:03Z</time></trkpt><trkpt lat="43.169534886372226" lon="12.881097238973746"><ele>626.5</ele><time>2026-04-04T14:32:05Z</time></trkpt><trkpt lat="43.16958291895864" lon="12.881025250578125"><ele>621.3333333333333</ele><time>2026-04-04T14:32:06Z</time></trkpt><trkpt lat="43.16963204917292" lon="12.880896358529514"><ele>616.1666666666666</ele><time>2026-04-04T14:32:08Z</time></trkpt><trkpt lat="43.16964028729896" lon="12.880809182056675"><ele>611.0</ele><time>2026-04-04T14:32:09Z</time></trkpt><trkpt lat="43.16964781080319" lon="12.880714744895906"><ele>607.8</ele><time>2026-04-04T14:32:10Z</time></trkpt><trkpt lat="43.169644222107834" lon="12.880614397148724"><ele>604.6</ele><time>2026-04-04T14:32:11Z</time></trkpt><trkpt lat="43.169692193767574" lon="12.880481040224051"><ele>601.4</ele><time>2026-04-04T14:32:13Z</time></trkpt><trkpt lat="43.169795609817136" lon="12.880403100390089"><ele>598.2</ele><time>2026-04-04T14:32:15Z</time></trkpt><trkpt lat="43.16990080683594" lon="12.880326693075892"><ele>595.0</ele><time>2026-04-04T14:32:17Z</time></trkpt><trkpt lat="43.16999879587853" lon="12.880257650031833"><ele>594.4</ele><time>2026-04-04T14:32:19Z</time></trkpt><trkpt lat="43.17012897277529" lon="12.880218004004718"><ele>593.8</ele><time>2026-04-04T14:32:21Z</time></trkpt><trkpt lat="43.170212699584056" lon="12.88021994590088"><ele>593.2</ele><time>2026-04-04T14:32:22Z</time></trkpt><trkpt lat="43.17030280687127" lon="12.880206928974514"><ele>592.6</ele><time>2026-04-04T14:32:23Z</time></trkpt><trkpt lat="43.1703880305911" lon="12.880181608290643"><ele>592.0</ele><time>2026-04-04T14:32:24Z</time></trkpt><trkpt lat="43.1704635695276" lon="12.880148934123566"><ele>592.0</ele><time>2026-04-04T14:32:25Z</time></trkpt><trkpt lat="43.1705608081633" lon="12.880204473605476"><ele>592.0</ele><time>2026-04-04T14:32:27Z</time></trkpt><trkpt lat="43.170603421841506" lon="12.880281879146452"><ele>592.0</ele><time>2026-04-04T14:32:28Z</time></trkpt><trkpt lat="43.17065498030749" lon="12.88037665681633"><ele>592.0</ele><time>2026-04-04T14:32:29Z</time></trkpt><trkpt lat="43.170695884104894" lon="12.880473076245169"><ele>592.0</ele><time>2026-04-04T14:32:30Z</time></trkpt><trkpt lat="43.17071402500541" lon="12.880562530577974"><ele>592.0</ele><time>2026-04-04T14:32:31Z</time></trkpt><trkpt lat="43.17069619181433" lon="12.880647499138398"><ele>592.0</ele><time>2026-04-04T14:32:32Z</time></trkpt><trkpt lat="43.17058614793639" lon="12.880763946702682"><ele>592.0</ele><time>2026-04-04T14:32:34Z</time></trkpt><trkpt lat="43.170494266108705" lon="12.880813729506686"><ele>592.0</ele><time>2026-04-04T14:32:35Z</time></trkpt><trkpt lat="43.17041880788185" lon="12.880861875877853"><ele>592.0</ele><time>2026-04-04T14:32:36Z</time></trkpt><trkpt lat="43.170371176395136" lon="12.880920194784501"><ele>592.0</ele><time>2026-04-04T14:32:37Z</time></trkpt><trkpt lat="43.17036254997184" lon="12.881054109537109"><ele>594.4</ele><time>2026-04-04T14:32:39Z</time></trkpt><trkpt lat="43.17040943611556" lon="12.881129917455995"><ele>596.8000000000001</ele><time>2026-04-04T14:32:40Z</time></trkpt><trkpt lat="43.170485801207086" lon="12.88120345660256"><ele>599.2</ele><time>2026-04-04T14:32:41Z</time></trkpt><trkpt lat="43.17057228487365" lon="12.881292179399706"><ele>601.6</ele><time>2026-04-04T14:32:42Z</time></trkpt><trkpt lat="43.170630885629684" lon="12.8814192573345"><ele>604.0</ele><time>2026-04-04T14:32:43Z</time></trkpt><trkpt lat="43.1706731876873" lon="12.881579920839716"><ele>598.6</ele><time>2026-04-04T14:32:44Z</time></trkpt><trkpt lat="43.170710091423395" lon="12.881734586537458"><ele>593.2</ele><time>2026-04-04T14:32:45Z</time></trkpt><trkpt lat="43.170773502648" lon="12.881848245295433"><ele>587.8000000000001</ele><time>2026-04-04T14:32:46Z</time></trkpt><trkpt lat="43.17084462510546" lon="12.881965798823874"><ele>582.4</ele><time>2026-04-04T14:32:47Z</time></trkpt><trkpt lat="43.17090044902505" lon="12.882060597798853"><ele>577.0</ele><time>2026-04-04T14:32:47.999Z</time></trkpt><trkpt lat="43.17093113216922" lon="12.882139382803146"><ele>577.0</ele><time>2026-04-04T14:32:48.999Z</time></trkpt><trkpt lat="43.17095067695592" lon="12.88223654621118"><ele>577.0</ele><time>2026-04-04T14:32:49.999Z</time></trkpt><trkpt lat="43.17096402297265" lon="12.882355790640498"><ele>577.0</ele><time>2026-04-04T14:32:50.999Z</time></trkpt><trkpt lat="43.17099185186622" lon="12.88249783474767"><ele>577.0</ele><time>2026-04-04T14:32:51.999Z</time></trkpt><trkpt lat="43.171028393910944" lon="12.882630261361935"><ele>577.0</ele><time>2026-04-04T14:32:52.999Z</time></trkpt><trkpt lat="43.17107192711504" lon="12.882770907719458"><ele>579.2</ele><time>2026-04-04T14:32:53.999Z</time></trkpt><trkpt lat="43.171113496159805" lon="12.882910724162091"><ele>581.4000000000001</ele><time>2026-04-04T14:32:54.999Z</time></trkpt><trkpt lat="43.17115065992163" lon="12.88303035719632"><ele>583.5999999999999</ele><time>2026-04-04T14:32:55.999Z</time></trkpt><trkpt lat="43.171206382990086" lon="12.883155619401439"><ele>585.8</ele><time>2026-04-04T14:32:56.999Z</time></trkpt><trkpt lat="43.17127110542685" lon="12.883271952094804"><ele>588.0</ele><time>2026-04-04T14:32:57.999Z</time></trkpt><trkpt lat="43.17135414270119" lon="12.883388069169767"><ele>590.1999999999999</ele><time>2026-04-04T14:32:58.999Z</time></trkpt><trkpt lat="43.17143118546253" lon="12.883499889399346"><ele>592.4</ele><time>2026-04-04T14:32:59.999Z</time></trkpt><trkpt lat="43.171476807820014" lon="12.883593096837682"><ele>594.5999999999999</ele><time>2026-04-04T14:33:00.999Z</time></trkpt><trkpt lat="43.17151654794873" lon="12.883696875343695"><ele>596.8</ele><time>2026-04-04T14:33:01.999Z</time></trkpt><trkpt lat="43.171541263127985" lon="12.883816772357116"><ele>599.0</ele><time>2026-04-04T14:33:02.999Z</time></trkpt><trkpt lat="43.1715815170378" lon="12.883964366675384"><ele>588.8</ele><time>2026-04-04T14:33:03.999Z</time></trkpt><trkpt lat="43.1716243237087" lon="12.88409157516821"><ele>578.5999999999999</ele><time>2026-04-04T14:33:04.999Z</time></trkpt><trkpt lat="43.1716704347041" lon="12.884209804395187"><ele>568.4</ele><time>2026-04-04T14:33:05.999Z</time></trkpt><trkpt lat="43.17171359408022" lon="12.884332478779974"><ele>558.1999999999999</ele><time>2026-04-04T14:33:06.999Z</time></trkpt><trkpt lat="43.1717509706524" lon="12.884436352443542"><ele>548.0</ele><time>2026-04-04T14:33:07.999Z</time></trkpt><trkpt lat="43.17177587327378" lon="12.884527723298495"><ele>548.0</ele><time>2026-04-04T14:33:08.999Z</time></trkpt><trkpt lat="43.171791667566055" lon="12.884620723303021"><ele>548.0</ele><time>2026-04-04T14:33:09.999Z</time></trkpt><trkpt lat="43.17180330912005" lon="12.884707361958473"><ele>548.0</ele><time>2026-04-04T14:33:10.999Z</time></trkpt><trkpt lat="43.17185379056021" lon="12.884784481559288"><ele>548.0</ele><time>2026-04-04T14:33:12.999Z</time></trkpt><trkpt lat="43.17191916858934" lon="12.884796576579758"><ele>548.0</ele><time>2026-04-04T14:35:16.999Z</time></trkpt><trkpt lat="43.17198325583858" lon="12.884859131152183"><ele>548.0</ele><time>2026-04-04T14:35:18.999Z</time></trkpt><trkpt lat="43.17201201126532" lon="12.884995877041087"><ele>548.0</ele><time>2026-04-04T14:35:20.999Z</time></trkpt><trkpt lat="43.17201706768788" lon="12.885095584789637"><ele>548.0</ele><time>2026-04-04T14:35:21.999Z</time></trkpt><trkpt lat="43.17202852872074" lon="12.885211788433347"><ele>548.0</ele><time>2026-04-04T14:35:22.999Z</time></trkpt><trkpt lat="43.17203363429023" lon="12.885345069893804"><ele>548.0</ele><time>2026-04-04T14:35:23.999Z</time></trkpt><trkpt lat="43.17203782079672" lon="12.88548108901513"><ele>548.0</ele><time>2026-04-04T14:35:24.999Z</time></trkpt><trkpt lat="43.17205225671464" lon="12.885609464973504"><ele>548.1666666666666</ele><time>2026-04-04T14:35:25.999Z</time></trkpt><trkpt lat="43.17207675998672" lon="12.88569722851749"><ele>548.3333333333333</ele><time>2026-04-04T14:35:26.999Z</time></trkpt><trkpt lat="43.17215910323019" lon="12.8857880531552"><ele>548.5</ele><time>2026-04-04T14:35:28.999Z</time></trkpt><trkpt lat="43.17222350993917" lon="12.885809419563273"><ele>548.6666666666666</ele><time>2026-04-04T14:35:29.999Z</time></trkpt><trkpt lat="43.17230322663041" lon="12.88582543382644"><ele>548.8333333333334</ele><time>2026-04-04T14:35:30.999Z</time></trkpt><trkpt lat="43.17237158684531" lon="12.885867334730744"><ele>549.0</ele><time>2026-04-04T14:35:31.999Z</time></trkpt><trkpt lat="43.17243291909796" lon="12.885936755473892"><ele>551.4</ele><time>2026-04-04T14:35:32.999Z</time></trkpt><trkpt lat="43.17248685071276" lon="12.886026230667547"><ele>553.8</ele><time>2026-04-04T14:35:33.999Z</time></trkpt><trkpt lat="43.17254018045042" lon="12.886140907129402"><ele>556.2</ele><time>2026-04-04T14:35:34.999Z</time></trkpt><trkpt lat="43.17260445859403" lon="12.886255800765879"><ele>558.6</ele><time>2026-04-04T14:35:35.999Z</time></trkpt><trkpt lat="43.17268464973608" lon="12.886368178982407"><ele>561.0</ele><time>2026-04-04T14:35:36.999Z</time></trkpt><trkpt lat="43.172760164378765" lon="12.886477599617791"><ele>561.0</ele><time>2026-04-04T14:35:37.999Z</time></trkpt><trkpt lat="43.17283283853905" lon="12.886587999262371"><ele>561.0</ele><time>2026-04-04T14:35:38.999Z</time></trkpt><trkpt lat="43.1729064540963" lon="12.8866987656214"><ele>561.0</ele><time>2026-04-04T14:35:39.999Z</time></trkpt><trkpt lat="43.17299619885706" lon="12.886821041416963"><ele>561.0</ele><time>2026-04-04T14:35:40.999Z</time></trkpt><trkpt lat="43.173077832106124" lon="12.886948766266539"><ele>563.0</ele><time>2026-04-04T14:35:41.999Z</time></trkpt><trkpt lat="43.17316366989698" lon="12.887068844647471"><ele>565.0</ele><time>2026-04-04T14:35:42.999Z</time></trkpt><trkpt lat="43.173237695927654" lon="12.887191297111757"><ele>567.0</ele><time>2026-04-04T14:35:43.999Z</time></trkpt><trkpt lat="43.17330150703414" lon="12.887311580317265"><ele>569.0</ele><time>2026-04-04T14:35:44.999Z</time></trkpt><trkpt lat="43.1733572999679" lon="12.887398654632074"><ele>571.0</ele><time>2026-04-04T14:35:45.999Z</time></trkpt><trkpt lat="43.173495513923456" lon="12.887405956374941"><ele>571.0</ele><time>2026-04-04T14:35:47.999Z</time></trkpt><trkpt lat="43.17357135953227" lon="12.887433197768885"><ele>571.0</ele><time>2026-04-04T14:35:48.999Z</time></trkpt><trkpt lat="43.17363444235547" lon="12.887518173512087"><ele>571.0</ele><time>2026-04-04T14:35:49.999Z</time></trkpt><trkpt lat="43.173678835357144" lon="12.887599589899027"><ele>571.0</ele><time>2026-04-04T14:35:50.999Z</time></trkpt><trkpt lat="43.173737911312195" lon="12.887663959236706"><ele>571.0</ele><time>2026-04-04T14:35:51.999Z</time></trkpt><trkpt lat="43.173768177518276" lon="12.88774720041724"><ele>571.0</ele><time>2026-04-04T14:35:52.999Z</time></trkpt><trkpt lat="43.17378853456763" lon="12.887842059005354"><ele>573.4</ele><time>2026-04-04T14:35:53.999Z</time></trkpt><trkpt lat="43.17383883144647" lon="12.8879823891767"><ele>575.8</ele><time>2026-04-04T14:35:56Z</time></trkpt><trkpt lat="43.17388605600388" lon="12.888076524922583"><ele>578.1999999999999</ele><time>2026-04-04T14:35:57Z</time></trkpt><trkpt lat="43.173936114052275" lon="12.888172148796496"><ele>580.6</ele><time>2026-04-04T14:35:58Z</time></trkpt><trkpt lat="43.1739858635339" lon="12.888273533268197"><ele>583.0</ele><time>2026-04-04T14:35:59Z</time></trkpt><trkpt lat="43.17402771070478" lon="12.888374929486387"><ele>584.0</ele><time>2026-04-04T14:36:00Z</time></trkpt><trkpt lat="43.17406874915838" lon="12.888505556850651"><ele>585.0</ele><time>2026-04-04T14:36:01Z</time></trkpt><trkpt lat="43.17410738920483" lon="12.888626946141844"><ele>586.0</ele><time>2026-04-04T14:36:02Z</time></trkpt><trkpt lat="43.17415498403562" lon="12.888743730712923"><ele>587.0</ele><time>2026-04-04T14:36:03Z</time></trkpt><trkpt lat="43.174202752848714" lon="12.888853669105181"><ele>588.0</ele><time>2026-04-04T14:36:04Z</time></trkpt><trkpt lat="43.17422655831057" lon="12.88898809463292"><ele>588.0</ele><time>2026-04-04T14:36:05Z</time></trkpt><trkpt lat="43.174257200643346" lon="12.889123927536588"><ele>588.0</ele><time>2026-04-04T14:36:06Z</time></trkpt><trkpt lat="43.17430679967048" lon="12.889260873886043"><ele>588.0</ele><time>2026-04-04T14:36:07Z</time></trkpt><trkpt lat="43.174359352219774" lon="12.889386592613215"><ele>588.0</ele><time>2026-04-04T14:36:08Z</time></trkpt><trkpt lat="43.1743838613228" lon="12.889508071335403"><ele>588.0</ele><time>2026-04-04T14:36:09Z</time></trkpt><trkpt lat="43.174371035270916" lon="12.889619243699732"><ele>590.4</ele><time>2026-04-04T14:36:10Z</time></trkpt><trkpt lat="43.1743501807728" lon="12.88972846282508"><ele>592.8</ele><time>2026-04-04T14:36:11Z</time></trkpt><trkpt lat="43.1743486323429" lon="12.889844163651736"><ele>595.2</ele><time>2026-04-04T14:36:12Z</time></trkpt><trkpt lat="43.174383462229166" lon="12.889963309822067"><ele>597.6</ele><time>2026-04-04T14:36:13Z</time></trkpt><trkpt lat="43.17442698338605" lon="12.890094379381006"><ele>600.0</ele><time>2026-04-04T14:36:14Z</time></trkpt><trkpt lat="43.174479964687414" lon="12.890210650188788"><ele>604.1666666666666</ele><time>2026-04-04T14:36:15Z</time></trkpt><trkpt lat="43.17451722807134" lon="12.890338895370004"><ele>608.3333333333334</ele><time>2026-04-04T14:36:16Z</time></trkpt><trkpt lat="43.17454637623718" lon="12.890457229416038"><ele>612.5</ele><time>2026-04-04T14:36:17Z</time></trkpt><trkpt lat="43.17455161387832" lon="12.890565490220984"><ele>616.6666666666667</ele><time>2026-04-04T14:36:18Z</time></trkpt><trkpt lat="43.174551442360325" lon="12.890667774537713"><ele>620.8333333333334</ele><time>2026-04-04T14:36:19Z</time></trkpt><trkpt lat="43.174574501297855" lon="12.890749397360384"><ele>625.0</ele><time>2026-04-04T14:36:20Z</time></trkpt><trkpt lat="43.17463041254843" lon="12.890912035361264"><ele>623.5</ele><time>2026-04-04T14:36:22Z</time></trkpt><trkpt lat="43.174700334545015" lon="12.891037440966144"><ele>622.0</ele><time>2026-04-04T14:36:24Z</time></trkpt><trkpt lat="43.17471453994214" lon="12.891131931040608"><ele>620.5</ele><time>2026-04-04T14:36:25Z</time></trkpt><trkpt lat="43.17473894198676" lon="12.891217978700487"><ele>619.0</ele><time>2026-04-04T14:36:26Z</time></trkpt><trkpt lat="43.17479071771628" lon="12.89129691547708"><ele>617.5</ele><time>2026-04-04T14:36:27Z</time></trkpt><trkpt lat="43.17484811797633" lon="12.891374522396038"><ele>616.0</ele><time>2026-04-04T14:36:28Z</time></trkpt><trkpt lat="43.17489657920426" lon="12.891461524572614"><ele>616.0</ele><time>2026-04-04T14:36:29Z</time></trkpt><trkpt lat="43.17495224569188" lon="12.891533545897861"><ele>616.0</ele><time>2026-04-04T14:36:30Z</time></trkpt><trkpt lat="43.17500145497538" lon="12.891605698074995"><ele>616.0</ele><time>2026-04-04T14:36:31Z</time></trkpt><trkpt lat="43.17503639096758" lon="12.891701657272662"><ele>616.0</ele><time>2026-04-04T14:36:32Z</time></trkpt><trkpt lat="43.17506127711385" lon="12.89182363950653"><ele>616.0</ele><time>2026-04-04T14:36:33Z</time></trkpt><trkpt lat="43.17508613009775" lon="12.891936380309359"><ele>616.0</ele><time>2026-04-04T14:36:34Z</time></trkpt><trkpt lat="43.175162868775566" lon="12.892069416295005"><ele>618.6666666666667</ele><time>2026-04-04T14:36:36Z</time></trkpt><trkpt lat="43.175218126823054" lon="12.892152924013844"><ele>621.3333333333334</ele><time>2026-04-04T14:36:37Z</time></trkpt><trkpt lat="43.17526288060797" lon="12.892230050511593"><ele>624.0</ele><time>2026-04-04T14:36:38Z</time></trkpt><trkpt lat="43.1752796126716" lon="12.892323402838292"><ele>626.6666666666666</ele><time>2026-04-04T14:36:39Z</time></trkpt><trkpt lat="43.17527973070586" lon="12.89241899087112"><ele>629.3333333333333</ele><time>2026-04-04T14:36:40Z</time></trkpt><trkpt lat="43.17531485349577" lon="12.892543650939146"><ele>632.0</ele><time>2026-04-04T14:36:42Z</time></trkpt><trkpt lat="43.175361270467924" lon="12.892606998836714"><ele>637.4000000000001</ele><time>2026-04-04T14:36:44Z</time></trkpt><trkpt lat="43.17545654387444" lon="12.89271345210088"><ele>642.8000000000001</ele><time>2026-04-04T14:37:30.999Z</time></trkpt><trkpt lat="43.17552115683296" lon="12.892813225243522"><ele>648.2</ele><time>2026-04-04T14:37:31.999Z</time></trkpt><trkpt lat="43.1755758772149" lon="12.892945681092915"><ele>653.6</ele><time>2026-04-04T14:37:32.999Z</time></trkpt><trkpt lat="43.175608916007455" lon="12.893059604998145"><ele>659.0</ele><time>2026-04-04T14:37:33.999Z</time></trkpt><trkpt lat="43.175639571031695" lon="12.893148183452292"><ele>659.0</ele><time>2026-04-04T14:37:34.999Z</time></trkpt><trkpt lat="43.1756591302438" lon="12.893275606468404"><ele>659.0</ele><time>2026-04-04T14:37:35.999Z</time></trkpt><trkpt lat="43.17570304744255" lon="12.893375790054959"><ele>659.0</ele><time>2026-04-04T14:37:36.999Z</time></trkpt><trkpt lat="43.175727883507236" lon="12.893482152904005"><ele>659.0</ele><time>2026-04-04T14:37:37.999Z</time></trkpt><trkpt lat="43.17575539775516" lon="12.893620161554189"><ele>659.0</ele><time>2026-04-04T14:37:38.999Z</time></trkpt><trkpt lat="43.17577186839039" lon="12.893736278007845"><ele>659.1666666666666</ele><time>2026-04-04T14:37:39.999Z</time></trkpt><trkpt lat="43.17579217680087" lon="12.893831974863376"><ele>659.3333333333333</ele><time>2026-04-04T14:37:40.999Z</time></trkpt><trkpt lat="43.175803237737185" lon="12.893938170830603"><ele>659.5</ele><time>2026-04-04T14:37:41.999Z</time></trkpt><trkpt lat="43.17580720395247" lon="12.894047554344604"><ele>659.6666666666666</ele><time>2026-04-04T14:37:42.999Z</time></trkpt><trkpt lat="43.17579924623574" lon="12.894155880528217"><ele>659.8333333333334</ele><time>2026-04-04T14:37:43.999Z</time></trkpt><trkpt lat="43.17584586915717" lon="12.894289432204587"><ele>660.0</ele><time>2026-04-04T14:37:45.999Z</time></trkpt><trkpt lat="43.17590050074713" lon="12.894371463714105"><ele>663.5</ele><time>2026-04-04T14:37:47.999Z</time></trkpt><trkpt lat="43.1759356413364" lon="12.894460172574195"><ele>667.0</ele><time>2026-04-04T14:37:49.999Z</time></trkpt><trkpt lat="43.17598302117867" lon="12.894565128005144"><ele>670.5</ele><time>2026-04-04T14:37:51.999Z</time></trkpt><trkpt lat="43.17601453593319" lon="12.894683925955624"><ele>674.0</ele><time>2026-04-04T14:37:53.999Z</time></trkpt><trkpt lat="43.17602492615021" lon="12.894769229868217"><ele>677.5</ele><time>2026-04-04T14:37:54.999Z</time></trkpt><trkpt lat="43.17601492875609" lon="12.894917826621256"><ele>681.0</ele><time>2026-04-04T14:37:56.999Z</time></trkpt><trkpt lat="43.176009009579175" lon="12.895027289016753"><ele>684.0</ele><time>2026-04-04T14:37:58.999Z</time></trkpt><trkpt lat="43.17602967595206" lon="12.89513638032044"><ele>687.0</ele><time>2026-04-04T14:38:01Z</time></trkpt><trkpt lat="43.17598643504576" lon="12.895210548487873"><ele>690.0</ele><time>2026-04-04T14:38:10Z</time></trkpt><trkpt lat="43.17597786990603" lon="12.895327439526142"><ele>693.0</ele><time>2026-04-04T14:38:14Z</time></trkpt><trkpt lat="43.175978099363306" lon="12.895436292815521"><ele>696.0</ele><time>2026-04-04T14:38:16Z</time></trkpt><trkpt lat="43.17593849376732" lon="12.89557498173438"><ele>699.0</ele><time>2026-04-04T14:38:18Z</time></trkpt><trkpt lat="43.17598845756627" lon="12.895701968961177"><ele>699.0</ele><time>2026-04-04T14:38:21Z</time></trkpt><trkpt lat="43.17602649259596" lon="12.895820371754729"><ele>699.0</ele><time>2026-04-04T14:38:23Z</time></trkpt><trkpt lat="43.17602320584755" lon="12.895912274522683"><ele>699.0</ele><time>2026-04-04T14:39:04Z</time></trkpt><trkpt lat="43.17604409530419" lon="12.896011591215453"><ele>699.0</ele><time>2026-04-04T14:39:06Z</time></trkpt><trkpt lat="43.17607067909159" lon="12.89614566526942"><ele>699.0</ele><time>2026-04-04T14:39:08Z</time></trkpt><trkpt lat="43.17603140859714" lon="12.89626367102217"><ele>699.0</ele><time>2026-04-04T14:39:10Z</time></trkpt><trkpt lat="43.17599888932403" lon="12.896371452794973"><ele>701.1666666666666</ele><time>2026-04-04T14:39:10.999Z</time></trkpt><trkpt lat="43.17595707123978" lon="12.896503928614804"><ele>703.3333333333334</ele><time>2026-04-04T14:39:11.999Z</time></trkpt><trkpt lat="43.17592702044817" lon="12.896592467516227"><ele>705.5</ele><time>2026-04-04T14:39:12.999Z</time></trkpt><trkpt lat="43.175879798949836" lon="12.896674482054848"><ele>707.6666666666667</ele><time>2026-04-04T14:39:13.999Z</time></trkpt><trkpt lat="43.17584399799841" lon="12.8967601358452"><ele>709.8333333333334</ele><time>2026-04-04T14:39:14.999Z</time></trkpt><trkpt lat="43.17577103233253" lon="12.896880114110386"><ele>712.0</ele><time>2026-04-04T14:39:16.999Z</time></trkpt><trkpt lat="43.175747204859796" lon="12.896974982947834"><ele>715.0</ele><time>2026-04-04T14:39:18.999Z</time></trkpt><trkpt lat="43.17582049441323" lon="12.897075236776143"><ele>718.0</ele><time>2026-04-04T14:39:20.999Z</time></trkpt><trkpt lat="43.175886177779205" lon="12.897128254701512"><ele>721.0</ele><time>2026-04-04T14:39:21.999Z</time></trkpt><trkpt lat="43.17595641084176" lon="12.897169392575055"><ele>724.0</ele><time>2026-04-04T14:39:22.999Z</time></trkpt><trkpt lat="43.17602948923128" lon="12.897216395106865"><ele>727.0</ele><time>2026-04-04T14:39:23.999Z</time></trkpt><trkpt lat="43.17609932487561" lon="12.897266994018462"><ele>730.0</ele><time>2026-04-04T14:39:24.999Z</time></trkpt><trkpt lat="43.1761595671902" lon="12.897328649641352"><ele>730.0</ele><time>2026-04-04T14:39:25.999Z</time></trkpt><trkpt lat="43.17623179540564" lon="12.897474347193478"><ele>730.0</ele><time>2026-04-04T14:39:27.999Z</time></trkpt><trkpt lat="43.17625495188162" lon="12.897578810721912"><ele>730.0</ele><time>2026-04-04T14:39:29.999Z</time></trkpt><trkpt lat="43.17629858321302" lon="12.897653264180116"><ele>730.0</ele><time>2026-04-04T14:39:32.999Z</time></trkpt><trkpt lat="43.17637441924822" lon="12.897726486081352"><ele>730.0</ele><time>2026-04-04T14:39:34.999Z</time></trkpt><trkpt lat="43.176429091467824" lon="12.897783856973637"><ele>730.0</ele><time>2026-04-04T14:39:35.999Z</time></trkpt><trkpt lat="43.17647489215564" lon="12.897848012551178"><ele>732.2857142857143</ele><time>2026-04-04T14:39:36.999Z</time></trkpt><trkpt lat="43.176524929228684" lon="12.897912149056381"><ele>734.5714285714286</ele><time>2026-04-04T14:39:37.999Z</time></trkpt><trkpt lat="43.176572701831205" lon="12.89797334827668"><ele>736.8571428571429</ele><time>2026-04-04T14:39:38.999Z</time></trkpt><trkpt lat="43.176616810759974" lon="12.898045054414418"><ele>739.1428571428571</ele><time>2026-04-04T14:39:39.999Z</time></trkpt><trkpt lat="43.176682322756314" lon="12.89814872623268"><ele>741.4285714285714</ele><time>2026-04-04T14:39:41.999Z</time></trkpt><trkpt lat="43.176735881438276" lon="12.898206627635197"><ele>743.7142857142858</ele><time>2026-04-04T14:39:50.999Z</time></trkpt><trkpt lat="43.17679568470216" lon="12.898258227963382"><ele>746.0</ele><time>2026-04-04T14:39:52.999Z</time></trkpt><trkpt lat="43.17687944619441" lon="12.898310379388327"><ele>746.0</ele><time>2026-04-04T14:39:55.999Z</time></trkpt><trkpt lat="43.17695740377335" lon="12.898353336496216"><ele>746.0</ele><time>2026-04-04T14:39:57.999Z</time></trkpt><trkpt lat="43.17702565222426" lon="12.89844051865311"><ele>746.0</ele><time>2026-04-04T14:39:59.999Z</time></trkpt><trkpt lat="43.17712639359873" lon="12.898543262194497"><ele>746.0</ele><time>2026-04-04T14:40:01.999Z</time></trkpt><trkpt lat="43.177218506929904" lon="12.898583196134984"><ele>746.0</ele><time>2026-04-04T14:40:02.999Z</time></trkpt><trkpt lat="43.17728621008824" lon="12.898633138994791"><ele>749.1666666666666</ele><time>2026-04-04T14:40:03.999Z</time></trkpt><trkpt lat="43.17735582637558" lon="12.89868546675288"><ele>752.3333333333333</ele><time>2026-04-04T14:40:04.999Z</time></trkpt><trkpt lat="43.17741243259635" lon="12.898754068875064"><ele>755.5</ele><time>2026-04-04T14:40:06Z</time></trkpt><trkpt lat="43.17741245371181" lon="12.898903640762251"><ele>758.6666666666666</ele><time>2026-04-04T14:40:08Z</time></trkpt><trkpt lat="43.177429303528804" lon="12.89900920483235"><ele>761.8333333333334</ele><time>2026-04-04T14:40:10Z</time></trkpt><trkpt lat="43.177469518290096" lon="12.899114349860968"><ele>765.0</ele><time>2026-04-04T14:40:12Z</time></trkpt><trkpt lat="43.17751059739976" lon="12.899181739047048"><ele>765.0</ele><time>2026-04-04T14:40:13Z</time></trkpt><trkpt lat="43.17756757148603" lon="12.899248848425463"><ele>765.0</ele><time>2026-04-04T14:40:14Z</time></trkpt><trkpt lat="43.177596278142424" lon="12.899417630319661"><ele>765.0</ele><time>2026-04-04T14:40:16Z</time></trkpt><trkpt lat="43.17763329788907" lon="12.899502184496669"><ele>765.0</ele><time>2026-04-04T14:40:17Z</time></trkpt><trkpt lat="43.17765938697175" lon="12.899604579091706"><ele>765.0</ele><time>2026-04-04T14:40:19Z</time></trkpt><trkpt lat="43.177666546709155" lon="12.8997140560628"><ele>765.0</ele><time>2026-04-04T14:40:20Z</time></trkpt><trkpt lat="43.17774090845043" lon="12.899803518533243"><ele>766.8333333333334</ele><time>2026-04-04T14:40:23Z</time></trkpt><trkpt lat="43.1778141006661" lon="12.899869116109127"><ele>768.6666666666667</ele><time>2026-04-04T14:40:24Z</time></trkpt><trkpt lat="43.177844647512806" lon="12.899969505674846"><ele>770.5</ele><time>2026-04-04T14:40:25Z</time></trkpt><trkpt lat="43.17786061504992" lon="12.900084908687054"><ele>772.3333333333334</ele><time>2026-04-04T14:40:26Z</time></trkpt><trkpt lat="43.17788681490403" lon="12.900174577423218"><ele>774.1666666666667</ele><time>2026-04-04T14:40:28Z</time></trkpt><trkpt lat="43.177890333313435" lon="12.900267239017603"><ele>776.0</ele><time>2026-04-04T14:40:35Z</time></trkpt><trkpt lat="43.17792834042942" lon="12.900352941854214"><ele>779.1666666666667</ele><time>2026-04-04T14:40:39Z</time></trkpt><trkpt lat="43.178001932066316" lon="12.900387574615335"><ele>782.3333333333334</ele><time>2026-04-04T14:40:41Z</time></trkpt><trkpt lat="43.17806850399432" lon="12.900427690565534"><ele>785.5</ele><time>2026-04-04T14:40:43Z</time></trkpt><trkpt lat="43.17814124103925" lon="12.900409347777622"><ele>788.6666666666667</ele><time>2026-04-04T14:40:46Z</time></trkpt><trkpt lat="43.17820559200793" lon="12.900435120814395"><ele>791.8333333333334</ele><time>2026-04-04T14:40:49Z</time></trkpt><trkpt lat="43.17829666697386" lon="12.900469768201393"><ele>795.0</ele><time>2026-04-04T14:40:52Z</time></trkpt><trkpt lat="43.17837842403632" lon="12.90045543639454"><ele>796.3333333333334</ele><time>2026-04-04T14:40:54Z</time></trkpt><trkpt lat="43.17846095373449" lon="12.9004356796407"><ele>797.6666666666667</ele><time>2026-04-04T14:40:55Z</time></trkpt><trkpt lat="43.17855593068072" lon="12.900411473317591"><ele>799.0</ele><time>2026-04-04T14:40:56Z</time></trkpt><trkpt lat="43.17864732198699" lon="12.900454752091584"><ele>800.3333333333334</ele><time>2026-04-04T14:40:58Z</time></trkpt><trkpt lat="43.17873150966736" lon="12.90047302810324"><ele>801.6666666666667</ele><time>2026-04-04T14:41:00Z</time></trkpt><trkpt lat="43.178793378984295" lon="12.90045228074887"><ele>803.0</ele><time>2026-04-04T14:41:02Z</time></trkpt><trkpt lat="43.17887088911233" lon="12.900433202144908"><ele>803.0000000000001</ele><time>2026-04-04T14:41:05Z</time></trkpt><trkpt lat="43.17892986979598" lon="12.900488676789182"><ele>803.0</ele><time>2026-04-04T14:41:07Z</time></trkpt><trkpt lat="43.17896172494552" lon="12.900568574136994"><ele>803.0</ele><time>2026-04-04T14:41:09.999Z</time></trkpt><trkpt lat="43.179005360970045" lon="12.900640832636762"><ele>803.0</ele><time>2026-04-04T14:41:15.999Z</time></trkpt><trkpt lat="43.17902237047692" lon="12.90055395606585"><ele>803.0000000000001</ele><time>2026-04-04T14:41:21.999Z</time></trkpt><trkpt lat="43.17909398326359" lon="12.900685155870882"><ele>803.0</ele><time>2026-04-04T14:41:25.999Z</time></trkpt><trkpt lat="43.17914026592161" lon="12.900800093668389"><ele>806.8571428571428</ele><time>2026-04-04T14:41:27.999Z</time></trkpt><trkpt lat="43.17916914884607" lon="12.900885119382185"><ele>810.7142857142857</ele><time>2026-04-04T14:41:29.999Z</time></trkpt><trkpt lat="43.17921133718843" lon="12.90096273776766"><ele>814.5714285714286</ele><time>2026-04-04T14:41:32.999Z</time></trkpt><trkpt lat="43.179225171165214" lon="12.901056629962325"><ele>818.4285714285713</ele><time>2026-04-04T14:41:42.999Z</time></trkpt><trkpt lat="43.17926154347704" lon="12.90116004994005"><ele>822.2857142857143</ele><time>2026-04-04T14:41:45.999Z</time></trkpt><trkpt lat="43.17931587150657" lon="12.901234425346814"><ele>826.1428571428571</ele><time>2026-04-04T14:41:51.999Z</time></trkpt><trkpt lat="43.17929876959215" lon="12.901319161959297"><ele>830.0</ele><time>2026-04-04T14:41:55.999Z</time></trkpt><trkpt lat="43.17929744357655" lon="12.901424742159477"><ele>831.0000000000001</ele><time>2026-04-04T14:41:59.999Z</time></trkpt><trkpt lat="43.179365153511704" lon="12.90145200158421"><ele>832.0</ele><time>2026-04-04T14:42:11.999Z</time></trkpt><trkpt lat="43.17941993278948" lon="12.901399328918735"><ele>833.0</ele><time>2026-04-04T14:42:30Z</time></trkpt><trkpt lat="43.179504002731115" lon="12.90146016188224"><ele>834.0</ele><time>2026-04-04T14:45:20.999Z</time></trkpt><trkpt lat="43.17956958410585" lon="12.901522159285113"><ele>835.0000000000001</ele><time>2026-04-04T14:45:23.999Z</time></trkpt><trkpt lat="43.17961722876351" lon="12.901607855159204"><ele>836.0</ele><time>2026-04-04T14:45:25.999Z</time></trkpt><trkpt lat="43.17964676358938" lon="12.901687573847846"><ele>838.6666666666667</ele><time>2026-04-04T14:45:27.999Z</time></trkpt><trkpt lat="43.17972168683058" lon="12.901818837096808"><ele>841.3333333333334</ele><time>2026-04-04T14:45:54.999Z</time></trkpt><trkpt lat="43.179795715453814" lon="12.901879149925676"><ele>844.0</ele><time>2026-04-04T14:45:58.999Z</time></trkpt><trkpt lat="43.17983399768294" lon="12.901991825924673"><ele>846.6666666666667</ele><time>2026-04-04T14:46:16.999Z</time></trkpt><trkpt lat="43.1798446411022" lon="12.9020779800298"><ele>849.3333333333334</ele><time>2026-04-04T14:46:20.999Z</time></trkpt><trkpt lat="43.179911321710534" lon="12.902082090164198"><ele>852.0</ele><time>2026-04-04T14:46:47.999Z</time></trkpt><trkpt lat="43.179973972523136" lon="12.902140307975683"><ele>854.0</ele><time>2026-04-04T14:47:53.998Z</time></trkpt><trkpt lat="43.18004504664096" lon="12.902132688393134"><ele>856.0</ele><time>2026-04-04T14:48:07.998Z</time></trkpt><trkpt lat="43.18012056299702" lon="12.90212560334814"><ele>858.0</ele><time>2026-04-04T14:48:11.998Z</time></trkpt><trkpt lat="43.180180935385806" lon="12.90208291010644"><ele>860.0</ele><time>2026-04-04T14:48:16.998Z</time></trkpt><trkpt lat="43.18024298998736" lon="12.902033955629511"><ele>862.0</ele><time>2026-04-04T14:48:40.998Z</time></trkpt><trkpt lat="43.18032226038176" lon="12.902155416434272"><ele>864.0</ele><time>2026-04-04T14:49:16.999Z</time></trkpt><trkpt lat="43.180331598136675" lon="12.902282775323469"><ele>864.0</ele><time>2026-04-04T14:49:19.999Z</time></trkpt><trkpt lat="43.180379446697856" lon="12.902405000802721"><ele>864.0</ele><time>2026-04-04T14:49:22.999Z</time></trkpt><trkpt lat="43.18041855478238" lon="12.90248143201016"><ele>864.0</ele><time>2026-04-04T14:49:31.999Z</time></trkpt><trkpt lat="43.180431351604895" lon="12.902570546484679"><ele>864.0</ele><time>2026-04-04T14:49:33.999Z</time></trkpt><trkpt lat="43.18049748402079" lon="12.902607839862714"><ele>864.0</ele><time>2026-04-04T14:49:35.999Z</time></trkpt><trkpt lat="43.18053147783879" lon="12.902706471858677"><ele>864.0</ele><time>2026-04-04T14:49:37.999Z</time></trkpt><trkpt lat="43.18058450553533" lon="12.902801290471485"><ele>865.8333333333334</ele><time>2026-04-04T14:49:39.999Z</time></trkpt><trkpt lat="43.18065143584228" lon="12.902779064903553"><ele>867.6666666666667</ele><time>2026-04-04T14:49:42.999Z</time></trkpt><trkpt lat="43.18072522942685" lon="12.902794013576601"><ele>869.5</ele><time>2026-04-04T14:49:45.999Z</time></trkpt><trkpt lat="43.18077839194896" lon="12.902852480001958"><ele>871.3333333333334</ele><time>2026-04-04T14:49:49.999Z</time></trkpt><trkpt lat="43.18087661390809" lon="12.902854349793683"><ele>873.1666666666667</ele><time>2026-04-04T14:49:53.999Z</time></trkpt><trkpt lat="43.18094208687102" lon="12.902919954013822"><ele>875.0</ele><time>2026-04-04T14:49:56.999Z</time></trkpt><trkpt lat="43.18094124147865" lon="12.903010561198897"><ele>876.2</ele><time>2026-04-04T14:51:34.999Z</time></trkpt><trkpt lat="43.180936287387574" lon="12.903136492372584"><ele>877.4</ele><time>2026-04-04T14:51:36.999Z</time></trkpt><trkpt lat="43.18091175607701" lon="12.903279661108561"><ele>878.5999999999999</ele><time>2026-04-04T14:51:38.999Z</time></trkpt><trkpt lat="43.180877938633195" lon="12.903424182639508"><ele>879.8</ele><time>2026-04-04T14:51:40.999Z</time></trkpt><trkpt lat="43.18087896503235" lon="12.903582850164277"><ele>881.0</ele><time>2026-04-04T14:51:42.999Z</time></trkpt><trkpt lat="43.18089736053554" lon="12.903669270473786"><ele>882.1666666666667</ele><time>2026-04-04T14:51:43.999Z</time></trkpt><trkpt lat="43.18090560820864" lon="12.903762471143008"><ele>883.3333333333334</ele><time>2026-04-04T14:51:44.999Z</time></trkpt><trkpt lat="43.180904364559005" lon="12.903867666996122"><ele>884.5</ele><time>2026-04-04T14:51:45.999Z</time></trkpt><trkpt lat="43.18088667873492" lon="12.903982909518936"><ele>885.6666666666667</ele><time>2026-04-04T14:51:46.999Z</time></trkpt><trkpt lat="43.180860086516816" lon="12.904112639371686"><ele>886.8333333333334</ele><time>2026-04-04T14:51:47.999Z</time></trkpt><trkpt lat="43.18082981264073" lon="12.904231733019248"><ele>888.0</ele><time>2026-04-04T14:51:48.999Z</time></trkpt><trkpt lat="43.18079355198507" lon="12.904338327092777"><ele>889.5</ele><time>2026-04-04T14:51:49.999Z</time></trkpt><trkpt lat="43.18076165883078" lon="12.904449653136231"><ele>891.0</ele><time>2026-04-04T14:51:50.999Z</time></trkpt><trkpt lat="43.18075564133818" lon="12.904560849694196"><ele>892.5</ele><time>2026-04-04T14:51:51.999Z</time></trkpt><trkpt lat="43.18077354372141" lon="12.904673674284616"><ele>894.0</ele><time>2026-04-04T14:51:52.999Z</time></trkpt><trkpt lat="43.18079269700549" lon="12.904786781211998"><ele>895.5</ele><time>2026-04-04T14:51:53.999Z</time></trkpt><trkpt lat="43.18079718796537" lon="12.904894045040747"><ele>897.0</ele><time>2026-04-04T14:51:54.999Z</time></trkpt><trkpt lat="43.18078615146102" lon="12.90498330190857"><ele>897.0</ele><time>2026-04-04T14:51:55.999Z</time></trkpt><trkpt lat="43.18076178329335" lon="12.905068734383926"><ele>897.0</ele><time>2026-04-04T14:51:56.999Z</time></trkpt><trkpt lat="43.18075302557785" lon="12.905168496076172"><ele>897.0</ele><time>2026-04-04T14:51:57.999Z</time></trkpt><trkpt lat="43.18074673522861" lon="12.905274785034091"><ele>897.0</ele><time>2026-04-04T14:51:58.999Z</time></trkpt><trkpt lat="43.18074296012164" lon="12.905395707454947"><ele>897.0</ele><time>2026-04-04T14:51:59.999Z</time></trkpt><trkpt lat="43.18074495528965" lon="12.905524411463228"><ele>897.0</ele><time>2026-04-04T14:52:00.999Z</time></trkpt><trkpt lat="43.180746006137845" lon="12.905642154022368"><ele>897.0</ele><time>2026-04-04T14:52:01.999Z</time></trkpt><trkpt lat="43.1807440557026" lon="12.905745176657428"><ele>897.0</ele><time>2026-04-04T14:52:02.999Z</time></trkpt><trkpt lat="43.18072045291127" lon="12.905830361496868"><ele>897.0</ele><time>2026-04-04T14:52:03.999Z</time></trkpt><trkpt lat="43.180677796495196" lon="12.90590182475912"><ele>897.0</ele><time>2026-04-04T14:52:04.999Z</time></trkpt><trkpt lat="43.18061942624103" lon="12.90595908128075"><ele>897.0</ele><time>2026-04-04T14:52:05.999Z</time></trkpt><trkpt lat="43.18055981110552" lon="12.906000098931978"><ele>897.0</ele><time>2026-04-04T14:52:06.999Z</time></trkpt><trkpt lat="43.180433825518065" lon="12.905994742085433"><ele>897.0</ele><time>2026-04-04T14:52:08.999Z</time></trkpt><trkpt lat="43.18036967290453" lon="12.905940691312235"><ele>897.0</ele><time>2026-04-04T14:52:09.999Z</time></trkpt><trkpt lat="43.180302308463055" lon="12.905871192143824"><ele>897.0</ele><time>2026-04-04T14:52:10.999Z</time></trkpt><trkpt lat="43.18022449573148" lon="12.905816160013584"><ele>897.0</ele><time>2026-04-04T14:52:11.999Z</time></trkpt><trkpt lat="43.18013922323487" lon="12.905773350422887"><ele>897.0</ele><time>2026-04-04T14:52:12.999Z</time></trkpt><trkpt lat="43.180053809550905" lon="12.90572906716617"><ele>897.0</ele><time>2026-04-04T14:52:13.999Z</time></trkpt><trkpt lat="43.179959176861765" lon="12.905673444450851"><ele>897.0</ele><time>2026-04-04T14:52:14.999Z</time></trkpt><trkpt lat="43.179858677145766" lon="12.905621338718705"><ele>897.0</ele><time>2026-04-04T14:52:15.999Z</time></trkpt><trkpt lat="43.179770224043054" lon="12.90557451063114"><ele>897.0</ele><time>2026-04-04T14:52:16.999Z</time></trkpt><trkpt lat="43.1796809549795" lon="12.90552730606537"><ele>897.0</ele><time>2026-04-04T14:52:17.999Z</time></trkpt><trkpt lat="43.17958286270865" lon="12.905470182018554"><ele>897.0</ele><time>2026-04-04T14:52:18.999Z</time></trkpt><trkpt lat="43.17947576712322" lon="12.905402877423871"><ele>890.75</ele><time>2026-04-04T14:52:19.999Z</time></trkpt><trkpt lat="43.17937008217927" lon="12.905337833910876"><ele>884.5</ele><time>2026-04-04T14:52:20.999Z</time></trkpt><trkpt lat="43.17926026006507" lon="12.905275310606465"><ele>878.25</ele><time>2026-04-04T14:52:21.999Z</time></trkpt><trkpt lat="43.17913889373991" lon="12.905190834565287"><ele>872.0</ele><time>2026-04-04T14:52:22.999Z</time></trkpt><trkpt lat="43.17902669191357" lon="12.90511190300678"><ele>871.6</ele><time>2026-04-04T14:52:23.999Z</time></trkpt><trkpt lat="43.178922257784386" lon="12.905042024527434"><ele>871.2</ele><time>2026-04-04T14:52:24.999Z</time></trkpt><trkpt lat="43.178815178519905" lon="12.904982194215753"><ele>870.8</ele><time>2026-04-04T14:52:25.999Z</time></trkpt><trkpt lat="43.17872475840168" lon="12.904937052166586"><ele>870.4</ele><time>2026-04-04T14:52:26.999Z</time></trkpt><trkpt lat="43.1786294285985" lon="12.904878656290867"><ele>870.0</ele><time>2026-04-04T14:52:27.999Z</time></trkpt><trkpt lat="43.178528593050224" lon="12.904807294446817"><ele>870.0</ele><time>2026-04-04T14:52:28.999Z</time></trkpt><trkpt lat="43.17842206960428" lon="12.90473848147072"><ele>870.0</ele><time>2026-04-04T14:52:29.999Z</time></trkpt><trkpt lat="43.17833159341676" lon="12.90466974797578"><ele>870.0</ele><time>2026-04-04T14:52:30.999Z</time></trkpt><trkpt lat="43.17822373865019" lon="12.904612859718345"><ele>870.0</ele><time>2026-04-04T14:52:31.999Z</time></trkpt><trkpt lat="43.17812679499052" lon="12.904564212453456"><ele>870.0</ele><time>2026-04-04T14:52:32.999Z</time></trkpt><trkpt lat="43.17802331502315" lon="12.90451731158949"><ele>864.6</ele><time>2026-04-04T14:52:33.999Z</time></trkpt><trkpt lat="43.177923325399796" lon="12.904468501051714"><ele>859.2</ele><time>2026-04-04T14:52:34.999Z</time></trkpt><trkpt lat="43.17783081947121" lon="12.904438078381233"><ele>853.8</ele><time>2026-04-04T14:52:35.999Z</time></trkpt><trkpt lat="43.177735282058876" lon="12.904411539975152"><ele>848.4</ele><time>2026-04-04T14:52:36.999Z</time></trkpt><trkpt lat="43.1776460917985" lon="12.90439010093143"><ele>843.0</ele><time>2026-04-04T14:52:37.999Z</time></trkpt><trkpt lat="43.17757674058599" lon="12.904365885275817"><ele>843.0</ele><time>2026-04-04T14:52:38.999Z</time></trkpt><trkpt lat="43.17751243950005" lon="12.904361078572629"><ele>843.0</ele><time>2026-04-04T14:52:39.999Z</time></trkpt><trkpt lat="43.177425742481354" lon="12.904335749239362"><ele>843.0</ele><time>2026-04-04T14:52:42Z</time></trkpt><trkpt lat="43.177353163749" lon="12.904253490477709"><ele>843.0</ele><time>2026-04-04T14:53:17Z</time></trkpt><trkpt lat="43.17729062444698" lon="12.904187546705186"><ele>843.0</ele><time>2026-04-04T14:53:19Z</time></trkpt><trkpt lat="43.177206861219474" lon="12.90411432144273"><ele>843.0</ele><time>2026-04-04T14:53:21Z</time></trkpt><trkpt lat="43.17715319610854" lon="12.904066095695088"><ele>848.0</ele><time>2026-04-04T14:53:22Z</time></trkpt><trkpt lat="43.1770759190167" lon="12.904006096770676"><ele>853.0</ele><time>2026-04-04T14:53:24Z</time></trkpt><trkpt lat="43.17702290250652" lon="12.903934428687178"><ele>858.0</ele><time>2026-04-04T14:53:27Z</time></trkpt><trkpt lat="43.17694905607967" lon="12.90390445329123"><ele>863.0</ele><time>2026-04-04T14:54:01Z</time></trkpt><trkpt lat="43.17685289737854" lon="12.903943543148666"><ele>868.0</ele><time>2026-04-04T14:54:03Z</time></trkpt><trkpt lat="43.17679585402893" lon="12.903990288714175"><ele>873.0</ele><time>2026-04-04T14:54:04Z</time></trkpt><trkpt lat="43.176741644794774" lon="12.904070453160774"><ele>873.0</ele><time>2026-04-04T14:54:05Z</time></trkpt><trkpt lat="43.17669861315416" lon="12.9041696115584"><ele>873.0</ele><time>2026-04-04T14:54:06Z</time></trkpt><trkpt lat="43.17667733143577" lon="12.9042951310337"><ele>873.0</ele><time>2026-04-04T14:54:07Z</time></trkpt><trkpt lat="43.176641628643786" lon="12.90440622289775"><ele>873.0</ele><time>2026-04-04T14:54:08Z</time></trkpt><trkpt lat="43.17661295759821" lon="12.904511721651383"><ele>873.0</ele><time>2026-04-04T14:54:09Z</time></trkpt><trkpt lat="43.17661248628427" lon="12.904639154642672"><ele>873.0</ele><time>2026-04-04T14:54:10Z</time></trkpt><trkpt lat="43.17662575068163" lon="12.904773725456227"><ele>869.8</ele><time>2026-04-04T14:54:11Z</time></trkpt><trkpt lat="43.17663892194635" lon="12.904919853051759"><ele>866.5999999999999</ele><time>2026-04-04T14:54:12Z</time></trkpt><trkpt lat="43.176652949984955" lon="12.905064559606753"><ele>863.4000000000001</ele><time>2026-04-04T14:54:13Z</time></trkpt><trkpt lat="43.17666478566877" lon="12.905220956850265"><ele>860.2</ele><time>2026-04-04T14:54:14Z</time></trkpt><trkpt lat="43.176672503441914" lon="12.905382324930267"><ele>857.0</ele><time>2026-04-04T14:54:15Z</time></trkpt><trkpt lat="43.17668058846132" lon="12.905537916963901"><ele>854.2</ele><time>2026-04-04T14:54:16Z</time></trkpt><trkpt lat="43.176689591786264" lon="12.905662853106374"><ele>851.4000000000001</ele><time>2026-04-04T14:54:17Z</time></trkpt><trkpt lat="43.17669000449644" lon="12.905753341364486"><ele>848.5999999999999</ele><time>2026-04-04T14:54:18Z</time></trkpt><trkpt lat="43.1765978303413" lon="12.905880048719107"><ele>845.8</ele><time>2026-04-04T14:54:20Z</time></trkpt><trkpt lat="43.176540415753486" lon="12.905979677004895"><ele>843.0</ele><time>2026-04-04T14:54:21Z</time></trkpt><trkpt lat="43.176524156867956" lon="12.906118175603078"><ele>845.0</ele><time>2026-04-04T14:54:22Z</time></trkpt><trkpt lat="43.17648799544807" lon="12.906222195062215"><ele>847.0</ele><time>2026-04-04T14:54:23Z</time></trkpt><trkpt lat="43.176451974035885" lon="12.906295619355834"><ele>849.0</ele><time>2026-04-04T14:54:24Z</time></trkpt><trkpt lat="43.17642537239472" lon="12.90641067358187"><ele>851.0</ele><time>2026-04-04T14:54:26Z</time></trkpt><trkpt lat="43.176504396355554" lon="12.906420799983415"><ele>853.0</ele><time>2026-04-04T14:54:30Z</time></trkpt><trkpt lat="43.17660564855984" lon="12.906303147000216"><ele>855.0</ele><time>2026-04-04T14:54:32Z</time></trkpt><trkpt lat="43.1766568329961" lon="12.906219817112353"><ele>853.0</ele><time>2026-04-04T14:54:33Z</time></trkpt><trkpt lat="43.1767061793581" lon="12.90614760003077"><ele>851.0</ele><time>2026-04-04T14:54:34Z</time></trkpt><trkpt lat="43.17676273358931" lon="12.906089891165937"><ele>849.0</ele><time>2026-04-04T14:54:35Z</time></trkpt><trkpt lat="43.17684557170739" lon="12.906058349859991"><ele>847.0</ele><time>2026-04-04T14:54:36Z</time></trkpt><trkpt lat="43.176913027489896" lon="12.906008817952369"><ele>845.0</ele><time>2026-04-04T14:54:37Z</time></trkpt><trkpt lat="43.17695029819919" lon="12.905921753647162"><ele>843.0</ele><time>2026-04-04T14:54:38Z</time></trkpt><trkpt lat="43.17696275669239" lon="12.905822013566642"><ele>843.0</ele><time>2026-04-04T14:54:39Z</time></trkpt><trkpt lat="43.17697454144347" lon="12.905639215611881"><ele>843.0</ele><time>2026-04-04T14:54:41Z</time></trkpt><trkpt lat="43.176987781450045" lon="12.905529687558762"><ele>843.0</ele><time>2026-04-04T14:54:42Z</time></trkpt><trkpt lat="43.177019220430175" lon="12.905418518289874"><ele>843.0</ele><time>2026-04-04T14:54:43Z</time></trkpt><trkpt lat="43.17705703947626" lon="12.9053171170203"><ele>843.0</ele><time>2026-04-04T14:54:44Z</time></trkpt><trkpt lat="43.177106703952305" lon="12.905230224007488"><ele>843.0</ele><time>2026-04-04T14:54:45Z</time></trkpt><trkpt lat="43.17715369881048" lon="12.905167606970807"><ele>843.0</ele><time>2026-04-04T14:54:46Z</time></trkpt><trkpt lat="43.17722210962979" lon="12.905067275867525"><ele>843.0</ele><time>2026-04-04T14:54:48.001Z</time></trkpt><trkpt lat="43.17729903573901" lon="12.905013622154605"><ele>843.0</ele><time>2026-04-04T14:54:50.001Z</time></trkpt><trkpt lat="43.177374026221884" lon="12.905061331293219"><ele>843.0</ele><time>2026-04-04T14:54:54.001Z</time></trkpt><trkpt lat="43.17741707642188" lon="12.90514532571081"><ele>843.0</ele><time>2026-04-04T14:54:56.001Z</time></trkpt><trkpt lat="43.17750479180076" lon="12.90543289187184"><ele>838.0</ele><time>2026-04-04T14:54:59.001Z</time></trkpt><trkpt lat="43.177549392133145" lon="12.905603300576974"><ele>833.0</ele><time>2026-04-04T14:55:01.001Z</time></trkpt><trkpt lat="43.17757547497313" lon="12.905749537722633"><ele>828.0</ele><time>2026-04-04T14:55:03.001Z</time></trkpt><trkpt lat="43.17759093382479" lon="12.90590287943526"><ele>823.0</ele><time>2026-04-04T14:55:05Z</time></trkpt><trkpt lat="43.17762373798663" lon="12.906021029427725"><ele>818.0</ele><time>2026-04-04T14:55:07Z</time></trkpt><trkpt lat="43.17769374631561" lon="12.906190366908573"><ele>814.1666666666667</ele><time>2026-04-04T14:55:09Z</time></trkpt><trkpt lat="43.17773485715408" lon="12.906259051514423"><ele>810.3333333333334</ele><time>2026-04-04T14:55:10Z</time></trkpt><trkpt lat="43.17778519892829" lon="12.906332821323785"><ele>806.5</ele><time>2026-04-04T14:55:11Z</time></trkpt><trkpt lat="43.177839192901466" lon="12.906423250915692"><ele>802.6666666666667</ele><time>2026-04-04T14:55:12Z</time></trkpt><trkpt lat="43.17792882658893" lon="12.906536763048038"><ele>798.8333333333334</ele><time>2026-04-04T14:55:14Z</time></trkpt><trkpt lat="43.177981260802675" lon="12.906617326714358"><ele>795.0</ele><time>2026-04-04T14:55:16Z</time></trkpt><trkpt lat="43.178035833559974" lon="12.90680556415649"><ele>791.8</ele><time>2026-04-04T14:55:18Z</time></trkpt><trkpt lat="43.17805813374881" lon="12.906927025911568"><ele>788.6</ele><time>2026-04-04T14:55:20Z</time></trkpt><trkpt lat="43.17812798130401" lon="12.907022349214484"><ele>785.4000000000001</ele><time>2026-04-04T14:55:22Z</time></trkpt><trkpt lat="43.17814329164879" lon="12.907156676002689"><ele>782.2</ele><time>2026-04-04T14:55:25Z</time></trkpt><trkpt lat="43.178174415958395" lon="12.907279641200248"><ele>779.0</ele><time>2026-04-04T14:55:28Z</time></trkpt><trkpt lat="43.178189065143734" lon="12.90745675202511"><ele>772.4000000000001</ele><time>2026-04-04T14:55:30Z</time></trkpt><trkpt lat="43.178217446075855" lon="12.907586153170936"><ele>765.8</ele><time>2026-04-04T14:55:32Z</time></trkpt><trkpt lat="43.178248173072646" lon="12.907682199173435"><ele>759.2</ele><time>2026-04-04T14:55:34Z</time></trkpt><trkpt lat="43.178293774498876" lon="12.907790009304987"><ele>752.5999999999999</ele><time>2026-04-04T14:55:36Z</time></trkpt><trkpt lat="43.17836586797437" lon="12.907935635579987"><ele>746.0</ele><time>2026-04-04T14:55:38Z</time></trkpt><trkpt lat="43.17839860506639" lon="12.90801988127973"><ele>746.0</ele><time>2026-04-04T14:55:39Z</time></trkpt><trkpt lat="43.1784247097904" lon="12.908101601390792"><ele>746.0</ele><time>2026-04-04T14:55:40Z</time></trkpt><trkpt lat="43.17847066020555" lon="12.908240712693013"><ele>746.0</ele><time>2026-04-04T14:55:42Z</time></trkpt><trkpt lat="43.17852930577496" lon="12.908285003579225"><ele>746.0</ele><time>2026-04-04T14:55:44Z</time></trkpt><trkpt lat="43.178615430363315" lon="12.90839691832633"><ele>746.0</ele><time>2026-04-04T14:55:46Z</time></trkpt><trkpt lat="43.17868054465924" lon="12.90848239766107"><ele>738.0</ele><time>2026-04-04T14:55:47Z</time></trkpt><trkpt lat="43.178753429012254" lon="12.908582270373598"><ele>730.0</ele><time>2026-04-04T14:55:48Z</time></trkpt><trkpt lat="43.17881460841128" lon="12.908685449719284"><ele>722.0</ele><time>2026-04-04T14:55:49Z</time></trkpt><trkpt lat="43.1789402108292" lon="12.908872353811581"><ele>714.0</ele><time>2026-04-04T14:55:50Z</time></trkpt><trkpt lat="43.178988980344506" lon="12.908975175607706"><ele>714.6</ele><time>2026-04-04T14:55:51Z</time></trkpt><trkpt lat="43.17907083147353" lon="12.909134377520553"><ele>715.2</ele><time>2026-04-04T14:55:53Z</time></trkpt><trkpt lat="43.179122642023266" lon="12.90923412606942"><ele>715.8000000000001</ele><time>2026-04-04T14:55:54Z</time></trkpt><trkpt lat="43.17917615684603" lon="12.909340018932689"><ele>716.4000000000001</ele><time>2026-04-04T14:55:55Z</time></trkpt><trkpt lat="43.17922453767752" lon="12.909470851737238"><ele>717.0</ele><time>2026-04-04T14:55:56Z</time></trkpt><trkpt lat="43.179280147569635" lon="12.90957779027621"><ele>717.0</ele><time>2026-04-04T14:55:57Z</time></trkpt><trkpt lat="43.1793512704103" lon="12.909648028582104"><ele>717.0</ele><time>2026-04-04T14:55:58Z</time></trkpt><trkpt lat="43.179411067693806" lon="12.909748285881651"><ele>717.0</ele><time>2026-04-04T14:55:59Z</time></trkpt><trkpt lat="43.179469869727725" lon="12.909844198317357"><ele>717.0</ele><time>2026-04-04T14:56:00Z</time></trkpt><trkpt lat="43.179518171572646" lon="12.909950519093861"><ele>717.0</ele><time>2026-04-04T14:56:01Z</time></trkpt><trkpt lat="43.17957778738375" lon="12.91004108718282"><ele>716.6</ele><time>2026-04-04T14:56:02Z</time></trkpt><trkpt lat="43.1796518511879" lon="12.910146816864476"><ele>716.2</ele><time>2026-04-04T14:56:03Z</time></trkpt><trkpt lat="43.17971502170293" lon="12.910241325098141"><ele>715.8</ele><time>2026-04-04T14:56:04Z</time></trkpt><trkpt lat="43.17977210464318" lon="12.91030552614853"><ele>715.4</ele><time>2026-04-04T14:56:05Z</time></trkpt><trkpt lat="43.17982064777306" lon="12.910431053898392"><ele>715.0</ele><time>2026-04-04T14:56:06Z</time></trkpt><trkpt lat="43.17988058494139" lon="12.910541724836177"><ele>715.0</ele><time>2026-04-04T14:56:07Z</time></trkpt><trkpt lat="43.17993554531749" lon="12.910629788056818"><ele>715.0</ele><time>2026-04-04T14:56:08Z</time></trkpt><trkpt lat="43.17998645037872" lon="12.910725439802281"><ele>715.0</ele><time>2026-04-04T14:56:09Z</time></trkpt><trkpt lat="43.180037097753456" lon="12.910828596651996"><ele>715.0</ele><time>2026-04-04T14:56:10Z</time></trkpt><trkpt lat="43.18009966863752" lon="12.910923852710853"><ele>715.0</ele><time>2026-04-04T14:56:11Z</time></trkpt><trkpt lat="43.18017035232446" lon="12.911013102130937"><ele>708.0</ele><time>2026-04-04T14:56:12Z</time></trkpt><trkpt lat="43.18024889033783" lon="12.911110830011182"><ele>701.0</ele><time>2026-04-04T14:56:13Z</time></trkpt><trkpt lat="43.180325733394184" lon="12.911214833490813"><ele>694.0</ele><time>2026-04-04T14:56:14Z</time></trkpt><trkpt lat="43.180404979182576" lon="12.911312354776616"><ele>687.0</ele><time>2026-04-04T14:56:15Z</time></trkpt><trkpt lat="43.180480389521996" lon="12.911413655363186"><ele>680.0</ele><time>2026-04-04T14:56:16Z</time></trkpt><trkpt lat="43.18055684194082" lon="12.911500732341773"><ele>680.0</ele><time>2026-04-04T14:56:17Z</time></trkpt><trkpt lat="43.18064081075373" lon="12.911588371020258"><ele>680.0</ele><time>2026-04-04T14:56:18Z</time></trkpt><trkpt lat="43.18071771500949" lon="12.911667559380634"><ele>680.0</ele><time>2026-04-04T14:56:19Z</time></trkpt><trkpt lat="43.18079583634937" lon="12.911737924034853"><ele>680.0</ele><time>2026-04-04T14:56:20Z</time></trkpt><trkpt lat="43.18086219494956" lon="12.911790142448954"><ele>680.0</ele><time>2026-04-04T14:56:21Z</time></trkpt><trkpt lat="43.18096253664107" lon="12.911857245515742"><ele>677.5</ele><time>2026-04-04T14:56:23Z</time></trkpt><trkpt lat="43.18103443477044" lon="12.911866071927468"><ele>675.0</ele><time>2026-04-04T14:56:25Z</time></trkpt><trkpt lat="43.181106337515075" lon="12.911821205616679"><ele>672.5</ele><time>2026-04-04T14:56:27Z</time></trkpt><trkpt lat="43.181165777192504" lon="12.911872217163817"><ele>670.0</ele><time>2026-04-04T14:56:29Z</time></trkpt><trkpt lat="43.18120869767677" lon="12.91196744644518"><ele>667.5</ele><time>2026-04-04T14:56:31Z</time></trkpt><trkpt lat="43.181170787963325" lon="12.912094736120384"><ele>665.0</ele><time>2026-04-04T14:56:33Z</time></trkpt><trkpt lat="43.18112080315289" lon="12.912153719591654"><ele>665.0</ele><time>2026-04-04T14:56:34Z</time></trkpt><trkpt lat="43.18102524214218" lon="12.912203436367408"><ele>665.0</ele><time>2026-04-04T14:56:36Z</time></trkpt><trkpt lat="43.18095612135288" lon="12.912201878340948"><ele>665.0</ele><time>2026-04-04T14:56:37Z</time></trkpt><trkpt lat="43.180888196431404" lon="12.912186422893077"><ele>665.0</ele><time>2026-04-04T14:56:38Z</time></trkpt><trkpt lat="43.18081289359433" lon="12.912172102134575"><ele>665.0</ele><time>2026-04-04T14:56:39Z</time></trkpt><trkpt lat="43.1807203112038" lon="12.912158359403996"><ele>665.0</ele><time>2026-04-04T14:56:40Z</time></trkpt><trkpt lat="43.180634040936205" lon="12.912134987495524"><ele>660.3333333333333</ele><time>2026-04-04T14:56:41Z</time></trkpt><trkpt lat="43.18055487955913" lon="12.912110216343223"><ele>655.6666666666666</ele><time>2026-04-04T14:56:42Z</time></trkpt><trkpt lat="43.180475796793985" lon="12.912089080538012"><ele>651.0</ele><time>2026-04-04T14:56:43Z</time></trkpt><trkpt lat="43.18038257046845" lon="12.912082332533494"><ele>646.3333333333334</ele><time>2026-04-04T14:56:44Z</time></trkpt><trkpt lat="43.18029203223012" lon="12.912069907369137"><ele>641.6666666666667</ele><time>2026-04-04T14:56:45Z</time></trkpt><trkpt lat="43.180210481518266" lon="12.91203792612956"><ele>637.0</ele><time>2026-04-04T14:56:46Z</time></trkpt><trkpt lat="43.180126415687205" lon="12.91199557616523"><ele>637.0</ele><time>2026-04-04T14:56:47Z</time></trkpt><trkpt lat="43.18005299571014" lon="12.911958624359812"><ele>637.0</ele><time>2026-04-04T14:56:48Z</time></trkpt><trkpt lat="43.17998660596622" lon="12.911909814783098"><ele>637.0</ele><time>2026-04-04T14:56:49Z</time></trkpt><trkpt lat="43.17990151156422" lon="12.91185495011547"><ele>637.0</ele><time>2026-04-04T14:56:50Z</time></trkpt><trkpt lat="43.179806426034645" lon="12.911782853845674"><ele>637.0</ele><time>2026-04-04T14:56:51Z</time></trkpt><trkpt lat="43.17971436579567" lon="12.911728910109563"><ele>638.1666666666667</ele><time>2026-04-04T14:56:52Z</time></trkpt><trkpt lat="43.17962156832053" lon="12.911702506919216"><ele>639.3333333333334</ele><time>2026-04-04T14:56:53Z</time></trkpt><trkpt lat="43.17953343329779" lon="12.911676857128901"><ele>640.5</ele><time>2026-04-04T14:56:54.001Z</time></trkpt><trkpt lat="43.17945328482646" lon="12.911631616833523"><ele>641.6666666666666</ele><time>2026-04-04T14:56:55.001Z</time></trkpt><trkpt lat="43.17938480704335" lon="12.911545411118894"><ele>642.8333333333333</ele><time>2026-04-04T14:56:56.001Z</time></trkpt><trkpt lat="43.179319560029576" lon="12.911492617121896"><ele>644.0</ele><time>2026-04-04T14:56:57.001Z</time></trkpt><trkpt lat="43.179258150280376" lon="12.911454288274905"><ele>644.0</ele><time>2026-04-04T14:56:58.001Z</time></trkpt><trkpt lat="43.179181173587494" lon="12.911421280062845"><ele>644.0</ele><time>2026-04-04T14:56:59.001Z</time></trkpt><trkpt lat="43.17908712780896" lon="12.91141192109065"><ele>644.0</ele><time>2026-04-04T14:57:00.001Z</time></trkpt><trkpt lat="43.17900831924363" lon="12.911387085976044"><ele>644.0</ele><time>2026-04-04T14:57:01.001Z</time></trkpt><trkpt lat="43.17888645931318" lon="12.91134222070292"><ele>644.0</ele><time>2026-04-04T14:57:03.001Z</time></trkpt><trkpt lat="43.17881827413414" lon="12.91132113835823"><ele>642.6</ele><time>2026-04-04T14:57:04.001Z</time></trkpt><trkpt lat="43.178722766034944" lon="12.911299139301518"><ele>641.2</ele><time>2026-04-04T14:57:05.001Z</time></trkpt><trkpt lat="43.17863593638978" lon="12.911257462089974"><ele>639.8000000000001</ele><time>2026-04-04T14:57:06.001Z</time></trkpt><trkpt lat="43.17855291852989" lon="12.911253323736304"><ele>638.4000000000001</ele><time>2026-04-04T14:57:08.001Z</time></trkpt><trkpt lat="43.178449602485976" lon="12.911354023949825"><ele>637.0</ele><time>2026-04-04T14:57:10.001Z</time></trkpt><trkpt lat="43.17840521681559" lon="12.911459493003656"><ele>637.0</ele><time>2026-04-04T14:57:12.001Z</time></trkpt><trkpt lat="43.17844700553957" lon="12.91154965143364"><ele>637.0</ele><time>2026-04-04T14:57:15.001Z</time></trkpt><trkpt lat="43.17846581070307" lon="12.911756439378175"><ele>637.0</ele><time>2026-04-04T14:57:16.001Z</time></trkpt><trkpt lat="43.178489707684" lon="12.911843799126048"><ele>637.0</ele><time>2026-04-04T14:57:17.001Z</time></trkpt><trkpt lat="43.178503969033784" lon="12.911957182694527"><ele>637.0</ele><time>2026-04-04T14:57:18.001Z</time></trkpt><trkpt lat="43.17850559518849" lon="12.912049706364453"><ele>637.0</ele><time>2026-04-04T14:57:19.001Z</time></trkpt><trkpt lat="43.17854406701237" lon="12.912192753686787"><ele>635.3333333333334</ele><time>2026-04-04T14:57:21.001Z</time></trkpt><trkpt lat="43.17858614641122" lon="12.912295818441612"><ele>633.6666666666667</ele><time>2026-04-04T14:57:22.001Z</time></trkpt><trkpt lat="43.17863490044228" lon="12.912377283698197"><ele>632.0</ele><time>2026-04-04T14:57:23.001Z</time></trkpt><trkpt lat="43.17867996799885" lon="12.912451500060095"><ele>630.3333333333334</ele><time>2026-04-04T14:57:24.001Z</time></trkpt><trkpt lat="43.17874684369897" lon="12.912599589767668"><ele>628.6666666666666</ele><time>2026-04-04T14:57:26.001Z</time></trkpt><trkpt lat="43.17878291521317" lon="12.912681162921594"><ele>627.0</ele><time>2026-04-04T14:57:27Z</time></trkpt><trkpt lat="43.17883043604836" lon="12.912774587925313"><ele>627.0</ele><time>2026-04-04T14:57:28Z</time></trkpt><trkpt lat="43.17888608644014" lon="12.912850782611761"><ele>627.0</ele><time>2026-04-04T14:57:29Z</time></trkpt><trkpt lat="43.178955086645246" lon="12.912953128752376"><ele>627.0</ele><time>2026-04-04T14:57:30Z</time></trkpt><trkpt lat="43.17902392174163" lon="12.913052497524635"><ele>627.0</ele><time>2026-04-04T14:57:31Z</time></trkpt><trkpt lat="43.17907584848127" lon="12.9131479718409"><ele>627.0</ele><time>2026-04-04T14:57:32Z</time></trkpt><trkpt lat="43.17912874101606" lon="12.913248542715355"><ele>620.3333333333334</ele><time>2026-04-04T14:57:33Z</time></trkpt><trkpt lat="43.1791684915153" lon="12.913345823721398"><ele>613.6666666666666</ele><time>2026-04-04T14:57:34Z</time></trkpt><trkpt lat="43.17919691945517" lon="12.913430481107602"><ele>607.0</ele><time>2026-04-04T14:57:35Z</time></trkpt><trkpt lat="43.17924794466716" lon="12.9135806516148"><ele>600.3333333333333</ele><time>2026-04-04T14:57:36Z</time></trkpt><trkpt lat="43.179293146074976" lon="12.913673433327387"><ele>593.6666666666666</ele><time>2026-04-04T14:57:37Z</time></trkpt><trkpt lat="43.179337872775484" lon="12.913781361459918"><ele>587.0</ele><time>2026-04-04T14:57:38Z</time></trkpt><trkpt lat="43.179363903424886" lon="12.913895113860283"><ele>585.3333333333333</ele><time>2026-04-04T14:57:39Z</time></trkpt><trkpt lat="43.17940475223217" lon="12.913992696399266"><ele>583.6666666666666</ele><time>2026-04-04T14:57:40Z</time></trkpt><trkpt lat="43.179450599267035" lon="12.914075580829754"><ele>582.0</ele><time>2026-04-04T14:57:41Z</time></trkpt><trkpt lat="43.17950447003905" lon="12.914157853312298"><ele>580.3333333333334</ele><time>2026-04-04T14:57:42Z</time></trkpt><trkpt lat="43.17953980146798" lon="12.914260741947528"><ele>578.6666666666667</ele><time>2026-04-04T14:57:43Z</time></trkpt><trkpt lat="43.17956468040812" lon="12.914359011610323"><ele>577.0</ele><time>2026-04-04T14:57:44Z</time></trkpt><trkpt lat="43.17958044734145" lon="12.914443346787172"><ele>575.1666666666667</ele><time>2026-04-04T14:57:45Z</time></trkpt><trkpt lat="43.17959551891502" lon="12.914534589662427"><ele>573.3333333333334</ele><time>2026-04-04T14:57:46Z</time></trkpt><trkpt lat="43.17961170620742" lon="12.914622172779099"><ele>571.5</ele><time>2026-04-04T14:57:47Z</time></trkpt><trkpt lat="43.17964413838468" lon="12.914721849470427"><ele>569.6666666666666</ele><time>2026-04-04T14:57:48Z</time></trkpt><trkpt lat="43.17968813945779" lon="12.914829058820096"><ele>567.8333333333333</ele><time>2026-04-04T14:57:49Z</time></trkpt><trkpt lat="43.17973445935661" lon="12.914928748477339"><ele>566.0</ele><time>2026-04-04T14:57:50Z</time></trkpt><trkpt lat="43.179778278506575" lon="12.915016516143936"><ele>557.6</ele><time>2026-04-04T14:57:51Z</time></trkpt><trkpt lat="43.1798604627917" lon="12.915116465221153"><ele>549.2</ele><time>2026-04-04T14:57:53Z</time></trkpt><trkpt lat="43.1799391139452" lon="12.915210763862811"><ele>540.8</ele><time>2026-04-04T14:57:55Z</time></trkpt><trkpt lat="43.179998132616376" lon="12.915251780510813"><ele>532.4</ele><time>2026-04-04T14:57:56Z</time></trkpt><trkpt lat="43.18008854509397" lon="12.915318543068295"><ele>524.0</ele><time>2026-04-04T14:57:57Z</time></trkpt><trkpt lat="43.1801717388026" lon="12.91539314085244"><ele>524.0</ele><time>2026-04-04T14:57:58Z</time></trkpt><trkpt lat="43.18024339710777" lon="12.915493893764985"><ele>524.0</ele><time>2026-04-04T14:57:59Z</time></trkpt><trkpt lat="43.18031417896865" lon="12.915581929420432"><ele>524.0</ele><time>2026-04-04T14:58:00Z</time></trkpt><trkpt lat="43.18038810410898" lon="12.915625991015915"><ele>524.0</ele><time>2026-04-04T14:58:01Z</time></trkpt><trkpt lat="43.18045323140601" lon="12.915672676045988"><ele>524.0</ele><time>2026-04-04T14:58:02Z</time></trkpt><trkpt lat="43.18051688532557" lon="12.915739882042365"><ele>524.0</ele><time>2026-04-04T14:58:03Z</time></trkpt><trkpt lat="43.18058016836095" lon="12.915848316468514"><ele>522.0</ele><time>2026-04-04T14:58:04Z</time></trkpt><trkpt lat="43.18064446602727" lon="12.915942249438329"><ele>520.0</ele><time>2026-04-04T14:58:05Z</time></trkpt><trkpt lat="43.18070986696418" lon="12.916049509253469"><ele>518.0</ele><time>2026-04-04T14:58:06Z</time></trkpt><trkpt lat="43.18076306758352" lon="12.916128917126345"><ele>516.0</ele><time>2026-04-04T14:58:07Z</time></trkpt><trkpt lat="43.180786779087434" lon="12.916211671232814"><ele>514.0</ele><time>2026-04-04T14:58:08Z</time></trkpt><trkpt lat="43.18077270038176" lon="12.916296047952413"><ele>512.0</ele><time>2026-04-04T14:58:09Z</time></trkpt><trkpt lat="43.180728028024035" lon="12.916398096117515"><ele>511.99999999999994</ele><time>2026-04-04T14:58:10Z</time></trkpt><trkpt lat="43.18068876813756" lon="12.91651125196538"><ele>512.0</ele><time>2026-04-04T14:58:11Z</time></trkpt><trkpt lat="43.18066917822224" lon="12.916633019375583"><ele>512.0</ele><time>2026-04-04T14:58:12Z</time></trkpt><trkpt lat="43.1806541584132" lon="12.916736662038971"><ele>512.0</ele><time>2026-04-04T14:58:13Z</time></trkpt><trkpt lat="43.180639239830654" lon="12.916842023464039"><ele>511.99999999999994</ele><time>2026-04-04T14:58:14Z</time></trkpt><trkpt lat="43.18064396362441" lon="12.916950875035612"><ele>512.0</ele><time>2026-04-04T14:58:15Z</time></trkpt><trkpt lat="43.180673166529445" lon="12.917036536808288"><ele>508.40000000000003</ele><time>2026-04-04T14:58:16Z</time></trkpt><trkpt lat="43.180717555166865" lon="12.917103766134227"><ele>504.80000000000007</ele><time>2026-04-04T14:58:17Z</time></trkpt><trkpt lat="43.18079472053423" lon="12.917175278572945"><ele>501.2</ele><time>2026-04-04T14:58:18Z</time></trkpt><trkpt lat="43.180881276156676" lon="12.917253013319911"><ele>497.6</ele><time>2026-04-04T14:58:19Z</time></trkpt><trkpt lat="43.18097056058488" lon="12.917336382065939"><ele>494.0</ele><time>2026-04-04T14:58:20Z</time></trkpt><trkpt lat="43.181063229148755" lon="12.917428504915604"><ele>494.0</ele><time>2026-04-04T14:58:21Z</time></trkpt><trkpt lat="43.18115744369468" lon="12.917493094167462"><ele>494.0</ele><time>2026-04-04T14:58:22Z</time></trkpt><trkpt lat="43.18125529993008" lon="12.917561431394754"><ele>494.0</ele><time>2026-04-04T14:58:23Z</time></trkpt><trkpt lat="43.18134196816627" lon="12.917631437781347"><ele>494.0</ele><time>2026-04-04T14:58:24Z</time></trkpt><trkpt lat="43.181425735985876" lon="12.917697743803743"><ele>494.0</ele><time>2026-04-04T14:58:25Z</time></trkpt><trkpt lat="43.18151538972657" lon="12.91776518768583"><ele>491.49999999999994</ele><time>2026-04-04T14:58:26Z</time></trkpt><trkpt lat="43.18159700905067" lon="12.917824440337933"><ele>489.0</ele><time>2026-04-04T14:58:27Z</time></trkpt><trkpt lat="43.181662620974606" lon="12.91788922096889"><ele>486.5</ele><time>2026-04-04T14:58:28Z</time></trkpt><trkpt lat="43.18171262214671" lon="12.917975790819057"><ele>484.0</ele><time>2026-04-04T14:58:29Z</time></trkpt><trkpt lat="43.181745852992556" lon="12.918058841532662"><ele>481.49999999999994</ele><time>2026-04-04T14:58:30Z</time></trkpt><trkpt lat="43.18175240746194" lon="12.918182689880776"><ele>479.0</ele><time>2026-04-04T14:58:32Z</time></trkpt><trkpt lat="43.18175979282874" lon="12.918286359426562"><ele>478.99999999999994</ele><time>2026-04-04T14:59:15.001Z</time></trkpt><trkpt lat="43.181842504512204" lon="12.918303476427004"><ele>479.0</ele><time>2026-04-04T14:59:18.001Z</time></trkpt><trkpt lat="43.18191111217388" lon="12.918290969825621"><ele>479.0</ele><time>2026-04-04T14:59:19.001Z</time></trkpt><trkpt lat="43.18198731497043" lon="12.918287561037491"><ele>479.0</ele><time>2026-04-04T14:59:20.001Z</time></trkpt><trkpt lat="43.18207527403766" lon="12.918298000622654"><ele>478.99999999999994</ele><time>2026-04-04T14:59:21.001Z</time></trkpt><trkpt lat="43.18218160143858" lon="12.918312182341083"><ele>479.0</ele><time>2026-04-04T14:59:22.001Z</time></trkpt><trkpt lat="43.182298645460335" lon="12.918335098908777"><ele>476.25</ele><time>2026-04-04T14:59:23.001Z</time></trkpt><trkpt lat="43.18241709340773" lon="12.918346334540612"><ele>473.5</ele><time>2026-04-04T14:59:24.001Z</time></trkpt><trkpt lat="43.18253263161542" lon="12.918361373897765"><ele>470.75</ele><time>2026-04-04T14:59:25.001Z</time></trkpt><trkpt lat="43.18264348532844" lon="12.918387622308488"><ele>468.0</ele><time>2026-04-04T14:59:26.001Z</time></trkpt><trkpt lat="43.18275402887271" lon="12.918424843436753"><ele>467.79999999999995</ele><time>2026-04-04T14:59:27.001Z</time></trkpt><trkpt lat="43.18286241962097" lon="12.918463722179828"><ele>467.59999999999997</ele><time>2026-04-04T14:59:28.001Z</time></trkpt><trkpt lat="43.18296255102781" lon="12.918496223764443"><ele>467.40000000000003</ele><time>2026-04-04T14:59:29.001Z</time></trkpt><trkpt lat="43.18305208992169" lon="12.918528439844208"><ele>467.20000000000005</ele><time>2026-04-04T14:59:30.001Z</time></trkpt><trkpt lat="43.18311730717379" lon="12.918552598013452"><ele>467.0</ele><time>2026-04-04T14:59:31.001Z</time></trkpt><trkpt lat="43.18317804840601" lon="12.918629436027967"><ele>467.0</ele><time>2026-04-04T14:59:33.001Z</time></trkpt><trkpt lat="43.1830753040937" lon="12.918735974444019"><ele>467.00000000000006</ele><time>2026-04-04T14:59:35.001Z</time></trkpt><trkpt lat="43.183040025837" lon="12.91881685375474"><ele>467.00000000000006</ele><time>2026-04-04T14:59:36.001Z</time></trkpt><trkpt lat="43.18300136659441" lon="12.918921792698358"><ele>467.0</ele><time>2026-04-04T14:59:37Z</time></trkpt><trkpt lat="43.182965613044736" lon="12.919024440575674"><ele>467.0</ele><time>2026-04-04T14:59:38Z</time></trkpt><trkpt lat="43.18292559114437" lon="12.919155278780941"><ele>465.75</ele><time>2026-04-04T14:59:39Z</time></trkpt><trkpt lat="43.182886419440855" lon="12.919286884714092"><ele>464.5</ele><time>2026-04-04T14:59:40Z</time></trkpt><trkpt lat="43.18284342953815" lon="12.91943158585608"><ele>463.25</ele><time>2026-04-04T14:59:41Z</time></trkpt><trkpt lat="43.182799946511366" lon="12.919582120525087"><ele>462.0</ele><time>2026-04-04T14:59:42Z</time></trkpt><trkpt lat="43.182751905601165" lon="12.919748434221525"><ele>462.0</ele><time>2026-04-04T14:59:43Z</time></trkpt><trkpt lat="43.1827013346556" lon="12.919923401984846"><ele>462.0</ele><time>2026-04-04T14:59:44Z</time></trkpt><trkpt lat="43.182648422757694" lon="12.920104660519293"><ele>462.0</ele><time>2026-04-04T14:59:45Z</time></trkpt><trkpt lat="43.18259390951271" lon="12.920291404745987"><ele>462.0</ele><time>2026-04-04T14:59:46Z</time></trkpt><trkpt lat="43.18253921663645" lon="12.920475978130087"><ele>461.75</ele><time>2026-04-04T14:59:47Z</time></trkpt><trkpt lat="43.182478398841724" lon="12.920656182453563"><ele>461.5</ele><time>2026-04-04T14:59:48Z</time></trkpt><trkpt lat="43.18241185963829" lon="12.920817096034188"><ele>461.25</ele><time>2026-04-04T14:59:49Z</time></trkpt><trkpt lat="43.18233645867942" lon="12.920982128599388"><ele>461.0</ele><time>2026-04-04T14:59:50Z</time></trkpt><trkpt lat="43.1822589809782" lon="12.921125315183172"><ele>461.0</ele><time>2026-04-04T14:59:51Z</time></trkpt><trkpt lat="43.1821639469095" lon="12.921256734939394"><ele>461.0</ele><time>2026-04-04T14:59:52Z</time></trkpt><trkpt lat="43.182064346911936" lon="12.9213871358218"><ele>461.0</ele><time>2026-04-04T14:59:53Z</time></trkpt><trkpt lat="43.18196608490145" lon="12.921514702999154"><ele>461.0</ele><time>2026-04-04T14:59:54Z</time></trkpt><trkpt lat="43.181874011199525" lon="12.921651791363496"><ele>459.75</ele><time>2026-04-04T14:59:55Z</time></trkpt><trkpt lat="43.18179463215497" lon="12.921809576313228"><ele>458.5</ele><time>2026-04-04T14:59:56Z</time></trkpt><trkpt lat="43.18172583179078" lon="12.921959875895828"><ele>457.25</ele><time>2026-04-04T14:59:57Z</time></trkpt><trkpt lat="43.181656971796684" lon="12.92209850288829"><ele>456.0</ele><time>2026-04-04T14:59:58Z</time></trkpt><trkpt lat="43.18158858226175" lon="12.92222551202507"><ele>456.0</ele><time>2026-04-04T14:59:59Z</time></trkpt><trkpt lat="43.18152593436913" lon="12.922352303393264"><ele>456.0</ele><time>2026-04-04T15:00:00Z</time></trkpt><trkpt lat="43.18146640129345" lon="12.922466122588366"><ele>456.0</ele><time>2026-04-04T15:00:01Z</time></trkpt><trkpt lat="43.181402988436304" lon="12.922548536876612"><ele>456.0</ele><time>2026-04-04T15:00:02Z</time></trkpt><trkpt lat="43.18131979263846" lon="12.92260816171709"><ele>456.0</ele><time>2026-04-04T15:00:03Z</time></trkpt><trkpt lat="43.18122538420416" lon="12.922618578234367"><ele>455.8</ele><time>2026-04-04T15:00:04Z</time></trkpt><trkpt lat="43.18112422026464" lon="12.92263704732828"><ele>455.6</ele><time>2026-04-04T15:00:05Z</time></trkpt><trkpt lat="43.18102103683726" lon="12.922651555029164"><ele>455.4</ele><time>2026-04-04T15:00:06Z</time></trkpt><trkpt lat="43.18092120722287" lon="12.922682005067607"><ele>455.2</ele><time>2026-04-04T15:00:07Z</time></trkpt><trkpt lat="43.180827853464194" lon="12.922775523549124"><ele>455.0</ele><time>2026-04-04T15:00:08Z</time></trkpt><trkpt lat="43.18074767850095" lon="12.922870933112101"><ele>455.6</ele><time>2026-04-04T15:00:09Z</time></trkpt><trkpt lat="43.18066540223818" lon="12.922961572302292"><ele>456.2</ele><time>2026-04-04T15:00:10Z</time></trkpt><trkpt lat="43.18057886682249" lon="12.923048531913047"><ele>456.79999999999995</ele><time>2026-04-04T15:00:11Z</time></trkpt><trkpt lat="43.18050360062023" lon="12.923130684669477"><ele>457.4</ele><time>2026-04-04T15:00:12Z</time></trkpt><trkpt lat="43.180441411568545" lon="12.923217869501718"><ele>458.0</ele><time>2026-04-04T15:00:13Z</time></trkpt><trkpt lat="43.18038766665501" lon="12.923293693991132"><ele>461.2</ele><time>2026-04-04T15:00:14Z</time></trkpt><trkpt lat="43.18031125920064" lon="12.923414432192295"><ele>464.4</ele><time>2026-04-04T15:00:16Z</time></trkpt><trkpt lat="43.180329759157054" lon="12.923537218567121"><ele>467.59999999999997</ele><time>2026-04-04T15:00:19Z</time></trkpt><trkpt lat="43.18040428469268" lon="12.923566936857451"><ele>470.79999999999995</ele><time>2026-04-04T15:00:26Z</time></trkpt><trkpt lat="43.180535395533155" lon="12.923601851223598"><ele>474.0</ele><time>2026-04-04T15:00:28Z</time></trkpt><trkpt lat="43.18061633968222" lon="12.923617552996003"><ele>473.2</ele><time>2026-04-04T15:00:29Z</time></trkpt><trkpt lat="43.18071412310961" lon="12.923629037725638"><ele>472.4</ele><time>2026-04-04T15:00:30Z</time></trkpt><trkpt lat="43.18081338733326" lon="12.92365224798855"><ele>471.6</ele><time>2026-04-04T15:00:31Z</time></trkpt><trkpt lat="43.18091294567567" lon="12.923679337387831"><ele>470.8</ele><time>2026-04-04T15:00:32Z</time></trkpt><trkpt lat="43.181021971345906" lon="12.923708779691262"><ele>470.0</ele><time>2026-04-04T15:00:33Z</time></trkpt><trkpt lat="43.18113523780637" lon="12.923728642018288"><ele>470.0</ele><time>2026-04-04T15:00:34Z</time></trkpt><trkpt lat="43.18125350285722" lon="12.923756986750508"><ele>470.0</ele><time>2026-04-04T15:00:35Z</time></trkpt><trkpt lat="43.18137040178223" lon="12.923790972646929"><ele>470.0</ele><time>2026-04-04T15:00:36Z</time></trkpt><trkpt lat="43.18149786267586" lon="12.923820284658456"><ele>470.0</ele><time>2026-04-04T15:00:37Z</time></trkpt><trkpt lat="43.181627181727315" lon="12.92386019233248"><ele>468.2</ele><time>2026-04-04T15:00:38Z</time></trkpt><trkpt lat="43.18174665297604" lon="12.923893559640781"><ele>466.4</ele><time>2026-04-04T15:00:39Z</time></trkpt><trkpt lat="43.181848368108284" lon="12.9239172980776"><ele>464.6</ele><time>2026-04-04T15:00:40Z</time></trkpt><trkpt lat="43.1819286708326" lon="12.923942627349597"><ele>462.8</ele><time>2026-04-04T15:00:41Z</time></trkpt><trkpt lat="43.18201290300145" lon="12.92400892240052"><ele>461.0</ele><time>2026-04-04T15:00:43Z</time></trkpt><trkpt lat="43.181933953783755" lon="12.924159957921908"><ele>464.0</ele><time>2026-04-04T15:00:45Z</time></trkpt><trkpt lat="43.18192995662042" lon="12.92427041015155"><ele>467.0</ele><time>2026-04-04T15:00:46Z</time></trkpt><trkpt lat="43.18193594895718" lon="12.924424392669835"><ele>470.0</ele><time>2026-04-04T15:00:47Z</time></trkpt><trkpt lat="43.18194998241384" lon="12.924572293375876"><ele>473.0</ele><time>2026-04-04T15:00:48Z</time></trkpt><trkpt lat="43.18196503041318" lon="12.924727689602781"><ele>476.0</ele><time>2026-04-04T15:00:49Z</time></trkpt><trkpt lat="43.18197662696746" lon="12.92487265785777"><ele>476.0</ele><time>2026-04-04T15:00:50Z</time></trkpt><trkpt lat="43.18197575485815" lon="12.925024920776336"><ele>476.0</ele><time>2026-04-04T15:00:51Z</time></trkpt><trkpt lat="43.181964709215144" lon="12.925192127909238"><ele>476.0</ele><time>2026-04-04T15:00:52Z</time></trkpt><trkpt lat="43.18194958776415" lon="12.925372085118138"><ele>476.0</ele><time>2026-04-04T15:00:53Z</time></trkpt><trkpt lat="43.18194627987795" lon="12.925573192077241"><ele>478.25</ele><time>2026-04-04T15:00:54Z</time></trkpt><trkpt lat="43.18195762802871" lon="12.925770404998227"><ele>480.5</ele><time>2026-04-04T15:00:55Z</time></trkpt><trkpt lat="43.181979517205846" lon="12.925977989792646"><ele>482.75</ele><time>2026-04-04T15:00:56Z</time></trkpt><trkpt lat="43.18200704418609" lon="12.92617470459228"><ele>485.0</ele><time>2026-04-04T15:00:57Z</time></trkpt><trkpt lat="43.182033965903926" lon="12.926355704469517"><ele>487.6</ele><time>2026-04-04T15:00:58Z</time></trkpt><trkpt lat="43.1820593196718" lon="12.926516705038182"><ele>490.2</ele><time>2026-04-04T15:00:59Z</time></trkpt><trkpt lat="43.182083169806624" lon="12.92666660717346"><ele>492.79999999999995</ele><time>2026-04-04T15:01:00Z</time></trkpt><trkpt lat="43.18210456768814" lon="12.92679781927583"><ele>495.4</ele><time>2026-04-04T15:01:01Z</time></trkpt><trkpt lat="43.182125670437635" lon="12.926927221615482"><ele>498.0</ele><time>2026-04-04T15:01:02Z</time></trkpt><trkpt lat="43.182146696139235" lon="12.927051908127673"><ele>499.59999999999997</ele><time>2026-04-04T15:01:03Z</time></trkpt><trkpt lat="43.182168809793914" lon="12.927177135819033"><ele>501.19999999999993</ele><time>2026-04-04T15:01:04Z</time></trkpt><trkpt lat="43.18219355003067" lon="12.927309740088457"><ele>502.8</ele><time>2026-04-04T15:01:05Z</time></trkpt><trkpt lat="43.182220171537054" lon="12.927462311345028"><ele>504.4</ele><time>2026-04-04T15:01:06.001Z</time></trkpt><trkpt lat="43.18224580507383" lon="12.927630338787367"><ele>506.0</ele><time>2026-04-04T15:01:07.001Z</time></trkpt><trkpt lat="43.18226023726534" lon="12.92780930190092"><ele>506.5</ele><time>2026-04-04T15:01:08.001Z</time></trkpt><trkpt lat="43.18228018613246" lon="12.928001880099885"><ele>507.0</ele><time>2026-04-04T15:01:09.001Z</time></trkpt><trkpt lat="43.18231986439687" lon="12.928184682237946"><ele>507.5</ele><time>2026-04-04T15:01:10.001Z</time></trkpt><trkpt lat="43.182377159836285" lon="12.928358765264877"><ele>508.0</ele><time>2026-04-04T15:01:11.001Z</time></trkpt><trkpt lat="43.18241794332001" lon="12.92853576605898"><ele>495.0</ele><time>2026-04-04T15:01:12.001Z</time></trkpt><trkpt lat="43.18243669638511" lon="12.928698050918888"><ele>482.0</ele><time>2026-04-04T15:01:13.001Z</time></trkpt><trkpt lat="43.18242761258804" lon="12.928819681596504"><ele>469.0</ele><time>2026-04-04T15:01:14.001Z</time></trkpt><trkpt lat="43.18238603954589" lon="12.929025458638499"><ele>456.0</ele><time>2026-04-04T15:01:16.001Z</time></trkpt><trkpt lat="43.182355770140866" lon="12.92916719633238"><ele>457.0</ele><time>2026-04-04T15:01:17.001Z</time></trkpt><trkpt lat="43.18232966435388" lon="12.929315734502865"><ele>458.0</ele><time>2026-04-04T15:01:18.001Z</time></trkpt><trkpt lat="43.18233044897702" lon="12.929464915864823"><ele>459.0</ele><time>2026-04-04T15:01:19.001Z</time></trkpt><trkpt lat="43.18237398301735" lon="12.929616787272806"><ele>460.0</ele><time>2026-04-04T15:01:20.001Z</time></trkpt><trkpt lat="43.182433495502025" lon="12.929755727735348"><ele>460.0</ele><time>2026-04-04T15:01:21.001Z</time></trkpt><trkpt lat="43.18250815019783" lon="12.929890000048902"><ele>460.0</ele><time>2026-04-04T15:01:22.001Z</time></trkpt><trkpt lat="43.182607384085124" lon="12.930002411348744"><ele>460.0</ele><time>2026-04-04T15:01:23.001Z</time></trkpt><trkpt lat="43.1827028112903" lon="12.930122045739855"><ele>460.0</ele><time>2026-04-04T15:01:24.001Z</time></trkpt><trkpt lat="43.18281443757597" lon="12.930211619379026"><ele>462.2</ele><time>2026-04-04T15:01:25.001Z</time></trkpt><trkpt lat="43.182924361679326" lon="12.930276843698165"><ele>464.4</ele><time>2026-04-04T15:01:26.001Z</time></trkpt><trkpt lat="43.182997723523656" lon="12.930383337115993"><ele>466.6</ele><time>2026-04-04T15:01:27.001Z</time></trkpt><trkpt lat="43.18304289018022" lon="12.930507743529647"><ele>468.8</ele><time>2026-04-04T15:01:28.001Z</time></trkpt><trkpt lat="43.183079479291806" lon="12.930628735399122"><ele>471.0</ele><time>2026-04-04T15:01:29.001Z</time></trkpt><trkpt lat="43.18307973190221" lon="12.930721557881766"><ele>471.0</ele><time>2026-04-04T15:01:30.001Z</time></trkpt><trkpt lat="43.18307027942784" lon="12.930827985797531"><ele>471.0</ele><time>2026-04-04T15:01:31.001Z</time></trkpt><trkpt lat="43.183056856496215" lon="12.930962976100947"><ele>471.0</ele><time>2026-04-04T15:01:32.001Z</time></trkpt><trkpt lat="43.18303461456212" lon="12.931098468866915"><ele>471.0</ele><time>2026-04-04T15:01:33.001Z</time></trkpt><trkpt lat="43.183007592547014" lon="12.931234969074872"><ele>471.0</ele><time>2026-04-04T15:01:34.001Z</time></trkpt><trkpt lat="43.182974917052285" lon="12.931390195878771"><ele>470.75</ele><time>2026-04-04T15:01:35.001Z</time></trkpt><trkpt lat="43.1829366497734" lon="12.931556433421711"><ele>470.5</ele><time>2026-04-04T15:01:36.001Z</time></trkpt><trkpt lat="43.182894068649176" lon="12.931714738190717"><ele>470.25</ele><time>2026-04-04T15:01:37.001Z</time></trkpt><trkpt lat="43.182836519944495" lon="12.931874466908486"><ele>470.0</ele><time>2026-04-04T15:01:38.001Z</time></trkpt><trkpt lat="43.18277897152744" lon="12.93202801367043"><ele>467.5</ele><time>2026-04-04T15:01:39.001Z</time></trkpt><trkpt lat="43.18272237314545" lon="12.932175166928362"><ele>465.0</ele><time>2026-04-04T15:01:40.001Z</time></trkpt><trkpt lat="43.182676696427286" lon="12.932315321248437"><ele>462.5</ele><time>2026-04-04T15:01:41Z</time></trkpt><trkpt lat="43.182659115062265" lon="12.93248152479433"><ele>460.0</ele><time>2026-04-04T15:01:42Z</time></trkpt><trkpt lat="43.18267907172646" lon="12.932645030004158"><ele>459.8</ele><time>2026-04-04T15:01:43Z</time></trkpt><trkpt lat="43.18270100626185" lon="12.932781004682873"><ele>459.6</ele><time>2026-04-04T15:01:44Z</time></trkpt><trkpt lat="43.182715842669666" lon="12.932917259474085"><ele>459.4</ele><time>2026-04-04T15:01:45Z</time></trkpt><trkpt lat="43.182725854217956" lon="12.933051787951008"><ele>459.2</ele><time>2026-04-04T15:01:46Z</time></trkpt><trkpt lat="43.18272944897119" lon="12.933186573026083"><ele>459.0</ele><time>2026-04-04T15:01:47Z</time></trkpt><trkpt lat="43.18273175711699" lon="12.933337973837373"><ele>459.6</ele><time>2026-04-04T15:01:48Z</time></trkpt><trkpt lat="43.182743356825995" lon="12.933493756822298"><ele>460.2</ele><time>2026-04-04T15:01:49Z</time></trkpt><trkpt lat="43.18276854320557" lon="12.933646777310324"><ele>460.80000000000007</ele><time>2026-04-04T15:01:50Z</time></trkpt><trkpt lat="43.18280163073557" lon="12.933782024252826"><ele>461.40000000000003</ele><time>2026-04-04T15:01:51Z</time></trkpt><trkpt lat="43.18282964136395" lon="12.933899057160748"><ele>462.0</ele><time>2026-04-04T15:01:52Z</time></trkpt><trkpt lat="43.182855778028426" lon="12.934008260336858"><ele>462.0</ele><time>2026-04-04T15:01:53Z</time></trkpt><trkpt lat="43.1829636346776" lon="12.934098311795271"><ele>462.0</ele><time>2026-04-04T15:01:55Z</time></trkpt><trkpt lat="43.182980106175464" lon="12.934186494430207"><ele>462.0</ele><time>2026-04-04T15:01:56Z</time></trkpt><trkpt lat="43.18312382592986" lon="12.93405295845939"><ele>462.0</ele><time>2026-04-04T15:01:57Z</time></trkpt><trkpt lat="43.183217853254874" lon="12.934038288086853"><ele>459.75</ele><time>2026-04-04T15:01:58Z</time></trkpt><trkpt lat="43.183315806086526" lon="12.934015241448243"><ele>457.5</ele><time>2026-04-04T15:01:59Z</time></trkpt><trkpt lat="43.183425145345055" lon="12.933997664651717"><ele>455.25</ele><time>2026-04-04T15:02:00Z</time></trkpt><trkpt lat="43.18354543875718" lon="12.9339685918181"><ele>453.0</ele><time>2026-04-04T15:02:01Z</time></trkpt><trkpt lat="43.18366708415268" lon="12.933938016852101"><ele>453.0</ele><time>2026-04-04T15:02:02Z</time></trkpt><trkpt lat="43.1837901381103" lon="12.933904307189785"><ele>452.99999999999994</ele><time>2026-04-04T15:02:03Z</time></trkpt><trkpt lat="43.183899349187975" lon="12.933868927691211"><ele>452.99999999999994</ele><time>2026-04-04T15:02:04Z</time></trkpt><trkpt lat="43.18400059019104" lon="12.933835544141143"><ele>453.0</ele><time>2026-04-04T15:02:05Z</time></trkpt><trkpt lat="43.184096928954105" lon="12.933807810880586"><ele>453.0</ele><time>2026-04-04T15:02:06Z</time></trkpt><trkpt lat="43.18418135660109" lon="12.933801137108384"><ele>452.79999999999995</ele><time>2026-04-04T15:02:07Z</time></trkpt><trkpt lat="43.18425440005903" lon="12.933818443620776"><ele>452.59999999999997</ele><time>2026-04-04T15:02:08Z</time></trkpt><trkpt lat="43.18431236208306" lon="12.933853970375852"><ele>452.40000000000003</ele><time>2026-04-04T15:02:09Z</time></trkpt><trkpt lat="43.18436408371961" lon="12.934075153446695"><ele>452.20000000000005</ele><time>2026-04-04T15:02:12Z</time></trkpt><trkpt lat="43.18437330631912" lon="12.934187780353112"><ele>452.0</ele><time>2026-04-04T15:02:13Z</time></trkpt><trkpt lat="43.1843751385494" lon="12.934306232887566"><ele>452.0</ele><time>2026-04-04T15:02:14Z</time></trkpt><trkpt lat="43.18436799190123" lon="12.934449464271548"><ele>452.00000000000006</ele><time>2026-04-04T15:02:15Z</time></trkpt><trkpt lat="43.184360632277944" lon="12.934606799623145"><ele>452.00000000000006</ele><time>2026-04-04T15:02:16Z</time></trkpt><trkpt lat="43.18435750061935" lon="12.934762110210826"><ele>452.0</ele><time>2026-04-04T15:02:17Z</time></trkpt><trkpt lat="43.18436212073891" lon="12.934920257912125"><ele>452.0</ele><time>2026-04-04T15:02:18Z</time></trkpt><trkpt lat="43.1843597646253" lon="12.935080576598853"><ele>452.0</ele><time>2026-04-04T15:02:19Z</time></trkpt><trkpt lat="43.18436024244036" lon="12.935238789835115"><ele>452.0</ele><time>2026-04-04T15:02:20Z</time></trkpt><trkpt lat="43.184359479321564" lon="12.935394519788023"><ele>452.0</ele><time>2026-04-04T15:02:21Z</time></trkpt><trkpt lat="43.184355483788934" lon="12.93555346166074"><ele>452.0</ele><time>2026-04-04T15:02:22Z</time></trkpt><trkpt lat="43.1843513997014" lon="12.935716223844599"><ele>452.0</ele><time>2026-04-04T15:02:23Z</time></trkpt><trkpt lat="43.184348369851534" lon="12.935874088277796"><ele>452.0</ele><time>2026-04-04T15:02:24Z</time></trkpt><trkpt lat="43.184351549191184" lon="12.936041033179476"><ele>452.0</ele><time>2026-04-04T15:02:25Z</time></trkpt><trkpt lat="43.18435214875957" lon="12.936199429457613"><ele>452.0</ele><time>2026-04-04T15:02:26Z</time></trkpt><trkpt lat="43.184343224737034" lon="12.936369309969084"><ele>451.75</ele><time>2026-04-04T15:02:27Z</time></trkpt><trkpt lat="43.184340936000986" lon="12.936531138266682"><ele>451.5</ele><time>2026-04-04T15:02:28Z</time></trkpt><trkpt lat="43.18434138749175" lon="12.936695509193623"><ele>451.25</ele><time>2026-04-04T15:02:29Z</time></trkpt><trkpt lat="43.18433763819247" lon="12.936855607495225"><ele>451.0</ele><time>2026-04-04T15:02:30Z</time></trkpt><trkpt lat="43.18433017993759" lon="12.93702053039189"><ele>450.5</ele><time>2026-04-04T15:02:31Z</time></trkpt><trkpt lat="43.184325666016335" lon="12.937180242979002"><ele>450.0</ele><time>2026-04-04T15:02:32Z</time></trkpt><trkpt lat="43.184319258790694" lon="12.937338085900459"><ele>449.5</ele><time>2026-04-04T15:02:33Z</time></trkpt><trkpt lat="43.184318951508914" lon="12.937492108919571"><ele>449.0</ele><time>2026-04-04T15:02:34Z</time></trkpt><trkpt lat="43.18432020773501" lon="12.93765043179878"><ele>448.75</ele><time>2026-04-04T15:02:35Z</time></trkpt><trkpt lat="43.18431352197823" lon="12.937811455467116"><ele>448.5</ele><time>2026-04-04T15:02:36Z</time></trkpt><trkpt lat="43.184306766910005" lon="12.937971892912042"><ele>448.25</ele><time>2026-04-04T15:02:37Z</time></trkpt><trkpt lat="43.18429866302935" lon="12.938141361231231"><ele>448.0</ele><time>2026-04-04T15:02:38Z</time></trkpt><trkpt lat="43.18429225693637" lon="12.938299463275907"><ele>448.0</ele><time>2026-04-04T15:02:39Z</time></trkpt><trkpt lat="43.184293851389775" lon="12.93847147833348"><ele>448.0</ele><time>2026-04-04T15:02:40Z</time></trkpt><trkpt lat="43.184296276805725" lon="12.938663398757388"><ele>448.0</ele><time>2026-04-04T15:02:41Z</time></trkpt><trkpt lat="43.18429737351816" lon="12.938898002384875"><ele>448.0</ele><time>2026-04-04T15:02:42Z</time></trkpt><trkpt lat="43.18429779631882" lon="12.939128110074105"><ele>448.0</ele><time>2026-04-04T15:02:43Z</time></trkpt><trkpt lat="43.1842356694273" lon="12.93915631846536"><ele>447.99999999999994</ele><time>2026-04-04T15:02:44Z</time></trkpt><trkpt lat="43.184192890922375" lon="12.939311666415996"><ele>447.99999999999994</ele><time>2026-04-04T15:02:45Z</time></trkpt><trkpt lat="43.184159079841834" lon="12.93947091336589"><ele>448.0</ele><time>2026-04-04T15:02:46Z</time></trkpt><trkpt lat="43.184120992905754" lon="12.93962777169715"><ele>448.0</ele><time>2026-04-04T15:02:47Z</time></trkpt><trkpt lat="43.184078241595" lon="12.93978836614821"><ele>448.25</ele><time>2026-04-04T15:02:48Z</time></trkpt><trkpt lat="43.184038037871986" lon="12.939949234854929"><ele>448.5</ele><time>2026-04-04T15:02:49Z</time></trkpt><trkpt lat="43.18399667681137" lon="12.94010739320503"><ele>448.75</ele><time>2026-04-04T15:02:50Z</time></trkpt><trkpt lat="43.18395214313586" lon="12.940267939560304"><ele>449.0</ele><time>2026-04-04T15:02:51Z</time></trkpt><trkpt lat="43.183903416596934" lon="12.940416669814983"><ele>449.0</ele><time>2026-04-04T15:02:52Z</time></trkpt><trkpt lat="43.1838583352023" lon="12.940558634222512"><ele>449.0</ele><time>2026-04-04T15:02:53Z</time></trkpt><trkpt lat="43.183818776295986" lon="12.940692235604292"><ele>449.0</ele><time>2026-04-04T15:02:54Z</time></trkpt><trkpt lat="43.18378172954309" lon="12.940817312257142"><ele>449.0</ele><time>2026-04-04T15:02:55Z</time></trkpt><trkpt lat="43.183736375485914" lon="12.94090214158546"><ele>449.0</ele><time>2026-04-04T15:02:56Z</time></trkpt><trkpt lat="43.18365193614081" lon="12.941013636079097"><ele>449.0</ele><time>2026-04-04T15:02:58Z</time></trkpt><trkpt lat="43.183622609604214" lon="12.941161002461614"><ele>449.0</ele><time>2026-04-04T15:03:00Z</time></trkpt><trkpt lat="43.18361172607023" lon="12.94125928748639"><ele>449.0</ele><time>2026-04-04T15:03:02Z</time></trkpt><trkpt lat="43.18369094331497" lon="12.941279834372772"><ele>449.0</ele><time>2026-04-04T15:03:04Z</time></trkpt><trkpt lat="43.183820016072836" lon="12.941318691157132"><ele>449.0</ele><time>2026-04-04T15:03:06Z</time></trkpt><trkpt lat="43.18389709342108" lon="12.941329723455427"><ele>448.99999999999994</ele><time>2026-04-04T15:03:07Z</time></trkpt><trkpt lat="43.183999923493296" lon="12.94136315899379"><ele>449.0</ele><time>2026-04-04T15:03:09Z</time></trkpt><trkpt lat="43.18394596420413" lon="12.9414182253297"><ele>449.0</ele><time>2026-04-04T15:03:12.001Z</time></trkpt><trkpt lat="43.18384660303244" lon="12.94148001004496"><ele>449.0</ele><time>2026-04-04T15:03:14.001Z</time></trkpt><trkpt lat="43.18380870689465" lon="12.941574854464044"><ele>448.99999999999994</ele><time>2026-04-04T15:03:15.001Z</time></trkpt><trkpt lat="43.18378501421314" lon="12.941689547871754"><ele>449.0</ele><time>2026-04-04T15:03:16.001Z</time></trkpt><trkpt lat="43.18375601497453" lon="12.94181252136318"><ele>448.5</ele><time>2026-04-04T15:03:17.001Z</time></trkpt><trkpt lat="43.18372396717444" lon="12.941956414116577"><ele>448.0</ele><time>2026-04-04T15:03:18.001Z</time></trkpt><trkpt lat="43.18367987554153" lon="12.94211896275294"><ele>447.5</ele><time>2026-04-04T15:03:19.001Z</time></trkpt><trkpt lat="43.18362903860317" lon="12.94230150318809"><ele>447.0</ele><time>2026-04-04T15:03:20.001Z</time></trkpt><trkpt lat="43.18355886370821" lon="12.942546271005545"><ele>447.33333333333337</ele><time>2026-04-04T15:03:21.001Z</time></trkpt><trkpt lat="43.183501653785925" lon="12.942741989833948"><ele>447.6666666666667</ele><time>2026-04-04T15:03:22.001Z</time></trkpt><trkpt lat="43.1834474986747" lon="12.942944676017717"><ele>448.0</ele><time>2026-04-04T15:03:23.001Z</time></trkpt><trkpt lat="43.1834012859437" lon="12.943140211178068"><ele>448.0</ele><time>2026-04-04T15:03:24.001Z</time></trkpt><trkpt lat="43.183352257293414" lon="12.9433395767433"><ele>448.0</ele><time>2026-04-04T15:03:25.001Z</time></trkpt><trkpt lat="43.18330958361142" lon="12.943542324646906"><ele>448.0</ele><time>2026-04-04T15:03:26.001Z</time></trkpt><trkpt lat="43.1832728781823" lon="12.943740170744524"><ele>447.75</ele><time>2026-04-04T15:03:27.001Z</time></trkpt><trkpt lat="43.183237910797125" lon="12.943941213991392"><ele>447.5</ele><time>2026-04-04T15:03:28.001Z</time></trkpt><trkpt lat="43.18321041435116" lon="12.94413811115633"><ele>447.25</ele><time>2026-04-04T15:03:29.001Z</time></trkpt><trkpt lat="43.18318836167942" lon="12.944334559775147"><ele>447.0</ele><time>2026-04-04T15:03:30.001Z</time></trkpt><trkpt lat="43.18317286112588" lon="12.94452382004409"><ele>447.0</ele><time>2026-04-04T15:03:31.001Z</time></trkpt><trkpt lat="43.18316060688294" lon="12.94471299970086"><ele>447.0</ele><time>2026-04-04T15:03:32.001Z</time></trkpt><trkpt lat="43.18314777453919" lon="12.944898298378742"><ele>447.0</ele><time>2026-04-04T15:03:33.001Z</time></trkpt><trkpt lat="43.183132148981116" lon="12.945081103736173"><ele>447.0</ele><time>2026-04-04T15:03:34.001Z</time></trkpt><trkpt lat="43.18312427100319" lon="12.945260724572277"><ele>446.75</ele><time>2026-04-04T15:03:35.001Z</time></trkpt><trkpt lat="43.18311643060603" lon="12.945446066946932"><ele>446.5</ele><time>2026-04-04T15:03:36.001Z</time></trkpt><trkpt lat="43.18311307947066" lon="12.94563344397313"><ele>446.25</ele><time>2026-04-04T15:03:37.001Z</time></trkpt><trkpt lat="43.183100058489096" lon="12.945825195030949"><ele>446.0</ele><time>2026-04-04T15:03:38.001Z</time></trkpt><trkpt lat="43.18308144455605" lon="12.946012040204868"><ele>446.0</ele><time>2026-04-04T15:03:39Z</time></trkpt><trkpt lat="43.183062873549474" lon="12.946188575631723"><ele>446.0</ele><time>2026-04-04T15:03:40Z</time></trkpt><trkpt lat="43.18304418529195" lon="12.946366220646382"><ele>446.0</ele><time>2026-04-04T15:03:41Z</time></trkpt><trkpt lat="43.18302170728117" lon="12.946546970455335"><ele>446.0</ele><time>2026-04-04T15:03:42Z</time></trkpt><trkpt lat="43.182991219236285" lon="12.946725547510558"><ele>446.25</ele><time>2026-04-04T15:03:43Z</time></trkpt><trkpt lat="43.18295150378674" lon="12.946905044070492"><ele>446.5</ele><time>2026-04-04T15:03:44Z</time></trkpt><trkpt lat="43.182906357545335" lon="12.947076041912432"><ele>446.75</ele><time>2026-04-04T15:03:45Z</time></trkpt><trkpt lat="43.182849930336445" lon="12.94724769643811"><ele>447.0</ele><time>2026-04-04T15:03:46Z</time></trkpt><trkpt lat="43.182789866829054" lon="12.947414238417332"><ele>447.0</ele><time>2026-04-04T15:03:47Z</time></trkpt><trkpt lat="43.18272152959543" lon="12.9475832652449"><ele>447.0</ele><time>2026-04-04T15:03:48Z</time></trkpt><trkpt lat="43.18265224462152" lon="12.947749985936408"><ele>447.0</ele><time>2026-04-04T15:03:49Z</time></trkpt><trkpt lat="43.1825780674828" lon="12.94791715489006"><ele>447.0</ele><time>2026-04-04T15:03:50Z</time></trkpt><trkpt lat="43.18250462292137" lon="12.948082338206587"><ele>447.0</ele><time>2026-04-04T15:03:51Z</time></trkpt><trkpt lat="43.18242910606868" lon="12.948248099785355"><ele>447.0</ele><time>2026-04-04T15:03:52Z</time></trkpt><trkpt lat="43.182344693118246" lon="12.948417474654873"><ele>447.0</ele><time>2026-04-04T15:03:53Z</time></trkpt><trkpt lat="43.182261921594126" lon="12.948586389323978"><ele>447.0</ele><time>2026-04-04T15:03:54Z</time></trkpt><trkpt lat="43.18217723269746" lon="12.94875075044549"><ele>447.33333333333337</ele><time>2026-04-04T15:03:55Z</time></trkpt><trkpt lat="43.18209242182918" lon="12.9489235252203"><ele>447.6666666666667</ele><time>2026-04-04T15:03:56Z</time></trkpt><trkpt lat="43.18200952031605" lon="12.949103476268244"><ele>448.0</ele><time>2026-04-04T15:03:57Z</time></trkpt><trkpt lat="43.18192488144669" lon="12.949284204480266"><ele>449.6666666666667</ele><time>2026-04-04T15:03:58Z</time></trkpt><trkpt lat="43.18184054573231" lon="12.949458046775263"><ele>451.33333333333337</ele><time>2026-04-04T15:03:59Z</time></trkpt><trkpt lat="43.18186705175021" lon="12.949765623480584"><ele>453.0</ele><time>2026-04-04T15:04:00Z</time></trkpt><trkpt lat="43.1817659624665" lon="12.949924184206807"><ele>454.66666666666663</ele><time>2026-04-04T15:04:01Z</time></trkpt><trkpt lat="43.18166401893022" lon="12.950085576008771"><ele>456.3333333333333</ele><time>2026-04-04T15:04:02Z</time></trkpt><trkpt lat="43.181564886500674" lon="12.950249049290427"><ele>458.0</ele><time>2026-04-04T15:04:03Z</time></trkpt><trkpt lat="43.181472516792006" lon="12.950423051996133"><ele>455.25</ele><time>2026-04-04T15:04:04Z</time></trkpt><trkpt lat="43.18141301933743" lon="12.9505962961753"><ele>452.5</ele><time>2026-04-04T15:04:05Z</time></trkpt><trkpt lat="43.18137900284552" lon="12.95076800842634"><ele>449.75</ele><time>2026-04-04T15:04:06Z</time></trkpt><trkpt lat="43.18136909641646" lon="12.950923633148777"><ele>447.0</ele><time>2026-04-04T15:04:07Z</time></trkpt><trkpt lat="43.181369750793294" lon="12.951081726683421"><ele>446.75</ele><time>2026-04-04T15:04:08Z</time></trkpt><trkpt lat="43.181373390754274" lon="12.951279027596641"><ele>446.5</ele><time>2026-04-04T15:04:09Z</time></trkpt><trkpt lat="43.181381839939704" lon="12.951477006815935"><ele>446.25</ele><time>2026-04-04T15:04:10Z</time></trkpt><trkpt lat="43.18139175551117" lon="12.95167536915945"><ele>446.0</ele><time>2026-04-04T15:04:11Z</time></trkpt><trkpt lat="43.181406106377736" lon="12.951867815374197"><ele>446.0</ele><time>2026-04-04T15:04:12Z</time></trkpt><trkpt lat="43.181425617336984" lon="12.952038567228854"><ele>446.0</ele><time>2026-04-04T15:04:13Z</time></trkpt><trkpt lat="43.18146113944292" lon="12.95219513027458"><ele>446.0</ele><time>2026-04-04T15:04:14Z</time></trkpt><trkpt lat="43.18153215462836" lon="12.952373263212635"><ele>446.0</ele><time>2026-04-04T15:04:15Z</time></trkpt><trkpt lat="43.18163265303035" lon="12.952557040563683"><ele>446.25</ele><time>2026-04-04T15:04:16Z</time></trkpt><trkpt lat="43.181739095400815" lon="12.95269782507508"><ele>446.5</ele><time>2026-04-04T15:04:17Z</time></trkpt><trkpt lat="43.18185885008745" lon="12.95283075703574"><ele>446.75</ele><time>2026-04-04T15:04:18Z</time></trkpt><trkpt lat="43.18197213902151" lon="12.952955479237145"><ele>447.0</ele><time>2026-04-04T15:04:19Z</time></trkpt><trkpt lat="43.18206074796768" lon="12.953049202267785"><ele>447.0</ele><time>2026-04-04T15:04:20Z</time></trkpt><trkpt lat="43.182161111231174" lon="12.953154580297847"><ele>447.0</ele><time>2026-04-04T15:04:21Z</time></trkpt><trkpt lat="43.182267101904564" lon="12.953265866880907"><ele>447.0</ele><time>2026-04-04T15:04:22Z</time></trkpt><trkpt lat="43.182378309352906" lon="12.95338263091207"><ele>447.0</ele><time>2026-04-04T15:04:23Z</time></trkpt><trkpt lat="43.18248154605606" lon="12.953491025940512"><ele>447.0</ele><time>2026-04-04T15:04:24Z</time></trkpt><trkpt lat="43.18255923020902" lon="12.953593824482287"><ele>447.0</ele><time>2026-04-04T15:04:25Z</time></trkpt><trkpt lat="43.182626879728446" lon="12.953692787362408"><ele>447.0</ele><time>2026-04-04T15:04:26Z</time></trkpt><trkpt lat="43.182689743419544" lon="12.953793989858815"><ele>447.0</ele><time>2026-04-04T15:04:27Z</time></trkpt><trkpt lat="43.18233811053325" lon="12.954598268991443"><ele>446.8</ele><time>2026-04-04T15:04:28Z</time></trkpt><trkpt lat="43.18234940590397" lon="12.954752772117041"><ele>446.6</ele><time>2026-04-04T15:04:29Z</time></trkpt><trkpt lat="43.18235321185412" lon="12.954892772163198"><ele>446.40000000000003</ele><time>2026-04-04T15:04:30Z</time></trkpt><trkpt lat="43.18235651976942" lon="12.955028051235232"><ele>446.20000000000005</ele><time>2026-04-04T15:04:31Z</time></trkpt><trkpt lat="43.18235090741166" lon="12.955157282817956"><ele>446.0</ele><time>2026-04-04T15:04:32Z</time></trkpt><trkpt lat="43.182339771934224" lon="12.95526066037802"><ele>446.66666666666663</ele><time>2026-04-04T15:04:33Z</time></trkpt><trkpt lat="43.182330234819155" lon="12.955358169560794"><ele>447.3333333333333</ele><time>2026-04-04T15:04:34Z</time></trkpt><trkpt lat="43.18231450401672" lon="12.955452854270398"><ele>448.0</ele><time>2026-04-04T15:04:35Z</time></trkpt><trkpt lat="43.18231103102157" lon="12.95558622109186"><ele>448.66666666666663</ele><time>2026-04-04T15:04:37Z</time></trkpt><trkpt lat="43.18233551097259" lon="12.955695474649284"><ele>449.3333333333333</ele><time>2026-04-04T15:04:39Z</time></trkpt><trkpt lat="43.1823360857966" lon="12.955796039497256"><ele>450.0</ele><time>2026-04-04T15:04:41Z</time></trkpt><trkpt lat="43.18231668839045" lon="12.955911919572598"><ele>450.0</ele><time>2026-04-04T15:04:43Z</time></trkpt><trkpt lat="43.182300829394265" lon="12.956025431360096"><ele>450.0</ele><time>2026-04-04T15:05:08Z</time></trkpt><trkpt lat="43.18224203065842" lon="12.956132412279823"><ele>450.0</ele><time>2026-04-04T15:05:10Z</time></trkpt><trkpt lat="43.18220259640057" lon="12.956219788965472"><ele>450.0</ele><time>2026-04-04T15:05:11Z</time></trkpt><trkpt lat="43.182184452087405" lon="12.956333722548568"><ele>450.0</ele><time>2026-04-04T15:05:11.999Z</time></trkpt><trkpt lat="43.18217303319147" lon="12.95644685584614"><ele>450.0</ele><time>2026-04-04T15:05:12.999Z</time></trkpt><trkpt lat="43.182159950692586" lon="12.95653581340537"><ele>450.0</ele><time>2026-04-04T15:05:13.999Z</time></trkpt><trkpt lat="43.1821390811185" lon="12.956632527927727"><ele>450.0</ele><time>2026-04-04T15:05:14.999Z</time></trkpt><trkpt lat="43.18210574335724" lon="12.956723380748722"><ele>450.0</ele><time>2026-04-04T15:05:15.999Z</time></trkpt><trkpt lat="43.18206049735835" lon="12.956824677185502"><ele>450.0</ele><time>2026-04-04T15:05:16.999Z</time></trkpt><trkpt lat="43.18200140961246" lon="12.956915319414248"><ele>450.0</ele><time>2026-04-04T15:05:18.001Z</time></trkpt><trkpt lat="43.181931154685714" lon="12.956996084725262"><ele>450.0</ele><time>2026-04-04T15:05:19.001Z</time></trkpt><trkpt lat="43.181862392691805" lon="12.957074007990594"><ele>450.2</ele><time>2026-04-04T15:05:20.001Z</time></trkpt><trkpt lat="43.18178928568457" lon="12.957145374483003"><ele>450.4</ele><time>2026-04-04T15:05:21.001Z</time></trkpt><trkpt lat="43.18171180633676" lon="12.957212852778657"><ele>450.6</ele><time>2026-04-04T15:05:22.001Z</time></trkpt><trkpt lat="43.18163004891711" lon="12.957259305129423"><ele>450.8</ele><time>2026-04-04T15:05:23.001Z</time></trkpt><trkpt lat="43.181541818748634" lon="12.957300461671581"><ele>451.0</ele><time>2026-04-04T15:05:24.001Z</time></trkpt><trkpt lat="43.181441212508105" lon="12.95734172078309"><ele>451.0</ele><time>2026-04-04T15:05:25.001Z</time></trkpt><trkpt lat="43.181338687395105" lon="12.957381833629807"><ele>451.0</ele><time>2026-04-04T15:05:26.001Z</time></trkpt><trkpt lat="43.18122974577795" lon="12.957422752164367"><ele>451.0</ele><time>2026-04-04T15:05:27.001Z</time></trkpt><trkpt lat="43.18112165575598" lon="12.957461638092159"><ele>451.0</ele><time>2026-04-04T15:05:28.001Z</time></trkpt><trkpt lat="43.1810097606405" lon="12.957496436326073"><ele>451.0</ele><time>2026-04-04T15:05:29.001Z</time></trkpt><trkpt lat="43.18089342053623" lon="12.957532836182478"><ele>449.25</ele><time>2026-04-04T15:05:30.001Z</time></trkpt><trkpt lat="43.180776123567476" lon="12.957574717233543"><ele>447.5</ele><time>2026-04-04T15:05:31.001Z</time></trkpt><trkpt lat="43.180661400122936" lon="12.957631116840737"><ele>445.75</ele><time>2026-04-04T15:05:32.001Z</time></trkpt><trkpt lat="43.18054628745836" lon="12.957691594257575"><ele>444.0</ele><time>2026-04-04T15:05:33.001Z</time></trkpt><trkpt lat="43.18044146593747" lon="12.957764325935921"><ele>444.0</ele><time>2026-04-04T15:05:34.001Z</time></trkpt><trkpt lat="43.18033368804975" lon="12.95784969058887"><ele>444.0</ele><time>2026-04-04T15:05:35.001Z</time></trkpt><trkpt lat="43.18023496223393" lon="12.957932109164073"><ele>444.0</ele><time>2026-04-04T15:05:36.001Z</time></trkpt><trkpt lat="43.180158246387535" lon="12.958017524619034"><ele>444.0</ele><time>2026-04-04T15:05:37.001Z</time></trkpt><trkpt lat="43.18007703540338" lon="12.958111593476126"><ele>444.0</ele><time>2026-04-04T15:05:38Z</time></trkpt><trkpt lat="43.17999527939475" lon="12.958194549873774"><ele>444.0</ele><time>2026-04-04T15:05:39Z</time></trkpt><trkpt lat="43.179910247542296" lon="12.95827896319404"><ele>444.0</ele><time>2026-04-04T15:05:40Z</time></trkpt><trkpt lat="43.17982310411469" lon="12.958358282779642"><ele>444.0</ele><time>2026-04-04T15:05:41Z</time></trkpt><trkpt lat="43.17974923265834" lon="12.958427695836061"><ele>444.0</ele><time>2026-04-04T15:05:42Z</time></trkpt><trkpt lat="43.179669810699984" lon="12.958498456298162"><ele>444.0</ele><time>2026-04-04T15:05:43Z</time></trkpt><trkpt lat="43.17958475766654" lon="12.958569831022011"><ele>444.5</ele><time>2026-04-04T15:05:44Z</time></trkpt><trkpt lat="43.1795044742739" lon="12.958647238863591"><ele>445.0</ele><time>2026-04-04T15:05:45Z</time></trkpt><trkpt lat="43.17943079133088" lon="12.958722795310365"><ele>445.5</ele><time>2026-04-04T15:05:46Z</time></trkpt><trkpt lat="43.17936480371786" lon="12.958777304255745"><ele>446.0</ele><time>2026-04-04T15:05:47Z</time></trkpt><trkpt lat="43.17929739170165" lon="12.958817401963724"><ele>446.5</ele><time>2026-04-04T15:05:48Z</time></trkpt><trkpt lat="43.17923598607279" lon="12.958881794892621"><ele>447.0</ele><time>2026-04-04T15:05:49Z</time></trkpt><trkpt lat="43.17918316699845" lon="12.958983366231195"><ele>447.0</ele><time>2026-04-04T15:05:50Z</time></trkpt><trkpt lat="43.17914627986695" lon="12.959087855500341"><ele>447.0</ele><time>2026-04-04T15:05:51Z</time></trkpt><trkpt lat="43.1791141083743" lon="12.959183911738378"><ele>447.0</ele><time>2026-04-04T15:05:52Z</time></trkpt><trkpt lat="43.17907258955901" lon="12.959274254895282"><ele>447.0</ele><time>2026-04-04T15:05:53Z</time></trkpt><trkpt lat="43.17901265972998" lon="12.959353543914421"><ele>447.0</ele><time>2026-04-04T15:05:54Z</time></trkpt><trkpt lat="43.17895199986519" lon="12.959436038355781"><ele>447.0</ele><time>2026-04-04T15:05:55Z</time></trkpt><trkpt lat="43.17890917564915" lon="12.959539392724395"><ele>448.0</ele><time>2026-04-04T15:05:56Z</time></trkpt><trkpt lat="43.178862653742634" lon="12.959653231989277"><ele>449.00000000000006</ele><time>2026-04-04T15:05:57Z</time></trkpt><trkpt lat="43.178821575441965" lon="12.959773207063575"><ele>450.00000000000006</ele><time>2026-04-04T15:05:58Z</time></trkpt><trkpt lat="43.178789026543605" lon="12.959914555306417"><ele>451.0</ele><time>2026-04-04T15:05:59Z</time></trkpt><trkpt lat="43.17876701118786" lon="12.960047464329671"><ele>452.0</ele><time>2026-04-04T15:06:00Z</time></trkpt><trkpt lat="43.17874683473318" lon="12.960170945928256"><ele>452.0</ele><time>2026-04-04T15:06:01Z</time></trkpt><trkpt lat="43.17873172978891" lon="12.960297946665628"><ele>452.00000000000006</ele><time>2026-04-04T15:06:02Z</time></trkpt><trkpt lat="43.178716829986826" lon="12.96042801671597"><ele>452.00000000000006</ele><time>2026-04-04T15:06:03Z</time></trkpt><trkpt lat="43.178706900865606" lon="12.960561912959731"><ele>452.0</ele><time>2026-04-04T15:06:04Z</time></trkpt><trkpt lat="43.17870835120051" lon="12.96070551127827"><ele>452.0</ele><time>2026-04-04T15:06:05Z</time></trkpt><trkpt lat="43.17848512060658" lon="12.96085714094861"><ele>453.40000000000003</ele><time>2026-04-04T15:06:06Z</time></trkpt><trkpt lat="43.17848994370817" lon="12.960998905124676"><ele>454.80000000000007</ele><time>2026-04-04T15:06:07Z</time></trkpt><trkpt lat="43.17849460731081" lon="12.96113598124694"><ele>456.2</ele><time>2026-04-04T15:06:08Z</time></trkpt><trkpt lat="43.178499339196975" lon="12.9612750643678"><ele>457.6</ele><time>2026-04-04T15:06:09Z</time></trkpt><trkpt lat="43.178504608850716" lon="12.961415391124833"><ele>459.0</ele><time>2026-04-04T15:06:10Z</time></trkpt><trkpt lat="43.17851040064645" lon="12.961562308195138"><ele>459.6</ele><time>2026-04-04T15:06:11Z</time></trkpt><trkpt lat="43.17851437436948" lon="12.961699637316046"><ele>460.2</ele><time>2026-04-04T15:06:12Z</time></trkpt><trkpt lat="43.178515786286816" lon="12.96182457076169"><ele>460.80000000000007</ele><time>2026-04-04T15:06:13Z</time></trkpt><trkpt lat="43.17851667809351" lon="12.961947886345186"><ele>461.40000000000003</ele><time>2026-04-04T15:06:14Z</time></trkpt><trkpt lat="43.17851771903355" lon="12.962091823107832"><ele>462.0</ele><time>2026-04-04T15:06:15Z</time></trkpt><trkpt lat="43.17851855025607" lon="12.962233687554418"><ele>462.0</ele><time>2026-04-04T15:06:16Z</time></trkpt><trkpt lat="43.1785193071555" lon="12.962372275552474"><ele>462.00000000000006</ele><time>2026-04-04T15:06:17Z</time></trkpt><trkpt lat="43.17852024563483" lon="12.962507126462535"><ele>462.00000000000006</ele><time>2026-04-04T15:06:18Z</time></trkpt><trkpt lat="43.17852270573088" lon="12.96264938783977"><ele>462.0</ele><time>2026-04-04T15:06:19Z</time></trkpt><trkpt lat="43.178529533279956" lon="12.962802846141813"><ele>462.0</ele><time>2026-04-04T15:06:20Z</time></trkpt><trkpt lat="43.17853657600025" lon="12.962934336940156"><ele>461.8333333333333</ele><time>2026-04-04T15:06:21Z</time></trkpt><trkpt lat="43.17854312797188" lon="12.963056665229931"><ele>461.66666666666663</ele><time>2026-04-04T15:06:22Z</time></trkpt><trkpt lat="43.17854826811742" lon="12.963179146120595"><ele>461.5</ele><time>2026-04-04T15:06:23Z</time></trkpt><trkpt lat="43.17855058871663" lon="12.963301377636212"><ele>461.3333333333333</ele><time>2026-04-04T15:06:24Z</time></trkpt><trkpt lat="43.17854789814046" lon="12.963422385098061"><ele>461.16666666666663</ele><time>2026-04-04T15:06:25Z</time></trkpt><trkpt lat="43.178542734749875" lon="12.963530334819831"><ele>461.0</ele><time>2026-04-04T15:06:26Z</time></trkpt><trkpt lat="43.178535685202846" lon="12.963656383150601"><ele>461.0</ele><time>2026-04-04T15:06:27Z</time></trkpt><trkpt lat="43.17852458279574" lon="12.963774620496874"><ele>461.0</ele><time>2026-04-04T15:06:28Z</time></trkpt><trkpt lat="43.178511232620444" lon="12.96391098367442"><ele>461.0</ele><time>2026-04-04T15:06:29Z</time></trkpt><trkpt lat="43.178497246940445" lon="12.964061383578521"><ele>461.0</ele><time>2026-04-04T15:06:30Z</time></trkpt><trkpt lat="43.1784886967442" lon="12.964255457074403"><ele>461.0</ele><time>2026-04-04T15:06:31Z</time></trkpt><trkpt lat="43.17850051061027" lon="12.964432337483887"><ele>460.8</ele><time>2026-04-04T15:06:32Z</time></trkpt><trkpt lat="43.17852337691393" lon="12.964584204903815"><ele>460.6</ele><time>2026-04-04T15:06:33Z</time></trkpt><trkpt lat="43.17855035571801" lon="12.964742104417805"><ele>460.4</ele><time>2026-04-04T15:06:34Z</time></trkpt><trkpt lat="43.17857852109344" lon="12.96488099443227"><ele>460.2</ele><time>2026-04-04T15:06:35Z</time></trkpt><trkpt lat="43.17860764992063" lon="12.965018890739177"><ele>460.0</ele><time>2026-04-04T15:06:36Z</time></trkpt><trkpt lat="43.17863855062781" lon="12.965164588330403"><ele>462.75</ele><time>2026-04-04T15:06:37Z</time></trkpt><trkpt lat="43.17867086273396" lon="12.965310020330008"><ele>465.5</ele><time>2026-04-04T15:06:38Z</time></trkpt><trkpt lat="43.178706038533946" lon="12.96546335768123"><ele>468.25</ele><time>2026-04-04T15:06:39Z</time></trkpt><trkpt lat="43.178747132389155" lon="12.965625885464561"><ele>471.0</ele><time>2026-04-04T15:06:40Z</time></trkpt><trkpt lat="43.1787883764417" lon="12.96577441840922"><ele>476.0</ele><time>2026-04-04T15:06:41Z</time></trkpt><trkpt lat="43.178832819828266" lon="12.965927657136447"><ele>481.0</ele><time>2026-04-04T15:06:42Z</time></trkpt><trkpt lat="43.17887610181793" lon="12.966074834741079"><ele>486.0</ele><time>2026-04-04T15:06:43Z</time></trkpt><trkpt lat="43.17892438005573" lon="12.96622897567367"><ele>491.0</ele><time>2026-04-04T15:06:44Z</time></trkpt><trkpt lat="43.178966873421054" lon="12.966359753235055"><ele>491.0</ele><time>2026-04-04T15:06:45Z</time></trkpt><trkpt lat="43.17901428066269" lon="12.966495243563912"><ele>491.0</ele><time>2026-04-04T15:06:46Z</time></trkpt><trkpt lat="43.17906207631757" lon="12.966621410329017"><ele>491.0</ele><time>2026-04-04T15:06:47Z</time></trkpt><trkpt lat="43.179111810858444" lon="12.966746881923513"><ele>491.0</ele><time>2026-04-04T15:06:48Z</time></trkpt><trkpt lat="43.17915927765219" lon="12.966869860816457"><ele>491.0</ele><time>2026-04-04T15:06:49Z</time></trkpt><trkpt lat="43.17919817746804" lon="12.966981443707837"><ele>483.6</ele><time>2026-04-04T15:06:50Z</time></trkpt><trkpt lat="43.17923476165572" lon="12.967110998495519"><ele>476.20000000000005</ele><time>2026-04-04T15:06:51Z</time></trkpt><trkpt lat="43.179264475177035" lon="12.967238987180075"><ele>468.79999999999995</ele><time>2026-04-04T15:06:52Z</time></trkpt><trkpt lat="43.17929343768798" lon="12.967380390072366"><ele>461.4</ele><time>2026-04-04T15:06:53Z</time></trkpt><trkpt lat="43.17931823054281" lon="12.967503686752954"><ele>454.0</ele><time>2026-04-04T15:06:54Z</time></trkpt><trkpt lat="43.17934109191432" lon="12.967636215147506"><ele>453.6</ele><time>2026-04-04T15:06:55Z</time></trkpt><trkpt lat="43.179358034036" lon="12.967765583855085"><ele>453.2</ele><time>2026-04-04T15:06:56Z</time></trkpt><trkpt lat="43.17936839036759" lon="12.967875087552613"><ele>452.80000000000007</ele><time>2026-04-04T15:06:57Z</time></trkpt><trkpt lat="43.17938090428785" lon="12.968015816168263"><ele>452.40000000000003</ele><time>2026-04-04T15:06:58Z</time></trkpt><trkpt lat="43.179386609915596" lon="12.968129252764497"><ele>452.0</ele><time>2026-04-04T15:06:59Z</time></trkpt><trkpt lat="43.17939090422223" lon="12.968255461917403"><ele>451.20000000000005</ele><time>2026-04-04T15:07:00Z</time></trkpt><trkpt lat="43.17939139264067" lon="12.968384694778516"><ele>450.40000000000003</ele><time>2026-04-04T15:07:00.999Z</time></trkpt><trkpt lat="43.17938736879962" lon="12.968503737410348"><ele>449.59999999999997</ele><time>2026-04-04T15:07:01.999Z</time></trkpt><trkpt lat="43.17937563021084" lon="12.968655841671074"><ele>448.79999999999995</ele><time>2026-04-04T15:07:02.999Z</time></trkpt><trkpt lat="43.179361262415" lon="12.968783718943076"><ele>448.0</ele><time>2026-04-04T15:07:03.999Z</time></trkpt><trkpt lat="43.17934333519973" lon="12.96892159259851"><ele>448.0</ele><time>2026-04-04T15:07:04.999Z</time></trkpt><trkpt lat="43.17932333263852" lon="12.969049287054835"><ele>447.99999999999994</ele><time>2026-04-04T15:07:05.999Z</time></trkpt><trkpt lat="43.17930201868124" lon="12.969196418020307"><ele>447.99999999999994</ele><time>2026-04-04T15:07:06.999Z</time></trkpt><trkpt lat="43.17928437923257" lon="12.96933014538131"><ele>448.0</ele><time>2026-04-04T15:07:07.999Z</time></trkpt><trkpt lat="43.17926682023194" lon="12.969465589120487"><ele>448.0</ele><time>2026-04-04T15:07:08.999Z</time></trkpt><trkpt lat="43.17925063315929" lon="12.96959045031839"><ele>448.2</ele><time>2026-04-04T15:07:09.999Z</time></trkpt><trkpt lat="43.17923603219787" lon="12.969713920944711"><ele>448.4</ele><time>2026-04-04T15:07:10.999Z</time></trkpt><trkpt lat="43.1792206263195" lon="12.969844082418804"><ele>448.59999999999997</ele><time>2026-04-04T15:07:11.999Z</time></trkpt><trkpt lat="43.179206208548585" lon="12.969976504717634"><ele>448.79999999999995</ele><time>2026-04-04T15:07:12.999Z</time></trkpt><trkpt lat="43.17919504162032" lon="12.970098297504938"><ele>449.0</ele><time>2026-04-04T15:07:13.999Z</time></trkpt><trkpt lat="43.17918403094134" lon="12.970240035324355"><ele>449.0</ele><time>2026-04-04T15:07:14.999Z</time></trkpt><trkpt lat="43.179182036851174" lon="12.97039949081175"><ele>449.0</ele><time>2026-04-04T15:07:15.999Z</time></trkpt><trkpt lat="43.17918761406248" lon="12.970532990414542"><ele>449.0</ele><time>2026-04-04T15:07:16.999Z</time></trkpt><trkpt lat="43.17919823756912" lon="12.97067645825193"><ele>449.0</ele><time>2026-04-04T15:07:17.999Z</time></trkpt><trkpt lat="43.17921159169426" lon="12.970824855633458"><ele>449.0</ele><time>2026-04-04T15:07:18.999Z</time></trkpt><trkpt lat="43.179227590972516" lon="12.970966362938066"><ele>450.2</ele><time>2026-04-04T15:07:19.999Z</time></trkpt><trkpt lat="43.179245909438954" lon="12.971108082964736"><ele>451.4</ele><time>2026-04-04T15:07:20.999Z</time></trkpt><trkpt lat="43.17927270451673" lon="12.971269309370559"><ele>452.6</ele><time>2026-04-04T15:07:21.999Z</time></trkpt><trkpt lat="43.179302476223896" lon="12.971408330485206"><ele>453.8</ele><time>2026-04-04T15:07:22.999Z</time></trkpt><trkpt lat="43.17933576534565" lon="12.97154605307326"><ele>455.0</ele><time>2026-04-04T15:07:24.001Z</time></trkpt><trkpt lat="43.17936938962912" lon="12.971676899391056"><ele>457.2</ele><time>2026-04-04T15:07:25.001Z</time></trkpt><trkpt lat="43.179404434473035" lon="12.971813273716577"><ele>459.4</ele><time>2026-04-04T15:07:26.001Z</time></trkpt><trkpt lat="43.17943802194133" lon="12.971944291498861"><ele>461.6</ele><time>2026-04-04T15:07:27.001Z</time></trkpt><trkpt lat="43.17946889813339" lon="12.972066580671502"><ele>463.8</ele><time>2026-04-04T15:07:28.001Z</time></trkpt><trkpt lat="43.17950103518163" lon="12.972193863629434"><ele>466.0</ele><time>2026-04-04T15:07:29.001Z</time></trkpt><trkpt lat="43.1795319628125" lon="12.972319697365508"><ele>466.0</ele><time>2026-04-04T15:07:30.001Z</time></trkpt><trkpt lat="43.17956120583554" lon="12.972444020660877"><ele>466.0</ele><time>2026-04-04T15:07:31.001Z</time></trkpt><trkpt lat="43.17958455056111" lon="12.972560905264281"><ele>466.0</ele><time>2026-04-04T15:07:32.001Z</time></trkpt><trkpt lat="43.17959898758167" lon="12.972667589326413"><ele>466.0</ele><time>2026-04-04T15:07:33.001Z</time></trkpt><trkpt lat="43.1796069750771" lon="12.972855010363276"><ele>466.0</ele><time>2026-04-04T15:07:35.001Z</time></trkpt><trkpt lat="43.17958746866529" lon="12.97295883591632"><ele>465.0</ele><time>2026-04-04T15:07:37.001Z</time></trkpt><trkpt lat="43.179576152754116" lon="12.973087837310239"><ele>464.0</ele><time>2026-04-04T15:07:39Z</time></trkpt><trkpt lat="43.179957336335185" lon="12.973308742606596"><ele>459.4</ele><time>2026-04-04T15:07:43Z</time></trkpt><trkpt lat="43.180058427874265" lon="12.973373505102213"><ele>454.79999999999995</ele><time>2026-04-04T15:07:45Z</time></trkpt><trkpt lat="43.1800601959543" lon="12.973595010530506"><ele>450.20000000000005</ele><time>2026-04-04T15:07:46Z</time></trkpt><trkpt lat="43.18013161382228" lon="12.973626811761754"><ele>445.6</ele><time>2026-04-04T15:07:48Z</time></trkpt><trkpt lat="43.1801838360019" lon="12.97357031602844"><ele>441.0</ele><time>2026-04-04T15:08:39Z</time></trkpt><trkpt lat="43.180242398071485" lon="12.973631585677442"><ele>441.0</ele><time>2026-04-04T15:09:40Z</time></trkpt><trkpt lat="43.180282023740176" lon="12.973704569297263"><ele>441.0</ele><time>2026-04-04T15:09:42Z</time></trkpt><trkpt lat="43.18035225130403" lon="12.973755156206828"><ele>441.0</ele><time>2026-04-04T15:09:44Z</time></trkpt><trkpt lat="43.18041170380148" lon="12.97379157172997"><ele>441.0</ele><time>2026-04-04T15:09:45Z</time></trkpt><trkpt lat="43.180482392964215" lon="12.973846740635647"><ele>441.0</ele><time>2026-04-04T15:09:46Z</time></trkpt><trkpt lat="43.180546659830725" lon="12.973938643000302"><ele>441.0</ele><time>2026-04-04T15:09:47Z</time></trkpt><trkpt lat="43.18063011083358" lon="12.974006215712684"><ele>441.1666666666667</ele><time>2026-04-04T15:09:48Z</time></trkpt><trkpt lat="43.180703999046976" lon="12.974045546957425"><ele>441.33333333333337</ele><time>2026-04-04T15:09:49Z</time></trkpt><trkpt lat="43.18076944366622" lon="12.974107020370278"><ele>441.5</ele><time>2026-04-04T15:09:50Z</time></trkpt><trkpt lat="43.18082868718679" lon="12.974156025696708"><ele>441.6666666666667</ele><time>2026-04-04T15:09:51Z</time></trkpt><trkpt lat="43.1809123465678" lon="12.974225086027948"><ele>441.83333333333337</ele><time>2026-04-04T15:09:53Z</time></trkpt><trkpt lat="43.18096657183456" lon="12.97428413316121"><ele>442.0</ele><time>2026-04-04T15:10:04Z</time></trkpt><trkpt lat="43.1810884398642" lon="12.974167179302206"><ele>442.00000000000006</ele><time>2026-04-04T15:10:07Z</time></trkpt><trkpt lat="43.18113667871269" lon="12.974098851066813"><ele>442.0</ele><time>2026-04-04T15:10:08Z</time></trkpt><trkpt lat="43.1811922162194" lon="12.974015446714757"><ele>442.0</ele><time>2026-04-04T15:10:09Z</time></trkpt><trkpt lat="43.18125112434029" lon="12.973935169450014"><ele>442.0</ele><time>2026-04-04T15:10:10Z</time></trkpt><trkpt lat="43.18133925021785" lon="12.973875609875"><ele>442.00000000000006</ele><time>2026-04-04T15:10:11Z</time></trkpt><trkpt lat="43.18140084906095" lon="12.973788162035623"><ele>442.0</ele><time>2026-04-04T15:10:12Z</time></trkpt><trkpt lat="43.18145366721225" lon="12.973702233733945"><ele>442.00000000000006</ele><time>2026-04-04T15:10:13Z</time></trkpt><trkpt lat="43.181499041072456" lon="12.973616500850715"><ele>442.0</ele><time>2026-04-04T15:10:14Z</time></trkpt><trkpt lat="43.18153695633442" lon="12.973534276368458"><ele>442.0</ele><time>2026-04-04T15:10:15Z</time></trkpt><trkpt lat="43.181595994096504" lon="12.97350405064685"><ele>442.0</ele><time>2026-04-04T15:10:16Z</time></trkpt><trkpt lat="43.18172222677462" lon="12.973569541444778"><ele>442.00000000000006</ele><time>2026-04-04T15:10:18Z</time></trkpt><trkpt lat="43.18177793883711" lon="12.973625910806769"><ele>442.0</ele><time>2026-04-04T15:10:19Z</time></trkpt><trkpt lat="43.18178488923368" lon="12.973737731799647"><ele>443.0</ele><time>2026-04-04T15:10:20Z</time></trkpt><trkpt lat="43.18179169032707" lon="12.973829759380282"><ele>444.0</ele><time>2026-04-04T15:10:21Z</time></trkpt><trkpt lat="43.18179866116622" lon="12.973926124839542"><ele>445.0</ele><time>2026-04-04T15:10:22Z</time></trkpt><trkpt lat="43.1818119914996" lon="12.97402329244962"><ele>446.0</ele><time>2026-04-04T15:10:23Z</time></trkpt><trkpt lat="43.18182721257512" lon="12.974119541013454"><ele>446.99999999999994</ele><time>2026-04-04T15:10:24Z</time></trkpt><trkpt lat="43.18184776201466" lon="12.974211946461471"><ele>448.0</ele><time>2026-04-04T15:10:25Z</time></trkpt><trkpt lat="43.18185836967321" lon="12.97430020015369"><ele>449.0</ele><time>2026-04-04T15:10:26Z</time></trkpt><trkpt lat="43.18187890439423" lon="12.974436481640286"><ele>450.2</ele><time>2026-04-04T15:10:28Z</time></trkpt><trkpt lat="43.18193169597397" lon="12.974503713918427"><ele>451.4</ele><time>2026-04-04T15:10:30Z</time></trkpt><trkpt lat="43.18212707583302" lon="12.9744740207242"><ele>452.6</ele><time>2026-04-04T15:10:31Z</time></trkpt><trkpt lat="43.18216740182114" lon="12.974555208784112"><ele>453.8</ele><time>2026-04-04T15:10:34Z</time></trkpt><trkpt lat="43.18220605773243" lon="12.9746519918562"><ele>455.0</ele><time>2026-04-04T15:24:13.999Z</time></trkpt><trkpt lat="43.18223972219324" lon="12.974763178229239"><ele>454.99999999999994</ele><time>2026-04-04T15:24:15.999Z</time></trkpt><trkpt lat="43.18225490921596" lon="12.974881478001834"><ele>455.0</ele><time>2026-04-04T15:24:17.999Z</time></trkpt><trkpt lat="43.18226800095014" lon="12.975013884381383"><ele>455.0</ele><time>2026-04-04T15:24:19.999Z</time></trkpt><trkpt lat="43.1822591327572" lon="12.975130098872238"><ele>455.0</ele><time>2026-04-04T15:24:21.999Z</time></trkpt><trkpt lat="43.18220491726071" lon="12.975219198786593"><ele>454.99999999999994</ele><time>2026-04-04T15:24:23.999Z</time></trkpt><trkpt lat="43.18212568577737" lon="12.975203980416104"><ele>455.0</ele><time>2026-04-04T15:24:25.999Z</time></trkpt><trkpt lat="43.182036899650704" lon="12.975177095147517"><ele>457.99999999999994</ele><time>2026-04-04T15:24:27.999Z</time></trkpt><trkpt lat="43.18197307913475" lon="12.975149265745385"><ele>461.0</ele><time>2026-04-04T15:24:29.999Z</time></trkpt><trkpt lat="43.18192057838405" lon="12.975207328400225"><ele>464.0</ele><time>2026-04-04T15:24:31.999Z</time></trkpt><trkpt lat="43.181884803015" lon="12.975307662478732"><ele>467.0</ele><time>2026-04-04T15:24:33.999Z</time></trkpt><trkpt lat="43.18183144618451" lon="12.975404004389851"><ele>469.99999999999994</ele><time>2026-04-04T15:24:35.999Z</time></trkpt><trkpt lat="43.18181719884141" lon="12.975523024983858"><ele>473.0</ele><time>2026-04-04T15:24:37.999Z</time></trkpt><trkpt lat="43.181908446153976" lon="12.975619872088865"><ele>472.99999999999994</ele><time>2026-04-04T15:24:39.999Z</time></trkpt><trkpt lat="43.18197688949108" lon="12.975661675337214"><ele>473.0</ele><time>2026-04-04T15:24:40.999Z</time></trkpt><trkpt lat="43.18205613726096" lon="12.975703185965823"><ele>473.0</ele><time>2026-04-04T15:24:41.999Z</time></trkpt><trkpt lat="43.18213947258485" lon="12.975758619806804"><ele>473.0</ele><time>2026-04-04T15:24:42.999Z</time></trkpt><trkpt lat="43.182220179606674" lon="12.97581715199613"><ele>472.99999999999994</ele><time>2026-04-04T15:24:43.999Z</time></trkpt><trkpt lat="43.182311036139325" lon="12.975875378777339"><ele>473.0</ele><time>2026-04-04T15:24:44.999Z</time></trkpt><trkpt lat="43.18240555216951" lon="12.975928899285655"><ele>473.8333333333333</ele><time>2026-04-04T15:24:45.999Z</time></trkpt><trkpt lat="43.18249620938678" lon="12.97594292037429"><ele>474.66666666666663</ele><time>2026-04-04T15:24:46.999Z</time></trkpt><trkpt lat="43.18258859596276" lon="12.975959038866952"><ele>475.5</ele><time>2026-04-04T15:24:47.999Z</time></trkpt><trkpt lat="43.182669662887584" lon="12.975973182450659"><ele>476.33333333333337</ele><time>2026-04-04T15:24:48.999Z</time></trkpt><trkpt lat="43.18272595816045" lon="12.975891708095565"><ele>477.1666666666667</ele><time>2026-04-04T15:24:49.999Z</time></trkpt><trkpt lat="43.18276882548215" lon="12.975799724575783"><ele>478.0</ele><time>2026-04-04T15:24:50.999Z</time></trkpt><trkpt lat="43.18280526958212" lon="12.975727550376071"><ele>518.0</ele><time>2026-04-04T15:24:51.999Z</time></trkpt><trkpt lat="43.18316601830554" lon="12.976221186050706"><ele>518.6</ele><time>2026-04-04T15:24:53.999Z</time></trkpt><trkpt lat="43.18326469971007" lon="12.976263830858162"><ele>519.1999999999999</ele><time>2026-04-04T15:24:54.999Z</time></trkpt><trkpt lat="43.18337537001256" lon="12.976307092082711"><ele>519.8</ele><time>2026-04-04T15:24:55.999Z</time></trkpt><trkpt lat="43.18348248757337" lon="12.976323677167224"><ele>520.4</ele><time>2026-04-04T15:24:56.999Z</time></trkpt><trkpt lat="43.18359464760938" lon="12.976340719051874"><ele>521.0</ele><time>2026-04-04T15:24:57.999Z</time></trkpt><trkpt lat="43.183701341511785" lon="12.976360426857578"><ele>521.0</ele><time>2026-04-04T15:24:58.999Z</time></trkpt><trkpt lat="43.18380598566527" lon="12.976366213879075"><ele>521.0</ele><time>2026-04-04T15:24:59.999Z</time></trkpt><trkpt lat="43.18391202860668" lon="12.976362825457233"><ele>521.0</ele><time>2026-04-04T15:25:00.999Z</time></trkpt><trkpt lat="43.18401771419267" lon="12.976346399141022"><ele>521.0</ele><time>2026-04-04T15:25:01.999Z</time></trkpt><trkpt lat="43.184115171158936" lon="12.976344247281837"><ele>521.0</ele><time>2026-04-04T15:25:02.999Z</time></trkpt><trkpt lat="43.18420851641472" lon="12.976349049671594"><ele>522.8</ele><time>2026-04-04T15:25:03.999Z</time></trkpt><trkpt lat="43.18429876926543" lon="12.976351583575505"><ele>524.6</ele><time>2026-04-04T15:25:04.999Z</time></trkpt><trkpt lat="43.18436967227653" lon="12.976358091402474"><ele>526.4</ele><time>2026-04-04T15:25:05.999Z</time></trkpt><trkpt lat="43.184471308338416" lon="12.976322092411493"><ele>528.2</ele><time>2026-04-04T15:25:07.999Z</time></trkpt><trkpt lat="43.18457763290888" lon="12.976306335678215"><ele>530.0</ele><time>2026-04-04T15:25:09.999Z</time></trkpt><trkpt lat="43.184683996980354" lon="12.976322636393322"><ele>530.0</ele><time>2026-04-04T15:25:11.999Z</time></trkpt><trkpt lat="43.18480881892732" lon="12.976256218953038"><ele>530.0</ele><time>2026-04-04T15:25:13.999Z</time></trkpt><trkpt lat="43.18486653349372" lon="12.976220933444976"><ele>530.0</ele><time>2026-04-04T15:25:14.999Z</time></trkpt><trkpt lat="43.18496629459454" lon="12.976146693140004"><ele>530.0</ele><time>2026-04-04T15:25:16.999Z</time></trkpt><trkpt lat="43.18502399711241" lon="12.976109199005185"><ele>530.0</ele><time>2026-04-04T15:25:17.999Z</time></trkpt><trkpt lat="43.185085250417" lon="12.976069303694826"><ele>530.0</ele><time>2026-04-04T15:25:18.999Z</time></trkpt><trkpt lat="43.18518383418347" lon="12.976007247912364"><ele>532.4</ele><time>2026-04-04T15:25:20.999Z</time></trkpt><trkpt lat="43.18528731276221" lon="12.975934307070466"><ele>534.8</ele><time>2026-04-04T15:25:22.999Z</time></trkpt><trkpt lat="43.18538068316605" lon="12.975887651177406"><ele>537.2</ele><time>2026-04-04T15:25:24.999Z</time></trkpt><trkpt lat="43.1854977793783" lon="12.975852070782569"><ele>539.6</ele><time>2026-04-04T15:25:26.999Z</time></trkpt><trkpt lat="43.185568763022516" lon="12.97583624356711"><ele>542.0</ele><time>2026-04-04T15:25:27.999Z</time></trkpt><trkpt lat="43.18564213598122" lon="12.975834327341493"><ele>547.0</ele><time>2026-04-04T15:25:28.999Z</time></trkpt><trkpt lat="43.18572434366358" lon="12.975826936743328"><ele>552.0</ele><time>2026-04-04T15:25:29.999Z</time></trkpt><trkpt lat="43.185817577403476" lon="12.9757536096149"><ele>557.0</ele><time>2026-04-04T15:25:31.999Z</time></trkpt><trkpt lat="43.1859565697945" lon="12.9757098189064"><ele>562.0</ele><time>2026-04-04T15:25:33.999Z</time></trkpt><trkpt lat="43.18603555176652" lon="12.975653249757078"><ele>567.0</ele><time>2026-04-04T15:25:34.999Z</time></trkpt><trkpt lat="43.186108469370446" lon="12.975623101942386"><ele>567.0</ele><time>2026-04-04T15:25:35.999Z</time></trkpt><trkpt lat="43.186172021841585" lon="12.975595626939217"><ele>567.0</ele><time>2026-04-04T15:25:36.999Z</time></trkpt><trkpt lat="43.18624762078041" lon="12.97559884553636"><ele>567.0</ele><time>2026-04-04T15:25:37.999Z</time></trkpt><trkpt lat="43.18631243300652" lon="12.975577807717297"><ele>567.0</ele><time>2026-04-04T15:25:38.999Z</time></trkpt><trkpt lat="43.186374758515" lon="12.975539853751993"><ele>567.0</ele><time>2026-04-04T15:25:39.999Z</time></trkpt><trkpt lat="43.186461875782996" lon="12.97551623670369"><ele>567.0</ele><time>2026-04-04T15:25:40.999Z</time></trkpt><trkpt lat="43.18653901347333" lon="12.975478408574121"><ele>567.0</ele><time>2026-04-04T15:25:41.999Z</time></trkpt><trkpt lat="43.18659532711881" lon="12.975414624062019"><ele>570.6666666666666</ele><time>2026-04-04T15:25:42.999Z</time></trkpt><trkpt lat="43.18665528605466" lon="12.97536049061143"><ele>574.3333333333334</ele><time>2026-04-04T15:25:43.999Z</time></trkpt><trkpt lat="43.18677368216816" lon="12.975281738286291"><ele>578.0</ele><time>2026-04-04T15:25:45.999Z</time></trkpt><trkpt lat="43.18685748999447" lon="12.975258912287481"><ele>581.6666666666667</ele><time>2026-04-04T15:25:46.999Z</time></trkpt><trkpt lat="43.18693468788587" lon="12.975240098630735"><ele>585.3333333333334</ele><time>2026-04-04T15:25:47.999Z</time></trkpt><trkpt lat="43.18699879065317" lon="12.975202056460512"><ele>589.0</ele><time>2026-04-04T15:25:48.999Z</time></trkpt><trkpt lat="43.18706583521954" lon="12.97517152669757"><ele>589.0</ele><time>2026-04-04T15:25:49.999Z</time></trkpt><trkpt lat="43.18713286865722" lon="12.975127062873234"><ele>589.0</ele><time>2026-04-04T15:25:50.999Z</time></trkpt><trkpt lat="43.18718812406529" lon="12.975068174999285"><ele>589.0</ele><time>2026-04-04T15:25:51.999Z</time></trkpt><trkpt lat="43.18723567419367" lon="12.974995772382693"><ele>589.0</ele><time>2026-04-04T15:25:52.999Z</time></trkpt><trkpt lat="43.1873168235963" lon="12.974989672668295"><ele>589.0</ele><time>2026-04-04T15:25:53.999Z</time></trkpt><trkpt lat="43.18737420663342" lon="12.974927910853026"><ele>589.0</ele><time>2026-04-04T15:25:54.999Z</time></trkpt><trkpt lat="43.187434643943384" lon="12.974866880567049"><ele>589.0</ele><time>2026-04-04T15:25:55.999Z</time></trkpt><trkpt lat="43.187493006074966" lon="12.974827824278474"><ele>592.6666666666667</ele><time>2026-04-04T15:25:56.999Z</time></trkpt><trkpt lat="43.1875814324872" lon="12.974781837425809"><ele>596.3333333333334</ele><time>2026-04-04T15:25:57.999Z</time></trkpt><trkpt lat="43.18765854690637" lon="12.974806071910661"><ele>600.0</ele><time>2026-04-04T15:25:58.999Z</time></trkpt><trkpt lat="43.18776622950617" lon="12.974783185805238"><ele>603.6666666666666</ele><time>2026-04-04T15:26:00.999Z</time></trkpt><trkpt lat="43.18784160663557" lon="12.974788024656329"><ele>607.3333333333333</ele><time>2026-04-04T15:26:01.999Z</time></trkpt><trkpt lat="43.187928367096546" lon="12.97479205401378"><ele>611.0</ele><time>2026-04-04T15:26:02.999Z</time></trkpt><trkpt lat="43.18801321765957" lon="12.974770020737253"><ele>611.0</ele><time>2026-04-04T15:26:03.999Z</time></trkpt><trkpt lat="43.18809159148574" lon="12.97474585248157"><ele>611.0</ele><time>2026-04-04T15:26:04.999Z</time></trkpt><trkpt lat="43.188182175453754" lon="12.974724473911035"><ele>611.0</ele><time>2026-04-04T15:26:05.999Z</time></trkpt><trkpt lat="43.188269984715824" lon="12.97471224768809"><ele>611.0</ele><time>2026-04-04T15:26:06.999Z</time></trkpt><trkpt lat="43.188356029278985" lon="12.974716347790938"><ele>611.0</ele><time>2026-04-04T15:26:07.999Z</time></trkpt><trkpt lat="43.18844594765968" lon="12.974722659270206"><ele>611.0</ele><time>2026-04-04T15:26:08.999Z</time></trkpt><trkpt lat="43.18852999472612" lon="12.974709395653699"><ele>615.3333333333333</ele><time>2026-04-04T15:26:09.999Z</time></trkpt><trkpt lat="43.18861011530894" lon="12.97470830562038"><ele>619.6666666666666</ele><time>2026-04-04T15:26:10.999Z</time></trkpt><trkpt lat="43.1886873560248" lon="12.974745458989997"><ele>624.0</ele><time>2026-04-04T15:26:11.999Z</time></trkpt><trkpt lat="43.1887595124957" lon="12.974796582086425"><ele>628.3333333333334</ele><time>2026-04-04T15:26:12.998Z</time></trkpt><trkpt lat="43.188829846260084" lon="12.97478857794473"><ele>632.6666666666667</ele><time>2026-04-04T15:26:13.998Z</time></trkpt><trkpt lat="43.18890751575663" lon="12.974759357285862"><ele>637.0</ele><time>2026-04-04T15:26:14.998Z</time></trkpt><trkpt lat="43.18899463168768" lon="12.974753494060929"><ele>641.1666666666667</ele><time>2026-04-04T15:26:15.998Z</time></trkpt><trkpt lat="43.18907743143075" lon="12.974745313917468"><ele>645.3333333333334</ele><time>2026-04-04T15:26:17Z</time></trkpt><trkpt lat="43.1891627439286" lon="12.974754023854942"><ele>649.5</ele><time>2026-04-04T15:26:18Z</time></trkpt><trkpt lat="43.18924292916775" lon="12.97475269460023"><ele>653.6666666666666</ele><time>2026-04-04T15:26:19Z</time></trkpt><trkpt lat="43.1893194511952" lon="12.974732493392155"><ele>657.8333333333333</ele><time>2026-04-04T15:26:20Z</time></trkpt><trkpt lat="43.18939603520538" lon="12.974712897798819"><ele>662.0</ele><time>2026-04-04T15:26:21Z</time></trkpt><trkpt lat="43.18951759371999" lon="12.974754850908562"><ele>662.0</ele><time>2026-04-04T15:26:23Z</time></trkpt><trkpt lat="43.189616636724395" lon="12.974743027557999"><ele>662.0</ele><time>2026-04-04T15:26:25Z</time></trkpt><trkpt lat="43.18969206695691" lon="12.974617776039429"><ele>662.0</ele><time>2026-04-04T15:26:27Z</time></trkpt><trkpt lat="43.189761132460006" lon="12.974544364649857"><ele>662.0</ele><time>2026-04-04T15:26:29Z</time></trkpt><trkpt lat="43.18982883938688" lon="12.974456782975361"><ele>662.0</ele><time>2026-04-04T15:26:31Z</time></trkpt><trkpt lat="43.18990313201099" lon="12.974445214960978"><ele>667.1666666666666</ele><time>2026-04-04T15:27:10.999Z</time></trkpt><trkpt lat="43.19000344052381" lon="12.974433421775785"><ele>672.3333333333333</ele><time>2026-04-04T15:27:12.999Z</time></trkpt><trkpt lat="43.1900730889058" lon="12.974445757029185"><ele>677.5</ele><time>2026-04-04T15:27:13.999Z</time></trkpt><trkpt lat="43.19014347483832" lon="12.974475284592286"><ele>682.6666666666666</ele><time>2026-04-04T15:27:14.999Z</time></trkpt><trkpt lat="43.19021232920933" lon="12.974504721038228"><ele>687.8333333333334</ele><time>2026-04-04T15:27:15.999Z</time></trkpt><trkpt lat="43.19028045966199" lon="12.97452706613327"><ele>693.0</ele><time>2026-04-04T15:27:16.999Z</time></trkpt><trkpt lat="43.190347947271604" lon="12.974525457680611"><ele>693.0</ele><time>2026-04-04T15:27:17.999Z</time></trkpt><trkpt lat="43.19042061715835" lon="12.974499733461606"><ele>693.0</ele><time>2026-04-04T15:27:18.999Z</time></trkpt><trkpt lat="43.1904972283846" lon="12.974455049952546"><ele>693.0</ele><time>2026-04-04T15:27:19.999Z</time></trkpt><trkpt lat="43.190571645984605" lon="12.974413168594745"><ele>693.0</ele><time>2026-04-04T15:27:20.999Z</time></trkpt><trkpt lat="43.190647115904255" lon="12.974406675168535"><ele>693.0</ele><time>2026-04-04T15:27:21.999Z</time></trkpt><trkpt lat="43.190710283726396" lon="12.9743851573719"><ele>693.0</ele><time>2026-04-04T15:27:22.999Z</time></trkpt><trkpt lat="43.19076977989723" lon="12.974351963218453"><ele>693.0</ele><time>2026-04-04T15:27:23.999Z</time></trkpt><trkpt lat="43.19088176496095" lon="12.974412533253666"><ele>700.5</ele><time>2026-04-04T15:27:25.999Z</time></trkpt><trkpt lat="43.19096579235775" lon="12.974509011942352"><ele>708.0</ele><time>2026-04-04T15:27:27.999Z</time></trkpt><trkpt lat="43.191025048131394" lon="12.974366270694414"><ele>715.5</ele><time>2026-04-04T15:27:29.999Z</time></trkpt><trkpt lat="43.191083686121324" lon="12.974257879373992"><ele>723.0</ele><time>2026-04-04T15:27:31.999Z</time></trkpt><trkpt lat="43.1911594860097" lon="12.974119501816013"><ele>723.0</ele><time>2026-04-04T15:27:33.999Z</time></trkpt><trkpt lat="43.19126181923438" lon="12.974091021074774"><ele>723.0</ele><time>2026-04-04T15:27:36.999Z</time></trkpt><trkpt lat="43.191280029931285" lon="12.973947313353221"><ele>723.0</ele><time>2026-04-04T15:27:38.999Z</time></trkpt><trkpt lat="43.191314112822035" lon="12.973780543778327"><ele>723.0</ele><time>2026-04-04T15:27:40.999Z</time></trkpt><trkpt lat="43.19136461705332" lon="12.9736787258631"><ele>723.0</ele><time>2026-04-04T15:27:42.999Z</time></trkpt><trkpt lat="43.19138974966307" lon="12.973553314839517"><ele>723.0</ele><time>2026-04-04T15:27:44.999Z</time></trkpt><trkpt lat="43.19145391310802" lon="12.973439888057413"><ele>723.0</ele><time>2026-04-04T15:27:46.999Z</time></trkpt><trkpt lat="43.19150767158667" lon="12.97336042827591"><ele>723.0</ele><time>2026-04-04T15:27:47.999Z</time></trkpt><trkpt lat="43.191543834819406" lon="12.97327850647006"><ele>723.0</ele><time>2026-04-04T15:27:48.999Z</time></trkpt><trkpt lat="43.19171151187907" lon="12.97332282134034"><ele>723.0</ele><time>2026-04-04T15:27:49.999Z</time></trkpt><trkpt lat="43.19179241091657" lon="12.973382854773783"><ele>726.8333333333334</ele><time>2026-04-04T15:27:51.999Z</time></trkpt><trkpt lat="43.19176908805247" lon="12.97348592638663"><ele>730.6666666666666</ele><time>2026-04-04T15:27:53.999Z</time></trkpt><trkpt lat="43.19183694030529" lon="12.973493106407496"><ele>734.5</ele><time>2026-04-04T15:27:55.999Z</time></trkpt><trkpt lat="43.19193895985318" lon="12.973454661901105"><ele>738.3333333333333</ele><time>2026-04-04T15:27:57.999Z</time></trkpt><trkpt lat="43.19201172551731" lon="12.973401482714968"><ele>742.1666666666666</ele><time>2026-04-04T15:28:00.999Z</time></trkpt><trkpt lat="43.19207911638468" lon="12.97331970869121"><ele>746.0</ele><time>2026-04-04T15:28:02.999Z</time></trkpt><trkpt lat="43.19214142560133" lon="12.973265009681128"><ele>748.5</ele><time>2026-04-04T15:28:04.999Z</time></trkpt><trkpt lat="43.192213449290634" lon="12.973326958867789"><ele>751.0</ele><time>2026-04-04T15:28:54.999Z</time></trkpt><trkpt lat="43.19228572690069" lon="12.97333827880406"><ele>753.5</ele><time>2026-04-04T15:29:27.999Z</time></trkpt><trkpt lat="43.19235772370082" lon="12.973325116939202"><ele>756.0</ele><time>2026-04-04T15:29:31.999Z</time></trkpt><trkpt lat="43.192431488633865" lon="12.973241134705177"><ele>758.5</ele><time>2026-04-04T15:29:34.999Z</time></trkpt><trkpt lat="43.19243247886757" lon="12.973116126801203"><ele>761.0</ele><time>2026-04-04T15:29:36.999Z</time></trkpt><trkpt lat="43.19247557485534" lon="12.972989467304727"><ele>763.8333333333333</ele><time>2026-04-04T15:29:38.999Z</time></trkpt><trkpt lat="43.19255057912835" lon="12.972909671728468"><ele>766.6666666666666</ele><time>2026-04-04T15:29:40.999Z</time></trkpt><trkpt lat="43.192611733427306" lon="12.972801311038305"><ele>769.5</ele><time>2026-04-04T15:29:42.999Z</time></trkpt><trkpt lat="43.19269621349271" lon="12.972786963988494"><ele>772.3333333333333</ele><time>2026-04-04T15:29:44.999Z</time></trkpt><trkpt lat="43.19276493407429" lon="12.97277261098006"><ele>775.1666666666666</ele><time>2026-04-04T15:29:45.999Z</time></trkpt><trkpt lat="43.19281837578948" lon="12.972716407986209"><ele>778.0</ele><time>2026-04-04T15:29:46.999Z</time></trkpt><trkpt lat="43.19285328280715" lon="12.97263810642757"><ele>778.0</ele><time>2026-04-04T15:29:47.999Z</time></trkpt><trkpt lat="43.19288396603804" lon="12.97255820710871"><ele>778.0</ele><time>2026-04-04T15:29:48.999Z</time></trkpt><trkpt lat="43.192943574050354" lon="12.972508011273748"><ele>778.0</ele><time>2026-04-04T15:29:49.999Z</time></trkpt><trkpt lat="43.193008237100194" lon="12.972461471261294"><ele>778.0</ele><time>2026-04-04T15:29:50.999Z</time></trkpt><trkpt lat="43.19306490583372" lon="12.972418903831802"><ele>778.0</ele><time>2026-04-04T15:29:51.999Z</time></trkpt><trkpt lat="43.19314552787379" lon="12.97232087197372"><ele>778.0</ele><time>2026-04-04T15:29:53.999Z</time></trkpt><trkpt lat="43.19318936816152" lon="12.972253424734284"><ele>778.0</ele><time>2026-04-04T15:29:54.999Z</time></trkpt><trkpt lat="43.19326391369206" lon="12.972192425677818"><ele>782.3333333333333</ele><time>2026-04-04T15:29:56.999Z</time></trkpt><trkpt lat="43.19335837903054" lon="12.97211423397623"><ele>786.6666666666666</ele><time>2026-04-04T15:29:58.999Z</time></trkpt><trkpt lat="43.193422592502586" lon="12.972069614630868"><ele>791.0</ele><time>2026-04-04T15:29:59.999Z</time></trkpt><trkpt lat="43.193482535176216" lon="12.97203396915304"><ele>795.3333333333333</ele><time>2026-04-04T15:30:00.999Z</time></trkpt><trkpt lat="43.19355080220128" lon="12.971974488195634"><ele>799.6666666666666</ele><time>2026-04-04T15:30:01.999Z</time></trkpt><trkpt lat="43.19361228880802" lon="12.971907759922539"><ele>804.0</ele><time>2026-04-04T15:30:02.999Z</time></trkpt><trkpt lat="43.19367306580849" lon="12.97186511360859"><ele>804.0</ele><time>2026-04-04T15:30:03.999Z</time></trkpt><trkpt lat="43.19378279836547" lon="12.971779285192794"><ele>804.0</ele><time>2026-04-04T15:30:05.999Z</time></trkpt><trkpt lat="43.193860050753536" lon="12.971743715398812"><ele>804.0</ele><time>2026-04-04T15:30:06.999Z</time></trkpt><trkpt lat="43.193927735263586" lon="12.971710896147856"><ele>804.0</ele><time>2026-04-04T15:30:07.999Z</time></trkpt><trkpt lat="43.19399027793352" lon="12.971678567719634"><ele>804.0</ele><time>2026-04-04T15:30:08.999Z</time></trkpt><trkpt lat="43.19407384784206" lon="12.971633411780424"><ele>804.0</ele><time>2026-04-04T15:30:10.999Z</time></trkpt><trkpt lat="43.19418239107556" lon="12.97160641612079"><ele>810.0</ele><time>2026-04-04T15:30:12.999Z</time></trkpt><trkpt lat="43.19428500802693" lon="12.971585712861481"><ele>816.0</ele><time>2026-04-04T15:30:14.999Z</time></trkpt><trkpt lat="43.19430290508249" lon="12.971674213389443"><ele>822.0</ele><time>2026-04-04T15:30:17.999Z</time></trkpt><trkpt lat="43.194253408699105" lon="12.971825554874567"><ele>828.0</ele><time>2026-04-04T15:30:37.999Z</time></trkpt><trkpt lat="43.19421520228771" lon="12.971919038642834"><ele>834.0</ele><time>2026-04-04T15:30:38.999Z</time></trkpt><trkpt lat="43.194167719110176" lon="12.97201777815831"><ele>835.4000000000001</ele><time>2026-04-04T15:30:39.999Z</time></trkpt><trkpt lat="43.194108120899955" lon="12.972134325468414"><ele>836.8</ele><time>2026-04-04T15:30:40.999Z</time></trkpt><trkpt lat="43.19405160244642" lon="12.97226361609932"><ele>838.2</ele><time>2026-04-04T15:30:41.999Z</time></trkpt><trkpt lat="43.19400036098881" lon="12.972389604212468"><ele>839.5999999999999</ele><time>2026-04-04T15:30:42.999Z</time></trkpt><trkpt lat="43.193917981217176" lon="12.972507128376888"><ele>841.0</ele><time>2026-04-04T15:30:43.999Z</time></trkpt><trkpt lat="43.193846894214545" lon="12.97263949876901"><ele>834.5</ele><time>2026-04-04T15:30:44.999Z</time></trkpt><trkpt lat="43.193769729917044" lon="12.97279425713743"><ele>828.0</ele><time>2026-04-04T15:30:45.999Z</time></trkpt><trkpt lat="43.19369857861114" lon="12.972936318023388"><ele>821.5</ele><time>2026-04-04T15:30:46.999Z</time></trkpt><trkpt lat="43.193603317799464" lon="12.973080549990984"><ele>815.0</ele><time>2026-04-04T15:30:47.999Z</time></trkpt><trkpt lat="43.193514523953866" lon="12.973224930817434"><ele>820.5</ele><time>2026-04-04T15:30:48.999Z</time></trkpt><trkpt lat="43.19342662459063" lon="12.973386265840334"><ele>826.0</ele><time>2026-04-04T15:30:49.999Z</time></trkpt><trkpt lat="43.19333924876308" lon="12.973523343391292"><ele>831.5</ele><time>2026-04-04T15:30:50.999Z</time></trkpt><trkpt lat="43.19321771549034" lon="12.97363108339949"><ele>837.0</ele><time>2026-04-04T15:30:51.999Z</time></trkpt><trkpt lat="43.19308745503482" lon="12.973734746538517"><ele>827.6666666666667</ele><time>2026-04-04T15:30:52.999Z</time></trkpt><trkpt lat="43.192957072064665" lon="12.973866222937518"><ele>818.3333333333334</ele><time>2026-04-04T15:30:53.999Z</time></trkpt><trkpt lat="43.19284267633239" lon="12.97401971762583"><ele>809.0</ele><time>2026-04-04T15:30:54.999Z</time></trkpt><trkpt lat="43.19274894445377" lon="12.974202575405734"><ele>809.0</ele><time>2026-04-04T15:30:55.999Z</time></trkpt><trkpt lat="43.192669577421995" lon="12.9743798716228"><ele>809.0</ele><time>2026-04-04T15:30:56.999Z</time></trkpt><trkpt lat="43.192592434584206" lon="12.97454333355287"><ele>809.0</ele><time>2026-04-04T15:30:57.999Z</time></trkpt><trkpt lat="43.19250944605235" lon="12.974696626880323"><ele>809.0</ele><time>2026-04-04T15:30:58.999Z</time></trkpt><trkpt lat="43.192435298282085" lon="12.974844146772826"><ele>809.0</ele><time>2026-04-04T15:30:59.999Z</time></trkpt><trkpt lat="43.19237447669726" lon="12.975011126170326"><ele>809.0</ele><time>2026-04-04T15:31:00.999Z</time></trkpt><trkpt lat="43.19231003410542" lon="12.9751893223552"><ele>809.0</ele><time>2026-04-04T15:31:01.999Z</time></trkpt><trkpt lat="43.192245096932616" lon="12.97534722902216"><ele>809.0</ele><time>2026-04-04T15:31:02.999Z</time></trkpt><trkpt lat="43.192175262260264" lon="12.975506621992977"><ele>808.0</ele><time>2026-04-04T15:31:03.999Z</time></trkpt><trkpt lat="43.19207799952171" lon="12.975655905082652"><ele>807.0</ele><time>2026-04-04T15:31:04.999Z</time></trkpt><trkpt lat="43.191995238927134" lon="12.975811810780272"><ele>806.0</ele><time>2026-04-04T15:31:05.999Z</time></trkpt><trkpt lat="43.191924145265915" lon="12.97595800418804"><ele>805.0</ele><time>2026-04-04T15:31:06.999Z</time></trkpt><trkpt lat="43.19184516762257" lon="12.976095175394263"><ele>805.0</ele><time>2026-04-04T15:31:07.999Z</time></trkpt><trkpt lat="43.19174597274939" lon="12.976206827023665"><ele>805.0</ele><time>2026-04-04T15:31:08.999Z</time></trkpt><trkpt lat="43.19164173541786" lon="12.976293695873093"><ele>805.0</ele><time>2026-04-04T15:31:09.999Z</time></trkpt><trkpt lat="43.19154025957124" lon="12.976361494714842"><ele>805.0</ele><time>2026-04-04T15:31:10.999Z</time></trkpt><trkpt lat="43.191465879681104" lon="12.976445796374197"><ele>804.25</ele><time>2026-04-04T15:31:11.999Z</time></trkpt><trkpt lat="43.1914047741778" lon="12.976581112028818"><ele>803.5</ele><time>2026-04-04T15:31:12.999Z</time></trkpt><trkpt lat="43.19134710319368" lon="12.976727337575351"><ele>802.75</ele><time>2026-04-04T15:31:13.999Z</time></trkpt><trkpt lat="43.1912704704831" lon="12.976849104257289"><ele>802.0</ele><time>2026-04-04T15:31:14.999Z</time></trkpt><trkpt lat="43.19116505319139" lon="12.976927575862172"><ele>802.0</ele><time>2026-04-04T15:31:15.999Z</time></trkpt><trkpt lat="43.191043804530295" lon="12.97699290385708"><ele>802.0</ele><time>2026-04-04T15:31:16.999Z</time></trkpt><trkpt lat="43.190905019931485" lon="12.977044201994342"><ele>802.0</ele><time>2026-04-04T15:31:17.999Z</time></trkpt><trkpt lat="43.19076934691604" lon="12.977104388410236"><ele>802.0</ele><time>2026-04-04T15:31:18.999Z</time></trkpt><trkpt lat="43.19063912759408" lon="12.977181732313596"><ele>799.5</ele><time>2026-04-04T15:31:19.999Z</time></trkpt><trkpt lat="43.190511691528116" lon="12.977272010618384"><ele>797.0</ele><time>2026-04-04T15:31:20.999Z</time></trkpt><trkpt lat="43.19038868462382" lon="12.977381277604929"><ele>794.5</ele><time>2026-04-04T15:31:21.999Z</time></trkpt><trkpt lat="43.19026805637228" lon="12.977509926749661"><ele>792.0</ele><time>2026-04-04T15:31:22.999Z</time></trkpt><trkpt lat="43.19014512616274" lon="12.9776506237166"><ele>792.0</ele><time>2026-04-04T15:31:23.999Z</time></trkpt><trkpt lat="43.19002091878997" lon="12.977795191695488"><ele>792.0</ele><time>2026-04-04T15:31:24.999Z</time></trkpt><trkpt lat="43.18989641167863" lon="12.977940133945193"><ele>792.0</ele><time>2026-04-04T15:31:25.999Z</time></trkpt><trkpt lat="43.18977542060984" lon="12.978081255052237"><ele>789.6666666666667</ele><time>2026-04-04T15:31:26.999Z</time></trkpt><trkpt lat="43.189651144953196" lon="12.978218845981436"><ele>787.3333333333334</ele><time>2026-04-04T15:31:27.999Z</time></trkpt><trkpt lat="43.18952263708912" lon="12.978340335732652"><ele>785.0</ele><time>2026-04-04T15:31:28.999Z</time></trkpt><trkpt lat="43.189397693963095" lon="12.978474678468746"><ele>785.0</ele><time>2026-04-04T15:31:29.999Z</time></trkpt><trkpt lat="43.18927493775355" lon="12.978627299542508"><ele>785.0</ele><time>2026-04-04T15:31:30.999Z</time></trkpt><trkpt lat="43.18915568958413" lon="12.978790023910975"><ele>785.0</ele><time>2026-04-04T15:31:31.999Z</time></trkpt><trkpt lat="43.18903461688051" lon="12.978954779680848"><ele>784.0</ele><time>2026-04-04T15:31:32.999Z</time></trkpt><trkpt lat="43.18890439716593" lon="12.979102039479066"><ele>783.0</ele><time>2026-04-04T15:31:33.999Z</time></trkpt><trkpt lat="43.188775516022694" lon="12.979239129270153"><ele>782.0</ele><time>2026-04-04T15:31:34.999Z</time></trkpt><trkpt lat="43.18864525720297" lon="12.979370191297706"><ele>782.0</ele><time>2026-04-04T15:31:35.999Z</time></trkpt><trkpt lat="43.188505439176424" lon="12.979522809778768"><ele>782.0</ele><time>2026-04-04T15:31:36.999Z</time></trkpt><trkpt lat="43.18837775352733" lon="12.979675319879512"><ele>782.0</ele><time>2026-04-04T15:31:37.999Z</time></trkpt><trkpt lat="43.18825497070936" lon="12.979812591513491"><ele>781.75</ele><time>2026-04-04T15:31:38.999Z</time></trkpt><trkpt lat="43.1881402279608" lon="12.979938105353774"><ele>781.5</ele><time>2026-04-04T15:31:39.999Z</time></trkpt><trkpt lat="43.18802043250867" lon="12.980060163241411"><ele>781.25</ele><time>2026-04-04T15:31:40.999Z</time></trkpt><trkpt lat="43.18790500623233" lon="12.9801792211414"><ele>781.0</ele><time>2026-04-04T15:31:41.999Z</time></trkpt><trkpt lat="43.18778192795896" lon="12.980293332754165"><ele>781.0</ele><time>2026-04-04T15:31:42.999Z</time></trkpt><trkpt lat="43.18768838623531" lon="12.980408975041197"><ele>781.0</ele><time>2026-04-04T15:31:43.999Z</time></trkpt><trkpt lat="43.187591492080394" lon="12.98050598824546"><ele>781.0</ele><time>2026-04-04T15:31:44.999Z</time></trkpt><trkpt lat="43.18748911982301" lon="12.980585331849456"><ele>781.0</ele><time>2026-04-04T15:31:45.999Z</time></trkpt><trkpt lat="43.18739126706294" lon="12.980672105803832"><ele>781.8</ele><time>2026-04-04T15:31:46.999Z</time></trkpt><trkpt lat="43.18729415723605" lon="12.980766049825508"><ele>782.5999999999999</ele><time>2026-04-04T15:31:47.999Z</time></trkpt><trkpt lat="43.18721097186304" lon="12.980844704604344"><ele>783.4</ele><time>2026-04-04T15:31:48.999Z</time></trkpt><trkpt lat="43.18713098727077" lon="12.980910548244672"><ele>784.2</ele><time>2026-04-04T15:31:49.999Z</time></trkpt><trkpt lat="43.18706459743598" lon="12.980995075809002"><ele>785.0</ele><time>2026-04-04T15:31:50.999Z</time></trkpt><trkpt lat="43.18699300830517" lon="12.981097949811135"><ele>785.0</ele><time>2026-04-04T15:31:51.999Z</time></trkpt><trkpt lat="43.186913748454174" lon="12.981186509311067"><ele>785.0</ele><time>2026-04-04T15:31:52.999Z</time></trkpt><trkpt lat="43.18683596434712" lon="12.98126998848387"><ele>785.0</ele><time>2026-04-04T15:31:53.999Z</time></trkpt><trkpt lat="43.186786712754426" lon="12.981372096336226"><ele>785.0</ele><time>2026-04-04T15:31:54.999Z</time></trkpt><trkpt lat="43.186766502351894" lon="12.981498123969327"><ele>785.0</ele><time>2026-04-04T15:31:55.999Z</time></trkpt><trkpt lat="43.18673969766957" lon="12.981614147590289"><ele>782.8</ele><time>2026-04-04T15:31:56.999Z</time></trkpt><trkpt lat="43.18669765713702" lon="12.98175678163228"><ele>780.6</ele><time>2026-04-04T15:31:57.999Z</time></trkpt><trkpt lat="43.18663068003417" lon="12.981873879353513"><ele>778.4000000000001</ele><time>2026-04-04T15:31:58.999Z</time></trkpt><trkpt lat="43.18655745304723" lon="12.98198318859952"><ele>776.2</ele><time>2026-04-04T15:31:59.999Z</time></trkpt><trkpt lat="43.186499707378935" lon="12.982103914999167"><ele>774.0</ele><time>2026-04-04T15:32:00.999Z</time></trkpt><trkpt lat="43.18644148658461" lon="12.982230861042"><ele>774.0</ele><time>2026-04-04T15:32:01.999Z</time></trkpt><trkpt lat="43.186375938711684" lon="12.982364890626863"><ele>774.0</ele><time>2026-04-04T15:32:02.999Z</time></trkpt><trkpt lat="43.18631231497842" lon="12.982501317905912"><ele>774.0</ele><time>2026-04-04T15:32:03.999Z</time></trkpt><trkpt lat="43.18623647609777" lon="12.982652431292074"><ele>774.0</ele><time>2026-04-04T15:32:04.999Z</time></trkpt><trkpt lat="43.186149939529734" lon="12.982778467466714"><ele>780.0</ele><time>2026-04-04T15:32:05.999Z</time></trkpt><trkpt lat="43.18604194960319" lon="12.982893322657548"><ele>786.0</ele><time>2026-04-04T15:32:06.999Z</time></trkpt><trkpt lat="43.18593468922068" lon="12.983010028462955"><ele>792.0</ele><time>2026-04-04T15:32:07.999Z</time></trkpt><trkpt lat="43.18582377367085" lon="12.983103494790138"><ele>798.0</ele><time>2026-04-04T15:32:08.999Z</time></trkpt><trkpt lat="43.18572641101459" lon="12.983194220546714"><ele>795.0</ele><time>2026-04-04T15:32:09.999Z</time></trkpt><trkpt lat="43.185630908673794" lon="12.983287284150085"><ele>792.0</ele><time>2026-04-04T15:32:10.999Z</time></trkpt><trkpt lat="43.18553786160846" lon="12.983358464627713"><ele>789.0</ele><time>2026-04-04T15:32:11.999Z</time></trkpt><trkpt lat="43.1854568538321" lon="12.983420983109387"><ele>786.0</ele><time>2026-04-04T15:32:12.999Z</time></trkpt><trkpt lat="43.185357329483914" lon="12.983489661362814"><ele>783.0</ele><time>2026-04-04T15:32:13.999Z</time></trkpt><trkpt lat="43.18527163629151" lon="12.983585547144948"><ele>783.0</ele><time>2026-04-04T15:32:14.999Z</time></trkpt><trkpt lat="43.18520586504744" lon="12.983676479200582"><ele>783.0</ele><time>2026-04-04T15:32:15.999Z</time></trkpt><trkpt lat="43.18513558641915" lon="12.983824339121842"><ele>783.0</ele><time>2026-04-04T15:32:17.999Z</time></trkpt><trkpt lat="43.185102769473644" lon="12.983979955077587"><ele>783.0</ele><time>2026-04-04T15:32:19.999Z</time></trkpt><trkpt lat="43.18510855578536" lon="12.98408759863274"><ele>783.0</ele><time>2026-04-04T15:32:20.999Z</time></trkpt><trkpt lat="43.18511255132875" lon="12.984237410508069"><ele>781.8333333333334</ele><time>2026-04-04T15:32:21.999Z</time></trkpt><trkpt lat="43.185105656274146" lon="12.984365406666324"><ele>780.6666666666667</ele><time>2026-04-04T15:32:22.999Z</time></trkpt><trkpt lat="43.185105663734305" lon="12.984455867868485"><ele>779.5</ele><time>2026-04-04T15:32:23.999Z</time></trkpt><trkpt lat="43.185135579143335" lon="12.984541179583116"><ele>778.3333333333334</ele><time>2026-04-04T15:32:24.999Z</time></trkpt><trkpt lat="43.18519607346189" lon="12.984634837265837"><ele>777.1666666666667</ele><time>2026-04-04T15:32:25.999Z</time></trkpt><trkpt lat="43.18527793196319" lon="12.984728691348788"><ele>776.0</ele><time>2026-04-04T15:32:26.999Z</time></trkpt><trkpt lat="43.18536766183123" lon="12.984850461361791"><ele>776.0</ele><time>2026-04-04T15:32:27.999Z</time></trkpt><trkpt lat="43.18543030635299" lon="12.984957997218482"><ele>776.0</ele><time>2026-04-04T15:32:28.999Z</time></trkpt><trkpt lat="43.18548704402993" lon="12.985046880385799"><ele>776.0</ele><time>2026-04-04T15:32:29.999Z</time></trkpt><trkpt lat="43.18553736233265" lon="12.985155177194448"><ele>776.0</ele><time>2026-04-04T15:32:30.999Z</time></trkpt><trkpt lat="43.185570522795885" lon="12.985250726676822"><ele>776.0</ele><time>2026-04-04T15:32:31.999Z</time></trkpt><trkpt lat="43.18557148016947" lon="12.985377512713683"><ele>772.8</ele><time>2026-04-04T15:32:32.999Z</time></trkpt><trkpt lat="43.18555811260451" lon="12.98551490628547"><ele>769.5999999999999</ele><time>2026-04-04T15:32:33.999Z</time></trkpt><trkpt lat="43.18554286159836" lon="12.985622975252618"><ele>766.4</ele><time>2026-04-04T15:32:34.999Z</time></trkpt><trkpt lat="43.18554670585657" lon="12.98572858848085"><ele>763.2</ele><time>2026-04-04T15:32:35.999Z</time></trkpt><trkpt lat="43.18555991249746" lon="12.985856076271062"><ele>760.0</ele><time>2026-04-04T15:32:36.999Z</time></trkpt><trkpt lat="43.185567976672694" lon="12.98600547754125"><ele>757.8</ele><time>2026-04-04T15:32:37.999Z</time></trkpt><trkpt lat="43.18557543579426" lon="12.986141357449375"><ele>755.6</ele><time>2026-04-04T15:32:38.999Z</time></trkpt><trkpt lat="43.18559752367074" lon="12.98626178248551"><ele>753.4000000000001</ele><time>2026-04-04T15:32:39.999Z</time></trkpt><trkpt lat="43.1856114369578" lon="12.98638001333566"><ele>751.2</ele><time>2026-04-04T15:32:40.999Z</time></trkpt><trkpt lat="43.18559776310806" lon="12.986500317797843"><ele>749.0</ele><time>2026-04-04T15:32:41.999Z</time></trkpt><trkpt lat="43.18558298494425" lon="12.986652296484523"><ele>749.6</ele><time>2026-04-04T15:32:42.999Z</time></trkpt><trkpt lat="43.1855740916007" lon="12.986795288448054"><ele>750.2</ele><time>2026-04-04T15:32:43.999Z</time></trkpt><trkpt lat="43.18554553606863" lon="12.986928564619484"><ele>750.8000000000001</ele><time>2026-04-04T15:32:44.999Z</time></trkpt><trkpt lat="43.185514313225966" lon="12.987059977093015"><ele>751.4000000000001</ele><time>2026-04-04T15:32:46Z</time></trkpt><trkpt lat="43.18548745018164" lon="12.987195121115516"><ele>752.0</ele><time>2026-04-04T15:32:47Z</time></trkpt><trkpt lat="43.18547031051583" lon="12.987310503396687"><ele>752.0</ele><time>2026-04-04T15:32:48Z</time></trkpt><trkpt lat="43.18545963243187" lon="12.987413866066566"><ele>752.0</ele><time>2026-04-04T15:32:49Z</time></trkpt><trkpt lat="43.18545190301569" lon="12.987564975892754"><ele>752.0</ele><time>2026-04-04T15:32:51Z</time></trkpt><trkpt lat="43.185517538301006" lon="12.987730692733786"><ele>752.0</ele><time>2026-04-04T15:32:53Z</time></trkpt><trkpt lat="43.18558201310644" lon="12.987857234184276"><ele>752.0</ele><time>2026-04-04T15:32:54Z</time></trkpt><trkpt lat="43.18564239012499" lon="12.98798724171858"><ele>757.4000000000001</ele><time>2026-04-04T15:32:55Z</time></trkpt><trkpt lat="43.185717354568744" lon="12.988079738948043"><ele>762.8000000000001</ele><time>2026-04-04T15:32:56Z</time></trkpt><trkpt lat="43.185786676294285" lon="12.988141921572335"><ele>768.2</ele><time>2026-04-04T15:32:57Z</time></trkpt><trkpt lat="43.18585767830025" lon="12.988256445081136"><ele>773.6</ele><time>2026-04-04T15:32:59Z</time></trkpt><trkpt lat="43.18588031613596" lon="12.988352815392986"><ele>779.0</ele><time>2026-04-04T15:33:00Z</time></trkpt><trkpt lat="43.18589598045379" lon="12.988481444878595"><ele>779.0</ele><time>2026-04-04T15:33:01Z</time></trkpt><trkpt lat="43.18593096938829" lon="12.988636356423958"><ele>779.0</ele><time>2026-04-04T15:33:02Z</time></trkpt><trkpt lat="43.18597751858466" lon="12.988787142376639"><ele>779.0</ele><time>2026-04-04T15:33:03Z</time></trkpt><trkpt lat="43.186007270436356" lon="12.988930061967194"><ele>779.0</ele><time>2026-04-04T15:33:04Z</time></trkpt><trkpt lat="43.18604047861845" lon="12.989058589884195"><ele>779.0</ele><time>2026-04-04T15:33:05Z</time></trkpt><trkpt lat="43.18608818093912" lon="12.989157752944434"><ele>779.3333333333334</ele><time>2026-04-04T15:33:06Z</time></trkpt><trkpt lat="43.18613659293498" lon="12.989238171416174"><ele>779.6666666666667</ele><time>2026-04-04T15:33:07Z</time></trkpt><trkpt lat="43.18620415558788" lon="12.989290624084497"><ele>780.0</ele><time>2026-04-04T15:33:08Z</time></trkpt><trkpt lat="43.18626639088534" lon="12.989364702485721"><ele>780.3333333333333</ele><time>2026-04-04T15:33:09Z</time></trkpt><trkpt lat="43.18632974309989" lon="12.989445758602587"><ele>780.6666666666666</ele><time>2026-04-04T15:33:10Z</time></trkpt><trkpt lat="43.18635692043207" lon="12.989536413034449"><ele>781.0</ele><time>2026-04-04T15:33:11Z</time></trkpt><trkpt lat="43.18631099130923" lon="12.989657106159394"><ele>781.0</ele><time>2026-04-04T15:33:12Z</time></trkpt><trkpt lat="43.18625922981773" lon="12.989764145073497"><ele>781.0</ele><time>2026-04-04T15:33:13Z</time></trkpt><trkpt lat="43.186195177447416" lon="12.989884623754987"><ele>781.0</ele><time>2026-04-04T15:33:14Z</time></trkpt><trkpt lat="43.18613923783221" lon="12.990011294622315"><ele>781.0</ele><time>2026-04-04T15:33:15Z</time></trkpt><trkpt lat="43.186104983916614" lon="12.990109391057343"><ele>781.0</ele><time>2026-04-04T15:33:16Z</time></trkpt><trkpt lat="43.18606332363439" lon="12.990197602794835"><ele>779.5999999999999</ele><time>2026-04-04T15:33:17Z</time></trkpt><trkpt lat="43.1859732306863" lon="12.990273340523565"><ele>778.2</ele><time>2026-04-04T15:33:18Z</time></trkpt><trkpt lat="43.18589569815456" lon="12.990340158029701"><ele>776.8</ele><time>2026-04-04T15:33:19Z</time></trkpt><trkpt lat="43.18582121065281" lon="12.99044604397933"><ele>775.4000000000001</ele><time>2026-04-04T15:33:20Z</time></trkpt><trkpt lat="43.185740732816456" lon="12.990561424865495"><ele>774.0</ele><time>2026-04-04T15:33:21Z</time></trkpt><trkpt lat="43.18567171743979" lon="12.990659288813392"><ele>774.0</ele><time>2026-04-04T15:33:22Z</time></trkpt><trkpt lat="43.185614620889666" lon="12.990743683025244"><ele>774.0</ele><time>2026-04-04T15:33:23Z</time></trkpt><trkpt lat="43.18551876009938" lon="12.990807152781807"><ele>774.0</ele><time>2026-04-04T15:33:24Z</time></trkpt><trkpt lat="43.185437926727154" lon="12.990824573298568"><ele>774.0</ele><time>2026-04-04T15:33:25Z</time></trkpt><trkpt lat="43.18537844407469" lon="12.990879169709046"><ele>774.0</ele><time>2026-04-04T15:33:26Z</time></trkpt><trkpt lat="43.18531925378817" lon="12.990955747068504"><ele>774.0</ele><time>2026-04-04T15:33:27Z</time></trkpt><trkpt lat="43.18525010685294" lon="12.991033969386883"><ele>778.8333333333334</ele><time>2026-04-04T15:33:28Z</time></trkpt><trkpt lat="43.185187206106924" lon="12.991119297519335"><ele>783.6666666666667</ele><time>2026-04-04T15:33:29Z</time></trkpt><trkpt lat="43.1851126839537" lon="12.991203000830666"><ele>788.5</ele><time>2026-04-04T15:33:30Z</time></trkpt><trkpt lat="43.18503970122791" lon="12.991286617602997"><ele>793.3333333333334</ele><time>2026-04-04T15:33:31Z</time></trkpt><trkpt lat="43.18497930781694" lon="12.991370418992782"><ele>798.1666666666667</ele><time>2026-04-04T15:33:32Z</time></trkpt><trkpt lat="43.18492271541263" lon="12.991434472599158"><ele>803.0</ele><time>2026-04-04T15:33:33Z</time></trkpt><trkpt lat="43.18486854371658" lon="12.991511103442791"><ele>800.8</ele><time>2026-04-04T15:33:33.999Z</time></trkpt><trkpt lat="43.184825265427996" lon="12.991617581826434"><ele>798.5999999999999</ele><time>2026-04-04T15:33:34.999Z</time></trkpt><trkpt lat="43.18478768105135" lon="12.991725632995372"><ele>796.4000000000001</ele><time>2026-04-04T15:33:35.999Z</time></trkpt><trkpt lat="43.184743565919284" lon="12.991848881805074"><ele>794.2</ele><time>2026-04-04T15:33:36.999Z</time></trkpt><trkpt lat="43.18471091357606" lon="12.991974373971319"><ele>792.0</ele><time>2026-04-04T15:33:37.999Z</time></trkpt><trkpt lat="43.1846598110838" lon="12.99206070537328"><ele>792.0</ele><time>2026-04-04T15:33:38.999Z</time></trkpt><trkpt lat="43.18458015156114" lon="12.992138513840862"><ele>792.0</ele><time>2026-04-04T15:33:39.999Z</time></trkpt><trkpt lat="43.184500622903826" lon="12.99223155393553"><ele>792.0</ele><time>2026-04-04T15:33:40.999Z</time></trkpt><trkpt lat="43.18442731799674" lon="12.99231809233576"><ele>792.0</ele><time>2026-04-04T15:33:41.999Z</time></trkpt><trkpt lat="43.18436583239618" lon="12.992399642757086"><ele>792.0</ele><time>2026-04-04T15:33:42.999Z</time></trkpt><trkpt lat="43.18432052663292" lon="12.992476828037848"><ele>792.0</ele><time>2026-04-04T15:33:43.999Z</time></trkpt><trkpt lat="43.184267797850445" lon="12.992565057141647"><ele>792.0</ele><time>2026-04-04T15:33:44.999Z</time></trkpt><trkpt lat="43.18422115176401" lon="12.992655251157531"><ele>792.0</ele><time>2026-04-04T15:33:45.999Z</time></trkpt><trkpt lat="43.18417755194594" lon="12.992742686241375"><ele>792.0</ele><time>2026-04-04T15:33:46.999Z</time></trkpt><trkpt lat="43.18416281253929" lon="12.992902924439427"><ele>792.0</ele><time>2026-04-04T15:33:48.999Z</time></trkpt><trkpt lat="43.1842235498968" lon="12.993025494848128"><ele>792.0</ele><time>2026-04-04T15:33:50.999Z</time></trkpt><trkpt lat="43.18431607453007" lon="12.993061811239519"><ele>792.0</ele><time>2026-04-04T15:33:52.999Z</time></trkpt><trkpt lat="43.184423384599555" lon="12.99305538075478"><ele>792.0</ele><time>2026-04-04T15:33:54.999Z</time></trkpt><trkpt lat="43.184501763514355" lon="12.993076886429511"><ele>792.0</ele><time>2026-04-04T15:33:55.999Z</time></trkpt><trkpt lat="43.18456040525434" lon="12.993121426605"><ele>792.0</ele><time>2026-04-04T15:33:56.999Z</time></trkpt><trkpt lat="43.184590677621706" lon="12.993199336308539"><ele>792.0</ele><time>2026-04-04T15:33:57.999Z</time></trkpt><trkpt lat="43.18458712365726" lon="12.993312452733518"><ele>790.6</ele><time>2026-04-04T15:33:58.999Z</time></trkpt><trkpt lat="43.18458691708074" lon="12.993440659520695"><ele>789.2</ele><time>2026-04-04T15:33:59.999Z</time></trkpt><trkpt lat="43.1846026938776" lon="12.99358293328984"><ele>787.8</ele><time>2026-04-04T15:34:00.999Z</time></trkpt><trkpt lat="43.184624078919875" lon="12.993717818998896"><ele>786.4</ele><time>2026-04-04T15:34:01.999Z</time></trkpt><trkpt lat="43.18462838126606" lon="12.993832768829991"><ele>785.0</ele><time>2026-04-04T15:34:02.999Z</time></trkpt><trkpt lat="43.184619573809165" lon="12.99392610688775"><ele>785.0</ele><time>2026-04-04T15:34:03.999Z</time></trkpt><trkpt lat="43.18460031485699" lon="12.994039378857563"><ele>785.0</ele><time>2026-04-04T15:34:04.999Z</time></trkpt><trkpt lat="43.184586045408494" lon="12.994175655975356"><ele>785.0</ele><time>2026-04-04T15:34:05.999Z</time></trkpt><trkpt lat="43.18457826923151" lon="12.994322889034141"><ele>785.0</ele><time>2026-04-04T15:34:06.999Z</time></trkpt><trkpt lat="43.184559601043325" lon="12.994453972991773"><ele>785.0</ele><time>2026-04-04T15:34:07.999Z</time></trkpt><trkpt lat="43.184540171912346" lon="12.994589436982785"><ele>784.8</ele><time>2026-04-04T15:34:08.999Z</time></trkpt><trkpt lat="43.18452646227394" lon="12.994720001521532"><ele>784.6</ele><time>2026-04-04T15:34:09.999Z</time></trkpt><trkpt lat="43.18451654612795" lon="12.99483788004138"><ele>784.4000000000001</ele><time>2026-04-04T15:34:10.999Z</time></trkpt><trkpt lat="43.18449997379164" lon="12.994967444562757"><ele>784.2</ele><time>2026-04-04T15:34:11.999Z</time></trkpt><trkpt lat="43.184469250593224" lon="12.995075106066452"><ele>784.0</ele><time>2026-04-04T15:34:12.999Z</time></trkpt><trkpt lat="43.18442417946826" lon="12.995181823479342"><ele>784.8333333333333</ele><time>2026-04-04T15:34:13.999Z</time></trkpt><trkpt lat="43.18439806666071" lon="12.995296380658921"><ele>785.6666666666666</ele><time>2026-04-04T15:34:14.999Z</time></trkpt><trkpt lat="43.18435719679175" lon="12.99541554929005"><ele>786.5</ele><time>2026-04-04T15:34:15.999Z</time></trkpt><trkpt lat="43.18433734995663" lon="12.995528741841303"><ele>787.3333333333333</ele><time>2026-04-04T15:34:16.999Z</time></trkpt><trkpt lat="43.18430613557814" lon="12.995641531183232"><ele>788.1666666666666</ele><time>2026-04-04T15:34:17.999Z</time></trkpt><trkpt lat="43.184280405245275" lon="12.995759097069657"><ele>789.0</ele><time>2026-04-04T15:34:18.999Z</time></trkpt><trkpt lat="43.184246687490905" lon="12.995871443450863"><ele>791.6666666666666</ele><time>2026-04-04T15:34:19.999Z</time></trkpt><trkpt lat="43.184211621343465" lon="12.995988860994478"><ele>794.3333333333333</ele><time>2026-04-04T15:34:20.999Z</time></trkpt><trkpt lat="43.18416463707915" lon="12.996099049217031"><ele>797.0</ele><time>2026-04-04T15:34:21.999Z</time></trkpt><trkpt lat="43.18411669773912" lon="12.996207979500705"><ele>799.6666666666666</ele><time>2026-04-04T15:34:22.999Z</time></trkpt><trkpt lat="43.18407264335069" lon="12.996316639697808"><ele>802.3333333333333</ele><time>2026-04-04T15:34:23.999Z</time></trkpt><trkpt lat="43.1840368656148" lon="12.996412398181182"><ele>805.0</ele><time>2026-04-04T15:34:24.999Z</time></trkpt><trkpt lat="43.18399636455037" lon="12.996507823127954"><ele>797.9999999999999</ele><time>2026-04-04T15:34:25.999Z</time></trkpt><trkpt lat="43.18394206265328" lon="12.996599858090532"><ele>791.0</ele><time>2026-04-04T15:34:26.999Z</time></trkpt><trkpt lat="43.18389332474572" lon="12.996691441086105"><ele>784.0</ele><time>2026-04-04T15:34:27.999Z</time></trkpt><trkpt lat="43.18384771369458" lon="12.996797499715434"><ele>777.0</ele><time>2026-04-04T15:34:28.999Z</time></trkpt><trkpt lat="43.18379208020933" lon="12.996895228880742"><ele>770.0</ele><time>2026-04-04T15:34:29.999Z</time></trkpt><trkpt lat="43.183733965238986" lon="12.99699947172856"><ele>763.0</ele><time>2026-04-04T15:34:30.999Z</time></trkpt><trkpt lat="43.18369387504013" lon="12.99709194690582"><ele>763.0</ele><time>2026-04-04T15:34:31.999Z</time></trkpt><trkpt lat="43.183646225089205" lon="12.997194210528692"><ele>763.0</ele><time>2026-04-04T15:34:32.999Z</time></trkpt><trkpt lat="43.183619169184645" lon="12.997292479915757"><ele>763.0</ele><time>2026-04-04T15:34:33.999Z</time></trkpt><trkpt lat="43.18361975056139" lon="12.997391771335383"><ele>763.0</ele><time>2026-04-04T15:34:34.999Z</time></trkpt><trkpt lat="43.18363924580573" lon="12.997475699944818"><ele>763.0</ele><time>2026-04-04T15:34:35.999Z</time></trkpt><trkpt lat="43.183678417410945" lon="12.997568968286624"><ele>763.0</ele><time>2026-04-04T15:34:36.999Z</time></trkpt><trkpt lat="43.18375027278207" lon="12.997658897210728"><ele>765.1666666666667</ele><time>2026-04-04T15:34:37.999Z</time></trkpt><trkpt lat="43.18381912389918" lon="12.997747925634036"><ele>767.3333333333334</ele><time>2026-04-04T15:34:38.999Z</time></trkpt><trkpt lat="43.18387565031154" lon="12.9978573353794"><ele>769.5</ele><time>2026-04-04T15:34:39.999Z</time></trkpt><trkpt lat="43.183932952644" lon="12.99794702982822"><ele>771.6666666666667</ele><time>2026-04-04T15:34:41Z</time></trkpt><trkpt lat="43.18398446183079" lon="12.99802629086018"><ele>773.8333333333334</ele><time>2026-04-04T15:34:42Z</time></trkpt><trkpt lat="43.18402965916501" lon="12.998107562203595"><ele>776.0</ele><time>2026-04-04T15:34:43Z</time></trkpt><trkpt lat="43.184064279992484" lon="12.998197429035239"><ele>776.0000000000001</ele><time>2026-04-04T15:34:44Z</time></trkpt><trkpt lat="43.184109604170345" lon="12.998281525759886"><ele>776.0</ele><time>2026-04-04T15:34:45Z</time></trkpt><trkpt lat="43.18416508780282" lon="12.998368769753382"><ele>776.0</ele><time>2026-04-04T15:34:46Z</time></trkpt><trkpt lat="43.18422195603049" lon="12.998440906605257"><ele>776.0</ele><time>2026-04-04T15:34:47Z</time></trkpt><trkpt lat="43.18428903860315" lon="12.998516193829667"><ele>776.0000000000001</ele><time>2026-04-04T15:34:48Z</time></trkpt><trkpt lat="43.1843663742567" lon="12.998581568230026"><ele>776.0</ele><time>2026-04-04T15:34:49Z</time></trkpt><trkpt lat="43.18445072701327" lon="12.998629967502627"><ele>772.1999999999999</ele><time>2026-04-04T15:34:50Z</time></trkpt><trkpt lat="43.18454611721251" lon="12.998673056345622"><ele>768.4</ele><time>2026-04-04T15:34:51Z</time></trkpt><trkpt lat="43.184632271118616" lon="12.998724240326988"><ele>764.6</ele><time>2026-04-04T15:34:52Z</time></trkpt><trkpt lat="43.184722098754165" lon="12.998779510958803"><ele>760.8</ele><time>2026-04-04T15:34:53Z</time></trkpt><trkpt lat="43.184804914725895" lon="12.998833457080405"><ele>757.0</ele><time>2026-04-04T15:34:54Z</time></trkpt><trkpt lat="43.184883294749454" lon="12.998890278999543"><ele>757.0</ele><time>2026-04-04T15:34:55Z</time></trkpt><trkpt lat="43.18496999534406" lon="12.99894955560462"><ele>757.0</ele><time>2026-04-04T15:34:56Z</time></trkpt><trkpt lat="43.18504801579392" lon="12.999024634079737"><ele>757.0</ele><time>2026-04-04T15:34:57Z</time></trkpt><trkpt lat="43.18512899799346" lon="12.999076535010344"><ele>757.0</ele><time>2026-04-04T15:34:58Z</time></trkpt><trkpt lat="43.185216340822066" lon="12.99912800380074"><ele>757.0</ele><time>2026-04-04T15:34:59Z</time></trkpt><trkpt lat="43.18530111741775" lon="12.999181692249417"><ele>750.1666666666667</ele><time>2026-04-04T15:35:00Z</time></trkpt><trkpt lat="43.185381325700256" lon="12.999228726913104"><ele>743.3333333333334</ele><time>2026-04-04T15:35:01Z</time></trkpt><trkpt lat="43.18546276473067" lon="12.999282782635879"><ele>736.5</ele><time>2026-04-04T15:35:02Z</time></trkpt><trkpt lat="43.185541367130796" lon="12.999335994336146"><ele>729.6666666666666</ele><time>2026-04-04T15:35:03Z</time></trkpt><trkpt lat="43.185620391547886" lon="12.99938035241468"><ele>722.8333333333333</ele><time>2026-04-04T15:35:04Z</time></trkpt><trkpt lat="43.185697387527995" lon="12.999433113451989"><ele>716.0</ele><time>2026-04-04T15:35:05Z</time></trkpt><trkpt lat="43.1857884588537" lon="12.999493680053975"><ele>716.0</ele><time>2026-04-04T15:35:06Z</time></trkpt><trkpt lat="43.18588515737441" lon="12.999528455991438"><ele>716.0</ele><time>2026-04-04T15:35:07Z</time></trkpt><trkpt lat="43.18598000268169" lon="12.999564045129148"><ele>716.0</ele><time>2026-04-04T15:35:08Z</time></trkpt><trkpt lat="43.18606833099138" lon="12.999589575620146"><ele>716.0</ele><time>2026-04-04T15:35:09Z</time></trkpt><trkpt lat="43.18614331528223" lon="12.999626111605098"><ele>716.0</ele><time>2026-04-04T15:35:10Z</time></trkpt><trkpt lat="43.18621635424775" lon="12.99966740479373"><ele>716.0</ele><time>2026-04-04T15:35:11Z</time></trkpt><trkpt lat="43.18629475105671" lon="12.999695716849933"><ele>716.0</ele><time>2026-04-04T15:35:12Z</time></trkpt><trkpt lat="43.18636578255453" lon="12.999716807071225"><ele>716.0</ele><time>2026-04-04T15:35:13Z</time></trkpt><trkpt lat="43.18644141452374" lon="12.999727485487954"><ele>716.0</ele><time>2026-04-04T15:35:14Z</time></trkpt><trkpt lat="43.186523996479984" lon="12.999758364435863"><ele>716.0</ele><time>2026-04-04T15:35:15Z</time></trkpt><trkpt lat="43.18661203962933" lon="12.999801530172737"><ele>716.0</ele><time>2026-04-04T15:35:16Z</time></trkpt><trkpt lat="43.1867108304897" lon="12.999843301615302"><ele>716.0</ele><time>2026-04-04T15:35:17Z</time></trkpt><trkpt lat="43.18681612724752" lon="12.99986264109261"><ele>718.1999999999999</ele><time>2026-04-04T15:35:18Z</time></trkpt><trkpt lat="43.18690297276012" lon="12.999887091512354"><ele>720.4</ele><time>2026-04-04T15:35:19Z</time></trkpt><trkpt lat="43.18698274175908" lon="12.999955273958765"><ele>722.6</ele><time>2026-04-04T15:35:20Z</time></trkpt><trkpt lat="43.187064309290314" lon="13.000048966492644"><ele>724.8</ele><time>2026-04-04T15:35:21Z</time></trkpt><trkpt lat="43.18714384876891" lon="13.000116206109771"><ele>727.0</ele><time>2026-04-04T15:35:22Z</time></trkpt><trkpt lat="43.18722198960181" lon="13.000157873938281"><ele>727.0</ele><time>2026-04-04T15:35:23Z</time></trkpt><trkpt lat="43.187291420148" lon="13.000195633948172"><ele>727.0</ele><time>2026-04-04T15:35:24Z</time></trkpt><trkpt lat="43.18737390361268" lon="13.000211229451342"><ele>727.0</ele><time>2026-04-04T15:35:25Z</time></trkpt><trkpt lat="43.18746036921571" lon="13.000224034771923"><ele>727.0</ele><time>2026-04-04T15:35:26Z</time></trkpt><trkpt lat="43.18754336154248" lon="13.000234653097701"><ele>727.0</ele><time>2026-04-04T15:35:27Z</time></trkpt><trkpt lat="43.18762159736525" lon="13.000241445772122"><ele>727.0</ele><time>2026-04-04T15:35:28Z</time></trkpt><trkpt lat="43.1876859233258" lon="13.000284894370608"><ele>728.8333333333334</ele><time>2026-04-04T15:35:29Z</time></trkpt><trkpt lat="43.18773200726705" lon="13.000362005041316"><ele>730.6666666666667</ele><time>2026-04-04T15:35:30Z</time></trkpt><trkpt lat="43.18776758114868" lon="13.000441964537524"><ele>732.5</ele><time>2026-04-04T15:35:31Z</time></trkpt><trkpt lat="43.18782765751109" lon="13.000517206793575"><ele>734.3333333333334</ele><time>2026-04-04T15:35:32Z</time></trkpt><trkpt lat="43.1879026099212" lon="13.000575102344449"><ele>736.1666666666666</ele><time>2026-04-04T15:35:33Z</time></trkpt><trkpt lat="43.187966903059035" lon="13.000631634803616"><ele>738.0</ele><time>2026-04-04T15:35:34Z</time></trkpt><trkpt lat="43.188038949841776" lon="13.000691338246487"><ele>738.0</ele><time>2026-04-04T15:35:35Z</time></trkpt><trkpt lat="43.188119931697855" lon="13.000739739198355"><ele>738.0</ele><time>2026-04-04T15:35:36Z</time></trkpt><trkpt lat="43.188187887046794" lon="13.000803521303581"><ele>738.0</ele><time>2026-04-04T15:35:37Z</time></trkpt><trkpt lat="43.1882584124207" lon="13.00088636335923"><ele>738.0</ele><time>2026-04-04T15:35:38Z</time></trkpt><trkpt lat="43.18832693938477" lon="13.00098695933483"><ele>738.0</ele><time>2026-04-04T15:35:39Z</time></trkpt><trkpt lat="43.188391831342244" lon="13.00106475488465"><ele>733.5</ele><time>2026-04-04T15:35:40Z</time></trkpt><trkpt lat="43.18844126416575" lon="13.001134540406802"><ele>729.0</ele><time>2026-04-04T15:35:41Z</time></trkpt><trkpt lat="43.188457864016236" lon="13.001223237385226"><ele>724.5</ele><time>2026-04-04T15:35:42Z</time></trkpt><trkpt lat="43.18844348424536" lon="13.001319772028433"><ele>720.0</ele><time>2026-04-04T15:35:43Z</time></trkpt><trkpt lat="43.188377732353125" lon="13.001432401216466"><ele>715.5</ele><time>2026-04-04T15:35:45Z</time></trkpt><trkpt lat="43.188321554850496" lon="13.001475623497322"><ele>711.0</ele><time>2026-04-04T15:35:47Z</time></trkpt><trkpt lat="43.188260738888516" lon="13.00152932074833"><ele>708.0</ele><time>2026-04-04T15:36:34Z</time></trkpt><trkpt lat="43.18818296253406" lon="13.001666940010843"><ele>705.0</ele><time>2026-04-04T15:36:36Z</time></trkpt><trkpt lat="43.18816270686164" lon="13.00178067472271"><ele>702.0</ele><time>2026-04-04T15:36:37Z</time></trkpt><trkpt lat="43.18815473835611" lon="13.0018945081245"><ele>699.0</ele><time>2026-04-04T15:36:38Z</time></trkpt><trkpt lat="43.18815738673261" lon="13.001997001652073"><ele>696.0</ele><time>2026-04-04T15:36:39Z</time></trkpt><trkpt lat="43.188177598139696" lon="13.00212636358593"><ele>696.0</ele><time>2026-04-04T15:36:40Z</time></trkpt><trkpt lat="43.188209513569895" lon="13.002246113530708"><ele>696.0</ele><time>2026-04-04T15:36:41Z</time></trkpt><trkpt lat="43.18825429857873" lon="13.00237689204648"><ele>696.0</ele><time>2026-04-04T15:36:42Z</time></trkpt><trkpt lat="43.188283631801966" lon="13.002492614324995"><ele>696.0</ele><time>2026-04-04T15:36:43Z</time></trkpt><trkpt lat="43.18831553435712" lon="13.002577346652123"><ele>696.0</ele><time>2026-04-04T15:36:44Z</time></trkpt><trkpt lat="43.18838864548643" lon="13.002641181679822"><ele>696.0</ele><time>2026-04-04T15:36:45Z</time></trkpt><trkpt lat="43.18846863435085" lon="13.002724871559213"><ele>693.6666666666666</ele><time>2026-04-04T15:36:45.999Z</time></trkpt><trkpt lat="43.188533758119995" lon="13.002822930571645"><ele>691.3333333333334</ele><time>2026-04-04T15:36:47.001Z</time></trkpt><trkpt lat="43.188574133231455" lon="13.00291681896448"><ele>689.0</ele><time>2026-04-04T15:36:48.001Z</time></trkpt><trkpt lat="43.18863443260212" lon="13.002969419180076"><ele>686.6666666666667</ele><time>2026-04-04T15:36:49.001Z</time></trkpt><trkpt lat="43.188721486989756" lon="13.003030922004713"><ele>684.3333333333334</ele><time>2026-04-04T15:36:50.001Z</time></trkpt><trkpt lat="43.188799593433856" lon="13.003102077224689"><ele>682.0</ele><time>2026-04-04T15:36:51.001Z</time></trkpt><trkpt lat="43.18883915623878" lon="13.003172746867637"><ele>682.0</ele><time>2026-04-04T15:36:52.001Z</time></trkpt><trkpt lat="43.18897657470377" lon="13.003225265574285"><ele>682.0</ele><time>2026-04-04T15:36:54.001Z</time></trkpt><trkpt lat="43.18907278005182" lon="13.003271507661452"><ele>682.0</ele><time>2026-04-04T15:36:55.001Z</time></trkpt><trkpt lat="43.18916451201486" lon="13.003320205209826"><ele>682.0</ele><time>2026-04-04T15:36:56.001Z</time></trkpt><trkpt lat="43.189254160566854" lon="13.00338017464424"><ele>682.0</ele><time>2026-04-04T15:36:57.001Z</time></trkpt><trkpt lat="43.18933053176105" lon="13.003449163817685"><ele>677.4000000000001</ele><time>2026-04-04T15:36:58.001Z</time></trkpt><trkpt lat="43.18938299846998" lon="13.003511704795338"><ele>672.8000000000001</ele><time>2026-04-04T15:36:59.001Z</time></trkpt><trkpt lat="43.189361282711005" lon="13.003700466531107"><ele>668.2</ele><time>2026-04-04T15:37:02.001Z</time></trkpt><trkpt lat="43.18936532847206" lon="13.003788322099036"><ele>663.6</ele><time>2026-04-04T15:37:03.001Z</time></trkpt><trkpt lat="43.189434869151754" lon="13.003890666643867"><ele>659.0</ele><time>2026-04-04T15:37:05.001Z</time></trkpt><trkpt lat="43.18949784825466" lon="13.003992640543615"><ele>659.0</ele><time>2026-04-04T15:37:06.001Z</time></trkpt><trkpt lat="43.189537396222065" lon="13.004109490090077"><ele>659.0</ele><time>2026-04-04T15:37:07.001Z</time></trkpt><trkpt lat="43.18955956457716" lon="13.004230555473097"><ele>659.0</ele><time>2026-04-04T15:37:08.001Z</time></trkpt><trkpt lat="43.18957559252326" lon="13.004318206771133"><ele>659.0</ele><time>2026-04-04T15:37:09.001Z</time></trkpt><trkpt lat="43.189603336863854" lon="13.00441172679382"><ele>659.0</ele><time>2026-04-04T15:37:10.001Z</time></trkpt><trkpt lat="43.189603483428634" lon="13.00452264432434"><ele>659.0</ele><time>2026-04-04T15:37:11.001Z</time></trkpt><trkpt lat="43.18959331629144" lon="13.004611337391944"><ele>654.6</ele><time>2026-04-04T15:37:12.001Z</time></trkpt><trkpt lat="43.189502213018635" lon="13.004656748624118"><ele>650.2</ele><time>2026-04-04T15:37:15Z</time></trkpt><trkpt lat="43.189437777841654" lon="13.004619147935857"><ele>645.8000000000001</ele><time>2026-04-04T15:37:16Z</time></trkpt><trkpt lat="43.18935594788214" lon="13.004568466337144"><ele>641.4000000000001</ele><time>2026-04-04T15:37:17Z</time></trkpt><trkpt lat="43.1892705909857" lon="13.004519397203385"><ele>637.0</ele><time>2026-04-04T15:37:18Z</time></trkpt><trkpt lat="43.18916974138502" lon="13.004471490164633"><ele>637.0</ele><time>2026-04-04T15:37:19Z</time></trkpt><trkpt lat="43.189063146421795" lon="13.004433453378905"><ele>637.0</ele><time>2026-04-04T15:37:20Z</time></trkpt><trkpt lat="43.18895444298914" lon="13.00440684292316"><ele>637.0</ele><time>2026-04-04T15:37:21Z</time></trkpt><trkpt lat="43.188845509905974" lon="13.004395220603618"><ele>637.0</ele><time>2026-04-04T15:37:22Z</time></trkpt><trkpt lat="43.18874023872871" lon="13.004398793131248"><ele>637.0</ele><time>2026-04-04T15:37:23Z</time></trkpt><trkpt lat="43.18863060068584" lon="13.004417734924504"><ele>635.8000000000001</ele><time>2026-04-04T15:37:24Z</time></trkpt><trkpt lat="43.18852286009977" lon="13.004437929418287"><ele>634.6</ele><time>2026-04-04T15:37:25Z</time></trkpt><trkpt lat="43.188416951915556" lon="13.004407845111546"><ele>633.4000000000001</ele><time>2026-04-04T15:37:26Z</time></trkpt><trkpt lat="43.18831635362424" lon="13.004419120724673"><ele>632.2</ele><time>2026-04-04T15:37:27Z</time></trkpt><trkpt lat="43.18821822519831" lon="13.00443011950209"><ele>631.0</ele><time>2026-04-04T15:37:28Z</time></trkpt><trkpt lat="43.188124992241804" lon="13.00444055472702"><ele>629.3333333333334</ele><time>2026-04-04T15:37:29Z</time></trkpt><trkpt lat="43.18803170331265" lon="13.004451988464133"><ele>627.6666666666667</ele><time>2026-04-04T15:37:30Z</time></trkpt><trkpt lat="43.187940240775895" lon="13.004463198352322"><ele>626.0</ele><time>2026-04-04T15:37:31Z</time></trkpt><trkpt lat="43.18784687750479" lon="13.004473911826187"><ele>624.3333333333334</ele><time>2026-04-04T15:37:32Z</time></trkpt><trkpt lat="43.187757662011045" lon="13.004482295247636"><ele>622.6666666666666</ele><time>2026-04-04T15:37:33Z</time></trkpt><trkpt lat="43.18768550843505" lon="13.0044879732344"><ele>621.0</ele><time>2026-04-04T15:37:34Z</time></trkpt><trkpt lat="43.18760377586711" lon="13.004492627935317"><ele>621.0</ele><time>2026-04-04T15:37:36Z</time></trkpt><trkpt lat="43.187658685805076" lon="13.00471321736315"><ele>621.0</ele><time>2026-04-04T15:37:39Z</time></trkpt><trkpt lat="43.18771399569342" lon="13.00477806253206"><ele>621.0</ele><time>2026-04-04T15:37:40Z</time></trkpt><trkpt lat="43.18778118083557" lon="13.00485636105676"><ele>621.0</ele><time>2026-04-04T15:37:41Z</time></trkpt><trkpt lat="43.18785369941471" lon="13.004955419914134"><ele>621.0</ele><time>2026-04-04T15:37:42Z</time></trkpt><trkpt lat="43.187922367600265" lon="13.005063795542759"><ele>619.0</ele><time>2026-04-04T15:37:43Z</time></trkpt><trkpt lat="43.18799566549987" lon="13.005185025927585"><ele>617.0</ele><time>2026-04-04T15:37:44Z</time></trkpt><trkpt lat="43.188067749468125" lon="13.005308018017104"><ele>615.0</ele><time>2026-04-04T15:37:45Z</time></trkpt><trkpt lat="43.188143858478405" lon="13.005427681453428"><ele>613.0</ele><time>2026-04-04T15:37:46Z</time></trkpt><trkpt lat="43.18822222581436" lon="13.005532309085904"><ele>613.0</ele><time>2026-04-04T15:37:47Z</time></trkpt><trkpt lat="43.188309008496304" lon="13.005627518875704"><ele>613.0</ele><time>2026-04-04T15:37:48Z</time></trkpt><trkpt lat="43.18840748525528" lon="13.005706390296702"><ele>613.0</ele><time>2026-04-04T15:37:49Z</time></trkpt><trkpt lat="43.18851581549833" lon="13.005769224370162"><ele>613.0</ele><time>2026-04-04T15:37:50Z</time></trkpt><trkpt lat="43.188619724305724" lon="13.005830209352737"><ele>611.8333333333334</ele><time>2026-04-04T15:37:51Z</time></trkpt><trkpt lat="43.18871632988619" lon="13.0058852259339"><ele>610.6666666666667</ele><time>2026-04-04T15:37:52Z</time></trkpt><trkpt lat="43.18880708921776" lon="13.005930494984353"><ele>609.5</ele><time>2026-04-04T15:37:53Z</time></trkpt><trkpt lat="43.18889378895703" lon="13.005971850661119"><ele>608.3333333333334</ele><time>2026-04-04T15:37:54Z</time></trkpt><trkpt lat="43.188967413017615" lon="13.00600635984086"><ele>607.1666666666666</ele><time>2026-04-04T15:37:55Z</time></trkpt><trkpt lat="43.189028264539566" lon="13.006034581765318"><ele>606.0</ele><time>2026-04-04T15:37:56Z</time></trkpt><trkpt lat="43.189115235606245" lon="13.006082691481376"><ele>606.0</ele><time>2026-04-04T15:37:58Z</time></trkpt><trkpt lat="43.18907944121129" lon="13.006225591074037"><ele>606.0</ele><time>2026-04-04T15:38:02Z</time></trkpt><trkpt lat="43.188959323851094" lon="13.006272986148915"><ele>606.0</ele><time>2026-04-04T15:38:04Z</time></trkpt><trkpt lat="43.18889307762185" lon="13.006277141493964"><ele>606.0</ele><time>2026-04-04T15:38:05Z</time></trkpt><trkpt lat="43.188827779614115" lon="13.006275748462464"><ele>606.0</ele><time>2026-04-04T15:38:06Z</time></trkpt><trkpt lat="43.18874578062185" lon="13.006364134439552"><ele>604.4</ele><time>2026-04-04T15:38:08Z</time></trkpt><trkpt lat="43.188758648643066" lon="13.006513572887854"><ele>602.8</ele><time>2026-04-04T15:38:10Z</time></trkpt><trkpt lat="43.18881492142537" lon="13.006680291779226"><ele>601.1999999999999</ele><time>2026-04-04T15:38:12Z</time></trkpt><trkpt lat="43.188835773449476" lon="13.006794673294829"><ele>599.6</ele><time>2026-04-04T15:38:13Z</time></trkpt><trkpt lat="43.18884820425678" lon="13.006911161999243"><ele>598.0</ele><time>2026-04-04T15:38:14Z</time></trkpt><trkpt lat="43.18886762942589" lon="13.007012395205043"><ele>593.6</ele><time>2026-04-04T15:38:15Z</time></trkpt><trkpt lat="43.188896706144995" lon="13.007122535257288"><ele>589.1999999999999</ele><time>2026-04-04T15:38:16Z</time></trkpt><trkpt lat="43.1889288816226" lon="13.007246720878332"><ele>584.8</ele><time>2026-04-04T15:38:17Z</time></trkpt><trkpt lat="43.18896952819333" lon="13.007370195056007"><ele>580.4</ele><time>2026-04-04T15:38:18Z</time></trkpt><trkpt lat="43.189001970946656" lon="13.00749361424268"><ele>576.0</ele><time>2026-04-04T15:38:19Z</time></trkpt><trkpt lat="43.18902192445356" lon="13.007613489556482"><ele>574.4</ele><time>2026-04-04T15:38:20Z</time></trkpt><trkpt lat="43.18905225998024" lon="13.007735694694086"><ele>572.8</ele><time>2026-04-04T15:38:21Z</time></trkpt><trkpt lat="43.18908872182616" lon="13.007846938934003"><ele>571.1999999999999</ele><time>2026-04-04T15:38:22Z</time></trkpt><trkpt lat="43.189129163538" lon="13.00795887049115"><ele>569.6</ele><time>2026-04-04T15:38:23Z</time></trkpt><trkpt lat="43.1891644816825" lon="13.00806606205516"><ele>568.0</ele><time>2026-04-04T15:38:24Z</time></trkpt><trkpt lat="43.18918803954727" lon="13.008184719978514"><ele>568.0</ele><time>2026-04-04T15:38:25Z</time></trkpt><trkpt lat="43.18920844464791" lon="13.008299991661891"><ele>568.0</ele><time>2026-04-04T15:38:26Z</time></trkpt><trkpt lat="43.18922381730222" lon="13.008405938012213"><ele>568.0</ele><time>2026-04-04T15:38:27Z</time></trkpt><trkpt lat="43.18922330181565" lon="13.008496754666368"><ele>568.0</ele><time>2026-04-04T15:38:28Z</time></trkpt><trkpt lat="43.18920826133359" lon="13.008593403332728"><ele>568.0</ele><time>2026-04-04T15:38:29Z</time></trkpt><trkpt lat="43.18920904446242" lon="13.00874981836049"><ele>568.0</ele><time>2026-04-04T15:38:31Z</time></trkpt><trkpt lat="43.18924619245189" lon="13.008830528732776"><ele>565.5</ele><time>2026-04-04T15:38:32Z</time></trkpt><trkpt lat="43.189274834182136" lon="13.008934284863212"><ele>563.0</ele><time>2026-04-04T15:38:33Z</time></trkpt><trkpt lat="43.189298775972006" lon="13.009046432236849"><ele>560.5</ele><time>2026-04-04T15:38:34Z</time></trkpt><trkpt lat="43.1893293847264" lon="13.009150008490064"><ele>558.0</ele><time>2026-04-04T15:38:35Z</time></trkpt><trkpt lat="43.18935020407952" lon="13.00925640090132"><ele>555.5</ele><time>2026-04-04T15:38:36Z</time></trkpt><trkpt lat="43.189358684137964" lon="13.009388038397304"><ele>553.0</ele><time>2026-04-04T15:38:37Z</time></trkpt><trkpt lat="43.189374023021145" lon="13.009522742610285"><ele>550.0</ele><time>2026-04-04T15:38:38Z</time></trkpt><trkpt lat="43.18940409427347" lon="13.009646879976302"><ele>547.0</ele><time>2026-04-04T15:38:39Z</time></trkpt><trkpt lat="43.189440162209664" lon="13.009761879264014"><ele>544.0</ele><time>2026-04-04T15:38:40Z</time></trkpt><trkpt lat="43.18947303755065" lon="13.009887249564725"><ele>541.0</ele><time>2026-04-04T15:38:41Z</time></trkpt><trkpt lat="43.1894989372551" lon="13.010014124274594"><ele>538.0</ele><time>2026-04-04T15:38:42Z</time></trkpt><trkpt lat="43.18953693573807" lon="13.0101389316124"><ele>534.8333333333334</ele><time>2026-04-04T15:38:43Z</time></trkpt><trkpt lat="43.18956802626207" lon="13.010252425716313"><ele>531.6666666666667</ele><time>2026-04-04T15:38:44Z</time></trkpt><trkpt lat="43.18958044975644" lon="13.010362256812476"><ele>528.5</ele><time>2026-04-04T15:38:45Z</time></trkpt><trkpt lat="43.18961345502885" lon="13.010501551096876"><ele>525.3333333333334</ele><time>2026-04-04T15:38:47Z</time></trkpt><trkpt lat="43.189653048679446" lon="13.010571005658203"><ele>522.1666666666666</ele><time>2026-04-04T15:38:48Z</time></trkpt><trkpt lat="43.189669441871125" lon="13.010713269671314"><ele>519.0</ele><time>2026-04-04T15:38:50Z</time></trkpt><trkpt lat="43.189643023448546" lon="13.010816119586128"><ele>516.8333333333334</ele><time>2026-04-04T15:38:51Z</time></trkpt><trkpt lat="43.18963915490645" lon="13.01092864703076"><ele>514.6666666666666</ele><time>2026-04-04T15:38:52Z</time></trkpt><trkpt lat="43.18963464458543" lon="13.01103210346031"><ele>512.5</ele><time>2026-04-04T15:38:53.001Z</time></trkpt><trkpt lat="43.189596033626636" lon="13.011146007467048"><ele>510.3333333333333</ele><time>2026-04-04T15:38:54.001Z</time></trkpt><trkpt lat="43.18956376397839" lon="13.011245366146131"><ele>508.16666666666663</ele><time>2026-04-04T15:38:55.001Z</time></trkpt><trkpt lat="43.18953877778264" lon="13.011378804108228"><ele>506.0</ele><time>2026-04-04T15:38:57.001Z</time></trkpt><trkpt lat="43.189511910116764" lon="13.011462084530626"><ele>506.0</ele><time>2026-04-04T15:38:58.001Z</time></trkpt><trkpt lat="43.18948273200296" lon="13.011574022445577"><ele>506.0</ele><time>2026-04-04T15:38:59.001Z</time></trkpt><trkpt lat="43.18948299038602" lon="13.011730314798728"><ele>506.0</ele><time>2026-04-04T15:39:00.001Z</time></trkpt><trkpt lat="43.189529561744735" lon="13.01190023599435"><ele>506.0</ele><time>2026-04-04T15:39:01.001Z</time></trkpt><trkpt lat="43.189592777737865" lon="13.01204310619571"><ele>503.25</ele><time>2026-04-04T15:39:02.001Z</time></trkpt><trkpt lat="43.18963202061674" lon="13.012199058632216"><ele>500.5</ele><time>2026-04-04T15:39:03.001Z</time></trkpt><trkpt lat="43.1896554164999" lon="13.012363745129043"><ele>497.75</ele><time>2026-04-04T15:39:04.001Z</time></trkpt><trkpt lat="43.189691861613454" lon="13.012505794073586"><ele>495.0</ele><time>2026-04-04T15:39:05.001Z</time></trkpt><trkpt lat="43.1897663921055" lon="13.01260472772808"><ele>492.25</ele><time>2026-04-04T15:39:06.001Z</time></trkpt><trkpt lat="43.18988030236681" lon="13.012681891017351"><ele>489.5</ele><time>2026-04-04T15:39:07.001Z</time></trkpt><trkpt lat="43.18999955084681" lon="13.01274969156115"><ele>486.75</ele><time>2026-04-04T15:39:08.001Z</time></trkpt><trkpt lat="43.19010671575899" lon="13.0128107482419"><ele>484.0</ele><time>2026-04-04T15:39:09.001Z</time></trkpt><trkpt lat="43.190196098322254" lon="13.012880174498768"><ele>484.0</ele><time>2026-04-04T15:39:10.001Z</time></trkpt><trkpt lat="43.19026125656609" lon="13.012984987298376"><ele>484.0</ele><time>2026-04-04T15:39:11.001Z</time></trkpt><trkpt lat="43.190303023906395" lon="13.013134590924189"><ele>484.0</ele><time>2026-04-04T15:39:12.001Z</time></trkpt><trkpt lat="43.19033414191112" lon="13.013292640774182"><ele>484.0</ele><time>2026-04-04T15:39:13.001Z</time></trkpt><trkpt lat="43.190360714702145" lon="13.013462508796147"><ele>481.0</ele><time>2026-04-04T15:39:14.001Z</time></trkpt><trkpt lat="43.19037511023634" lon="13.013649723301343"><ele>478.0</ele><time>2026-04-04T15:39:15.001Z</time></trkpt><trkpt lat="43.19038440823113" lon="13.013833283118245"><ele>475.0</ele><time>2026-04-04T15:39:16.001Z</time></trkpt><trkpt lat="43.190389966654394" lon="13.014009621885892"><ele>472.0</ele><time>2026-04-04T15:39:17.001Z</time></trkpt><trkpt lat="43.19039229384811" lon="13.014183912073438"><ele>469.5</ele><time>2026-04-04T15:39:18.001Z</time></trkpt><trkpt lat="43.190392688429625" lon="13.01435625162903"><ele>467.0</ele><time>2026-04-04T15:39:19.001Z</time></trkpt><trkpt lat="43.19038034737156" lon="13.014536995940684"><ele>464.5</ele><time>2026-04-04T15:39:20.001Z</time></trkpt><trkpt lat="43.1903711802186" lon="13.014710781244416"><ele>462.0</ele><time>2026-04-04T15:39:21.001Z</time></trkpt><trkpt lat="43.19035919121553" lon="13.014896884300276"><ele>459.75</ele><time>2026-04-04T15:39:22.001Z</time></trkpt><trkpt lat="43.19034262892656" lon="13.015087151573772"><ele>457.5</ele><time>2026-04-04T15:39:23.001Z</time></trkpt><trkpt lat="43.19030513085357" lon="13.015272685304422"><ele>455.25</ele><time>2026-04-04T15:39:24.001Z</time></trkpt><trkpt lat="43.190271917081674" lon="13.015453553466719"><ele>453.0</ele><time>2026-04-04T15:39:25.001Z</time></trkpt><trkpt lat="43.190227129822084" lon="13.015616732415078"><ele>453.0</ele><time>2026-04-04T15:39:26.001Z</time></trkpt><trkpt lat="43.19018163674496" lon="13.015771811041631"><ele>453.0</ele><time>2026-04-04T15:39:27.001Z</time></trkpt><trkpt lat="43.19013939321358" lon="13.015928176267208"><ele>453.0</ele><time>2026-04-04T15:39:28Z</time></trkpt><trkpt lat="43.19011560039555" lon="13.016098672003835"><ele>453.0</ele><time>2026-04-04T15:39:29Z</time></trkpt><trkpt lat="43.1900729108436" lon="13.016257401541184"><ele>451.75</ele><time>2026-04-04T15:39:30Z</time></trkpt><trkpt lat="43.19003575294657" lon="13.016413903820201"><ele>450.5</ele><time>2026-04-04T15:39:31Z</time></trkpt><trkpt lat="43.189983805867946" lon="13.016555823765422"><ele>449.25</ele><time>2026-04-04T15:39:32Z</time></trkpt><trkpt lat="43.18996330715177" lon="13.016710722635455"><ele>448.0</ele><time>2026-04-04T15:39:33Z</time></trkpt><trkpt lat="43.189927156806874" lon="13.016854449730666"><ele>447.0</ele><time>2026-04-04T15:39:34Z</time></trkpt><trkpt lat="43.18990813703951" lon="13.016996497053288"><ele>445.99999999999994</ele><time>2026-04-04T15:39:35Z</time></trkpt><trkpt lat="43.18990598342862" lon="13.01713919546196"><ele>444.99999999999994</ele><time>2026-04-04T15:39:36Z</time></trkpt><trkpt lat="43.189916482574745" lon="13.01728470378735"><ele>444.0</ele><time>2026-04-04T15:39:37Z</time></trkpt><trkpt lat="43.18992313073903" lon="13.017414365225926"><ele>443.0</ele><time>2026-04-04T15:39:38Z</time></trkpt><trkpt lat="43.18991742314296" lon="13.017531965657884"><ele>441.4</ele><time>2026-04-04T15:39:39Z</time></trkpt><trkpt lat="43.18988481354458" lon="13.017638742817653"><ele>439.79999999999995</ele><time>2026-04-04T15:39:40Z</time></trkpt><trkpt lat="43.18980008838541" lon="13.017697133258704"><ele>438.2</ele><time>2026-04-04T15:39:41Z</time></trkpt><trkpt lat="43.18970618372848" lon="13.017647007366131"><ele>436.6</ele><time>2026-04-04T15:39:42Z</time></trkpt><trkpt lat="43.189605398631635" lon="13.0176376878454"><ele>435.0</ele><time>2026-04-04T15:39:43Z</time></trkpt><trkpt lat="43.1894995924759" lon="13.017621439277653"><ele>434.4</ele><time>2026-04-04T15:39:44Z</time></trkpt><trkpt lat="43.18941151082506" lon="13.017648239456756"><ele>433.8</ele><time>2026-04-04T15:39:45Z</time></trkpt><trkpt lat="43.18933866266776" lon="13.017674454062352"><ele>433.20000000000005</ele><time>2026-04-04T15:39:46Z</time></trkpt><trkpt lat="43.189271307853225" lon="13.017755617476736"><ele>432.6</ele><time>2026-04-04T15:39:47Z</time></trkpt><trkpt lat="43.18921559305345" lon="13.01786415417129"><ele>432.0</ele><time>2026-04-04T15:39:48Z</time></trkpt><trkpt lat="43.18917707751175" lon="13.018003448923269"><ele>432.0</ele><time>2026-04-04T15:39:49Z</time></trkpt><trkpt lat="43.18914735824526" lon="13.018173335205526"><ele>432.0</ele><time>2026-04-04T15:39:50Z</time></trkpt><trkpt lat="43.18911329444466" lon="13.018330337469669"><ele>432.0</ele><time>2026-04-04T15:39:51Z</time></trkpt><trkpt lat="43.189063990057775" lon="13.01845388104551"><ele>432.0</ele><time>2026-04-04T15:39:52Z</time></trkpt><trkpt lat="43.18898354489065" lon="13.018546358557556"><ele>428.0</ele><time>2026-04-04T15:39:53Z</time></trkpt><trkpt lat="43.18889038774423" lon="13.01864512277132"><ele>424.0</ele><time>2026-04-04T15:39:54Z</time></trkpt><trkpt lat="43.18880803980938" lon="13.018770575662018"><ele>420.0</ele><time>2026-04-04T15:39:55Z</time></trkpt><trkpt lat="43.18870309740343" lon="13.018868214360982"><ele>416.0</ele><time>2026-04-04T15:39:56Z</time></trkpt><trkpt lat="43.188611887291735" lon="13.018984077452455"><ele>416.0</ele><time>2026-04-04T15:39:57Z</time></trkpt><trkpt lat="43.1885326186825" lon="13.01910738055355"><ele>416.0</ele><time>2026-04-04T15:39:58Z</time></trkpt><trkpt lat="43.18847042120801" lon="13.019223299646791"><ele>416.0</ele><time>2026-04-04T15:39:59Z</time></trkpt><trkpt lat="43.18838492418607" lon="13.019295087579055"><ele>416.0</ele><time>2026-04-04T15:40:00Z</time></trkpt><trkpt lat="43.18827064669404" lon="13.019285153472094"><ele>416.0</ele><time>2026-04-04T15:40:01Z</time></trkpt><trkpt lat="43.188126683703125" lon="13.019307017673901"><ele>413.5</ele><time>2026-04-04T15:40:02Z</time></trkpt><trkpt lat="43.18797854479231" lon="13.019336559516468"><ele>411.0</ele><time>2026-04-04T15:40:03Z</time></trkpt><trkpt lat="43.18783069785434" lon="13.019363542176059"><ele>408.5</ele><time>2026-04-04T15:40:04Z</time></trkpt><trkpt lat="43.18768880172868" lon="13.019386398319114"><ele>406.0</ele><time>2026-04-04T15:40:05Z</time></trkpt><trkpt lat="43.1875624209891" lon="13.019405270579957"><ele>406.0</ele><time>2026-04-04T15:40:06Z</time></trkpt><trkpt lat="43.187430446065804" lon="13.019424406338771"><ele>406.0</ele><time>2026-04-04T15:40:07Z</time></trkpt><trkpt lat="43.187293179494766" lon="13.019444309383898"><ele>406.0</ele><time>2026-04-04T15:40:08Z</time></trkpt><trkpt lat="43.18716003812414" lon="13.019463614269325"><ele>406.0</ele><time>2026-04-04T15:40:09Z</time></trkpt><trkpt lat="43.1870273005589" lon="13.019483504140702"><ele>404.6</ele><time>2026-04-04T15:40:10Z</time></trkpt><trkpt lat="43.18690419595457" lon="13.019502439130067"><ele>403.20000000000005</ele><time>2026-04-04T15:40:11Z</time></trkpt><trkpt lat="43.18680116563128" lon="13.019525790732262"><ele>401.79999999999995</ele><time>2026-04-04T15:40:12Z</time></trkpt><trkpt lat="43.18672262092418" lon="13.019585860671983"><ele>400.4</ele><time>2026-04-04T15:40:13Z</time></trkpt><trkpt lat="43.18664714050223" lon="13.019610547154178"><ele>399.0</ele><time>2026-04-04T15:40:14Z</time></trkpt><trkpt lat="43.186613003042254" lon="13.01972586333484"><ele>399.0</ele><time>2026-04-04T15:40:15Z</time></trkpt><trkpt lat="43.1865853465482" lon="13.019845870383223"><ele>399.0</ele><time>2026-04-04T15:40:16Z</time></trkpt><trkpt lat="43.186564835210405" lon="13.01998798664578"><ele>399.0</ele><time>2026-04-04T15:40:17Z</time></trkpt><trkpt lat="43.186563595559974" lon="13.020142047144303"><ele>399.0</ele><time>2026-04-04T15:40:18Z</time></trkpt><trkpt lat="43.186581143653946" lon="13.020299984508398"><ele>399.0</ele><time>2026-04-04T15:40:19Z</time></trkpt><trkpt lat="43.186608362908295" lon="13.020454203172381"><ele>397.6</ele><time>2026-04-04T15:40:20Z</time></trkpt><trkpt lat="43.18662521319814" lon="13.020615489505648"><ele>396.2</ele><time>2026-04-04T15:40:21Z</time></trkpt><trkpt lat="43.1866337995531" lon="13.020760753951746"><ele>394.8</ele><time>2026-04-04T15:40:22Z</time></trkpt><trkpt lat="43.186636420203" lon="13.020899689894307"><ele>393.40000000000003</ele><time>2026-04-04T15:40:23Z</time></trkpt><trkpt lat="43.18662411508674" lon="13.021020766509332"><ele>392.0</ele><time>2026-04-04T15:40:24Z</time></trkpt><trkpt lat="43.186577024321245" lon="13.021116449607769"><ele>391.0</ele><time>2026-04-04T15:40:25Z</time></trkpt><trkpt lat="43.18649671752531" lon="13.021148666349152"><ele>390.0</ele><time>2026-04-04T15:40:26Z</time></trkpt><trkpt lat="43.186447539884796" lon="13.021257315906306"><ele>389.0</ele><time>2026-04-04T15:40:28Z</time></trkpt><trkpt lat="43.18646449825071" lon="13.021354929387616"><ele>388.0</ele><time>2026-04-04T15:40:29Z</time></trkpt><trkpt lat="43.18663790811749" lon="13.021558923303026"><ele>387.5</ele><time>2026-04-04T15:40:30Z</time></trkpt><trkpt lat="43.1866943171295" lon="13.021698591603016"><ele>387.0</ele><time>2026-04-04T15:40:31Z</time></trkpt><trkpt lat="43.18671463613048" lon="13.021834924606106"><ele>386.5</ele><time>2026-04-04T15:40:32Z</time></trkpt><trkpt lat="43.186687553814394" lon="13.021988008592347"><ele>386.0</ele><time>2026-04-04T15:40:33Z</time></trkpt><trkpt lat="43.18661235843015" lon="13.022187636640188"><ele>386.0</ele><time>2026-04-04T15:40:34Z</time></trkpt><trkpt lat="43.18652699874756" lon="13.022413347968302"><ele>386.0</ele><time>2026-04-04T15:40:35Z</time></trkpt><trkpt lat="43.18645875028364" lon="13.022645894161917"><ele>386.0</ele><time>2026-04-04T15:40:36Z</time></trkpt><trkpt lat="43.18640230774284" lon="13.022857454134773"><ele>384.0</ele><time>2026-04-04T15:40:37Z</time></trkpt><trkpt lat="43.186350106514894" lon="13.023047129270092"><ele>382.0</ele><time>2026-04-04T15:40:38Z</time></trkpt><trkpt lat="43.18630309075271" lon="13.023234103578465"><ele>380.0</ele><time>2026-04-04T15:40:39Z</time></trkpt><trkpt lat="43.18626767241417" lon="13.023410928998633"><ele>378.0</ele><time>2026-04-04T15:40:40Z</time></trkpt><trkpt lat="43.186255184758714" lon="13.023581024487672"><ele>375.75</ele><time>2026-04-04T15:40:41Z</time></trkpt><trkpt lat="43.18627064643413" lon="13.023742948116926"><ele>373.5</ele><time>2026-04-04T15:40:42Z</time></trkpt><trkpt lat="43.186304939750855" lon="13.02392972201791"><ele>371.25</ele><time>2026-04-04T15:40:43Z</time></trkpt><trkpt lat="43.18634929616939" lon="13.024119959915259"><ele>369.0</ele><time>2026-04-04T15:40:44Z</time></trkpt><trkpt lat="43.18639608676039" lon="13.024318578911165"><ele>368.0</ele><time>2026-04-04T15:40:45Z</time></trkpt><trkpt lat="43.18644607686229" lon="13.024518437068354"><ele>367.0</ele><time>2026-04-04T15:40:46Z</time></trkpt><trkpt lat="43.18649103371037" lon="13.0247210036238"><ele>366.0</ele><time>2026-04-04T15:40:47Z</time></trkpt><trkpt lat="43.1865269442181" lon="13.024923726646689"><ele>364.0</ele><time>2026-04-04T15:40:48Z</time></trkpt><trkpt lat="43.18655963326899" lon="13.025134656212662"><ele>362.0</ele><time>2026-04-04T15:40:49Z</time></trkpt><trkpt lat="43.18658885810416" lon="13.025345845712076"><ele>360.0</ele><time>2026-04-04T15:40:50Z</time></trkpt><trkpt lat="43.18661092080647" lon="13.025554823855058"><ele>360.0</ele><time>2026-04-04T15:40:51Z</time></trkpt><trkpt lat="43.186630973958444" lon="13.025753013678564"><ele>360.0</ele><time>2026-04-04T15:40:52Z</time></trkpt><trkpt lat="43.1866482845413" lon="13.025944250081446"><ele>360.0</ele><time>2026-04-04T15:40:53Z</time></trkpt><trkpt lat="43.186666473777024" lon="13.026131188646707"><ele>360.0</ele><time>2026-04-04T15:40:54Z</time></trkpt><trkpt lat="43.186685701517035" lon="13.026309311013526"><ele>358.1666666666667</ele><time>2026-04-04T15:40:55Z</time></trkpt><trkpt lat="43.186694437746304" lon="13.026453896245528"><ele>356.3333333333333</ele><time>2026-04-04T15:40:56Z</time></trkpt><trkpt lat="43.186698320907915" lon="13.026561563066167"><ele>354.5</ele><time>2026-04-04T15:40:57Z</time></trkpt><trkpt lat="43.18667538454106" lon="13.026650904138902"><ele>352.66666666666663</ele><time>2026-04-04T15:40:59.001Z</time></trkpt><trkpt lat="43.18660205331829" lon="13.026662951445433"><ele>350.8333333333333</ele><time>2026-04-04T15:41:01.001Z</time></trkpt><trkpt lat="43.1865412948534" lon="13.026687499341412"><ele>349.0</ele><time>2026-04-04T15:41:03.001Z</time></trkpt><trkpt lat="43.186390646643744" lon="13.026801254245429"><ele>347.4</ele><time>2026-04-04T15:41:05.001Z</time></trkpt><trkpt lat="43.18632776537587" lon="13.026868080762107"><ele>345.79999999999995</ele><time>2026-04-04T15:41:06.001Z</time></trkpt><trkpt lat="43.18623839739428" lon="13.026952530223117"><ele>344.20000000000005</ele><time>2026-04-04T15:41:07.001Z</time></trkpt><trkpt lat="43.18613792726002" lon="13.027046800546957"><ele>342.6</ele><time>2026-04-04T15:41:08.001Z</time></trkpt><trkpt lat="43.18605172179735" lon="13.027138953436488"><ele>341.0</ele><time>2026-04-04T15:41:09.001Z</time></trkpt><trkpt lat="43.1859794436916" lon="13.027228358978608"><ele>341.0</ele><time>2026-04-04T15:41:10.001Z</time></trkpt><trkpt lat="43.185912983746384" lon="13.027304112244536"><ele>341.0</ele><time>2026-04-04T15:41:11.001Z</time></trkpt><trkpt lat="43.18584573683948" lon="13.027366338499556"><ele>341.0</ele><time>2026-04-04T15:41:12.001Z</time></trkpt><trkpt lat="43.18576852964936" lon="13.027394821503458"><ele>341.0</ele><time>2026-04-04T15:41:13.001Z</time></trkpt><trkpt lat="43.18569322037917" lon="13.0273734495224"><ele>341.0</ele><time>2026-04-04T15:41:14.001Z</time></trkpt><trkpt lat="43.18561953774398" lon="13.027312223901577"><ele>341.0</ele><time>2026-04-04T15:41:15.001Z</time></trkpt><trkpt lat="43.185564707785694" lon="13.027215798587372"><ele>341.0</ele><time>2026-04-04T15:41:16.001Z</time></trkpt><trkpt lat="43.18551511105964" lon="13.027106614243777"><ele>341.0</ele><time>2026-04-04T15:41:17.001Z</time></trkpt><trkpt lat="43.18546462093469" lon="13.02699376243695"><ele>341.0</ele><time>2026-04-04T15:41:18.001Z</time></trkpt><trkpt lat="43.18541232051271" lon="13.026877528399636"><ele>341.0</ele><time>2026-04-04T15:41:19.001Z</time></trkpt><trkpt lat="43.18535447108" lon="13.026766063654861"><ele>341.0</ele><time>2026-04-04T15:41:20.001Z</time></trkpt><trkpt lat="43.185298248864555" lon="13.026654594250111"><ele>340.6</ele><time>2026-04-04T15:41:21.001Z</time></trkpt><trkpt lat="43.18525767378788" lon="13.026522084714346"><ele>340.20000000000005</ele><time>2026-04-04T15:41:22.001Z</time></trkpt><trkpt lat="43.18519865388" lon="13.026401293749"><ele>339.79999999999995</ele><time>2026-04-04T15:41:23.001Z</time></trkpt><trkpt lat="43.18513371257044" lon="13.026268383905366"><ele>339.4</ele><time>2026-04-04T15:41:24.001Z</time></trkpt><trkpt lat="43.18508048415673" lon="13.026159445922282"><ele>339.0</ele><time>2026-04-04T15:41:25.001Z</time></trkpt><trkpt lat="43.18500610465813" lon="13.02604386501718"><ele>339.0</ele><time>2026-04-04T15:41:26.001Z</time></trkpt><trkpt lat="43.18495546642617" lon="13.025903582898291"><ele>339.0</ele><time>2026-04-04T15:41:27.001Z</time></trkpt><trkpt lat="43.18489157990918" lon="13.025772832446647"><ele>339.0</ele><time>2026-04-04T15:41:28.001Z</time></trkpt><trkpt lat="43.18482892033283" lon="13.025638730595656"><ele>339.0</ele><time>2026-04-04T15:41:29.001Z</time></trkpt><trkpt lat="43.1847653642873" lon="13.025502943613617"><ele>339.75</ele><time>2026-04-04T15:41:30.001Z</time></trkpt><trkpt lat="43.18468757334816" lon="13.025374284989617"><ele>340.5</ele><time>2026-04-04T15:41:31.001Z</time></trkpt><trkpt lat="43.18463856881925" lon="13.025220634933628"><ele>341.25</ele><time>2026-04-04T15:41:32Z</time></trkpt><trkpt lat="43.184577142628484" lon="13.025079612252268"><ele>342.0</ele><time>2026-04-04T15:41:33Z</time></trkpt><trkpt lat="43.18451744944109" lon="13.024942568179304"><ele>342.0</ele><time>2026-04-04T15:41:34Z</time></trkpt><trkpt lat="43.184458781714845" lon="13.024803103298956"><ele>342.0</ele><time>2026-04-04T15:41:35Z</time></trkpt><trkpt lat="43.1843995924771" lon="13.024661266755988"><ele>342.0</ele><time>2026-04-04T15:41:36Z</time></trkpt><trkpt lat="43.18433420415509" lon="13.024527707646426"><ele>342.0</ele><time>2026-04-04T15:41:37Z</time></trkpt><trkpt lat="43.18428686812766" lon="13.02438558130646"><ele>342.0</ele><time>2026-04-04T15:41:38Z</time></trkpt><trkpt lat="43.18423517253127" lon="13.02425168936157"><ele>342.0</ele><time>2026-04-04T15:41:39Z</time></trkpt><trkpt lat="43.18418814163881" lon="13.024130875783198"><ele>342.0</ele><time>2026-04-04T15:41:40Z</time></trkpt><trkpt lat="43.18414647347825" lon="13.024045855865493"><ele>342.0</ele><time>2026-04-04T15:41:41Z</time></trkpt><trkpt lat="43.18411441953931" lon="13.023962788619542"><ele>342.0</ele><time>2026-04-04T15:41:42Z</time></trkpt><trkpt lat="43.1840744779697" lon="13.023851930803955"><ele>342.0</ele><time>2026-04-04T15:41:43Z</time></trkpt><trkpt lat="43.18402905124986" lon="13.023716330506963"><ele>342.0</ele><time>2026-04-04T15:41:44Z</time></trkpt><trkpt lat="43.18399586784009" lon="13.023563415937971"><ele>342.0</ele><time>2026-04-04T15:41:45Z</time></trkpt><trkpt lat="43.18396893180189" lon="13.023396647980851"><ele>342.0</ele><time>2026-04-04T15:41:46Z</time></trkpt><trkpt lat="43.183940666867436" lon="13.0232456435421"><ele>342.0</ele><time>2026-04-04T15:41:47Z</time></trkpt><trkpt lat="43.18391318573434" lon="13.023097443709378"><ele>342.8</ele><time>2026-04-04T15:41:48Z</time></trkpt><trkpt lat="43.183884718958105" lon="13.022949853307216"><ele>343.6</ele><time>2026-04-04T15:41:49Z</time></trkpt><trkpt lat="43.18386403981429" lon="13.022800295073992"><ele>344.40000000000003</ele><time>2026-04-04T15:41:50Z</time></trkpt><trkpt lat="43.183830319447274" lon="13.022659696287631"><ele>345.20000000000005</ele><time>2026-04-04T15:41:51Z</time></trkpt><trkpt lat="43.183789876347134" lon="13.022518872363875"><ele>346.0</ele><time>2026-04-04T15:41:52Z</time></trkpt><trkpt lat="43.18374265160747" lon="13.022386904201888"><ele>346.4</ele><time>2026-04-04T15:41:53Z</time></trkpt><trkpt lat="43.183672913574476" lon="13.02225920429608"><ele>346.8</ele><time>2026-04-04T15:41:54Z</time></trkpt><trkpt lat="43.18361618666048" lon="13.022119193645084"><ele>347.2</ele><time>2026-04-04T15:41:55Z</time></trkpt><trkpt lat="43.18356102733197" lon="13.022006082592428"><ele>347.59999999999997</ele><time>2026-04-04T15:41:56Z</time></trkpt><trkpt lat="43.183517013134576" lon="13.021906971717302"><ele>348.0</ele><time>2026-04-04T15:41:57Z</time></trkpt><trkpt lat="43.18348221358504" lon="13.021807173099937"><ele>348.0</ele><time>2026-04-04T15:41:58Z</time></trkpt><trkpt lat="43.18344777667427" lon="13.02171488479116"><ele>348.0</ele><time>2026-04-04T15:41:59Z</time></trkpt><trkpt lat="43.18340467021219" lon="13.021638867399023"><ele>358.0</ele><time>2026-04-04T15:43:22.001Z</time></trkpt></trkseg></trk></gpx>